<?xml version='1.0' encoding='UTF-8'?><gpx version="1.1" creator="JPX - https://github.com/jenetics/jpx" xmlns="http://www.topografix.com/GPX/1/1"><trk><trkseg><trkpt lat="44.8497424" lon="9.6663116"><ele>420.0</ele><time>2026-05-01T07:59:11.808Z</time></trkpt><trkpt lat="44.8498084" lon="9.6663467"><ele>420.0</ele><time>2026-05-01T07:59:12.889Z</time></trkpt><trkpt lat="44.8499111" lon="9.6663111"><ele>420.0</ele><time>2026-05-01T08:01:24.864Z</time></trkpt><trkpt lat="44.8499633" lon="9.6662303"><ele>420.0</ele><time>2026-05-01T08:02:45.872Z</time></trkpt><trkpt lat="44.8500355" lon="9.6662583"><ele>420.0</ele><time>2026-05-01T08:02:51.932Z</time></trkpt><trkpt lat="44.8500667" lon="9.6663683"><ele>420.0</ele><time>2026-05-01T08:02:56.865Z</time></trkpt><trkpt lat="44.8499983" lon="9.6664017"><ele>420.0</ele><time>2026-05-01T08:03:01.865Z</time></trkpt><trkpt lat="44.849935" lon="9.6663583"><ele>420.0</ele><time>2026-05-01T08:03:07.865Z</time></trkpt><trkpt lat="44.8498983" lon="9.6662783"><ele>420.0</ele><time>2026-05-01T08:03:13.865Z</time></trkpt><trkpt lat="44.8498483" lon="9.6662033"><ele>420.0</ele><time>2026-05-01T08:03:21.866Z</time></trkpt><trkpt lat="44.8498017" lon="9.6661033"><ele>420.0</ele><time>2026-05-01T08:03:26.865Z</time></trkpt><trkpt lat="44.8497483" lon="9.66602"><ele>420.0</ele><time>2026-05-01T08:03:31.865Z</time></trkpt><trkpt lat="44.8496667" lon="9.6659683"><ele>419.0</ele><time>2026-05-01T08:03:38.865Z</time></trkpt><trkpt lat="44.849595" lon="9.6659367"><ele>418.0</ele><time>2026-05-01T08:03:41.865Z</time></trkpt><trkpt lat="44.8495233" lon="9.6658867"><ele>417.0</ele><time>2026-05-01T08:03:44.865Z</time></trkpt><trkpt lat="44.84945" lon="9.665825"><ele>416.0</ele><time>2026-05-01T08:03:47.865Z</time></trkpt><trkpt lat="44.849235" lon="9.6656367"><ele>417.8333333333333</ele><time>2026-05-01T08:03:54.864Z</time></trkpt><trkpt lat="44.849175" lon="9.6655817"><ele>419.66666666666663</ele><time>2026-05-01T08:03:55.864Z</time></trkpt><trkpt lat="44.84912" lon="9.66553"><ele>421.5</ele><time>2026-05-01T08:03:56.864Z</time></trkpt><trkpt lat="44.8490333" lon="9.66542"><ele>423.33333333333337</ele><time>2026-05-01T08:03:58.864Z</time></trkpt><trkpt lat="44.848965" lon="9.6653217"><ele>425.1666666666667</ele><time>2026-05-01T08:04:00.864Z</time></trkpt><trkpt lat="44.8489033" lon="9.665295"><ele>427.0</ele><time>2026-05-01T08:04:03.864Z</time></trkpt><trkpt lat="44.8488367" lon="9.665325"><ele>427.0</ele><time>2026-05-01T08:04:05.864Z</time></trkpt><trkpt lat="44.84875" lon="9.665355"><ele>427.00000000000006</ele><time>2026-05-01T08:04:07.864Z</time></trkpt><trkpt lat="44.84867" lon="9.66536"><ele>427.00000000000006</ele><time>2026-05-01T08:04:09.864Z</time></trkpt><trkpt lat="44.8485717" lon="9.66533"><ele>427.0</ele><time>2026-05-01T08:04:11.864Z</time></trkpt><trkpt lat="44.8484667" lon="9.66524"><ele>427.0</ele><time>2026-05-01T08:04:13.864Z</time></trkpt><trkpt lat="44.84841" lon="9.665185"><ele>428.40000000000003</ele><time>2026-05-01T08:04:14.864Z</time></trkpt><trkpt lat="44.848355" lon="9.6651317"><ele>429.80000000000007</ele><time>2026-05-01T08:04:15.864Z</time></trkpt><trkpt lat="44.8482533" lon="9.66504"><ele>431.2</ele><time>2026-05-01T08:04:17.864Z</time></trkpt><trkpt lat="44.848155" lon="9.66495"><ele>432.6</ele><time>2026-05-01T08:04:19.864Z</time></trkpt><trkpt lat="44.8480533" lon="9.66486"><ele>434.0</ele><time>2026-05-01T08:04:21.864Z</time></trkpt><trkpt lat="44.8479583" lon="9.6647683"><ele>434.0</ele><time>2026-05-01T08:04:23.864Z</time></trkpt><trkpt lat="44.8478633" lon="9.66468"><ele>434.0</ele><time>2026-05-01T08:04:25.864Z</time></trkpt><trkpt lat="44.847765" lon="9.6645883"><ele>434.0</ele><time>2026-05-01T08:04:27.864Z</time></trkpt><trkpt lat="44.8477133" lon="9.664535"><ele>434.0</ele><time>2026-05-01T08:04:28.864Z</time></trkpt><trkpt lat="44.847615" lon="9.664435"><ele>434.0</ele><time>2026-05-01T08:04:30.864Z</time></trkpt><trkpt lat="44.84752" lon="9.66434"><ele>436.0</ele><time>2026-05-01T08:04:32.865Z</time></trkpt><trkpt lat="44.8474233" lon="9.664255"><ele>438.0</ele><time>2026-05-01T08:04:34.864Z</time></trkpt><trkpt lat="44.8473283" lon="9.664165"><ele>440.0</ele><time>2026-05-01T08:04:36.865Z</time></trkpt><trkpt lat="44.84724" lon="9.6640833"><ele>442.0</ele><time>2026-05-01T08:04:38.864Z</time></trkpt><trkpt lat="44.847145" lon="9.6640033"><ele>444.0</ele><time>2026-05-01T08:04:40.864Z</time></trkpt><trkpt lat="44.8470517" lon="9.66392"><ele>444.0</ele><time>2026-05-01T08:04:42.864Z</time></trkpt><trkpt lat="44.8469717" lon="9.663835"><ele>444.0</ele><time>2026-05-01T08:04:44.864Z</time></trkpt><trkpt lat="44.8469083" lon="9.663785"><ele>444.0</ele><time>2026-05-01T08:04:46.864Z</time></trkpt><trkpt lat="44.8468433" lon="9.663805"><ele>444.0</ele><time>2026-05-01T08:04:48.864Z</time></trkpt><trkpt lat="44.8467967" lon="9.6638717"><ele>444.0</ele><time>2026-05-01T08:04:50.864Z</time></trkpt><trkpt lat="44.8467533" lon="9.6639483"><ele>444.0</ele><time>2026-05-01T08:04:52.864Z</time></trkpt><trkpt lat="44.8467033" lon="9.6640217"><ele>444.0</ele><time>2026-05-01T08:04:54.864Z</time></trkpt><trkpt lat="44.8466317" lon="9.6641"><ele>443.6</ele><time>2026-05-01T08:04:57.864Z</time></trkpt><trkpt lat="44.8465667" lon="9.6641683"><ele>443.2</ele><time>2026-05-01T08:05:00.864Z</time></trkpt><trkpt lat="44.8465067" lon="9.66422"><ele>442.80000000000007</ele><time>2026-05-01T08:05:03.864Z</time></trkpt><trkpt lat="44.8464333" lon="9.6643183"><ele>442.40000000000003</ele><time>2026-05-01T08:07:38.864Z</time></trkpt><trkpt lat="44.8464467" lon="9.66443"><ele>442.0</ele><time>2026-05-01T08:07:40.864Z</time></trkpt><trkpt lat="44.84649" lon="9.6646117"><ele>439.0</ele><time>2026-05-01T08:07:42.864Z</time></trkpt><trkpt lat="44.846495" lon="9.6647717"><ele>436.00000000000006</ele><time>2026-05-01T08:07:43.864Z</time></trkpt><trkpt lat="44.8465" lon="9.6649017"><ele>433.00000000000006</ele><time>2026-05-01T08:07:44.864Z</time></trkpt><trkpt lat="44.846505" lon="9.6650117"><ele>430.0</ele><time>2026-05-01T08:07:45.864Z</time></trkpt><trkpt lat="44.84651" lon="9.665105"><ele>427.0</ele><time>2026-05-01T08:07:46.864Z</time></trkpt><trkpt lat="44.8465217" lon="9.66526"><ele>426.8</ele><time>2026-05-01T08:07:48.864Z</time></trkpt><trkpt lat="44.84655" lon="9.6653483"><ele>426.6</ele><time>2026-05-01T08:07:50.864Z</time></trkpt><trkpt lat="44.846615" lon="9.6653867"><ele>426.40000000000003</ele><time>2026-05-01T08:07:52.864Z</time></trkpt><trkpt lat="44.8467" lon="9.6653667"><ele>426.20000000000005</ele><time>2026-05-01T08:07:54.864Z</time></trkpt><trkpt lat="44.8468317" lon="9.6655067"><ele>426.0</ele><time>2026-05-01T08:07:56.865Z</time></trkpt><trkpt lat="44.8469117" lon="9.6656533"><ele>426.0</ele><time>2026-05-01T08:07:57.864Z</time></trkpt><trkpt lat="44.8469783" lon="9.6657733"><ele>426.0</ele><time>2026-05-01T08:07:58.864Z</time></trkpt><trkpt lat="44.847005" lon="9.6658633"><ele>426.0</ele><time>2026-05-01T08:07:59.864Z</time></trkpt><trkpt lat="44.8469567" lon="9.6660333"><ele>426.0</ele><time>2026-05-01T08:08:01.864Z</time></trkpt><trkpt lat="44.8468833" lon="9.666125"><ele>426.0</ele><time>2026-05-01T08:08:02.864Z</time></trkpt><trkpt lat="44.8468033" lon="9.6662267"><ele>422.4</ele><time>2026-05-01T08:08:03.865Z</time></trkpt><trkpt lat="44.846715" lon="9.666325"><ele>418.8</ele><time>2026-05-01T08:08:04.864Z</time></trkpt><trkpt lat="44.8466333" lon="9.6664167"><ele>415.2</ele><time>2026-05-01T08:08:05.864Z</time></trkpt><trkpt lat="44.8465517" lon="9.66649"><ele>411.59999999999997</ele><time>2026-05-01T08:08:06.864Z</time></trkpt><trkpt lat="44.8464683" lon="9.6665417"><ele>408.0</ele><time>2026-05-01T08:08:07.865Z</time></trkpt><trkpt lat="44.84639" lon="9.6665783"><ele>408.0</ele><time>2026-05-01T08:08:08.864Z</time></trkpt><trkpt lat="44.8462817" lon="9.6666467"><ele>408.0</ele><time>2026-05-01T08:08:10.864Z</time></trkpt><trkpt lat="44.846245" lon="9.6667967"><ele>408.0</ele><time>2026-05-01T08:08:12.864Z</time></trkpt><trkpt lat="44.8462283" lon="9.6669067"><ele>408.0</ele><time>2026-05-01T08:08:13.864Z</time></trkpt><trkpt lat="44.8461917" lon="9.6670133"><ele>408.0</ele><time>2026-05-01T08:08:14.864Z</time></trkpt><trkpt lat="44.8461433" lon="9.667105"><ele>405.6666666666667</ele><time>2026-05-01T08:08:15.864Z</time></trkpt><trkpt lat="44.8460883" lon="9.66718"><ele>403.33333333333337</ele><time>2026-05-01T08:08:16.864Z</time></trkpt><trkpt lat="44.8460317" lon="9.667255"><ele>401.0</ele><time>2026-05-01T08:08:17.864Z</time></trkpt><trkpt lat="44.8459767" lon="9.66733"><ele>398.6666666666667</ele><time>2026-05-01T08:08:18.864Z</time></trkpt><trkpt lat="44.8459267" lon="9.6673983"><ele>396.33333333333337</ele><time>2026-05-01T08:08:19.864Z</time></trkpt><trkpt lat="44.8458267" lon="9.66748"><ele>394.0</ele><time>2026-05-01T08:08:21.865Z</time></trkpt><trkpt lat="44.8457283" lon="9.667465"><ele>391.6</ele><time>2026-05-01T08:08:23.864Z</time></trkpt><trkpt lat="44.8456467" lon="9.6674683"><ele>389.2</ele><time>2026-05-01T08:08:25.864Z</time></trkpt><trkpt lat="44.8456133" lon="9.6675733"><ele>386.8</ele><time>2026-05-01T08:08:27.864Z</time></trkpt><trkpt lat="44.845605" lon="9.6677333"><ele>384.40000000000003</ele><time>2026-05-01T08:08:29.864Z</time></trkpt><trkpt lat="44.8456267" lon="9.667835"><ele>382.0</ele><time>2026-05-01T08:08:31.865Z</time></trkpt><trkpt lat="44.8456933" lon="9.6679483"><ele>382.0</ele><time>2026-05-01T08:08:33.864Z</time></trkpt><trkpt lat="44.8457417" lon="9.6680083"><ele>382.0</ele><time>2026-05-01T08:08:34.864Z</time></trkpt><trkpt lat="44.84584" lon="9.668125"><ele>382.0</ele><time>2026-05-01T08:08:36.864Z</time></trkpt><trkpt lat="44.84589" lon="9.66818"><ele>382.0</ele><time>2026-05-01T08:08:37.864Z</time></trkpt><trkpt lat="44.8459967" lon="9.66827"><ele>382.0</ele><time>2026-05-01T08:08:39.864Z</time></trkpt><trkpt lat="44.8460833" lon="9.6683483"><ele>382.0</ele><time>2026-05-01T08:08:41.864Z</time></trkpt><trkpt lat="44.8461483" lon="9.66841"><ele>382.0</ele><time>2026-05-01T08:08:43.864Z</time></trkpt><trkpt lat="44.84622" lon="9.6684883"><ele>382.0</ele><time>2026-05-01T08:08:46.864Z</time></trkpt><trkpt lat="44.8462817" lon="9.6685533"><ele>382.0</ele><time>2026-05-01T08:08:49.864Z</time></trkpt><trkpt lat="44.8463367" lon="9.6686333"><ele>382.0</ele><time>2026-05-01T08:09:20.864Z</time></trkpt><trkpt lat="44.84632" lon="9.6687317"><ele>382.0</ele><time>2026-05-01T08:09:22.864Z</time></trkpt><trkpt lat="44.8462417" lon="9.6688467"><ele>380.40000000000003</ele><time>2026-05-01T08:09:24.865Z</time></trkpt><trkpt lat="44.8461967" lon="9.6689167"><ele>378.8</ele><time>2026-05-01T08:09:25.864Z</time></trkpt><trkpt lat="44.8461483" lon="9.668985"><ele>377.2</ele><time>2026-05-01T08:09:26.864Z</time></trkpt><trkpt lat="44.8460567" lon="9.6691017"><ele>375.6</ele><time>2026-05-01T08:09:28.864Z</time></trkpt><trkpt lat="44.845975" lon="9.6692183"><ele>374.0</ele><time>2026-05-01T08:09:30.864Z</time></trkpt><trkpt lat="44.84592" lon="9.6693367"><ele>372.0</ele><time>2026-05-01T08:09:32.864Z</time></trkpt><trkpt lat="44.8459067" lon="9.6694367"><ele>370.0</ele><time>2026-05-01T08:09:34.864Z</time></trkpt><trkpt lat="44.8458933" lon="9.6695317"><ele>368.0</ele><time>2026-05-01T08:09:37.864Z</time></trkpt><trkpt lat="44.8458217" lon="9.669545"><ele>366.0</ele><time>2026-05-01T08:09:40.864Z</time></trkpt><trkpt lat="44.84575" lon="9.6695367"><ele>364.0</ele><time>2026-05-01T08:09:42.864Z</time></trkpt><trkpt lat="44.84568" lon="9.669565"><ele>362.0</ele><time>2026-05-01T08:09:44.864Z</time></trkpt><trkpt lat="44.8455983" lon="9.6695433"><ele>360.0</ele><time>2026-05-01T08:09:46.864Z</time></trkpt><trkpt lat="44.8455033" lon="9.669445"><ele>360.0</ele><time>2026-05-01T08:09:48.864Z</time></trkpt><trkpt lat="44.8454433" lon="9.6693717"><ele>360.0</ele><time>2026-05-01T08:09:49.864Z</time></trkpt><trkpt lat="44.845365" lon="9.6692833"><ele>360.0</ele><time>2026-05-01T08:09:50.864Z</time></trkpt><trkpt lat="44.8452917" lon="9.6692"><ele>360.0</ele><time>2026-05-01T08:09:51.864Z</time></trkpt><trkpt lat="44.84523" lon="9.6691467"><ele>360.0</ele><time>2026-05-01T08:09:52.864Z</time></trkpt><trkpt lat="44.8451633" lon="9.6691033"><ele>360.0</ele><time>2026-05-01T08:09:53.865Z</time></trkpt><trkpt lat="44.8450917" lon="9.6690917"><ele>358.3333333333333</ele><time>2026-05-01T08:09:54.864Z</time></trkpt><trkpt lat="44.8450183" lon="9.66911"><ele>356.6666666666667</ele><time>2026-05-01T08:09:55.864Z</time></trkpt><trkpt lat="44.8449417" lon="9.6692167"><ele>355.0</ele><time>2026-05-01T08:09:57.864Z</time></trkpt><trkpt lat="44.844905" lon="9.6693083"><ele>353.33333333333337</ele><time>2026-05-01T08:09:58.864Z</time></trkpt><trkpt lat="44.8448833" lon="9.6694267"><ele>351.6666666666667</ele><time>2026-05-01T08:09:59.864Z</time></trkpt><trkpt lat="44.8448717" lon="9.6695667"><ele>350.0</ele><time>2026-05-01T08:10:00.864Z</time></trkpt><trkpt lat="44.8448617" lon="9.6697067"><ele>348.6</ele><time>2026-05-01T08:10:01.864Z</time></trkpt><trkpt lat="44.8448567" lon="9.6698417"><ele>347.2</ele><time>2026-05-01T08:10:02.864Z</time></trkpt><trkpt lat="44.8448383" lon="9.669975"><ele>345.79999999999995</ele><time>2026-05-01T08:10:03.865Z</time></trkpt><trkpt lat="44.844815" lon="9.67011"><ele>344.4</ele><time>2026-05-01T08:10:04.864Z</time></trkpt><trkpt lat="44.844805" lon="9.6702467"><ele>343.0</ele><time>2026-05-01T08:10:05.864Z</time></trkpt><trkpt lat="44.84479" lon="9.6703717"><ele>341.59999999999997</ele><time>2026-05-01T08:10:06.864Z</time></trkpt><trkpt lat="44.8447767" lon="9.6704983"><ele>340.2</ele><time>2026-05-01T08:10:07.864Z</time></trkpt><trkpt lat="44.8447583" lon="9.6706217"><ele>338.8</ele><time>2026-05-01T08:10:08.864Z</time></trkpt><trkpt lat="44.8447417" lon="9.670755"><ele>337.4</ele><time>2026-05-01T08:10:09.864Z</time></trkpt><trkpt lat="44.8447267" lon="9.67091"><ele>336.0</ele><time>2026-05-01T08:10:10.864Z</time></trkpt><trkpt lat="44.844715" lon="9.671065"><ele>334.25</ele><time>2026-05-01T08:10:11.864Z</time></trkpt><trkpt lat="44.8447083" lon="9.6712183"><ele>332.5</ele><time>2026-05-01T08:10:12.864Z</time></trkpt><trkpt lat="44.8447" lon="9.671375"><ele>330.75</ele><time>2026-05-01T08:10:13.864Z</time></trkpt><trkpt lat="44.8446883" lon="9.6715533"><ele>329.0</ele><time>2026-05-01T08:10:14.864Z</time></trkpt><trkpt lat="44.84468" lon="9.6717317"><ele>329.0</ele><time>2026-05-01T08:10:15.864Z</time></trkpt><trkpt lat="44.8446733" lon="9.6719117"><ele>329.0</ele><time>2026-05-01T08:10:16.864Z</time></trkpt><trkpt lat="44.8446733" lon="9.6720617"><ele>329.0</ele><time>2026-05-01T08:10:17.864Z</time></trkpt><trkpt lat="44.844655" lon="9.6722083"><ele>329.0</ele><time>2026-05-01T08:10:18.864Z</time></trkpt><trkpt lat="44.8446367" lon="9.6723483"><ele>329.0</ele><time>2026-05-01T08:10:19.864Z</time></trkpt><trkpt lat="44.8446083" lon="9.67248"><ele>328.2</ele><time>2026-05-01T08:10:20.864Z</time></trkpt><trkpt lat="44.8445567" lon="9.6726133"><ele>327.4</ele><time>2026-05-01T08:10:21.864Z</time></trkpt><trkpt lat="44.8444883" lon="9.672725"><ele>326.6</ele><time>2026-05-01T08:10:22.864Z</time></trkpt><trkpt lat="44.844395" lon="9.6728133"><ele>325.8</ele><time>2026-05-01T08:10:23.864Z</time></trkpt><trkpt lat="44.8442933" lon="9.6728883"><ele>325.0</ele><time>2026-05-01T08:10:24.864Z</time></trkpt><trkpt lat="44.8441883" lon="9.67299"><ele>324.75</ele><time>2026-05-01T08:10:25.864Z</time></trkpt><trkpt lat="44.8441117" lon="9.67312"><ele>324.5</ele><time>2026-05-01T08:10:26.864Z</time></trkpt><trkpt lat="44.84403" lon="9.67325"><ele>324.25</ele><time>2026-05-01T08:10:27.864Z</time></trkpt><trkpt lat="44.84395" lon="9.6733617"><ele>324.0</ele><time>2026-05-01T08:10:28.864Z</time></trkpt><trkpt lat="44.843845" lon="9.6734633"><ele>324.0</ele><time>2026-05-01T08:10:29.864Z</time></trkpt><trkpt lat="44.8438" lon="9.6735267"><ele>324.0</ele><time>2026-05-01T08:10:30.864Z</time></trkpt><trkpt lat="44.84371" lon="9.6735983"><ele>324.0</ele><time>2026-05-01T08:10:31.865Z</time></trkpt><trkpt lat="44.843625" lon="9.6736733"><ele>324.0</ele><time>2026-05-01T08:10:32.864Z</time></trkpt><trkpt lat="44.8435283" lon="9.6737567"><ele>324.0</ele><time>2026-05-01T08:10:33.864Z</time></trkpt><trkpt lat="44.8434167" lon="9.67381"><ele>321.8</ele><time>2026-05-01T08:10:34.864Z</time></trkpt><trkpt lat="44.8433017" lon="9.6738583"><ele>319.59999999999997</ele><time>2026-05-01T08:10:35.864Z</time></trkpt><trkpt lat="44.843185" lon="9.6739183"><ele>317.4</ele><time>2026-05-01T08:10:36.864Z</time></trkpt><trkpt lat="44.843075" lon="9.6739833"><ele>315.2</ele><time>2026-05-01T08:10:37.864Z</time></trkpt><trkpt lat="44.8430367" lon="9.6740667"><ele>313.0</ele><time>2026-05-01T08:10:38.864Z</time></trkpt><trkpt lat="44.8430017" lon="9.674165"><ele>313.0</ele><time>2026-05-01T08:10:39.864Z</time></trkpt><trkpt lat="44.842955" lon="9.6742433"><ele>313.0</ele><time>2026-05-01T08:10:40.864Z</time></trkpt><trkpt lat="44.8428367" lon="9.674305"><ele>313.0</ele><time>2026-05-01T08:10:41.864Z</time></trkpt><trkpt lat="44.842705" lon="9.67435"><ele>313.0</ele><time>2026-05-01T08:10:42.864Z</time></trkpt><trkpt lat="44.8425783" lon="9.6743817"><ele>314.6</ele><time>2026-05-01T08:10:43.864Z</time></trkpt><trkpt lat="44.842485" lon="9.6744117"><ele>316.20000000000005</ele><time>2026-05-01T08:10:44.864Z</time></trkpt><trkpt lat="44.8423933" lon="9.6744367"><ele>317.8</ele><time>2026-05-01T08:10:45.864Z</time></trkpt><trkpt lat="44.8422917" lon="9.67446"><ele>319.40000000000003</ele><time>2026-05-01T08:10:46.864Z</time></trkpt><trkpt lat="44.8421567" lon="9.67449"><ele>321.0</ele><time>2026-05-01T08:10:47.864Z</time></trkpt><trkpt lat="44.8420217" lon="9.674525"><ele>321.0</ele><time>2026-05-01T08:10:48.864Z</time></trkpt><trkpt lat="44.8418867" lon="9.6745883"><ele>321.0</ele><time>2026-05-01T08:10:49.864Z</time></trkpt><trkpt lat="44.841755" lon="9.6746483"><ele>321.0</ele><time>2026-05-01T08:10:50.864Z</time></trkpt><trkpt lat="44.8416233" lon="9.67471"><ele>321.0</ele><time>2026-05-01T08:10:51.864Z</time></trkpt><trkpt lat="44.8414967" lon="9.674745"><ele>321.5</ele><time>2026-05-01T08:10:52.864Z</time></trkpt><trkpt lat="44.8413717" lon="9.6747467"><ele>322.0</ele><time>2026-05-01T08:10:53.864Z</time></trkpt><trkpt lat="44.84124" lon="9.6747233"><ele>322.5</ele><time>2026-05-01T08:10:54.864Z</time></trkpt><trkpt lat="44.8411033" lon="9.67469"><ele>323.0</ele><time>2026-05-01T08:10:55.864Z</time></trkpt><trkpt lat="44.84097" lon="9.6746533"><ele>324.0</ele><time>2026-05-01T08:10:56.864Z</time></trkpt><trkpt lat="44.840855" lon="9.6746083"><ele>325.0</ele><time>2026-05-01T08:10:57.864Z</time></trkpt><trkpt lat="44.8407483" lon="9.6745533"><ele>326.0</ele><time>2026-05-01T08:10:58.864Z</time></trkpt><trkpt lat="44.84066" lon="9.6745017"><ele>327.0</ele><time>2026-05-01T08:10:59.864Z</time></trkpt><trkpt lat="44.840575" lon="9.674475"><ele>328.0</ele><time>2026-05-01T08:11:00.865Z</time></trkpt><trkpt lat="44.84048" lon="9.674475"><ele>328.0</ele><time>2026-05-01T08:11:01.864Z</time></trkpt><trkpt lat="44.840375" lon="9.674485"><ele>328.0</ele><time>2026-05-01T08:11:02.864Z</time></trkpt><trkpt lat="44.8402733" lon="9.6744783"><ele>328.0</ele><time>2026-05-01T08:11:03.864Z</time></trkpt><trkpt lat="44.8401717" lon="9.674465"><ele>328.0</ele><time>2026-05-01T08:11:04.864Z</time></trkpt><trkpt lat="44.8400683" lon="9.6744517"><ele>328.0</ele><time>2026-05-01T08:11:05.864Z</time></trkpt><trkpt lat="44.8399483" lon="9.6744567"><ele>329.5</ele><time>2026-05-01T08:11:06.864Z</time></trkpt><trkpt lat="44.83985" lon="9.67449"><ele>331.0</ele><time>2026-05-01T08:11:07.864Z</time></trkpt><trkpt lat="44.8397517" lon="9.6745267"><ele>332.5</ele><time>2026-05-01T08:11:08.864Z</time></trkpt><trkpt lat="44.8396033" lon="9.6745483"><ele>334.0</ele><time>2026-05-01T08:11:09.864Z</time></trkpt><trkpt lat="44.8394667" lon="9.6745567"><ele>334.0</ele><time>2026-05-01T08:11:10.864Z</time></trkpt><trkpt lat="44.8393083" lon="9.674565"><ele>334.0</ele><time>2026-05-01T08:11:11.864Z</time></trkpt><trkpt lat="44.839175" lon="9.674555"><ele>334.0</ele><time>2026-05-01T08:11:12.864Z</time></trkpt><trkpt lat="44.8390633" lon="9.67452"><ele>334.0</ele><time>2026-05-01T08:11:13.864Z</time></trkpt><trkpt lat="44.838945" lon="9.6744833"><ele>333.8333333333333</ele><time>2026-05-01T08:11:14.864Z</time></trkpt><trkpt lat="44.838855" lon="9.6744567"><ele>333.66666666666663</ele><time>2026-05-01T08:11:15.864Z</time></trkpt><trkpt lat="44.838775" lon="9.6744367"><ele>333.5</ele><time>2026-05-01T08:11:16.864Z</time></trkpt><trkpt lat="44.8387033" lon="9.6744333"><ele>333.3333333333333</ele><time>2026-05-01T08:11:17.864Z</time></trkpt><trkpt lat="44.8385983" lon="9.6744367"><ele>333.1666666666667</ele><time>2026-05-01T08:11:19.864Z</time></trkpt><trkpt lat="44.8385083" lon="9.6744233"><ele>333.0</ele><time>2026-05-01T08:11:21.864Z</time></trkpt><trkpt lat="44.83844" lon="9.6744033"><ele>333.0</ele><time>2026-05-01T08:11:23.864Z</time></trkpt><trkpt lat="44.838355" lon="9.67432"><ele>333.0</ele><time>2026-05-01T08:11:25.864Z</time></trkpt><trkpt lat="44.8383067" lon="9.6742583"><ele>333.0</ele><time>2026-05-01T08:11:26.864Z</time></trkpt><trkpt lat="44.8382583" lon="9.6741867"><ele>333.0</ele><time>2026-05-01T08:11:27.864Z</time></trkpt><trkpt lat="44.83821" lon="9.67412"><ele>333.0</ele><time>2026-05-01T08:11:28.864Z</time></trkpt><trkpt lat="44.8381617" lon="9.6740433"><ele>333.0</ele><time>2026-05-01T08:11:29.864Z</time></trkpt><trkpt lat="44.8381167" lon="9.6739733"><ele>333.0</ele><time>2026-05-01T08:11:30.865Z</time></trkpt><trkpt lat="44.8380717" lon="9.6739033"><ele>333.0</ele><time>2026-05-01T08:11:31.865Z</time></trkpt><trkpt lat="44.8380267" lon="9.67383"><ele>333.0</ele><time>2026-05-01T08:11:32.864Z</time></trkpt><trkpt lat="44.83798" lon="9.6737567"><ele>333.0</ele><time>2026-05-01T08:11:33.864Z</time></trkpt><trkpt lat="44.83791" lon="9.67365"><ele>333.0</ele><time>2026-05-01T08:11:35.864Z</time></trkpt><trkpt lat="44.8378283" lon="9.6736217"><ele>333.0</ele><time>2026-05-01T08:11:41.864Z</time></trkpt><trkpt lat="44.8377733" lon="9.67369"><ele>333.0</ele><time>2026-05-01T08:11:45.864Z</time></trkpt><trkpt lat="44.8376883" lon="9.6737233"><ele>334.6666666666667</ele><time>2026-05-01T08:11:52.864Z</time></trkpt><trkpt lat="44.8376167" lon="9.6737633"><ele>336.3333333333333</ele><time>2026-05-01T08:11:55.864Z</time></trkpt><trkpt lat="44.83752" lon="9.6737917"><ele>338.0</ele><time>2026-05-01T08:11:58.864Z</time></trkpt><trkpt lat="44.837455" lon="9.673735"><ele>339.66666666666663</ele><time>2026-05-01T08:12:00.864Z</time></trkpt><trkpt lat="44.8373633" lon="9.673685"><ele>341.3333333333333</ele><time>2026-05-01T08:12:02.864Z</time></trkpt><trkpt lat="44.8372783" lon="9.67362"><ele>343.0</ele><time>2026-05-01T08:12:04.864Z</time></trkpt><trkpt lat="44.8372083" lon="9.6735183"><ele>343.0</ele><time>2026-05-01T08:12:06.864Z</time></trkpt><trkpt lat="44.837115" lon="9.6733967"><ele>343.0</ele><time>2026-05-01T08:12:15.864Z</time></trkpt><trkpt lat="44.83704" lon="9.67335"><ele>343.0</ele><time>2026-05-01T08:12:17.864Z</time></trkpt><trkpt lat="44.8369467" lon="9.6732883"><ele>343.0</ele><time>2026-05-01T08:12:19.864Z</time></trkpt><trkpt lat="44.836855" lon="9.6732417"><ele>343.0</ele><time>2026-05-01T08:12:21.864Z</time></trkpt><trkpt lat="44.8367633" lon="9.673195"><ele>344.3333333333333</ele><time>2026-05-01T08:12:23.864Z</time></trkpt><trkpt lat="44.8366933" lon="9.6731467"><ele>345.66666666666663</ele><time>2026-05-01T08:12:25.864Z</time></trkpt><trkpt lat="44.8366" lon="9.6731233"><ele>347.0</ele><time>2026-05-01T08:12:27.864Z</time></trkpt><trkpt lat="44.8365383" lon="9.6731033"><ele>348.3333333333333</ele><time>2026-05-01T08:12:29.864Z</time></trkpt><trkpt lat="44.8364683" lon="9.67306"><ele>349.6666666666667</ele><time>2026-05-01T08:12:32.864Z</time></trkpt><trkpt lat="44.8363733" lon="9.67307"><ele>351.0</ele><time>2026-05-01T08:12:35.864Z</time></trkpt><trkpt lat="44.8362967" lon="9.67306"><ele>351.0</ele><time>2026-05-01T08:12:37.864Z</time></trkpt><trkpt lat="44.8362183" lon="9.6730017"><ele>351.0</ele><time>2026-05-01T08:12:39.865Z</time></trkpt><trkpt lat="44.83611" lon="9.6729383"><ele>351.0</ele><time>2026-05-01T08:12:41.865Z</time></trkpt><trkpt lat="44.8360283" lon="9.6729067"><ele>351.0</ele><time>2026-05-01T08:12:43.864Z</time></trkpt><trkpt lat="44.8359633" lon="9.67292"><ele>351.0</ele><time>2026-05-01T08:12:45.864Z</time></trkpt><trkpt lat="44.8359183" lon="9.6730117"><ele>351.0</ele><time>2026-05-01T08:12:53.864Z</time></trkpt><trkpt lat="44.8359617" lon="9.6731083"><ele>351.0</ele><time>2026-05-01T08:12:55.865Z</time></trkpt><trkpt lat="44.8360317" lon="9.673225"><ele>351.0</ele><time>2026-05-01T08:12:57.864Z</time></trkpt><trkpt lat="44.8360917" lon="9.673295"><ele>351.0</ele><time>2026-05-01T08:12:58.864Z</time></trkpt><trkpt lat="44.8361583" lon="9.6733733"><ele>351.0</ele><time>2026-05-01T08:12:59.865Z</time></trkpt><trkpt lat="44.836225" lon="9.673485"><ele>351.0</ele><time>2026-05-01T08:13:00.864Z</time></trkpt><trkpt lat="44.8362767" lon="9.67371"><ele>354.8</ele><time>2026-05-01T08:13:01.865Z</time></trkpt><trkpt lat="44.8363417" lon="9.6738217"><ele>358.6</ele><time>2026-05-01T08:13:02.864Z</time></trkpt><trkpt lat="44.8363917" lon="9.6739717"><ele>362.4</ele><time>2026-05-01T08:13:03.864Z</time></trkpt><trkpt lat="44.8364567" lon="9.674115"><ele>366.2</ele><time>2026-05-01T08:13:04.864Z</time></trkpt><trkpt lat="44.8365017" lon="9.6742467"><ele>370.0</ele><time>2026-05-01T08:13:05.864Z</time></trkpt><trkpt lat="44.8365433" lon="9.6743633"><ele>368.99999999999994</ele><time>2026-05-01T08:13:06.864Z</time></trkpt><trkpt lat="44.83658" lon="9.674465"><ele>368.0</ele><time>2026-05-01T08:13:07.864Z</time></trkpt><trkpt lat="44.8366167" lon="9.6745533"><ele>367.0</ele><time>2026-05-01T08:13:08.864Z</time></trkpt><trkpt lat="44.83667" lon="9.6746383"><ele>366.0</ele><time>2026-05-01T08:13:09.864Z</time></trkpt><trkpt lat="44.836715" lon="9.67471"><ele>365.0</ele><time>2026-05-01T08:13:10.864Z</time></trkpt><trkpt lat="44.8367517" lon="9.6747867"><ele>363.99999999999994</ele><time>2026-05-01T08:13:11.864Z</time></trkpt><trkpt lat="44.8368" lon="9.67488"><ele>363.0</ele><time>2026-05-01T08:13:12.864Z</time></trkpt><trkpt lat="44.83685" lon="9.674995"><ele>363.0</ele><time>2026-05-01T08:13:13.864Z</time></trkpt><trkpt lat="44.8369" lon="9.675115"><ele>363.0</ele><time>2026-05-01T08:13:14.864Z</time></trkpt><trkpt lat="44.8369517" lon="9.6752133"><ele>363.0</ele><time>2026-05-01T08:13:15.864Z</time></trkpt><trkpt lat="44.836995" lon="9.6753083"><ele>363.0</ele><time>2026-05-01T08:13:16.864Z</time></trkpt><trkpt lat="44.837025" lon="9.6754083"><ele>363.0</ele><time>2026-05-01T08:13:17.864Z</time></trkpt><trkpt lat="44.8370433" lon="9.6755133"><ele>363.0</ele><time>2026-05-01T08:13:18.865Z</time></trkpt><trkpt lat="44.8370467" lon="9.675625"><ele>364.4</ele><time>2026-05-01T08:13:19.864Z</time></trkpt><trkpt lat="44.837055" lon="9.6757667"><ele>365.79999999999995</ele><time>2026-05-01T08:13:20.864Z</time></trkpt><trkpt lat="44.8370467" lon="9.6758767"><ele>367.2</ele><time>2026-05-01T08:13:21.864Z</time></trkpt><trkpt lat="44.83699" lon="9.676015"><ele>368.6</ele><time>2026-05-01T08:13:23.865Z</time></trkpt><trkpt lat="44.8368883" lon="9.6761267"><ele>370.0</ele><time>2026-05-01T08:13:25.864Z</time></trkpt><trkpt lat="44.8368417" lon="9.6762"><ele>370.99999999999994</ele><time>2026-05-01T08:13:26.864Z</time></trkpt><trkpt lat="44.836805" lon="9.67628"><ele>372.0</ele><time>2026-05-01T08:13:27.864Z</time></trkpt><trkpt lat="44.836775" lon="9.6763617"><ele>373.0</ele><time>2026-05-01T08:13:28.864Z</time></trkpt><trkpt lat="44.836755" lon="9.6764467"><ele>374.0</ele><time>2026-05-01T08:13:29.864Z</time></trkpt><trkpt lat="44.836755" lon="9.6765383"><ele>375.0</ele><time>2026-05-01T08:13:30.864Z</time></trkpt><trkpt lat="44.83677" lon="9.67663"><ele>375.99999999999994</ele><time>2026-05-01T08:13:31.864Z</time></trkpt><trkpt lat="44.83679" lon="9.6767183"><ele>377.0</ele><time>2026-05-01T08:13:32.864Z</time></trkpt><trkpt lat="44.8368083" lon="9.6768033"><ele>377.0</ele><time>2026-05-01T08:13:33.864Z</time></trkpt><trkpt lat="44.83682" lon="9.6769083"><ele>377.0</ele><time>2026-05-01T08:13:35.864Z</time></trkpt><trkpt lat="44.8367217" lon="9.6769283"><ele>377.0</ele><time>2026-05-01T08:13:40.864Z</time></trkpt><trkpt lat="44.8366417" lon="9.6768433"><ele>377.0</ele><time>2026-05-01T08:13:42.864Z</time></trkpt><trkpt lat="44.836565" lon="9.6767467"><ele>377.0</ele><time>2026-05-01T08:13:44.864Z</time></trkpt><trkpt lat="44.83645" lon="9.6766633"><ele>379.6666666666667</ele><time>2026-05-01T08:13:46.864Z</time></trkpt><trkpt lat="44.83639" lon="9.6766233"><ele>382.33333333333337</ele><time>2026-05-01T08:13:47.864Z</time></trkpt><trkpt lat="44.8363067" lon="9.6765433"><ele>385.0</ele><time>2026-05-01T08:13:49.864Z</time></trkpt><trkpt lat="44.8362517" lon="9.6764833"><ele>387.6666666666667</ele><time>2026-05-01T08:13:51.864Z</time></trkpt><trkpt lat="44.8362033" lon="9.676415"><ele>390.3333333333333</ele><time>2026-05-01T08:13:53.864Z</time></trkpt><trkpt lat="44.8361633" lon="9.6763367"><ele>393.0</ele><time>2026-05-01T08:13:55.864Z</time></trkpt><trkpt lat="44.8361117" lon="9.6762217"><ele>393.0</ele><time>2026-05-01T08:13:58.864Z</time></trkpt><trkpt lat="44.8360933" lon="9.6761217"><ele>393.0</ele><time>2026-05-01T08:14:00.864Z</time></trkpt><trkpt lat="44.83608" lon="9.6760233"><ele>393.0</ele><time>2026-05-01T08:14:02.864Z</time></trkpt><trkpt lat="44.8360667" lon="9.675915"><ele>393.0</ele><time>2026-05-01T08:14:04.864Z</time></trkpt><trkpt lat="44.8360017" lon="9.6757883"><ele>393.0</ele><time>2026-05-01T08:14:06.864Z</time></trkpt><trkpt lat="44.83591" lon="9.67567"><ele>395.0</ele><time>2026-05-01T08:14:08.864Z</time></trkpt><trkpt lat="44.83584" lon="9.6756217"><ele>397.0</ele><time>2026-05-01T08:14:09.864Z</time></trkpt><trkpt lat="44.83577" lon="9.6755833"><ele>399.0</ele><time>2026-05-01T08:14:10.864Z</time></trkpt><trkpt lat="44.8356883" lon="9.6755617"><ele>401.0</ele><time>2026-05-01T08:14:11.864Z</time></trkpt><trkpt lat="44.83561" lon="9.6755533"><ele>403.0</ele><time>2026-05-01T08:14:12.864Z</time></trkpt><trkpt lat="44.8355283" lon="9.6755567"><ele>405.0</ele><time>2026-05-01T08:14:13.864Z</time></trkpt><trkpt lat="44.83545" lon="9.6755633"><ele>405.0</ele><time>2026-05-01T08:14:14.864Z</time></trkpt><trkpt lat="44.8353733" lon="9.6755867"><ele>405.0</ele><time>2026-05-01T08:14:15.864Z</time></trkpt><trkpt lat="44.835275" lon="9.6756133"><ele>405.0</ele><time>2026-05-01T08:14:16.864Z</time></trkpt><trkpt lat="44.8351633" lon="9.6756383"><ele>405.0</ele><time>2026-05-01T08:14:17.865Z</time></trkpt><trkpt lat="44.8350133" lon="9.675655"><ele>405.0</ele><time>2026-05-01T08:14:18.864Z</time></trkpt><trkpt lat="44.83488" lon="9.67567"><ele>405.5</ele><time>2026-05-01T08:14:19.864Z</time></trkpt><trkpt lat="44.8347483" lon="9.67569"><ele>406.0</ele><time>2026-05-01T08:14:20.864Z</time></trkpt><trkpt lat="44.8346267" lon="9.6757083"><ele>406.5</ele><time>2026-05-01T08:14:21.864Z</time></trkpt><trkpt lat="44.8345033" lon="9.6757233"><ele>407.0</ele><time>2026-05-01T08:14:22.864Z</time></trkpt><trkpt lat="44.834375" lon="9.6757217"><ele>406.40000000000003</ele><time>2026-05-01T08:14:23.864Z</time></trkpt><trkpt lat="44.83426" lon="9.67572"><ele>405.8</ele><time>2026-05-01T08:14:24.864Z</time></trkpt><trkpt lat="44.83415" lon="9.67571"><ele>405.2</ele><time>2026-05-01T08:14:25.865Z</time></trkpt><trkpt lat="44.8340383" lon="9.6756883"><ele>404.6</ele><time>2026-05-01T08:14:26.864Z</time></trkpt><trkpt lat="44.83393" lon="9.675655"><ele>404.0</ele><time>2026-05-01T08:14:27.864Z</time></trkpt><trkpt lat="44.8338283" lon="9.67562"><ele>404.0</ele><time>2026-05-01T08:14:28.864Z</time></trkpt><trkpt lat="44.833735" lon="9.6755967"><ele>404.0</ele><time>2026-05-01T08:14:29.864Z</time></trkpt><trkpt lat="44.8336467" lon="9.6755717"><ele>404.0</ele><time>2026-05-01T08:14:30.864Z</time></trkpt><trkpt lat="44.8335583" lon="9.6755417"><ele>404.0</ele><time>2026-05-01T08:14:31.864Z</time></trkpt><trkpt lat="44.8334667" lon="9.67549"><ele>404.0</ele><time>2026-05-01T08:14:32.864Z</time></trkpt><trkpt lat="44.8333817" lon="9.6754133"><ele>403.79999999999995</ele><time>2026-05-01T08:14:33.864Z</time></trkpt><trkpt lat="44.8333" lon="9.6753333"><ele>403.59999999999997</ele><time>2026-05-01T08:14:34.864Z</time></trkpt><trkpt lat="44.8332133" lon="9.6752683"><ele>403.4</ele><time>2026-05-01T08:14:35.864Z</time></trkpt><trkpt lat="44.833125" lon="9.6752133"><ele>403.2</ele><time>2026-05-01T08:14:36.864Z</time></trkpt><trkpt lat="44.8330383" lon="9.6751667"><ele>403.0</ele><time>2026-05-01T08:14:37.864Z</time></trkpt><trkpt lat="44.8329483" lon="9.6751183"><ele>401.79999999999995</ele><time>2026-05-01T08:14:38.864Z</time></trkpt><trkpt lat="44.8328683" lon="9.6750583"><ele>400.6</ele><time>2026-05-01T08:14:39.864Z</time></trkpt><trkpt lat="44.8327833" lon="9.67499"><ele>399.4</ele><time>2026-05-01T08:14:40.864Z</time></trkpt><trkpt lat="44.8327033" lon="9.674895"><ele>398.20000000000005</ele><time>2026-05-01T08:14:41.864Z</time></trkpt><trkpt lat="44.8326233" lon="9.6747867"><ele>397.0</ele><time>2026-05-01T08:14:42.864Z</time></trkpt><trkpt lat="44.832545" lon="9.674675"><ele>397.20000000000005</ele><time>2026-05-01T08:14:43.864Z</time></trkpt><trkpt lat="44.8324683" lon="9.67456"><ele>397.4</ele><time>2026-05-01T08:14:44.864Z</time></trkpt><trkpt lat="44.8324017" lon="9.67445"><ele>397.6</ele><time>2026-05-01T08:14:45.864Z</time></trkpt><trkpt lat="44.8323433" lon="9.6743417"><ele>397.79999999999995</ele><time>2026-05-01T08:14:46.864Z</time></trkpt><trkpt lat="44.8322967" lon="9.67422"><ele>398.0</ele><time>2026-05-01T08:14:47.865Z</time></trkpt><trkpt lat="44.832245" lon="9.6741067"><ele>398.0</ele><time>2026-05-01T08:14:48.864Z</time></trkpt><trkpt lat="44.8321883" lon="9.6739917"><ele>398.0</ele><time>2026-05-01T08:14:49.864Z</time></trkpt><trkpt lat="44.8321333" lon="9.673865"><ele>398.0</ele><time>2026-05-01T08:14:50.864Z</time></trkpt><trkpt lat="44.832075" lon="9.6737467"><ele>398.0</ele><time>2026-05-01T08:14:51.864Z</time></trkpt><trkpt lat="44.8320233" lon="9.6736317"><ele>398.0</ele><time>2026-05-01T08:14:52.864Z</time></trkpt><trkpt lat="44.8319717" lon="9.6735317"><ele>398.59999999999997</ele><time>2026-05-01T08:14:53.864Z</time></trkpt><trkpt lat="44.8319267" lon="9.6734467"><ele>399.2</ele><time>2026-05-01T08:14:54.864Z</time></trkpt><trkpt lat="44.8318383" lon="9.6733533"><ele>399.8</ele><time>2026-05-01T08:14:56.864Z</time></trkpt><trkpt lat="44.8317683" lon="9.673355"><ele>400.4</ele><time>2026-05-01T08:14:57.864Z</time></trkpt><trkpt lat="44.8316767" lon="9.6733783"><ele>401.0</ele><time>2026-05-01T08:14:58.864Z</time></trkpt><trkpt lat="44.8315667" lon="9.67341"><ele>406.66666666666663</ele><time>2026-05-01T08:14:59.864Z</time></trkpt><trkpt lat="44.8314317" lon="9.673445"><ele>412.33333333333337</ele><time>2026-05-01T08:15:00.864Z</time></trkpt><trkpt lat="44.8313" lon="9.6734767"><ele>418.0</ele><time>2026-05-01T08:15:01.864Z</time></trkpt><trkpt lat="44.830715" lon="9.6738267"><ele>420.79999999999995</ele><time>2026-05-01T08:15:04.474Z</time></trkpt><trkpt lat="44.8308533" lon="9.6738"><ele>423.6</ele><time>2026-05-01T08:15:05.862Z</time></trkpt><trkpt lat="44.8308467" lon="9.673925"><ele>426.40000000000003</ele><time>2026-05-01T08:15:06.862Z</time></trkpt><trkpt lat="44.8307817" lon="9.674045"><ele>429.20000000000005</ele><time>2026-05-01T08:15:08.362Z</time></trkpt><trkpt lat="44.8307117" lon="9.6741217"><ele>432.0</ele><time>2026-05-01T08:15:09.862Z</time></trkpt><trkpt lat="44.8305967" lon="9.6741183"><ele>432.0</ele><time>2026-05-01T08:15:11.862Z</time></trkpt><trkpt lat="44.8305367" lon="9.6740883"><ele>432.0</ele><time>2026-05-01T08:15:12.862Z</time></trkpt><trkpt lat="44.8304683" lon="9.6740417"><ele>432.0</ele><time>2026-05-01T08:15:13.862Z</time></trkpt><trkpt lat="44.8303783" lon="9.6740117"><ele>432.0</ele><time>2026-05-01T08:15:14.862Z</time></trkpt><trkpt lat="44.8303017" lon="9.67398"><ele>432.0</ele><time>2026-05-01T08:15:15.862Z</time></trkpt><trkpt lat="44.830225" lon="9.6739483"><ele>432.0</ele><time>2026-05-01T08:15:16.862Z</time></trkpt><trkpt lat="44.8301467" lon="9.673915"><ele>432.8</ele><time>2026-05-01T08:15:17.862Z</time></trkpt><trkpt lat="44.83006" lon="9.6738717"><ele>433.6</ele><time>2026-05-01T08:15:18.862Z</time></trkpt><trkpt lat="44.82996" lon="9.6738133"><ele>434.40000000000003</ele><time>2026-05-01T08:15:19.862Z</time></trkpt><trkpt lat="44.8298783" lon="9.673745"><ele>435.20000000000005</ele><time>2026-05-01T08:15:20.862Z</time></trkpt><trkpt lat="44.8297983" lon="9.6736667"><ele>436.0</ele><time>2026-05-01T08:15:21.862Z</time></trkpt><trkpt lat="44.8297167" lon="9.6735817"><ele>436.50000000000006</ele><time>2026-05-01T08:15:22.862Z</time></trkpt><trkpt lat="44.8296433" lon="9.673485"><ele>437.0</ele><time>2026-05-01T08:15:23.862Z</time></trkpt><trkpt lat="44.829575" lon="9.6733883"><ele>437.5</ele><time>2026-05-01T08:15:24.862Z</time></trkpt><trkpt lat="44.82951" lon="9.6733067"><ele>438.0</ele><time>2026-05-01T08:15:25.862Z</time></trkpt><trkpt lat="44.8294433" lon="9.6732417"><ele>438.50000000000006</ele><time>2026-05-01T08:15:26.862Z</time></trkpt><trkpt lat="44.8293833" lon="9.6731967"><ele>439.0</ele><time>2026-05-01T08:15:27.862Z</time></trkpt><trkpt lat="44.8292517" lon="9.673215"><ele>442.6</ele><time>2026-05-01T08:15:29.862Z</time></trkpt><trkpt lat="44.8291667" lon="9.6732833"><ele>446.2</ele><time>2026-05-01T08:15:30.862Z</time></trkpt><trkpt lat="44.8290817" lon="9.6733417"><ele>449.80000000000007</ele><time>2026-05-01T08:15:31.862Z</time></trkpt><trkpt lat="44.828975" lon="9.6733583"><ele>453.40000000000003</ele><time>2026-05-01T08:15:32.862Z</time></trkpt><trkpt lat="44.8288383" lon="9.6733467"><ele>457.0</ele><time>2026-05-01T08:15:33.862Z</time></trkpt><trkpt lat="44.828695" lon="9.6733367"><ele>457.0</ele><time>2026-05-01T08:15:34.862Z</time></trkpt><trkpt lat="44.8285733" lon="9.67333"><ele>457.00000000000006</ele><time>2026-05-01T08:15:35.862Z</time></trkpt><trkpt lat="44.8284667" lon="9.6733133"><ele>457.00000000000006</ele><time>2026-05-01T08:15:36.862Z</time></trkpt><trkpt lat="44.828375" lon="9.6732933"><ele>457.0</ele><time>2026-05-01T08:15:37.862Z</time></trkpt><trkpt lat="44.8282867" lon="9.6732667"><ele>457.0</ele><time>2026-05-01T08:15:38.862Z</time></trkpt><trkpt lat="44.8282017" lon="9.6732333"><ele>458.00000000000006</ele><time>2026-05-01T08:15:39.862Z</time></trkpt><trkpt lat="44.828115" lon="9.673185"><ele>459.0</ele><time>2026-05-01T08:15:40.862Z</time></trkpt><trkpt lat="44.8280367" lon="9.6731383"><ele>460.0</ele><time>2026-05-01T08:15:41.862Z</time></trkpt><trkpt lat="44.82797" lon="9.6731033"><ele>461.0</ele><time>2026-05-01T08:15:42.862Z</time></trkpt><trkpt lat="44.8279033" lon="9.673095"><ele>462.00000000000006</ele><time>2026-05-01T08:15:43.862Z</time></trkpt><trkpt lat="44.8278167" lon="9.673115"><ele>463.0</ele><time>2026-05-01T08:15:44.862Z</time></trkpt><trkpt lat="44.8276983" lon="9.6731517"><ele>465.6666666666667</ele><time>2026-05-01T08:15:45.863Z</time></trkpt><trkpt lat="44.82756" lon="9.6732033"><ele>468.33333333333337</ele><time>2026-05-01T08:15:46.862Z</time></trkpt><trkpt lat="44.8274083" lon="9.6732817"><ele>471.0</ele><time>2026-05-01T08:15:47.862Z</time></trkpt><trkpt lat="44.8272733" lon="9.673375"><ele>471.0</ele><time>2026-05-01T08:15:48.862Z</time></trkpt><trkpt lat="44.82714" lon="9.67346"><ele>471.0</ele><time>2026-05-01T08:15:49.862Z</time></trkpt><trkpt lat="44.8270283" lon="9.6735433"><ele>471.0</ele><time>2026-05-01T08:15:50.862Z</time></trkpt><trkpt lat="44.8269283" lon="9.6736233"><ele>471.0</ele><time>2026-05-01T08:15:51.862Z</time></trkpt><trkpt lat="44.82684" lon="9.6736883"><ele>472.8</ele><time>2026-05-01T08:15:52.862Z</time></trkpt><trkpt lat="44.82675" lon="9.673705"><ele>474.6</ele><time>2026-05-01T08:15:53.862Z</time></trkpt><trkpt lat="44.8266517" lon="9.6736767"><ele>476.4</ele><time>2026-05-01T08:15:54.862Z</time></trkpt><trkpt lat="44.82654" lon="9.6736167"><ele>478.2</ele><time>2026-05-01T08:15:55.862Z</time></trkpt><trkpt lat="44.8264283" lon="9.673545"><ele>480.0</ele><time>2026-05-01T08:15:56.862Z</time></trkpt><trkpt lat="44.826325" lon="9.6734683"><ele>480.0</ele><time>2026-05-01T08:15:57.862Z</time></trkpt><trkpt lat="44.8262133" lon="9.6733917"><ele>480.0</ele><time>2026-05-01T08:15:58.862Z</time></trkpt><trkpt lat="44.8261083" lon="9.6732917"><ele>480.0</ele><time>2026-05-01T08:15:59.862Z</time></trkpt><trkpt lat="44.8260283" lon="9.6731683"><ele>480.0</ele><time>2026-05-01T08:16:00.862Z</time></trkpt><trkpt lat="44.8259483" lon="9.6730383"><ele>482.5</ele><time>2026-05-01T08:16:01.862Z</time></trkpt><trkpt lat="44.8258683" lon="9.6729167"><ele>485.0</ele><time>2026-05-01T08:16:02.862Z</time></trkpt><trkpt lat="44.8257767" lon="9.6728217"><ele>487.5</ele><time>2026-05-01T08:16:03.862Z</time></trkpt><trkpt lat="44.825675" lon="9.6727433"><ele>490.0</ele><time>2026-05-01T08:16:04.862Z</time></trkpt><trkpt lat="44.82557" lon="9.6726567"><ele>490.0</ele><time>2026-05-01T08:16:05.862Z</time></trkpt><trkpt lat="44.825465" lon="9.672555"><ele>490.0</ele><time>2026-05-01T08:16:06.862Z</time></trkpt><trkpt lat="44.82537" lon="9.6724317"><ele>490.0</ele><time>2026-05-01T08:16:07.862Z</time></trkpt><trkpt lat="44.8252817" lon="9.6722933"><ele>490.0</ele><time>2026-05-01T08:16:08.862Z</time></trkpt><trkpt lat="44.8251833" lon="9.67217"><ele>490.75</ele><time>2026-05-01T08:16:09.862Z</time></trkpt><trkpt lat="44.825085" lon="9.6720683"><ele>491.5</ele><time>2026-05-01T08:16:10.862Z</time></trkpt><trkpt lat="44.8249883" lon="9.6719683"><ele>492.25</ele><time>2026-05-01T08:16:11.862Z</time></trkpt><trkpt lat="44.8248983" lon="9.6718617"><ele>493.0</ele><time>2026-05-01T08:16:12.862Z</time></trkpt><trkpt lat="44.8248033" lon="9.6717517"><ele>495.5</ele><time>2026-05-01T08:16:13.862Z</time></trkpt><trkpt lat="44.82472" lon="9.6716217"><ele>498.0</ele><time>2026-05-01T08:16:14.862Z</time></trkpt><trkpt lat="44.8246417" lon="9.6714833"><ele>500.5</ele><time>2026-05-01T08:16:15.862Z</time></trkpt><trkpt lat="44.8245667" lon="9.67134"><ele>503.0</ele><time>2026-05-01T08:16:16.862Z</time></trkpt><trkpt lat="44.824475" lon="9.67121"><ele>501.75</ele><time>2026-05-01T08:16:17.862Z</time></trkpt><trkpt lat="44.8243667" lon="9.6710833"><ele>500.5</ele><time>2026-05-01T08:16:18.862Z</time></trkpt><trkpt lat="44.824255" lon="9.6709817"><ele>499.25</ele><time>2026-05-01T08:16:19.862Z</time></trkpt><trkpt lat="44.824145" lon="9.6708933"><ele>498.0</ele><time>2026-05-01T08:16:20.862Z</time></trkpt><trkpt lat="44.82404" lon="9.67079"><ele>502.0</ele><time>2026-05-01T08:16:21.862Z</time></trkpt><trkpt lat="44.8239233" lon="9.6706867"><ele>506.0</ele><time>2026-05-01T08:16:22.862Z</time></trkpt><trkpt lat="44.823785" lon="9.6706133"><ele>510.0</ele><time>2026-05-01T08:16:23.862Z</time></trkpt><trkpt lat="44.8236483" lon="9.670545"><ele>514.0</ele><time>2026-05-01T08:16:24.862Z</time></trkpt><trkpt lat="44.82351" lon="9.6704983"><ele>516.0</ele><time>2026-05-01T08:16:25.862Z</time></trkpt><trkpt lat="44.8233583" lon="9.6704467"><ele>518.0</ele><time>2026-05-01T08:16:26.862Z</time></trkpt><trkpt lat="44.823195" lon="9.6703967"><ele>520.0</ele><time>2026-05-01T08:16:27.862Z</time></trkpt><trkpt lat="44.8230433" lon="9.6703483"><ele>520.0</ele><time>2026-05-01T08:16:28.862Z</time></trkpt><trkpt lat="44.8228933" lon="9.6702917"><ele>520.0</ele><time>2026-05-01T08:16:29.862Z</time></trkpt><trkpt lat="44.8227417" lon="9.6702317"><ele>520.0</ele><time>2026-05-01T08:16:30.863Z</time></trkpt><trkpt lat="44.8225933" lon="9.6701633"><ele>521.3333333333334</ele><time>2026-05-01T08:16:31.862Z</time></trkpt><trkpt lat="44.82244" lon="9.670085"><ele>522.6666666666666</ele><time>2026-05-01T08:16:32.862Z</time></trkpt><trkpt lat="44.8223033" lon="9.6700017"><ele>524.0</ele><time>2026-05-01T08:16:33.862Z</time></trkpt><trkpt lat="44.8221717" lon="9.6699033"><ele>524.0</ele><time>2026-05-01T08:16:34.862Z</time></trkpt><trkpt lat="44.8220633" lon="9.6697717"><ele>524.0</ele><time>2026-05-01T08:16:35.862Z</time></trkpt><trkpt lat="44.8219683" lon="9.6696167"><ele>524.0</ele><time>2026-05-01T08:16:36.862Z</time></trkpt><trkpt lat="44.8219" lon="9.66943"><ele>524.0</ele><time>2026-05-01T08:16:37.862Z</time></trkpt><trkpt lat="44.8218467" lon="9.669235"><ele>524.75</ele><time>2026-05-01T08:16:38.862Z</time></trkpt><trkpt lat="44.8217883" lon="9.6690583"><ele>525.5</ele><time>2026-05-01T08:16:39.862Z</time></trkpt><trkpt lat="44.82172" lon="9.6688917"><ele>526.25</ele><time>2026-05-01T08:16:40.862Z</time></trkpt><trkpt lat="44.8216417" lon="9.66874"><ele>527.0</ele><time>2026-05-01T08:16:41.862Z</time></trkpt><trkpt lat="44.8215667" lon="9.6685933"><ele>527.0</ele><time>2026-05-01T08:16:42.863Z</time></trkpt><trkpt lat="44.821475" lon="9.668445"><ele>527.0</ele><time>2026-05-01T08:16:43.862Z</time></trkpt><trkpt lat="44.82139" lon="9.6682933"><ele>527.0</ele><time>2026-05-01T08:16:44.862Z</time></trkpt><trkpt lat="44.8213067" lon="9.6681433"><ele>527.0</ele><time>2026-05-01T08:16:45.862Z</time></trkpt><trkpt lat="44.8212183" lon="9.6679983"><ele>527.0</ele><time>2026-05-01T08:16:46.862Z</time></trkpt><trkpt lat="44.82115" lon="9.6678483"><ele>527.0</ele><time>2026-05-01T08:16:47.862Z</time></trkpt><trkpt lat="44.8210867" lon="9.6676867"><ele>527.0</ele><time>2026-05-01T08:16:48.863Z</time></trkpt><trkpt lat="44.8210367" lon="9.66752"><ele>527.0</ele><time>2026-05-01T08:16:49.862Z</time></trkpt><trkpt lat="44.8209867" lon="9.6673633"><ele>527.8000000000001</ele><time>2026-05-01T08:16:50.862Z</time></trkpt><trkpt lat="44.8209367" lon="9.6672233"><ele>528.6</ele><time>2026-05-01T08:16:51.863Z</time></trkpt><trkpt lat="44.820885" lon="9.66708"><ele>529.4000000000001</ele><time>2026-05-01T08:16:52.862Z</time></trkpt><trkpt lat="44.8208317" lon="9.6669433"><ele>530.2</ele><time>2026-05-01T08:16:53.862Z</time></trkpt><trkpt lat="44.8207833" lon="9.66681"><ele>531.0</ele><time>2026-05-01T08:16:54.862Z</time></trkpt><trkpt lat="44.820745" lon="9.6666733"><ele>531.0</ele><time>2026-05-01T08:16:55.862Z</time></trkpt><trkpt lat="44.820725" lon="9.66654"><ele>531.0</ele><time>2026-05-01T08:16:56.862Z</time></trkpt><trkpt lat="44.8207317" lon="9.6664067"><ele>531.0</ele><time>2026-05-01T08:16:57.862Z</time></trkpt><trkpt lat="44.8207717" lon="9.6663"><ele>531.0</ele><time>2026-05-01T08:16:58.862Z</time></trkpt><trkpt lat="44.8208167" lon="9.6661933"><ele>531.0</ele><time>2026-05-01T08:16:59.862Z</time></trkpt><trkpt lat="44.8208417" lon="9.666075"><ele>529.4</ele><time>2026-05-01T08:17:00.862Z</time></trkpt><trkpt lat="44.8208417" lon="9.6659433"><ele>527.8</ele><time>2026-05-01T08:17:01.862Z</time></trkpt><trkpt lat="44.8208033" lon="9.665805"><ele>526.1999999999999</ele><time>2026-05-01T08:17:02.862Z</time></trkpt><trkpt lat="44.8207233" lon="9.665685"><ele>524.6</ele><time>2026-05-01T08:17:03.862Z</time></trkpt><trkpt lat="44.8206433" lon="9.6655817"><ele>523.0</ele><time>2026-05-01T08:17:04.862Z</time></trkpt><trkpt lat="44.82056" lon="9.665515"><ele>523.0</ele><time>2026-05-01T08:17:05.862Z</time></trkpt><trkpt lat="44.8204733" lon="9.6654767"><ele>523.0</ele><time>2026-05-01T08:17:06.862Z</time></trkpt><trkpt lat="44.8203783" lon="9.6654517"><ele>523.0</ele><time>2026-05-01T08:17:07.862Z</time></trkpt><trkpt lat="44.8202883" lon="9.665435"><ele>523.0</ele><time>2026-05-01T08:17:08.862Z</time></trkpt><trkpt lat="44.8201917" lon="9.6654317"><ele>523.0</ele><time>2026-05-01T08:17:09.862Z</time></trkpt><trkpt lat="44.8201067" lon="9.6654283"><ele>522.0</ele><time>2026-05-01T08:17:10.862Z</time></trkpt><trkpt lat="44.8200067" lon="9.6654433"><ele>521.0</ele><time>2026-05-01T08:17:11.862Z</time></trkpt><trkpt lat="44.819915" lon="9.66545"><ele>520.0</ele><time>2026-05-01T08:17:12.862Z</time></trkpt><trkpt lat="44.8198233" lon="9.6654717"><ele>519.0</ele><time>2026-05-01T08:17:13.862Z</time></trkpt><trkpt lat="44.819735" lon="9.6655233"><ele>518.0</ele><time>2026-05-01T08:17:14.862Z</time></trkpt><trkpt lat="44.8196483" lon="9.6655933"><ele>518.0</ele><time>2026-05-01T08:17:15.862Z</time></trkpt><trkpt lat="44.8195617" lon="9.665665"><ele>518.0</ele><time>2026-05-01T08:17:16.863Z</time></trkpt><trkpt lat="44.8194767" lon="9.66573"><ele>518.0</ele><time>2026-05-01T08:17:17.862Z</time></trkpt><trkpt lat="44.819375" lon="9.6657733"><ele>518.0</ele><time>2026-05-01T08:17:18.862Z</time></trkpt><trkpt lat="44.8192683" lon="9.6658067"><ele>518.0</ele><time>2026-05-01T08:17:19.862Z</time></trkpt><trkpt lat="44.8191733" lon="9.66582"><ele>516.1999999999999</ele><time>2026-05-01T08:17:20.862Z</time></trkpt><trkpt lat="44.8190833" lon="9.665815"><ele>514.4</ele><time>2026-05-01T08:17:21.862Z</time></trkpt><trkpt lat="44.8189967" lon="9.6657883"><ele>512.5999999999999</ele><time>2026-05-01T08:17:22.862Z</time></trkpt><trkpt lat="44.818925" lon="9.66575"><ele>510.79999999999995</ele><time>2026-05-01T08:17:23.862Z</time></trkpt><trkpt lat="44.8188183" lon="9.6656583"><ele>509.0</ele><time>2026-05-01T08:17:25.862Z</time></trkpt><trkpt lat="44.8187233" lon="9.6655733"><ele>508.99999999999994</ele><time>2026-05-01T08:17:27.862Z</time></trkpt><trkpt lat="44.8186617" lon="9.6655083"><ele>509.0</ele><time>2026-05-01T08:17:28.862Z</time></trkpt><trkpt lat="44.8185983" lon="9.6654417"><ele>508.99999999999994</ele><time>2026-05-01T08:17:29.862Z</time></trkpt><trkpt lat="44.8185517" lon="9.66536"><ele>508.99999999999994</ele><time>2026-05-01T08:17:30.862Z</time></trkpt><trkpt lat="44.8185367" lon="9.6652683"><ele>509.0</ele><time>2026-05-01T08:17:31.862Z</time></trkpt><trkpt lat="44.8185517" lon="9.6651667"><ele>508.99999999999994</ele><time>2026-05-01T08:17:32.862Z</time></trkpt><trkpt lat="44.8185717" lon="9.6650683"><ele>508.99999999999994</ele><time>2026-05-01T08:17:33.862Z</time></trkpt><trkpt lat="44.8185967" lon="9.66497"><ele>508.8333333333333</ele><time>2026-05-01T08:17:34.862Z</time></trkpt><trkpt lat="44.81862" lon="9.6648717"><ele>508.66666666666663</ele><time>2026-05-01T08:17:35.862Z</time></trkpt><trkpt lat="44.8186417" lon="9.6647767"><ele>508.5</ele><time>2026-05-01T08:17:36.862Z</time></trkpt><trkpt lat="44.8186667" lon="9.6646633"><ele>508.33333333333337</ele><time>2026-05-01T08:17:37.862Z</time></trkpt><trkpt lat="44.81869" lon="9.66455"><ele>508.1666666666667</ele><time>2026-05-01T08:17:38.862Z</time></trkpt><trkpt lat="44.8187183" lon="9.6644517"><ele>508.0</ele><time>2026-05-01T08:17:39.862Z</time></trkpt><trkpt lat="44.8187517" lon="9.664365"><ele>509.33333333333337</ele><time>2026-05-01T08:17:40.862Z</time></trkpt><trkpt lat="44.8187817" lon="9.6642867"><ele>510.6666666666667</ele><time>2026-05-01T08:17:41.862Z</time></trkpt><trkpt lat="44.8188183" lon="9.6641917"><ele>512.0</ele><time>2026-05-01T08:17:42.862Z</time></trkpt><trkpt lat="44.8188467" lon="9.6640967"><ele>513.3333333333334</ele><time>2026-05-01T08:17:43.862Z</time></trkpt><trkpt lat="44.818865" lon="9.66398"><ele>514.6666666666666</ele><time>2026-05-01T08:17:44.862Z</time></trkpt><trkpt lat="44.818875" lon="9.663855"><ele>516.0</ele><time>2026-05-01T08:17:45.862Z</time></trkpt><trkpt lat="44.818865" lon="9.6637433"><ele>516.0</ele><time>2026-05-01T08:17:46.862Z</time></trkpt><trkpt lat="44.818855" lon="9.6636417"><ele>516.0</ele><time>2026-05-01T08:17:47.862Z</time></trkpt><trkpt lat="44.8188333" lon="9.66353"><ele>516.0</ele><time>2026-05-01T08:17:49.862Z</time></trkpt><trkpt lat="44.8187817" lon="9.6634533"><ele>516.0</ele><time>2026-05-01T08:17:51.862Z</time></trkpt><trkpt lat="44.8187" lon="9.663305"><ele>516.0</ele><time>2026-05-01T08:17:53.862Z</time></trkpt><trkpt lat="44.81867" lon="9.6631883"><ele>517.2857142857142</ele><time>2026-05-01T08:17:54.862Z</time></trkpt><trkpt lat="44.818635" lon="9.6630817"><ele>518.5714285714286</ele><time>2026-05-01T08:17:55.862Z</time></trkpt><trkpt lat="44.818595" lon="9.6629817"><ele>519.8571428571429</ele><time>2026-05-01T08:17:56.862Z</time></trkpt><trkpt lat="44.8185633" lon="9.6628883"><ele>521.1428571428571</ele><time>2026-05-01T08:17:57.862Z</time></trkpt><trkpt lat="44.81852" lon="9.6628083"><ele>522.4285714285714</ele><time>2026-05-01T08:17:58.862Z</time></trkpt><trkpt lat="44.81848" lon="9.6627333"><ele>523.7142857142857</ele><time>2026-05-01T08:17:59.862Z</time></trkpt><trkpt lat="44.8184333" lon="9.662665"><ele>525.0</ele><time>2026-05-01T08:18:00.862Z</time></trkpt><trkpt lat="44.818355" lon="9.6625783"><ele>530.0</ele><time>2026-05-01T08:18:02.862Z</time></trkpt><trkpt lat="44.818265" lon="9.6625317"><ele>535.0</ele><time>2026-05-01T08:18:04.862Z</time></trkpt><trkpt lat="44.8181567" lon="9.6625217"><ele>540.0</ele><time>2026-05-01T08:18:06.862Z</time></trkpt><trkpt lat="44.81805" lon="9.6624833"><ele>545.0</ele><time>2026-05-01T08:18:08.862Z</time></trkpt><trkpt lat="44.817995" lon="9.6624233"><ele>550.0</ele><time>2026-05-01T08:18:09.862Z</time></trkpt><trkpt lat="44.8179517" lon="9.66232"><ele>550.0</ele><time>2026-05-01T08:18:10.862Z</time></trkpt><trkpt lat="44.8179033" lon="9.6621983"><ele>550.0</ele><time>2026-05-01T08:18:11.862Z</time></trkpt><trkpt lat="44.8178483" lon="9.662075"><ele>550.0</ele><time>2026-05-01T08:18:12.862Z</time></trkpt><trkpt lat="44.8177967" lon="9.6619533"><ele>550.0</ele><time>2026-05-01T08:18:13.862Z</time></trkpt><trkpt lat="44.8177433" lon="9.6618433"><ele>550.0</ele><time>2026-05-01T08:18:14.863Z</time></trkpt><trkpt lat="44.8176833" lon="9.661735"><ele>551.0</ele><time>2026-05-01T08:18:15.862Z</time></trkpt><trkpt lat="44.8176383" lon="9.661615"><ele>552.0</ele><time>2026-05-01T08:18:16.862Z</time></trkpt><trkpt lat="44.8175867" lon="9.6615133"><ele>553.0</ele><time>2026-05-01T08:18:17.863Z</time></trkpt><trkpt lat="44.8175267" lon="9.6614183"><ele>554.0</ele><time>2026-05-01T08:18:18.862Z</time></trkpt><trkpt lat="44.81746" lon="9.6613383"><ele>555.0</ele><time>2026-05-01T08:18:19.862Z</time></trkpt><trkpt lat="44.817395" lon="9.6612667"><ele>556.0</ele><time>2026-05-01T08:18:20.862Z</time></trkpt><trkpt lat="44.81732" lon="9.6611933"><ele>557.0</ele><time>2026-05-01T08:18:21.862Z</time></trkpt><trkpt lat="44.8172417" lon="9.661115"><ele>558.0</ele><time>2026-05-01T08:18:22.863Z</time></trkpt><trkpt lat="44.8171633" lon="9.661035"><ele>559.0</ele><time>2026-05-01T08:18:23.863Z</time></trkpt><trkpt lat="44.8170883" lon="9.6609483"><ele>560.0</ele><time>2026-05-01T08:18:24.863Z</time></trkpt><trkpt lat="44.817" lon="9.66086"><ele>561.0</ele><time>2026-05-01T08:18:25.863Z</time></trkpt><trkpt lat="44.8169133" lon="9.6607633"><ele>561.0</ele><time>2026-05-01T08:18:26.863Z</time></trkpt><trkpt lat="44.8168383" lon="9.66067"><ele>561.0</ele><time>2026-05-01T08:18:27.864Z</time></trkpt><trkpt lat="44.8167683" lon="9.66058"><ele>561.0</ele><time>2026-05-01T08:18:28.863Z</time></trkpt><trkpt lat="44.8167" lon="9.6604833"><ele>561.0</ele><time>2026-05-01T08:18:29.863Z</time></trkpt><trkpt lat="44.81664" lon="9.6603667"><ele>561.0</ele><time>2026-05-01T08:18:30.863Z</time></trkpt><trkpt lat="44.81658" lon="9.6602417"><ele>562.6</ele><time>2026-05-01T08:18:31.864Z</time></trkpt><trkpt lat="44.816525" lon="9.6601283"><ele>564.2</ele><time>2026-05-01T08:18:32.863Z</time></trkpt><trkpt lat="44.8164767" lon="9.6600233"><ele>565.8</ele><time>2026-05-01T08:18:33.863Z</time></trkpt><trkpt lat="44.81642" lon="9.6599267"><ele>567.4</ele><time>2026-05-01T08:18:34.864Z</time></trkpt><trkpt lat="44.8163517" lon="9.6598217"><ele>569.0</ele><time>2026-05-01T08:18:35.863Z</time></trkpt><trkpt lat="44.8162717" lon="9.6597217"><ele>569.0</ele><time>2026-05-01T08:18:36.863Z</time></trkpt><trkpt lat="44.816185" lon="9.6596383"><ele>569.0</ele><time>2026-05-01T08:18:37.863Z</time></trkpt><trkpt lat="44.816095" lon="9.6595767"><ele>569.0</ele><time>2026-05-01T08:18:38.863Z</time></trkpt><trkpt lat="44.8160033" lon="9.6595233"><ele>569.0</ele><time>2026-05-01T08:18:39.863Z</time></trkpt><trkpt lat="44.8159217" lon="9.6594683"><ele>569.0</ele><time>2026-05-01T08:18:40.863Z</time></trkpt><trkpt lat="44.815835" lon="9.659405"><ele>569.4</ele><time>2026-05-01T08:18:41.863Z</time></trkpt><trkpt lat="44.8157483" lon="9.6593333"><ele>569.8</ele><time>2026-05-01T08:18:42.863Z</time></trkpt><trkpt lat="44.8156617" lon="9.6592433"><ele>570.2</ele><time>2026-05-01T08:18:43.863Z</time></trkpt><trkpt lat="44.8155783" lon="9.6591433"><ele>570.6</ele><time>2026-05-01T08:18:44.863Z</time></trkpt><trkpt lat="44.8155117" lon="9.6590467"><ele>571.0</ele><time>2026-05-01T08:18:45.863Z</time></trkpt><trkpt lat="44.8154483" lon="9.6589567"><ele>571.0</ele><time>2026-05-01T08:18:46.863Z</time></trkpt><trkpt lat="44.81539" lon="9.6588683"><ele>571.0</ele><time>2026-05-01T08:18:47.863Z</time></trkpt><trkpt lat="44.81533" lon="9.658785"><ele>571.0</ele><time>2026-05-01T08:18:48.863Z</time></trkpt><trkpt lat="44.8152767" lon="9.6587033"><ele>571.0</ele><time>2026-05-01T08:18:49.863Z</time></trkpt><trkpt lat="44.8152117" lon="9.6586183"><ele>571.0</ele><time>2026-05-01T08:18:50.863Z</time></trkpt><trkpt lat="44.8151433" lon="9.6585083"><ele>571.0</ele><time>2026-05-01T08:18:51.863Z</time></trkpt><trkpt lat="44.8150617" lon="9.6584117"><ele>570.8</ele><time>2026-05-01T08:18:52.863Z</time></trkpt><trkpt lat="44.8149767" lon="9.6583283"><ele>570.6</ele><time>2026-05-01T08:18:53.863Z</time></trkpt><trkpt lat="44.8148917" lon="9.6582283"><ele>570.4</ele><time>2026-05-01T08:18:54.863Z</time></trkpt><trkpt lat="44.8148083" lon="9.6581317"><ele>570.2</ele><time>2026-05-01T08:18:55.863Z</time></trkpt><trkpt lat="44.81472" lon="9.6580233"><ele>570.0</ele><time>2026-05-01T08:18:56.863Z</time></trkpt><trkpt lat="44.8146417" lon="9.65792"><ele>570.0</ele><time>2026-05-01T08:18:57.863Z</time></trkpt><trkpt lat="44.8145817" lon="9.6578217"><ele>570.0</ele><time>2026-05-01T08:18:58.863Z</time></trkpt><trkpt lat="44.8145233" lon="9.65774"><ele>570.0</ele><time>2026-05-01T08:18:59.863Z</time></trkpt><trkpt lat="44.814435" lon="9.657625"><ele>570.0</ele><time>2026-05-01T08:19:01.863Z</time></trkpt><trkpt lat="44.8143817" lon="9.657565"><ele>570.0</ele><time>2026-05-01T08:19:02.863Z</time></trkpt><trkpt lat="44.814315" lon="9.6574933"><ele>570.0</ele><time>2026-05-01T08:19:03.863Z</time></trkpt><trkpt lat="44.8142483" lon="9.657395"><ele>572.25</ele><time>2026-05-01T08:19:04.863Z</time></trkpt><trkpt lat="44.8141867" lon="9.65726"><ele>574.5</ele><time>2026-05-01T08:19:05.863Z</time></trkpt><trkpt lat="44.8141217" lon="9.6570983"><ele>576.75</ele><time>2026-05-01T08:19:06.863Z</time></trkpt><trkpt lat="44.8140733" lon="9.6569267"><ele>579.0</ele><time>2026-05-01T08:19:07.863Z</time></trkpt><trkpt lat="44.8140233" lon="9.65675"><ele>581.75</ele><time>2026-05-01T08:19:08.863Z</time></trkpt><trkpt lat="44.8139633" lon="9.656565"><ele>584.5</ele><time>2026-05-01T08:19:09.863Z</time></trkpt><trkpt lat="44.81391" lon="9.6563833"><ele>587.25</ele><time>2026-05-01T08:19:10.863Z</time></trkpt><trkpt lat="44.81386" lon="9.6562217"><ele>590.0</ele><time>2026-05-01T08:19:11.863Z</time></trkpt><trkpt lat="44.8138067" lon="9.656075"><ele>590.0</ele><time>2026-05-01T08:19:12.863Z</time></trkpt><trkpt lat="44.8137417" lon="9.6559533"><ele>590.0</ele><time>2026-05-01T08:19:13.863Z</time></trkpt><trkpt lat="44.8136717" lon="9.6558417"><ele>590.0</ele><time>2026-05-01T08:19:14.863Z</time></trkpt><trkpt lat="44.8136167" lon="9.655725"><ele>590.0</ele><time>2026-05-01T08:19:15.863Z</time></trkpt><trkpt lat="44.8135767" lon="9.6556"><ele>590.0</ele><time>2026-05-01T08:19:16.863Z</time></trkpt><trkpt lat="44.8135433" lon="9.655465"><ele>590.0</ele><time>2026-05-01T08:19:17.863Z</time></trkpt><trkpt lat="44.8135233" lon="9.6553117"><ele>590.0</ele><time>2026-05-01T08:19:18.863Z</time></trkpt><trkpt lat="44.8135133" lon="9.6551517"><ele>590.0</ele><time>2026-05-01T08:19:19.863Z</time></trkpt><trkpt lat="44.8135" lon="9.6549783"><ele>590.0</ele><time>2026-05-01T08:19:20.863Z</time></trkpt><trkpt lat="44.81349" lon="9.6548283"><ele>590.1428571428572</ele><time>2026-05-01T08:19:21.863Z</time></trkpt><trkpt lat="44.8134783" lon="9.6547133"><ele>590.2857142857143</ele><time>2026-05-01T08:19:22.864Z</time></trkpt><trkpt lat="44.8134633" lon="9.6546133"><ele>590.4285714285714</ele><time>2026-05-01T08:19:23.863Z</time></trkpt><trkpt lat="44.8134283" lon="9.6545267"><ele>590.5714285714287</ele><time>2026-05-01T08:19:24.863Z</time></trkpt><trkpt lat="44.81338" lon="9.6544633"><ele>590.7142857142858</ele><time>2026-05-01T08:19:25.863Z</time></trkpt><trkpt lat="44.813315" lon="9.6544233"><ele>590.8571428571429</ele><time>2026-05-01T08:19:26.863Z</time></trkpt><trkpt lat="44.81323" lon="9.6544033"><ele>591.0</ele><time>2026-05-01T08:19:27.863Z</time></trkpt><trkpt lat="44.8131467" lon="9.6544117"><ele>591.0</ele><time>2026-05-01T08:19:28.864Z</time></trkpt><trkpt lat="44.813065" lon="9.65445"><ele>591.0</ele><time>2026-05-01T08:19:29.863Z</time></trkpt><trkpt lat="44.8129733" lon="9.6545333"><ele>591.0</ele><time>2026-05-01T08:19:30.863Z</time></trkpt><trkpt lat="44.81289" lon="9.6546233"><ele>591.0</ele><time>2026-05-01T08:19:31.863Z</time></trkpt><trkpt lat="44.8128183" lon="9.6546917"><ele>591.0</ele><time>2026-05-01T08:19:32.863Z</time></trkpt><trkpt lat="44.8127167" lon="9.6547733"><ele>589.3333333333334</ele><time>2026-05-01T08:19:34.863Z</time></trkpt><trkpt lat="44.8125983" lon="9.6547633"><ele>587.6666666666666</ele><time>2026-05-01T08:19:36.863Z</time></trkpt><trkpt lat="44.8125383" lon="9.6547267"><ele>586.0</ele><time>2026-05-01T08:19:37.863Z</time></trkpt><trkpt lat="44.8124917" lon="9.654655"><ele>584.3333333333333</ele><time>2026-05-01T08:19:38.863Z</time></trkpt><trkpt lat="44.81245" lon="9.6545817"><ele>582.6666666666666</ele><time>2026-05-01T08:19:39.863Z</time></trkpt><trkpt lat="44.8124033" lon="9.6545183"><ele>581.0</ele><time>2026-05-01T08:19:40.863Z</time></trkpt><trkpt lat="44.8123367" lon="9.6544967"><ele>581.0</ele><time>2026-05-01T08:19:41.863Z</time></trkpt><trkpt lat="44.8122467" lon="9.6544983"><ele>581.0</ele><time>2026-05-01T08:19:42.863Z</time></trkpt><trkpt lat="44.8121433" lon="9.6545433"><ele>581.0</ele><time>2026-05-01T08:19:43.863Z</time></trkpt><trkpt lat="44.812035" lon="9.6546133"><ele>581.0</ele><time>2026-05-01T08:19:44.863Z</time></trkpt><trkpt lat="44.8119333" lon="9.6546867"><ele>581.0</ele><time>2026-05-01T08:19:45.863Z</time></trkpt><trkpt lat="44.8118267" lon="9.6547483"><ele>579.8</ele><time>2026-05-01T08:19:46.863Z</time></trkpt><trkpt lat="44.8117133" lon="9.65479"><ele>578.6</ele><time>2026-05-01T08:19:47.863Z</time></trkpt><trkpt lat="44.8116067" lon="9.65481"><ele>577.4</ele><time>2026-05-01T08:19:48.863Z</time></trkpt><trkpt lat="44.8115067" lon="9.6548167"><ele>576.2</ele><time>2026-05-01T08:19:49.863Z</time></trkpt><trkpt lat="44.8114017" lon="9.6548017"><ele>575.0</ele><time>2026-05-01T08:19:50.863Z</time></trkpt><trkpt lat="44.8113" lon="9.654785"><ele>575.0</ele><time>2026-05-01T08:19:51.863Z</time></trkpt><trkpt lat="44.8111917" lon="9.654755"><ele>575.0</ele><time>2026-05-01T08:19:52.864Z</time></trkpt><trkpt lat="44.811085" lon="9.654725"><ele>575.0</ele><time>2026-05-01T08:19:53.863Z</time></trkpt><trkpt lat="44.8109833" lon="9.6546883"><ele>575.0</ele><time>2026-05-01T08:19:54.863Z</time></trkpt><trkpt lat="44.8108717" lon="9.6546467"><ele>575.0</ele><time>2026-05-01T08:19:55.864Z</time></trkpt><trkpt lat="44.810775" lon="9.6545933"><ele>575.2</ele><time>2026-05-01T08:19:56.863Z</time></trkpt><trkpt lat="44.81067" lon="9.6545417"><ele>575.4</ele><time>2026-05-01T08:19:57.863Z</time></trkpt><trkpt lat="44.810575" lon="9.65451"><ele>575.6</ele><time>2026-05-01T08:19:58.863Z</time></trkpt><trkpt lat="44.8104733" lon="9.6545017"><ele>575.8</ele><time>2026-05-01T08:19:59.863Z</time></trkpt><trkpt lat="44.8103667" lon="9.6545067"><ele>576.0</ele><time>2026-05-01T08:20:00.863Z</time></trkpt><trkpt lat="44.810255" lon="9.6545283"><ele>578.75</ele><time>2026-05-01T08:20:01.863Z</time></trkpt><trkpt lat="44.8101417" lon="9.6545717"><ele>581.5</ele><time>2026-05-01T08:20:02.863Z</time></trkpt><trkpt lat="44.8100383" lon="9.6546417"><ele>584.25</ele><time>2026-05-01T08:20:03.863Z</time></trkpt><trkpt lat="44.8099433" lon="9.65473"><ele>587.0</ele><time>2026-05-01T08:20:04.863Z</time></trkpt><trkpt lat="44.8098583" lon="9.6548367"><ele>587.0</ele><time>2026-05-01T08:20:05.863Z</time></trkpt><trkpt lat="44.8097917" lon="9.6549367"><ele>587.0</ele><time>2026-05-01T08:20:06.863Z</time></trkpt><trkpt lat="44.80974" lon="9.6550133"><ele>587.0</ele><time>2026-05-01T08:20:07.863Z</time></trkpt><trkpt lat="44.80965" lon="9.65509"><ele>587.0</ele><time>2026-05-01T08:20:09.863Z</time></trkpt><trkpt lat="44.8095833" lon="9.6550467"><ele>587.0</ele><time>2026-05-01T08:20:10.863Z</time></trkpt><trkpt lat="44.8095167" lon="9.6549633"><ele>587.0</ele><time>2026-05-01T08:20:11.864Z</time></trkpt><trkpt lat="44.8094267" lon="9.6548533"><ele>589.75</ele><time>2026-05-01T08:20:12.863Z</time></trkpt><trkpt lat="44.8093083" lon="9.65471"><ele>592.5</ele><time>2026-05-01T08:20:13.863Z</time></trkpt><trkpt lat="44.8091967" lon="9.6545817"><ele>595.25</ele><time>2026-05-01T08:20:14.863Z</time></trkpt><trkpt lat="44.8090917" lon="9.6544967"><ele>598.0</ele><time>2026-05-01T08:20:15.863Z</time></trkpt><trkpt lat="44.8089917" lon="9.6544217"><ele>598.4</ele><time>2026-05-01T08:20:16.863Z</time></trkpt><trkpt lat="44.8088983" lon="9.6543533"><ele>598.8</ele><time>2026-05-01T08:20:17.863Z</time></trkpt><trkpt lat="44.8088083" lon="9.6542817"><ele>599.2</ele><time>2026-05-01T08:20:18.863Z</time></trkpt><trkpt lat="44.8087417" lon="9.6542017"><ele>599.6</ele><time>2026-05-01T08:20:19.863Z</time></trkpt><trkpt lat="44.8086783" lon="9.654115"><ele>600.0</ele><time>2026-05-01T08:20:20.863Z</time></trkpt><trkpt lat="44.8086367" lon="9.65402"><ele>600.0</ele><time>2026-05-01T08:20:21.863Z</time></trkpt><trkpt lat="44.808615" lon="9.6539167"><ele>600.0</ele><time>2026-05-01T08:20:22.863Z</time></trkpt><trkpt lat="44.8085983" lon="9.653805"><ele>600.0</ele><time>2026-05-01T08:20:23.863Z</time></trkpt><trkpt lat="44.808585" lon="9.6537117"><ele>600.0</ele><time>2026-05-01T08:20:24.863Z</time></trkpt><trkpt lat="44.8085217" lon="9.6536"><ele>600.0</ele><time>2026-05-01T08:20:26.863Z</time></trkpt><trkpt lat="44.8084467" lon="9.6535783"><ele>600.0</ele><time>2026-05-01T08:20:28.863Z</time></trkpt><trkpt lat="44.8083683" lon="9.6536983"><ele>603.75</ele><time>2026-05-01T08:20:30.863Z</time></trkpt><trkpt lat="44.8083067" lon="9.6538"><ele>607.5</ele><time>2026-05-01T08:20:31.863Z</time></trkpt><trkpt lat="44.8082367" lon="9.65393"><ele>611.25</ele><time>2026-05-01T08:20:32.863Z</time></trkpt><trkpt lat="44.8081717" lon="9.6540667"><ele>615.0</ele><time>2026-05-01T08:20:33.863Z</time></trkpt><trkpt lat="44.80811" lon="9.6542167"><ele>615.0</ele><time>2026-05-01T08:20:34.863Z</time></trkpt><trkpt lat="44.8080483" lon="9.65437"><ele>615.0</ele><time>2026-05-01T08:20:35.863Z</time></trkpt><trkpt lat="44.808" lon="9.6545283"><ele>615.0</ele><time>2026-05-01T08:20:36.863Z</time></trkpt><trkpt lat="44.80796" lon="9.6546817"><ele>615.0</ele><time>2026-05-01T08:20:37.863Z</time></trkpt><trkpt lat="44.8079333" lon="9.6548233"><ele>614.8333333333334</ele><time>2026-05-01T08:20:38.863Z</time></trkpt><trkpt lat="44.8079167" lon="9.6549467"><ele>614.6666666666666</ele><time>2026-05-01T08:20:39.863Z</time></trkpt><trkpt lat="44.8079" lon="9.6550617"><ele>614.5</ele><time>2026-05-01T08:20:40.863Z</time></trkpt><trkpt lat="44.8078717" lon="9.6551767"><ele>614.3333333333333</ele><time>2026-05-01T08:20:41.863Z</time></trkpt><trkpt lat="44.807835" lon="9.6552667"><ele>614.1666666666666</ele><time>2026-05-01T08:20:42.863Z</time></trkpt><trkpt lat="44.8077883" lon="9.6553383"><ele>614.0</ele><time>2026-05-01T08:20:43.863Z</time></trkpt><trkpt lat="44.80772" lon="9.65545"><ele>614.0</ele><time>2026-05-01T08:20:45.863Z</time></trkpt><trkpt lat="44.8076833" lon="9.6555233"><ele>614.0</ele><time>2026-05-01T08:20:48.863Z</time></trkpt><trkpt lat="44.8076167" lon="9.6554667"><ele>614.0</ele><time>2026-05-01T08:20:50.863Z</time></trkpt><trkpt lat="44.8075817" lon="9.655305"><ele>614.0</ele><time>2026-05-01T08:20:52.863Z</time></trkpt><trkpt lat="44.807575" lon="9.6552117"><ele>614.0</ele><time>2026-05-01T08:20:53.863Z</time></trkpt><trkpt lat="44.8075683" lon="9.6551167"><ele>614.0</ele><time>2026-05-01T08:20:54.863Z</time></trkpt><trkpt lat="44.807565" lon="9.6549633"><ele>618.6</ele><time>2026-05-01T08:20:56.863Z</time></trkpt><trkpt lat="44.80757" lon="9.6548"><ele>623.2</ele><time>2026-05-01T08:20:58.863Z</time></trkpt><trkpt lat="44.807555" lon="9.6546417"><ele>627.8000000000001</ele><time>2026-05-01T08:21:00.863Z</time></trkpt><trkpt lat="44.8075033" lon="9.6545117"><ele>632.4</ele><time>2026-05-01T08:21:02.863Z</time></trkpt><trkpt lat="44.8073983" lon="9.654465"><ele>637.0</ele><time>2026-05-01T08:21:04.863Z</time></trkpt><trkpt lat="44.8072933" lon="9.6544183"><ele>637.0</ele><time>2026-05-01T08:21:06.863Z</time></trkpt><trkpt lat="44.8072" lon="9.65435"><ele>637.0</ele><time>2026-05-01T08:21:08.863Z</time></trkpt><trkpt lat="44.8070933" lon="9.65434"><ele>637.0</ele><time>2026-05-01T08:21:10.863Z</time></trkpt><trkpt lat="44.806995" lon="9.6544333"><ele>637.0</ele><time>2026-05-01T08:21:12.863Z</time></trkpt><trkpt lat="44.806945" lon="9.654515"><ele>637.0</ele><time>2026-05-01T08:21:13.863Z</time></trkpt><trkpt lat="44.8068983" lon="9.654615"><ele>637.0</ele><time>2026-05-01T08:21:14.863Z</time></trkpt><trkpt lat="44.8068517" lon="9.6547133"><ele>637.0</ele><time>2026-05-01T08:21:15.863Z</time></trkpt><trkpt lat="44.8068033" lon="9.6548083"><ele>637.0</ele><time>2026-05-01T08:21:16.863Z</time></trkpt><trkpt lat="44.8067517" lon="9.654895"><ele>637.0</ele><time>2026-05-01T08:21:17.863Z</time></trkpt><trkpt lat="44.8067" lon="9.6549683"><ele>637.0</ele><time>2026-05-01T08:21:18.863Z</time></trkpt><trkpt lat="44.806645" lon="9.6550283"><ele>637.0</ele><time>2026-05-01T08:21:19.863Z</time></trkpt><trkpt lat="44.8065833" lon="9.6550783"><ele>641.6666666666667</ele><time>2026-05-01T08:21:20.863Z</time></trkpt><trkpt lat="44.8065133" lon="9.6551183"><ele>646.3333333333334</ele><time>2026-05-01T08:21:21.863Z</time></trkpt><trkpt lat="44.8064467" lon="9.6551383"><ele>651.0</ele><time>2026-05-01T08:21:22.863Z</time></trkpt><trkpt lat="44.806385" lon="9.6551667"><ele>655.6666666666666</ele><time>2026-05-01T08:21:23.863Z</time></trkpt><trkpt lat="44.80632" lon="9.65521"><ele>660.3333333333333</ele><time>2026-05-01T08:21:24.863Z</time></trkpt><trkpt lat="44.806255" lon="9.655245"><ele>665.0</ele><time>2026-05-01T08:21:25.863Z</time></trkpt><trkpt lat="44.806155" lon="9.655285"><ele>665.0</ele><time>2026-05-01T08:21:27.863Z</time></trkpt><trkpt lat="44.8060533" lon="9.65525"><ele>665.0</ele><time>2026-05-01T08:21:29.863Z</time></trkpt><trkpt lat="44.805965" lon="9.6551467"><ele>665.0</ele><time>2026-05-01T08:21:31.863Z</time></trkpt><trkpt lat="44.8059067" lon="9.65503"><ele>665.0</ele><time>2026-05-01T08:21:33.863Z</time></trkpt><trkpt lat="44.8058467" lon="9.6549433"><ele>665.0</ele><time>2026-05-01T08:21:35.863Z</time></trkpt><trkpt lat="44.80577" lon="9.6548633"><ele>670.4</ele><time>2026-05-01T08:21:37.863Z</time></trkpt><trkpt lat="44.8056648" lon="9.6547621"><ele>675.8</ele><time>2026-05-01T08:21:39.863Z</time></trkpt><trkpt lat="44.8055852" lon="9.6547157"><ele>681.2</ele><time>2026-05-01T08:21:40.863Z</time></trkpt><trkpt lat="44.805503" lon="9.6546763"><ele>686.6</ele><time>2026-05-01T08:21:41.863Z</time></trkpt><trkpt lat="44.80542" lon="9.654638"><ele>692.0</ele><time>2026-05-01T08:21:42.863Z</time></trkpt><trkpt lat="44.8053374" lon="9.6546022"><ele>692.0</ele><time>2026-05-01T08:21:43.863Z</time></trkpt><trkpt lat="44.8052612" lon="9.6545642"><ele>692.0</ele><time>2026-05-01T08:21:44.863Z</time></trkpt><trkpt lat="44.8051869" lon="9.6545335"><ele>692.0</ele><time>2026-05-01T08:21:45.863Z</time></trkpt><trkpt lat="44.8051147" lon="9.6545047"><ele>692.0</ele><time>2026-05-01T08:21:46.863Z</time></trkpt><trkpt lat="44.8050507" lon="9.6544757"><ele>692.0</ele><time>2026-05-01T08:21:47.863Z</time></trkpt><trkpt lat="44.8049886" lon="9.6544429"><ele>692.0</ele><time>2026-05-01T08:21:48.863Z</time></trkpt><trkpt lat="44.8048872" lon="9.6543766"><ele>694.6</ele><time>2026-05-01T08:21:50.863Z</time></trkpt><trkpt lat="44.8048171" lon="9.6543947"><ele>697.2</ele><time>2026-05-01T08:21:52.863Z</time></trkpt><trkpt lat="44.8047396" lon="9.6544961"><ele>699.8</ele><time>2026-05-01T08:21:54.863Z</time></trkpt><trkpt lat="44.8046394" lon="9.654596"><ele>702.4</ele><time>2026-05-01T08:21:56.863Z</time></trkpt><trkpt lat="44.8045437" lon="9.6546798"><ele>705.0</ele><time>2026-05-01T08:21:58.863Z</time></trkpt><trkpt lat="44.8044872" lon="9.654731"><ele>705.9999999999999</ele><time>2026-05-01T08:21:59.863Z</time></trkpt><trkpt lat="44.8044331" lon="9.6547791"><ele>707.0</ele><time>2026-05-01T08:22:00.863Z</time></trkpt><trkpt lat="44.8043715" lon="9.6548168"><ele>708.0</ele><time>2026-05-01T08:22:01.863Z</time></trkpt><trkpt lat="44.804303" lon="9.654844"><ele>709.0</ele><time>2026-05-01T08:22:02.863Z</time></trkpt><trkpt lat="44.8042314" lon="9.6548634"><ele>710.0</ele><time>2026-05-01T08:22:03.863Z</time></trkpt><trkpt lat="44.8041589" lon="9.6548692"><ele>710.9999999999999</ele><time>2026-05-01T08:22:04.863Z</time></trkpt><trkpt lat="44.8040853" lon="9.6548654"><ele>712.0</ele><time>2026-05-01T08:22:05.863Z</time></trkpt><trkpt lat="44.8040154" lon="9.6548592"><ele>715.2</ele><time>2026-05-01T08:22:06.863Z</time></trkpt><trkpt lat="44.8039071" lon="9.6548605"><ele>718.4000000000001</ele><time>2026-05-01T08:22:08.863Z</time></trkpt><trkpt lat="44.8038014" lon="9.6548755"><ele>721.5999999999999</ele><time>2026-05-01T08:22:10.863Z</time></trkpt><trkpt lat="44.8037372" lon="9.6548694"><ele>724.8</ele><time>2026-05-01T08:22:11.863Z</time></trkpt><trkpt lat="44.803648" lon="9.6548618"><ele>728.0</ele><time>2026-05-01T08:22:12.863Z</time></trkpt><trkpt lat="44.8035584" lon="9.6548629"><ele>729.3333333333333</ele><time>2026-05-01T08:22:13.863Z</time></trkpt><trkpt lat="44.8034702" lon="9.6548802"><ele>730.6666666666666</ele><time>2026-05-01T08:22:14.863Z</time></trkpt><trkpt lat="44.8033895" lon="9.6548979"><ele>732.0</ele><time>2026-05-01T08:22:15.863Z</time></trkpt><trkpt lat="44.8033083" lon="9.654905"><ele>733.3333333333334</ele><time>2026-05-01T08:22:16.863Z</time></trkpt><trkpt lat="44.8032267" lon="9.6549017"><ele>734.6666666666667</ele><time>2026-05-01T08:22:17.864Z</time></trkpt><trkpt lat="44.80314" lon="9.654895"><ele>736.0</ele><time>2026-05-01T08:22:18.863Z</time></trkpt><trkpt lat="44.8030517" lon="9.6548833"><ele>736.0</ele><time>2026-05-01T08:22:19.863Z</time></trkpt><trkpt lat="44.802965" lon="9.6548617"><ele>736.0</ele><time>2026-05-01T08:22:20.863Z</time></trkpt><trkpt lat="44.8028717" lon="9.654845"><ele>736.0</ele><time>2026-05-01T08:22:21.863Z</time></trkpt><trkpt lat="44.802775" lon="9.6548367"><ele>736.0</ele><time>2026-05-01T08:22:22.863Z</time></trkpt><trkpt lat="44.8026817" lon="9.6548217"><ele>736.0</ele><time>2026-05-01T08:22:23.863Z</time></trkpt><trkpt lat="44.802595" lon="9.6548067"><ele>735.8333333333334</ele><time>2026-05-01T08:22:24.863Z</time></trkpt><trkpt lat="44.8025067" lon="9.6547917"><ele>735.6666666666667</ele><time>2026-05-01T08:22:25.863Z</time></trkpt><trkpt lat="44.8024217" lon="9.6547683"><ele>735.5</ele><time>2026-05-01T08:22:26.863Z</time></trkpt><trkpt lat="44.8023383" lon="9.6547383"><ele>735.3333333333334</ele><time>2026-05-01T08:22:27.863Z</time></trkpt><trkpt lat="44.802255" lon="9.6547033"><ele>735.1666666666666</ele><time>2026-05-01T08:22:28.863Z</time></trkpt><trkpt lat="44.802175" lon="9.6546633"><ele>735.0</ele><time>2026-05-01T08:22:29.863Z</time></trkpt><trkpt lat="44.8020967" lon="9.6546283"><ele>735.0</ele><time>2026-05-01T08:22:30.863Z</time></trkpt><trkpt lat="44.8020183" lon="9.6545933"><ele>735.0</ele><time>2026-05-01T08:22:31.863Z</time></trkpt><trkpt lat="44.801945" lon="9.6545567"><ele>735.0</ele><time>2026-05-01T08:22:32.863Z</time></trkpt><trkpt lat="44.8018633" lon="9.6545283"><ele>735.0</ele><time>2026-05-01T08:22:33.863Z</time></trkpt><trkpt lat="44.80179" lon="9.6545017"><ele>735.0</ele><time>2026-05-01T08:22:34.863Z</time></trkpt><trkpt lat="44.8017167" lon="9.654475"><ele>735.0</ele><time>2026-05-01T08:22:35.863Z</time></trkpt><trkpt lat="44.8016383" lon="9.6544567"><ele>736.5</ele><time>2026-05-01T08:22:36.863Z</time></trkpt><trkpt lat="44.8015617" lon="9.6544433"><ele>738.0</ele><time>2026-05-01T08:22:37.863Z</time></trkpt><trkpt lat="44.8014917" lon="9.654425"><ele>739.5</ele><time>2026-05-01T08:22:38.863Z</time></trkpt><trkpt lat="44.801425" lon="9.654405"><ele>741.0</ele><time>2026-05-01T08:22:39.863Z</time></trkpt><trkpt lat="44.80136" lon="9.65438"><ele>742.5</ele><time>2026-05-01T08:22:40.863Z</time></trkpt><trkpt lat="44.8012983" lon="9.6543567"><ele>744.0</ele><time>2026-05-01T08:22:41.863Z</time></trkpt><trkpt lat="44.8011917" lon="9.654355"><ele>744.0</ele><time>2026-05-01T08:22:43.863Z</time></trkpt><trkpt lat="44.8011233" lon="9.6543767"><ele>744.0</ele><time>2026-05-01T08:22:44.863Z</time></trkpt><trkpt lat="44.801045" lon="9.65441"><ele>744.0</ele><time>2026-05-01T08:22:45.863Z</time></trkpt><trkpt lat="44.8009667" lon="9.654435"><ele>744.0</ele><time>2026-05-01T08:22:46.863Z</time></trkpt><trkpt lat="44.8008933" lon="9.6544417"><ele>744.0</ele><time>2026-05-01T08:22:47.863Z</time></trkpt><trkpt lat="44.8008117" lon="9.6544533"><ele>744.0</ele><time>2026-05-01T08:22:48.863Z</time></trkpt><trkpt lat="44.8007283" lon="9.65447"><ele>743.0</ele><time>2026-05-01T08:22:49.864Z</time></trkpt><trkpt lat="44.80066" lon="9.6544817"><ele>742.0</ele><time>2026-05-01T08:22:50.863Z</time></trkpt><trkpt lat="44.8005933" lon="9.6544967"><ele>741.0</ele><time>2026-05-01T08:22:51.863Z</time></trkpt><trkpt lat="44.800465" lon="9.6545433"><ele>740.0</ele><time>2026-05-01T08:22:53.863Z</time></trkpt><trkpt lat="44.80039" lon="9.6545667"><ele>739.0</ele><time>2026-05-01T08:22:54.863Z</time></trkpt><trkpt lat="44.8003267" lon="9.6545783"><ele>738.0</ele><time>2026-05-01T08:22:55.863Z</time></trkpt><trkpt lat="44.8002133" lon="9.6545617"><ele>739.0</ele><time>2026-05-01T08:22:57.863Z</time></trkpt><trkpt lat="44.8000817" lon="9.654565"><ele>740.0</ele><time>2026-05-01T08:22:59.863Z</time></trkpt><trkpt lat="44.8000067" lon="9.6545533"><ele>741.0</ele><time>2026-05-01T08:23:00.863Z</time></trkpt><trkpt lat="44.799925" lon="9.6545417"><ele>742.0</ele><time>2026-05-01T08:23:01.863Z</time></trkpt><trkpt lat="44.79984" lon="9.654535"><ele>743.0</ele><time>2026-05-01T08:23:02.863Z</time></trkpt><trkpt lat="44.799755" lon="9.65454"><ele>743.0</ele><time>2026-05-01T08:23:03.863Z</time></trkpt><trkpt lat="44.7996667" lon="9.6545583"><ele>743.0</ele><time>2026-05-01T08:23:04.863Z</time></trkpt><trkpt lat="44.7995817" lon="9.6545817"><ele>743.0</ele><time>2026-05-01T08:23:05.863Z</time></trkpt><trkpt lat="44.7995033" lon="9.654605"><ele>743.0</ele><time>2026-05-01T08:23:06.863Z</time></trkpt><trkpt lat="44.7994233" lon="9.6546333"><ele>743.0</ele><time>2026-05-01T08:23:07.863Z</time></trkpt><trkpt lat="44.7993333" lon="9.65466"><ele>743.0</ele><time>2026-05-01T08:23:08.863Z</time></trkpt><trkpt lat="44.7992483" lon="9.6546683"><ele>742.3333333333333</ele><time>2026-05-01T08:23:09.863Z</time></trkpt><trkpt lat="44.7991517" lon="9.6546833"><ele>741.6666666666666</ele><time>2026-05-01T08:23:10.863Z</time></trkpt><trkpt lat="44.7990717" lon="9.65471"><ele>741.0</ele><time>2026-05-01T08:23:11.863Z</time></trkpt><trkpt lat="44.7989983" lon="9.6547467"><ele>740.3333333333334</ele><time>2026-05-01T08:23:12.863Z</time></trkpt><trkpt lat="44.7989283" lon="9.6547767"><ele>739.6666666666667</ele><time>2026-05-01T08:23:13.863Z</time></trkpt><trkpt lat="44.7988533" lon="9.654795"><ele>739.0</ele><time>2026-05-01T08:23:14.863Z</time></trkpt><trkpt lat="44.7987867" lon="9.6548067"><ele>739.0</ele><time>2026-05-01T08:23:15.863Z</time></trkpt><trkpt lat="44.7987233" lon="9.6548267"><ele>739.0</ele><time>2026-05-01T08:23:16.863Z</time></trkpt><trkpt lat="44.79866" lon="9.654875"><ele>739.0</ele><time>2026-05-01T08:23:18.863Z</time></trkpt><trkpt lat="44.7985917" lon="9.6548983"><ele>739.0</ele><time>2026-05-01T08:23:20.863Z</time></trkpt><trkpt lat="44.798455" lon="9.654835"><ele>739.0</ele><time>2026-05-01T08:23:22.863Z</time></trkpt><trkpt lat="44.798365" lon="9.6548033"><ele>739.0</ele><time>2026-05-01T08:23:23.863Z</time></trkpt><trkpt lat="44.79825" lon="9.6547217"><ele>736.3333333333334</ele><time>2026-05-01T08:23:27.864Z</time></trkpt><trkpt lat="44.7980717" lon="9.654635"><ele>733.6666666666666</ele><time>2026-05-01T08:23:28.864Z</time></trkpt><trkpt lat="44.7979433" lon="9.65457"><ele>731.0</ele><time>2026-05-01T08:23:29.864Z</time></trkpt><trkpt lat="44.7977583" lon="9.6544883"><ele>732.0</ele><time>2026-05-01T08:23:30.865Z</time></trkpt><trkpt lat="44.7975783" lon="9.6544133"><ele>733.0</ele><time>2026-05-01T08:23:31.864Z</time></trkpt><trkpt lat="44.7974067" lon="9.6543483"><ele>734.0</ele><time>2026-05-01T08:23:32.864Z</time></trkpt><trkpt lat="44.79727" lon="9.654295"><ele>734.0</ele><time>2026-05-01T08:23:33.864Z</time></trkpt><trkpt lat="44.7971633" lon="9.6542517"><ele>734.0</ele><time>2026-05-01T08:23:34.865Z</time></trkpt><trkpt lat="44.797045" lon="9.6542167"><ele>734.0</ele><time>2026-05-01T08:23:35.864Z</time></trkpt><trkpt lat="44.79694" lon="9.6541683"><ele>734.0</ele><time>2026-05-01T08:23:36.864Z</time></trkpt><trkpt lat="44.7968367" lon="9.6541033"><ele>733.6666666666666</ele><time>2026-05-01T08:23:37.864Z</time></trkpt><trkpt lat="44.796755" lon="9.65404"><ele>733.3333333333333</ele><time>2026-05-01T08:23:38.865Z</time></trkpt><trkpt lat="44.79668" lon="9.6539717"><ele>733.0</ele><time>2026-05-01T08:23:39.864Z</time></trkpt><trkpt lat="44.7966117" lon="9.653905"><ele>732.6666666666666</ele><time>2026-05-01T08:23:40.864Z</time></trkpt><trkpt lat="44.7965467" lon="9.65383"><ele>732.3333333333334</ele><time>2026-05-01T08:23:41.865Z</time></trkpt><trkpt lat="44.7964967" lon="9.6537517"><ele>732.0</ele><time>2026-05-01T08:23:42.864Z</time></trkpt><trkpt lat="44.7964467" lon="9.653655"><ele>731.8</ele><time>2026-05-01T08:23:43.864Z</time></trkpt><trkpt lat="44.7964067" lon="9.6535417"><ele>731.6</ele><time>2026-05-01T08:23:44.864Z</time></trkpt><trkpt lat="44.7963733" lon="9.6534217"><ele>731.4</ele><time>2026-05-01T08:23:45.864Z</time></trkpt><trkpt lat="44.7963317" lon="9.6532917"><ele>731.1999999999999</ele><time>2026-05-01T08:23:46.864Z</time></trkpt><trkpt lat="44.7962933" lon="9.6531733"><ele>731.0</ele><time>2026-05-01T08:23:47.865Z</time></trkpt><trkpt lat="44.79625" lon="9.6530683"><ele>731.0</ele><time>2026-05-01T08:23:48.864Z</time></trkpt><trkpt lat="44.79621" lon="9.6529817"><ele>731.0</ele><time>2026-05-01T08:23:49.864Z</time></trkpt><trkpt lat="44.7961667" lon="9.652905"><ele>731.0</ele><time>2026-05-01T08:23:50.864Z</time></trkpt><trkpt lat="44.79605" lon="9.652825"><ele>731.0</ele><time>2026-05-01T08:23:52.864Z</time></trkpt><trkpt lat="44.7959683" lon="9.6528083"><ele>731.0</ele><time>2026-05-01T08:23:53.864Z</time></trkpt><trkpt lat="44.7958783" lon="9.6527817"><ele>731.0</ele><time>2026-05-01T08:23:54.864Z</time></trkpt><trkpt lat="44.7957817" lon="9.6527483"><ele>728.5</ele><time>2026-05-01T08:23:55.864Z</time></trkpt><trkpt lat="44.7956867" lon="9.6527067"><ele>726.0</ele><time>2026-05-01T08:23:56.864Z</time></trkpt><trkpt lat="44.7955783" lon="9.6526483"><ele>723.5</ele><time>2026-05-01T08:23:57.864Z</time></trkpt><trkpt lat="44.7954633" lon="9.6525967"><ele>721.0</ele><time>2026-05-01T08:23:58.864Z</time></trkpt><trkpt lat="44.7953333" lon="9.6525633"><ele>721.0</ele><time>2026-05-01T08:23:59.864Z</time></trkpt><trkpt lat="44.7952083" lon="9.6525233"><ele>721.0</ele><time>2026-05-01T08:24:00.864Z</time></trkpt><trkpt lat="44.7950833" lon="9.65247"><ele>721.0</ele><time>2026-05-01T08:24:01.864Z</time></trkpt><trkpt lat="44.7949583" lon="9.6524133"><ele>721.0</ele><time>2026-05-01T08:24:02.865Z</time></trkpt><trkpt lat="44.7948483" lon="9.6523633"><ele>720.0</ele><time>2026-05-01T08:24:03.864Z</time></trkpt><trkpt lat="44.7947467" lon="9.65233"><ele>719.0</ele><time>2026-05-01T08:24:04.865Z</time></trkpt><trkpt lat="44.7946483" lon="9.6523083"><ele>718.0</ele><time>2026-05-01T08:24:05.864Z</time></trkpt><trkpt lat="44.794545" lon="9.65231"><ele>717.0</ele><time>2026-05-01T08:24:06.864Z</time></trkpt><trkpt lat="44.794445" lon="9.6523267"><ele>716.0</ele><time>2026-05-01T08:24:07.864Z</time></trkpt><trkpt lat="44.7943417" lon="9.6523533"><ele>715.8333333333333</ele><time>2026-05-01T08:24:08.864Z</time></trkpt><trkpt lat="44.794245" lon="9.6523883"><ele>715.6666666666666</ele><time>2026-05-01T08:24:09.864Z</time></trkpt><trkpt lat="44.7941483" lon="9.6524233"><ele>715.5</ele><time>2026-05-01T08:24:10.864Z</time></trkpt><trkpt lat="44.7940667" lon="9.65243"><ele>715.3333333333334</ele><time>2026-05-01T08:24:11.864Z</time></trkpt><trkpt lat="44.7939933" lon="9.6524067"><ele>715.1666666666667</ele><time>2026-05-01T08:24:12.864Z</time></trkpt><trkpt lat="44.7939317" lon="9.652365"><ele>715.0</ele><time>2026-05-01T08:24:13.864Z</time></trkpt><trkpt lat="44.7938783" lon="9.652315"><ele>715.0</ele><time>2026-05-01T08:24:14.864Z</time></trkpt><trkpt lat="44.7938117" lon="9.65226"><ele>715.0</ele><time>2026-05-01T08:24:15.864Z</time></trkpt><trkpt lat="44.7937367" lon="9.6521933"><ele>715.0</ele><time>2026-05-01T08:24:16.864Z</time></trkpt><trkpt lat="44.7936617" lon="9.652115"><ele>715.0</ele><time>2026-05-01T08:24:17.864Z</time></trkpt><trkpt lat="44.7935867" lon="9.652025"><ele>715.0</ele><time>2026-05-01T08:24:18.864Z</time></trkpt><trkpt lat="44.7935083" lon="9.6519283"><ele>715.8</ele><time>2026-05-01T08:24:19.864Z</time></trkpt><trkpt lat="44.7934217" lon="9.6518333"><ele>716.6</ele><time>2026-05-01T08:24:20.864Z</time></trkpt><trkpt lat="44.7933367" lon="9.6517467"><ele>717.4000000000001</ele><time>2026-05-01T08:24:21.864Z</time></trkpt><trkpt lat="44.7932383" lon="9.65167"><ele>718.2</ele><time>2026-05-01T08:24:22.865Z</time></trkpt><trkpt lat="44.79313" lon="9.6516"><ele>719.0</ele><time>2026-05-01T08:24:23.864Z</time></trkpt><trkpt lat="44.7930217" lon="9.6515283"><ele>719.0</ele><time>2026-05-01T08:24:24.864Z</time></trkpt><trkpt lat="44.7929067" lon="9.6514417"><ele>719.0</ele><time>2026-05-01T08:24:25.864Z</time></trkpt><trkpt lat="44.7927917" lon="9.6513383"><ele>719.0</ele><time>2026-05-01T08:24:26.864Z</time></trkpt><trkpt lat="44.7926817" lon="9.65123"><ele>719.0</ele><time>2026-05-01T08:24:27.865Z</time></trkpt><trkpt lat="44.7925867" lon="9.6511317"><ele>720.75</ele><time>2026-05-01T08:24:28.864Z</time></trkpt><trkpt lat="44.7924983" lon="9.6510483"><ele>722.5</ele><time>2026-05-01T08:24:29.864Z</time></trkpt><trkpt lat="44.7924" lon="9.65097"><ele>724.25</ele><time>2026-05-01T08:24:30.864Z</time></trkpt><trkpt lat="44.792295" lon="9.6508967"><ele>726.0</ele><time>2026-05-01T08:24:31.864Z</time></trkpt><trkpt lat="44.7921883" lon="9.6508233"><ele>726.0</ele><time>2026-05-01T08:24:32.864Z</time></trkpt><trkpt lat="44.7920933" lon="9.6507583"><ele>726.0</ele><time>2026-05-01T08:24:33.864Z</time></trkpt><trkpt lat="44.792" lon="9.6507067"><ele>726.0</ele><time>2026-05-01T08:24:34.864Z</time></trkpt><trkpt lat="44.7919033" lon="9.6506383"><ele>726.0</ele><time>2026-05-01T08:24:35.864Z</time></trkpt><trkpt lat="44.7918183" lon="9.65056"><ele>726.0</ele><time>2026-05-01T08:24:36.864Z</time></trkpt><trkpt lat="44.7917267" lon="9.65048"><ele>724.8</ele><time>2026-05-01T08:24:37.864Z</time></trkpt><trkpt lat="44.791635" lon="9.65038"><ele>723.5999999999999</ele><time>2026-05-01T08:24:38.864Z</time></trkpt><trkpt lat="44.7915367" lon="9.65028"><ele>722.4</ele><time>2026-05-01T08:24:39.864Z</time></trkpt><trkpt lat="44.791455" lon="9.6501867"><ele>721.2</ele><time>2026-05-01T08:24:40.864Z</time></trkpt><trkpt lat="44.7913867" lon="9.6500833"><ele>720.0</ele><time>2026-05-01T08:24:41.864Z</time></trkpt><trkpt lat="44.7913317" lon="9.649975"><ele>719.6666666666666</ele><time>2026-05-01T08:24:42.864Z</time></trkpt><trkpt lat="44.7912817" lon="9.6498667"><ele>719.3333333333334</ele><time>2026-05-01T08:24:43.864Z</time></trkpt><trkpt lat="44.791225" lon="9.6497683"><ele>719.0</ele><time>2026-05-01T08:24:44.865Z</time></trkpt><trkpt lat="44.7911717" lon="9.6496733"><ele>718.6666666666667</ele><time>2026-05-01T08:24:45.864Z</time></trkpt><trkpt lat="44.79112" lon="9.6495917"><ele>718.3333333333334</ele><time>2026-05-01T08:24:46.864Z</time></trkpt><trkpt lat="44.7910617" lon="9.6495333"><ele>718.0</ele><time>2026-05-01T08:24:47.864Z</time></trkpt><trkpt lat="44.7909967" lon="9.6494967"><ele>718.0</ele><time>2026-05-01T08:24:48.864Z</time></trkpt><trkpt lat="44.7909167" lon="9.6494817"><ele>718.0</ele><time>2026-05-01T08:24:49.864Z</time></trkpt><trkpt lat="44.79081" lon="9.6494917"><ele>718.0</ele><time>2026-05-01T08:24:50.864Z</time></trkpt><trkpt lat="44.7907017" lon="9.6495067"><ele>718.0</ele><time>2026-05-01T08:24:51.864Z</time></trkpt><trkpt lat="44.7905867" lon="9.6495267"><ele>718.0</ele><time>2026-05-01T08:24:52.864Z</time></trkpt><trkpt lat="44.790475" lon="9.6495417"><ele>718.0</ele><time>2026-05-01T08:24:53.864Z</time></trkpt><trkpt lat="44.79038" lon="9.649555"><ele>718.0</ele><time>2026-05-01T08:24:54.864Z</time></trkpt><trkpt lat="44.7902917" lon="9.649565"><ele>718.0</ele><time>2026-05-01T08:24:55.864Z</time></trkpt><trkpt lat="44.79021" lon="9.64957"><ele>718.0</ele><time>2026-05-01T08:24:56.864Z</time></trkpt><trkpt lat="44.7901233" lon="9.6495667"><ele>718.0</ele><time>2026-05-01T08:24:57.864Z</time></trkpt><trkpt lat="44.7900417" lon="9.6495583"><ele>718.0</ele><time>2026-05-01T08:24:58.864Z</time></trkpt><trkpt lat="44.7899633" lon="9.6495367"><ele>716.8333333333334</ele><time>2026-05-01T08:24:59.864Z</time></trkpt><trkpt lat="44.789875" lon="9.6495033"><ele>715.6666666666667</ele><time>2026-05-01T08:25:00.864Z</time></trkpt><trkpt lat="44.7897883" lon="9.6494667"><ele>714.5</ele><time>2026-05-01T08:25:01.864Z</time></trkpt><trkpt lat="44.78971" lon="9.649435"><ele>713.3333333333334</ele><time>2026-05-01T08:25:02.864Z</time></trkpt><trkpt lat="44.7896317" lon="9.6494"><ele>712.1666666666666</ele><time>2026-05-01T08:25:03.864Z</time></trkpt><trkpt lat="44.7895533" lon="9.6493567"><ele>711.0</ele><time>2026-05-01T08:25:04.864Z</time></trkpt><trkpt lat="44.7894883" lon="9.6493033"><ele>711.3333333333334</ele><time>2026-05-01T08:25:05.864Z</time></trkpt><trkpt lat="44.789425" lon="9.6492367"><ele>711.6666666666666</ele><time>2026-05-01T08:25:06.864Z</time></trkpt><trkpt lat="44.7893633" lon="9.64916"><ele>712.0</ele><time>2026-05-01T08:25:07.864Z</time></trkpt><trkpt lat="44.7893067" lon="9.6490567"><ele>712.3333333333333</ele><time>2026-05-01T08:25:08.864Z</time></trkpt><trkpt lat="44.7892567" lon="9.64894"><ele>712.6666666666666</ele><time>2026-05-01T08:25:09.864Z</time></trkpt><trkpt lat="44.789205" lon="9.6488217"><ele>713.0</ele><time>2026-05-01T08:25:10.864Z</time></trkpt><trkpt lat="44.7891533" lon="9.6487233"><ele>713.0</ele><time>2026-05-01T08:25:11.864Z</time></trkpt><trkpt lat="44.789105" lon="9.6486283"><ele>713.0</ele><time>2026-05-01T08:25:12.864Z</time></trkpt><trkpt lat="44.7890533" lon="9.64853"><ele>713.0</ele><time>2026-05-01T08:25:13.864Z</time></trkpt><trkpt lat="44.7890033" lon="9.6484367"><ele>713.0</ele><time>2026-05-01T08:25:14.864Z</time></trkpt><trkpt lat="44.78895" lon="9.648345"><ele>713.0</ele><time>2026-05-01T08:25:15.864Z</time></trkpt><trkpt lat="44.7888983" lon="9.6482567"><ele>713.0</ele><time>2026-05-01T08:25:16.864Z</time></trkpt><trkpt lat="44.7888467" lon="9.6481633"><ele>713.5999999999999</ele><time>2026-05-01T08:25:17.864Z</time></trkpt><trkpt lat="44.7887833" lon="9.6480517"><ele>714.1999999999999</ele><time>2026-05-01T08:25:18.864Z</time></trkpt><trkpt lat="44.7887217" lon="9.647935"><ele>714.8</ele><time>2026-05-01T08:25:19.864Z</time></trkpt><trkpt lat="44.7886567" lon="9.6478417"><ele>715.4</ele><time>2026-05-01T08:25:20.864Z</time></trkpt><trkpt lat="44.7885883" lon="9.6477567"><ele>716.0</ele><time>2026-05-01T08:25:21.864Z</time></trkpt><trkpt lat="44.7885017" lon="9.6476767"><ele>710.75</ele><time>2026-05-01T08:25:22.864Z</time></trkpt><trkpt lat="44.7884033" lon="9.647615"><ele>705.5</ele><time>2026-05-01T08:25:23.864Z</time></trkpt><trkpt lat="44.7882817" lon="9.6475567"><ele>700.25</ele><time>2026-05-01T08:25:24.864Z</time></trkpt><trkpt lat="44.7881667" lon="9.6475117"><ele>695.0</ele><time>2026-05-01T08:25:25.864Z</time></trkpt><trkpt lat="44.7880667" lon="9.6474483"><ele>695.0</ele><time>2026-05-01T08:25:26.864Z</time></trkpt><trkpt lat="44.78797" lon="9.6473833"><ele>695.0</ele><time>2026-05-01T08:25:27.864Z</time></trkpt><trkpt lat="44.7878733" lon="9.6473183"><ele>695.0</ele><time>2026-05-01T08:25:28.864Z</time></trkpt><trkpt lat="44.78777" lon="9.6472583"><ele>695.0</ele><time>2026-05-01T08:25:29.864Z</time></trkpt><trkpt lat="44.7876683" lon="9.6472017"><ele>695.0</ele><time>2026-05-01T08:25:30.864Z</time></trkpt><trkpt lat="44.7875667" lon="9.6471367"><ele>693.0</ele><time>2026-05-01T08:25:31.864Z</time></trkpt><trkpt lat="44.7874567" lon="9.647065"><ele>691.0</ele><time>2026-05-01T08:25:32.864Z</time></trkpt><trkpt lat="44.7873333" lon="9.64701"><ele>689.0</ele><time>2026-05-01T08:25:33.864Z</time></trkpt><trkpt lat="44.787195" lon="9.6469733"><ele>687.0</ele><time>2026-05-01T08:25:34.864Z</time></trkpt><trkpt lat="44.787055" lon="9.6469633"><ele>687.0</ele><time>2026-05-01T08:25:35.864Z</time></trkpt><trkpt lat="44.7869283" lon="9.64697"><ele>687.0</ele><time>2026-05-01T08:25:36.864Z</time></trkpt><trkpt lat="44.78683" lon="9.64696"><ele>687.0</ele><time>2026-05-01T08:25:37.865Z</time></trkpt><trkpt lat="44.7867433" lon="9.6469317"><ele>687.0</ele><time>2026-05-01T08:25:38.864Z</time></trkpt><trkpt lat="44.78667" lon="9.64689"><ele>687.0</ele><time>2026-05-01T08:25:39.864Z</time></trkpt><trkpt lat="44.786605" lon="9.646835"><ele>686.8333333333334</ele><time>2026-05-01T08:25:40.865Z</time></trkpt><trkpt lat="44.7865483" lon="9.6467767"><ele>686.6666666666666</ele><time>2026-05-01T08:25:41.864Z</time></trkpt><trkpt lat="44.78648" lon="9.6467233"><ele>686.5</ele><time>2026-05-01T08:25:42.864Z</time></trkpt><trkpt lat="44.7864033" lon="9.6466783"><ele>686.3333333333333</ele><time>2026-05-01T08:25:43.864Z</time></trkpt><trkpt lat="44.786325" lon="9.6466533"><ele>686.1666666666666</ele><time>2026-05-01T08:25:44.864Z</time></trkpt><trkpt lat="44.7862533" lon="9.6466267"><ele>686.0</ele><time>2026-05-01T08:25:45.864Z</time></trkpt><trkpt lat="44.786175" lon="9.6466017"><ele>686.0</ele><time>2026-05-01T08:25:46.864Z</time></trkpt><trkpt lat="44.7861017" lon="9.6465683"><ele>686.0</ele><time>2026-05-01T08:25:47.864Z</time></trkpt><trkpt lat="44.786015" lon="9.64654"><ele>686.0</ele><time>2026-05-01T08:25:48.864Z</time></trkpt><trkpt lat="44.7859233" lon="9.6465167"><ele>686.0</ele><time>2026-05-01T08:25:49.865Z</time></trkpt><trkpt lat="44.7858217" lon="9.6464883"><ele>686.0</ele><time>2026-05-01T08:25:50.864Z</time></trkpt><trkpt lat="44.7857217" lon="9.64646"><ele>685.0</ele><time>2026-05-01T08:25:51.864Z</time></trkpt><trkpt lat="44.7856317" lon="9.6464517"><ele>684.0</ele><time>2026-05-01T08:25:52.864Z</time></trkpt><trkpt lat="44.7855267" lon="9.6464433"><ele>683.0</ele><time>2026-05-01T08:25:53.864Z</time></trkpt><trkpt lat="44.785415" lon="9.6464433"><ele>682.0</ele><time>2026-05-01T08:25:54.864Z</time></trkpt><trkpt lat="44.7853083" lon="9.64644"><ele>681.0</ele><time>2026-05-01T08:25:55.864Z</time></trkpt><trkpt lat="44.7852283" lon="9.6464217"><ele>681.5</ele><time>2026-05-01T08:25:56.864Z</time></trkpt><trkpt lat="44.7851533" lon="9.6463983"><ele>682.0</ele><time>2026-05-01T08:25:57.864Z</time></trkpt><trkpt lat="44.78509" lon="9.6463817"><ele>682.5</ele><time>2026-05-01T08:25:58.864Z</time></trkpt><trkpt lat="44.7849917" lon="9.646305"><ele>683.0</ele><time>2026-05-01T08:26:00.864Z</time></trkpt><trkpt lat="44.784935" lon="9.6462467"><ele>683.5</ele><time>2026-05-01T08:26:01.864Z</time></trkpt><trkpt lat="44.7848883" lon="9.6461833"><ele>684.0</ele><time>2026-05-01T08:26:02.864Z</time></trkpt><trkpt lat="44.7848233" lon="9.6460817"><ele>685.1666666666666</ele><time>2026-05-01T08:26:04.864Z</time></trkpt><trkpt lat="44.7847583" lon="9.6460267"><ele>686.3333333333334</ele><time>2026-05-01T08:26:08.864Z</time></trkpt><trkpt lat="44.7846733" lon="9.6459083"><ele>687.5</ele><time>2026-05-01T08:26:10.864Z</time></trkpt><trkpt lat="44.7846183" lon="9.6458417"><ele>688.6666666666667</ele><time>2026-05-01T08:26:11.864Z</time></trkpt><trkpt lat="44.7845617" lon="9.6457783"><ele>689.8333333333334</ele><time>2026-05-01T08:26:12.864Z</time></trkpt><trkpt lat="44.7845033" lon="9.645715"><ele>691.0</ele><time>2026-05-01T08:26:13.864Z</time></trkpt><trkpt lat="44.7844367" lon="9.6456383"><ele>690.9999999999999</ele><time>2026-05-01T08:26:14.864Z</time></trkpt><trkpt lat="44.784375" lon="9.64556"><ele>691.0</ele><time>2026-05-01T08:26:15.864Z</time></trkpt><trkpt lat="44.784315" lon="9.6454917"><ele>691.0</ele><time>2026-05-01T08:26:16.864Z</time></trkpt><trkpt lat="44.78426" lon="9.645435"><ele>691.0</ele><time>2026-05-01T08:26:17.864Z</time></trkpt><trkpt lat="44.7841967" lon="9.64539"><ele>691.0</ele><time>2026-05-01T08:26:18.864Z</time></trkpt><trkpt lat="44.7841367" lon="9.645345"><ele>690.9999999999999</ele><time>2026-05-01T08:26:19.864Z</time></trkpt><trkpt lat="44.7840767" lon="9.6452883"><ele>691.0</ele><time>2026-05-01T08:26:20.864Z</time></trkpt><trkpt lat="44.784015" lon="9.6452367"><ele>692.1999999999999</ele><time>2026-05-01T08:26:21.864Z</time></trkpt><trkpt lat="44.78395" lon="9.645195"><ele>693.4</ele><time>2026-05-01T08:26:22.864Z</time></trkpt><trkpt lat="44.78388" lon="9.6451683"><ele>694.6</ele><time>2026-05-01T08:26:23.864Z</time></trkpt><trkpt lat="44.7838067" lon="9.6451417"><ele>695.8</ele><time>2026-05-01T08:26:24.865Z</time></trkpt><trkpt lat="44.7836683" lon="9.64511"><ele>697.0</ele><time>2026-05-01T08:26:26.864Z</time></trkpt><trkpt lat="44.783575" lon="9.6450983"><ele>697.4000000000001</ele><time>2026-05-01T08:26:27.864Z</time></trkpt><trkpt lat="44.7834667" lon="9.6450667"><ele>697.8000000000001</ele><time>2026-05-01T08:26:28.864Z</time></trkpt><trkpt lat="44.7833683" lon="9.6450517"><ele>698.2</ele><time>2026-05-01T08:26:29.864Z</time></trkpt><trkpt lat="44.78327" lon="9.645055"><ele>698.6</ele><time>2026-05-01T08:26:30.864Z</time></trkpt><trkpt lat="44.7831833" lon="9.6450817"><ele>699.0</ele><time>2026-05-01T08:26:31.864Z</time></trkpt><trkpt lat="44.78309" lon="9.64514"><ele>699.0</ele><time>2026-05-01T08:26:32.864Z</time></trkpt><trkpt lat="44.7829917" lon="9.6452233"><ele>699.0</ele><time>2026-05-01T08:26:33.864Z</time></trkpt><trkpt lat="44.7829117" lon="9.64529"><ele>699.0</ele><time>2026-05-01T08:26:34.865Z</time></trkpt><trkpt lat="44.7828383" lon="9.6453433"><ele>699.0</ele><time>2026-05-01T08:26:35.864Z</time></trkpt><trkpt lat="44.782775" lon="9.6454017"><ele>699.0</ele><time>2026-05-01T08:26:36.864Z</time></trkpt><trkpt lat="44.7827183" lon="9.6454583"><ele>699.0</ele><time>2026-05-01T08:26:37.864Z</time></trkpt><trkpt lat="44.7826667" lon="9.6455233"><ele>700.5</ele><time>2026-05-01T08:26:38.864Z</time></trkpt><trkpt lat="44.7826117" lon="9.6455817"><ele>702.0</ele><time>2026-05-01T08:26:39.864Z</time></trkpt><trkpt lat="44.7825533" lon="9.6456333"><ele>703.5</ele><time>2026-05-01T08:26:40.864Z</time></trkpt><trkpt lat="44.78243" lon="9.6456783"><ele>705.0</ele><time>2026-05-01T08:26:42.864Z</time></trkpt><trkpt lat="44.7823617" lon="9.6457"><ele>706.5</ele><time>2026-05-01T08:26:43.864Z</time></trkpt><trkpt lat="44.7822933" lon="9.64573"><ele>708.0</ele><time>2026-05-01T08:26:44.864Z</time></trkpt><trkpt lat="44.7822283" lon="9.6457767"><ele>708.0</ele><time>2026-05-01T08:26:45.864Z</time></trkpt><trkpt lat="44.7821617" lon="9.64585"><ele>708.0</ele><time>2026-05-01T08:26:46.864Z</time></trkpt><trkpt lat="44.7820967" lon="9.6459267"><ele>708.0</ele><time>2026-05-01T08:26:47.864Z</time></trkpt><trkpt lat="44.7820367" lon="9.6459917"><ele>708.0</ele><time>2026-05-01T08:26:48.865Z</time></trkpt><trkpt lat="44.78197" lon="9.6460367"><ele>708.0</ele><time>2026-05-01T08:26:49.864Z</time></trkpt><trkpt lat="44.7819083" lon="9.6460583"><ele>708.0</ele><time>2026-05-01T08:26:50.864Z</time></trkpt><trkpt lat="44.7818317" lon="9.6460767"><ele>709.1666666666666</ele><time>2026-05-01T08:26:51.864Z</time></trkpt><trkpt lat="44.7817533" lon="9.6461"><ele>710.3333333333334</ele><time>2026-05-01T08:26:52.864Z</time></trkpt><trkpt lat="44.781675" lon="9.6461267"><ele>711.5</ele><time>2026-05-01T08:26:53.864Z</time></trkpt><trkpt lat="44.78161" lon="9.6461733"><ele>712.6666666666667</ele><time>2026-05-01T08:26:54.864Z</time></trkpt><trkpt lat="44.7815517" lon="9.6462283"><ele>713.8333333333334</ele><time>2026-05-01T08:26:55.865Z</time></trkpt><trkpt lat="44.7814717" lon="9.6463633"><ele>715.0</ele><time>2026-05-01T08:26:57.864Z</time></trkpt><trkpt lat="44.7814317" lon="9.6464467"><ele>715.0</ele><time>2026-05-01T08:26:58.864Z</time></trkpt><trkpt lat="44.7813933" lon="9.6465217"><ele>715.0</ele><time>2026-05-01T08:26:59.864Z</time></trkpt><trkpt lat="44.7813183" lon="9.64661"><ele>715.0</ele><time>2026-05-01T08:27:01.864Z</time></trkpt><trkpt lat="44.7812567" lon="9.64663"><ele>715.0</ele><time>2026-05-01T08:27:03.864Z</time></trkpt><trkpt lat="44.7811683" lon="9.6466433"><ele>715.0</ele><time>2026-05-01T08:27:06.864Z</time></trkpt><trkpt lat="44.781105" lon="9.6466517"><ele>715.0</ele><time>2026-05-01T08:27:08.864Z</time></trkpt><trkpt lat="44.7809117" lon="9.6466583"><ele>716.2</ele><time>2026-05-01T08:28:32.864Z</time></trkpt><trkpt lat="44.78082" lon="9.646685"><ele>717.4</ele><time>2026-05-01T08:28:33.864Z</time></trkpt><trkpt lat="44.780725" lon="9.6467183"><ele>718.5999999999999</ele><time>2026-05-01T08:28:34.865Z</time></trkpt><trkpt lat="44.780635" lon="9.6467533"><ele>719.8</ele><time>2026-05-01T08:28:35.865Z</time></trkpt><trkpt lat="44.7805417" lon="9.6467817"><ele>721.0</ele><time>2026-05-01T08:28:36.864Z</time></trkpt><trkpt lat="44.7804483" lon="9.6467933"><ele>721.0</ele><time>2026-05-01T08:28:37.864Z</time></trkpt><trkpt lat="44.7803533" lon="9.6468033"><ele>721.0</ele><time>2026-05-01T08:28:38.864Z</time></trkpt><trkpt lat="44.7802683" lon="9.6468183"><ele>721.0</ele><time>2026-05-01T08:28:39.864Z</time></trkpt><trkpt lat="44.780185" lon="9.646835"><ele>721.0</ele><time>2026-05-01T08:28:40.864Z</time></trkpt><trkpt lat="44.7801033" lon="9.646885"><ele>721.0</ele><time>2026-05-01T08:28:41.864Z</time></trkpt><trkpt lat="44.7800183" lon="9.64695"><ele>719.75</ele><time>2026-05-01T08:28:42.864Z</time></trkpt><trkpt lat="44.7799383" lon="9.6470533"><ele>718.5</ele><time>2026-05-01T08:28:43.864Z</time></trkpt><trkpt lat="44.779845" lon="9.6471767"><ele>717.25</ele><time>2026-05-01T08:28:44.864Z</time></trkpt><trkpt lat="44.7797567" lon="9.6472883"><ele>716.0</ele><time>2026-05-01T08:28:45.864Z</time></trkpt><trkpt lat="44.7796733" lon="9.647385"><ele>716.0</ele><time>2026-05-01T08:28:46.864Z</time></trkpt><trkpt lat="44.779595" lon="9.64745"><ele>716.0</ele><time>2026-05-01T08:28:47.864Z</time></trkpt><trkpt lat="44.779515" lon="9.6474917"><ele>716.0</ele><time>2026-05-01T08:28:48.864Z</time></trkpt><trkpt lat="44.7794267" lon="9.6475317"><ele>716.0</ele><time>2026-05-01T08:28:49.864Z</time></trkpt><trkpt lat="44.779345" lon="9.64758"><ele>716.0</ele><time>2026-05-01T08:28:50.864Z</time></trkpt><trkpt lat="44.7792633" lon="9.647625"><ele>716.0</ele><time>2026-05-01T08:28:51.864Z</time></trkpt><trkpt lat="44.779185" lon="9.6476567"><ele>716.2857142857143</ele><time>2026-05-01T08:28:52.864Z</time></trkpt><trkpt lat="44.77911" lon="9.6477067"><ele>716.5714285714286</ele><time>2026-05-01T08:28:53.864Z</time></trkpt><trkpt lat="44.7790433" lon="9.647755"><ele>716.8571428571429</ele><time>2026-05-01T08:28:54.864Z</time></trkpt><trkpt lat="44.7789833" lon="9.6477967"><ele>717.1428571428571</ele><time>2026-05-01T08:28:55.864Z</time></trkpt><trkpt lat="44.7789183" lon="9.647825"><ele>717.4285714285714</ele><time>2026-05-01T08:28:56.864Z</time></trkpt><trkpt lat="44.778845" lon="9.64784"><ele>717.7142857142858</ele><time>2026-05-01T08:28:57.864Z</time></trkpt><trkpt lat="44.7787733" lon="9.6478583"><ele>718.0</ele><time>2026-05-01T08:28:58.864Z</time></trkpt><trkpt lat="44.77871" lon="9.6478733"><ele>718.0</ele><time>2026-05-01T08:28:59.864Z</time></trkpt><trkpt lat="44.778635" lon="9.64789"><ele>718.0</ele><time>2026-05-01T08:29:00.864Z</time></trkpt><trkpt lat="44.77854" lon="9.6479167"><ele>718.0</ele><time>2026-05-01T08:29:01.864Z</time></trkpt><trkpt lat="44.7784467" lon="9.64796"><ele>718.0</ele><time>2026-05-01T08:29:02.864Z</time></trkpt><trkpt lat="44.7783533" lon="9.6480333"><ele>718.0</ele><time>2026-05-01T08:29:04.864Z</time></trkpt><trkpt lat="44.7782717" lon="9.64812"><ele>719.0</ele><time>2026-05-01T08:29:06.864Z</time></trkpt><trkpt lat="44.7781833" lon="9.6482333"><ele>720.0</ele><time>2026-05-01T08:29:08.864Z</time></trkpt><trkpt lat="44.778085" lon="9.64827"><ele>721.0</ele><time>2026-05-01T08:29:10.864Z</time></trkpt><trkpt lat="44.7779667" lon="9.6482767"><ele>722.0</ele><time>2026-05-01T08:29:12.864Z</time></trkpt><trkpt lat="44.7778983" lon="9.6482683"><ele>723.0</ele><time>2026-05-01T08:29:13.864Z</time></trkpt><trkpt lat="44.7778317" lon="9.6482517"><ele>723.0</ele><time>2026-05-01T08:29:14.864Z</time></trkpt><trkpt lat="44.7777067" lon="9.6482567"><ele>723.0</ele><time>2026-05-01T08:29:16.864Z</time></trkpt><trkpt lat="44.7776317" lon="9.6482767"><ele>723.0</ele><time>2026-05-01T08:29:17.864Z</time></trkpt><trkpt lat="44.7775283" lon="9.6483067"><ele>723.0</ele><time>2026-05-01T08:29:19.864Z</time></trkpt><trkpt lat="44.7774567" lon="9.6483233"><ele>723.0</ele><time>2026-05-01T08:29:21.864Z</time></trkpt><trkpt lat="44.7773733" lon="9.64831"><ele>722.3333333333334</ele><time>2026-05-01T08:29:23.864Z</time></trkpt><trkpt lat="44.7772817" lon="9.6483067"><ele>721.6666666666666</ele><time>2026-05-01T08:29:25.864Z</time></trkpt><trkpt lat="44.777185" lon="9.6482667"><ele>721.0</ele><time>2026-05-01T08:29:27.864Z</time></trkpt><trkpt lat="44.77712" lon="9.648235"><ele>720.3333333333333</ele><time>2026-05-01T08:29:28.864Z</time></trkpt><trkpt lat="44.7770583" lon="9.64821"><ele>719.6666666666666</ele><time>2026-05-01T08:29:29.864Z</time></trkpt><trkpt lat="44.7769933" lon="9.6482133"><ele>719.0</ele><time>2026-05-01T08:29:30.864Z</time></trkpt><trkpt lat="44.7769133" lon="9.648225"><ele>719.4000000000001</ele><time>2026-05-01T08:29:31.864Z</time></trkpt><trkpt lat="44.7768267" lon="9.6482217"><ele>719.8</ele><time>2026-05-01T08:29:32.864Z</time></trkpt><trkpt lat="44.7767467" lon="9.6482183"><ele>720.2</ele><time>2026-05-01T08:29:33.864Z</time></trkpt><trkpt lat="44.776635" lon="9.6481967"><ele>720.5999999999999</ele><time>2026-05-01T08:29:35.864Z</time></trkpt><trkpt lat="44.7765367" lon="9.6482017"><ele>721.0</ele><time>2026-05-01T08:29:37.864Z</time></trkpt><trkpt lat="44.7764217" lon="9.64827"><ele>721.0</ele><time>2026-05-01T08:29:39.864Z</time></trkpt><trkpt lat="44.7763533" lon="9.6483167"><ele>721.0</ele><time>2026-05-01T08:29:40.864Z</time></trkpt><trkpt lat="44.7762883" lon="9.6483617"><ele>721.0</ele><time>2026-05-01T08:29:41.864Z</time></trkpt><trkpt lat="44.7762133" lon="9.6483967"><ele>721.0</ele><time>2026-05-01T08:29:42.864Z</time></trkpt><trkpt lat="44.77614" lon="9.64844"><ele>721.0</ele><time>2026-05-01T08:29:43.864Z</time></trkpt><trkpt lat="44.77607" lon="9.648475"><ele>721.0</ele><time>2026-05-01T08:29:44.864Z</time></trkpt><trkpt lat="44.776005" lon="9.6485017"><ele>721.0</ele><time>2026-05-01T08:29:45.864Z</time></trkpt><trkpt lat="44.7759" lon="9.648555"><ele>719.8</ele><time>2026-05-01T08:29:47.864Z</time></trkpt><trkpt lat="44.7757817" lon="9.6486483"><ele>718.5999999999999</ele><time>2026-05-01T08:29:49.864Z</time></trkpt><trkpt lat="44.7757017" lon="9.6486967"><ele>717.4</ele><time>2026-05-01T08:29:50.864Z</time></trkpt><trkpt lat="44.7756083" lon="9.64872"><ele>716.2</ele><time>2026-05-01T08:29:51.864Z</time></trkpt><trkpt lat="44.7755117" lon="9.6487233"><ele>715.0</ele><time>2026-05-01T08:29:52.864Z</time></trkpt><trkpt lat="44.7754183" lon="9.64871"><ele>715.0</ele><time>2026-05-01T08:29:53.864Z</time></trkpt><trkpt lat="44.77533" lon="9.6487"><ele>715.0</ele><time>2026-05-01T08:29:54.864Z</time></trkpt><trkpt lat="44.7752367" lon="9.6486833"><ele>715.0</ele><time>2026-05-01T08:29:55.864Z</time></trkpt><trkpt lat="44.7751483" lon="9.6486733"><ele>715.0</ele><time>2026-05-01T08:29:56.864Z</time></trkpt><trkpt lat="44.7750717" lon="9.6486617"><ele>715.0</ele><time>2026-05-01T08:29:57.864Z</time></trkpt><trkpt lat="44.77499" lon="9.64865"><ele>715.0</ele><time>2026-05-01T08:29:58.864Z</time></trkpt><trkpt lat="44.774905" lon="9.648635"><ele>714.3333333333334</ele><time>2026-05-01T08:29:59.864Z</time></trkpt><trkpt lat="44.77482" lon="9.6486133"><ele>713.6666666666667</ele><time>2026-05-01T08:30:00.864Z</time></trkpt><trkpt lat="44.7747317" lon="9.6485833"><ele>713.0</ele><time>2026-05-01T08:30:01.864Z</time></trkpt><trkpt lat="44.77465" lon="9.648565"><ele>712.3333333333334</ele><time>2026-05-01T08:30:02.864Z</time></trkpt><trkpt lat="44.77457" lon="9.648545"><ele>711.6666666666666</ele><time>2026-05-01T08:30:03.864Z</time></trkpt><trkpt lat="44.7744967" lon="9.6485133"><ele>711.0</ele><time>2026-05-01T08:30:04.864Z</time></trkpt><trkpt lat="44.7744233" lon="9.6484833"><ele>711.8333333333334</ele><time>2026-05-01T08:30:05.864Z</time></trkpt><trkpt lat="44.7743533" lon="9.6484417"><ele>712.6666666666666</ele><time>2026-05-01T08:30:06.864Z</time></trkpt><trkpt lat="44.7742783" lon="9.648405"><ele>713.5</ele><time>2026-05-01T08:30:07.864Z</time></trkpt><trkpt lat="44.774205" lon="9.648365"><ele>714.3333333333333</ele><time>2026-05-01T08:30:08.864Z</time></trkpt><trkpt lat="44.774125" lon="9.6483317"><ele>715.1666666666666</ele><time>2026-05-01T08:30:09.864Z</time></trkpt><trkpt lat="44.774045" lon="9.6483067"><ele>716.0</ele><time>2026-05-01T08:30:10.864Z</time></trkpt><trkpt lat="44.7739667" lon="9.648275"><ele>716.0</ele><time>2026-05-01T08:30:11.864Z</time></trkpt><trkpt lat="44.773885" lon="9.6482483"><ele>716.0</ele><time>2026-05-01T08:30:12.864Z</time></trkpt><trkpt lat="44.7737983" lon="9.6482117"><ele>716.0</ele><time>2026-05-01T08:30:13.864Z</time></trkpt><trkpt lat="44.7737083" lon="9.6481817"><ele>716.0</ele><time>2026-05-01T08:30:14.864Z</time></trkpt><trkpt lat="44.7736183" lon="9.64815"><ele>716.0</ele><time>2026-05-01T08:30:15.864Z</time></trkpt><trkpt lat="44.7735283" lon="9.6481183"><ele>716.5999999999999</ele><time>2026-05-01T08:30:16.864Z</time></trkpt><trkpt lat="44.7734317" lon="9.648085"><ele>717.2</ele><time>2026-05-01T08:30:17.864Z</time></trkpt><trkpt lat="44.7733317" lon="9.648055"><ele>717.8</ele><time>2026-05-01T08:30:18.864Z</time></trkpt><trkpt lat="44.7732317" lon="9.6480183"><ele>718.4000000000001</ele><time>2026-05-01T08:30:19.864Z</time></trkpt><trkpt lat="44.7731267" lon="9.6479867"><ele>719.0</ele><time>2026-05-01T08:30:20.864Z</time></trkpt><trkpt lat="44.77301" lon="9.6479533"><ele>719.0</ele><time>2026-05-01T08:30:21.864Z</time></trkpt><trkpt lat="44.77289" lon="9.6479233"><ele>719.0</ele><time>2026-05-01T08:30:22.865Z</time></trkpt><trkpt lat="44.7727867" lon="9.64789"><ele>719.0</ele><time>2026-05-01T08:30:23.864Z</time></trkpt><trkpt lat="44.7726917" lon="9.6478567"><ele>719.0</ele><time>2026-05-01T08:30:24.864Z</time></trkpt><trkpt lat="44.77261" lon="9.6478317"><ele>719.0</ele><time>2026-05-01T08:30:25.864Z</time></trkpt><trkpt lat="44.77254" lon="9.647805"><ele>719.8333333333333</ele><time>2026-05-01T08:30:26.864Z</time></trkpt><trkpt lat="44.772445" lon="9.6477217"><ele>720.6666666666666</ele><time>2026-05-01T08:30:28.864Z</time></trkpt><trkpt lat="44.7723967" lon="9.64762"><ele>721.5</ele><time>2026-05-01T08:30:30.864Z</time></trkpt><trkpt lat="44.7723067" lon="9.647575"><ele>722.3333333333334</ele><time>2026-05-01T08:30:33.864Z</time></trkpt><trkpt lat="44.7722417" lon="9.64761"><ele>723.1666666666667</ele><time>2026-05-01T08:30:36.864Z</time></trkpt><trkpt lat="44.772175" lon="9.6476433"><ele>724.0</ele><time>2026-05-01T08:30:39.864Z</time></trkpt><trkpt lat="44.772085" lon="9.6476567"><ele>724.0</ele><time>2026-05-01T08:30:42.864Z</time></trkpt><trkpt lat="44.7720183" lon="9.6476683"><ele>724.0</ele><time>2026-05-01T08:30:44.864Z</time></trkpt><trkpt lat="44.7719233" lon="9.6476433"><ele>724.0</ele><time>2026-05-01T08:30:46.864Z</time></trkpt><trkpt lat="44.7717583" lon="9.6476217"><ele>724.0</ele><time>2026-05-01T08:30:48.865Z</time></trkpt><trkpt lat="44.7716667" lon="9.647615"><ele>724.0</ele><time>2026-05-01T08:30:50.864Z</time></trkpt><trkpt lat="44.7715867" lon="9.647605"><ele>725.8571428571429</ele><time>2026-05-01T08:30:52.864Z</time></trkpt><trkpt lat="44.7715133" lon="9.647575"><ele>727.7142857142857</ele><time>2026-05-01T08:30:55.864Z</time></trkpt><trkpt lat="44.77144" lon="9.647545"><ele>729.5714285714287</ele><time>2026-05-01T08:30:59.864Z</time></trkpt><trkpt lat="44.771375" lon="9.6475317"><ele>731.4285714285714</ele><time>2026-05-01T08:31:02.864Z</time></trkpt><trkpt lat="44.7712967" lon="9.6475167"><ele>733.2857142857143</ele><time>2026-05-01T08:31:06.864Z</time></trkpt><trkpt lat="44.7712333" lon="9.6475017"><ele>735.1428571428572</ele><time>2026-05-01T08:31:10.864Z</time></trkpt><trkpt lat="44.7711617" lon="9.647485"><ele>737.0</ele><time>2026-05-01T08:31:13.864Z</time></trkpt><trkpt lat="44.77107" lon="9.64746"><ele>738.3333333333333</ele><time>2026-05-01T08:31:15.864Z</time></trkpt><trkpt lat="44.77101" lon="9.6474217"><ele>739.6666666666666</ele><time>2026-05-01T08:31:17.864Z</time></trkpt><trkpt lat="44.77093" lon="9.64738"><ele>741.0</ele><time>2026-05-01T08:31:20.864Z</time></trkpt><trkpt lat="44.7708642" lon="9.6473403"><ele>742.3333333333334</ele><time>2026-05-01T08:31:23.886Z</time></trkpt><trkpt lat="44.7707414" lon="9.6473469"><ele>743.6666666666667</ele><time>2026-05-01T08:31:25.905Z</time></trkpt><trkpt lat="44.7706682" lon="9.6473399"><ele>745.0</ele><time>2026-05-01T08:31:26.952Z</time></trkpt><trkpt lat="44.7705761" lon="9.6473429"><ele>745.0</ele><time>2026-05-01T08:31:28.924Z</time></trkpt><trkpt lat="44.770437" lon="9.6473479"><ele>745.0</ele><time>2026-05-01T08:31:30.895Z</time></trkpt><trkpt lat="44.7703268" lon="9.6473524"><ele>745.0</ele><time>2026-05-01T08:31:32.866Z</time></trkpt><trkpt lat="44.7702135" lon="9.6473797"><ele>745.0</ele><time>2026-05-01T08:31:34.926Z</time></trkpt><trkpt lat="44.7701041" lon="9.6473856"><ele>748.0</ele><time>2026-05-01T08:31:35.933Z</time></trkpt><trkpt lat="44.7700348" lon="9.6473717"><ele>751.0</ele><time>2026-05-01T08:31:36.919Z</time></trkpt><trkpt lat="44.7699524" lon="9.6473625"><ele>754.0</ele><time>2026-05-01T08:31:38.828Z</time></trkpt><trkpt lat="44.7698159" lon="9.6474336"><ele>757.0</ele><time>2026-05-01T08:31:40.864Z</time></trkpt><trkpt lat="44.7697233" lon="9.6474782"><ele>760.0</ele><time>2026-05-01T08:31:42.942Z</time></trkpt><trkpt lat="44.769647" lon="9.6475379"><ele>760.0</ele><time>2026-05-01T08:31:44.85Z</time></trkpt><trkpt lat="44.7695661" lon="9.6476003"><ele>760.0</ele><time>2026-05-01T08:31:46.907Z</time></trkpt><trkpt lat="44.7694964" lon="9.6476385"><ele>760.0</ele><time>2026-05-01T08:31:48.889Z</time></trkpt><trkpt lat="44.7694136" lon="9.647696"><ele>760.0</ele><time>2026-05-01T08:31:50.937Z</time></trkpt><trkpt lat="44.7693337" lon="9.6477399"><ele>760.0</ele><time>2026-05-01T08:31:52.909Z</time></trkpt><trkpt lat="44.76926" lon="9.6477788"><ele>760.0</ele><time>2026-05-01T08:31:54.88Z</time></trkpt><trkpt lat="44.7691496" lon="9.6478895"><ele>761.2</ele><time>2026-05-01T08:31:55.866Z</time></trkpt><trkpt lat="44.7690676" lon="9.647963"><ele>762.4</ele><time>2026-05-01T08:31:56.789Z</time></trkpt><trkpt lat="44.7690066" lon="9.6479897"><ele>763.5999999999999</ele><time>2026-05-01T08:31:57.845Z</time></trkpt><trkpt lat="44.7689089" lon="9.6480314"><ele>764.8</ele><time>2026-05-01T08:31:59.726Z</time></trkpt><trkpt lat="44.7688048" lon="9.6480946"><ele>766.0</ele><time>2026-05-01T08:32:01.889Z</time></trkpt><trkpt lat="44.7687022" lon="9.6481468"><ele>766.0</ele><time>2026-05-01T08:32:03.864Z</time></trkpt><trkpt lat="44.7685997" lon="9.6481859"><ele>766.0</ele><time>2026-05-01T08:32:05.942Z</time></trkpt><trkpt lat="44.7685251" lon="9.6482269"><ele>766.0</ele><time>2026-05-01T08:32:06.864Z</time></trkpt><trkpt lat="44.7684489" lon="9.6482649"><ele>766.0</ele><time>2026-05-01T08:32:07.864Z</time></trkpt><trkpt lat="44.7683753" lon="9.648287"><ele>766.0</ele><time>2026-05-01T08:32:08.864Z</time></trkpt><trkpt lat="44.768285" lon="9.6482967"><ele>766.0</ele><time>2026-05-01T08:32:09.865Z</time></trkpt><trkpt lat="44.7682083" lon="9.6483083"><ele>768.1428571428571</ele><time>2026-05-01T08:32:10.864Z</time></trkpt><trkpt lat="44.7681367" lon="9.6483133"><ele>770.2857142857142</ele><time>2026-05-01T08:32:11.864Z</time></trkpt><trkpt lat="44.768065" lon="9.6483117"><ele>772.4285714285714</ele><time>2026-05-01T08:32:12.864Z</time></trkpt><trkpt lat="44.7680017" lon="9.6482983"><ele>774.5714285714286</ele><time>2026-05-01T08:32:13.864Z</time></trkpt><trkpt lat="44.7679283" lon="9.64829"><ele>776.7142857142858</ele><time>2026-05-01T08:32:14.864Z</time></trkpt><trkpt lat="44.7678633" lon="9.6482867"><ele>778.8571428571429</ele><time>2026-05-01T08:32:15.864Z</time></trkpt><trkpt lat="44.767795" lon="9.6482917"><ele>781.0</ele><time>2026-05-01T08:32:16.864Z</time></trkpt><trkpt lat="44.7676967" lon="9.648315"><ele>783.8</ele><time>2026-05-01T08:32:18.864Z</time></trkpt><trkpt lat="44.7676167" lon="9.6483317"><ele>786.5999999999999</ele><time>2026-05-01T08:32:20.864Z</time></trkpt><trkpt lat="44.7674733" lon="9.64836"><ele>789.4</ele><time>2026-05-01T08:32:31.864Z</time></trkpt><trkpt lat="44.7674133" lon="9.6483883"><ele>792.2</ele><time>2026-05-01T08:32:32.864Z</time></trkpt><trkpt lat="44.7673317" lon="9.6484317"><ele>795.0</ele><time>2026-05-01T08:32:33.865Z</time></trkpt><trkpt lat="44.7672317" lon="9.6484817"><ele>795.0</ele><time>2026-05-01T08:32:34.865Z</time></trkpt><trkpt lat="44.76713" lon="9.6485167"><ele>795.0</ele><time>2026-05-01T08:32:35.864Z</time></trkpt><trkpt lat="44.767035" lon="9.64854"><ele>795.0</ele><time>2026-05-01T08:32:36.864Z</time></trkpt><trkpt lat="44.7669333" lon="9.6485467"><ele>795.0</ele><time>2026-05-01T08:32:37.864Z</time></trkpt><trkpt lat="44.76685" lon="9.6485267"><ele>795.0</ele><time>2026-05-01T08:32:38.864Z</time></trkpt><trkpt lat="44.76679" lon="9.6484833"><ele>797.2</ele><time>2026-05-01T08:32:39.864Z</time></trkpt><trkpt lat="44.76673" lon="9.64845"><ele>799.4</ele><time>2026-05-01T08:32:40.864Z</time></trkpt><trkpt lat="44.7666383" lon="9.6484133"><ele>801.5999999999999</ele><time>2026-05-01T08:32:42.864Z</time></trkpt><trkpt lat="44.766535" lon="9.6483483"><ele>803.8</ele><time>2026-05-01T08:32:44.864Z</time></trkpt><trkpt lat="44.7664817" lon="9.6482917"><ele>806.0</ele><time>2026-05-01T08:32:45.864Z</time></trkpt><trkpt lat="44.766385" lon="9.6482067"><ele>806.0</ele><time>2026-05-01T08:32:47.864Z</time></trkpt><trkpt lat="44.7662783" lon="9.648135"><ele>806.0</ele><time>2026-05-01T08:32:49.865Z</time></trkpt><trkpt lat="44.7661633" lon="9.648095"><ele>806.0</ele><time>2026-05-01T08:32:51.864Z</time></trkpt><trkpt lat="44.7661" lon="9.6480883"><ele>806.0</ele><time>2026-05-01T08:32:53.864Z</time></trkpt><trkpt lat="44.76599" lon="9.6481083"><ele>806.0</ele><time>2026-05-01T08:32:57.864Z</time></trkpt><trkpt lat="44.7659117" lon="9.648095"><ele>807.0000000000001</ele><time>2026-05-01T08:32:58.864Z</time></trkpt><trkpt lat="44.7658017" lon="9.648075"><ele>808.0</ele><time>2026-05-01T08:33:00.864Z</time></trkpt><trkpt lat="44.76569" lon="9.6480467"><ele>809.0</ele><time>2026-05-01T08:33:02.864Z</time></trkpt><trkpt lat="44.765625" lon="9.6480367"><ele>810.0</ele><time>2026-05-01T08:33:03.864Z</time></trkpt><trkpt lat="44.76556" lon="9.6480233"><ele>811.0000000000001</ele><time>2026-05-01T08:33:04.864Z</time></trkpt><trkpt lat="44.7654933" lon="9.6480083"><ele>812.0</ele><time>2026-05-01T08:33:05.864Z</time></trkpt><trkpt lat="44.7654217" lon="9.6479833"><ele>812.0</ele><time>2026-05-01T08:33:06.864Z</time></trkpt><trkpt lat="44.7653033" lon="9.647925"><ele>812.0</ele><time>2026-05-01T08:33:08.864Z</time></trkpt><trkpt lat="44.7651817" lon="9.6478517"><ele>812.0</ele><time>2026-05-01T08:33:10.864Z</time></trkpt><trkpt lat="44.765085" lon="9.64776"><ele>812.0</ele><time>2026-05-01T08:33:12.864Z</time></trkpt><trkpt lat="44.7649733" lon="9.6477"><ele>816.5000000000001</ele><time>2026-05-01T08:33:14.864Z</time></trkpt><trkpt lat="44.7649017" lon="9.6476783"><ele>821.0</ele><time>2026-05-01T08:33:15.864Z</time></trkpt><trkpt lat="44.7648367" lon="9.6476467"><ele>825.5</ele><time>2026-05-01T08:33:16.864Z</time></trkpt><trkpt lat="44.7647633" lon="9.647605"><ele>830.0</ele><time>2026-05-01T08:33:17.864Z</time></trkpt><trkpt lat="44.764695" lon="9.6475517"><ele>834.5000000000001</ele><time>2026-05-01T08:33:18.864Z</time></trkpt><trkpt lat="44.76462" lon="9.6474917"><ele>839.0</ele><time>2026-05-01T08:33:19.864Z</time></trkpt><trkpt lat="44.7645417" lon="9.6474183"><ele>839.0</ele><time>2026-05-01T08:33:20.864Z</time></trkpt><trkpt lat="44.7644617" lon="9.6473367"><ele>839.0</ele><time>2026-05-01T08:33:21.864Z</time></trkpt><trkpt lat="44.7643833" lon="9.6472433"><ele>839.0</ele><time>2026-05-01T08:33:22.864Z</time></trkpt><trkpt lat="44.764315" lon="9.6471583"><ele>839.0</ele><time>2026-05-01T08:33:23.864Z</time></trkpt><trkpt lat="44.76425" lon="9.647085"><ele>839.0</ele><time>2026-05-01T08:33:24.864Z</time></trkpt><trkpt lat="44.7641817" lon="9.6470217"><ele>841.25</ele><time>2026-05-01T08:33:25.864Z</time></trkpt><trkpt lat="44.76411" lon="9.6469567"><ele>843.5</ele><time>2026-05-01T08:33:26.864Z</time></trkpt><trkpt lat="44.7639633" lon="9.6470183"><ele>845.75</ele><time>2026-05-01T08:33:30.865Z</time></trkpt><trkpt lat="44.7638217" lon="9.64705"><ele>848.0</ele><time>2026-05-01T08:33:31.864Z</time></trkpt><trkpt lat="44.7636967" lon="9.6470733"><ele>848.0000000000001</ele><time>2026-05-01T08:33:32.864Z</time></trkpt><trkpt lat="44.7635983" lon="9.6471"><ele>848.0</ele><time>2026-05-01T08:33:33.864Z</time></trkpt><trkpt lat="44.76351" lon="9.6471217"><ele>848.0</ele><time>2026-05-01T08:33:34.864Z</time></trkpt><trkpt lat="44.763435" lon="9.6471317"><ele>848.0</ele><time>2026-05-01T08:33:35.864Z</time></trkpt><trkpt lat="44.7633617" lon="9.6471267"><ele>848.0000000000001</ele><time>2026-05-01T08:33:36.864Z</time></trkpt><trkpt lat="44.7632983" lon="9.647105"><ele>848.0</ele><time>2026-05-01T08:33:37.864Z</time></trkpt><trkpt lat="44.7631817" lon="9.6470583"><ele>849.5000000000001</ele><time>2026-05-01T08:33:39.865Z</time></trkpt><trkpt lat="44.7630717" lon="9.64701"><ele>851.0</ele><time>2026-05-01T08:33:41.864Z</time></trkpt><trkpt lat="44.762985" lon="9.6469667"><ele>852.5</ele><time>2026-05-01T08:33:43.864Z</time></trkpt><trkpt lat="44.762915" lon="9.6469167"><ele>854.0</ele><time>2026-05-01T08:33:45.864Z</time></trkpt><trkpt lat="44.7628517" lon="9.6468883"><ele>855.5000000000001</ele><time>2026-05-01T08:33:47.864Z</time></trkpt><trkpt lat="44.7627617" lon="9.6468633"><ele>857.0</ele><time>2026-05-01T08:33:50.864Z</time></trkpt><trkpt lat="44.7626683" lon="9.646855"><ele>861.5000000000001</ele><time>2026-05-01T08:33:52.864Z</time></trkpt><trkpt lat="44.7625917" lon="9.646855"><ele>866.0</ele><time>2026-05-01T08:33:54.864Z</time></trkpt><trkpt lat="44.7624833" lon="9.646835"><ele>870.5</ele><time>2026-05-01T08:33:56.864Z</time></trkpt><trkpt lat="44.7623867" lon="9.646825"><ele>875.0</ele><time>2026-05-01T08:33:58.864Z</time></trkpt><trkpt lat="44.7623017" lon="9.646815"><ele>879.5000000000001</ele><time>2026-05-01T08:34:00.864Z</time></trkpt><trkpt lat="44.7622317" lon="9.6467967"><ele>884.0</ele><time>2026-05-01T08:34:02.864Z</time></trkpt><trkpt lat="44.7621483" lon="9.646765"><ele>884.0000000000001</ele><time>2026-05-01T08:34:05.865Z</time></trkpt><trkpt lat="44.762065" lon="9.64671"><ele>884.0</ele><time>2026-05-01T08:34:08.864Z</time></trkpt><trkpt lat="44.7620017" lon="9.6466467"><ele>884.0</ele><time>2026-05-01T08:34:10.864Z</time></trkpt><trkpt lat="44.7619333" lon="9.6466"><ele>884.0</ele><time>2026-05-01T08:34:13.865Z</time></trkpt><trkpt lat="44.76183" lon="9.6466367"><ele>884.0000000000001</ele><time>2026-05-01T08:34:15.864Z</time></trkpt><trkpt lat="44.7617617" lon="9.6466717"><ele>884.0</ele><time>2026-05-01T08:34:16.864Z</time></trkpt><trkpt lat="44.761685" lon="9.6467133"><ele>885.0</ele><time>2026-05-01T08:34:17.864Z</time></trkpt><trkpt lat="44.761575" lon="9.6467783"><ele>886.0</ele><time>2026-05-01T08:34:19.864Z</time></trkpt><trkpt lat="44.7614917" lon="9.6468317"><ele>887.0</ele><time>2026-05-01T08:34:20.864Z</time></trkpt><trkpt lat="44.76136" lon="9.6469067"><ele>888.0</ele><time>2026-05-01T08:34:21.864Z</time></trkpt><trkpt lat="44.761215" lon="9.646985"><ele>888.0</ele><time>2026-05-01T08:34:22.864Z</time></trkpt><trkpt lat="44.7610867" lon="9.6470533"><ele>888.0</ele><time>2026-05-01T08:34:23.864Z</time></trkpt><trkpt lat="44.7609667" lon="9.647105"><ele>888.0</ele><time>2026-05-01T08:34:24.864Z</time></trkpt><trkpt lat="44.7608417" lon="9.647155"><ele>888.0</ele><time>2026-05-01T08:34:25.864Z</time></trkpt><trkpt lat="44.7607367" lon="9.6472083"><ele>890.2</ele><time>2026-05-01T08:34:26.864Z</time></trkpt><trkpt lat="44.760645" lon="9.6472667"><ele>892.4</ele><time>2026-05-01T08:34:27.864Z</time></trkpt><trkpt lat="44.7605583" lon="9.6473317"><ele>894.6000000000001</ele><time>2026-05-01T08:34:28.864Z</time></trkpt><trkpt lat="44.7604767" lon="9.6474"><ele>896.8000000000001</ele><time>2026-05-01T08:34:29.864Z</time></trkpt><trkpt lat="44.760375" lon="9.6474917"><ele>899.0</ele><time>2026-05-01T08:34:30.864Z</time></trkpt><trkpt lat="44.7602833" lon="9.6475933"><ele>899.8000000000001</ele><time>2026-05-01T08:34:31.864Z</time></trkpt><trkpt lat="44.7601967" lon="9.6476867"><ele>900.6000000000001</ele><time>2026-05-01T08:34:32.864Z</time></trkpt><trkpt lat="44.7601183" lon="9.6477717"><ele>901.4</ele><time>2026-05-01T08:34:33.865Z</time></trkpt><trkpt lat="44.7600467" lon="9.6478483"><ele>902.2</ele><time>2026-05-01T08:34:34.864Z</time></trkpt><trkpt lat="44.7599733" lon="9.6479267"><ele>903.0</ele><time>2026-05-01T08:34:35.864Z</time></trkpt><trkpt lat="44.7599" lon="9.648005"><ele>904.1666666666666</ele><time>2026-05-01T08:34:36.864Z</time></trkpt><trkpt lat="44.75983" lon="9.6480667"><ele>905.3333333333333</ele><time>2026-05-01T08:34:37.864Z</time></trkpt><trkpt lat="44.7597167" lon="9.6481117"><ele>906.5</ele><time>2026-05-01T08:34:39.865Z</time></trkpt><trkpt lat="44.7596517" lon="9.6481217"><ele>907.6666666666666</ele><time>2026-05-01T08:34:40.865Z</time></trkpt><trkpt lat="44.7595617" lon="9.64814"><ele>908.8333333333333</ele><time>2026-05-01T08:34:41.864Z</time></trkpt><trkpt lat="44.75947" lon="9.6481583"><ele>910.0</ele><time>2026-05-01T08:34:42.864Z</time></trkpt><trkpt lat="44.7593717" lon="9.648195"><ele>911.2</ele><time>2026-05-01T08:34:43.864Z</time></trkpt><trkpt lat="44.75928" lon="9.64824"><ele>912.4</ele><time>2026-05-01T08:34:44.864Z</time></trkpt><trkpt lat="44.7591883" lon="9.6482633"><ele>913.5999999999999</ele><time>2026-05-01T08:34:45.864Z</time></trkpt><trkpt lat="44.75909" lon="9.648285"><ele>914.8</ele><time>2026-05-01T08:34:46.864Z</time></trkpt><trkpt lat="44.7590017" lon="9.6483083"><ele>916.0</ele><time>2026-05-01T08:34:47.864Z</time></trkpt><trkpt lat="44.7589233" lon="9.6483417"><ele>915.9999999999999</ele><time>2026-05-01T08:34:48.864Z</time></trkpt><trkpt lat="44.7588483" lon="9.6483833"><ele>916.0</ele><time>2026-05-01T08:34:49.864Z</time></trkpt><trkpt lat="44.7587833" lon="9.64842"><ele>916.0</ele><time>2026-05-01T08:34:50.865Z</time></trkpt><trkpt lat="44.758715" lon="9.6484433"><ele>916.0</ele><time>2026-05-01T08:34:51.864Z</time></trkpt><trkpt lat="44.7586433" lon="9.64846"><ele>915.9999999999999</ele><time>2026-05-01T08:34:52.864Z</time></trkpt><trkpt lat="44.75858" lon="9.648475"><ele>916.0</ele><time>2026-05-01T08:34:53.864Z</time></trkpt><trkpt lat="44.758485" lon="9.6485167"><ele>917.6666666666666</ele><time>2026-05-01T08:34:55.864Z</time></trkpt><trkpt lat="44.7584067" lon="9.6485533"><ele>919.3333333333333</ele><time>2026-05-01T08:34:58.864Z</time></trkpt><trkpt lat="44.7583317" lon="9.6485383"><ele>921.0</ele><time>2026-05-01T08:35:03.864Z</time></trkpt><trkpt lat="44.7582667" lon="9.6485167"><ele>922.6666666666667</ele><time>2026-05-01T08:35:06.864Z</time></trkpt><trkpt lat="44.7582033" lon="9.6484617"><ele>924.3333333333334</ele><time>2026-05-01T08:35:10.864Z</time></trkpt><trkpt lat="44.7581383" lon="9.6484233"><ele>926.0</ele><time>2026-05-01T08:35:12.865Z</time></trkpt><trkpt lat="44.7580117" lon="9.64844"><ele>926.0000000000001</ele><time>2026-05-01T08:35:14.864Z</time></trkpt><trkpt lat="44.7579417" lon="9.6484617"><ele>926.0</ele><time>2026-05-01T08:35:15.864Z</time></trkpt><trkpt lat="44.7578283" lon="9.64847"><ele>926.0</ele><time>2026-05-01T08:35:16.864Z</time></trkpt><trkpt lat="44.7577517" lon="9.6484833"><ele>926.0</ele><time>2026-05-01T08:35:17.864Z</time></trkpt><trkpt lat="44.7576683" lon="9.64855"><ele>926.0000000000001</ele><time>2026-05-01T08:35:19.864Z</time></trkpt><trkpt lat="44.7575883" lon="9.6485517"><ele>926.0</ele><time>2026-05-01T08:35:22.864Z</time></trkpt><trkpt lat="44.75751" lon="9.6485617"><ele>927.2857142857142</ele><time>2026-05-01T08:35:24.865Z</time></trkpt><trkpt lat="44.757435" lon="9.6486083"><ele>928.5714285714284</ele><time>2026-05-01T08:35:26.865Z</time></trkpt><trkpt lat="44.7573667" lon="9.6486517"><ele>929.8571428571429</ele><time>2026-05-01T08:35:28.864Z</time></trkpt><trkpt lat="44.7572967" lon="9.6486783"><ele>931.1428571428571</ele><time>2026-05-01T08:35:30.864Z</time></trkpt><trkpt lat="44.7572317" lon="9.6486817"><ele>932.4285714285714</ele><time>2026-05-01T08:35:32.864Z</time></trkpt><trkpt lat="44.7571533" lon="9.6486667"><ele>933.7142857142858</ele><time>2026-05-01T08:35:36.864Z</time></trkpt><trkpt lat="44.75708" lon="9.6486467"><ele>935.0000000000001</ele><time>2026-05-01T08:35:39.864Z</time></trkpt><trkpt lat="44.7570167" lon="9.6486383"><ele>935.0000000000001</ele><time>2026-05-01T08:35:41.864Z</time></trkpt><trkpt lat="44.75695" lon="9.6486333"><ele>935.0</ele><time>2026-05-01T08:35:43.864Z</time></trkpt><trkpt lat="44.7568883" lon="9.6485967"><ele>935.0000000000001</ele><time>2026-05-01T08:35:45.864Z</time></trkpt><trkpt lat="44.7568333" lon="9.6485333"><ele>935.0000000000001</ele><time>2026-05-01T08:35:48.864Z</time></trkpt><trkpt lat="44.7567817" lon="9.6484483"><ele>935.0</ele><time>2026-05-01T08:35:51.864Z</time></trkpt><trkpt lat="44.7567267" lon="9.6483833"><ele>935.0000000000001</ele><time>2026-05-01T08:35:53.864Z</time></trkpt><trkpt lat="44.7566783" lon="9.6483233"><ele>935.0000000000001</ele><time>2026-05-01T08:35:55.864Z</time></trkpt><trkpt lat="44.7566267" lon="9.64826"><ele>939.25</ele><time>2026-05-01T08:35:57.864Z</time></trkpt><trkpt lat="44.75652" lon="9.6481667"><ele>943.5</ele><time>2026-05-01T08:35:59.864Z</time></trkpt><trkpt lat="44.7564183" lon="9.6481067"><ele>947.75</ele><time>2026-05-01T08:36:01.864Z</time></trkpt><trkpt lat="44.7562817" lon="9.6480783"><ele>952.0</ele><time>2026-05-01T08:36:03.864Z</time></trkpt><trkpt lat="44.7561617" lon="9.648065"><ele>952.0</ele><time>2026-05-01T08:36:05.864Z</time></trkpt><trkpt lat="44.7560933" lon="9.648065"><ele>952.0</ele><time>2026-05-01T08:36:06.864Z</time></trkpt><trkpt lat="44.7559767" lon="9.6480567"><ele>952.0</ele><time>2026-05-01T08:36:08.864Z</time></trkpt><trkpt lat="44.7558633" lon="9.64802"><ele>952.0</ele><time>2026-05-01T08:36:10.864Z</time></trkpt><trkpt lat="44.7558017" lon="9.648"><ele>952.0</ele><time>2026-05-01T08:36:11.864Z</time></trkpt><trkpt lat="44.7556567" lon="9.64797"><ele>954.8333333333333</ele><time>2026-05-01T08:36:12.864Z</time></trkpt><trkpt lat="44.7555733" lon="9.6479517"><ele>957.6666666666666</ele><time>2026-05-01T08:36:13.864Z</time></trkpt><trkpt lat="44.7554467" lon="9.6479333"><ele>960.5</ele><time>2026-05-01T08:36:14.864Z</time></trkpt><trkpt lat="44.755365" lon="9.6479283"><ele>963.3333333333333</ele><time>2026-05-01T08:36:15.864Z</time></trkpt><trkpt lat="44.755275" lon="9.6479267"><ele>966.1666666666666</ele><time>2026-05-01T08:36:16.864Z</time></trkpt><trkpt lat="44.75521" lon="9.647935"><ele>969.0</ele><time>2026-05-01T08:36:17.864Z</time></trkpt><trkpt lat="44.755145" lon="9.6479333"><ele>970.4000000000001</ele><time>2026-05-01T08:36:18.864Z</time></trkpt><trkpt lat="44.755065" lon="9.647925"><ele>971.8000000000001</ele><time>2026-05-01T08:36:19.864Z</time></trkpt><trkpt lat="44.7549667" lon="9.6479"><ele>973.1999999999999</ele><time>2026-05-01T08:36:21.864Z</time></trkpt><trkpt lat="44.7548617" lon="9.6478667"><ele>974.5999999999999</ele><time>2026-05-01T08:36:29.864Z</time></trkpt><trkpt lat="44.7547417" lon="9.6477733"><ele>976.0</ele><time>2026-05-01T08:36:42.865Z</time></trkpt><trkpt lat="44.75467" lon="9.64773"><ele>975.9999999999999</ele><time>2026-05-01T08:37:12.864Z</time></trkpt><trkpt lat="44.7546" lon="9.6476883"><ele>976.0</ele><time>2026-05-01T08:37:15.864Z</time></trkpt><trkpt lat="44.7545033" lon="9.647665"><ele>976.0</ele><time>2026-05-01T08:37:18.864Z</time></trkpt><trkpt lat="44.75441" lon="9.647705"><ele>976.0</ele><time>2026-05-01T08:37:20.864Z</time></trkpt><trkpt lat="44.7543367" lon="9.647755"><ele>975.9999999999999</ele><time>2026-05-01T08:37:22.864Z</time></trkpt><trkpt lat="44.7542783" lon="9.6477933"><ele>976.0</ele><time>2026-05-01T08:37:23.864Z</time></trkpt><trkpt lat="44.7541667" lon="9.6478417"><ele>977.5999999999999</ele><time>2026-05-01T08:37:25.864Z</time></trkpt><trkpt lat="44.754035" lon="9.6478733"><ele>979.1999999999999</ele><time>2026-05-01T08:37:27.864Z</time></trkpt><trkpt lat="44.75395" lon="9.6478967"><ele>980.8000000000001</ele><time>2026-05-01T08:37:28.864Z</time></trkpt><trkpt lat="44.75386" lon="9.6479333"><ele>982.4000000000001</ele><time>2026-05-01T08:37:29.864Z</time></trkpt><trkpt lat="44.7537633" lon="9.6479667"><ele>984.0</ele><time>2026-05-01T08:37:30.864Z</time></trkpt><trkpt lat="44.7536767" lon="9.6479967"><ele>984.0</ele><time>2026-05-01T08:37:31.864Z</time></trkpt><trkpt lat="44.7536033" lon="9.6480233"><ele>984.0</ele><time>2026-05-01T08:37:32.864Z</time></trkpt><trkpt lat="44.7535417" lon="9.6480683"><ele>984.0</ele><time>2026-05-01T08:37:33.864Z</time></trkpt><trkpt lat="44.7534933" lon="9.64813"><ele>984.0</ele><time>2026-05-01T08:37:34.864Z</time></trkpt><trkpt lat="44.75343" lon="9.6482683"><ele>984.0</ele><time>2026-05-01T08:37:36.864Z</time></trkpt><trkpt lat="44.7533967" lon="9.648345"><ele>984.0</ele><time>2026-05-01T08:37:37.864Z</time></trkpt><trkpt lat="44.7533417" lon="9.6484917"><ele>981.5</ele><time>2026-05-01T08:37:39.864Z</time></trkpt><trkpt lat="44.7532833" lon="9.6486617"><ele>979.0</ele><time>2026-05-01T08:37:41.864Z</time></trkpt><trkpt lat="44.7532517" lon="9.64877"><ele>976.5</ele><time>2026-05-01T08:37:42.864Z</time></trkpt><trkpt lat="44.7532167" lon="9.6488517"><ele>974.0</ele><time>2026-05-01T08:37:43.864Z</time></trkpt><trkpt lat="44.7531733" lon="9.6489317"><ele>971.5</ele><time>2026-05-01T08:37:44.864Z</time></trkpt><trkpt lat="44.7531217" lon="9.649015"><ele>969.0</ele><time>2026-05-01T08:37:45.864Z</time></trkpt><trkpt lat="44.75306" lon="9.6491017"><ele>969.0</ele><time>2026-05-01T08:37:46.864Z</time></trkpt><trkpt lat="44.7529917" lon="9.64919"><ele>969.0</ele><time>2026-05-01T08:37:47.864Z</time></trkpt><trkpt lat="44.752935" lon="9.6492717"><ele>969.0</ele><time>2026-05-01T08:37:48.864Z</time></trkpt><trkpt lat="44.7528817" lon="9.6493433"><ele>969.0</ele><time>2026-05-01T08:37:49.864Z</time></trkpt><trkpt lat="44.7528267" lon="9.6494067"><ele>969.0</ele><time>2026-05-01T08:37:50.864Z</time></trkpt><trkpt lat="44.752765" lon="9.64945"><ele>969.0</ele><time>2026-05-01T08:37:51.864Z</time></trkpt><trkpt lat="44.752705" lon="9.6494883"><ele>967.6666666666666</ele><time>2026-05-01T08:37:52.864Z</time></trkpt><trkpt lat="44.7526433" lon="9.649525"><ele>966.3333333333333</ele><time>2026-05-01T08:37:53.864Z</time></trkpt><trkpt lat="44.7525833" lon="9.6495717"><ele>965.0</ele><time>2026-05-01T08:37:54.864Z</time></trkpt><trkpt lat="44.752525" lon="9.649635"><ele>963.6666666666666</ele><time>2026-05-01T08:37:55.864Z</time></trkpt><trkpt lat="44.752465" lon="9.649705"><ele>962.3333333333333</ele><time>2026-05-01T08:37:56.864Z</time></trkpt><trkpt lat="44.7523767" lon="9.6498067"><ele>961.0</ele><time>2026-05-01T08:37:58.864Z</time></trkpt><trkpt lat="44.7523167" lon="9.6498567"><ele>961.0</ele><time>2026-05-01T08:37:59.864Z</time></trkpt><trkpt lat="44.752255" lon="9.649895"><ele>960.9999999999999</ele><time>2026-05-01T08:38:00.864Z</time></trkpt><trkpt lat="44.7521883" lon="9.6499167"><ele>961.0</ele><time>2026-05-01T08:38:01.864Z</time></trkpt><trkpt lat="44.7521167" lon="9.649955"><ele>961.0</ele><time>2026-05-01T08:38:02.864Z</time></trkpt><trkpt lat="44.7520517" lon="9.649975"><ele>960.9999999999999</ele><time>2026-05-01T08:38:03.864Z</time></trkpt><trkpt lat="44.7519667" lon="9.649985"><ele>961.0</ele><time>2026-05-01T08:38:05.864Z</time></trkpt><trkpt lat="44.7520383" lon="9.6499717"><ele>961.0</ele><time>2026-05-01T08:38:11.864Z</time></trkpt><trkpt lat="44.7521083" lon="9.6499383"><ele>960.9999999999999</ele><time>2026-05-01T08:38:12.864Z</time></trkpt><trkpt lat="44.7521833" lon="9.6498967"><ele>961.0</ele><time>2026-05-01T08:38:13.864Z</time></trkpt><trkpt lat="44.7522417" lon="9.6498583"><ele>961.0</ele><time>2026-05-01T08:38:14.864Z</time></trkpt><trkpt lat="44.75231" lon="9.6498333"><ele>961.0</ele><time>2026-05-01T08:38:16.864Z</time></trkpt><trkpt lat="44.752335" lon="9.64993"><ele>960.9999999999999</ele><time>2026-05-01T08:38:20.864Z</time></trkpt><trkpt lat="44.7523133" lon="9.65003"><ele>961.0</ele><time>2026-05-01T08:38:22.864Z</time></trkpt><trkpt lat="44.7522383" lon="9.6501533"><ele>960.9999999999999</ele><time>2026-05-01T08:38:24.864Z</time></trkpt><trkpt lat="44.7522083" lon="9.6502767"><ele>961.0</ele><time>2026-05-01T08:38:25.864Z</time></trkpt><trkpt lat="44.75217" lon="9.65037"><ele>961.0</ele><time>2026-05-01T08:38:26.864Z</time></trkpt><trkpt lat="44.7521383" lon="9.65047"><ele>961.0</ele><time>2026-05-01T08:38:27.864Z</time></trkpt><trkpt lat="44.7521017" lon="9.650555"><ele>960.9999999999999</ele><time>2026-05-01T08:38:28.864Z</time></trkpt><trkpt lat="44.7520267" lon="9.650705"><ele>961.0</ele><time>2026-05-01T08:38:30.864Z</time></trkpt><trkpt lat="44.75199" lon="9.6507817"><ele>963.4999999999999</ele><time>2026-05-01T08:38:31.864Z</time></trkpt><trkpt lat="44.7519383" lon="9.6509467"><ele>966.0</ele><time>2026-05-01T08:38:33.864Z</time></trkpt><trkpt lat="44.751915" lon="9.65103"><ele>968.5</ele><time>2026-05-01T08:38:34.864Z</time></trkpt><trkpt lat="44.7518933" lon="9.651115"><ele>971.0</ele><time>2026-05-01T08:38:35.864Z</time></trkpt><trkpt lat="44.7518417" lon="9.6512183"><ele>973.4999999999999</ele><time>2026-05-01T08:38:37.864Z</time></trkpt><trkpt lat="44.751765" lon="9.65131"><ele>976.0</ele><time>2026-05-01T08:38:39.864Z</time></trkpt><trkpt lat="44.7516783" lon="9.6514117"><ele>977.8333333333333</ele><time>2026-05-01T08:38:41.864Z</time></trkpt><trkpt lat="44.751625" lon="9.65147"><ele>979.6666666666666</ele><time>2026-05-01T08:38:42.865Z</time></trkpt><trkpt lat="44.75158" lon="9.6515467"><ele>981.5</ele><time>2026-05-01T08:38:43.864Z</time></trkpt><trkpt lat="44.7515317" lon="9.6516483"><ele>983.3333333333333</ele><time>2026-05-01T08:38:44.864Z</time></trkpt><trkpt lat="44.751475" lon="9.6517633"><ele>985.1666666666666</ele><time>2026-05-01T08:38:45.864Z</time></trkpt><trkpt lat="44.7514133" lon="9.65186"><ele>987.0</ele><time>2026-05-01T08:38:46.864Z</time></trkpt><trkpt lat="44.751355" lon="9.651945"><ele>986.6</ele><time>2026-05-01T08:38:47.864Z</time></trkpt><trkpt lat="44.7513033" lon="9.652"><ele>986.2</ele><time>2026-05-01T08:38:48.864Z</time></trkpt><trkpt lat="44.7512167" lon="9.652065"><ele>985.8</ele><time>2026-05-01T08:38:50.864Z</time></trkpt><trkpt lat="44.751095" lon="9.652145"><ele>985.4</ele><time>2026-05-01T08:38:52.864Z</time></trkpt><trkpt lat="44.7510167" lon="9.65222"><ele>985.0</ele><time>2026-05-01T08:38:53.864Z</time></trkpt><trkpt lat="44.750935" lon="9.65229"><ele>985.0</ele><time>2026-05-01T08:38:54.864Z</time></trkpt><trkpt lat="44.7508433" lon="9.6523683"><ele>985.0</ele><time>2026-05-01T08:38:55.864Z</time></trkpt><trkpt lat="44.7507433" lon="9.6524583"><ele>985.0</ele><time>2026-05-01T08:38:56.864Z</time></trkpt><trkpt lat="44.7506417" lon="9.6525533"><ele>985.0</ele><time>2026-05-01T08:38:57.864Z</time></trkpt><trkpt lat="44.750535" lon="9.6526533"><ele>985.0</ele><time>2026-05-01T08:38:58.864Z</time></trkpt><trkpt lat="44.75044" lon="9.65278"><ele>985.0</ele><time>2026-05-01T08:38:59.864Z</time></trkpt><trkpt lat="44.7503483" lon="9.6528867"><ele>985.0</ele><time>2026-05-01T08:39:00.864Z</time></trkpt><trkpt lat="44.7502733" lon="9.65298"><ele>985.0</ele><time>2026-05-01T08:39:01.864Z</time></trkpt><trkpt lat="44.7502017" lon="9.6530933"><ele>983.8</ele><time>2026-05-01T08:39:02.864Z</time></trkpt><trkpt lat="44.7501383" lon="9.65324"><ele>982.6</ele><time>2026-05-01T08:39:03.864Z</time></trkpt><trkpt lat="44.7500917" lon="9.65338"><ele>981.4000000000001</ele><time>2026-05-01T08:39:04.864Z</time></trkpt><trkpt lat="44.7500667" lon="9.6535067"><ele>980.2</ele><time>2026-05-01T08:39:05.864Z</time></trkpt><trkpt lat="44.7500367" lon="9.6536367"><ele>979.0</ele><time>2026-05-01T08:39:06.864Z</time></trkpt><trkpt lat="44.7500017" lon="9.6537733"><ele>982.0</ele><time>2026-05-01T08:39:07.864Z</time></trkpt><trkpt lat="44.74996" lon="9.6539167"><ele>985.0</ele><time>2026-05-01T08:39:08.864Z</time></trkpt><trkpt lat="44.749925" lon="9.6540583"><ele>988.0</ele><time>2026-05-01T08:39:09.864Z</time></trkpt><trkpt lat="44.7498833" lon="9.6542083"><ele>991.0</ele><time>2026-05-01T08:39:10.864Z</time></trkpt><trkpt lat="44.7498333" lon="9.65437"><ele>993.0</ele><time>2026-05-01T08:39:11.864Z</time></trkpt><trkpt lat="44.7497833" lon="9.65452"><ele>994.9999999999999</ele><time>2026-05-01T08:39:12.864Z</time></trkpt><trkpt lat="44.74974" lon="9.65467"><ele>996.9999999999999</ele><time>2026-05-01T08:39:13.864Z</time></trkpt><trkpt lat="44.7497017" lon="9.6548033"><ele>999.0</ele><time>2026-05-01T08:39:14.864Z</time></trkpt><trkpt lat="44.7496683" lon="9.654915"><ele>1001.0</ele><time>2026-05-01T08:39:15.864Z</time></trkpt><trkpt lat="44.749645" lon="9.65503"><ele>1001.0</ele><time>2026-05-01T08:39:16.864Z</time></trkpt><trkpt lat="44.7496333" lon="9.6551483"><ele>1000.9999999999999</ele><time>2026-05-01T08:39:17.864Z</time></trkpt><trkpt lat="44.749625" lon="9.6552933"><ele>1000.9999999999999</ele><time>2026-05-01T08:39:18.864Z</time></trkpt><trkpt lat="44.7496217" lon="9.6554717"><ele>1001.0</ele><time>2026-05-01T08:39:19.864Z</time></trkpt><trkpt lat="44.749595" lon="9.655655"><ele>1001.0</ele><time>2026-05-01T08:39:20.864Z</time></trkpt><trkpt lat="44.7495433" lon="9.6558333"><ele>1000.4</ele><time>2026-05-01T08:39:21.864Z</time></trkpt><trkpt lat="44.7494767" lon="9.6559717"><ele>999.8</ele><time>2026-05-01T08:39:22.864Z</time></trkpt><trkpt lat="44.7494133" lon="9.65608"><ele>999.1999999999999</ele><time>2026-05-01T08:39:23.865Z</time></trkpt><trkpt lat="44.7493567" lon="9.6561783"><ele>998.5999999999999</ele><time>2026-05-01T08:39:24.865Z</time></trkpt><trkpt lat="44.7493017" lon="9.6562783"><ele>998.0</ele><time>2026-05-01T08:39:25.864Z</time></trkpt><trkpt lat="44.74926" lon="9.656385"><ele>998.0000000000001</ele><time>2026-05-01T08:39:26.864Z</time></trkpt><trkpt lat="44.7492183" lon="9.6565033"><ele>998.0</ele><time>2026-05-01T08:39:27.864Z</time></trkpt><trkpt lat="44.7491783" lon="9.6566117"><ele>998.0</ele><time>2026-05-01T08:39:28.864Z</time></trkpt><trkpt lat="44.7491367" lon="9.6567117"><ele>998.0</ele><time>2026-05-01T08:39:29.864Z</time></trkpt><trkpt lat="44.749085" lon="9.6568"><ele>998.0000000000001</ele><time>2026-05-01T08:39:30.864Z</time></trkpt><trkpt lat="44.749025" lon="9.6569"><ele>998.0</ele><time>2026-05-01T08:39:31.864Z</time></trkpt><trkpt lat="44.7489617" lon="9.657005"><ele>999.3333333333334</ele><time>2026-05-01T08:39:32.864Z</time></trkpt><trkpt lat="44.7489033" lon="9.6571067"><ele>1000.6666666666667</ele><time>2026-05-01T08:39:33.865Z</time></trkpt><trkpt lat="44.7488617" lon="9.657205"><ele>1002.0</ele><time>2026-05-01T08:39:34.865Z</time></trkpt><trkpt lat="44.7488417" lon="9.6573"><ele>1003.3333333333333</ele><time>2026-05-01T08:39:35.864Z</time></trkpt><trkpt lat="44.7488433" lon="9.6573933"><ele>1004.6666666666666</ele><time>2026-05-01T08:39:36.864Z</time></trkpt><trkpt lat="44.7488733" lon="9.6574883"><ele>1006.0</ele><time>2026-05-01T08:39:37.864Z</time></trkpt><trkpt lat="44.7489317" lon="9.6575683"><ele>1006.0</ele><time>2026-05-01T08:39:38.864Z</time></trkpt><trkpt lat="44.7490067" lon="9.6576333"><ele>1005.9999999999999</ele><time>2026-05-01T08:39:39.864Z</time></trkpt><trkpt lat="44.7490717" lon="9.6576933"><ele>1005.9999999999999</ele><time>2026-05-01T08:39:40.864Z</time></trkpt><trkpt lat="44.749105" lon="9.6578333"><ele>1006.0</ele><time>2026-05-01T08:39:42.864Z</time></trkpt><trkpt lat="44.7490167" lon="9.6580217"><ele>1006.0</ele><time>2026-05-01T08:39:44.864Z</time></trkpt><trkpt lat="44.7489433" lon="9.65814"><ele>1006.6666666666666</ele><time>2026-05-01T08:39:45.864Z</time></trkpt><trkpt lat="44.7488767" lon="9.658235"><ele>1007.3333333333333</ele><time>2026-05-01T08:39:46.864Z</time></trkpt><trkpt lat="44.7488383" lon="9.6583183"><ele>1008.0</ele><time>2026-05-01T08:39:47.864Z</time></trkpt><trkpt lat="44.748785" lon="9.6583867"><ele>1008.6666666666667</ele><time>2026-05-01T08:39:49.864Z</time></trkpt><trkpt lat="44.7487017" lon="9.6583867"><ele>1009.3333333333334</ele><time>2026-05-01T08:39:53.864Z</time></trkpt><trkpt lat="44.7486033" lon="9.65847"><ele>1010.0</ele><time>2026-05-01T08:39:55.864Z</time></trkpt><trkpt lat="44.7485083" lon="9.6585667"><ele>1008.4</ele><time>2026-05-01T08:39:57.864Z</time></trkpt><trkpt lat="44.74842" lon="9.65868"><ele>1006.8</ele><time>2026-05-01T08:39:59.864Z</time></trkpt><trkpt lat="44.7483717" lon="9.658805"><ele>1005.2</ele><time>2026-05-01T08:40:01.865Z</time></trkpt><trkpt lat="44.7483483" lon="9.6589533"><ele>1003.6</ele><time>2026-05-01T08:40:03.864Z</time></trkpt><trkpt lat="44.7483283" lon="9.6590983"><ele>1002.0</ele><time>2026-05-01T08:40:05.864Z</time></trkpt><trkpt lat="44.7483067" lon="9.6592867"><ele>1002.0</ele><time>2026-05-01T08:40:07.864Z</time></trkpt><trkpt lat="44.748295" lon="9.6593817"><ele>1002.0</ele><time>2026-05-01T08:40:08.864Z</time></trkpt><trkpt lat="44.7482683" lon="9.6595383"><ele>1002.0</ele><time>2026-05-01T08:40:10.864Z</time></trkpt><trkpt lat="44.7482483" lon="9.6596383"><ele>1002.0</ele><time>2026-05-01T08:40:12.864Z</time></trkpt><trkpt lat="44.74822" lon="9.6597317"><ele>1002.0</ele><time>2026-05-01T08:40:16.864Z</time></trkpt><trkpt lat="44.748195" lon="9.6598233"><ele>1002.0</ele><time>2026-05-01T08:40:20.864Z</time></trkpt><trkpt lat="44.7481167" lon="9.659785"><ele>1001.3333333333334</ele><time>2026-05-01T08:41:04.864Z</time></trkpt><trkpt lat="44.7480417" lon="9.6598"><ele>1000.6666666666667</ele><time>2026-05-01T08:41:11.864Z</time></trkpt><trkpt lat="44.7479717" lon="9.65983"><ele>1000.0</ele><time>2026-05-01T08:41:14.865Z</time></trkpt><trkpt lat="44.747885" lon="9.6598783"><ele>999.3333333333334</ele><time>2026-05-01T08:41:17.864Z</time></trkpt><trkpt lat="44.7478167" lon="9.6599283"><ele>998.6666666666667</ele><time>2026-05-01T08:41:19.864Z</time></trkpt><trkpt lat="44.7477367" lon="9.659985"><ele>998.0</ele><time>2026-05-01T08:41:21.864Z</time></trkpt><trkpt lat="44.7476417" lon="9.66005"><ele>995.1666666666667</ele><time>2026-05-01T08:41:23.864Z</time></trkpt><trkpt lat="44.7475667" lon="9.6601117"><ele>992.3333333333334</ele><time>2026-05-01T08:41:25.864Z</time></trkpt><trkpt lat="44.7475017" lon="9.6601833"><ele>989.5</ele><time>2026-05-01T08:41:27.864Z</time></trkpt><trkpt lat="44.747455" lon="9.660245"><ele>986.6666666666667</ele><time>2026-05-01T08:41:31.864Z</time></trkpt><trkpt lat="44.7474017" lon="9.6603567"><ele>983.8333333333334</ele><time>2026-05-01T08:41:34.864Z</time></trkpt><trkpt lat="44.7473783" lon="9.6604583"><ele>981.0</ele><time>2026-05-01T08:41:37.864Z</time></trkpt><trkpt lat="44.747335" lon="9.6605683"><ele>980.8</ele><time>2026-05-01T08:41:43.864Z</time></trkpt><trkpt lat="44.7472633" lon="9.660685"><ele>980.5999999999999</ele><time>2026-05-01T08:41:45.864Z</time></trkpt><trkpt lat="44.7471783" lon="9.660755"><ele>980.4</ele><time>2026-05-01T08:41:46.865Z</time></trkpt><trkpt lat="44.7470817" lon="9.66083"><ele>980.2</ele><time>2026-05-01T08:41:47.864Z</time></trkpt><trkpt lat="44.7470033" lon="9.6608883"><ele>980.0</ele><time>2026-05-01T08:41:48.864Z</time></trkpt><trkpt lat="44.7469417" lon="9.6609367"><ele>980.0</ele><time>2026-05-01T08:41:49.864Z</time></trkpt><trkpt lat="44.746885" lon="9.6609833"><ele>980.0</ele><time>2026-05-01T08:41:50.864Z</time></trkpt><trkpt lat="44.7467983" lon="9.66105"><ele>980.0</ele><time>2026-05-01T08:41:52.864Z</time></trkpt><trkpt lat="44.7467183" lon="9.6611267"><ele>980.0</ele><time>2026-05-01T08:41:54.864Z</time></trkpt><trkpt lat="44.7466333" lon="9.661205"><ele>980.0</ele><time>2026-05-01T08:41:56.864Z</time></trkpt><trkpt lat="44.7465467" lon="9.6612683"><ele>974.8</ele><time>2026-05-01T08:41:58.864Z</time></trkpt><trkpt lat="44.746455" lon="9.66136"><ele>969.6</ele><time>2026-05-01T08:42:00.864Z</time></trkpt><trkpt lat="44.7463483" lon="9.661445"><ele>964.4000000000001</ele><time>2026-05-01T08:42:02.864Z</time></trkpt><trkpt lat="44.7462867" lon="9.6614817"><ele>959.2</ele><time>2026-05-01T08:42:03.864Z</time></trkpt><trkpt lat="44.74622" lon="9.6615233"><ele>954.0</ele><time>2026-05-01T08:42:04.864Z</time></trkpt><trkpt lat="44.7461433" lon="9.66156"><ele>954.0</ele><time>2026-05-01T08:42:05.864Z</time></trkpt><trkpt lat="44.7460533" lon="9.6616"><ele>954.0</ele><time>2026-05-01T08:42:06.864Z</time></trkpt><trkpt lat="44.7459667" lon="9.6616283"><ele>954.0</ele><time>2026-05-01T08:42:07.864Z</time></trkpt><trkpt lat="44.745895" lon="9.6616517"><ele>954.0</ele><time>2026-05-01T08:42:08.864Z</time></trkpt><trkpt lat="44.745775" lon="9.6617067"><ele>954.0</ele><time>2026-05-01T08:42:10.865Z</time></trkpt><trkpt lat="44.7457133" lon="9.66173"><ele>954.0</ele><time>2026-05-01T08:42:11.864Z</time></trkpt><trkpt lat="44.745645" lon="9.6617583"><ele>952.0</ele><time>2026-05-01T08:42:12.864Z</time></trkpt><trkpt lat="44.74557" lon="9.6617817"><ele>950.0</ele><time>2026-05-01T08:42:13.864Z</time></trkpt><trkpt lat="44.7454917" lon="9.6618033"><ele>948.0</ele><time>2026-05-01T08:42:14.864Z</time></trkpt><trkpt lat="44.7454117" lon="9.661835"><ele>946.0</ele><time>2026-05-01T08:42:15.864Z</time></trkpt><trkpt lat="44.7453317" lon="9.66186"><ele>944.0</ele><time>2026-05-01T08:42:16.864Z</time></trkpt><trkpt lat="44.7452417" lon="9.661875"><ele>942.0</ele><time>2026-05-01T08:42:17.864Z</time></trkpt><trkpt lat="44.74514" lon="9.6618867"><ele>940.0</ele><time>2026-05-01T08:42:18.864Z</time></trkpt><trkpt lat="44.7450233" lon="9.6618967"><ele>938.0</ele><time>2026-05-01T08:42:19.864Z</time></trkpt><trkpt lat="44.7449067" lon="9.6619133"><ele>936.0</ele><time>2026-05-01T08:42:20.864Z</time></trkpt><trkpt lat="44.7447967" lon="9.6619367"><ele>934.0</ele><time>2026-05-01T08:42:21.864Z</time></trkpt><trkpt lat="44.74469" lon="9.6619667"><ele>933.0</ele><time>2026-05-01T08:42:22.864Z</time></trkpt><trkpt lat="44.7445783" lon="9.6620017"><ele>932.0000000000001</ele><time>2026-05-01T08:42:23.864Z</time></trkpt><trkpt lat="44.7444717" lon="9.66205"><ele>931.0000000000001</ele><time>2026-05-01T08:42:24.864Z</time></trkpt><trkpt lat="44.744375" lon="9.6620917"><ele>930.0</ele><time>2026-05-01T08:42:25.864Z</time></trkpt><trkpt lat="44.7442783" lon="9.6621283"><ele>929.0</ele><time>2026-05-01T08:42:26.864Z</time></trkpt><trkpt lat="44.744195" lon="9.662175"><ele>928.5714285714287</ele><time>2026-05-01T08:42:27.864Z</time></trkpt><trkpt lat="44.7441267" lon="9.6622183"><ele>928.1428571428572</ele><time>2026-05-01T08:42:28.864Z</time></trkpt><trkpt lat="44.7440667" lon="9.6622483"><ele>927.7142857142858</ele><time>2026-05-01T08:42:29.864Z</time></trkpt><trkpt lat="44.7440017" lon="9.66228"><ele>927.2857142857142</ele><time>2026-05-01T08:42:30.864Z</time></trkpt><trkpt lat="44.743935" lon="9.662315"><ele>926.8571428571428</ele><time>2026-05-01T08:42:31.864Z</time></trkpt><trkpt lat="44.7438617" lon="9.6623583"><ele>926.4285714285713</ele><time>2026-05-01T08:42:32.864Z</time></trkpt><trkpt lat="44.7437917" lon="9.66241"><ele>926.0</ele><time>2026-05-01T08:42:33.864Z</time></trkpt><trkpt lat="44.7437067" lon="9.6624617"><ele>926.0000000000001</ele><time>2026-05-01T08:42:34.864Z</time></trkpt><trkpt lat="44.74361" lon="9.6625083"><ele>926.0</ele><time>2026-05-01T08:42:35.864Z</time></trkpt><trkpt lat="44.7435283" lon="9.6625533"><ele>926.0</ele><time>2026-05-01T08:42:36.864Z</time></trkpt><trkpt lat="44.7434567" lon="9.6625883"><ele>926.0</ele><time>2026-05-01T08:42:37.864Z</time></trkpt><trkpt lat="44.743395" lon="9.662625"><ele>926.0000000000001</ele><time>2026-05-01T08:42:38.864Z</time></trkpt><trkpt lat="44.74332" lon="9.66273"><ele>926.0</ele><time>2026-05-01T08:42:40.864Z</time></trkpt><trkpt lat="44.7433183" lon="9.6628867"><ele>925.6666666666667</ele><time>2026-05-01T08:42:42.864Z</time></trkpt><trkpt lat="44.7433283" lon="9.66298"><ele>925.3333333333334</ele><time>2026-05-01T08:42:43.864Z</time></trkpt><trkpt lat="44.7433233" lon="9.663125"><ele>925.0</ele><time>2026-05-01T08:42:45.864Z</time></trkpt><trkpt lat="44.7432417" lon="9.6631333"><ele>924.6666666666667</ele><time>2026-05-01T08:42:47.864Z</time></trkpt><trkpt lat="44.7431717" lon="9.663105"><ele>924.3333333333334</ele><time>2026-05-01T08:42:48.864Z</time></trkpt><trkpt lat="44.743095" lon="9.663085"><ele>924.0</ele><time>2026-05-01T08:42:49.864Z</time></trkpt><trkpt lat="44.743015" lon="9.6630833"><ele>924.0</ele><time>2026-05-01T08:42:50.864Z</time></trkpt><trkpt lat="44.7429367" lon="9.6630967"><ele>924.0</ele><time>2026-05-01T08:42:51.865Z</time></trkpt><trkpt lat="44.74286" lon="9.663135"><ele>924.0</ele><time>2026-05-01T08:42:52.864Z</time></trkpt><trkpt lat="44.74278" lon="9.6631783"><ele>924.0</ele><time>2026-05-01T08:42:53.864Z</time></trkpt><trkpt lat="44.7426883" lon="9.6632283"><ele>924.0</ele><time>2026-05-01T08:42:54.864Z</time></trkpt><trkpt lat="44.7426033" lon="9.663285"><ele>924.0</ele><time>2026-05-01T08:42:55.864Z</time></trkpt><trkpt lat="44.7425233" lon="9.6633467"><ele>923.6666666666666</ele><time>2026-05-01T08:42:56.864Z</time></trkpt><trkpt lat="44.7424433" lon="9.663405"><ele>923.3333333333333</ele><time>2026-05-01T08:42:57.864Z</time></trkpt><trkpt lat="44.742365" lon="9.6634667"><ele>923.0</ele><time>2026-05-01T08:42:58.864Z</time></trkpt><trkpt lat="44.7422917" lon="9.6635367"><ele>922.6666666666666</ele><time>2026-05-01T08:42:59.864Z</time></trkpt><trkpt lat="44.7422233" lon="9.6636167"><ele>922.3333333333333</ele><time>2026-05-01T08:43:00.864Z</time></trkpt><trkpt lat="44.7421567" lon="9.663695"><ele>922.0</ele><time>2026-05-01T08:43:01.864Z</time></trkpt><trkpt lat="44.7420917" lon="9.6637833"><ele>922.4000000000001</ele><time>2026-05-01T08:43:02.865Z</time></trkpt><trkpt lat="44.7420233" lon="9.66388"><ele>922.8000000000001</ele><time>2026-05-01T08:43:03.864Z</time></trkpt><trkpt lat="44.74194" lon="9.663975"><ele>923.2</ele><time>2026-05-01T08:43:04.864Z</time></trkpt><trkpt lat="44.7418617" lon="9.664065"><ele>923.6</ele><time>2026-05-01T08:43:05.864Z</time></trkpt><trkpt lat="44.741775" lon="9.6641417"><ele>924.0</ele><time>2026-05-01T08:43:06.865Z</time></trkpt><trkpt lat="44.7416833" lon="9.6642083"><ele>924.0</ele><time>2026-05-01T08:43:07.864Z</time></trkpt><trkpt lat="44.7415883" lon="9.6642667"><ele>924.0000000000001</ele><time>2026-05-01T08:43:08.864Z</time></trkpt><trkpt lat="44.741495" lon="9.6643183"><ele>924.0000000000001</ele><time>2026-05-01T08:43:09.864Z</time></trkpt><trkpt lat="44.74141" lon="9.6643783"><ele>924.0</ele><time>2026-05-01T08:43:10.864Z</time></trkpt><trkpt lat="44.74133" lon="9.6644283"><ele>924.0</ele><time>2026-05-01T08:43:11.864Z</time></trkpt><trkpt lat="44.7412583" lon="9.6644717"><ele>923.6666666666666</ele><time>2026-05-01T08:43:12.864Z</time></trkpt><trkpt lat="44.7411917" lon="9.6645117"><ele>923.3333333333333</ele><time>2026-05-01T08:43:13.864Z</time></trkpt><trkpt lat="44.7411283" lon="9.6645467"><ele>923.0</ele><time>2026-05-01T08:43:14.864Z</time></trkpt><trkpt lat="44.7410583" lon="9.664595"><ele>922.6666666666666</ele><time>2026-05-01T08:43:15.864Z</time></trkpt><trkpt lat="44.7409883" lon="9.6646433"><ele>922.3333333333333</ele><time>2026-05-01T08:43:16.864Z</time></trkpt><trkpt lat="44.7409183" lon="9.6646967"><ele>922.0</ele><time>2026-05-01T08:43:17.864Z</time></trkpt><trkpt lat="44.740845" lon="9.6647367"><ele>922.6666666666666</ele><time>2026-05-01T08:43:18.865Z</time></trkpt><trkpt lat="44.7407733" lon="9.6647767"><ele>923.3333333333333</ele><time>2026-05-01T08:43:19.864Z</time></trkpt><trkpt lat="44.740695" lon="9.664805"><ele>924.0</ele><time>2026-05-01T08:43:20.864Z</time></trkpt><trkpt lat="44.7406183" lon="9.6648467"><ele>924.6666666666667</ele><time>2026-05-01T08:43:21.864Z</time></trkpt><trkpt lat="44.74054" lon="9.66489"><ele>925.3333333333334</ele><time>2026-05-01T08:43:22.864Z</time></trkpt><trkpt lat="44.7404633" lon="9.6649367"><ele>926.0</ele><time>2026-05-01T08:43:23.864Z</time></trkpt><trkpt lat="44.7403883" lon="9.6649633"><ele>926.0000000000001</ele><time>2026-05-01T08:43:24.864Z</time></trkpt><trkpt lat="44.740315" lon="9.6649983"><ele>926.0</ele><time>2026-05-01T08:43:25.864Z</time></trkpt><trkpt lat="44.7402533" lon="9.665035"><ele>926.0</ele><time>2026-05-01T08:43:26.864Z</time></trkpt><trkpt lat="44.740195" lon="9.66507"><ele>926.0</ele><time>2026-05-01T08:43:27.864Z</time></trkpt><trkpt lat="44.7400817" lon="9.6651117"><ele>926.0000000000001</ele><time>2026-05-01T08:43:29.865Z</time></trkpt><trkpt lat="44.7400183" lon="9.665125"><ele>926.0</ele><time>2026-05-01T08:43:30.864Z</time></trkpt><trkpt lat="44.7399467" lon="9.665145"><ele>926.0</ele><time>2026-05-01T08:43:31.864Z</time></trkpt><trkpt lat="44.7398683" lon="9.665175"><ele>925.9999999999999</ele><time>2026-05-01T08:43:32.864Z</time></trkpt><trkpt lat="44.7397883" lon="9.66521"><ele>925.9999999999999</ele><time>2026-05-01T08:43:33.864Z</time></trkpt><trkpt lat="44.73971" lon="9.6652683"><ele>926.0</ele><time>2026-05-01T08:43:34.864Z</time></trkpt><trkpt lat="44.739625" lon="9.66533"><ele>926.0</ele><time>2026-05-01T08:43:35.864Z</time></trkpt><trkpt lat="44.7395367" lon="9.6654333"><ele>926.0</ele><time>2026-05-01T08:43:36.864Z</time></trkpt><trkpt lat="44.739465" lon="9.6655467"><ele>925.9999999999999</ele><time>2026-05-01T08:43:37.864Z</time></trkpt><trkpt lat="44.7393917" lon="9.6656567"><ele>925.9999999999999</ele><time>2026-05-01T08:43:38.864Z</time></trkpt><trkpt lat="44.7393233" lon="9.66578"><ele>926.0</ele><time>2026-05-01T08:43:39.864Z</time></trkpt><trkpt lat="44.7392517" lon="9.6658933"><ele>926.0</ele><time>2026-05-01T08:43:40.864Z</time></trkpt><trkpt lat="44.73917" lon="9.666005"><ele>927.75</ele><time>2026-05-01T08:43:41.864Z</time></trkpt><trkpt lat="44.73909" lon="9.6661133"><ele>929.5</ele><time>2026-05-01T08:43:42.864Z</time></trkpt><trkpt lat="44.739005" lon="9.66623"><ele>931.25</ele><time>2026-05-01T08:43:43.864Z</time></trkpt><trkpt lat="44.7389233" lon="9.6663517"><ele>933.0</ele><time>2026-05-01T08:43:44.864Z</time></trkpt><trkpt lat="44.7388433" lon="9.6664767"><ele>933.0</ele><time>2026-05-01T08:43:45.864Z</time></trkpt><trkpt lat="44.738765" lon="9.6665967"><ele>933.0</ele><time>2026-05-01T08:43:46.864Z</time></trkpt><trkpt lat="44.7386833" lon="9.66671"><ele>933.0</ele><time>2026-05-01T08:43:47.864Z</time></trkpt><trkpt lat="44.7386067" lon="9.666825"><ele>933.0</ele><time>2026-05-01T08:43:48.864Z</time></trkpt><trkpt lat="44.7385283" lon="9.666945"><ele>935.5999999999999</ele><time>2026-05-01T08:43:49.864Z</time></trkpt><trkpt lat="44.73846" lon="9.6670633"><ele>938.1999999999999</ele><time>2026-05-01T08:43:50.864Z</time></trkpt><trkpt lat="44.7384" lon="9.6671883"><ele>940.8</ele><time>2026-05-01T08:43:51.865Z</time></trkpt><trkpt lat="44.738355" lon="9.6673267"><ele>943.4</ele><time>2026-05-01T08:43:52.864Z</time></trkpt><trkpt lat="44.7383367" lon="9.667465"><ele>946.0</ele><time>2026-05-01T08:43:53.864Z</time></trkpt><trkpt lat="44.73834" lon="9.6676167"><ele>946.0</ele><time>2026-05-01T08:43:54.864Z</time></trkpt><trkpt lat="44.7383267" lon="9.667755"><ele>945.9999999999999</ele><time>2026-05-01T08:43:55.864Z</time></trkpt><trkpt lat="44.7382933" lon="9.66787"><ele>945.9999999999999</ele><time>2026-05-01T08:43:56.864Z</time></trkpt><trkpt lat="44.7382367" lon="9.66798"><ele>946.0</ele><time>2026-05-01T08:43:57.864Z</time></trkpt><trkpt lat="44.7381467" lon="9.6680833"><ele>946.0</ele><time>2026-05-01T08:43:58.864Z</time></trkpt><trkpt lat="44.7380467" lon="9.668165"><ele>946.5</ele><time>2026-05-01T08:43:59.864Z</time></trkpt><trkpt lat="44.7379467" lon="9.6682483"><ele>947.0</ele><time>2026-05-01T08:44:00.864Z</time></trkpt><trkpt lat="44.7378433" lon="9.66833"><ele>947.5</ele><time>2026-05-01T08:44:01.864Z</time></trkpt><trkpt lat="44.737735" lon="9.6684183"><ele>948.0</ele><time>2026-05-01T08:44:02.865Z</time></trkpt><trkpt lat="44.7376333" lon="9.6685167"><ele>949.0</ele><time>2026-05-01T08:44:03.864Z</time></trkpt><trkpt lat="44.7375267" lon="9.6686217"><ele>950.0</ele><time>2026-05-01T08:44:04.864Z</time></trkpt><trkpt lat="44.73742" lon="9.66873"><ele>951.0</ele><time>2026-05-01T08:44:05.865Z</time></trkpt><trkpt lat="44.7373317" lon="9.6688383"><ele>952.0</ele><time>2026-05-01T08:44:06.864Z</time></trkpt><trkpt lat="44.7372317" lon="9.6689433"><ele>952.0</ele><time>2026-05-01T08:44:07.864Z</time></trkpt><trkpt lat="44.737125" lon="9.6690283"><ele>952.0</ele><time>2026-05-01T08:44:08.864Z</time></trkpt><trkpt lat="44.7370083" lon="9.6691083"><ele>952.0</ele><time>2026-05-01T08:44:09.864Z</time></trkpt><trkpt lat="44.73689" lon="9.6691917"><ele>952.0</ele><time>2026-05-01T08:44:10.864Z</time></trkpt><trkpt lat="44.7367667" lon="9.6692783"><ele>954.0</ele><time>2026-05-01T08:44:11.864Z</time></trkpt><trkpt lat="44.7366383" lon="9.669365"><ele>956.0</ele><time>2026-05-01T08:44:12.864Z</time></trkpt><trkpt lat="44.7365267" lon="9.6694483"><ele>958.0</ele><time>2026-05-01T08:44:13.864Z</time></trkpt><trkpt lat="44.7364167" lon="9.6695317"><ele>960.0</ele><time>2026-05-01T08:44:14.864Z</time></trkpt><trkpt lat="44.7363033" lon="9.6696"><ele>960.0</ele><time>2026-05-01T08:44:15.864Z</time></trkpt><trkpt lat="44.7361817" lon="9.6696583"><ele>960.0</ele><time>2026-05-01T08:44:16.864Z</time></trkpt><trkpt lat="44.7360583" lon="9.669695"><ele>960.0</ele><time>2026-05-01T08:44:17.864Z</time></trkpt><trkpt lat="44.7359317" lon="9.6697217"><ele>960.0</ele><time>2026-05-01T08:44:18.864Z</time></trkpt><trkpt lat="44.7358033" lon="9.6697283"><ele>963.5</ele><time>2026-05-01T08:44:19.864Z</time></trkpt><trkpt lat="44.735685" lon="9.669715"><ele>967.0</ele><time>2026-05-01T08:44:20.864Z</time></trkpt><trkpt lat="44.735555" lon="9.6697083"><ele>970.5</ele><time>2026-05-01T08:44:21.864Z</time></trkpt><trkpt lat="44.7354467" lon="9.669705"><ele>974.0</ele><time>2026-05-01T08:44:22.864Z</time></trkpt><trkpt lat="44.735325" lon="9.66971"><ele>976.0</ele><time>2026-05-01T08:44:23.864Z</time></trkpt><trkpt lat="44.7351867" lon="9.6697083"><ele>978.0</ele><time>2026-05-01T08:44:24.864Z</time></trkpt><trkpt lat="44.7350517" lon="9.6696883"><ele>980.0</ele><time>2026-05-01T08:44:25.864Z</time></trkpt><trkpt lat="44.7349133" lon="9.669655"><ele>982.0</ele><time>2026-05-01T08:44:26.864Z</time></trkpt><trkpt lat="44.7347833" lon="9.6696317"><ele>982.0</ele><time>2026-05-01T08:44:27.864Z</time></trkpt><trkpt lat="44.7346533" lon="9.6696067"><ele>982.0</ele><time>2026-05-01T08:44:28.864Z</time></trkpt><trkpt lat="44.73452" lon="9.669575"><ele>982.0</ele><time>2026-05-01T08:44:29.864Z</time></trkpt><trkpt lat="44.7343767" lon="9.66957"><ele>982.0</ele><time>2026-05-01T08:44:30.864Z</time></trkpt><trkpt lat="44.7342433" lon="9.6696217"><ele>983.75</ele><time>2026-05-01T08:44:31.864Z</time></trkpt><trkpt lat="44.734115" lon="9.6697033"><ele>985.5</ele><time>2026-05-01T08:44:32.864Z</time></trkpt><trkpt lat="44.7339833" lon="9.6697883"><ele>987.25</ele><time>2026-05-01T08:44:33.864Z</time></trkpt><trkpt lat="44.7338717" lon="9.6698717"><ele>989.0</ele><time>2026-05-01T08:44:34.864Z</time></trkpt><trkpt lat="44.7337567" lon="9.6699483"><ele>989.0</ele><time>2026-05-01T08:44:35.864Z</time></trkpt><trkpt lat="44.7336233" lon="9.6700017"><ele>989.0</ele><time>2026-05-01T08:44:36.864Z</time></trkpt><trkpt lat="44.7334733" lon="9.670025"><ele>989.0</ele><time>2026-05-01T08:44:37.864Z</time></trkpt><trkpt lat="44.7333183" lon="9.670025"><ele>989.0</ele><time>2026-05-01T08:44:38.864Z</time></trkpt><trkpt lat="44.7331667" lon="9.6700167"><ele>988.75</ele><time>2026-05-01T08:44:39.864Z</time></trkpt><trkpt lat="44.7330317" lon="9.6699983"><ele>988.5</ele><time>2026-05-01T08:44:40.864Z</time></trkpt><trkpt lat="44.7329067" lon="9.6699617"><ele>988.25</ele><time>2026-05-01T08:44:41.864Z</time></trkpt><trkpt lat="44.732775" lon="9.6698867"><ele>988.0</ele><time>2026-05-01T08:44:42.864Z</time></trkpt><trkpt lat="44.732645" lon="9.6697833"><ele>987.5</ele><time>2026-05-01T08:44:43.864Z</time></trkpt><trkpt lat="44.732535" lon="9.6696683"><ele>987.0</ele><time>2026-05-01T08:44:44.864Z</time></trkpt><trkpt lat="44.7324333" lon="9.6695483"><ele>986.5</ele><time>2026-05-01T08:44:45.865Z</time></trkpt><trkpt lat="44.732345" lon="9.6694083"><ele>986.0</ele><time>2026-05-01T08:44:46.864Z</time></trkpt><trkpt lat="44.73227" lon="9.6692733"><ele>984.5</ele><time>2026-05-01T08:44:47.864Z</time></trkpt><trkpt lat="44.7322133" lon="9.6691383"><ele>983.0</ele><time>2026-05-01T08:44:48.864Z</time></trkpt><trkpt lat="44.7321567" lon="9.668995"><ele>981.5</ele><time>2026-05-01T08:44:49.864Z</time></trkpt><trkpt lat="44.7320967" lon="9.668845"><ele>980.0</ele><time>2026-05-01T08:44:50.864Z</time></trkpt><trkpt lat="44.7320317" lon="9.6687033"><ele>980.8</ele><time>2026-05-01T08:44:51.864Z</time></trkpt><trkpt lat="44.73196" lon="9.668575"><ele>981.6</ele><time>2026-05-01T08:44:52.864Z</time></trkpt><trkpt lat="44.7318817" lon="9.66847"><ele>982.4000000000001</ele><time>2026-05-01T08:44:53.864Z</time></trkpt><trkpt lat="44.7318017" lon="9.66837"><ele>983.2</ele><time>2026-05-01T08:44:54.864Z</time></trkpt><trkpt lat="44.73172" lon="9.6682867"><ele>984.0</ele><time>2026-05-01T08:44:55.864Z</time></trkpt><trkpt lat="44.7316433" lon="9.6682167"><ele>984.0000000000001</ele><time>2026-05-01T08:44:56.864Z</time></trkpt><trkpt lat="44.7315733" lon="9.6681633"><ele>984.0</ele><time>2026-05-01T08:44:57.864Z</time></trkpt><trkpt lat="44.7315083" lon="9.6681217"><ele>984.0000000000001</ele><time>2026-05-01T08:44:58.864Z</time></trkpt><trkpt lat="44.7314467" lon="9.668085"><ele>984.0000000000001</ele><time>2026-05-01T08:44:59.864Z</time></trkpt><trkpt lat="44.7313867" lon="9.6680533"><ele>984.0</ele><time>2026-05-01T08:45:00.864Z</time></trkpt><trkpt lat="44.73133" lon="9.6680033"><ele>984.0000000000001</ele><time>2026-05-01T08:45:01.865Z</time></trkpt><trkpt lat="44.731285" lon="9.66794"><ele>984.0000000000001</ele><time>2026-05-01T08:45:02.865Z</time></trkpt><trkpt lat="44.7312483" lon="9.667785"><ele>983.8000000000001</ele><time>2026-05-01T08:45:04.864Z</time></trkpt><trkpt lat="44.7312467" lon="9.6676267"><ele>983.6000000000001</ele><time>2026-05-01T08:45:06.864Z</time></trkpt><trkpt lat="44.7312367" lon="9.6675383"><ele>983.4</ele><time>2026-05-01T08:45:08.864Z</time></trkpt><trkpt lat="44.731165" lon="9.66748"><ele>983.2</ele><time>2026-05-01T08:45:11.864Z</time></trkpt><trkpt lat="44.73108" lon="9.6673867"><ele>983.0</ele><time>2026-05-01T08:45:13.864Z</time></trkpt><trkpt lat="44.7310033" lon="9.6673083"><ele>983.0</ele><time>2026-05-01T08:45:14.864Z</time></trkpt><trkpt lat="44.7309167" lon="9.6672283"><ele>983.0</ele><time>2026-05-01T08:45:15.864Z</time></trkpt><trkpt lat="44.7308167" lon="9.667175"><ele>983.0</ele><time>2026-05-01T08:45:16.864Z</time></trkpt><trkpt lat="44.7307133" lon="9.6671167"><ele>983.0</ele><time>2026-05-01T08:45:17.864Z</time></trkpt><trkpt lat="44.73062" lon="9.6670467"><ele>983.0</ele><time>2026-05-01T08:45:18.864Z</time></trkpt><trkpt lat="44.730545" lon="9.6669583"><ele>984.0</ele><time>2026-05-01T08:45:19.864Z</time></trkpt><trkpt lat="44.7304867" lon="9.6668417"><ele>985.0</ele><time>2026-05-01T08:45:20.864Z</time></trkpt><trkpt lat="44.7304417" lon="9.666705"><ele>986.0</ele><time>2026-05-01T08:45:21.864Z</time></trkpt><trkpt lat="44.7303967" lon="9.6665717"><ele>987.0</ele><time>2026-05-01T08:45:22.864Z</time></trkpt><trkpt lat="44.73036" lon="9.666435"><ele>988.0</ele><time>2026-05-01T08:45:23.864Z</time></trkpt><trkpt lat="44.7303017" lon="9.6663133"><ele>988.0</ele><time>2026-05-01T08:45:24.865Z</time></trkpt><trkpt lat="44.7302283" lon="9.6661967"><ele>988.0</ele><time>2026-05-01T08:45:25.864Z</time></trkpt><trkpt lat="44.7301433" lon="9.6660883"><ele>988.0</ele><time>2026-05-01T08:45:26.864Z</time></trkpt><trkpt lat="44.7300567" lon="9.6659817"><ele>988.0</ele><time>2026-05-01T08:45:27.864Z</time></trkpt><trkpt lat="44.7299667" lon="9.6658733"><ele>986.75</ele><time>2026-05-01T08:45:28.864Z</time></trkpt><trkpt lat="44.7298833" lon="9.66576"><ele>985.5</ele><time>2026-05-01T08:45:29.864Z</time></trkpt><trkpt lat="44.7298" lon="9.665635"><ele>984.25</ele><time>2026-05-01T08:45:30.864Z</time></trkpt><trkpt lat="44.729715" lon="9.6655067"><ele>983.0</ele><time>2026-05-01T08:45:31.864Z</time></trkpt><trkpt lat="44.7296383" lon="9.66538"><ele>984.0</ele><time>2026-05-01T08:45:32.864Z</time></trkpt><trkpt lat="44.72957" lon="9.6652517"><ele>985.0</ele><time>2026-05-01T08:45:33.864Z</time></trkpt><trkpt lat="44.7295067" lon="9.6651183"><ele>986.0</ele><time>2026-05-01T08:45:34.864Z</time></trkpt><trkpt lat="44.7294467" lon="9.6649833"><ele>987.0</ele><time>2026-05-01T08:45:35.864Z</time></trkpt><trkpt lat="44.7293983" lon="9.6648383"><ele>985.0</ele><time>2026-05-01T08:45:36.864Z</time></trkpt><trkpt lat="44.7293667" lon="9.6646917"><ele>983.0</ele><time>2026-05-01T08:45:37.864Z</time></trkpt><trkpt lat="44.7293483" lon="9.6645433"><ele>981.0</ele><time>2026-05-01T08:45:38.864Z</time></trkpt><trkpt lat="44.7293233" lon="9.6644"><ele>979.0</ele><time>2026-05-01T08:45:39.865Z</time></trkpt><trkpt lat="44.7292683" lon="9.6642817"><ele>977.0</ele><time>2026-05-01T08:45:40.864Z</time></trkpt><trkpt lat="44.7291833" lon="9.6642"><ele>977.0</ele><time>2026-05-01T08:45:41.864Z</time></trkpt><trkpt lat="44.7290833" lon="9.6641517"><ele>977.0</ele><time>2026-05-01T08:45:42.864Z</time></trkpt><trkpt lat="44.7289717" lon="9.6641517"><ele>977.0</ele><time>2026-05-01T08:45:43.864Z</time></trkpt><trkpt lat="44.7288567" lon="9.6641783"><ele>977.0</ele><time>2026-05-01T08:45:44.864Z</time></trkpt><trkpt lat="44.7287383" lon="9.66419"><ele>977.0</ele><time>2026-05-01T08:45:45.864Z</time></trkpt><trkpt lat="44.728625" lon="9.6641833"><ele>977.0</ele><time>2026-05-01T08:45:46.864Z</time></trkpt><trkpt lat="44.7285133" lon="9.66417"><ele>977.0</ele><time>2026-05-01T08:45:47.864Z</time></trkpt><trkpt lat="44.7284183" lon="9.6641483"><ele>977.0</ele><time>2026-05-01T08:45:48.864Z</time></trkpt><trkpt lat="44.72832" lon="9.664115"><ele>977.0</ele><time>2026-05-01T08:45:49.864Z</time></trkpt><trkpt lat="44.7282233" lon="9.664055"><ele>978.6</ele><time>2026-05-01T08:45:50.864Z</time></trkpt><trkpt lat="44.7281483" lon="9.6639583"><ele>980.2</ele><time>2026-05-01T08:45:51.864Z</time></trkpt><trkpt lat="44.728085" lon="9.6638433"><ele>981.8</ele><time>2026-05-01T08:45:52.864Z</time></trkpt><trkpt lat="44.728025" lon="9.6637217"><ele>983.4</ele><time>2026-05-01T08:45:53.864Z</time></trkpt><trkpt lat="44.7279533" lon="9.6636183"><ele>985.0</ele><time>2026-05-01T08:45:54.864Z</time></trkpt><trkpt lat="44.7278633" lon="9.66353"><ele>985.25</ele><time>2026-05-01T08:45:55.864Z</time></trkpt><trkpt lat="44.7277583" lon="9.66347"><ele>985.5</ele><time>2026-05-01T08:45:56.864Z</time></trkpt><trkpt lat="44.7276417" lon="9.6634267"><ele>985.75</ele><time>2026-05-01T08:45:57.865Z</time></trkpt><trkpt lat="44.7275317" lon="9.6633967"><ele>986.0</ele><time>2026-05-01T08:45:58.864Z</time></trkpt><trkpt lat="44.7274183" lon="9.6633583"><ele>989.0</ele><time>2026-05-01T08:45:59.864Z</time></trkpt><trkpt lat="44.7273" lon="9.66331"><ele>992.0</ele><time>2026-05-01T08:46:00.864Z</time></trkpt><trkpt lat="44.727195" lon="9.6632383"><ele>995.0</ele><time>2026-05-01T08:46:01.864Z</time></trkpt><trkpt lat="44.7270933" lon="9.6631717"><ele>998.0</ele><time>2026-05-01T08:46:02.864Z</time></trkpt><trkpt lat="44.7269983" lon="9.6631033"><ele>998.0000000000001</ele><time>2026-05-01T08:46:03.864Z</time></trkpt><trkpt lat="44.7269117" lon="9.66304"><ele>998.0</ele><time>2026-05-01T08:46:04.864Z</time></trkpt><trkpt lat="44.7268367" lon="9.66298"><ele>998.0</ele><time>2026-05-01T08:46:05.864Z</time></trkpt><trkpt lat="44.7267583" lon="9.6629117"><ele>998.0</ele><time>2026-05-01T08:46:06.864Z</time></trkpt><trkpt lat="44.7266883" lon="9.6628467"><ele>998.0000000000001</ele><time>2026-05-01T08:46:07.864Z</time></trkpt><trkpt lat="44.7266433" lon="9.6627683"><ele>998.0</ele><time>2026-05-01T08:46:08.864Z</time></trkpt><trkpt lat="44.7266167" lon="9.6626817"><ele>1000.0000000000001</ele><time>2026-05-01T08:46:09.864Z</time></trkpt><trkpt lat="44.7265817" lon="9.6625667"><ele>1002.0</ele><time>2026-05-01T08:46:11.864Z</time></trkpt><trkpt lat="44.726495" lon="9.6625533"><ele>1004.0</ele><time>2026-05-01T08:46:14.864Z</time></trkpt><trkpt lat="44.7264333" lon="9.6625917"><ele>1006.0</ele><time>2026-05-01T08:46:15.864Z</time></trkpt><trkpt lat="44.726325" lon="9.662595"><ele>1008.0000000000001</ele><time>2026-05-01T08:46:17.864Z</time></trkpt><trkpt lat="44.7262667" lon="9.6625517"><ele>1010.0</ele><time>2026-05-01T08:46:18.864Z</time></trkpt><trkpt lat="44.7262117" lon="9.662485"><ele>1010.0000000000001</ele><time>2026-05-01T08:46:19.865Z</time></trkpt><trkpt lat="44.7261583" lon="9.6624167"><ele>1010.0</ele><time>2026-05-01T08:46:20.864Z</time></trkpt><trkpt lat="44.7260933" lon="9.6623517"><ele>1010.0</ele><time>2026-05-01T08:46:21.864Z</time></trkpt><trkpt lat="44.72603" lon="9.662295"><ele>1010.0</ele><time>2026-05-01T08:46:22.864Z</time></trkpt><trkpt lat="44.7259667" lon="9.6622417"><ele>1010.0000000000001</ele><time>2026-05-01T08:46:23.864Z</time></trkpt><trkpt lat="44.72588" lon="9.662215"><ele>1010.0</ele><time>2026-05-01T08:46:25.864Z</time></trkpt><trkpt lat="44.725765" lon="9.6622317"><ele>1013.0000000000001</ele><time>2026-05-01T08:46:27.864Z</time></trkpt><trkpt lat="44.725665" lon="9.6623217"><ele>1016.0</ele><time>2026-05-01T08:46:29.864Z</time></trkpt><trkpt lat="44.7256083" lon="9.6623917"><ele>1019.0</ele><time>2026-05-01T08:46:30.864Z</time></trkpt><trkpt lat="44.72556" lon="9.6624667"><ele>1022.0</ele><time>2026-05-01T08:46:31.865Z</time></trkpt><trkpt lat="44.725505" lon="9.66255"><ele>1025.0</ele><time>2026-05-01T08:46:32.864Z</time></trkpt><trkpt lat="44.725425" lon="9.6626267"><ele>1028.0</ele><time>2026-05-01T08:46:33.864Z</time></trkpt><trkpt lat="44.7253483" lon="9.6627"><ele>1028.0</ele><time>2026-05-01T08:46:34.864Z</time></trkpt><trkpt lat="44.7252783" lon="9.6627633"><ele>1028.0</ele><time>2026-05-01T08:46:35.864Z</time></trkpt><trkpt lat="44.7252117" lon="9.662835"><ele>1028.0</ele><time>2026-05-01T08:46:36.865Z</time></trkpt><trkpt lat="44.7251317" lon="9.6628667"><ele>1028.0</ele><time>2026-05-01T08:46:37.864Z</time></trkpt><trkpt lat="44.7250583" lon="9.6628933"><ele>1028.0</ele><time>2026-05-01T08:46:38.864Z</time></trkpt><trkpt lat="44.7249567" lon="9.6628633"><ele>1028.0</ele><time>2026-05-01T08:46:40.864Z</time></trkpt><trkpt lat="44.7249167" lon="9.66277"><ele>1034.8</ele><time>2026-05-01T08:46:41.864Z</time></trkpt><trkpt lat="44.7248583" lon="9.662665"><ele>1041.6</ele><time>2026-05-01T08:46:42.864Z</time></trkpt><trkpt lat="44.724785" lon="9.6625517"><ele>1048.4</ele><time>2026-05-01T08:46:44.864Z</time></trkpt><trkpt lat="44.72471" lon="9.6624883"><ele>1055.2</ele><time>2026-05-01T08:46:46.864Z</time></trkpt><trkpt lat="44.7245983" lon="9.6624483"><ele>1062.0</ele><time>2026-05-01T08:46:48.864Z</time></trkpt><trkpt lat="44.724495" lon="9.6623767"><ele>1064.4</ele><time>2026-05-01T08:46:50.865Z</time></trkpt><trkpt lat="44.724395" lon="9.6623567"><ele>1066.8000000000002</ele><time>2026-05-01T08:46:52.864Z</time></trkpt><trkpt lat="44.7243267" lon="9.6623533"><ele>1069.2</ele><time>2026-05-01T08:46:54.864Z</time></trkpt><trkpt lat="44.7242483" lon="9.6623583"><ele>1071.6000000000001</ele><time>2026-05-01T08:46:57.864Z</time></trkpt><trkpt lat="44.7241367" lon="9.6623483"><ele>1074.0</ele><time>2026-05-01T08:46:59.864Z</time></trkpt><trkpt lat="44.7240233" lon="9.6622883"><ele>1074.0</ele><time>2026-05-01T08:47:07.864Z</time></trkpt><trkpt lat="44.72396" lon="9.6622033"><ele>1074.0</ele><time>2026-05-01T08:47:09.864Z</time></trkpt><trkpt lat="44.723935" lon="9.6620983"><ele>1074.0</ele><time>2026-05-01T08:47:12.865Z</time></trkpt><trkpt lat="44.7239633" lon="9.662"><ele>1074.0</ele><time>2026-05-01T08:47:15.864Z</time></trkpt><trkpt lat="44.7240133" lon="9.6619283"><ele>1074.0</ele><time>2026-05-01T08:47:17.864Z</time></trkpt><trkpt lat="44.72408" lon="9.6618167"><ele>1074.0</ele><time>2026-05-01T08:47:19.864Z</time></trkpt><trkpt lat="44.7241333" lon="9.6617083"><ele>1073.6000000000001</ele><time>2026-05-01T08:47:21.864Z</time></trkpt><trkpt lat="44.7241883" lon="9.6615817"><ele>1073.2</ele><time>2026-05-01T08:47:23.864Z</time></trkpt><trkpt lat="44.724255" lon="9.6614767"><ele>1072.8000000000002</ele><time>2026-05-01T08:47:25.864Z</time></trkpt><trkpt lat="44.7243233" lon="9.6613783"><ele>1072.4</ele><time>2026-05-01T08:47:27.864Z</time></trkpt><trkpt lat="44.7244117" lon="9.6613133"><ele>1072.0</ele><time>2026-05-01T08:47:29.864Z</time></trkpt><trkpt lat="44.7245133" lon="9.6612433"><ele>1072.0</ele><time>2026-05-01T08:47:31.864Z</time></trkpt><trkpt lat="44.7245967" lon="9.661195"><ele>1072.0</ele><time>2026-05-01T08:47:33.864Z</time></trkpt><trkpt lat="44.7246417" lon="9.6611183"><ele>1072.0</ele><time>2026-05-01T08:47:34.864Z</time></trkpt><trkpt lat="44.72464" lon="9.6609567"><ele>1072.0</ele><time>2026-05-01T08:47:36.864Z</time></trkpt><trkpt lat="44.72461" lon="9.6608717"><ele>1072.0</ele><time>2026-05-01T08:47:37.864Z</time></trkpt><trkpt lat="44.72459" lon="9.6607467"><ele>1072.0</ele><time>2026-05-01T08:47:38.864Z</time></trkpt><trkpt lat="44.7245267" lon="9.6606483"><ele>1074.3333333333333</ele><time>2026-05-01T08:47:39.864Z</time></trkpt><trkpt lat="44.7244667" lon="9.6605533"><ele>1076.6666666666665</ele><time>2026-05-01T08:47:40.864Z</time></trkpt><trkpt lat="44.72441" lon="9.6604217"><ele>1079.0</ele><time>2026-05-01T08:47:42.865Z</time></trkpt><trkpt lat="44.724395" lon="9.6603333"><ele>1081.3333333333333</ele><time>2026-05-01T08:47:44.864Z</time></trkpt><trkpt lat="44.7243383" lon="9.6602633"><ele>1083.6666666666667</ele><time>2026-05-01T08:47:47.864Z</time></trkpt><trkpt lat="44.72427" lon="9.6602183"><ele>1086.0</ele><time>2026-05-01T08:47:49.864Z</time></trkpt><trkpt lat="44.72421" lon="9.6601233"><ele>1091.6666666666667</ele><time>2026-05-01T08:47:51.864Z</time></trkpt><trkpt lat="44.7241583" lon="9.6600183"><ele>1097.3333333333333</ele><time>2026-05-01T08:47:53.864Z</time></trkpt><trkpt lat="44.72412" lon="9.6598967"><ele>1103.0</ele><time>2026-05-01T08:47:55.864Z</time></trkpt><trkpt lat="44.7240783" lon="9.6598117"><ele>1108.6666666666665</ele><time>2026-05-01T08:47:57.864Z</time></trkpt><trkpt lat="44.7240683" lon="9.65968"><ele>1114.3333333333333</ele><time>2026-05-01T08:48:01.864Z</time></trkpt><trkpt lat="44.72406" lon="9.6595783"><ele>1120.0</ele><time>2026-05-01T08:48:03.864Z</time></trkpt><trkpt lat="44.7240483" lon="9.65949"><ele>1122.3333333333333</ele><time>2026-05-01T08:48:04.864Z</time></trkpt><trkpt lat="44.7240633" lon="9.6593683"><ele>1124.6666666666665</ele><time>2026-05-01T08:48:06.864Z</time></trkpt><trkpt lat="44.7240983" lon="9.65924"><ele>1127.0</ele><time>2026-05-01T08:48:08.865Z</time></trkpt><trkpt lat="44.7241267" lon="9.6591383"><ele>1129.3333333333333</ele><time>2026-05-01T08:48:09.866Z</time></trkpt><trkpt lat="44.7241517" lon="9.659025"><ele>1131.6666666666667</ele><time>2026-05-01T08:48:10.866Z</time></trkpt><trkpt lat="44.7241733" lon="9.6588917"><ele>1134.0</ele><time>2026-05-01T08:48:11.865Z</time></trkpt><trkpt lat="44.7241883" lon="9.658785"><ele>1134.0</ele><time>2026-05-01T08:48:12.865Z</time></trkpt><trkpt lat="44.7242067" lon="9.658695"><ele>1134.0</ele><time>2026-05-01T08:48:13.865Z</time></trkpt><trkpt lat="44.7242233" lon="9.65857"><ele>1134.0</ele><time>2026-05-01T08:48:15.865Z</time></trkpt><trkpt lat="44.724195" lon="9.6584483"><ele>1134.0</ele><time>2026-05-01T08:48:18.865Z</time></trkpt><trkpt lat="44.724125" lon="9.6583533"><ele>1134.0</ele><time>2026-05-01T08:48:20.865Z</time></trkpt><trkpt lat="44.7240683" lon="9.6582267"><ele>1134.3333333333333</ele><time>2026-05-01T08:48:22.865Z</time></trkpt><trkpt lat="44.7240467" lon="9.658115"><ele>1134.6666666666667</ele><time>2026-05-01T08:48:24.865Z</time></trkpt><trkpt lat="44.72405" lon="9.6580067"><ele>1135.0</ele><time>2026-05-01T08:48:26.865Z</time></trkpt><trkpt lat="44.7240567" lon="9.6579067"><ele>1135.3333333333335</ele><time>2026-05-01T08:48:28.865Z</time></trkpt><trkpt lat="44.7240517" lon="9.657815"><ele>1135.6666666666667</ele><time>2026-05-01T08:48:30.865Z</time></trkpt><trkpt lat="44.7240283" lon="9.6576933"><ele>1136.0</ele><time>2026-05-01T08:48:33.865Z</time></trkpt><trkpt lat="44.7239833" lon="9.65761"><ele>1137.2</ele><time>2026-05-01T08:48:35.865Z</time></trkpt><trkpt lat="44.72393" lon="9.6575067"><ele>1138.3999999999999</ele><time>2026-05-01T08:48:37.865Z</time></trkpt><trkpt lat="44.7238583" lon="9.6573917"><ele>1139.6</ele><time>2026-05-01T08:48:39.865Z</time></trkpt><trkpt lat="44.7238317" lon="9.657255"><ele>1140.8</ele><time>2026-05-01T08:48:41.866Z</time></trkpt><trkpt lat="44.7237883" lon="9.657115"><ele>1142.0</ele><time>2026-05-01T08:48:43.865Z</time></trkpt><trkpt lat="44.723755" lon="9.657"><ele>1143.6666666666667</ele><time>2026-05-01T08:48:44.865Z</time></trkpt><trkpt lat="44.7237267" lon="9.6568983"><ele>1145.3333333333335</ele><time>2026-05-01T08:48:45.865Z</time></trkpt><trkpt lat="44.72369" lon="9.6567517"><ele>1147.0</ele><time>2026-05-01T08:48:47.865Z</time></trkpt><trkpt lat="44.723665" lon="9.6566533"><ele>1148.6666666666667</ele><time>2026-05-01T08:48:48.865Z</time></trkpt><trkpt lat="44.72362" lon="9.6565083"><ele>1150.3333333333333</ele><time>2026-05-01T08:48:50.865Z</time></trkpt><trkpt lat="44.723595" lon="9.65641"><ele>1152.0</ele><time>2026-05-01T08:48:51.865Z</time></trkpt><trkpt lat="44.7235567" lon="9.6563167"><ele>1154.3333333333333</ele><time>2026-05-01T08:48:53.865Z</time></trkpt><trkpt lat="44.7235117" lon="9.6561883"><ele>1156.6666666666667</ele><time>2026-05-01T08:48:55.865Z</time></trkpt><trkpt lat="44.7234833" lon="9.656095"><ele>1159.0</ele><time>2026-05-01T08:48:57.865Z</time></trkpt><trkpt lat="44.7234783" lon="9.6559867"><ele>1161.3333333333335</ele><time>2026-05-01T08:48:59.865Z</time></trkpt><trkpt lat="44.72352" lon="9.6559067"><ele>1163.6666666666667</ele><time>2026-05-01T08:49:01.865Z</time></trkpt><trkpt lat="44.7235767" lon="9.6558167"><ele>1166.0</ele><time>2026-05-01T08:49:03.865Z</time></trkpt><trkpt lat="44.7236317" lon="9.6557333"><ele>1166.8</ele><time>2026-05-01T08:49:05.865Z</time></trkpt><trkpt lat="44.7237117" lon="9.6556117"><ele>1167.6</ele><time>2026-05-01T08:49:07.865Z</time></trkpt><trkpt lat="44.7237883" lon="9.655495"><ele>1168.4</ele><time>2026-05-01T08:49:09.865Z</time></trkpt><trkpt lat="44.7238783" lon="9.6553667"><ele>1169.2</ele><time>2026-05-01T08:49:11.865Z</time></trkpt><trkpt lat="44.7239267" lon="9.6552983"><ele>1170.0</ele><time>2026-05-01T08:49:12.865Z</time></trkpt><trkpt lat="44.723975" lon="9.6552283"><ele>1172.0</ele><time>2026-05-01T08:49:13.865Z</time></trkpt><trkpt lat="44.7240467" lon="9.6551"><ele>1174.0</ele><time>2026-05-01T08:49:15.865Z</time></trkpt><trkpt lat="44.7240833" lon="9.6550033"><ele>1176.0</ele><time>2026-05-01T08:49:17.865Z</time></trkpt><trkpt lat="44.7240867" lon="9.65489"><ele>1178.0</ele><time>2026-05-01T08:49:19.865Z</time></trkpt><trkpt lat="44.7240517" lon="9.6547983"><ele>1180.0</ele><time>2026-05-01T08:49:21.865Z</time></trkpt><trkpt lat="44.7240233" lon="9.654705"><ele>1182.0</ele><time>2026-05-01T08:49:23.865Z</time></trkpt><trkpt lat="44.7239583" lon="9.6546033"><ele>1182.0</ele><time>2026-05-01T08:49:25.865Z</time></trkpt><trkpt lat="44.7239117" lon="9.6545433"><ele>1182.0</ele><time>2026-05-01T08:49:26.865Z</time></trkpt><trkpt lat="44.72386" lon="9.6544833"><ele>1182.0</ele><time>2026-05-01T08:49:27.865Z</time></trkpt><trkpt lat="44.7238017" lon="9.65443"><ele>1182.0</ele><time>2026-05-01T08:49:28.865Z</time></trkpt><trkpt lat="44.7237233" lon="9.6543533"><ele>1182.0</ele><time>2026-05-01T08:49:30.865Z</time></trkpt><trkpt lat="44.72367" lon="9.6542733"><ele>1182.0</ele><time>2026-05-01T08:49:33.865Z</time></trkpt><trkpt lat="44.7236183" lon="9.654215"><ele>1182.0</ele><time>2026-05-01T08:49:35.865Z</time></trkpt><trkpt lat="44.7235517" lon="9.6541767"><ele>1183.8333333333333</ele><time>2026-05-01T08:49:37.865Z</time></trkpt><trkpt lat="44.723485" lon="9.6541383"><ele>1185.6666666666667</ele><time>2026-05-01T08:49:39.865Z</time></trkpt><trkpt lat="44.7233867" lon="9.654065"><ele>1187.5</ele><time>2026-05-01T08:49:41.865Z</time></trkpt><trkpt lat="44.7232817" lon="9.6539717"><ele>1189.3333333333335</ele><time>2026-05-01T08:49:43.865Z</time></trkpt><trkpt lat="44.723225" lon="9.6539317"><ele>1191.1666666666667</ele><time>2026-05-01T08:49:44.865Z</time></trkpt><trkpt lat="44.7231633" lon="9.6538983"><ele>1193.0</ele><time>2026-05-01T08:49:45.865Z</time></trkpt><trkpt lat="44.7230583" lon="9.65385"><ele>1193.0</ele><time>2026-05-01T08:49:47.865Z</time></trkpt><trkpt lat="44.7229933" lon="9.6538217"><ele>1193.0</ele><time>2026-05-01T08:49:48.866Z</time></trkpt><trkpt lat="44.7229067" lon="9.6537833"><ele>1193.0</ele><time>2026-05-01T08:49:50.865Z</time></trkpt><trkpt lat="44.72282" lon="9.6537417"><ele>1193.0</ele><time>2026-05-01T08:49:52.865Z</time></trkpt><trkpt lat="44.7227533" lon="9.6536833"><ele>1193.0</ele><time>2026-05-01T08:49:54.865Z</time></trkpt><trkpt lat="44.7226933" lon="9.6536167"><ele>1193.0</ele><time>2026-05-01T08:49:56.865Z</time></trkpt><trkpt lat="44.7226417" lon="9.6535283"><ele>1196.5</ele><time>2026-05-01T08:49:58.865Z</time></trkpt><trkpt lat="44.722565" lon="9.6533917"><ele>1200.0</ele><time>2026-05-01T08:50:00.865Z</time></trkpt><trkpt lat="44.7225217" lon="9.6533133"><ele>1203.5</ele><time>2026-05-01T08:50:01.865Z</time></trkpt><trkpt lat="44.7224783" lon="9.653225"><ele>1207.0</ele><time>2026-05-01T08:50:02.865Z</time></trkpt><trkpt lat="44.7224383" lon="9.6531233"><ele>1210.5</ele><time>2026-05-01T08:50:03.865Z</time></trkpt><trkpt lat="44.7224017" lon="9.65304"><ele>1214.0</ele><time>2026-05-01T08:50:04.865Z</time></trkpt><trkpt lat="44.72235" lon="9.65291"><ele>1214.6000000000001</ele><time>2026-05-01T08:50:06.865Z</time></trkpt><trkpt lat="44.72229" lon="9.6527783"><ele>1215.2</ele><time>2026-05-01T08:50:08.865Z</time></trkpt><trkpt lat="44.7222117" lon="9.6526583"><ele>1215.8000000000002</ele><time>2026-05-01T08:50:10.865Z</time></trkpt><trkpt lat="44.7221483" lon="9.65254"><ele>1216.4</ele><time>2026-05-01T08:50:12.865Z</time></trkpt><trkpt lat="44.722115" lon="9.6524583"><ele>1217.0</ele><time>2026-05-01T08:50:13.865Z</time></trkpt><trkpt lat="44.7220267" lon="9.6522417"><ele>1217.0</ele><time>2026-05-01T08:50:15.865Z</time></trkpt><trkpt lat="44.7219917" lon="9.6520917"><ele>1217.0</ele><time>2026-05-01T08:50:17.865Z</time></trkpt><trkpt lat="44.72198" lon="9.6520033"><ele>1217.0</ele><time>2026-05-01T08:50:18.865Z</time></trkpt><trkpt lat="44.7219567" lon="9.6518467"><ele>1217.0</ele><time>2026-05-01T08:50:20.865Z</time></trkpt><trkpt lat="44.7219433" lon="9.6517133"><ele>1217.0</ele><time>2026-05-01T08:50:22.865Z</time></trkpt><trkpt lat="44.721915" lon="9.6515967"><ele>1217.2</ele><time>2026-05-01T08:50:24.865Z</time></trkpt><trkpt lat="44.72186" lon="9.6515033"><ele>1217.4</ele><time>2026-05-01T08:50:26.865Z</time></trkpt><trkpt lat="44.7218117" lon="9.6514067"><ele>1217.6</ele><time>2026-05-01T08:50:28.865Z</time></trkpt><trkpt lat="44.7217767" lon="9.65126"><ele>1217.8</ele><time>2026-05-01T08:50:30.865Z</time></trkpt><trkpt lat="44.72175" lon="9.651125"><ele>1218.0</ele><time>2026-05-01T08:50:32.865Z</time></trkpt><trkpt lat="44.72171" lon="9.650995"><ele>1215.2</ele><time>2026-05-01T08:50:34.865Z</time></trkpt><trkpt lat="44.7216567" lon="9.650885"><ele>1212.4</ele><time>2026-05-01T08:50:35.865Z</time></trkpt><trkpt lat="44.7215667" lon="9.65079"><ele>1209.6000000000001</ele><time>2026-05-01T08:50:36.865Z</time></trkpt><trkpt lat="44.7214983" lon="9.6507183"><ele>1206.8</ele><time>2026-05-01T08:50:37.865Z</time></trkpt><trkpt lat="44.721445" lon="9.6506517"><ele>1204.0</ele><time>2026-05-01T08:50:38.865Z</time></trkpt><trkpt lat="44.7213633" lon="9.6505283"><ele>1204.0</ele><time>2026-05-01T08:50:40.865Z</time></trkpt><trkpt lat="44.7213317" lon="9.6504283"><ele>1204.0</ele><time>2026-05-01T08:50:42.865Z</time></trkpt><trkpt lat="44.7213233" lon="9.6503033"><ele>1204.0</ele><time>2026-05-01T08:50:44.865Z</time></trkpt><trkpt lat="44.721325" lon="9.6502083"><ele>1204.0</ele><time>2026-05-01T08:50:45.865Z</time></trkpt><trkpt lat="44.72134" lon="9.6500833"><ele>1204.0</ele><time>2026-05-01T08:50:47.865Z</time></trkpt><trkpt lat="44.72137" lon="9.6499617"><ele>1204.0</ele><time>2026-05-01T08:50:48.865Z</time></trkpt><trkpt lat="44.721405" lon="9.6498017"><ele>1202.4</ele><time>2026-05-01T08:50:49.865Z</time></trkpt><trkpt lat="44.721445" lon="9.6496433"><ele>1200.8000000000002</ele><time>2026-05-01T08:50:50.865Z</time></trkpt><trkpt lat="44.7214783" lon="9.64952"><ele>1199.1999999999998</ele><time>2026-05-01T08:50:51.865Z</time></trkpt><trkpt lat="44.7214967" lon="9.6494267"><ele>1197.6</ele><time>2026-05-01T08:50:52.865Z</time></trkpt><trkpt lat="44.7215183" lon="9.6493317"><ele>1196.0</ele><time>2026-05-01T08:50:53.865Z</time></trkpt><trkpt lat="44.72154" lon="9.6491983"><ele>1195.8</ele><time>2026-05-01T08:50:55.865Z</time></trkpt><trkpt lat="44.7215367" lon="9.6490983"><ele>1195.6</ele><time>2026-05-01T08:50:58.865Z</time></trkpt><trkpt lat="44.72151" lon="9.6489567"><ele>1195.4</ele><time>2026-05-01T08:51:01.865Z</time></trkpt><trkpt lat="44.7214983" lon="9.6488117"><ele>1195.2</ele><time>2026-05-01T08:51:03.865Z</time></trkpt><trkpt lat="44.72152" lon="9.6487083"><ele>1195.0</ele><time>2026-05-01T08:51:04.865Z</time></trkpt><trkpt lat="44.7215833" lon="9.6485067"><ele>1195.0</ele><time>2026-05-01T08:51:05.866Z</time></trkpt><trkpt lat="44.72162" lon="9.64842"><ele>1195.0</ele><time>2026-05-01T08:51:06.865Z</time></trkpt><trkpt lat="44.7216683" lon="9.6482617"><ele>1195.0</ele><time>2026-05-01T08:51:08.865Z</time></trkpt><trkpt lat="44.7216833" lon="9.6481683"><ele>1195.0</ele><time>2026-05-01T08:51:09.865Z</time></trkpt><trkpt lat="44.7217033" lon="9.6480833"><ele>1195.0</ele><time>2026-05-01T08:51:10.865Z</time></trkpt><trkpt lat="44.72172" lon="9.6479967"><ele>1195.0</ele><time>2026-05-01T08:51:11.865Z</time></trkpt><trkpt lat="44.7217433" lon="9.64791"><ele>1194.4</ele><time>2026-05-01T08:51:12.865Z</time></trkpt><trkpt lat="44.72178" lon="9.64776"><ele>1193.8</ele><time>2026-05-01T08:51:14.865Z</time></trkpt><trkpt lat="44.7218267" lon="9.6476067"><ele>1193.2</ele><time>2026-05-01T08:51:16.866Z</time></trkpt><trkpt lat="44.7218833" lon="9.64748"><ele>1192.6</ele><time>2026-05-01T08:51:18.865Z</time></trkpt><trkpt lat="44.7219733" lon="9.6474033"><ele>1192.0</ele><time>2026-05-01T08:51:20.865Z</time></trkpt><trkpt lat="44.7220567" lon="9.6473617"><ele>1189.4</ele><time>2026-05-01T08:51:22.865Z</time></trkpt><trkpt lat="44.7221333" lon="9.6473017"><ele>1186.8000000000002</ele><time>2026-05-01T08:51:24.865Z</time></trkpt><trkpt lat="44.7222067" lon="9.6472283"><ele>1184.2</ele><time>2026-05-01T08:51:26.865Z</time></trkpt><trkpt lat="44.7222817" lon="9.6471033"><ele>1181.6000000000001</ele><time>2026-05-01T08:51:28.865Z</time></trkpt><trkpt lat="44.7223383" lon="9.6470333"><ele>1179.0</ele><time>2026-05-01T08:51:29.865Z</time></trkpt><trkpt lat="44.7224033" lon="9.6469617"><ele>1178.8333333333333</ele><time>2026-05-01T08:51:30.865Z</time></trkpt><trkpt lat="44.722465" lon="9.6468983"><ele>1178.6666666666667</ele><time>2026-05-01T08:51:31.865Z</time></trkpt><trkpt lat="44.7225117" lon="9.6468233"><ele>1178.5</ele><time>2026-05-01T08:51:32.865Z</time></trkpt><trkpt lat="44.7225617" lon="9.6467383"><ele>1178.3333333333335</ele><time>2026-05-01T08:51:33.865Z</time></trkpt><trkpt lat="44.7226283" lon="9.646655"><ele>1178.1666666666667</ele><time>2026-05-01T08:51:34.865Z</time></trkpt><trkpt lat="44.7227083" lon="9.64658"><ele>1178.0</ele><time>2026-05-01T08:51:35.865Z</time></trkpt><trkpt lat="44.72278" lon="9.6464967"><ele>1178.0</ele><time>2026-05-01T08:51:36.865Z</time></trkpt><trkpt lat="44.722845" lon="9.6464117"><ele>1178.0</ele><time>2026-05-01T08:51:37.865Z</time></trkpt><trkpt lat="44.7229283" lon="9.6462967"><ele>1178.0</ele><time>2026-05-01T08:51:38.865Z</time></trkpt><trkpt lat="44.7229983" lon="9.6462483"><ele>1178.0</ele><time>2026-05-01T08:51:39.865Z</time></trkpt><trkpt lat="44.7230633" lon="9.64622"><ele>1178.0</ele><time>2026-05-01T08:51:40.865Z</time></trkpt><trkpt lat="44.723175" lon="9.6461517"><ele>1177.8333333333335</ele><time>2026-05-01T08:51:42.865Z</time></trkpt><trkpt lat="44.72323" lon="9.6461083"><ele>1177.6666666666667</ele><time>2026-05-01T08:51:43.865Z</time></trkpt><trkpt lat="44.723295" lon="9.6460683"><ele>1177.5</ele><time>2026-05-01T08:51:44.865Z</time></trkpt><trkpt lat="44.7233683" lon="9.6460317"><ele>1177.3333333333333</ele><time>2026-05-01T08:51:45.865Z</time></trkpt><trkpt lat="44.7234333" lon="9.64601"><ele>1177.1666666666665</ele><time>2026-05-01T08:51:46.865Z</time></trkpt><trkpt lat="44.7235433" lon="9.6459617"><ele>1177.0</ele><time>2026-05-01T08:51:48.865Z</time></trkpt><trkpt lat="44.723645" lon="9.6459117"><ele>1177.0</ele><time>2026-05-01T08:51:50.865Z</time></trkpt><trkpt lat="44.723765" lon="9.6458783"><ele>1177.0</ele><time>2026-05-01T08:51:52.865Z</time></trkpt><trkpt lat="44.7238333" lon="9.6458617"><ele>1177.0</ele><time>2026-05-01T08:51:53.865Z</time></trkpt><trkpt lat="44.7238967" lon="9.6458567"><ele>1177.0</ele><time>2026-05-01T08:51:54.865Z</time></trkpt><trkpt lat="44.723975" lon="9.645835"><ele>1177.0</ele><time>2026-05-01T08:51:55.865Z</time></trkpt><trkpt lat="44.7240567" lon="9.6458183"><ele>1177.0</ele><time>2026-05-01T08:51:56.865Z</time></trkpt><trkpt lat="44.72412" lon="9.64581"><ele>1177.0</ele><time>2026-05-01T08:51:57.865Z</time></trkpt><trkpt lat="44.724195" lon="9.6458033"><ele>1177.0</ele><time>2026-05-01T08:51:59.865Z</time></trkpt><trkpt lat="44.7242617" lon="9.645785"><ele>1177.0</ele><time>2026-05-01T08:52:02.865Z</time></trkpt><trkpt lat="44.72435" lon="9.64577"><ele>1177.0</ele><time>2026-05-01T08:52:05.866Z</time></trkpt><trkpt lat="44.724415" lon="9.64575"><ele>1177.0</ele><time>2026-05-01T08:52:07.865Z</time></trkpt><trkpt lat="44.7244983" lon="9.64568"><ele>1177.0</ele><time>2026-05-01T08:52:09.865Z</time></trkpt><trkpt lat="44.7245767" lon="9.645575"><ele>1177.4</ele><time>2026-05-01T08:52:11.865Z</time></trkpt><trkpt lat="44.7246267" lon="9.64546"><ele>1177.8000000000002</ele><time>2026-05-01T08:52:13.865Z</time></trkpt><trkpt lat="44.7246983" lon="9.6453183"><ele>1178.2</ele><time>2026-05-01T08:52:15.866Z</time></trkpt><trkpt lat="44.7247667" lon="9.6452033"><ele>1178.6000000000001</ele><time>2026-05-01T08:52:16.865Z</time></trkpt><trkpt lat="44.724815" lon="9.64514"><ele>1179.0</ele><time>2026-05-01T08:52:17.865Z</time></trkpt><trkpt lat="44.7248783" lon="9.64507"><ele>1179.0</ele><time>2026-05-01T08:52:18.865Z</time></trkpt><trkpt lat="44.724945" lon="9.645015"><ele>1179.0</ele><time>2026-05-01T08:52:19.865Z</time></trkpt><trkpt lat="44.7250767" lon="9.6449"><ele>1179.0</ele><time>2026-05-01T08:52:20.865Z</time></trkpt><trkpt lat="44.7251733" lon="9.64484"><ele>1179.0</ele><time>2026-05-01T08:52:21.865Z</time></trkpt><trkpt lat="44.72527" lon="9.6447933"><ele>1179.0</ele><time>2026-05-01T08:52:22.865Z</time></trkpt><trkpt lat="44.7253717" lon="9.6447567"><ele>1179.0</ele><time>2026-05-01T08:52:23.865Z</time></trkpt><trkpt lat="44.7254617" lon="9.6447317"><ele>1179.0</ele><time>2026-05-01T08:52:24.865Z</time></trkpt><trkpt lat="44.72554" lon="9.64472"><ele>1179.0</ele><time>2026-05-01T08:52:25.865Z</time></trkpt><trkpt lat="44.725605" lon="9.6447033"><ele>1179.0</ele><time>2026-05-01T08:52:26.865Z</time></trkpt><trkpt lat="44.7257133" lon="9.64468"><ele>1179.0</ele><time>2026-05-01T08:52:28.865Z</time></trkpt><trkpt lat="44.7258133" lon="9.6446567"><ele>1179.0</ele><time>2026-05-01T08:52:30.865Z</time></trkpt><trkpt lat="44.725935" lon="9.6446467"><ele>1179.0</ele><time>2026-05-01T08:52:32.865Z</time></trkpt><trkpt lat="44.7260483" lon="9.6446583"><ele>1179.0</ele><time>2026-05-01T08:52:34.865Z</time></trkpt><trkpt lat="44.7261433" lon="9.6446567"><ele>1179.0</ele><time>2026-05-01T08:52:36.865Z</time></trkpt><trkpt lat="44.7262233" lon="9.6446583"><ele>1179.0</ele><time>2026-05-01T08:52:39.865Z</time></trkpt><trkpt lat="44.726315" lon="9.6446383"><ele>1179.0</ele><time>2026-05-01T08:52:42.865Z</time></trkpt><trkpt lat="44.7264033" lon="9.644585"><ele>1180.2</ele><time>2026-05-01T08:52:45.865Z</time></trkpt><trkpt lat="44.7264717" lon="9.6445133"><ele>1181.4</ele><time>2026-05-01T08:52:47.865Z</time></trkpt><trkpt lat="44.72653" lon="9.644415"><ele>1182.6</ele><time>2026-05-01T08:52:49.865Z</time></trkpt><trkpt lat="44.7265933" lon="9.644315"><ele>1183.8</ele><time>2026-05-01T08:52:51.865Z</time></trkpt><trkpt lat="44.726645" lon="9.6442617"><ele>1185.0</ele><time>2026-05-01T08:52:52.865Z</time></trkpt><trkpt lat="44.7267483" lon="9.64416"><ele>1185.0</ele><time>2026-05-01T08:52:54.865Z</time></trkpt><trkpt lat="44.7268183" lon="9.6441067"><ele>1185.0</ele><time>2026-05-01T08:52:55.866Z</time></trkpt><trkpt lat="44.7269283" lon="9.6440217"><ele>1185.0</ele><time>2026-05-01T08:52:57.865Z</time></trkpt><trkpt lat="44.726985" lon="9.643945"><ele>1185.0</ele><time>2026-05-01T08:52:58.865Z</time></trkpt><trkpt lat="44.7270383" lon="9.6438917"><ele>1185.0</ele><time>2026-05-01T08:52:59.865Z</time></trkpt><trkpt lat="44.7270917" lon="9.643835"><ele>1185.0</ele><time>2026-05-01T08:53:00.866Z</time></trkpt><trkpt lat="44.7271417" lon="9.64378"><ele>1183.6666666666667</ele><time>2026-05-01T08:53:01.866Z</time></trkpt><trkpt lat="44.7272117" lon="9.643705"><ele>1182.3333333333333</ele><time>2026-05-01T08:53:03.865Z</time></trkpt><trkpt lat="44.727275" lon="9.6436317"><ele>1181.0</ele><time>2026-05-01T08:53:05.866Z</time></trkpt><trkpt lat="44.72734" lon="9.6435367"><ele>1179.6666666666665</ele><time>2026-05-01T08:53:07.865Z</time></trkpt><trkpt lat="44.727385" lon="9.6434117"><ele>1178.3333333333333</ele><time>2026-05-01T08:53:09.865Z</time></trkpt><trkpt lat="44.7274167" lon="9.6433233"><ele>1177.0</ele><time>2026-05-01T08:53:17.865Z</time></trkpt><trkpt lat="44.7274683" lon="9.6432017"><ele>1177.0</ele><time>2026-05-01T08:53:18.865Z</time></trkpt><trkpt lat="44.727515" lon="9.64304"><ele>1177.0</ele><time>2026-05-01T08:53:31.865Z</time></trkpt><trkpt lat="44.727585" lon="9.6429233"><ele>1177.0</ele><time>2026-05-01T08:54:31.865Z</time></trkpt><trkpt lat="44.727475" lon="9.64287"><ele>1177.0</ele><time>2026-05-01T08:55:49.882Z</time></trkpt><trkpt lat="44.7275567" lon="9.6428917"><ele>1177.0</ele><time>2026-05-01T08:56:03.862Z</time></trkpt><trkpt lat="44.7275333" lon="9.6428"><ele>1175.2</ele><time>2026-05-01T08:56:44.862Z</time></trkpt><trkpt lat="44.7274517" lon="9.642785"><ele>1173.4</ele><time>2026-05-01T08:56:46.862Z</time></trkpt><trkpt lat="44.72737" lon="9.6427667"><ele>1171.6</ele><time>2026-05-01T08:56:48.862Z</time></trkpt><trkpt lat="44.72729" lon="9.6427533"><ele>1169.8</ele><time>2026-05-01T08:56:50.863Z</time></trkpt><trkpt lat="44.727195" lon="9.6427533"><ele>1168.0</ele><time>2026-05-01T08:56:52.863Z</time></trkpt><trkpt lat="44.72708" lon="9.6427333"><ele>1168.0</ele><time>2026-05-01T08:56:54.862Z</time></trkpt><trkpt lat="44.7270133" lon="9.642685"><ele>1168.0</ele><time>2026-05-01T08:56:56.863Z</time></trkpt><trkpt lat="44.7269283" lon="9.64264"><ele>1168.0</ele><time>2026-05-01T08:56:59.863Z</time></trkpt><trkpt lat="44.7268467" lon="9.64263"><ele>1168.0</ele><time>2026-05-01T08:57:01.863Z</time></trkpt><trkpt lat="44.7267633" lon="9.6426183"><ele>1168.0</ele><time>2026-05-01T08:57:03.863Z</time></trkpt><trkpt lat="44.72668" lon="9.6425867"><ele>1168.0</ele><time>2026-05-01T08:57:05.864Z</time></trkpt><trkpt lat="44.7266167" lon="9.6425717"><ele>1167.5</ele><time>2026-05-01T08:57:07.863Z</time></trkpt><trkpt lat="44.7265467" lon="9.64258"><ele>1167.0</ele><time>2026-05-01T08:57:09.864Z</time></trkpt><trkpt lat="44.726465" lon="9.642575"><ele>1166.5</ele><time>2026-05-01T08:57:11.863Z</time></trkpt><trkpt lat="44.7263883" lon="9.642565"><ele>1166.0</ele><time>2026-05-01T08:57:13.863Z</time></trkpt><trkpt lat="44.7263083" lon="9.6425267"><ele>1165.5</ele><time>2026-05-01T08:57:15.863Z</time></trkpt><trkpt lat="44.72627" lon="9.642385"><ele>1165.0</ele><time>2026-05-01T08:57:17.863Z</time></trkpt><trkpt lat="44.72631" lon="9.6421967"><ele>1165.0</ele><time>2026-05-01T08:57:19.864Z</time></trkpt><trkpt lat="44.7263533" lon="9.6420967"><ele>1165.0</ele><time>2026-05-01T08:57:20.863Z</time></trkpt><trkpt lat="44.726405" lon="9.6420033"><ele>1165.0</ele><time>2026-05-01T08:57:21.864Z</time></trkpt><trkpt lat="44.72646" lon="9.64191"><ele>1165.0</ele><time>2026-05-01T08:57:22.863Z</time></trkpt><trkpt lat="44.7265217" lon="9.6418333"><ele>1165.0</ele><time>2026-05-01T08:57:23.863Z</time></trkpt><trkpt lat="44.7265867" lon="9.6417467"><ele>1165.0</ele><time>2026-05-01T08:57:24.863Z</time></trkpt><trkpt lat="44.7266583" lon="9.6416567"><ele>1159.5</ele><time>2026-05-01T08:57:25.863Z</time></trkpt><trkpt lat="44.7267333" lon="9.6415683"><ele>1154.0</ele><time>2026-05-01T08:57:26.863Z</time></trkpt><trkpt lat="44.7268" lon="9.641505"><ele>1148.5</ele><time>2026-05-01T08:57:27.863Z</time></trkpt><trkpt lat="44.7268583" lon="9.64145"><ele>1143.0</ele><time>2026-05-01T08:57:28.863Z</time></trkpt><trkpt lat="44.7269067" lon="9.641385"><ele>1137.5</ele><time>2026-05-01T08:57:29.863Z</time></trkpt><trkpt lat="44.7269617" lon="9.6413267"><ele>1132.0</ele><time>2026-05-01T08:57:30.863Z</time></trkpt><trkpt lat="44.7270217" lon="9.6412733"><ele>1132.0</ele><time>2026-05-01T08:57:31.863Z</time></trkpt><trkpt lat="44.7270767" lon="9.6412233"><ele>1132.0</ele><time>2026-05-01T08:57:32.863Z</time></trkpt><trkpt lat="44.7271267" lon="9.6411583"><ele>1132.0</ele><time>2026-05-01T08:57:33.863Z</time></trkpt><trkpt lat="44.7271817" lon="9.6410833"><ele>1132.0</ele><time>2026-05-01T08:57:34.863Z</time></trkpt><trkpt lat="44.7272317" lon="9.6409767"><ele>1132.0</ele><time>2026-05-01T08:57:35.863Z</time></trkpt><trkpt lat="44.7272617" lon="9.6408783"><ele>1132.0</ele><time>2026-05-01T08:57:36.863Z</time></trkpt><trkpt lat="44.7272933" lon="9.6407733"><ele>1128.7142857142858</ele><time>2026-05-01T08:57:37.863Z</time></trkpt><trkpt lat="44.7273267" lon="9.6406767"><ele>1125.4285714285716</ele><time>2026-05-01T08:57:38.863Z</time></trkpt><trkpt lat="44.727355" lon="9.6405933"><ele>1122.142857142857</ele><time>2026-05-01T08:57:39.863Z</time></trkpt><trkpt lat="44.7273817" lon="9.640485"><ele>1118.857142857143</ele><time>2026-05-01T08:57:41.863Z</time></trkpt><trkpt lat="44.7274167" lon="9.64039"><ele>1115.5714285714284</ele><time>2026-05-01T08:57:44.864Z</time></trkpt><trkpt lat="44.7274617" lon="9.6403067"><ele>1112.2857142857142</ele><time>2026-05-01T08:57:48.863Z</time></trkpt><trkpt lat="44.7275283" lon="9.640265"><ele>1109.0</ele><time>2026-05-01T08:57:51.863Z</time></trkpt><trkpt lat="44.72761" lon="9.64023"><ele>1108.3333333333335</ele><time>2026-05-01T08:57:54.863Z</time></trkpt><trkpt lat="44.7276633" lon="9.64018"><ele>1107.6666666666667</ele><time>2026-05-01T08:57:56.863Z</time></trkpt><trkpt lat="44.7277383" lon="9.6401233"><ele>1107.0</ele><time>2026-05-01T08:57:58.864Z</time></trkpt><trkpt lat="44.7278217" lon="9.6400717"><ele>1106.3333333333333</ele><time>2026-05-01T08:58:00.863Z</time></trkpt><trkpt lat="44.7278867" lon="9.6400533"><ele>1105.6666666666665</ele><time>2026-05-01T08:58:02.863Z</time></trkpt><trkpt lat="44.7279383" lon="9.6401383"><ele>1105.0</ele><time>2026-05-01T08:58:05.863Z</time></trkpt><trkpt lat="44.72797" lon="9.64023"><ele>1098.5</ele><time>2026-05-01T08:58:07.863Z</time></trkpt><trkpt lat="44.7279883" lon="9.640325"><ele>1092.0</ele><time>2026-05-01T08:58:09.863Z</time></trkpt><trkpt lat="44.7280533" lon="9.6403983"><ele>1085.5</ele><time>2026-05-01T08:58:13.863Z</time></trkpt><trkpt lat="44.7281317" lon="9.6403817"><ele>1079.0</ele><time>2026-05-01T08:58:15.863Z</time></trkpt><trkpt lat="44.72822" lon="9.6403633"><ele>1072.5</ele><time>2026-05-01T08:58:17.863Z</time></trkpt><trkpt lat="44.7282867" lon="9.64037"><ele>1066.0</ele><time>2026-05-01T08:58:19.863Z</time></trkpt><trkpt lat="44.728375" lon="9.6403933"><ele>1066.0</ele><time>2026-05-01T08:58:22.863Z</time></trkpt><trkpt lat="44.7284667" lon="9.64041"><ele>1066.0</ele><time>2026-05-01T08:58:25.863Z</time></trkpt><trkpt lat="44.72854" lon="9.6404067"><ele>1066.0</ele><time>2026-05-01T08:58:27.863Z</time></trkpt><trkpt lat="44.7286283" lon="9.6403633"><ele>1066.0</ele><time>2026-05-01T08:58:30.863Z</time></trkpt><trkpt lat="44.72868" lon="9.640285"><ele>1066.0</ele><time>2026-05-01T08:58:32.863Z</time></trkpt><trkpt lat="44.7287233" lon="9.6401733"><ele>1066.0</ele><time>2026-05-01T08:58:34.864Z</time></trkpt><trkpt lat="44.7287583" lon="9.6400883"><ele>1057.6</ele><time>2026-05-01T08:58:37.863Z</time></trkpt><trkpt lat="44.7288233" lon="9.6399867"><ele>1049.1999999999998</ele><time>2026-05-01T08:59:06.863Z</time></trkpt><trkpt lat="44.728865" lon="9.6398367"><ele>1040.8000000000002</ele><time>2026-05-01T08:59:08.863Z</time></trkpt><trkpt lat="44.728905" lon="9.6396917"><ele>1032.4</ele><time>2026-05-01T08:59:10.863Z</time></trkpt><trkpt lat="44.7289267" lon="9.6396067"><ele>1024.0</ele><time>2026-05-01T08:59:11.863Z</time></trkpt><trkpt lat="44.7289417" lon="9.6394633"><ele>1022.4999999999999</ele><time>2026-05-01T08:59:13.863Z</time></trkpt><trkpt lat="44.728965" lon="9.6393117"><ele>1021.0</ele><time>2026-05-01T08:59:15.863Z</time></trkpt><trkpt lat="44.7289833" lon="9.639155"><ele>1019.5</ele><time>2026-05-01T08:59:17.863Z</time></trkpt><trkpt lat="44.7290017" lon="9.6390517"><ele>1018.0</ele><time>2026-05-01T08:59:18.863Z</time></trkpt><trkpt lat="44.729005" lon="9.6389533"><ele>1016.4999999999999</ele><time>2026-05-01T08:59:19.863Z</time></trkpt><trkpt lat="44.729015" lon="9.6388567"><ele>1015.0</ele><time>2026-05-01T08:59:20.863Z</time></trkpt><trkpt lat="44.7289883" lon="9.6387533"><ele>1015.0</ele><time>2026-05-01T08:59:21.863Z</time></trkpt><trkpt lat="44.7289983" lon="9.6386633"><ele>1015.0</ele><time>2026-05-01T08:59:22.863Z</time></trkpt><trkpt lat="44.72903" lon="9.63851"><ele>1015.0</ele><time>2026-05-01T08:59:24.863Z</time></trkpt><trkpt lat="44.729085" lon="9.6383683"><ele>1015.0</ele><time>2026-05-01T08:59:26.863Z</time></trkpt><trkpt lat="44.7291383" lon="9.63823"><ele>1015.0</ele><time>2026-05-01T08:59:28.863Z</time></trkpt><trkpt lat="44.729175" lon="9.6381533"><ele>1012.6</ele><time>2026-05-01T08:59:29.863Z</time></trkpt><trkpt lat="44.729215" lon="9.6380783"><ele>1010.2</ele><time>2026-05-01T08:59:30.863Z</time></trkpt><trkpt lat="44.7292783" lon="9.637975"><ele>1007.8</ele><time>2026-05-01T08:59:32.863Z</time></trkpt><trkpt lat="44.7292917" lon="9.6378217"><ele>1005.4</ele><time>2026-05-01T08:59:34.863Z</time></trkpt><trkpt lat="44.7293433" lon="9.6376633"><ele>1003.0</ele><time>2026-05-01T08:59:36.863Z</time></trkpt><trkpt lat="44.729375" lon="9.6375633"><ele>996.8333333333333</ele><time>2026-05-01T08:59:37.863Z</time></trkpt><trkpt lat="44.7294117" lon="9.6374733"><ele>990.6666666666666</ele><time>2026-05-01T08:59:38.863Z</time></trkpt><trkpt lat="44.729445" lon="9.6373817"><ele>984.5</ele><time>2026-05-01T08:59:39.863Z</time></trkpt><trkpt lat="44.7294783" lon="9.6372967"><ele>978.3333333333333</ele><time>2026-05-01T08:59:40.863Z</time></trkpt><trkpt lat="44.7295" lon="9.6372033"><ele>972.1666666666666</ele><time>2026-05-01T08:59:42.863Z</time></trkpt><trkpt lat="44.72949" lon="9.6370917"><ele>966.0</ele><time>2026-05-01T08:59:44.863Z</time></trkpt><trkpt lat="44.72953" lon="9.636935"><ele>965.5999999999999</ele><time>2026-05-01T08:59:46.863Z</time></trkpt><trkpt lat="44.729575" lon="9.63682"><ele>965.1999999999999</ele><time>2026-05-01T08:59:47.863Z</time></trkpt><trkpt lat="44.7296117" lon="9.6367133"><ele>964.8000000000001</ele><time>2026-05-01T08:59:48.863Z</time></trkpt><trkpt lat="44.7296433" lon="9.6366017"><ele>964.4000000000001</ele><time>2026-05-01T08:59:49.863Z</time></trkpt><trkpt lat="44.7296783" lon="9.63647"><ele>964.0</ele><time>2026-05-01T08:59:50.863Z</time></trkpt><trkpt lat="44.7297167" lon="9.6363333"><ele>964.0</ele><time>2026-05-01T08:59:51.863Z</time></trkpt><trkpt lat="44.7297467" lon="9.6362033"><ele>964.0000000000001</ele><time>2026-05-01T08:59:52.863Z</time></trkpt><trkpt lat="44.7297767" lon="9.6360717"><ele>964.0000000000001</ele><time>2026-05-01T08:59:53.864Z</time></trkpt><trkpt lat="44.72981" lon="9.6359317"><ele>964.0</ele><time>2026-05-01T08:59:54.863Z</time></trkpt><trkpt lat="44.729845" lon="9.6357933"><ele>964.0</ele><time>2026-05-01T08:59:55.863Z</time></trkpt><trkpt lat="44.7298717" lon="9.6356517"><ele>964.8333333333333</ele><time>2026-05-01T08:59:56.863Z</time></trkpt><trkpt lat="44.7299033" lon="9.6355217"><ele>965.6666666666666</ele><time>2026-05-01T08:59:57.863Z</time></trkpt><trkpt lat="44.7299317" lon="9.63541"><ele>966.5</ele><time>2026-05-01T08:59:58.863Z</time></trkpt><trkpt lat="44.7299667" lon="9.6353017"><ele>967.3333333333333</ele><time>2026-05-01T08:59:59.863Z</time></trkpt><trkpt lat="44.730005" lon="9.6352"><ele>968.1666666666666</ele><time>2026-05-01T09:00:00.863Z</time></trkpt><trkpt lat="44.7300367" lon="9.6351067"><ele>969.0</ele><time>2026-05-01T09:00:01.863Z</time></trkpt><trkpt lat="44.7300983" lon="9.6349617"><ele>970.8000000000001</ele><time>2026-05-01T09:00:03.863Z</time></trkpt><trkpt lat="44.7301583" lon="9.6348267"><ele>972.6000000000001</ele><time>2026-05-01T09:00:05.863Z</time></trkpt><trkpt lat="44.7302017" lon="9.634675"><ele>974.4</ele><time>2026-05-01T09:00:07.863Z</time></trkpt><trkpt lat="44.73026" lon="9.6345067"><ele>976.2</ele><time>2026-05-01T09:00:09.863Z</time></trkpt><trkpt lat="44.7302983" lon="9.6344183"><ele>978.0</ele><time>2026-05-01T09:00:10.863Z</time></trkpt><trkpt lat="44.7303383" lon="9.6343317"><ele>974.4285714285714</ele><time>2026-05-01T09:00:11.863Z</time></trkpt><trkpt lat="44.7303767" lon="9.6342433"><ele>970.8571428571429</ele><time>2026-05-01T09:00:12.863Z</time></trkpt><trkpt lat="44.7304133" lon="9.634145"><ele>967.2857142857143</ele><time>2026-05-01T09:00:13.863Z</time></trkpt><trkpt lat="44.730445" lon="9.6340583"><ele>963.7142857142858</ele><time>2026-05-01T09:00:14.863Z</time></trkpt><trkpt lat="44.730475" lon="9.63398"><ele>960.1428571428571</ele><time>2026-05-01T09:00:15.863Z</time></trkpt><trkpt lat="44.7305067" lon="9.6339"><ele>956.5714285714287</ele><time>2026-05-01T09:00:16.863Z</time></trkpt><trkpt lat="44.730535" lon="9.6338117"><ele>953.0</ele><time>2026-05-01T09:00:17.863Z</time></trkpt><trkpt lat="44.7305633" lon="9.6337217"><ele>955.1666666666667</ele><time>2026-05-01T09:00:18.863Z</time></trkpt><trkpt lat="44.7305983" lon="9.6336383"><ele>957.3333333333334</ele><time>2026-05-01T09:00:19.863Z</time></trkpt><trkpt lat="44.7306533" lon="9.6335033"><ele>959.5</ele><time>2026-05-01T09:00:21.863Z</time></trkpt><trkpt lat="44.7306883" lon="9.6333933"><ele>961.6666666666667</ele><time>2026-05-01T09:00:23.863Z</time></trkpt><trkpt lat="44.7307067" lon="9.6332833"><ele>963.8333333333334</ele><time>2026-05-01T09:00:25.863Z</time></trkpt><trkpt lat="44.7307083" lon="9.63314"><ele>966.0</ele><time>2026-05-01T09:00:27.863Z</time></trkpt><trkpt lat="44.730735" lon="9.6329833"><ele>968.4</ele><time>2026-05-01T09:00:29.863Z</time></trkpt><trkpt lat="44.7307783" lon="9.6328033"><ele>970.8</ele><time>2026-05-01T09:00:31.863Z</time></trkpt><trkpt lat="44.7308017" lon="9.6327083"><ele>973.1999999999999</ele><time>2026-05-01T09:00:32.863Z</time></trkpt><trkpt lat="44.730835" lon="9.63258"><ele>975.5999999999999</ele><time>2026-05-01T09:00:33.863Z</time></trkpt><trkpt lat="44.73086" lon="9.63249"><ele>978.0</ele><time>2026-05-01T09:00:34.863Z</time></trkpt><trkpt lat="44.7308983" lon="9.63237"><ele>978.0</ele><time>2026-05-01T09:00:35.863Z</time></trkpt><trkpt lat="44.7309467" lon="9.632215"><ele>978.0</ele><time>2026-05-01T09:00:36.863Z</time></trkpt><trkpt lat="44.7309933" lon="9.6320833"><ele>978.0</ele><time>2026-05-01T09:00:37.863Z</time></trkpt><trkpt lat="44.7310267" lon="9.63194"><ele>978.0</ele><time>2026-05-01T09:00:38.863Z</time></trkpt><trkpt lat="44.7310583" lon="9.6318"><ele>978.0</ele><time>2026-05-01T09:00:39.863Z</time></trkpt><trkpt lat="44.7310933" lon="9.6316667"><ele>971.1666666666666</ele><time>2026-05-01T09:00:40.863Z</time></trkpt><trkpt lat="44.731115" lon="9.63154"><ele>964.3333333333333</ele><time>2026-05-01T09:00:41.863Z</time></trkpt><trkpt lat="44.7311333" lon="9.6314383"><ele>957.5</ele><time>2026-05-01T09:00:42.863Z</time></trkpt><trkpt lat="44.73115" lon="9.63134"><ele>950.6666666666666</ele><time>2026-05-01T09:00:43.863Z</time></trkpt><trkpt lat="44.7311933" lon="9.631185"><ele>943.8333333333333</ele><time>2026-05-01T09:00:45.863Z</time></trkpt><trkpt lat="44.73123" lon="9.63109"><ele>937.0</ele><time>2026-05-01T09:00:47.863Z</time></trkpt><trkpt lat="44.7312633" lon="9.6309433"><ele>937.0</ele><time>2026-05-01T09:00:51.863Z</time></trkpt><trkpt lat="44.73129" lon="9.6308067"><ele>937.0</ele><time>2026-05-01T09:00:53.863Z</time></trkpt><trkpt lat="44.731315" lon="9.6307217"><ele>937.0</ele><time>2026-05-01T09:00:54.863Z</time></trkpt><trkpt lat="44.7313583" lon="9.63059"><ele>937.0</ele><time>2026-05-01T09:00:56.863Z</time></trkpt><trkpt lat="44.73143" lon="9.6304717"><ele>937.0</ele><time>2026-05-01T09:00:58.863Z</time></trkpt><trkpt lat="44.7315117" lon="9.6304667"><ele>936.9999999999999</ele><time>2026-05-01T09:01:00.864Z</time></trkpt><trkpt lat="44.7315833" lon="9.6304467"><ele>937.0</ele><time>2026-05-01T09:01:01.863Z</time></trkpt><trkpt lat="44.7316667" lon="9.63043"><ele>937.0</ele><time>2026-05-01T09:01:02.863Z</time></trkpt><trkpt lat="44.731735" lon="9.630465"><ele>937.0</ele><time>2026-05-01T09:01:03.863Z</time></trkpt><trkpt lat="44.731825" lon="9.6304383"><ele>936.9999999999999</ele><time>2026-05-01T09:01:04.863Z</time></trkpt><trkpt lat="44.7319183" lon="9.63041"><ele>937.0</ele><time>2026-05-01T09:01:05.863Z</time></trkpt><trkpt lat="44.7320017" lon="9.6303917"><ele>934.8333333333333</ele><time>2026-05-01T09:01:06.863Z</time></trkpt><trkpt lat="44.7320717" lon="9.6303683"><ele>932.6666666666666</ele><time>2026-05-01T09:01:07.863Z</time></trkpt><trkpt lat="44.73215" lon="9.6303317"><ele>930.5</ele><time>2026-05-01T09:01:08.863Z</time></trkpt><trkpt lat="44.73224" lon="9.6302817"><ele>928.3333333333333</ele><time>2026-05-01T09:01:09.863Z</time></trkpt><trkpt lat="44.73232" lon="9.63024"><ele>926.1666666666666</ele><time>2026-05-01T09:01:10.863Z</time></trkpt><trkpt lat="44.732385" lon="9.6301867"><ele>924.0</ele><time>2026-05-01T09:01:11.863Z</time></trkpt><trkpt lat="44.7324467" lon="9.6301267"><ele>924.0</ele><time>2026-05-01T09:01:12.863Z</time></trkpt><trkpt lat="44.7325167" lon="9.6300517"><ele>924.0</ele><time>2026-05-01T09:01:13.863Z</time></trkpt><trkpt lat="44.73258" lon="9.6299767"><ele>924.0</ele><time>2026-05-01T09:01:14.863Z</time></trkpt><trkpt lat="44.7326467" lon="9.629925"><ele>924.0</ele><time>2026-05-01T09:01:15.863Z</time></trkpt><trkpt lat="44.7327167" lon="9.629905"><ele>924.0</ele><time>2026-05-01T09:01:16.863Z</time></trkpt><trkpt lat="44.73279" lon="9.6299"><ele>924.0</ele><time>2026-05-01T09:01:17.863Z</time></trkpt><trkpt lat="44.73287" lon="9.6299083"><ele>923.3333333333334</ele><time>2026-05-01T09:01:18.863Z</time></trkpt><trkpt lat="44.73295" lon="9.6299267"><ele>922.6666666666667</ele><time>2026-05-01T09:01:19.863Z</time></trkpt><trkpt lat="44.73303" lon="9.6299433"><ele>922.0</ele><time>2026-05-01T09:01:20.863Z</time></trkpt><trkpt lat="44.7331067" lon="9.6299533"><ele>921.3333333333334</ele><time>2026-05-01T09:01:21.863Z</time></trkpt><trkpt lat="44.733175" lon="9.6299583"><ele>920.6666666666667</ele><time>2026-05-01T09:01:22.863Z</time></trkpt><trkpt lat="44.73329" lon="9.6299283"><ele>920.0</ele><time>2026-05-01T09:01:24.864Z</time></trkpt><trkpt lat="44.7334033" lon="9.6298317"><ele>920.0000000000001</ele><time>2026-05-01T09:01:26.863Z</time></trkpt><trkpt lat="44.7334717" lon="9.62978"><ele>920.0</ele><time>2026-05-01T09:01:27.864Z</time></trkpt><trkpt lat="44.7335467" lon="9.6297267"><ele>920.0</ele><time>2026-05-01T09:01:28.863Z</time></trkpt><trkpt lat="44.73362" lon="9.6296783"><ele>920.0</ele><time>2026-05-01T09:01:29.863Z</time></trkpt><trkpt lat="44.7336917" lon="9.62963"><ele>920.0000000000001</ele><time>2026-05-01T09:01:30.864Z</time></trkpt><trkpt lat="44.7337567" lon="9.6295933"><ele>920.0</ele><time>2026-05-01T09:01:31.863Z</time></trkpt><trkpt lat="44.7338217" lon="9.6295583"><ele>918.5000000000001</ele><time>2026-05-01T09:01:32.863Z</time></trkpt><trkpt lat="44.7338883" lon="9.6295133"><ele>917.0</ele><time>2026-05-01T09:01:33.863Z</time></trkpt><trkpt lat="44.7339483" lon="9.629465"><ele>915.5</ele><time>2026-05-01T09:01:34.863Z</time></trkpt><trkpt lat="44.734005" lon="9.629415"><ele>914.0</ele><time>2026-05-01T09:01:35.863Z</time></trkpt><trkpt lat="44.7340583" lon="9.629365"><ele>912.5000000000001</ele><time>2026-05-01T09:01:36.863Z</time></trkpt><trkpt lat="44.7341617" lon="9.6292633"><ele>911.0</ele><time>2026-05-01T09:01:38.863Z</time></trkpt><trkpt lat="44.7342267" lon="9.629215"><ele>911.0</ele><time>2026-05-01T09:01:39.863Z</time></trkpt><trkpt lat="44.734295" lon="9.629185"><ele>911.0</ele><time>2026-05-01T09:01:40.863Z</time></trkpt><trkpt lat="44.734365" lon="9.6291617"><ele>911.0</ele><time>2026-05-01T09:01:41.863Z</time></trkpt><trkpt lat="44.734425" lon="9.629125"><ele>911.0</ele><time>2026-05-01T09:01:42.863Z</time></trkpt><trkpt lat="44.7344767" lon="9.6290667"><ele>911.0</ele><time>2026-05-01T09:01:43.863Z</time></trkpt><trkpt lat="44.7345167" lon="9.628995"><ele>911.0</ele><time>2026-05-01T09:01:44.863Z</time></trkpt><trkpt lat="44.73455" lon="9.6289"><ele>911.0</ele><time>2026-05-01T09:01:45.863Z</time></trkpt><trkpt lat="44.7345883" lon="9.6288"><ele>907.8333333333334</ele><time>2026-05-01T09:01:46.864Z</time></trkpt><trkpt lat="44.7346283" lon="9.6287033"><ele>904.6666666666667</ele><time>2026-05-01T09:01:47.863Z</time></trkpt><trkpt lat="44.7346617" lon="9.6286183"><ele>901.5</ele><time>2026-05-01T09:01:48.863Z</time></trkpt><trkpt lat="44.7346883" lon="9.62853"><ele>898.3333333333333</ele><time>2026-05-01T09:01:49.863Z</time></trkpt><trkpt lat="44.73471" lon="9.628445"><ele>895.1666666666666</ele><time>2026-05-01T09:01:50.863Z</time></trkpt><trkpt lat="44.7347433" lon="9.628295"><ele>892.0</ele><time>2026-05-01T09:01:52.863Z</time></trkpt><trkpt lat="44.7347783" lon="9.6281733"><ele>892.0</ele><time>2026-05-01T09:01:54.863Z</time></trkpt><trkpt lat="44.7348267" lon="9.6280717"><ele>892.0</ele><time>2026-05-01T09:01:56.863Z</time></trkpt><trkpt lat="44.7349017" lon="9.6280117"><ele>892.0</ele><time>2026-05-01T09:01:58.863Z</time></trkpt><trkpt lat="44.7349917" lon="9.6279417"><ele>892.0</ele><time>2026-05-01T09:02:00.863Z</time></trkpt><trkpt lat="44.7350333" lon="9.62786"><ele>892.0</ele><time>2026-05-01T09:02:01.863Z</time></trkpt><trkpt lat="44.7351167" lon="9.6277633"><ele>891.0</ele><time>2026-05-01T09:02:03.863Z</time></trkpt><trkpt lat="44.7351917" lon="9.6277183"><ele>891.0</ele><time>2026-05-01T09:02:05.863Z</time></trkpt><trkpt lat="44.7352633" lon="9.62767"><ele>885.0</ele><time>2026-05-01T09:02:08.863Z</time></trkpt><trkpt lat="44.7352733" lon="9.6278167"><ele>879.0</ele><time>2026-05-01T09:02:25.863Z</time></trkpt><trkpt lat="44.73531" lon="9.6279567"><ele>879.0</ele><time>2026-05-01T09:02:40.863Z</time></trkpt></trkseg><trkseg><trkpt lat="44.7353567" lon="9.6281017"><ele>879.0</ele><time>2026-05-01T09:30:18.366Z</time></trkpt><trkpt lat="44.7352917" lon="9.6280867"><ele>879.0</ele><time>2026-05-01T09:30:30.873Z</time></trkpt><trkpt lat="44.735285" lon="9.6279883"><ele>879.0</ele><time>2026-05-01T09:31:24.864Z</time></trkpt><trkpt lat="44.7353733" lon="9.6279883"><ele>879.0</ele><time>2026-05-01T09:34:16.864Z</time></trkpt><trkpt lat="44.7353733" lon="9.6280817"><ele>879.0</ele><time>2026-05-01T09:34:23.864Z</time></trkpt><trkpt lat="44.7353083" lon="9.62817"><ele>879.0</ele><time>2026-05-01T09:34:25.864Z</time></trkpt><trkpt lat="44.7352367" lon="9.62829"><ele>881.6</ele><time>2026-05-01T09:34:27.864Z</time></trkpt><trkpt lat="44.735155" lon="9.6284217"><ele>884.2</ele><time>2026-05-01T09:34:29.864Z</time></trkpt><trkpt lat="44.73506" lon="9.6284117"><ele>886.8000000000001</ele><time>2026-05-01T09:34:31.864Z</time></trkpt><trkpt lat="44.7350283" lon="9.6282783"><ele>889.4000000000001</ele><time>2026-05-01T09:34:34.864Z</time></trkpt><trkpt lat="44.7350183" lon="9.6281333"><ele>892.0</ele><time>2026-05-01T09:34:36.864Z</time></trkpt><trkpt lat="44.7350283" lon="9.6279617"><ele>891.9999999999999</ele><time>2026-05-01T09:34:38.864Z</time></trkpt><trkpt lat="44.7350417" lon="9.62786"><ele>892.0</ele><time>2026-05-01T09:34:39.864Z</time></trkpt><trkpt lat="44.735035" lon="9.6277"><ele>892.0</ele><time>2026-05-01T09:34:41.864Z</time></trkpt><trkpt lat="44.735" lon="9.62758"><ele>892.0</ele><time>2026-05-01T09:34:43.864Z</time></trkpt><trkpt lat="44.7349567" lon="9.6274933"><ele>891.9999999999999</ele><time>2026-05-01T09:34:44.864Z</time></trkpt><trkpt lat="44.734905" lon="9.62742"><ele>892.0</ele><time>2026-05-01T09:34:45.864Z</time></trkpt><trkpt lat="44.7348517" lon="9.627345"><ele>891.8571428571429</ele><time>2026-05-01T09:34:46.864Z</time></trkpt><trkpt lat="44.734805" lon="9.627265"><ele>891.7142857142857</ele><time>2026-05-01T09:34:47.864Z</time></trkpt><trkpt lat="44.73477" lon="9.627175"><ele>891.5714285714287</ele><time>2026-05-01T09:34:48.864Z</time></trkpt><trkpt lat="44.734745" lon="9.6270733"><ele>891.4285714285714</ele><time>2026-05-01T09:34:49.865Z</time></trkpt><trkpt lat="44.7347233" lon="9.6269817"><ele>891.2857142857143</ele><time>2026-05-01T09:34:50.864Z</time></trkpt><trkpt lat="44.7347017" lon="9.6268867"><ele>891.1428571428572</ele><time>2026-05-01T09:34:51.864Z</time></trkpt><trkpt lat="44.7346733" lon="9.626805"><ele>891.0</ele><time>2026-05-01T09:34:52.864Z</time></trkpt><trkpt lat="44.7346033" lon="9.6267083"><ele>889.1999999999999</ele><time>2026-05-01T09:34:54.864Z</time></trkpt><trkpt lat="44.7344967" lon="9.626675"><ele>887.3999999999999</ele><time>2026-05-01T09:34:56.864Z</time></trkpt><trkpt lat="44.7344317" lon="9.6266633"><ele>885.6</ele><time>2026-05-01T09:34:57.864Z</time></trkpt><trkpt lat="44.7343683" lon="9.6266717"><ele>883.8</ele><time>2026-05-01T09:34:58.864Z</time></trkpt><trkpt lat="44.7342617" lon="9.626705"><ele>882.0</ele><time>2026-05-01T09:35:00.864Z</time></trkpt><trkpt lat="44.7341633" lon="9.62679"><ele>881.8333333333334</ele><time>2026-05-01T09:35:02.864Z</time></trkpt><trkpt lat="44.7341067" lon="9.6268717"><ele>881.6666666666667</ele><time>2026-05-01T09:35:03.864Z</time></trkpt><trkpt lat="44.734045" lon="9.6269583"><ele>881.5</ele><time>2026-05-01T09:35:04.864Z</time></trkpt><trkpt lat="44.7339717" lon="9.6270333"><ele>881.3333333333334</ele><time>2026-05-01T09:35:05.864Z</time></trkpt><trkpt lat="44.7338983" lon="9.627085"><ele>881.1666666666667</ele><time>2026-05-01T09:35:06.864Z</time></trkpt><trkpt lat="44.73382" lon="9.6271067"><ele>881.0</ele><time>2026-05-01T09:35:07.864Z</time></trkpt><trkpt lat="44.7337267" lon="9.6271083"><ele>881.0</ele><time>2026-05-01T09:35:08.864Z</time></trkpt><trkpt lat="44.7336317" lon="9.6270933"><ele>880.9999999999999</ele><time>2026-05-01T09:35:09.864Z</time></trkpt><trkpt lat="44.7335333" lon="9.6270717"><ele>880.9999999999999</ele><time>2026-05-01T09:35:10.864Z</time></trkpt><trkpt lat="44.7334433" lon="9.62705"><ele>881.0</ele><time>2026-05-01T09:35:11.864Z</time></trkpt><trkpt lat="44.7333517" lon="9.62703"><ele>881.0</ele><time>2026-05-01T09:35:12.864Z</time></trkpt><trkpt lat="44.73325" lon="9.62701"><ele>879.0</ele><time>2026-05-01T09:35:13.864Z</time></trkpt><trkpt lat="44.733155" lon="9.6269983"><ele>876.9999999999999</ele><time>2026-05-01T09:35:14.864Z</time></trkpt><trkpt lat="44.7330583" lon="9.6269833"><ele>874.9999999999999</ele><time>2026-05-01T09:35:15.864Z</time></trkpt><trkpt lat="44.732965" lon="9.626965"><ele>873.0</ele><time>2026-05-01T09:35:16.864Z</time></trkpt><trkpt lat="44.7328733" lon="9.62694"><ele>871.0</ele><time>2026-05-01T09:35:17.864Z</time></trkpt><trkpt lat="44.7327867" lon="9.6269167"><ele>864.1999999999999</ele><time>2026-05-01T09:35:18.864Z</time></trkpt><trkpt lat="44.7326983" lon="9.626895"><ele>857.3999999999999</ele><time>2026-05-01T09:35:19.864Z</time></trkpt><trkpt lat="44.73261" lon="9.6268833"><ele>850.6</ele><time>2026-05-01T09:35:20.864Z</time></trkpt><trkpt lat="44.7325117" lon="9.6268783"><ele>843.8</ele><time>2026-05-01T09:35:21.864Z</time></trkpt><trkpt lat="44.732425" lon="9.626875"><ele>837.0</ele><time>2026-05-01T09:35:22.864Z</time></trkpt><trkpt lat="44.73233" lon="9.6268533"><ele>837.0</ele><time>2026-05-01T09:35:23.864Z</time></trkpt><trkpt lat="44.73223" lon="9.6268117"><ele>837.0</ele><time>2026-05-01T09:35:24.864Z</time></trkpt><trkpt lat="44.7321267" lon="9.6267767"><ele>837.0</ele><time>2026-05-01T09:35:25.864Z</time></trkpt><trkpt lat="44.7320283" lon="9.6267517"><ele>837.0</ele><time>2026-05-01T09:35:26.864Z</time></trkpt><trkpt lat="44.7319317" lon="9.6267267"><ele>837.0</ele><time>2026-05-01T09:35:27.864Z</time></trkpt><trkpt lat="44.7318417" lon="9.626705"><ele>835.5</ele><time>2026-05-01T09:35:28.865Z</time></trkpt><trkpt lat="44.7317533" lon="9.6266717"><ele>834.0</ele><time>2026-05-01T09:35:29.864Z</time></trkpt><trkpt lat="44.7316667" lon="9.6266133"><ele>832.5</ele><time>2026-05-01T09:35:30.864Z</time></trkpt><trkpt lat="44.731585" lon="9.6265633"><ele>831.0</ele><time>2026-05-01T09:35:31.864Z</time></trkpt><trkpt lat="44.7315067" lon="9.626525"><ele>829.5</ele><time>2026-05-01T09:35:32.864Z</time></trkpt><trkpt lat="44.7314233" lon="9.6264983"><ele>828.0</ele><time>2026-05-01T09:35:33.864Z</time></trkpt><trkpt lat="44.7313317" lon="9.6264783"><ele>828.0000000000001</ele><time>2026-05-01T09:35:34.864Z</time></trkpt><trkpt lat="44.7312583" lon="9.626455"><ele>828.0</ele><time>2026-05-01T09:35:35.864Z</time></trkpt><trkpt lat="44.7311883" lon="9.626405"><ele>828.0</ele><time>2026-05-01T09:35:36.864Z</time></trkpt><trkpt lat="44.7311283" lon="9.6263467"><ele>828.0</ele><time>2026-05-01T09:35:37.864Z</time></trkpt><trkpt lat="44.7310783" lon="9.62628"><ele>828.0</ele><time>2026-05-01T09:35:38.864Z</time></trkpt><trkpt lat="44.7310167" lon="9.6262117"><ele>828.0000000000001</ele><time>2026-05-01T09:35:39.864Z</time></trkpt><trkpt lat="44.7309817" lon="9.6261217"><ele>828.0</ele><time>2026-05-01T09:35:40.864Z</time></trkpt><trkpt lat="44.7309267" lon="9.6259733"><ele>822.5</ele><time>2026-05-01T09:35:42.864Z</time></trkpt><trkpt lat="44.730835" lon="9.6258717"><ele>817.0</ele><time>2026-05-01T09:35:44.864Z</time></trkpt><trkpt lat="44.7307617" lon="9.6258367"><ele>811.5</ele><time>2026-05-01T09:35:45.865Z</time></trkpt><trkpt lat="44.7306883" lon="9.6258017"><ele>806.0</ele><time>2026-05-01T09:35:46.864Z</time></trkpt><trkpt lat="44.730625" lon="9.62578"><ele>800.5</ele><time>2026-05-01T09:35:47.864Z</time></trkpt><trkpt lat="44.730525" lon="9.6257567"><ele>795.0</ele><time>2026-05-01T09:35:49.864Z</time></trkpt><trkpt lat="44.730425" lon="9.625835"><ele>795.0</ele><time>2026-05-01T09:35:51.864Z</time></trkpt><trkpt lat="44.7303717" lon="9.6259"><ele>795.0</ele><time>2026-05-01T09:35:52.864Z</time></trkpt><trkpt lat="44.73027" lon="9.6259767"><ele>795.0</ele><time>2026-05-01T09:35:54.864Z</time></trkpt><trkpt lat="44.7302033" lon="9.62599"><ele>795.0</ele><time>2026-05-01T09:35:55.864Z</time></trkpt><trkpt lat="44.7301233" lon="9.6259983"><ele>795.0</ele><time>2026-05-01T09:35:56.864Z</time></trkpt><trkpt lat="44.73004" lon="9.62599"><ele>795.0</ele><time>2026-05-01T09:35:57.864Z</time></trkpt><trkpt lat="44.7299483" lon="9.62597"><ele>792.8</ele><time>2026-05-01T09:35:58.864Z</time></trkpt><trkpt lat="44.7298533" lon="9.6259483"><ele>790.6</ele><time>2026-05-01T09:35:59.864Z</time></trkpt><trkpt lat="44.7297533" lon="9.6259333"><ele>788.4000000000001</ele><time>2026-05-01T09:36:00.864Z</time></trkpt><trkpt lat="44.7296467" lon="9.6259183"><ele>786.2</ele><time>2026-05-01T09:36:01.864Z</time></trkpt><trkpt lat="44.729555" lon="9.6259067"><ele>784.0</ele><time>2026-05-01T09:36:02.864Z</time></trkpt><trkpt lat="44.7294817" lon="9.6258883"><ele>783.9999999999999</ele><time>2026-05-01T09:36:03.864Z</time></trkpt><trkpt lat="44.72942" lon="9.6258633"><ele>784.0</ele><time>2026-05-01T09:36:04.864Z</time></trkpt><trkpt lat="44.729335" lon="9.6258433"><ele>784.0</ele><time>2026-05-01T09:36:05.864Z</time></trkpt><trkpt lat="44.729265" lon="9.6258517"><ele>784.0</ele><time>2026-05-01T09:36:06.864Z</time></trkpt><trkpt lat="44.7291983" lon="9.6258467"><ele>783.9999999999999</ele><time>2026-05-01T09:36:07.864Z</time></trkpt><trkpt lat="44.72912" lon="9.62586"><ele>784.0</ele><time>2026-05-01T09:36:08.864Z</time></trkpt><trkpt lat="44.729035" lon="9.6258867"><ele>782.2</ele><time>2026-05-01T09:36:09.864Z</time></trkpt><trkpt lat="44.72895" lon="9.6259433"><ele>780.4000000000001</ele><time>2026-05-01T09:36:10.864Z</time></trkpt><trkpt lat="44.728865" lon="9.6260133"><ele>778.6</ele><time>2026-05-01T09:36:11.864Z</time></trkpt><trkpt lat="44.7287767" lon="9.626065"><ele>776.8</ele><time>2026-05-01T09:36:12.864Z</time></trkpt><trkpt lat="44.7286817" lon="9.6260933"><ele>775.0</ele><time>2026-05-01T09:36:13.864Z</time></trkpt><trkpt lat="44.728605" lon="9.6261017"><ele>775.9999999999999</ele><time>2026-05-01T09:36:14.864Z</time></trkpt><trkpt lat="44.7285167" lon="9.6261267"><ele>777.0</ele><time>2026-05-01T09:36:15.864Z</time></trkpt><trkpt lat="44.7284417" lon="9.6261533"><ele>778.0</ele><time>2026-05-01T09:36:16.865Z</time></trkpt><trkpt lat="44.7283633" lon="9.6261883"><ele>779.0</ele><time>2026-05-01T09:36:17.864Z</time></trkpt><trkpt lat="44.7282933" lon="9.6262517"><ele>779.9999999999999</ele><time>2026-05-01T09:36:18.864Z</time></trkpt><trkpt lat="44.728235" lon="9.6263317"><ele>781.0</ele><time>2026-05-01T09:36:19.864Z</time></trkpt><trkpt lat="44.728185" lon="9.6264217"><ele>781.0</ele><time>2026-05-01T09:36:20.864Z</time></trkpt><trkpt lat="44.7281433" lon="9.626525"><ele>781.0</ele><time>2026-05-01T09:36:21.864Z</time></trkpt><trkpt lat="44.7281183" lon="9.6266433"><ele>781.0</ele><time>2026-05-01T09:36:22.864Z</time></trkpt><trkpt lat="44.7280883" lon="9.6267733"><ele>781.0</ele><time>2026-05-01T09:36:23.864Z</time></trkpt><trkpt lat="44.7280683" lon="9.6268917"><ele>781.0</ele><time>2026-05-01T09:36:24.864Z</time></trkpt><trkpt lat="44.7280383" lon="9.6270233"><ele>786.5999999999999</ele><time>2026-05-01T09:36:25.864Z</time></trkpt><trkpt lat="44.728005" lon="9.6271583"><ele>792.2</ele><time>2026-05-01T09:36:26.864Z</time></trkpt><trkpt lat="44.727975" lon="9.6272917"><ele>797.8</ele><time>2026-05-01T09:36:27.865Z</time></trkpt><trkpt lat="44.727945" lon="9.6274267"><ele>803.4000000000001</ele><time>2026-05-01T09:36:28.864Z</time></trkpt><trkpt lat="44.7279183" lon="9.6275317"><ele>809.0</ele><time>2026-05-01T09:36:29.864Z</time></trkpt><trkpt lat="44.7278867" lon="9.6276317"><ele>809.0</ele><time>2026-05-01T09:36:30.864Z</time></trkpt><trkpt lat="44.7278333" lon="9.6277267"><ele>809.0</ele><time>2026-05-01T09:36:31.864Z</time></trkpt><trkpt lat="44.727785" lon="9.6278133"><ele>809.0</ele><time>2026-05-01T09:36:32.864Z</time></trkpt><trkpt lat="44.7277217" lon="9.6279233"><ele>809.0</ele><time>2026-05-01T09:36:33.864Z</time></trkpt><trkpt lat="44.7276583" lon="9.6280583"><ele>809.0</ele><time>2026-05-01T09:36:34.864Z</time></trkpt><trkpt lat="44.727615" lon="9.6281867"><ele>805.5000000000001</ele><time>2026-05-01T09:36:35.864Z</time></trkpt><trkpt lat="44.72758" lon="9.6282867"><ele>802.0</ele><time>2026-05-01T09:36:36.864Z</time></trkpt><trkpt lat="44.7274917" lon="9.6283967"><ele>798.5</ele><time>2026-05-01T09:36:38.864Z</time></trkpt><trkpt lat="44.72743" lon="9.6284283"><ele>795.0</ele><time>2026-05-01T09:36:39.864Z</time></trkpt><trkpt lat="44.7273533" lon="9.628425"><ele>791.5000000000001</ele><time>2026-05-01T09:36:40.864Z</time></trkpt><trkpt lat="44.7272733" lon="9.62841"><ele>788.0</ele><time>2026-05-01T09:36:41.864Z</time></trkpt><trkpt lat="44.7271867" lon="9.6284133"><ele>788.0000000000001</ele><time>2026-05-01T09:36:42.864Z</time></trkpt><trkpt lat="44.7270967" lon="9.62842"><ele>788.0</ele><time>2026-05-01T09:36:43.865Z</time></trkpt><trkpt lat="44.7270083" lon="9.6284267"><ele>788.0</ele><time>2026-05-01T09:36:44.864Z</time></trkpt><trkpt lat="44.726935" lon="9.6284417"><ele>788.0</ele><time>2026-05-01T09:36:45.864Z</time></trkpt><trkpt lat="44.7268667" lon="9.6284667"><ele>788.0000000000001</ele><time>2026-05-01T09:36:46.864Z</time></trkpt><trkpt lat="44.7267983" lon="9.628555"><ele>788.0</ele><time>2026-05-01T09:36:48.864Z</time></trkpt><trkpt lat="44.7267817" lon="9.6286417"><ele>785.6666666666667</ele><time>2026-05-01T09:36:49.864Z</time></trkpt><trkpt lat="44.7267667" lon="9.6287317"><ele>783.3333333333334</ele><time>2026-05-01T09:36:50.864Z</time></trkpt><trkpt lat="44.7267617" lon="9.6288217"><ele>781.0</ele><time>2026-05-01T09:36:51.864Z</time></trkpt><trkpt lat="44.7267783" lon="9.6289217"><ele>778.6666666666667</ele><time>2026-05-01T09:36:52.864Z</time></trkpt><trkpt lat="44.7267833" lon="9.6290183"><ele>776.3333333333334</ele><time>2026-05-01T09:36:53.864Z</time></trkpt><trkpt lat="44.7267433" lon="9.6291833"><ele>774.0</ele><time>2026-05-01T09:36:55.864Z</time></trkpt><trkpt lat="44.7266617" lon="9.6292983"><ele>774.0</ele><time>2026-05-01T09:36:57.864Z</time></trkpt><trkpt lat="44.7266" lon="9.6293517"><ele>774.0</ele><time>2026-05-01T09:36:58.864Z</time></trkpt><trkpt lat="44.7265367" lon="9.6294083"><ele>774.0</ele><time>2026-05-01T09:36:59.865Z</time></trkpt><trkpt lat="44.72647" lon="9.6294733"><ele>774.0</ele><time>2026-05-01T09:37:00.864Z</time></trkpt><trkpt lat="44.7263983" lon="9.629545"><ele>774.0</ele><time>2026-05-01T09:37:01.864Z</time></trkpt><trkpt lat="44.7263283" lon="9.629605"><ele>774.0</ele><time>2026-05-01T09:37:02.864Z</time></trkpt><trkpt lat="44.7262533" lon="9.6296483"><ele>776.6666666666666</ele><time>2026-05-01T09:37:03.864Z</time></trkpt><trkpt lat="44.7261717" lon="9.6296933"><ele>779.3333333333333</ele><time>2026-05-01T09:37:04.864Z</time></trkpt><trkpt lat="44.7260933" lon="9.6297517"><ele>782.0</ele><time>2026-05-01T09:37:05.864Z</time></trkpt><trkpt lat="44.7260067" lon="9.6297967"><ele>784.6666666666666</ele><time>2026-05-01T09:37:06.864Z</time></trkpt><trkpt lat="44.7259167" lon="9.62984"><ele>787.3333333333333</ele><time>2026-05-01T09:37:07.865Z</time></trkpt><trkpt lat="44.7258383" lon="9.6298533"><ele>790.0</ele><time>2026-05-01T09:37:08.864Z</time></trkpt><trkpt lat="44.7257567" lon="9.6298417"><ele>789.9999999999999</ele><time>2026-05-01T09:37:09.864Z</time></trkpt><trkpt lat="44.72567" lon="9.6298217"><ele>790.0</ele><time>2026-05-01T09:37:10.864Z</time></trkpt><trkpt lat="44.72559" lon="9.62978"><ele>790.0</ele><time>2026-05-01T09:37:11.864Z</time></trkpt><trkpt lat="44.7255117" lon="9.6297383"><ele>790.0</ele><time>2026-05-01T09:37:12.864Z</time></trkpt><trkpt lat="44.7254433" lon="9.6296983"><ele>789.9999999999999</ele><time>2026-05-01T09:37:13.864Z</time></trkpt><trkpt lat="44.725385" lon="9.6296483"><ele>790.0</ele><time>2026-05-01T09:37:14.864Z</time></trkpt><trkpt lat="44.725285" lon="9.629575"><ele>790.4999999999999</ele><time>2026-05-01T09:37:16.864Z</time></trkpt><trkpt lat="44.7252117" lon="9.629565"><ele>791.0</ele><time>2026-05-01T09:37:17.864Z</time></trkpt><trkpt lat="44.7251583" lon="9.6295117"><ele>791.5</ele><time>2026-05-01T09:37:19.864Z</time></trkpt><trkpt lat="44.72508" lon="9.62953"><ele>792.0</ele><time>2026-05-01T09:37:22.864Z</time></trkpt><trkpt lat="44.7249783" lon="9.6295017"><ele>792.4999999999999</ele><time>2026-05-01T09:37:24.864Z</time></trkpt><trkpt lat="44.7248733" lon="9.62947"><ele>793.0</ele><time>2026-05-01T09:37:26.864Z</time></trkpt><trkpt lat="44.7247883" lon="9.62942"><ele>791.3333333333333</ele><time>2026-05-01T09:37:29.864Z</time></trkpt><trkpt lat="44.7248067" lon="9.6293067"><ele>789.6666666666666</ele><time>2026-05-01T09:37:32.864Z</time></trkpt><trkpt lat="44.724835" lon="9.6292067"><ele>788.0</ele><time>2026-05-01T09:37:35.864Z</time></trkpt><trkpt lat="44.724875" lon="9.62912"><ele>786.3333333333333</ele><time>2026-05-01T09:37:36.864Z</time></trkpt><trkpt lat="44.724935" lon="9.628985"><ele>784.6666666666666</ele><time>2026-05-01T09:37:37.864Z</time></trkpt><trkpt lat="44.724985" lon="9.6288583"><ele>783.0</ele><time>2026-05-01T09:37:38.864Z</time></trkpt><trkpt lat="44.7250383" lon="9.6286933"><ele>787.5</ele><time>2026-05-01T09:37:39.864Z</time></trkpt><trkpt lat="44.7251117" lon="9.6284783"><ele>792.0</ele><time>2026-05-01T09:37:40.864Z</time></trkpt><trkpt lat="44.7251467" lon="9.628315"><ele>796.5</ele><time>2026-05-01T09:37:41.864Z</time></trkpt><trkpt lat="44.725175" lon="9.62814"><ele>801.0</ele><time>2026-05-01T09:37:42.864Z</time></trkpt><trkpt lat="44.72522" lon="9.6279467"><ele>791.3333333333333</ele><time>2026-05-01T09:37:43.865Z</time></trkpt><trkpt lat="44.7252533" lon="9.6277233"><ele>781.6666666666666</ele><time>2026-05-01T09:37:44.864Z</time></trkpt><trkpt lat="44.7252567" lon="9.6275383"><ele>772.0</ele><time>2026-05-01T09:37:45.864Z</time></trkpt><trkpt lat="44.725255" lon="9.6273183"><ele>772.0</ele><time>2026-05-01T09:37:46.864Z</time></trkpt><trkpt lat="44.72524" lon="9.627125"><ele>772.0</ele><time>2026-05-01T09:37:47.864Z</time></trkpt><trkpt lat="44.72521" lon="9.626885"><ele>772.0</ele><time>2026-05-01T09:37:48.864Z</time></trkpt><trkpt lat="44.7251517" lon="9.6266383"><ele>782.75</ele><time>2026-05-01T09:37:49.864Z</time></trkpt><trkpt lat="44.72513" lon="9.6264567"><ele>793.5</ele><time>2026-05-01T09:37:50.865Z</time></trkpt><trkpt lat="44.7250983" lon="9.6262683"><ele>804.25</ele><time>2026-05-01T09:37:51.864Z</time></trkpt><trkpt lat="44.7250733" lon="9.6260867"><ele>815.0</ele><time>2026-05-01T09:37:52.864Z</time></trkpt><trkpt lat="44.7250283" lon="9.6259367"><ele>815.6</ele><time>2026-05-01T09:37:53.864Z</time></trkpt><trkpt lat="44.7250033" lon="9.6257933"><ele>816.2</ele><time>2026-05-01T09:37:54.864Z</time></trkpt><trkpt lat="44.7249883" lon="9.6256617"><ele>816.8</ele><time>2026-05-01T09:37:55.865Z</time></trkpt><trkpt lat="44.7249783" lon="9.625535"><ele>817.4</ele><time>2026-05-01T09:37:56.864Z</time></trkpt><trkpt lat="44.7249767" lon="9.62539"><ele>818.0</ele><time>2026-05-01T09:37:57.864Z</time></trkpt><trkpt lat="44.724985" lon="9.62522"><ele>819.5</ele><time>2026-05-01T09:37:58.864Z</time></trkpt><trkpt lat="44.72496" lon="9.6250117"><ele>821.0</ele><time>2026-05-01T09:37:59.864Z</time></trkpt><trkpt lat="44.7249633" lon="9.6248217"><ele>822.5</ele><time>2026-05-01T09:38:00.864Z</time></trkpt><trkpt lat="44.7249617" lon="9.6246167"><ele>824.0</ele><time>2026-05-01T09:38:01.864Z</time></trkpt><trkpt lat="44.72496" lon="9.62443"><ele>825.0</ele><time>2026-05-01T09:38:02.864Z</time></trkpt><trkpt lat="44.7249567" lon="9.6242583"><ele>826.0</ele><time>2026-05-01T09:38:03.864Z</time></trkpt><trkpt lat="44.7249517" lon="9.6240233"><ele>827.0</ele><time>2026-05-01T09:38:04.864Z</time></trkpt><trkpt lat="44.7249317" lon="9.6238317"><ele>828.0</ele><time>2026-05-01T09:38:05.864Z</time></trkpt><trkpt lat="44.7249167" lon="9.62365"><ele>827.5</ele><time>2026-05-01T09:38:06.864Z</time></trkpt><trkpt lat="44.7248983" lon="9.6235117"><ele>827.0</ele><time>2026-05-01T09:38:07.864Z</time></trkpt><trkpt lat="44.72485" lon="9.6234167"><ele>826.5</ele><time>2026-05-01T09:38:08.864Z</time></trkpt><trkpt lat="44.7247583" lon="9.6232417"><ele>826.0</ele><time>2026-05-01T09:38:10.864Z</time></trkpt><trkpt lat="44.724685" lon="9.6231183"><ele>825.9999999999999</ele><time>2026-05-01T09:38:11.864Z</time></trkpt><trkpt lat="44.7246133" lon="9.623005"><ele>826.0</ele><time>2026-05-01T09:38:12.864Z</time></trkpt><trkpt lat="44.724555" lon="9.6229117"><ele>826.0</ele><time>2026-05-01T09:38:13.864Z</time></trkpt><trkpt lat="44.724495" lon="9.6228267"><ele>826.0</ele><time>2026-05-01T09:38:14.864Z</time></trkpt><trkpt lat="44.724435" lon="9.6227433"><ele>825.9999999999999</ele><time>2026-05-01T09:38:15.864Z</time></trkpt><trkpt lat="44.7243767" lon="9.62268"><ele>826.0</ele><time>2026-05-01T09:38:16.864Z</time></trkpt><trkpt lat="44.72432" lon="9.6226233"><ele>830.4999999999999</ele><time>2026-05-01T09:38:17.864Z</time></trkpt><trkpt lat="44.724235" lon="9.62254"><ele>835.0</ele><time>2026-05-01T09:38:18.864Z</time></trkpt><trkpt lat="44.7241683" lon="9.6224783"><ele>839.5</ele><time>2026-05-01T09:38:19.864Z</time></trkpt><trkpt lat="44.7241067" lon="9.6224367"><ele>844.0</ele><time>2026-05-01T09:38:20.865Z</time></trkpt><trkpt lat="44.724" lon="9.6223733"><ele>848.4999999999999</ele><time>2026-05-01T09:38:22.864Z</time></trkpt><trkpt lat="44.7239383" lon="9.62234"><ele>853.0</ele><time>2026-05-01T09:38:24.865Z</time></trkpt><trkpt lat="44.72381" lon="9.6223617"><ele>853.0</ele><time>2026-05-01T09:38:25.864Z</time></trkpt><trkpt lat="44.72388" lon="9.622405"><ele>853.0</ele><time>2026-05-01T09:38:28.864Z</time></trkpt><trkpt lat="44.7239667" lon="9.62245"><ele>853.0</ele><time>2026-05-01T09:38:34.865Z</time></trkpt><trkpt lat="44.723965" lon="9.622335"><ele>853.0</ele><time>2026-05-01T09:38:37.865Z</time></trkpt><trkpt lat="44.7239067" lon="9.6222133"><ele>853.0</ele><time>2026-05-01T09:38:39.865Z</time></trkpt><trkpt lat="44.7238683" lon="9.6220667"><ele>852.2</ele><time>2026-05-01T09:38:40.865Z</time></trkpt><trkpt lat="44.72383" lon="9.6219517"><ele>851.4</ele><time>2026-05-01T09:38:41.866Z</time></trkpt><trkpt lat="44.7237983" lon="9.62177"><ele>850.6</ele><time>2026-05-01T09:38:42.865Z</time></trkpt><trkpt lat="44.7237767" lon="9.62167"><ele>849.8000000000001</ele><time>2026-05-01T09:38:43.865Z</time></trkpt><trkpt lat="44.7237367" lon="9.6214933"><ele>849.0</ele><time>2026-05-01T09:38:45.865Z</time></trkpt><trkpt lat="44.7237067" lon="9.6213983"><ele>849.0</ele><time>2026-05-01T09:38:46.866Z</time></trkpt><trkpt lat="44.7236867" lon="9.6213067"><ele>849.0</ele><time>2026-05-01T09:38:47.865Z</time></trkpt><trkpt lat="44.7236017" lon="9.621155"><ele>849.0</ele><time>2026-05-01T09:38:49.865Z</time></trkpt><trkpt lat="44.72343" lon="9.6211233"><ele>849.0</ele><time>2026-05-01T09:38:50.866Z</time></trkpt><trkpt lat="44.723265" lon="9.6210917"><ele>855.4000000000001</ele><time>2026-05-01T09:38:51.865Z</time></trkpt><trkpt lat="44.7231017" lon="9.621065"><ele>861.8</ele><time>2026-05-01T09:38:52.866Z</time></trkpt><trkpt lat="44.72301" lon="9.6210617"><ele>868.1999999999999</ele><time>2026-05-01T09:38:53.865Z</time></trkpt><trkpt lat="44.7229017" lon="9.6210867"><ele>874.5999999999999</ele><time>2026-05-01T09:38:54.865Z</time></trkpt><trkpt lat="44.722825" lon="9.6211333"><ele>881.0</ele><time>2026-05-01T09:38:55.865Z</time></trkpt><trkpt lat="44.7227517" lon="9.6211933"><ele>886.5</ele><time>2026-05-01T09:38:56.865Z</time></trkpt><trkpt lat="44.722675" lon="9.6212583"><ele>892.0</ele><time>2026-05-01T09:38:57.865Z</time></trkpt><trkpt lat="44.7225667" lon="9.6213433"><ele>897.5</ele><time>2026-05-01T09:38:58.865Z</time></trkpt><trkpt lat="44.7224483" lon="9.621455"><ele>903.0</ele><time>2026-05-01T09:38:59.866Z</time></trkpt><trkpt lat="44.7222783" lon="9.62157"><ele>903.0</ele><time>2026-05-01T09:39:00.865Z</time></trkpt><trkpt lat="44.7221567" lon="9.6216917"><ele>903.0</ele><time>2026-05-01T09:39:01.865Z</time></trkpt><trkpt lat="44.7220383" lon="9.621815"><ele>903.0</ele><time>2026-05-01T09:39:02.865Z</time></trkpt><trkpt lat="44.7219167" lon="9.62194"><ele>903.0</ele><time>2026-05-01T09:39:03.865Z</time></trkpt><trkpt lat="44.7218117" lon="9.6220283"><ele>906.8</ele><time>2026-05-01T09:39:04.865Z</time></trkpt><trkpt lat="44.721715" lon="9.6220967"><ele>910.5999999999999</ele><time>2026-05-01T09:39:05.865Z</time></trkpt><trkpt lat="44.7216333" lon="9.622145"><ele>914.4000000000001</ele><time>2026-05-01T09:39:06.865Z</time></trkpt><trkpt lat="44.721555" lon="9.6221933"><ele>918.2</ele><time>2026-05-01T09:39:07.865Z</time></trkpt><trkpt lat="44.7214667" lon="9.6222667"><ele>922.0</ele><time>2026-05-01T09:39:08.865Z</time></trkpt><trkpt lat="44.72138" lon="9.6223967"><ele>922.0</ele><time>2026-05-01T09:39:09.865Z</time></trkpt><trkpt lat="44.721295" lon="9.6225167"><ele>922.0</ele><time>2026-05-01T09:39:10.865Z</time></trkpt><trkpt lat="44.7212167" lon="9.6226383"><ele>922.0</ele><time>2026-05-01T09:39:11.865Z</time></trkpt><trkpt lat="44.7211433" lon="9.622765"><ele>922.0</ele><time>2026-05-01T09:39:12.865Z</time></trkpt><trkpt lat="44.7210633" lon="9.6229083"><ele>921.5</ele><time>2026-05-01T09:39:13.865Z</time></trkpt><trkpt lat="44.720985" lon="9.623035"><ele>921.0</ele><time>2026-05-01T09:39:14.865Z</time></trkpt><trkpt lat="44.7209" lon="9.6231467"><ele>920.5</ele><time>2026-05-01T09:39:15.865Z</time></trkpt><trkpt lat="44.7208133" lon="9.6232433"><ele>920.0</ele><time>2026-05-01T09:39:16.865Z</time></trkpt><trkpt lat="44.720735" lon="9.6233383"><ele>920.0</ele><time>2026-05-01T09:39:17.866Z</time></trkpt><trkpt lat="44.7206733" lon="9.6234417"><ele>920.0</ele><time>2026-05-01T09:39:18.865Z</time></trkpt><trkpt lat="44.7206167" lon="9.623545"><ele>920.0</ele><time>2026-05-01T09:39:19.865Z</time></trkpt><trkpt lat="44.7205633" lon="9.623665"><ele>920.0</ele><time>2026-05-01T09:39:20.865Z</time></trkpt><trkpt lat="44.7205033" lon="9.6237833"><ele>920.0</ele><time>2026-05-01T09:39:21.865Z</time></trkpt><trkpt lat="44.7204283" lon="9.623895"><ele>922.0</ele><time>2026-05-01T09:39:22.865Z</time></trkpt><trkpt lat="44.7203517" lon="9.6240267"><ele>924.0</ele><time>2026-05-01T09:39:23.865Z</time></trkpt><trkpt lat="44.720275" lon="9.62415"><ele>926.0</ele><time>2026-05-01T09:39:24.865Z</time></trkpt><trkpt lat="44.7201967" lon="9.62427"><ele>928.0</ele><time>2026-05-01T09:39:25.865Z</time></trkpt><trkpt lat="44.72012" lon="9.624375"><ele>931.8</ele><time>2026-05-01T09:39:26.865Z</time></trkpt><trkpt lat="44.7200367" lon="9.6244817"><ele>935.5999999999999</ele><time>2026-05-01T09:39:27.865Z</time></trkpt><trkpt lat="44.71996" lon="9.62457"><ele>939.4000000000001</ele><time>2026-05-01T09:39:28.865Z</time></trkpt><trkpt lat="44.71988" lon="9.6246417"><ele>943.2</ele><time>2026-05-01T09:39:29.865Z</time></trkpt><trkpt lat="44.7198" lon="9.6247017"><ele>947.0</ele><time>2026-05-01T09:39:30.865Z</time></trkpt><trkpt lat="44.7197167" lon="9.624755"><ele>947.0000000000001</ele><time>2026-05-01T09:39:31.865Z</time></trkpt><trkpt lat="44.71964" lon="9.6248017"><ele>947.0</ele><time>2026-05-01T09:39:32.865Z</time></trkpt><trkpt lat="44.7195733" lon="9.6248383"><ele>947.0</ele><time>2026-05-01T09:39:33.865Z</time></trkpt><trkpt lat="44.7194867" lon="9.6248783"><ele>947.0</ele><time>2026-05-01T09:39:35.865Z</time></trkpt><trkpt lat="44.7194267" lon="9.6249267"><ele>947.0000000000001</ele><time>2026-05-01T09:39:58.865Z</time></trkpt><trkpt lat="44.71932" lon="9.6249517"><ele>947.0</ele><time>2026-05-01T09:40:00.865Z</time></trkpt><trkpt lat="44.71924" lon="9.6249667"><ele>945.0000000000001</ele><time>2026-05-01T09:40:01.865Z</time></trkpt><trkpt lat="44.7191567" lon="9.62498"><ele>943.0</ele><time>2026-05-01T09:40:02.865Z</time></trkpt><trkpt lat="44.719075" lon="9.6249917"><ele>941.0</ele><time>2026-05-01T09:40:03.865Z</time></trkpt><trkpt lat="44.7189817" lon="9.62501"><ele>939.0</ele><time>2026-05-01T09:40:04.865Z</time></trkpt><trkpt lat="44.718905" lon="9.6250367"><ele>937.0000000000001</ele><time>2026-05-01T09:40:05.865Z</time></trkpt><trkpt lat="44.7188317" lon="9.625055"><ele>935.0</ele><time>2026-05-01T09:40:06.865Z</time></trkpt><trkpt lat="44.7187517" lon="9.62506"><ele>935.0</ele><time>2026-05-01T09:40:07.865Z</time></trkpt><trkpt lat="44.7186183" lon="9.6251"><ele>935.0</ele><time>2026-05-01T09:40:09.865Z</time></trkpt><trkpt lat="44.7185617" lon="9.62515"><ele>935.0</ele><time>2026-05-01T09:40:10.865Z</time></trkpt><trkpt lat="44.7185217" lon="9.62526"><ele>935.0</ele><time>2026-05-01T09:40:11.865Z</time></trkpt><trkpt lat="44.7184683" lon="9.6253717"><ele>935.0</ele><time>2026-05-01T09:40:12.865Z</time></trkpt><trkpt lat="44.71842" lon="9.6254733"><ele>936.4</ele><time>2026-05-01T09:40:13.865Z</time></trkpt><trkpt lat="44.7183683" lon="9.625555"><ele>937.8</ele><time>2026-05-01T09:40:14.865Z</time></trkpt><trkpt lat="44.718315" lon="9.6256183"><ele>939.2</ele><time>2026-05-01T09:40:15.865Z</time></trkpt><trkpt lat="44.71824" lon="9.6256767"><ele>940.6</ele><time>2026-05-01T09:40:16.865Z</time></trkpt><trkpt lat="44.7181467" lon="9.6257167"><ele>942.0</ele><time>2026-05-01T09:40:17.865Z</time></trkpt><trkpt lat="44.7180317" lon="9.625765"><ele>942.0</ele><time>2026-05-01T09:40:18.865Z</time></trkpt><trkpt lat="44.7179317" lon="9.6257967"><ele>942.0</ele><time>2026-05-01T09:40:19.865Z</time></trkpt><trkpt lat="44.717835" lon="9.62581"><ele>942.0</ele><time>2026-05-01T09:40:20.865Z</time></trkpt><trkpt lat="44.7177367" lon="9.62578"><ele>942.0</ele><time>2026-05-01T09:40:21.865Z</time></trkpt><trkpt lat="44.7176433" lon="9.6257133"><ele>942.0</ele><time>2026-05-01T09:40:22.865Z</time></trkpt><trkpt lat="44.7175283" lon="9.62564"><ele>942.5</ele><time>2026-05-01T09:40:23.865Z</time></trkpt><trkpt lat="44.7174117" lon="9.6255667"><ele>943.0</ele><time>2026-05-01T09:40:24.865Z</time></trkpt><trkpt lat="44.717295" lon="9.625495"><ele>943.5</ele><time>2026-05-01T09:40:25.865Z</time></trkpt><trkpt lat="44.7171767" lon="9.625425"><ele>944.0</ele><time>2026-05-01T09:40:26.865Z</time></trkpt><trkpt lat="44.71707" lon="9.625355"><ele>941.5</ele><time>2026-05-01T09:40:27.865Z</time></trkpt><trkpt lat="44.71696" lon="9.6252567"><ele>939.0</ele><time>2026-05-01T09:40:28.865Z</time></trkpt><trkpt lat="44.7168583" lon="9.625135"><ele>936.5</ele><time>2026-05-01T09:40:29.865Z</time></trkpt><trkpt lat="44.7167667" lon="9.6250217"><ele>934.0</ele><time>2026-05-01T09:40:30.865Z</time></trkpt><trkpt lat="44.7167" lon="9.6249283"><ele>939.0</ele><time>2026-05-01T09:40:31.865Z</time></trkpt><trkpt lat="44.7166617" lon="9.62485"><ele>944.0000000000001</ele><time>2026-05-01T09:40:32.865Z</time></trkpt><trkpt lat="44.7166067" lon="9.624685"><ele>949.0000000000001</ele><time>2026-05-01T09:40:34.865Z</time></trkpt><trkpt lat="44.71659" lon="9.6245683"><ele>954.0</ele><time>2026-05-01T09:40:35.865Z</time></trkpt><trkpt lat="44.7166" lon="9.6244267"><ele>959.0</ele><time>2026-05-01T09:40:36.865Z</time></trkpt><trkpt lat="44.7166383" lon="9.62427"><ele>960.5</ele><time>2026-05-01T09:40:37.865Z</time></trkpt><trkpt lat="44.71672" lon="9.6241017"><ele>962.0</ele><time>2026-05-01T09:40:38.865Z</time></trkpt><trkpt lat="44.716815" lon="9.62393"><ele>963.5</ele><time>2026-05-01T09:40:39.865Z</time></trkpt><trkpt lat="44.7168733" lon="9.623815"><ele>965.0</ele><time>2026-05-01T09:40:40.865Z</time></trkpt><trkpt lat="44.7169283" lon="9.6236933"><ele>959.4</ele><time>2026-05-01T09:40:41.865Z</time></trkpt><trkpt lat="44.7170033" lon="9.6235633"><ele>953.8</ele><time>2026-05-01T09:40:42.866Z</time></trkpt><trkpt lat="44.7170617" lon="9.6234183"><ele>948.2</ele><time>2026-05-01T09:40:43.866Z</time></trkpt><trkpt lat="44.7170683" lon="9.6233183"><ele>942.6</ele><time>2026-05-01T09:40:44.865Z</time></trkpt><trkpt lat="44.7170217" lon="9.6232483"><ele>937.0</ele><time>2026-05-01T09:40:45.865Z</time></trkpt><trkpt lat="44.7169183" lon="9.6231333"><ele>943.75</ele><time>2026-05-01T09:40:46.865Z</time></trkpt><trkpt lat="44.7168233" lon="9.6229567"><ele>950.5</ele><time>2026-05-01T09:40:47.865Z</time></trkpt><trkpt lat="44.716715" lon="9.6228167"><ele>957.25</ele><time>2026-05-01T09:40:48.865Z</time></trkpt><trkpt lat="44.7166317" lon="9.62269"><ele>964.0</ele><time>2026-05-01T09:40:49.865Z</time></trkpt><trkpt lat="44.7165617" lon="9.6225667"><ele>964.0</ele><time>2026-05-01T09:40:50.865Z</time></trkpt><trkpt lat="44.7165017" lon="9.6224417"><ele>964.0</ele><time>2026-05-01T09:40:51.865Z</time></trkpt><trkpt lat="44.7164333" lon="9.6223033"><ele>964.0</ele><time>2026-05-01T09:40:52.865Z</time></trkpt><trkpt lat="44.7163717" lon="9.6221567"><ele>964.0</ele><time>2026-05-01T09:40:53.865Z</time></trkpt><trkpt lat="44.7163083" lon="9.6220033"><ele>966.8000000000001</ele><time>2026-05-01T09:40:54.865Z</time></trkpt><trkpt lat="44.7162317" lon="9.6218667"><ele>969.6000000000001</ele><time>2026-05-01T09:40:55.865Z</time></trkpt><trkpt lat="44.716175" lon="9.6217567"><ele>972.4</ele><time>2026-05-01T09:40:56.865Z</time></trkpt><trkpt lat="44.7161267" lon="9.6216733"><ele>975.2</ele><time>2026-05-01T09:40:57.865Z</time></trkpt><trkpt lat="44.71606" lon="9.6216033"><ele>978.0</ele><time>2026-05-01T09:40:58.865Z</time></trkpt><trkpt lat="44.716" lon="9.6215483"><ele>978.0</ele><time>2026-05-01T09:40:59.865Z</time></trkpt><trkpt lat="44.7159333" lon="9.6215167"><ele>978.0</ele><time>2026-05-01T09:41:00.865Z</time></trkpt><trkpt lat="44.7158583" lon="9.621505"><ele>978.0</ele><time>2026-05-01T09:41:01.865Z</time></trkpt><trkpt lat="44.71578" lon="9.6214983"><ele>978.0</ele><time>2026-05-01T09:41:02.865Z</time></trkpt><trkpt lat="44.7157033" lon="9.62149"><ele>978.0</ele><time>2026-05-01T09:41:03.865Z</time></trkpt><trkpt lat="44.7156133" lon="9.621495"><ele>978.0</ele><time>2026-05-01T09:41:04.865Z</time></trkpt><trkpt lat="44.7154867" lon="9.6215167"><ele>978.0</ele><time>2026-05-01T09:41:05.865Z</time></trkpt><trkpt lat="44.7153717" lon="9.6215433"><ele>978.0</ele><time>2026-05-01T09:41:06.865Z</time></trkpt><trkpt lat="44.71527" lon="9.62155"><ele>978.0</ele><time>2026-05-01T09:41:07.865Z</time></trkpt><trkpt lat="44.7151733" lon="9.6215467"><ele>978.0</ele><time>2026-05-01T09:41:08.865Z</time></trkpt><trkpt lat="44.715075" lon="9.6215233"><ele>978.0</ele><time>2026-05-01T09:41:09.865Z</time></trkpt><trkpt lat="44.7149933" lon="9.6215033"><ele>979.0</ele><time>2026-05-01T09:41:10.865Z</time></trkpt><trkpt lat="44.714905" lon="9.6214883"><ele>980.0</ele><time>2026-05-01T09:41:11.865Z</time></trkpt><trkpt lat="44.7148283" lon="9.6215017"><ele>981.0</ele><time>2026-05-01T09:41:12.865Z</time></trkpt><trkpt lat="44.7147617" lon="9.62158"><ele>982.0</ele><time>2026-05-01T09:41:13.865Z</time></trkpt><trkpt lat="44.714705" lon="9.621675"><ele>983.0</ele><time>2026-05-01T09:41:14.865Z</time></trkpt><trkpt lat="44.7146617" lon="9.621765"><ele>984.0</ele><time>2026-05-01T09:41:15.866Z</time></trkpt><trkpt lat="44.7146033" lon="9.6218517"><ele>984.0</ele><time>2026-05-01T09:41:16.865Z</time></trkpt><trkpt lat="44.7145433" lon="9.6219183"><ele>984.0</ele><time>2026-05-01T09:41:17.865Z</time></trkpt><trkpt lat="44.71448" lon="9.6219617"><ele>984.0</ele><time>2026-05-01T09:41:18.865Z</time></trkpt><trkpt lat="44.7143083" lon="9.6218817"><ele>984.0</ele><time>2026-05-01T09:41:20.865Z</time></trkpt><trkpt lat="44.7141833" lon="9.62184"><ele>983.75</ele><time>2026-05-01T09:41:21.866Z</time></trkpt><trkpt lat="44.7140633" lon="9.621775"><ele>983.5</ele><time>2026-05-01T09:41:22.865Z</time></trkpt><trkpt lat="44.71395" lon="9.6217133"><ele>983.25</ele><time>2026-05-01T09:41:23.865Z</time></trkpt><trkpt lat="44.7138467" lon="9.621625"><ele>983.0</ele><time>2026-05-01T09:41:24.865Z</time></trkpt><trkpt lat="44.71375" lon="9.6215267"><ele>983.0</ele><time>2026-05-01T09:41:25.865Z</time></trkpt><trkpt lat="44.7136617" lon="9.62142"><ele>983.0</ele><time>2026-05-01T09:41:26.865Z</time></trkpt><trkpt lat="44.7135667" lon="9.6213117"><ele>983.0</ele><time>2026-05-01T09:41:27.865Z</time></trkpt><trkpt lat="44.7134817" lon="9.62123"><ele>983.0</ele><time>2026-05-01T09:41:28.865Z</time></trkpt><trkpt lat="44.7134083" lon="9.6211683"><ele>983.0</ele><time>2026-05-01T09:41:29.865Z</time></trkpt><trkpt lat="44.7133383" lon="9.6211267"><ele>980.4</ele><time>2026-05-01T09:41:30.865Z</time></trkpt><trkpt lat="44.7132717" lon="9.621115"><ele>977.8</ele><time>2026-05-01T09:41:31.865Z</time></trkpt><trkpt lat="44.713185" lon="9.6211317"><ele>975.2</ele><time>2026-05-01T09:41:32.866Z</time></trkpt><trkpt lat="44.7130817" lon="9.6212083"><ele>972.6</ele><time>2026-05-01T09:41:33.865Z</time></trkpt><trkpt lat="44.7129867" lon="9.6212883"><ele>970.0</ele><time>2026-05-01T09:41:34.865Z</time></trkpt><trkpt lat="44.71288" lon="9.6213533"><ele>975.6666666666666</ele><time>2026-05-01T09:41:35.865Z</time></trkpt><trkpt lat="44.7127917" lon="9.6214083"><ele>981.3333333333333</ele><time>2026-05-01T09:41:36.865Z</time></trkpt><trkpt lat="44.712725" lon="9.6214483"><ele>987.0</ele><time>2026-05-01T09:41:37.865Z</time></trkpt><trkpt lat="44.7126633" lon="9.6214883"><ele>992.6666666666667</ele><time>2026-05-01T09:41:38.865Z</time></trkpt><trkpt lat="44.7125883" lon="9.621545"><ele>998.3333333333334</ele><time>2026-05-01T09:41:40.865Z</time></trkpt><trkpt lat="44.7125167" lon="9.62163"><ele>1004.0</ele><time>2026-05-01T09:41:43.865Z</time></trkpt><trkpt lat="44.7124433" lon="9.6216267"><ele>1003.9999999999999</ele><time>2026-05-01T09:41:46.865Z</time></trkpt><trkpt lat="44.712365" lon="9.6216367"><ele>1004.0</ele><time>2026-05-01T09:41:56.865Z</time></trkpt><trkpt lat="44.712295" lon="9.6216767"><ele>1003.9999999999999</ele><time>2026-05-01T09:42:01.865Z</time></trkpt><trkpt lat="44.7122283" lon="9.6217317"><ele>1003.9999999999999</ele><time>2026-05-01T09:42:05.865Z</time></trkpt><trkpt lat="44.712165" lon="9.6217633"><ele>1004.0</ele><time>2026-05-01T09:42:08.865Z</time></trkpt><trkpt lat="44.712105" lon="9.6217967"><ele>1003.9999999999999</ele><time>2026-05-01T09:42:11.865Z</time></trkpt><trkpt lat="44.7120417" lon="9.6218267"><ele>1003.9999999999999</ele><time>2026-05-01T09:42:14.866Z</time></trkpt><trkpt lat="44.711965" lon="9.6218567"><ele>1007.1666666666667</ele><time>2026-05-01T09:42:16.865Z</time></trkpt><trkpt lat="44.7118967" lon="9.62186"><ele>1010.3333333333334</ele><time>2026-05-01T09:42:18.865Z</time></trkpt><trkpt lat="44.7118383" lon="9.62194"><ele>1013.5</ele><time>2026-05-01T09:42:21.865Z</time></trkpt><trkpt lat="44.711805" lon="9.6220717"><ele>1016.6666666666667</ele><time>2026-05-01T09:42:23.865Z</time></trkpt><trkpt lat="44.71177" lon="9.6221733"><ele>1019.8333333333334</ele><time>2026-05-01T09:42:26.865Z</time></trkpt><trkpt lat="44.7117367" lon="9.622255"><ele>1023.0</ele><time>2026-05-01T09:42:31.865Z</time></trkpt><trkpt lat="44.7116333" lon="9.622285"><ele>1025.8</ele><time>2026-05-01T09:42:35.865Z</time></trkpt><trkpt lat="44.7115617" lon="9.6222833"><ele>1028.6</ele><time>2026-05-01T09:42:37.865Z</time></trkpt><trkpt lat="44.7114533" lon="9.6222733"><ele>1031.4</ele><time>2026-05-01T09:42:40.865Z</time></trkpt><trkpt lat="44.711325" lon="9.622245"><ele>1034.2</ele><time>2026-05-01T09:42:43.865Z</time></trkpt><trkpt lat="44.7112333" lon="9.62224"><ele>1037.0</ele><time>2026-05-01T09:42:46.865Z</time></trkpt><trkpt lat="44.711165" lon="9.622215"><ele>1038.6666666666667</ele><time>2026-05-01T09:42:48.865Z</time></trkpt><trkpt lat="44.7110601" lon="9.6221653"><ele>1040.3333333333335</ele><time>2026-05-01T09:42:51.961Z</time></trkpt><trkpt lat="44.7109888" lon="9.6220987"><ele>1042.0</ele><time>2026-05-01T09:42:53.932Z</time></trkpt><trkpt lat="44.7109341" lon="9.6220436"><ele>1043.6666666666667</ele><time>2026-05-01T09:42:56.889Z</time></trkpt><trkpt lat="44.7108657" lon="9.6219961"><ele>1045.3333333333333</ele><time>2026-05-01T09:43:00.941Z</time></trkpt><trkpt lat="44.7108505" lon="9.6218708"><ele>1047.0</ele><time>2026-05-01T09:43:01.846Z</time></trkpt><trkpt lat="44.7108536" lon="9.6217605"><ele>1047.0</ele><time>2026-05-01T09:43:03.898Z</time></trkpt><trkpt lat="44.7108742" lon="9.6216753"><ele>1047.0</ele><time>2026-05-01T09:43:05.869Z</time></trkpt><trkpt lat="44.7108987" lon="9.621587"><ele>1047.0</ele><time>2026-05-01T09:43:07.95Z</time></trkpt><trkpt lat="44.7109319" lon="9.6214659"><ele>1047.0</ele><time>2026-05-01T09:43:10.907Z</time></trkpt><trkpt lat="44.710899" lon="9.6213889"><ele>1047.0</ele><time>2026-05-01T09:43:15.861Z</time></trkpt><trkpt lat="44.710985" lon="9.6213339"><ele>1047.0</ele><time>2026-05-01T09:43:16.93Z</time></trkpt><trkpt lat="44.7110314" lon="9.6212199"><ele>1049.6666666666667</ele><time>2026-05-01T09:43:18.823Z</time></trkpt><trkpt lat="44.7110094" lon="9.6210254"><ele>1052.3333333333333</ele><time>2026-05-01T09:43:21.865Z</time></trkpt><trkpt lat="44.7109806" lon="9.6209117"><ele>1055.0</ele><time>2026-05-01T09:43:24.924Z</time></trkpt><trkpt lat="44.7109018" lon="9.6208538"><ele>1057.6666666666665</ele><time>2026-05-01T09:43:27.864Z</time></trkpt><trkpt lat="44.7108554" lon="9.6207924"><ele>1060.3333333333333</ele><time>2026-05-01T09:43:29.962Z</time></trkpt><trkpt lat="44.7108147" lon="9.620724"><ele>1063.0</ele><time>2026-05-01T09:43:31.933Z</time></trkpt><trkpt lat="44.7107735" lon="9.6206241"><ele>1063.0</ele><time>2026-05-01T09:43:34.961Z</time></trkpt><trkpt lat="44.7106517" lon="9.6205705"><ele>1063.0</ele><time>2026-05-01T09:43:35.875Z</time></trkpt><trkpt lat="44.7105763" lon="9.6205357"><ele>1063.0</ele><time>2026-05-01T09:43:36.865Z</time></trkpt><trkpt lat="44.7105033" lon="9.6205035"><ele>1063.0</ele><time>2026-05-01T09:43:38.941Z</time></trkpt><trkpt lat="44.7104242" lon="9.6204059"><ele>1063.0</ele><time>2026-05-01T09:43:41.865Z</time></trkpt><trkpt lat="44.710335" lon="9.6202582"><ele>1064.8333333333333</ele><time>2026-05-01T09:43:43.865Z</time></trkpt><trkpt lat="44.7102831" lon="9.6202031"><ele>1066.6666666666665</ele><time>2026-05-01T09:43:44.865Z</time></trkpt><trkpt lat="44.7102238" lon="9.6201422"><ele>1068.5</ele><time>2026-05-01T09:43:46.865Z</time></trkpt><trkpt lat="44.7101754" lon="9.6200561"><ele>1070.3333333333333</ele><time>2026-05-01T09:43:48.865Z</time></trkpt><trkpt lat="44.7101324" lon="9.6199631"><ele>1072.1666666666667</ele><time>2026-05-01T09:43:51.865Z</time></trkpt><trkpt lat="44.7100879" lon="9.6198999"><ele>1074.0</ele><time>2026-05-01T09:43:55.865Z</time></trkpt><trkpt lat="44.7100273" lon="9.6197781"><ele>1077.4</ele><time>2026-05-01T09:44:25.865Z</time></trkpt><trkpt lat="44.7099655" lon="9.6196795"><ele>1080.8000000000002</ele><time>2026-05-01T09:44:27.865Z</time></trkpt><trkpt lat="44.7098823" lon="9.6195968"><ele>1084.1999999999998</ele><time>2026-05-01T09:44:29.865Z</time></trkpt><trkpt lat="44.7097892" lon="9.619552"><ele>1087.6</ele><time>2026-05-01T09:44:31.865Z</time></trkpt><trkpt lat="44.709695" lon="9.6195333"><ele>1091.0</ele><time>2026-05-01T09:44:33.865Z</time></trkpt><trkpt lat="44.7096017" lon="9.6195167"><ele>1091.5</ele><time>2026-05-01T09:44:35.865Z</time></trkpt><trkpt lat="44.7095083" lon="9.6194533"><ele>1092.0</ele><time>2026-05-01T09:44:37.865Z</time></trkpt><trkpt lat="44.7094533" lon="9.6194067"><ele>1092.5</ele><time>2026-05-01T09:44:38.865Z</time></trkpt><trkpt lat="44.7093583" lon="9.6193083"><ele>1093.0</ele><time>2026-05-01T09:44:40.865Z</time></trkpt><trkpt lat="44.7092983" lon="9.6192617"><ele>1093.5</ele><time>2026-05-01T09:44:41.865Z</time></trkpt><trkpt lat="44.70923" lon="9.619215"><ele>1094.0</ele><time>2026-05-01T09:44:42.865Z</time></trkpt><trkpt lat="44.7091467" lon="9.6191733"><ele>1090.6000000000001</ele><time>2026-05-01T09:44:43.865Z</time></trkpt><trkpt lat="44.7090583" lon="9.6190633"><ele>1087.2</ele><time>2026-05-01T09:44:45.865Z</time></trkpt><trkpt lat="44.708985" lon="9.6189567"><ele>1083.8000000000002</ele><time>2026-05-01T09:44:47.866Z</time></trkpt><trkpt lat="44.7089733" lon="9.6188517"><ele>1080.4</ele><time>2026-05-01T09:44:49.865Z</time></trkpt><trkpt lat="44.709" lon="9.6187367"><ele>1077.0</ele><time>2026-05-01T09:44:51.865Z</time></trkpt><trkpt lat="44.708955" lon="9.6185633"><ele>1075.5</ele><time>2026-05-01T09:44:53.865Z</time></trkpt><trkpt lat="44.7089083" lon="9.618465"><ele>1074.0</ele><time>2026-05-01T09:44:54.865Z</time></trkpt><trkpt lat="44.70886" lon="9.6183933"><ele>1072.5</ele><time>2026-05-01T09:44:55.865Z</time></trkpt><trkpt lat="44.7088033" lon="9.6182967"><ele>1071.0</ele><time>2026-05-01T09:44:56.865Z</time></trkpt><trkpt lat="44.7087367" lon="9.61821"><ele>1069.5</ele><time>2026-05-01T09:44:57.865Z</time></trkpt><trkpt lat="44.70866" lon="9.61815"><ele>1068.0</ele><time>2026-05-01T09:44:58.865Z</time></trkpt><trkpt lat="44.7085717" lon="9.6181033"><ele>1065.5</ele><time>2026-05-01T09:44:59.865Z</time></trkpt><trkpt lat="44.7084917" lon="9.61807"><ele>1063.0</ele><time>2026-05-01T09:45:00.865Z</time></trkpt><trkpt lat="44.7084233" lon="9.6180217"><ele>1060.5</ele><time>2026-05-01T09:45:01.865Z</time></trkpt><trkpt lat="44.7083667" lon="9.6179483"><ele>1058.0</ele><time>2026-05-01T09:45:02.865Z</time></trkpt><trkpt lat="44.7083283" lon="9.617875"><ele>1055.5</ele><time>2026-05-01T09:45:03.865Z</time></trkpt><trkpt lat="44.7083083" lon="9.6177267"><ele>1053.0</ele><time>2026-05-01T09:45:05.865Z</time></trkpt><trkpt lat="44.7082833" lon="9.6175583"><ele>1052.6</ele><time>2026-05-01T09:45:07.865Z</time></trkpt><trkpt lat="44.7082367" lon="9.61746"><ele>1052.1999999999998</ele><time>2026-05-01T09:45:08.865Z</time></trkpt><trkpt lat="44.7081717" lon="9.6173383"><ele>1051.8</ele><time>2026-05-01T09:45:09.865Z</time></trkpt><trkpt lat="44.708095" lon="9.6172133"><ele>1051.3999999999999</ele><time>2026-05-01T09:45:10.865Z</time></trkpt><trkpt lat="44.7080083" lon="9.617085"><ele>1051.0</ele><time>2026-05-01T09:45:11.865Z</time></trkpt><trkpt lat="44.7079217" lon="9.6169567"><ele>1051.8</ele><time>2026-05-01T09:45:12.865Z</time></trkpt><trkpt lat="44.707845" lon="9.6168417"><ele>1052.6</ele><time>2026-05-01T09:45:13.865Z</time></trkpt><trkpt lat="44.707775" lon="9.61673"><ele>1053.4</ele><time>2026-05-01T09:45:14.865Z</time></trkpt><trkpt lat="44.7077067" lon="9.6165933"><ele>1054.2</ele><time>2026-05-01T09:45:15.865Z</time></trkpt><trkpt lat="44.707645" lon="9.6164783"><ele>1055.0</ele><time>2026-05-01T09:45:16.865Z</time></trkpt><trkpt lat="44.7075683" lon="9.61637"><ele>1052.25</ele><time>2026-05-01T09:45:17.865Z</time></trkpt><trkpt lat="44.7074783" lon="9.6162683"><ele>1049.5</ele><time>2026-05-01T09:45:18.865Z</time></trkpt><trkpt lat="44.707375" lon="9.6161583"><ele>1046.75</ele><time>2026-05-01T09:45:19.865Z</time></trkpt><trkpt lat="44.70727" lon="9.6160383"><ele>1044.0</ele><time>2026-05-01T09:45:20.865Z</time></trkpt><trkpt lat="44.7071617" lon="9.6159233"><ele>1044.0</ele><time>2026-05-01T09:45:21.865Z</time></trkpt><trkpt lat="44.7070683" lon="9.615805"><ele>1044.0</ele><time>2026-05-01T09:45:22.865Z</time></trkpt><trkpt lat="44.7069983" lon="9.615685"><ele>1044.0</ele><time>2026-05-01T09:45:23.865Z</time></trkpt><trkpt lat="44.70694" lon="9.61557"><ele>1044.0</ele><time>2026-05-01T09:45:24.865Z</time></trkpt><trkpt lat="44.7068833" lon="9.6154683"><ele>1044.0</ele><time>2026-05-01T09:45:25.865Z</time></trkpt><trkpt lat="44.70681" lon="9.6153733"><ele>1039.75</ele><time>2026-05-01T09:45:26.865Z</time></trkpt><trkpt lat="44.7067283" lon="9.615285"><ele>1035.5</ele><time>2026-05-01T09:45:27.865Z</time></trkpt><trkpt lat="44.7066117" lon="9.6152183"><ele>1031.25</ele><time>2026-05-01T09:45:28.865Z</time></trkpt><trkpt lat="44.7064967" lon="9.6151767"><ele>1027.0</ele><time>2026-05-01T09:45:29.865Z</time></trkpt><trkpt lat="44.7063933" lon="9.615145"><ele>1027.0</ele><time>2026-05-01T09:45:30.865Z</time></trkpt><trkpt lat="44.70629" lon="9.61512"><ele>1027.0</ele><time>2026-05-01T09:45:31.865Z</time></trkpt><trkpt lat="44.7061883" lon="9.6150983"><ele>1027.0</ele><time>2026-05-01T09:45:32.865Z</time></trkpt><trkpt lat="44.706075" lon="9.6150633"><ele>1027.0</ele><time>2026-05-01T09:45:33.865Z</time></trkpt><trkpt lat="44.7059617" lon="9.6150167"><ele>1027.0</ele><time>2026-05-01T09:45:34.865Z</time></trkpt><trkpt lat="44.7058667" lon="9.61496"><ele>1026.4</ele><time>2026-05-01T09:45:35.865Z</time></trkpt><trkpt lat="44.705775" lon="9.61489"><ele>1025.8000000000002</ele><time>2026-05-01T09:45:36.865Z</time></trkpt><trkpt lat="44.7057117" lon="9.61479"><ele>1025.2</ele><time>2026-05-01T09:45:37.865Z</time></trkpt><trkpt lat="44.7056483" lon="9.6146933"><ele>1024.6000000000001</ele><time>2026-05-01T09:45:38.865Z</time></trkpt><trkpt lat="44.70558" lon="9.6145967"><ele>1024.0</ele><time>2026-05-01T09:45:39.865Z</time></trkpt><trkpt lat="44.7055067" lon="9.6145033"><ele>1022.2</ele><time>2026-05-01T09:45:40.865Z</time></trkpt><trkpt lat="44.7054383" lon="9.614415"><ele>1020.4000000000001</ele><time>2026-05-01T09:45:41.865Z</time></trkpt><trkpt lat="44.705375" lon="9.6143283"><ele>1018.6</ele><time>2026-05-01T09:45:42.865Z</time></trkpt><trkpt lat="44.7053283" lon="9.6142533"><ele>1016.8</ele><time>2026-05-01T09:45:43.865Z</time></trkpt><trkpt lat="44.7052733" lon="9.6141183"><ele>1015.0</ele><time>2026-05-01T09:45:45.865Z</time></trkpt><trkpt lat="44.7052333" lon="9.6139967"><ele>1014.6666666666666</ele><time>2026-05-01T09:45:47.865Z</time></trkpt><trkpt lat="44.7052033" lon="9.613885"><ele>1014.3333333333333</ele><time>2026-05-01T09:45:49.865Z</time></trkpt><trkpt lat="44.7051683" lon="9.613755"><ele>1014.0</ele><time>2026-05-01T09:45:51.865Z</time></trkpt><trkpt lat="44.7051383" lon="9.6136767"><ele>1013.6666666666667</ele><time>2026-05-01T09:45:52.865Z</time></trkpt><trkpt lat="44.7051117" lon="9.613595"><ele>1013.3333333333334</ele><time>2026-05-01T09:45:53.865Z</time></trkpt><trkpt lat="44.7050817" lon="9.61349"><ele>1013.0</ele><time>2026-05-01T09:45:54.866Z</time></trkpt><trkpt lat="44.7050533" lon="9.6133983"><ele>1013.0000000000001</ele><time>2026-05-01T09:45:55.865Z</time></trkpt><trkpt lat="44.705035" lon="9.6132517"><ele>1013.0</ele><time>2026-05-01T09:45:56.865Z</time></trkpt><trkpt lat="44.7050167" lon="9.6131417"><ele>1013.0</ele><time>2026-05-01T09:45:57.865Z</time></trkpt><trkpt lat="44.7049933" lon="9.613035"><ele>1013.0</ele><time>2026-05-01T09:45:58.865Z</time></trkpt><trkpt lat="44.7049583" lon="9.6129433"><ele>1013.0000000000001</ele><time>2026-05-01T09:45:59.865Z</time></trkpt><trkpt lat="44.7049167" lon="9.612855"><ele>1013.0</ele><time>2026-05-01T09:46:00.866Z</time></trkpt><trkpt lat="44.7048667" lon="9.6127717"><ele>1013.2</ele><time>2026-05-01T09:46:01.866Z</time></trkpt><trkpt lat="44.704805" lon="9.6126883"><ele>1013.4</ele><time>2026-05-01T09:46:02.866Z</time></trkpt><trkpt lat="44.7047467" lon="9.61257"><ele>1013.6000000000001</ele><time>2026-05-01T09:46:03.865Z</time></trkpt><trkpt lat="44.7046733" lon="9.6124867"><ele>1013.8000000000001</ele><time>2026-05-01T09:46:04.865Z</time></trkpt><trkpt lat="44.704595" lon="9.6123983"><ele>1014.0</ele><time>2026-05-01T09:46:05.865Z</time></trkpt><trkpt lat="44.7045067" lon="9.6123233"><ele>1012.6</ele><time>2026-05-01T09:46:06.865Z</time></trkpt><trkpt lat="44.7044067" lon="9.6122333"><ele>1011.2</ele><time>2026-05-01T09:46:07.865Z</time></trkpt><trkpt lat="44.70433" lon="9.61216"><ele>1009.8000000000001</ele><time>2026-05-01T09:46:08.865Z</time></trkpt><trkpt lat="44.704235" lon="9.6120917"><ele>1008.4000000000001</ele><time>2026-05-01T09:46:09.865Z</time></trkpt><trkpt lat="44.704145" lon="9.61204"><ele>1007.0</ele><time>2026-05-01T09:46:10.865Z</time></trkpt><trkpt lat="44.7040667" lon="9.6120083"><ele>1006.5000000000001</ele><time>2026-05-01T09:46:11.865Z</time></trkpt><trkpt lat="44.7039567" lon="9.6119867"><ele>1006.0</ele><time>2026-05-01T09:46:13.865Z</time></trkpt><trkpt lat="44.7038933" lon="9.6119633"><ele>1005.5</ele><time>2026-05-01T09:46:14.865Z</time></trkpt><trkpt lat="44.7037867" lon="9.6118933"><ele>1005.0</ele><time>2026-05-01T09:46:16.865Z</time></trkpt><trkpt lat="44.7037233" lon="9.6118317"><ele>1004.5000000000001</ele><time>2026-05-01T09:46:17.865Z</time></trkpt><trkpt lat="44.7036717" lon="9.61176"><ele>1004.0</ele><time>2026-05-01T09:46:18.865Z</time></trkpt><trkpt lat="44.7036167" lon="9.6116783"><ele>1004.0000000000001</ele><time>2026-05-01T09:46:19.865Z</time></trkpt><trkpt lat="44.7035633" lon="9.611605"><ele>1004.0</ele><time>2026-05-01T09:46:20.865Z</time></trkpt><trkpt lat="44.7035133" lon="9.6115233"><ele>1004.0</ele><time>2026-05-01T09:46:21.865Z</time></trkpt><trkpt lat="44.7034483" lon="9.6114383"><ele>1004.0</ele><time>2026-05-01T09:46:22.865Z</time></trkpt><trkpt lat="44.7033833" lon="9.6113667"><ele>1004.0000000000001</ele><time>2026-05-01T09:46:23.866Z</time></trkpt><trkpt lat="44.7033133" lon="9.6113017"><ele>1004.0</ele><time>2026-05-01T09:46:24.865Z</time></trkpt><trkpt lat="44.70325" lon="9.61124"><ele>1004.0000000000001</ele><time>2026-05-01T09:46:25.865Z</time></trkpt><trkpt lat="44.7031833" lon="9.6111733"><ele>1004.0</ele><time>2026-05-01T09:46:26.865Z</time></trkpt><trkpt lat="44.703115" lon="9.6110967"><ele>1004.0</ele><time>2026-05-01T09:46:27.865Z</time></trkpt><trkpt lat="44.7030483" lon="9.6110183"><ele>1004.0</ele><time>2026-05-01T09:46:28.865Z</time></trkpt><trkpt lat="44.7029783" lon="9.610945"><ele>1004.0000000000001</ele><time>2026-05-01T09:46:29.865Z</time></trkpt><trkpt lat="44.7029" lon="9.610865"><ele>1004.0</ele><time>2026-05-01T09:46:30.865Z</time></trkpt><trkpt lat="44.70282" lon="9.6107833"><ele>1003.0</ele><time>2026-05-01T09:46:31.865Z</time></trkpt><trkpt lat="44.7027483" lon="9.6107017"><ele>1002.0000000000001</ele><time>2026-05-01T09:46:32.865Z</time></trkpt><trkpt lat="44.70268" lon="9.6106217"><ele>1001.0000000000001</ele><time>2026-05-01T09:46:33.865Z</time></trkpt><trkpt lat="44.7026167" lon="9.6105417"><ele>1000.0</ele><time>2026-05-01T09:46:34.865Z</time></trkpt><trkpt lat="44.7025433" lon="9.6104617"><ele>999.0</ele><time>2026-05-01T09:46:35.865Z</time></trkpt><trkpt lat="44.7024633" lon="9.6103783"><ele>998.1666666666666</ele><time>2026-05-01T09:46:36.865Z</time></trkpt><trkpt lat="44.70239" lon="9.610295"><ele>997.3333333333333</ele><time>2026-05-01T09:46:37.865Z</time></trkpt><trkpt lat="44.7023167" lon="9.610225"><ele>996.5</ele><time>2026-05-01T09:46:38.865Z</time></trkpt><trkpt lat="44.702255" lon="9.6101533"><ele>995.6666666666666</ele><time>2026-05-01T09:46:39.865Z</time></trkpt><trkpt lat="44.7022033" lon="9.61009"><ele>994.8333333333333</ele><time>2026-05-01T09:46:40.865Z</time></trkpt><trkpt lat="44.702145" lon="9.6100267"><ele>994.0</ele><time>2026-05-01T09:46:41.865Z</time></trkpt><trkpt lat="44.7020567" lon="9.6099283"><ele>993.9999999999999</ele><time>2026-05-01T09:46:43.865Z</time></trkpt><trkpt lat="44.7020117" lon="9.6098367"><ele>994.0</ele><time>2026-05-01T09:46:46.865Z</time></trkpt><trkpt lat="44.7019767" lon="9.60976"><ele>994.0</ele><time>2026-05-01T09:46:48.865Z</time></trkpt><trkpt lat="44.7019367" lon="9.6096633"><ele>994.0</ele><time>2026-05-01T09:46:50.865Z</time></trkpt><trkpt lat="44.7018883" lon="9.60957"><ele>993.9999999999999</ele><time>2026-05-01T09:46:52.865Z</time></trkpt><trkpt lat="44.7018083" lon="9.6094817"><ele>994.0</ele><time>2026-05-01T09:46:54.865Z</time></trkpt><trkpt lat="44.7016917" lon="9.6094"><ele>993.4999999999999</ele><time>2026-05-01T09:46:56.865Z</time></trkpt><trkpt lat="44.7016167" lon="9.6093567"><ele>993.0</ele><time>2026-05-01T09:46:57.865Z</time></trkpt><trkpt lat="44.7015433" lon="9.6093033"><ele>992.5</ele><time>2026-05-01T09:46:58.865Z</time></trkpt><trkpt lat="44.70148" lon="9.6092383"><ele>992.0</ele><time>2026-05-01T09:46:59.865Z</time></trkpt><trkpt lat="44.7014233" lon="9.6091767"><ele>991.4999999999999</ele><time>2026-05-01T09:47:00.865Z</time></trkpt><trkpt lat="44.7013717" lon="9.6091067"><ele>991.0</ele><time>2026-05-01T09:47:01.865Z</time></trkpt><trkpt lat="44.7013267" lon="9.60904"><ele>991.0</ele><time>2026-05-01T09:47:02.865Z</time></trkpt><trkpt lat="44.70125" lon="9.60891"><ele>990.9999999999999</ele><time>2026-05-01T09:47:04.865Z</time></trkpt><trkpt lat="44.701185" lon="9.6088033"><ele>990.9999999999999</ele><time>2026-05-01T09:47:06.865Z</time></trkpt><trkpt lat="44.7011033" lon="9.6087"><ele>991.0</ele><time>2026-05-01T09:47:08.865Z</time></trkpt><trkpt lat="44.70101" lon="9.6086167"><ele>991.0</ele><time>2026-05-01T09:47:10.865Z</time></trkpt><trkpt lat="44.70092" lon="9.6085467"><ele>990.5999999999999</ele><time>2026-05-01T09:47:12.865Z</time></trkpt><trkpt lat="44.7008467" lon="9.60849"><ele>990.1999999999999</ele><time>2026-05-01T09:47:13.865Z</time></trkpt><trkpt lat="44.7007567" lon="9.6084517"><ele>989.8000000000001</ele><time>2026-05-01T09:47:14.865Z</time></trkpt><trkpt lat="44.7006583" lon="9.6084033"><ele>989.4000000000001</ele><time>2026-05-01T09:47:15.865Z</time></trkpt><trkpt lat="44.7005633" lon="9.60837"><ele>989.0</ele><time>2026-05-01T09:47:16.865Z</time></trkpt><trkpt lat="44.70049" lon="9.6083283"><ele>989.0</ele><time>2026-05-01T09:47:17.865Z</time></trkpt><trkpt lat="44.700405" lon="9.608275"><ele>989.0000000000001</ele><time>2026-05-01T09:47:18.865Z</time></trkpt><trkpt lat="44.7003233" lon="9.608185"><ele>989.0000000000001</ele><time>2026-05-01T09:47:19.865Z</time></trkpt><trkpt lat="44.7002367" lon="9.6080883"><ele>989.0</ele><time>2026-05-01T09:47:20.865Z</time></trkpt><trkpt lat="44.7001633" lon="9.6079967"><ele>989.0</ele><time>2026-05-01T09:47:21.865Z</time></trkpt><trkpt lat="44.7000933" lon="9.6078967"><ele>987.6</ele><time>2026-05-01T09:47:22.865Z</time></trkpt><trkpt lat="44.70002" lon="9.6077833"><ele>986.2</ele><time>2026-05-01T09:47:23.865Z</time></trkpt><trkpt lat="44.6999583" lon="9.6076667"><ele>984.8000000000001</ele><time>2026-05-01T09:47:24.865Z</time></trkpt><trkpt lat="44.6999033" lon="9.6075567"><ele>983.4000000000001</ele><time>2026-05-01T09:47:25.865Z</time></trkpt><trkpt lat="44.6998517" lon="9.607445"><ele>982.0</ele><time>2026-05-01T09:47:26.865Z</time></trkpt><trkpt lat="44.699805" lon="9.6073367"><ele>981.9999999999999</ele><time>2026-05-01T09:47:27.865Z</time></trkpt><trkpt lat="44.6997583" lon="9.6072217"><ele>982.0</ele><time>2026-05-01T09:47:28.865Z</time></trkpt><trkpt lat="44.6997083" lon="9.6071033"><ele>982.0</ele><time>2026-05-01T09:47:29.865Z</time></trkpt><trkpt lat="44.6996633" lon="9.6070017"><ele>982.0</ele><time>2026-05-01T09:47:30.866Z</time></trkpt><trkpt lat="44.6996317" lon="9.6069133"><ele>981.9999999999999</ele><time>2026-05-01T09:47:31.865Z</time></trkpt><trkpt lat="44.6996017" lon="9.60679"><ele>982.0</ele><time>2026-05-01T09:47:33.865Z</time></trkpt><trkpt lat="44.6995817" lon="9.60665"><ele>980.4000000000001</ele><time>2026-05-01T09:47:35.865Z</time></trkpt><trkpt lat="44.699565" lon="9.6065517"><ele>978.8000000000001</ele><time>2026-05-01T09:47:36.865Z</time></trkpt><trkpt lat="44.6995383" lon="9.6064267"><ele>977.2</ele><time>2026-05-01T09:47:37.865Z</time></trkpt><trkpt lat="44.6995067" lon="9.60629"><ele>975.6</ele><time>2026-05-01T09:47:38.865Z</time></trkpt><trkpt lat="44.6994833" lon="9.60616"><ele>974.0</ele><time>2026-05-01T09:47:39.865Z</time></trkpt><trkpt lat="44.6994617" lon="9.60604"><ele>973.0</ele><time>2026-05-01T09:47:40.865Z</time></trkpt><trkpt lat="44.699435" lon="9.605935"><ele>972.0</ele><time>2026-05-01T09:47:41.865Z</time></trkpt><trkpt lat="44.6993967" lon="9.6058383"><ele>971.0</ele><time>2026-05-01T09:47:42.865Z</time></trkpt><trkpt lat="44.6993583" lon="9.605755"><ele>970.0</ele><time>2026-05-01T09:47:43.865Z</time></trkpt><trkpt lat="44.6993117" lon="9.605675"><ele>969.0</ele><time>2026-05-01T09:47:44.865Z</time></trkpt><trkpt lat="44.69927" lon="9.6055933"><ele>968.0</ele><time>2026-05-01T09:47:45.865Z</time></trkpt><trkpt lat="44.699245" lon="9.60551"><ele>967.0</ele><time>2026-05-01T09:47:46.865Z</time></trkpt><trkpt lat="44.6992083" lon="9.6053517"><ele>966.3333333333333</ele><time>2026-05-01T09:47:48.866Z</time></trkpt><trkpt lat="44.6991683" lon="9.6052683"><ele>965.6666666666666</ele><time>2026-05-01T09:47:49.866Z</time></trkpt><trkpt lat="44.6991267" lon="9.60518"><ele>965.0</ele><time>2026-05-01T09:47:50.866Z</time></trkpt><trkpt lat="44.69909" lon="9.6051017"><ele>964.3333333333333</ele><time>2026-05-01T09:47:51.866Z</time></trkpt><trkpt lat="44.6990283" lon="9.60501"><ele>963.6666666666666</ele><time>2026-05-01T09:47:53.866Z</time></trkpt><trkpt lat="44.6989633" lon="9.6049667"><ele>963.0</ele><time>2026-05-01T09:47:55.866Z</time></trkpt><trkpt lat="44.6988567" lon="9.60494"><ele>963.0</ele><time>2026-05-01T09:47:57.866Z</time></trkpt><trkpt lat="44.698795" lon="9.6048933"><ele>963.0</ele><time>2026-05-01T09:47:58.866Z</time></trkpt><trkpt lat="44.6987367" lon="9.6048533"><ele>963.0</ele><time>2026-05-01T09:47:59.866Z</time></trkpt><trkpt lat="44.69867" lon="9.60482"><ele>963.0</ele><time>2026-05-01T09:48:00.866Z</time></trkpt><trkpt lat="44.6986117" lon="9.604785"><ele>963.0</ele><time>2026-05-01T09:48:01.866Z</time></trkpt><trkpt lat="44.69849" lon="9.6047467"><ele>963.0</ele><time>2026-05-01T09:48:03.866Z</time></trkpt><trkpt lat="44.6984233" lon="9.6047433"><ele>961.1666666666666</ele><time>2026-05-01T09:48:04.866Z</time></trkpt><trkpt lat="44.6983217" lon="9.6047417"><ele>959.3333333333333</ele><time>2026-05-01T09:48:06.866Z</time></trkpt><trkpt lat="44.6982583" lon="9.6047467"><ele>957.5</ele><time>2026-05-01T09:48:07.867Z</time></trkpt><trkpt lat="44.69815" lon="9.60474"><ele>955.6666666666666</ele><time>2026-05-01T09:48:09.866Z</time></trkpt><trkpt lat="44.6980733" lon="9.6047617"><ele>953.8333333333333</ele><time>2026-05-01T09:48:11.866Z</time></trkpt><trkpt lat="44.6979917" lon="9.6048233"><ele>952.0</ele><time>2026-05-01T09:48:13.866Z</time></trkpt><trkpt lat="44.69789" lon="9.6049083"><ele>952.0</ele><time>2026-05-01T09:48:15.866Z</time></trkpt><trkpt lat="44.69779" lon="9.60497"><ele>952.0</ele><time>2026-05-01T09:48:17.866Z</time></trkpt><trkpt lat="44.6977033" lon="9.6049867"><ele>952.0</ele><time>2026-05-01T09:48:19.866Z</time></trkpt><trkpt lat="44.6975967" lon="9.6049217"><ele>952.0</ele><time>2026-05-01T09:48:21.866Z</time></trkpt><trkpt lat="44.697545" lon="9.60487"><ele>952.0</ele><time>2026-05-01T09:48:22.866Z</time></trkpt><trkpt lat="44.6974833" lon="9.6048117"><ele>952.3333333333333</ele><time>2026-05-01T09:48:23.866Z</time></trkpt><trkpt lat="44.6974183" lon="9.604755"><ele>952.6666666666666</ele><time>2026-05-01T09:48:24.866Z</time></trkpt><trkpt lat="44.69735" lon="9.604695"><ele>953.0</ele><time>2026-05-01T09:48:25.866Z</time></trkpt><trkpt lat="44.6972783" lon="9.6046317"><ele>953.3333333333333</ele><time>2026-05-01T09:48:26.867Z</time></trkpt><trkpt lat="44.697205" lon="9.6045683"><ele>953.6666666666666</ele><time>2026-05-01T09:48:27.866Z</time></trkpt><trkpt lat="44.69713" lon="9.604495"><ele>954.0</ele><time>2026-05-01T09:48:28.866Z</time></trkpt><trkpt lat="44.6970817" lon="9.6044133"><ele>954.0</ele><time>2026-05-01T09:48:29.866Z</time></trkpt><trkpt lat="44.6970317" lon="9.60432"><ele>954.0</ele><time>2026-05-01T09:48:30.866Z</time></trkpt><trkpt lat="44.6970067" lon="9.6042317"><ele>954.0</ele><time>2026-05-01T09:48:31.866Z</time></trkpt><trkpt lat="44.6969933" lon="9.604135"><ele>954.0</ele><time>2026-05-01T09:48:32.866Z</time></trkpt><trkpt lat="44.6969933" lon="9.6039817"><ele>954.0</ele><time>2026-05-01T09:48:33.866Z</time></trkpt><trkpt lat="44.6970133" lon="9.6038517"><ele>954.0</ele><time>2026-05-01T09:48:34.866Z</time></trkpt><trkpt lat="44.69703" lon="9.6037217"><ele>954.0</ele><time>2026-05-01T09:48:35.866Z</time></trkpt><trkpt lat="44.6970483" lon="9.60359"><ele>954.0000000000001</ele><time>2026-05-01T09:48:36.866Z</time></trkpt><trkpt lat="44.6970617" lon="9.6034617"><ele>954.0000000000001</ele><time>2026-05-01T09:48:37.866Z</time></trkpt><trkpt lat="44.697075" lon="9.6033233"><ele>954.0</ele><time>2026-05-01T09:48:38.866Z</time></trkpt><trkpt lat="44.6970867" lon="9.6031783"><ele>954.0</ele><time>2026-05-01T09:48:39.866Z</time></trkpt><trkpt lat="44.6970917" lon="9.60305"><ele>954.0</ele><time>2026-05-01T09:48:40.866Z</time></trkpt><trkpt lat="44.697085" lon="9.6029367"><ele>954.0</ele><time>2026-05-01T09:48:41.866Z</time></trkpt><trkpt lat="44.6970733" lon="9.602835"><ele>954.0</ele><time>2026-05-01T09:48:42.867Z</time></trkpt><trkpt lat="44.697055" lon="9.6027133"><ele>954.0</ele><time>2026-05-01T09:48:43.867Z</time></trkpt><trkpt lat="44.6970317" lon="9.6026083"><ele>954.0</ele><time>2026-05-01T09:48:44.866Z</time></trkpt><trkpt lat="44.6970033" lon="9.6024917"><ele>954.0</ele><time>2026-05-01T09:48:45.866Z</time></trkpt><trkpt lat="44.6969583" lon="9.6023667"><ele>951.6</ele><time>2026-05-01T09:48:46.866Z</time></trkpt><trkpt lat="44.6969233" lon="9.6022533"><ele>949.2</ele><time>2026-05-01T09:48:47.866Z</time></trkpt><trkpt lat="44.6968867" lon="9.6021617"><ele>946.8000000000001</ele><time>2026-05-01T09:48:48.866Z</time></trkpt><trkpt lat="44.6968417" lon="9.6020417"><ele>944.4000000000001</ele><time>2026-05-01T09:48:49.866Z</time></trkpt><trkpt lat="44.6968" lon="9.6019133"><ele>942.0</ele><time>2026-05-01T09:48:50.866Z</time></trkpt><trkpt lat="44.6967583" lon="9.6017917"><ele>942.0</ele><time>2026-05-01T09:48:51.866Z</time></trkpt><trkpt lat="44.69672" lon="9.601685"><ele>942.0</ele><time>2026-05-01T09:48:52.867Z</time></trkpt><trkpt lat="44.696675" lon="9.6015583"><ele>942.0</ele><time>2026-05-01T09:48:53.866Z</time></trkpt><trkpt lat="44.6966317" lon="9.6014367"><ele>942.0</ele><time>2026-05-01T09:48:54.866Z</time></trkpt><trkpt lat="44.6965967" lon="9.60132"><ele>942.0</ele><time>2026-05-01T09:48:55.866Z</time></trkpt><trkpt lat="44.69656" lon="9.6012"><ele>943.0</ele><time>2026-05-01T09:48:56.866Z</time></trkpt><trkpt lat="44.69652" lon="9.6010783"><ele>944.0</ele><time>2026-05-01T09:48:57.866Z</time></trkpt><trkpt lat="44.6964683" lon="9.6009583"><ele>945.0</ele><time>2026-05-01T09:48:58.866Z</time></trkpt><trkpt lat="44.6964117" lon="9.600835"><ele>946.0</ele><time>2026-05-01T09:48:59.866Z</time></trkpt><trkpt lat="44.6963583" lon="9.6007133"><ele>947.0</ele><time>2026-05-01T09:49:00.866Z</time></trkpt><trkpt lat="44.69631" lon="9.6005983"><ele>947.0000000000001</ele><time>2026-05-01T09:49:01.866Z</time></trkpt><trkpt lat="44.6962683" lon="9.6004917"><ele>947.0</ele><time>2026-05-01T09:49:02.866Z</time></trkpt><trkpt lat="44.69623" lon="9.6003883"><ele>947.0</ele><time>2026-05-01T09:49:03.866Z</time></trkpt><trkpt lat="44.6961883" lon="9.6002983"><ele>947.0</ele><time>2026-05-01T09:49:04.866Z</time></trkpt><trkpt lat="44.696155" lon="9.6002167"><ele>947.0000000000001</ele><time>2026-05-01T09:49:05.866Z</time></trkpt><trkpt lat="44.696115" lon="9.60012"><ele>947.0</ele><time>2026-05-01T09:49:07.866Z</time></trkpt><trkpt lat="44.6960517" lon="9.600105"><ele>946.8333333333334</ele><time>2026-05-01T09:49:10.866Z</time></trkpt><trkpt lat="44.6960133" lon="9.6001767"><ele>946.6666666666667</ele><time>2026-05-01T09:49:13.866Z</time></trkpt><trkpt lat="44.69597" lon="9.6002667"><ele>946.5</ele><time>2026-05-01T09:49:18.866Z</time></trkpt><trkpt lat="44.6958633" lon="9.6003333"><ele>946.3333333333333</ele><time>2026-05-01T09:49:27.866Z</time></trkpt><trkpt lat="44.6957783" lon="9.60029"><ele>946.1666666666666</ele><time>2026-05-01T09:50:51.866Z</time></trkpt><trkpt lat="44.6958517" lon="9.6003117"><ele>946.0</ele><time>2026-05-01T09:59:33.868Z</time></trkpt><trkpt lat="44.6958133" lon="9.6002267"><ele>945.9999999999999</ele><time>2026-05-01T09:59:40.868Z</time></trkpt><trkpt lat="44.6957667" lon="9.6001333"><ele>946.0</ele><time>2026-05-01T09:59:51.868Z</time></trkpt><trkpt lat="44.6958017" lon="9.60023"><ele>946.0</ele><time>2026-05-01T09:59:56.868Z</time></trkpt><trkpt lat="44.6958383" lon="9.6004"><ele>946.0</ele><time>2026-05-01T10:00:04.868Z</time></trkpt><trkpt lat="44.6958183" lon="9.600315"><ele>945.9999999999999</ele><time>2026-05-01T10:00:09.868Z</time></trkpt><trkpt lat="44.69577" lon="9.600225"><ele>946.0</ele><time>2026-05-01T10:00:15.868Z</time></trkpt><trkpt lat="44.6957167" lon="9.6001533"><ele>945.9999999999999</ele><time>2026-05-01T10:00:19.868Z</time></trkpt><trkpt lat="44.6956717" lon="9.6000833"><ele>946.0</ele><time>2026-05-01T10:00:24.868Z</time></trkpt><trkpt lat="44.695605" lon="9.6000183"><ele>946.0</ele><time>2026-05-01T10:00:27.868Z</time></trkpt><trkpt lat="44.6955667" lon="9.5999017"><ele>946.0</ele><time>2026-05-01T10:00:30.868Z</time></trkpt><trkpt lat="44.69551" lon="9.5997567"><ele>945.9999999999999</ele><time>2026-05-01T10:00:32.868Z</time></trkpt><trkpt lat="44.6955867" lon="9.599785"><ele>946.0</ele><time>2026-05-01T10:00:55.868Z</time></trkpt><trkpt lat="44.695605" lon="9.5998983"><ele>945.9999999999999</ele><time>2026-05-01T10:00:58.868Z</time></trkpt><trkpt lat="44.6956517" lon="9.5999783"><ele>946.0</ele><time>2026-05-01T10:01:02.868Z</time></trkpt><trkpt lat="44.6956867" lon="9.6000783"><ele>946.0</ele><time>2026-05-01T10:01:05.868Z</time></trkpt><trkpt lat="44.69576" lon="9.6001267"><ele>946.0</ele><time>2026-05-01T10:01:09.868Z</time></trkpt><trkpt lat="44.6957133" lon="9.6002167"><ele>945.9999999999999</ele><time>2026-05-01T10:01:29.868Z</time></trkpt><trkpt lat="44.6957517" lon="9.600135"><ele>946.0</ele><time>2026-05-01T10:01:54.868Z</time></trkpt><trkpt lat="44.695845" lon="9.600115"><ele>945.9999999999999</ele><time>2026-05-01T10:02:03.868Z</time></trkpt><trkpt lat="44.6959267" lon="9.60012"><ele>946.0</ele><time>2026-05-01T10:05:15.907Z</time></trkpt><trkpt lat="44.6958617" lon="9.6000817"><ele>946.0</ele><time>2026-05-01T10:05:19.907Z</time></trkpt><trkpt lat="44.6957683" lon="9.5999267"><ele>946.0</ele><time>2026-05-01T10:05:20.907Z</time></trkpt><trkpt lat="44.6957083" lon="9.599885"><ele>945.9999999999999</ele><time>2026-05-01T10:05:24.907Z</time></trkpt><trkpt lat="44.69571" lon="9.59999"><ele>946.0</ele><time>2026-05-01T10:05:28.907Z</time></trkpt><trkpt lat="44.69574" lon="9.6000783"><ele>945.9999999999999</ele><time>2026-05-01T10:05:30.907Z</time></trkpt><trkpt lat="44.6957517" lon="9.600175"><ele>946.0</ele><time>2026-05-01T10:05:34.864Z</time></trkpt><trkpt lat="44.6958283" lon="9.6003133"><ele>946.0</ele><time>2026-05-01T10:07:50.864Z</time></trkpt><trkpt lat="44.6958817" lon="9.60026"><ele>946.0</ele><time>2026-05-01T10:07:51.864Z</time></trkpt><trkpt lat="44.6959583" lon="9.6001917"><ele>945.9999999999999</ele><time>2026-05-01T10:07:53.864Z</time></trkpt><trkpt lat="44.696005" lon="9.6001133"><ele>946.0</ele><time>2026-05-01T10:07:55.864Z</time></trkpt><trkpt lat="44.6960117" lon="9.6000017"><ele>945.9999999999999</ele><time>2026-05-01T10:07:57.864Z</time></trkpt><trkpt lat="44.6959733" lon="9.5998533"><ele>946.0</ele><time>2026-05-01T10:07:59.864Z</time></trkpt><trkpt lat="44.69595" lon="9.5997683"><ele>946.0</ele><time>2026-05-01T10:08:00.864Z</time></trkpt><trkpt lat="44.6959283" lon="9.5996783"><ele>946.0</ele><time>2026-05-01T10:08:01.864Z</time></trkpt><trkpt lat="44.6959" lon="9.5995583"><ele>945.9999999999999</ele><time>2026-05-01T10:08:02.864Z</time></trkpt><trkpt lat="44.69587" lon="9.5994383"><ele>946.0</ele><time>2026-05-01T10:08:03.864Z</time></trkpt><trkpt lat="44.695835" lon="9.5993267"><ele>946.5999999999999</ele><time>2026-05-01T10:08:04.864Z</time></trkpt><trkpt lat="44.6958" lon="9.599195"><ele>947.1999999999999</ele><time>2026-05-01T10:08:05.864Z</time></trkpt><trkpt lat="44.695765" lon="9.599065"><ele>947.8000000000001</ele><time>2026-05-01T10:08:06.864Z</time></trkpt><trkpt lat="44.6957333" lon="9.5989383"><ele>948.4000000000001</ele><time>2026-05-01T10:08:07.864Z</time></trkpt><trkpt lat="44.6957" lon="9.5988167"><ele>949.0</ele><time>2026-05-01T10:08:08.864Z</time></trkpt><trkpt lat="44.6956733" lon="9.5986983"><ele>950.4999999999999</ele><time>2026-05-01T10:08:09.864Z</time></trkpt><trkpt lat="44.6956433" lon="9.598585"><ele>952.0</ele><time>2026-05-01T10:08:10.864Z</time></trkpt><trkpt lat="44.6956067" lon="9.59848"><ele>953.5</ele><time>2026-05-01T10:08:11.864Z</time></trkpt><trkpt lat="44.695575" lon="9.598375"><ele>955.0</ele><time>2026-05-01T10:08:12.864Z</time></trkpt><trkpt lat="44.6955483" lon="9.59826"><ele>956.4999999999999</ele><time>2026-05-01T10:08:13.864Z</time></trkpt><trkpt lat="44.6955217" lon="9.59815"><ele>958.0</ele><time>2026-05-01T10:08:14.864Z</time></trkpt><trkpt lat="44.695485" lon="9.59804"><ele>957.9999999999999</ele><time>2026-05-01T10:08:15.864Z</time></trkpt><trkpt lat="44.695455" lon="9.5979333"><ele>958.0</ele><time>2026-05-01T10:08:16.864Z</time></trkpt><trkpt lat="44.6954183" lon="9.597815"><ele>958.0</ele><time>2026-05-01T10:08:17.864Z</time></trkpt><trkpt lat="44.6953867" lon="9.5977033"><ele>958.0</ele><time>2026-05-01T10:08:18.864Z</time></trkpt><trkpt lat="44.6953567" lon="9.5975883"><ele>957.9999999999999</ele><time>2026-05-01T10:08:19.864Z</time></trkpt><trkpt lat="44.6953283" lon="9.5974783"><ele>958.0</ele><time>2026-05-01T10:08:20.864Z</time></trkpt><trkpt lat="44.6953" lon="9.59736"><ele>960.9999999999999</ele><time>2026-05-01T10:08:21.864Z</time></trkpt><trkpt lat="44.6952783" lon="9.5972533"><ele>964.0</ele><time>2026-05-01T10:08:22.864Z</time></trkpt><trkpt lat="44.6952583" lon="9.5971417"><ele>967.0</ele><time>2026-05-01T10:08:23.864Z</time></trkpt><trkpt lat="44.6952383" lon="9.59704"><ele>970.0</ele><time>2026-05-01T10:08:24.864Z</time></trkpt><trkpt lat="44.69523" lon="9.59693"><ele>972.9999999999999</ele><time>2026-05-01T10:08:25.864Z</time></trkpt><trkpt lat="44.6952333" lon="9.5968217"><ele>976.0</ele><time>2026-05-01T10:08:26.864Z</time></trkpt><trkpt lat="44.6952383" lon="9.5967183"><ele>977.0</ele><time>2026-05-01T10:08:27.864Z</time></trkpt><trkpt lat="44.6952617" lon="9.5966"><ele>977.9999999999999</ele><time>2026-05-01T10:08:28.864Z</time></trkpt><trkpt lat="44.6952967" lon="9.5964633"><ele>978.9999999999999</ele><time>2026-05-01T10:08:29.864Z</time></trkpt><trkpt lat="44.69534" lon="9.5963233"><ele>980.0</ele><time>2026-05-01T10:08:30.865Z</time></trkpt><trkpt lat="44.69539" lon="9.5961817"><ele>981.0</ele><time>2026-05-01T10:08:31.865Z</time></trkpt><trkpt lat="44.6954533" lon="9.5960433"><ele>975.0</ele><time>2026-05-01T10:08:32.866Z</time></trkpt><trkpt lat="44.6955217" lon="9.5959067"><ele>968.9999999999999</ele><time>2026-05-01T10:08:33.865Z</time></trkpt><trkpt lat="44.6955983" lon="9.5957733"><ele>962.9999999999999</ele><time>2026-05-01T10:08:34.865Z</time></trkpt><trkpt lat="44.6956683" lon="9.5956567"><ele>957.0</ele><time>2026-05-01T10:08:35.865Z</time></trkpt><trkpt lat="44.6957267" lon="9.5955617"><ele>951.0</ele><time>2026-05-01T10:08:36.865Z</time></trkpt><trkpt lat="44.6957733" lon="9.5954667"><ele>951.0</ele><time>2026-05-01T10:08:37.865Z</time></trkpt><trkpt lat="44.6958083" lon="9.5953767"><ele>951.0</ele><time>2026-05-01T10:08:38.865Z</time></trkpt><trkpt lat="44.6958367" lon="9.5952833"><ele>951.0</ele><time>2026-05-01T10:08:39.865Z</time></trkpt><trkpt lat="44.6958633" lon="9.5951833"><ele>951.0</ele><time>2026-05-01T10:08:40.865Z</time></trkpt><trkpt lat="44.6958933" lon="9.59509"><ele>951.0</ele><time>2026-05-01T10:08:41.865Z</time></trkpt><trkpt lat="44.695925" lon="9.5949817"><ele>951.0</ele><time>2026-05-01T10:08:42.865Z</time></trkpt><trkpt lat="44.6959667" lon="9.59489"><ele>948.3333333333334</ele><time>2026-05-01T10:08:43.865Z</time></trkpt><trkpt lat="44.696045" lon="9.5947717"><ele>945.6666666666667</ele><time>2026-05-01T10:08:45.865Z</time></trkpt><trkpt lat="44.6961167" lon="9.5946917"><ele>943.0</ele><time>2026-05-01T10:08:47.865Z</time></trkpt><trkpt lat="44.69616" lon="9.5945767"><ele>940.3333333333334</ele><time>2026-05-01T10:08:49.865Z</time></trkpt><trkpt lat="44.6961733" lon="9.59448"><ele>937.6666666666667</ele><time>2026-05-01T10:08:51.865Z</time></trkpt><trkpt lat="44.696175" lon="9.5943833"><ele>935.0</ele><time>2026-05-01T10:08:53.865Z</time></trkpt><trkpt lat="44.6961717" lon="9.5942933"><ele>933.3333333333334</ele><time>2026-05-01T10:08:56.865Z</time></trkpt><trkpt lat="44.6961383" lon="9.5942133"><ele>931.6666666666667</ele><time>2026-05-01T10:09:00.865Z</time></trkpt><trkpt lat="44.696075" lon="9.5941367"><ele>930.0</ele><time>2026-05-01T10:09:04.865Z</time></trkpt><trkpt lat="44.6960167" lon="9.5940483"><ele>928.3333333333333</ele><time>2026-05-01T10:09:07.865Z</time></trkpt><trkpt lat="44.695995" lon="9.59395"><ele>926.6666666666666</ele><time>2026-05-01T10:09:09.865Z</time></trkpt><trkpt lat="44.6960083" lon="9.593835"><ele>925.0</ele><time>2026-05-01T10:09:11.865Z</time></trkpt><trkpt lat="44.6960367" lon="9.5937283"><ele>923.8</ele><time>2026-05-01T10:09:13.865Z</time></trkpt><trkpt lat="44.696065" lon="9.593565"><ele>922.6</ele><time>2026-05-01T10:09:15.865Z</time></trkpt><trkpt lat="44.69607" lon="9.5934383"><ele>921.4000000000001</ele><time>2026-05-01T10:09:16.865Z</time></trkpt><trkpt lat="44.696085" lon="9.593315"><ele>920.2</ele><time>2026-05-01T10:09:17.865Z</time></trkpt><trkpt lat="44.69609" lon="9.593205"><ele>919.0</ele><time>2026-05-01T10:09:18.865Z</time></trkpt><trkpt lat="44.6961183" lon="9.5930817"><ele>917.4999999999999</ele><time>2026-05-01T10:09:20.865Z</time></trkpt><trkpt lat="44.6961633" lon="9.5930183"><ele>916.0</ele><time>2026-05-01T10:09:27.865Z</time></trkpt><trkpt lat="44.6962233" lon="9.593085"><ele>914.5</ele><time>2026-05-01T10:09:30.865Z</time></trkpt><trkpt lat="44.696275" lon="9.5931633"><ele>913.0</ele><time>2026-05-01T10:09:32.865Z</time></trkpt><trkpt lat="44.6963417" lon="9.5932067"><ele>911.4999999999999</ele><time>2026-05-01T10:09:35.865Z</time></trkpt><trkpt lat="44.6964083" lon="9.59321"><ele>910.0</ele><time>2026-05-01T10:09:37.865Z</time></trkpt><trkpt lat="44.6964967" lon="9.5931667"><ele>910.0</ele><time>2026-05-01T10:09:39.865Z</time></trkpt><trkpt lat="44.6966033" lon="9.59313"><ele>910.0</ele><time>2026-05-01T10:09:41.865Z</time></trkpt><trkpt lat="44.6966667" lon="9.593125"><ele>910.0</ele><time>2026-05-01T10:09:42.865Z</time></trkpt><trkpt lat="44.6967367" lon="9.5931133"><ele>910.0</ele><time>2026-05-01T10:09:43.865Z</time></trkpt><trkpt lat="44.6968" lon="9.5931"><ele>910.0</ele><time>2026-05-01T10:09:44.865Z</time></trkpt><trkpt lat="44.6968633" lon="9.5930833"><ele>910.0</ele><time>2026-05-01T10:09:45.865Z</time></trkpt><trkpt lat="44.6969317" lon="9.593075"><ele>910.0</ele><time>2026-05-01T10:09:46.865Z</time></trkpt><trkpt lat="44.6970333" lon="9.5930333"><ele>907.6</ele><time>2026-05-01T10:09:48.865Z</time></trkpt><trkpt lat="44.6971217" lon="9.5929867"><ele>905.2</ele><time>2026-05-01T10:09:50.865Z</time></trkpt><trkpt lat="44.69721" lon="9.59293"><ele>902.8</ele><time>2026-05-01T10:09:52.865Z</time></trkpt><trkpt lat="44.6972917" lon="9.5928617"><ele>900.4</ele><time>2026-05-01T10:09:54.865Z</time></trkpt><trkpt lat="44.6973617" lon="9.5927533"><ele>898.0</ele><time>2026-05-01T10:09:56.865Z</time></trkpt><trkpt lat="44.697455" lon="9.5926333"><ele>896.4999999999999</ele><time>2026-05-01T10:09:58.865Z</time></trkpt><trkpt lat="44.6975" lon="9.592565"><ele>895.0</ele><time>2026-05-01T10:09:59.865Z</time></trkpt><trkpt lat="44.697555" lon="9.592485"><ele>893.5</ele><time>2026-05-01T10:10:00.865Z</time></trkpt><trkpt lat="44.6976467" lon="9.5923633"><ele>892.0</ele><time>2026-05-01T10:10:02.865Z</time></trkpt><trkpt lat="44.6976933" lon="9.5923017"><ele>890.4999999999999</ele><time>2026-05-01T10:10:03.865Z</time></trkpt><trkpt lat="44.697745" lon="9.5922167"><ele>889.0</ele><time>2026-05-01T10:10:04.865Z</time></trkpt><trkpt lat="44.6977933" lon="9.5921433"><ele>882.8000000000001</ele><time>2026-05-01T10:10:05.865Z</time></trkpt><trkpt lat="44.6978767" lon="9.5919967"><ele>876.6000000000001</ele><time>2026-05-01T10:10:07.866Z</time></trkpt><trkpt lat="44.6979317" lon="9.591915"><ele>870.4</ele><time>2026-05-01T10:10:08.865Z</time></trkpt><trkpt lat="44.69799" lon="9.591825"><ele>864.2</ele><time>2026-05-01T10:10:09.865Z</time></trkpt><trkpt lat="44.6980533" lon="9.5917367"><ele>858.0</ele><time>2026-05-01T10:10:10.865Z</time></trkpt><trkpt lat="44.698115" lon="9.5916533"><ele>858.0</ele><time>2026-05-01T10:10:11.865Z</time></trkpt><trkpt lat="44.6981733" lon="9.591575"><ele>858.0</ele><time>2026-05-01T10:10:12.865Z</time></trkpt><trkpt lat="44.6982283" lon="9.5914917"><ele>858.0</ele><time>2026-05-01T10:10:13.865Z</time></trkpt><trkpt lat="44.6982733" lon="9.5914133"><ele>858.0</ele><time>2026-05-01T10:10:14.865Z</time></trkpt><trkpt lat="44.6983383" lon="9.591305"><ele>858.0</ele><time>2026-05-01T10:10:16.865Z</time></trkpt><trkpt lat="44.6983933" lon="9.5912217"><ele>858.0</ele><time>2026-05-01T10:10:18.865Z</time></trkpt><trkpt lat="44.6984533" lon="9.5911433"><ele>857.6666666666666</ele><time>2026-05-01T10:10:20.865Z</time></trkpt><trkpt lat="44.6985" lon="9.5910767"><ele>857.3333333333333</ele><time>2026-05-01T10:10:22.865Z</time></trkpt><trkpt lat="44.6985233" lon="9.590985"><ele>857.0</ele><time>2026-05-01T10:10:28.865Z</time></trkpt><trkpt lat="44.698585" lon="9.5908883"><ele>856.6666666666666</ele><time>2026-05-01T10:10:31.865Z</time></trkpt><trkpt lat="44.6986333" lon="9.5908267"><ele>856.3333333333333</ele><time>2026-05-01T10:10:33.865Z</time></trkpt><trkpt lat="44.6987083" lon="9.5907183"><ele>856.0</ele><time>2026-05-01T10:10:35.865Z</time></trkpt><trkpt lat="44.6987883" lon="9.5905983"><ele>850.4</ele><time>2026-05-01T10:10:37.865Z</time></trkpt><trkpt lat="44.6988517" lon="9.5904967"><ele>844.8</ele><time>2026-05-01T10:10:39.865Z</time></trkpt><trkpt lat="44.69889" lon="9.59041"><ele>839.1999999999999</ele><time>2026-05-01T10:10:41.865Z</time></trkpt><trkpt lat="44.698935" lon="9.5903083"><ele>833.5999999999999</ele><time>2026-05-01T10:10:43.865Z</time></trkpt><trkpt lat="44.69901" lon="9.59021"><ele>828.0</ele><time>2026-05-01T10:10:45.865Z</time></trkpt><trkpt lat="44.6991" lon="9.590145"><ele>827.0</ele><time>2026-05-01T10:10:59.865Z</time></trkpt><trkpt lat="44.69911" lon="9.590005"><ele>826.0</ele><time>2026-05-01T10:12:20.865Z</time></trkpt><trkpt lat="44.6991667" lon="9.5898933"><ele>825.0</ele><time>2026-05-01T10:12:39.865Z</time></trkpt><trkpt lat="44.6992267" lon="9.5897983"><ele>824.0</ele><time>2026-05-01T10:12:42.865Z</time></trkpt><trkpt lat="44.6992833" lon="9.5897317"><ele>823.0</ele><time>2026-05-01T10:12:45.865Z</time></trkpt><trkpt lat="44.6993233" lon="9.5896583"><ele>822.0</ele><time>2026-05-01T10:12:50.865Z</time></trkpt><trkpt lat="44.69935" lon="9.5895683"><ele>820.6666666666666</ele><time>2026-05-01T10:13:10.865Z</time></trkpt><trkpt lat="44.6993233" lon="9.5894867"><ele>819.3333333333333</ele><time>2026-05-01T10:13:17.865Z</time></trkpt><trkpt lat="44.6992917" lon="9.5893217"><ele>818.0</ele><time>2026-05-01T10:13:55.865Z</time></trkpt><trkpt lat="44.6993083" lon="9.58923"><ele>816.6666666666666</ele><time>2026-05-01T10:13:58.865Z</time></trkpt><trkpt lat="44.69933" lon="9.5891283"><ele>815.3333333333333</ele><time>2026-05-01T10:14:01.865Z</time></trkpt><trkpt lat="44.69936" lon="9.5890483"><ele>814.0</ele><time>2026-05-01T10:14:04.865Z</time></trkpt><trkpt lat="44.69943" lon="9.5889617"><ele>810.0000000000001</ele><time>2026-05-01T10:14:07.865Z</time></trkpt><trkpt lat="44.6994867" lon="9.5889133"><ele>806.0</ele><time>2026-05-01T10:14:09.865Z</time></trkpt><trkpt lat="44.69955" lon="9.5889367"><ele>802.0</ele><time>2026-05-01T10:14:12.865Z</time></trkpt><trkpt lat="44.699605" lon="9.5890467"><ele>798.0</ele><time>2026-05-01T10:14:15.865Z</time></trkpt><trkpt lat="44.6996617" lon="9.5890883"><ele>794.0</ele><time>2026-05-01T10:14:19.865Z</time></trkpt><trkpt lat="44.6997" lon="9.589005"><ele>790.0000000000001</ele><time>2026-05-01T10:14:22.865Z</time></trkpt><trkpt lat="44.6997383" lon="9.5889317"><ele>786.0</ele><time>2026-05-01T10:14:24.865Z</time></trkpt><trkpt lat="44.6997867" lon="9.58886"><ele>786.0</ele><time>2026-05-01T10:14:26.865Z</time></trkpt><trkpt lat="44.6998467" lon="9.5887783"><ele>786.0</ele><time>2026-05-01T10:14:28.865Z</time></trkpt><trkpt lat="44.69992" lon="9.58869"><ele>786.0</ele><time>2026-05-01T10:14:30.865Z</time></trkpt><trkpt lat="44.6999767" lon="9.5886033"><ele>786.0</ele><time>2026-05-01T10:14:32.865Z</time></trkpt><trkpt lat="44.700035" lon="9.5885117"><ele>786.0</ele><time>2026-05-01T10:14:34.865Z</time></trkpt><trkpt lat="44.7000867" lon="9.58844"><ele>786.0</ele><time>2026-05-01T10:14:36.865Z</time></trkpt><trkpt lat="44.7001317" lon="9.58837"><ele>785.3333333333334</ele><time>2026-05-01T10:14:38.865Z</time></trkpt><trkpt lat="44.7001983" lon="9.588275"><ele>784.6666666666667</ele><time>2026-05-01T10:14:41.865Z</time></trkpt><trkpt lat="44.7002483" lon="9.5881917"><ele>784.0</ele><time>2026-05-01T10:14:43.865Z</time></trkpt><trkpt lat="44.7002983" lon="9.588115"><ele>783.3333333333334</ele><time>2026-05-01T10:14:45.865Z</time></trkpt><trkpt lat="44.7003533" lon="9.5880183"><ele>782.6666666666667</ele><time>2026-05-01T10:14:47.865Z</time></trkpt><trkpt lat="44.700425" lon="9.5878983"><ele>782.0</ele><time>2026-05-01T10:14:49.865Z</time></trkpt><trkpt lat="44.7004933" lon="9.58776"><ele>776.1666666666667</ele><time>2026-05-01T10:14:51.865Z</time></trkpt><trkpt lat="44.7005433" lon="9.587665"><ele>770.3333333333334</ele><time>2026-05-01T10:14:53.865Z</time></trkpt><trkpt lat="44.700595" lon="9.58757"><ele>764.5</ele><time>2026-05-01T10:14:55.865Z</time></trkpt><trkpt lat="44.7006433" lon="9.58748"><ele>758.6666666666667</ele><time>2026-05-01T10:14:57.865Z</time></trkpt><trkpt lat="44.700695" lon="9.5873983"><ele>752.8333333333334</ele><time>2026-05-01T10:14:59.865Z</time></trkpt><trkpt lat="44.70076" lon="9.5872767"><ele>747.0</ele><time>2026-05-01T10:15:01.866Z</time></trkpt><trkpt lat="44.7008283" lon="9.5871783"><ele>747.0</ele><time>2026-05-01T10:15:03.865Z</time></trkpt><trkpt lat="44.700905" lon="9.5870817"><ele>747.0</ele><time>2026-05-01T10:15:05.865Z</time></trkpt><trkpt lat="44.7009783" lon="9.5870033"><ele>747.0</ele><time>2026-05-01T10:15:07.865Z</time></trkpt><trkpt lat="44.7010417" lon="9.5869167"><ele>747.0</ele><time>2026-05-01T10:15:09.865Z</time></trkpt><trkpt lat="44.70111" lon="9.5868167"><ele>747.0</ele><time>2026-05-01T10:15:11.865Z</time></trkpt><trkpt lat="44.7011833" lon="9.5867183"><ele>740.3333333333334</ele><time>2026-05-01T10:15:13.865Z</time></trkpt><trkpt lat="44.70124" lon="9.5866483"><ele>733.6666666666666</ele><time>2026-05-01T10:15:15.865Z</time></trkpt><trkpt lat="44.7012917" lon="9.5865733"><ele>727.0</ele><time>2026-05-01T10:15:17.865Z</time></trkpt><trkpt lat="44.7012867" lon="9.5864583"><ele>720.3333333333333</ele><time>2026-05-01T10:15:20.866Z</time></trkpt><trkpt lat="44.701255" lon="9.5863667"><ele>713.6666666666666</ele><time>2026-05-01T10:15:22.865Z</time></trkpt><trkpt lat="44.7012533" lon="9.5862533"><ele>707.0</ele><time>2026-05-01T10:15:24.865Z</time></trkpt><trkpt lat="44.701285" lon="9.5861733"><ele>707.0</ele><time>2026-05-01T10:15:26.865Z</time></trkpt><trkpt lat="44.7013717" lon="9.5861983"><ele>707.0</ele><time>2026-05-01T10:15:29.865Z</time></trkpt><trkpt lat="44.7014567" lon="9.5861867"><ele>707.0</ele><time>2026-05-01T10:15:32.865Z</time></trkpt><trkpt lat="44.7015033" lon="9.586125"><ele>707.0</ele><time>2026-05-01T10:15:34.865Z</time></trkpt><trkpt lat="44.70156" lon="9.58603"><ele>707.0</ele><time>2026-05-01T10:15:36.865Z</time></trkpt><trkpt lat="44.70162" lon="9.58594"><ele>707.0</ele><time>2026-05-01T10:15:38.865Z</time></trkpt><trkpt lat="44.701685" lon="9.5858583"><ele>705.6666666666666</ele><time>2026-05-01T10:15:40.865Z</time></trkpt><trkpt lat="44.7017467" lon="9.5857617"><ele>704.3333333333333</ele><time>2026-05-01T10:15:42.865Z</time></trkpt><trkpt lat="44.701755" lon="9.585665"><ele>703.0</ele><time>2026-05-01T10:15:44.865Z</time></trkpt><trkpt lat="44.7017133" lon="9.5855717"><ele>701.6666666666666</ele><time>2026-05-01T10:15:46.865Z</time></trkpt><trkpt lat="44.70171" lon="9.585475"><ele>700.3333333333334</ele><time>2026-05-01T10:15:48.865Z</time></trkpt><trkpt lat="44.70176" lon="9.58542"><ele>699.0</ele><time>2026-05-01T10:15:50.865Z</time></trkpt><trkpt lat="44.701845" lon="9.58539"><ele>693.8333333333334</ele><time>2026-05-01T10:15:52.865Z</time></trkpt><trkpt lat="44.7019517" lon="9.5853467"><ele>688.6666666666666</ele><time>2026-05-01T10:15:54.866Z</time></trkpt><trkpt lat="44.702035" lon="9.5853083"><ele>683.5</ele><time>2026-05-01T10:15:56.865Z</time></trkpt><trkpt lat="44.702095" lon="9.5852417"><ele>678.3333333333333</ele><time>2026-05-01T10:15:58.865Z</time></trkpt><trkpt lat="44.7021541" lon="9.5851638"><ele>673.1666666666666</ele><time>2026-05-01T10:16:02.927Z</time></trkpt><trkpt lat="44.7021605" lon="9.5850729"><ele>668.0</ele><time>2026-05-01T10:16:06.936Z</time></trkpt><trkpt lat="44.7022306" lon="9.5850348"><ele>666.7142857142857</ele><time>2026-05-01T10:16:12.893Z</time></trkpt><trkpt lat="44.7022691" lon="9.5849643"><ele>665.4285714285714</ele><time>2026-05-01T10:16:18.916Z</time></trkpt><trkpt lat="44.7023187" lon="9.5848923"><ele>664.1428571428571</ele><time>2026-05-01T10:16:25.925Z</time></trkpt><trkpt lat="44.7023594" lon="9.5848064"><ele>662.8571428571429</ele><time>2026-05-01T10:16:31.949Z</time></trkpt><trkpt lat="44.7023976" lon="9.5847011"><ele>661.5714285714286</ele><time>2026-05-01T10:16:36.855Z</time></trkpt><trkpt lat="44.7024225" lon="9.584619"><ele>660.2857142857143</ele><time>2026-05-01T10:16:38.958Z</time></trkpt><trkpt lat="44.7024453" lon="9.5844922"><ele>659.0</ele><time>2026-05-01T10:16:41.915Z</time></trkpt><trkpt lat="44.7024701" lon="9.5844078"><ele>657.0</ele><time>2026-05-01T10:16:43.886Z</time></trkpt><trkpt lat="44.7025996" lon="9.5843086"><ele>655.0</ele><time>2026-05-01T10:16:46.952Z</time></trkpt><trkpt lat="44.7026966" lon="9.584285"><ele>653.0</ele><time>2026-05-01T10:16:48.924Z</time></trkpt><trkpt lat="44.7027944" lon="9.5842126"><ele>651.0</ele><time>2026-05-01T10:16:50.895Z</time></trkpt><trkpt lat="44.7028943" lon="9.5841307"><ele>646.8333333333334</ele><time>2026-05-01T10:16:52.873Z</time></trkpt><trkpt lat="44.7029509" lon="9.5839803"><ele>642.6666666666666</ele><time>2026-05-01T10:16:54.865Z</time></trkpt><trkpt lat="44.7029772" lon="9.5838798"><ele>638.5</ele><time>2026-05-01T10:16:55.865Z</time></trkpt><trkpt lat="44.7029998" lon="9.5837744"><ele>634.3333333333333</ele><time>2026-05-01T10:16:56.865Z</time></trkpt><trkpt lat="44.7030281" lon="9.5836733"><ele>630.1666666666666</ele><time>2026-05-01T10:16:57.865Z</time></trkpt><trkpt lat="44.7030614" lon="9.5835833"><ele>626.0</ele><time>2026-05-01T10:16:58.865Z</time></trkpt><trkpt lat="44.7031006" lon="9.5835134"><ele>624.6666666666666</ele><time>2026-05-01T10:16:59.865Z</time></trkpt><trkpt lat="44.7031481" lon="9.5834402"><ele>623.3333333333333</ele><time>2026-05-01T10:17:00.865Z</time></trkpt><trkpt lat="44.7031933" lon="9.583362"><ele>622.0</ele><time>2026-05-01T10:17:01.865Z</time></trkpt><trkpt lat="44.7032443" lon="9.5832784"><ele>620.6666666666666</ele><time>2026-05-01T10:17:02.865Z</time></trkpt><trkpt lat="44.7032984" lon="9.5831944"><ele>619.3333333333334</ele><time>2026-05-01T10:17:03.866Z</time></trkpt><trkpt lat="44.70336" lon="9.58311"><ele>618.0</ele><time>2026-05-01T10:17:04.865Z</time></trkpt><trkpt lat="44.703415" lon="9.58303"><ele>618.0</ele><time>2026-05-01T10:17:05.865Z</time></trkpt><trkpt lat="44.703465" lon="9.5829533"><ele>618.0</ele><time>2026-05-01T10:17:06.865Z</time></trkpt><trkpt lat="44.7035117" lon="9.5828883"><ele>618.0</ele><time>2026-05-01T10:17:07.865Z</time></trkpt><trkpt lat="44.7035933" lon="9.5827933"><ele>618.0</ele><time>2026-05-01T10:17:09.865Z</time></trkpt><trkpt lat="44.703645" lon="9.58274"><ele>618.0</ele><time>2026-05-01T10:17:12.865Z</time></trkpt><trkpt lat="44.703685" lon="9.5826167"><ele>618.0</ele><time>2026-05-01T10:17:37.865Z</time></trkpt><trkpt lat="44.7037267" lon="9.5824983"><ele>614.5</ele><time>2026-05-01T10:17:39.865Z</time></trkpt><trkpt lat="44.7037617" lon="9.582335"><ele>611.0</ele><time>2026-05-01T10:17:41.865Z</time></trkpt><trkpt lat="44.703785" lon="9.582235"><ele>607.5</ele><time>2026-05-01T10:17:42.865Z</time></trkpt><trkpt lat="44.7038083" lon="9.582145"><ele>604.0</ele><time>2026-05-01T10:17:43.865Z</time></trkpt><trkpt lat="44.70383" lon="9.582055"><ele>600.5</ele><time>2026-05-01T10:17:44.865Z</time></trkpt><trkpt lat="44.7038517" lon="9.58197"><ele>597.0</ele><time>2026-05-01T10:17:45.865Z</time></trkpt><trkpt lat="44.703885" lon="9.5818017"><ele>595.2</ele><time>2026-05-01T10:17:47.865Z</time></trkpt><trkpt lat="44.70391" lon="9.5816467"><ele>593.4000000000001</ele><time>2026-05-01T10:17:49.865Z</time></trkpt><trkpt lat="44.70392" lon="9.5814867"><ele>591.5999999999999</ele><time>2026-05-01T10:17:51.865Z</time></trkpt><trkpt lat="44.7039333" lon="9.5813917"><ele>589.8</ele><time>2026-05-01T10:17:52.865Z</time></trkpt><trkpt lat="44.703965" lon="9.5812483"><ele>588.0</ele><time>2026-05-01T10:17:54.865Z</time></trkpt><trkpt lat="44.7040133" lon="9.5811133"><ele>587.1666666666666</ele><time>2026-05-01T10:17:56.865Z</time></trkpt><trkpt lat="44.704035" lon="9.5809917"><ele>586.3333333333334</ele><time>2026-05-01T10:17:58.865Z</time></trkpt><trkpt lat="44.7040633" lon="9.5808617"><ele>585.5</ele><time>2026-05-01T10:18:00.865Z</time></trkpt><trkpt lat="44.7040483" lon="9.58075"><ele>584.6666666666667</ele><time>2026-05-01T10:18:03.865Z</time></trkpt><trkpt lat="44.704065" lon="9.5806583"><ele>583.8333333333334</ele><time>2026-05-01T10:18:10.865Z</time></trkpt><trkpt lat="44.70409" lon="9.5805367"><ele>583.0</ele><time>2026-05-01T10:18:13.865Z</time></trkpt><trkpt lat="44.7041183" lon="9.5803683"><ele>581.5</ele><time>2026-05-01T10:18:15.865Z</time></trkpt><trkpt lat="44.7041233" lon="9.58024"><ele>580.0</ele><time>2026-05-01T10:18:16.865Z</time></trkpt><trkpt lat="44.7041233" lon="9.5800867"><ele>578.5</ele><time>2026-05-01T10:18:17.865Z</time></trkpt><trkpt lat="44.7041133" lon="9.5799517"><ele>577.0</ele><time>2026-05-01T10:18:18.866Z</time></trkpt><trkpt lat="44.704125" lon="9.5798467"><ele>575.5</ele><time>2026-05-01T10:18:19.865Z</time></trkpt><trkpt lat="44.70415" lon="9.5797483"><ele>574.0</ele><time>2026-05-01T10:18:20.865Z</time></trkpt><trkpt lat="44.70418" lon="9.5796483"><ele>574.0</ele><time>2026-05-01T10:18:21.865Z</time></trkpt><trkpt lat="44.7042083" lon="9.57955"><ele>574.0</ele><time>2026-05-01T10:18:22.865Z</time></trkpt><trkpt lat="44.7042333" lon="9.579455"><ele>574.0</ele><time>2026-05-01T10:18:23.865Z</time></trkpt><trkpt lat="44.7042717" lon="9.57931"><ele>574.0</ele><time>2026-05-01T10:18:25.865Z</time></trkpt><trkpt lat="44.7043317" lon="9.5791617"><ele>574.0</ele><time>2026-05-01T10:18:27.865Z</time></trkpt><trkpt lat="44.70435" lon="9.5790467"><ele>573.0</ele><time>2026-05-01T10:18:29.865Z</time></trkpt><trkpt lat="44.7043417" lon="9.5789317"><ele>572.0</ele><time>2026-05-01T10:18:32.865Z</time></trkpt><trkpt lat="44.7043817" lon="9.5788317"><ele>571.0</ele><time>2026-05-01T10:18:35.865Z</time></trkpt><trkpt lat="44.7044333" lon="9.5787417"><ele>570.0</ele><time>2026-05-01T10:18:37.865Z</time></trkpt><trkpt lat="44.704455" lon="9.5786567"><ele>569.0</ele><time>2026-05-01T10:18:38.865Z</time></trkpt><trkpt lat="44.7044767" lon="9.5785533"><ele>568.0</ele><time>2026-05-01T10:18:39.866Z</time></trkpt><trkpt lat="44.7045017" lon="9.5784517"><ele>566.6666666666667</ele><time>2026-05-01T10:18:40.865Z</time></trkpt><trkpt lat="44.70453" lon="9.5783517"><ele>565.3333333333334</ele><time>2026-05-01T10:18:41.865Z</time></trkpt><trkpt lat="44.7045567" lon="9.5782517"><ele>564.0</ele><time>2026-05-01T10:18:42.865Z</time></trkpt><trkpt lat="44.70458" lon="9.5781533"><ele>562.6666666666666</ele><time>2026-05-01T10:18:43.865Z</time></trkpt><trkpt lat="44.7046017" lon="9.57807"><ele>561.3333333333333</ele><time>2026-05-01T10:18:44.865Z</time></trkpt><trkpt lat="44.70463" lon="9.5779183"><ele>560.0</ele><time>2026-05-01T10:18:46.865Z</time></trkpt><trkpt lat="44.7046383" lon="9.5777667"><ele>557.8</ele><time>2026-05-01T10:18:48.865Z</time></trkpt><trkpt lat="44.7046567" lon="9.577635"><ele>555.6</ele><time>2026-05-01T10:18:50.865Z</time></trkpt><trkpt lat="44.7047" lon="9.5774983"><ele>553.4</ele><time>2026-05-01T10:18:52.865Z</time></trkpt><trkpt lat="44.70473" lon="9.5774017"><ele>551.2</ele><time>2026-05-01T10:18:54.865Z</time></trkpt><trkpt lat="44.704805" lon="9.5773383"><ele>549.0</ele><time>2026-05-01T10:18:57.865Z</time></trkpt><trkpt lat="44.7049167" lon="9.577245"><ele>549.0</ele><time>2026-05-01T10:18:59.865Z</time></trkpt><trkpt lat="44.7049733" lon="9.5771783"><ele>549.0</ele><time>2026-05-01T10:19:00.865Z</time></trkpt><trkpt lat="44.7050267" lon="9.5771"><ele>549.0</ele><time>2026-05-01T10:19:01.865Z</time></trkpt><trkpt lat="44.7050717" lon="9.5770217"><ele>549.0</ele><time>2026-05-01T10:19:02.865Z</time></trkpt><trkpt lat="44.7051133" lon="9.57695"><ele>549.0</ele><time>2026-05-01T10:19:03.865Z</time></trkpt><trkpt lat="44.7051567" lon="9.576885"><ele>549.0</ele><time>2026-05-01T10:19:04.865Z</time></trkpt><trkpt lat="44.7052467" lon="9.576755"><ele>548.8333333333334</ele><time>2026-05-01T10:19:06.865Z</time></trkpt><trkpt lat="44.705295" lon="9.5766933"><ele>548.6666666666666</ele><time>2026-05-01T10:19:07.865Z</time></trkpt><trkpt lat="44.7053483" lon="9.5766333"><ele>548.5</ele><time>2026-05-01T10:19:08.865Z</time></trkpt><trkpt lat="44.7053983" lon="9.5765767"><ele>548.3333333333333</ele><time>2026-05-01T10:19:09.865Z</time></trkpt><trkpt lat="44.7054517" lon="9.5765083"><ele>548.1666666666666</ele><time>2026-05-01T10:19:10.865Z</time></trkpt><trkpt lat="44.7055433" lon="9.5764067"><ele>548.0</ele><time>2026-05-01T10:19:12.865Z</time></trkpt><trkpt lat="44.7056033" lon="9.5763233"><ele>548.0</ele><time>2026-05-01T10:19:14.865Z</time></trkpt><trkpt lat="44.705665" lon="9.576225"><ele>548.0</ele><time>2026-05-01T10:19:16.865Z</time></trkpt><trkpt lat="44.7057333" lon="9.57604"><ele>548.0</ele><time>2026-05-01T10:19:18.865Z</time></trkpt><trkpt lat="44.7057733" lon="9.5759067"><ele>548.0</ele><time>2026-05-01T10:19:19.865Z</time></trkpt><trkpt lat="44.705825" lon="9.5757617"><ele>546.8</ele><time>2026-05-01T10:19:20.865Z</time></trkpt><trkpt lat="44.7058733" lon="9.5756333"><ele>545.5999999999999</ele><time>2026-05-01T10:19:21.866Z</time></trkpt><trkpt lat="44.7059217" lon="9.5755083"><ele>544.4000000000001</ele><time>2026-05-01T10:19:22.865Z</time></trkpt><trkpt lat="44.7059733" lon="9.57539"><ele>543.2</ele><time>2026-05-01T10:19:23.865Z</time></trkpt><trkpt lat="44.7060267" lon="9.5752817"><ele>542.0</ele><time>2026-05-01T10:19:24.865Z</time></trkpt><trkpt lat="44.7060817" lon="9.5751867"><ele>540.8333333333333</ele><time>2026-05-01T10:19:25.865Z</time></trkpt><trkpt lat="44.70613" lon="9.575125"><ele>539.6666666666666</ele><time>2026-05-01T10:19:26.865Z</time></trkpt><trkpt lat="44.70618" lon="9.5750467"><ele>538.5</ele><time>2026-05-01T10:19:27.865Z</time></trkpt><trkpt lat="44.7062183" lon="9.5749433"><ele>537.3333333333334</ele><time>2026-05-01T10:19:28.865Z</time></trkpt><trkpt lat="44.7062567" lon="9.5748267"><ele>536.1666666666667</ele><time>2026-05-01T10:19:29.865Z</time></trkpt><trkpt lat="44.7062917" lon="9.5747283"><ele>535.0</ele><time>2026-05-01T10:19:30.865Z</time></trkpt><trkpt lat="44.7063317" lon="9.574645"><ele>535.0</ele><time>2026-05-01T10:19:31.865Z</time></trkpt><trkpt lat="44.7063867" lon="9.5745583"><ele>535.0</ele><time>2026-05-01T10:19:32.865Z</time></trkpt><trkpt lat="44.7064483" lon="9.5744733"><ele>535.0</ele><time>2026-05-01T10:19:33.865Z</time></trkpt><trkpt lat="44.7065083" lon="9.5744"><ele>535.0</ele><time>2026-05-01T10:19:34.865Z</time></trkpt><trkpt lat="44.7065617" lon="9.5743317"><ele>535.0</ele><time>2026-05-01T10:19:35.865Z</time></trkpt><trkpt lat="44.7066433" lon="9.5742133"><ele>535.0</ele><time>2026-05-01T10:19:37.865Z</time></trkpt><trkpt lat="44.7066783" lon="9.5740417"><ele>534.0</ele><time>2026-05-01T10:19:39.865Z</time></trkpt><trkpt lat="44.7066783" lon="9.5739433"><ele>533.0</ele><time>2026-05-01T10:19:40.865Z</time></trkpt><trkpt lat="44.7066717" lon="9.5738333"><ele>532.0</ele><time>2026-05-01T10:19:41.865Z</time></trkpt><trkpt lat="44.7066617" lon="9.57374"><ele>531.0</ele><time>2026-05-01T10:19:42.865Z</time></trkpt><trkpt lat="44.706665" lon="9.5736117"><ele>530.0</ele><time>2026-05-01T10:19:44.865Z</time></trkpt><trkpt lat="44.706705" lon="9.5734717"><ele>529.0</ele><time>2026-05-01T10:19:46.865Z</time></trkpt><trkpt lat="44.70675" lon="9.5733267"><ele>527.8</ele><time>2026-05-01T10:19:48.865Z</time></trkpt><trkpt lat="44.7068333" lon="9.57321"><ele>526.5999999999999</ele><time>2026-05-01T10:19:50.865Z</time></trkpt><trkpt lat="44.7068883" lon="9.573155"><ele>525.4</ele><time>2026-05-01T10:19:51.865Z</time></trkpt><trkpt lat="44.70696" lon="9.5730567"><ele>524.1999999999999</ele><time>2026-05-01T10:19:53.865Z</time></trkpt><trkpt lat="44.707005" lon="9.5729617"><ele>523.0</ele><time>2026-05-01T10:19:56.865Z</time></trkpt><trkpt lat="44.707035" lon="9.5728167"><ele>520.5</ele><time>2026-05-01T10:19:58.865Z</time></trkpt><trkpt lat="44.70705" lon="9.572725"><ele>518.0</ele><time>2026-05-01T10:19:59.865Z</time></trkpt><trkpt lat="44.7070633" lon="9.572625"><ele>515.5</ele><time>2026-05-01T10:20:00.865Z</time></trkpt><trkpt lat="44.7070783" lon="9.5725067"><ele>513.0</ele><time>2026-05-01T10:20:01.865Z</time></trkpt><trkpt lat="44.7070967" lon="9.5723917"><ele>510.50000000000006</ele><time>2026-05-01T10:20:02.865Z</time></trkpt><trkpt lat="44.707115" lon="9.5722983"><ele>508.0</ele><time>2026-05-01T10:20:03.865Z</time></trkpt><trkpt lat="44.7071533" lon="9.5721617"><ele>507.33333333333337</ele><time>2026-05-01T10:20:05.865Z</time></trkpt><trkpt lat="44.707215" lon="9.5720117"><ele>506.6666666666667</ele><time>2026-05-01T10:20:07.865Z</time></trkpt><trkpt lat="44.70725" lon="9.5719267"><ele>506.0</ele><time>2026-05-01T10:20:08.865Z</time></trkpt><trkpt lat="44.7072883" lon="9.571845"><ele>505.33333333333337</ele><time>2026-05-01T10:20:09.866Z</time></trkpt><trkpt lat="44.7073317" lon="9.571765"><ele>504.6666666666667</ele><time>2026-05-01T10:20:10.866Z</time></trkpt><trkpt lat="44.707365" lon="9.5716817"><ele>504.0</ele><time>2026-05-01T10:20:11.866Z</time></trkpt><trkpt lat="44.70742" lon="9.57155"><ele>504.0</ele><time>2026-05-01T10:20:13.866Z</time></trkpt><trkpt lat="44.707475" lon="9.571495"><ele>504.0</ele><time>2026-05-01T10:20:15.866Z</time></trkpt><trkpt lat="44.7075617" lon="9.5715583"><ele>504.0</ele><time>2026-05-01T10:20:17.867Z</time></trkpt><trkpt lat="44.7076083" lon="9.57165"><ele>504.0</ele><time>2026-05-01T10:20:18.866Z</time></trkpt><trkpt lat="44.7076633" lon="9.5717583"><ele>504.0</ele><time>2026-05-01T10:20:19.866Z</time></trkpt><trkpt lat="44.7077133" lon="9.57185"><ele>504.0</ele><time>2026-05-01T10:20:20.866Z</time></trkpt><trkpt lat="44.7077717" lon="9.5719033"><ele>501.3333333333333</ele><time>2026-05-01T10:20:21.866Z</time></trkpt><trkpt lat="44.7078367" lon="9.5718933"><ele>498.66666666666663</ele><time>2026-05-01T10:20:22.866Z</time></trkpt><trkpt lat="44.7078967" lon="9.57184"><ele>496.0</ele><time>2026-05-01T10:20:23.866Z</time></trkpt><trkpt lat="44.7079217" lon="9.571725"><ele>493.3333333333333</ele><time>2026-05-01T10:20:24.866Z</time></trkpt><trkpt lat="44.70792" lon="9.5715933"><ele>490.66666666666663</ele><time>2026-05-01T10:20:25.866Z</time></trkpt><trkpt lat="44.707915" lon="9.57145"><ele>488.0</ele><time>2026-05-01T10:20:26.866Z</time></trkpt><trkpt lat="44.70791" lon="9.5713033"><ele>487.59999999999997</ele><time>2026-05-01T10:20:27.866Z</time></trkpt><trkpt lat="44.7079133" lon="9.5711633"><ele>487.19999999999993</ele><time>2026-05-01T10:20:28.866Z</time></trkpt><trkpt lat="44.7079233" lon="9.5710417"><ele>486.8</ele><time>2026-05-01T10:20:29.866Z</time></trkpt><trkpt lat="44.7079467" lon="9.5709383"><ele>486.4</ele><time>2026-05-01T10:20:30.867Z</time></trkpt><trkpt lat="44.7080483" lon="9.5708367"><ele>486.0</ele><time>2026-05-01T10:20:32.866Z</time></trkpt><trkpt lat="44.7081117" lon="9.5708467"><ele>486.0</ele><time>2026-05-01T10:20:33.866Z</time></trkpt><trkpt lat="44.7081883" lon="9.5709367"><ele>486.0</ele><time>2026-05-01T10:20:34.866Z</time></trkpt><trkpt lat="44.708255" lon="9.5710683"><ele>486.0</ele><time>2026-05-01T10:20:35.866Z</time></trkpt><trkpt lat="44.70833" lon="9.571215"><ele>486.0</ele><time>2026-05-01T10:20:36.866Z</time></trkpt><trkpt lat="44.708405" lon="9.5713583"><ele>486.5</ele><time>2026-05-01T10:20:37.866Z</time></trkpt><trkpt lat="44.70849" lon="9.5715033"><ele>487.0</ele><time>2026-05-01T10:20:38.866Z</time></trkpt><trkpt lat="44.708585" lon="9.5716317"><ele>487.5</ele><time>2026-05-01T10:20:39.866Z</time></trkpt><trkpt lat="44.7086917" lon="9.5717267"><ele>488.0</ele><time>2026-05-01T10:20:40.866Z</time></trkpt><trkpt lat="44.7087967" lon="9.571805"><ele>485.79999999999995</ele><time>2026-05-01T10:20:41.866Z</time></trkpt><trkpt lat="44.7088917" lon="9.571875"><ele>483.59999999999997</ele><time>2026-05-01T10:20:42.866Z</time></trkpt><trkpt lat="44.70897" lon="9.5719183"><ele>481.40000000000003</ele><time>2026-05-01T10:20:43.866Z</time></trkpt><trkpt lat="44.7090333" lon="9.571935"><ele>479.20000000000005</ele><time>2026-05-01T10:20:44.866Z</time></trkpt><trkpt lat="44.7091567" lon="9.5719033"><ele>477.0</ele><time>2026-05-01T10:20:46.866Z</time></trkpt><trkpt lat="44.7092217" lon="9.57184"><ele>477.0</ele><time>2026-05-01T10:20:47.866Z</time></trkpt><trkpt lat="44.709285" lon="9.5717733"><ele>477.0</ele><time>2026-05-01T10:20:48.866Z</time></trkpt><trkpt lat="44.70935" lon="9.5717183"><ele>477.0</ele><time>2026-05-01T10:20:49.866Z</time></trkpt><trkpt lat="44.7094217" lon="9.57168"><ele>477.0</ele><time>2026-05-01T10:20:50.866Z</time></trkpt><trkpt lat="44.7095017" lon="9.5716533"><ele>477.0</ele><time>2026-05-01T10:20:51.866Z</time></trkpt><trkpt lat="44.7095783" lon="9.57163"><ele>477.0</ele><time>2026-05-01T10:20:52.866Z</time></trkpt><trkpt lat="44.709645" lon="9.571615"><ele>474.0</ele><time>2026-05-01T10:20:53.866Z</time></trkpt><trkpt lat="44.709745" lon="9.5715967"><ele>471.00000000000006</ele><time>2026-05-01T10:20:55.866Z</time></trkpt><trkpt lat="44.709835" lon="9.5716083"><ele>468.00000000000006</ele><time>2026-05-01T10:20:58.866Z</time></trkpt><trkpt lat="44.7099167" lon="9.5715717"><ele>465.0</ele><time>2026-05-01T10:21:00.866Z</time></trkpt><trkpt lat="44.7099867" lon="9.5715317"><ele>462.0</ele><time>2026-05-01T10:21:01.866Z</time></trkpt><trkpt lat="44.7100933" lon="9.5714783"><ele>462.0</ele><time>2026-05-01T10:21:02.866Z</time></trkpt><trkpt lat="44.7102117" lon="9.5714333"><ele>462.00000000000006</ele><time>2026-05-01T10:21:03.866Z</time></trkpt><trkpt lat="44.7103183" lon="9.5713967"><ele>462.00000000000006</ele><time>2026-05-01T10:21:04.866Z</time></trkpt><trkpt lat="44.7104133" lon="9.571365"><ele>462.0</ele><time>2026-05-01T10:21:05.866Z</time></trkpt><trkpt lat="44.7104983" lon="9.5713383"><ele>462.0</ele><time>2026-05-01T10:21:06.866Z</time></trkpt><trkpt lat="44.710575" lon="9.5713117"><ele>460.5</ele><time>2026-05-01T10:21:07.867Z</time></trkpt><trkpt lat="44.71064" lon="9.5712867"><ele>459.0</ele><time>2026-05-01T10:21:08.866Z</time></trkpt><trkpt lat="44.7107017" lon="9.57125"><ele>457.5</ele><time>2026-05-01T10:21:09.866Z</time></trkpt><trkpt lat="44.71079" lon="9.571155"><ele>456.0</ele><time>2026-05-01T10:21:11.866Z</time></trkpt><trkpt lat="44.7108367" lon="9.57102"><ele>454.5</ele><time>2026-05-01T10:21:13.866Z</time></trkpt><trkpt lat="44.71087" lon="9.5709017"><ele>453.0</ele><time>2026-05-01T10:21:15.866Z</time></trkpt><trkpt lat="44.710925" lon="9.570805"><ele>451.59999999999997</ele><time>2026-05-01T10:21:17.866Z</time></trkpt><trkpt lat="44.7110033" lon="9.570715"><ele>450.19999999999993</ele><time>2026-05-01T10:21:19.866Z</time></trkpt><trkpt lat="44.7111133" lon="9.570645"><ele>448.8</ele><time>2026-05-01T10:21:21.866Z</time></trkpt><trkpt lat="44.7111733" lon="9.5705983"><ele>447.4</ele><time>2026-05-01T10:21:22.866Z</time></trkpt><trkpt lat="44.71126" lon="9.5704817"><ele>446.0</ele><time>2026-05-01T10:21:24.866Z</time></trkpt><trkpt lat="44.711325" lon="9.5703983"><ele>443.99999999999994</ele><time>2026-05-01T10:21:26.866Z</time></trkpt><trkpt lat="44.7114017" lon="9.57032"><ele>442.0</ele><time>2026-05-01T10:21:29.866Z</time></trkpt><trkpt lat="44.7114683" lon="9.570275"><ele>440.0</ele><time>2026-05-01T10:21:31.866Z</time></trkpt><trkpt lat="44.711535" lon="9.5702083"><ele>438.0</ele><time>2026-05-01T10:21:33.866Z</time></trkpt><trkpt lat="44.7116183" lon="9.570125"><ele>435.99999999999994</ele><time>2026-05-01T10:21:35.866Z</time></trkpt><trkpt lat="44.7116883" lon="9.570055"><ele>434.0</ele><time>2026-05-01T10:21:36.866Z</time></trkpt><trkpt lat="44.711775" lon="9.5699617"><ele>434.0</ele><time>2026-05-01T10:21:37.866Z</time></trkpt><trkpt lat="44.7118867" lon="9.569835"><ele>434.0</ele><time>2026-05-01T10:21:38.866Z</time></trkpt><trkpt lat="44.7120217" lon="9.5696817"><ele>434.0</ele><time>2026-05-01T10:21:39.866Z</time></trkpt><trkpt lat="44.7121767" lon="9.5695033"><ele>432.0</ele><time>2026-05-01T10:21:40.866Z</time></trkpt><trkpt lat="44.7123283" lon="9.5693333"><ele>430.0</ele><time>2026-05-01T10:21:41.866Z</time></trkpt><trkpt lat="44.712455" lon="9.56919"><ele>428.0</ele><time>2026-05-01T10:21:42.866Z</time></trkpt><trkpt lat="44.712565" lon="9.5690667"><ele>428.0</ele><time>2026-05-01T10:21:43.866Z</time></trkpt><trkpt lat="44.7126617" lon="9.5689667"><ele>427.99999999999994</ele><time>2026-05-01T10:21:44.866Z</time></trkpt><trkpt lat="44.7127583" lon="9.5689"><ele>427.99999999999994</ele><time>2026-05-01T10:21:45.866Z</time></trkpt><trkpt lat="44.71285" lon="9.568875"><ele>428.0</ele><time>2026-05-01T10:21:46.866Z</time></trkpt><trkpt lat="44.7129417" lon="9.568865"><ele>428.0</ele><time>2026-05-01T10:21:47.866Z</time></trkpt><trkpt lat="44.71303" lon="9.5688683"><ele>429.66666666666663</ele><time>2026-05-01T10:21:48.866Z</time></trkpt><trkpt lat="44.7131117" lon="9.5688833"><ele>431.3333333333333</ele><time>2026-05-01T10:21:49.866Z</time></trkpt><trkpt lat="44.7132217" lon="9.5689317"><ele>433.0</ele><time>2026-05-01T10:21:51.866Z</time></trkpt><trkpt lat="44.7133083" lon="9.56897"><ele>434.66666666666663</ele><time>2026-05-01T10:21:53.866Z</time></trkpt><trkpt lat="44.71337" lon="9.5690183"><ele>436.3333333333333</ele><time>2026-05-01T10:21:55.866Z</time></trkpt><trkpt lat="44.713425" lon="9.5690917"><ele>438.0</ele><time>2026-05-01T10:21:59.867Z</time></trkpt><trkpt lat="44.71349" lon="9.5691383"><ele>438.0</ele><time>2026-05-01T10:22:02.866Z</time></trkpt><trkpt lat="44.7134283" lon="9.56925"><ele>438.0</ele><time>2026-05-01T10:22:59.866Z</time></trkpt><trkpt lat="44.71351" lon="9.5692033"><ele>438.0</ele><time>2026-05-01T10:24:23.866Z</time></trkpt><trkpt lat="44.7134567" lon="9.5692883"><ele>438.0</ele><time>2026-05-01T10:25:10.866Z</time></trkpt><trkpt lat="44.71355" lon="9.5693683"><ele>438.0</ele><time>2026-05-01T10:25:32.866Z</time></trkpt><trkpt lat="44.7136117" lon="9.5693933"><ele>438.0</ele><time>2026-05-01T10:27:11.866Z</time></trkpt><trkpt lat="44.7136133" lon="9.56951"><ele>438.8333333333333</ele><time>2026-05-01T10:27:24.866Z</time></trkpt><trkpt lat="44.7136683" lon="9.5696067"><ele>439.66666666666663</ele><time>2026-05-01T10:27:38.866Z</time></trkpt><trkpt lat="44.7137383" lon="9.569735"><ele>440.5</ele><time>2026-05-01T10:27:40.866Z</time></trkpt><trkpt lat="44.713775" lon="9.5698267"><ele>441.3333333333333</ele><time>2026-05-01T10:27:41.866Z</time></trkpt><trkpt lat="44.713805" lon="9.569925"><ele>442.16666666666663</ele><time>2026-05-01T10:27:42.866Z</time></trkpt><trkpt lat="44.7138283" lon="9.57003"><ele>443.0</ele><time>2026-05-01T10:27:43.866Z</time></trkpt><trkpt lat="44.71386" lon="9.5701083"><ele>442.99999999999994</ele><time>2026-05-01T10:27:44.866Z</time></trkpt><trkpt lat="44.7138967" lon="9.5701833"><ele>443.0</ele><time>2026-05-01T10:27:45.866Z</time></trkpt><trkpt lat="44.713935" lon="9.570255"><ele>443.0</ele><time>2026-05-01T10:27:46.866Z</time></trkpt><trkpt lat="44.7139983" lon="9.5703567"><ele>443.0</ele><time>2026-05-01T10:27:48.866Z</time></trkpt><trkpt lat="44.714035" lon="9.5704533"><ele>442.99999999999994</ele><time>2026-05-01T10:27:50.866Z</time></trkpt><trkpt lat="44.7140117" lon="9.5706233"><ele>443.0</ele><time>2026-05-01T10:28:21.866Z</time></trkpt><trkpt lat="44.713935" lon="9.5706233"><ele>440.8333333333333</ele><time>2026-05-01T10:28:23.866Z</time></trkpt><trkpt lat="44.71386" lon="9.5705767"><ele>438.66666666666663</ele><time>2026-05-01T10:28:25.866Z</time></trkpt><trkpt lat="44.71379" lon="9.5705333"><ele>436.5</ele><time>2026-05-01T10:28:28.866Z</time></trkpt><trkpt lat="44.7137033" lon="9.570575"><ele>434.33333333333337</ele><time>2026-05-01T10:28:31.866Z</time></trkpt><trkpt lat="44.7136583" lon="9.570645"><ele>432.1666666666667</ele><time>2026-05-01T10:28:33.866Z</time></trkpt><trkpt lat="44.7136933" lon="9.5707733"><ele>430.0</ele><time>2026-05-01T10:28:36.867Z</time></trkpt><trkpt lat="44.71376" lon="9.57091"><ele>430.00000000000006</ele><time>2026-05-01T10:28:38.866Z</time></trkpt><trkpt lat="44.713805" lon="9.5709767"><ele>430.0</ele><time>2026-05-01T10:28:39.866Z</time></trkpt><trkpt lat="44.7138517" lon="9.57104"><ele>430.0</ele><time>2026-05-01T10:28:40.866Z</time></trkpt><trkpt lat="44.71395" lon="9.5711633"><ele>430.0</ele><time>2026-05-01T10:28:42.866Z</time></trkpt><trkpt lat="44.713995" lon="9.5712417"><ele>430.00000000000006</ele><time>2026-05-01T10:28:43.866Z</time></trkpt><trkpt lat="44.7140433" lon="9.571305"><ele>430.0</ele><time>2026-05-01T10:28:44.866Z</time></trkpt><trkpt lat="44.71412" lon="9.5714367"><ele>429.1666666666667</ele><time>2026-05-01T10:28:46.866Z</time></trkpt><trkpt lat="44.7141617" lon="9.5715067"><ele>428.33333333333337</ele><time>2026-05-01T10:28:47.866Z</time></trkpt><trkpt lat="44.714215" lon="9.5715633"><ele>427.5</ele><time>2026-05-01T10:28:48.866Z</time></trkpt><trkpt lat="44.714285" lon="9.571605"><ele>426.66666666666663</ele><time>2026-05-01T10:28:49.866Z</time></trkpt><trkpt lat="44.7143683" lon="9.5716483"><ele>425.8333333333333</ele><time>2026-05-01T10:28:50.866Z</time></trkpt><trkpt lat="44.71446" lon="9.5716933"><ele>425.0</ele><time>2026-05-01T10:28:51.866Z</time></trkpt><trkpt lat="44.7145533" lon="9.5717333"><ele>425.0</ele><time>2026-05-01T10:28:52.866Z</time></trkpt><trkpt lat="44.7146467" lon="9.5717667"><ele>425.0</ele><time>2026-05-01T10:28:53.866Z</time></trkpt><trkpt lat="44.714745" lon="9.5718117"><ele>425.0</ele><time>2026-05-01T10:28:54.866Z</time></trkpt><trkpt lat="44.7148483" lon="9.5718717"><ele>425.0</ele><time>2026-05-01T10:28:55.867Z</time></trkpt><trkpt lat="44.71496" lon="9.5719433"><ele>425.0</ele><time>2026-05-01T10:28:56.866Z</time></trkpt><trkpt lat="44.7150583" lon="9.572015"><ele>424.0</ele><time>2026-05-01T10:28:57.866Z</time></trkpt><trkpt lat="44.7151483" lon="9.5720717"><ele>423.0</ele><time>2026-05-01T10:28:58.867Z</time></trkpt><trkpt lat="44.7152367" lon="9.5721083"><ele>422.0</ele><time>2026-05-01T10:28:59.866Z</time></trkpt><trkpt lat="44.7153333" lon="9.5721367"><ele>421.0</ele><time>2026-05-01T10:29:00.866Z</time></trkpt><trkpt lat="44.7154417" lon="9.572145"><ele>420.0</ele><time>2026-05-01T10:29:01.867Z</time></trkpt><trkpt lat="44.7155517" lon="9.572155"><ele>419.6</ele><time>2026-05-01T10:29:02.866Z</time></trkpt><trkpt lat="44.71566" lon="9.5721683"><ele>419.2</ele><time>2026-05-01T10:29:03.866Z</time></trkpt><trkpt lat="44.7157533" lon="9.57217"><ele>418.79999999999995</ele><time>2026-05-01T10:29:04.866Z</time></trkpt><trkpt lat="44.7158367" lon="9.5721783"><ele>418.4</ele><time>2026-05-01T10:29:05.866Z</time></trkpt><trkpt lat="44.71592" lon="9.5721883"><ele>418.0</ele><time>2026-05-01T10:29:06.866Z</time></trkpt><trkpt lat="44.716005" lon="9.572215"><ele>419.0</ele><time>2026-05-01T10:29:07.866Z</time></trkpt><trkpt lat="44.7160933" lon="9.5722467"><ele>420.0</ele><time>2026-05-01T10:29:08.866Z</time></trkpt><trkpt lat="44.71618" lon="9.5722833"><ele>421.0</ele><time>2026-05-01T10:29:09.866Z</time></trkpt><trkpt lat="44.7162683" lon="9.5723317"><ele>422.0</ele><time>2026-05-01T10:29:10.867Z</time></trkpt><trkpt lat="44.7163633" lon="9.5723833"><ele>423.0</ele><time>2026-05-01T10:29:11.866Z</time></trkpt><trkpt lat="44.7164517" lon="9.5724333"><ele>423.0</ele><time>2026-05-01T10:29:12.866Z</time></trkpt><trkpt lat="44.716525" lon="9.5724733"><ele>423.0</ele><time>2026-05-01T10:29:13.866Z</time></trkpt><trkpt lat="44.71662" lon="9.5725183"><ele>423.0</ele><time>2026-05-01T10:29:15.866Z</time></trkpt><trkpt lat="44.71669" lon="9.572465"><ele>423.0</ele><time>2026-05-01T10:29:57.866Z</time></trkpt><trkpt lat="44.716755" lon="9.5725417"><ele>423.0</ele><time>2026-05-01T10:32:04.866Z</time></trkpt><trkpt lat="44.7168317" lon="9.5726033"><ele>423.0</ele><time>2026-05-01T10:32:06.866Z</time></trkpt><trkpt lat="44.7168867" lon="9.5727683"><ele>422.6666666666667</ele><time>2026-05-01T10:32:09.866Z</time></trkpt><trkpt lat="44.7169167" lon="9.5728617"><ele>422.33333333333337</ele><time>2026-05-01T10:32:10.866Z</time></trkpt><trkpt lat="44.7169467" lon="9.5729517"><ele>422.0</ele><time>2026-05-01T10:32:11.866Z</time></trkpt><trkpt lat="44.716985" lon="9.5730367"><ele>421.6666666666667</ele><time>2026-05-01T10:32:12.866Z</time></trkpt><trkpt lat="44.7170517" lon="9.5731283"><ele>421.33333333333337</ele><time>2026-05-01T10:32:13.866Z</time></trkpt><trkpt lat="44.71713" lon="9.5732233"><ele>421.0</ele><time>2026-05-01T10:32:14.866Z</time></trkpt><trkpt lat="44.7172183" lon="9.573315"><ele>421.0</ele><time>2026-05-01T10:32:15.866Z</time></trkpt><trkpt lat="44.7173" lon="9.5734083"><ele>421.0</ele><time>2026-05-01T10:32:16.866Z</time></trkpt><trkpt lat="44.7173833" lon="9.5735133"><ele>421.0</ele><time>2026-05-01T10:32:17.866Z</time></trkpt><trkpt lat="44.7174583" lon="9.573605"><ele>421.0</ele><time>2026-05-01T10:32:18.866Z</time></trkpt><trkpt lat="44.7175233" lon="9.5736883"><ele>421.0</ele><time>2026-05-01T10:32:19.866Z</time></trkpt><trkpt lat="44.7175967" lon="9.5737867"><ele>422.20000000000005</ele><time>2026-05-01T10:32:21.866Z</time></trkpt><trkpt lat="44.71771" lon="9.5739117"><ele>423.40000000000003</ele><time>2026-05-01T10:32:28.866Z</time></trkpt><trkpt lat="44.7177683" lon="9.5739483"><ele>424.6</ele><time>2026-05-01T10:32:29.866Z</time></trkpt><trkpt lat="44.7178633" lon="9.5740433"><ele>425.8</ele><time>2026-05-01T10:32:31.866Z</time></trkpt><trkpt lat="44.7179467" lon="9.574155"><ele>427.0</ele><time>2026-05-01T10:32:33.866Z</time></trkpt><trkpt lat="44.7179917" lon="9.574225"><ele>427.00000000000006</ele><time>2026-05-01T10:32:34.866Z</time></trkpt><trkpt lat="44.7180417" lon="9.5742967"><ele>427.0</ele><time>2026-05-01T10:32:35.866Z</time></trkpt><trkpt lat="44.7180883" lon="9.57436"><ele>427.0</ele><time>2026-05-01T10:32:36.866Z</time></trkpt><trkpt lat="44.71817" lon="9.5744683"><ele>427.0</ele><time>2026-05-01T10:32:38.866Z</time></trkpt><trkpt lat="44.7182567" lon="9.574555"><ele>427.00000000000006</ele><time>2026-05-01T10:32:40.866Z</time></trkpt><trkpt lat="44.7183133" lon="9.5746267"><ele>427.0</ele><time>2026-05-01T10:32:42.866Z</time></trkpt><trkpt lat="44.7183467" lon="9.574735"><ele>428.8</ele><time>2026-05-01T10:32:44.866Z</time></trkpt><trkpt lat="44.7184067" lon="9.574865"><ele>430.6</ele><time>2026-05-01T10:32:46.866Z</time></trkpt><trkpt lat="44.71847" lon="9.5749883"><ele>432.40000000000003</ele><time>2026-05-01T10:32:48.866Z</time></trkpt><trkpt lat="44.71851" lon="9.5750633"><ele>434.20000000000005</ele><time>2026-05-01T10:32:49.866Z</time></trkpt><trkpt lat="44.71856" lon="9.575155"><ele>436.0</ele><time>2026-05-01T10:32:50.866Z</time></trkpt><trkpt lat="44.7186183" lon="9.575255"><ele>432.4</ele><time>2026-05-01T10:32:51.866Z</time></trkpt><trkpt lat="44.7186783" lon="9.5753567"><ele>428.8</ele><time>2026-05-01T10:32:52.866Z</time></trkpt><trkpt lat="44.718735" lon="9.5754533"><ele>425.2</ele><time>2026-05-01T10:32:53.866Z</time></trkpt><trkpt lat="44.7187933" lon="9.5755533"><ele>421.59999999999997</ele><time>2026-05-01T10:32:54.866Z</time></trkpt><trkpt lat="44.71886" lon="9.5756533"><ele>418.0</ele><time>2026-05-01T10:32:55.866Z</time></trkpt><trkpt lat="44.7189167" lon="9.5757533"><ele>418.0</ele><time>2026-05-01T10:32:56.867Z</time></trkpt><trkpt lat="44.7189617" lon="9.575855"><ele>418.0</ele><time>2026-05-01T10:32:57.866Z</time></trkpt><trkpt lat="44.7190067" lon="9.575935"><ele>418.0</ele><time>2026-05-01T10:32:58.866Z</time></trkpt><trkpt lat="44.719095" lon="9.576025"><ele>418.0</ele><time>2026-05-01T10:33:00.866Z</time></trkpt><trkpt lat="44.71918" lon="9.5761117"><ele>418.0</ele><time>2026-05-01T10:33:02.866Z</time></trkpt><trkpt lat="44.7192567" lon="9.5762033"><ele>416.79999999999995</ele><time>2026-05-01T10:33:04.866Z</time></trkpt><trkpt lat="44.71932" lon="9.5762717"><ele>415.6</ele><time>2026-05-01T10:33:06.866Z</time></trkpt><trkpt lat="44.719415" lon="9.57628"><ele>414.4</ele><time>2026-05-01T10:33:08.866Z</time></trkpt><trkpt lat="44.719485" lon="9.5762717"><ele>413.20000000000005</ele><time>2026-05-01T10:33:09.866Z</time></trkpt><trkpt lat="44.7196083" lon="9.576265"><ele>412.0</ele><time>2026-05-01T10:33:10.866Z</time></trkpt><trkpt lat="44.7197467" lon="9.576275"><ele>411.33333333333337</ele><time>2026-05-01T10:33:11.866Z</time></trkpt><trkpt lat="44.719905" lon="9.576305"><ele>410.66666666666663</ele><time>2026-05-01T10:33:12.866Z</time></trkpt><trkpt lat="44.7200633" lon="9.5763317"><ele>410.0</ele><time>2026-05-01T10:33:13.866Z</time></trkpt><trkpt lat="44.7202217" lon="9.5763633"><ele>411.0</ele><time>2026-05-01T10:33:14.867Z</time></trkpt><trkpt lat="44.7203783" lon="9.5764017"><ele>412.0</ele><time>2026-05-01T10:33:15.866Z</time></trkpt><trkpt lat="44.7205317" lon="9.5764383"><ele>413.0</ele><time>2026-05-01T10:33:16.866Z</time></trkpt><trkpt lat="44.7206683" lon="9.5764767"><ele>413.0</ele><time>2026-05-01T10:33:17.866Z</time></trkpt><trkpt lat="44.7207933" lon="9.57651"><ele>413.0</ele><time>2026-05-01T10:33:18.866Z</time></trkpt><trkpt lat="44.7209183" lon="9.5765417"><ele>413.0</ele><time>2026-05-01T10:33:19.866Z</time></trkpt><trkpt lat="44.7210417" lon="9.57657"><ele>413.0</ele><time>2026-05-01T10:33:20.866Z</time></trkpt><trkpt lat="44.721165" lon="9.5765983"><ele>412.5</ele><time>2026-05-01T10:33:21.866Z</time></trkpt><trkpt lat="44.7212917" lon="9.5766267"><ele>412.0</ele><time>2026-05-01T10:33:22.866Z</time></trkpt><trkpt lat="44.72142" lon="9.5766617"><ele>411.5</ele><time>2026-05-01T10:33:23.866Z</time></trkpt><trkpt lat="44.7215567" lon="9.5766933"><ele>411.0</ele><time>2026-05-01T10:33:24.867Z</time></trkpt><trkpt lat="44.7216917" lon="9.5767283"><ele>411.0</ele><time>2026-05-01T10:33:25.867Z</time></trkpt><trkpt lat="44.7218283" lon="9.5767633"><ele>411.0</ele><time>2026-05-01T10:33:26.867Z</time></trkpt><trkpt lat="44.7219683" lon="9.5767933"><ele>411.0</ele><time>2026-05-01T10:33:27.867Z</time></trkpt><trkpt lat="44.7221133" lon="9.5768217"><ele>411.0</ele><time>2026-05-01T10:33:28.867Z</time></trkpt><trkpt lat="44.7222633" lon="9.5768483"><ele>411.0</ele><time>2026-05-01T10:33:29.867Z</time></trkpt><trkpt lat="44.7224033" lon="9.5768683"><ele>411.0</ele><time>2026-05-01T10:33:30.867Z</time></trkpt><trkpt lat="44.72254" lon="9.576885"><ele>411.0</ele><time>2026-05-01T10:33:31.867Z</time></trkpt><trkpt lat="44.7226683" lon="9.57691"><ele>411.0</ele><time>2026-05-01T10:33:32.867Z</time></trkpt><trkpt lat="44.7227933" lon="9.5769483"><ele>412.25</ele><time>2026-05-01T10:33:33.867Z</time></trkpt><trkpt lat="44.7229083" lon="9.5769983"><ele>413.5</ele><time>2026-05-01T10:33:34.867Z</time></trkpt><trkpt lat="44.7230317" lon="9.57705"><ele>414.75</ele><time>2026-05-01T10:33:35.867Z</time></trkpt><trkpt lat="44.7231683" lon="9.5771033"><ele>416.0</ele><time>2026-05-01T10:33:36.867Z</time></trkpt><trkpt lat="44.7233117" lon="9.5771333"><ele>414.0</ele><time>2026-05-01T10:33:37.867Z</time></trkpt><trkpt lat="44.723465" lon="9.5771633"><ele>412.0</ele><time>2026-05-01T10:33:38.867Z</time></trkpt><trkpt lat="44.72362" lon="9.5771967"><ele>410.0</ele><time>2026-05-01T10:33:39.867Z</time></trkpt><trkpt lat="44.7237533" lon="9.5772283"><ele>408.0</ele><time>2026-05-01T10:33:40.867Z</time></trkpt><trkpt lat="44.72389" lon="9.5772517"><ele>408.0</ele><time>2026-05-01T10:33:41.867Z</time></trkpt><trkpt lat="44.724025" lon="9.57728"><ele>408.0</ele><time>2026-05-01T10:33:42.867Z</time></trkpt><trkpt lat="44.7241567" lon="9.5773117"><ele>408.0</ele><time>2026-05-01T10:33:43.867Z</time></trkpt><trkpt lat="44.7242867" lon="9.5773417"><ele>408.0</ele><time>2026-05-01T10:33:44.867Z</time></trkpt><trkpt lat="44.72442" lon="9.5773683"><ele>409.5</ele><time>2026-05-01T10:33:45.867Z</time></trkpt><trkpt lat="44.72456" lon="9.57739"><ele>411.0</ele><time>2026-05-01T10:33:46.867Z</time></trkpt><trkpt lat="44.7246967" lon="9.5774167"><ele>412.5</ele><time>2026-05-01T10:33:47.867Z</time></trkpt><trkpt lat="44.7248233" lon="9.5774417"><ele>414.0</ele><time>2026-05-01T10:33:48.867Z</time></trkpt><trkpt lat="44.7249467" lon="9.5774683"><ele>414.0</ele><time>2026-05-01T10:33:49.867Z</time></trkpt><trkpt lat="44.725055" lon="9.5775283"><ele>414.0</ele><time>2026-05-01T10:33:50.867Z</time></trkpt><trkpt lat="44.7251733" lon="9.5775933"><ele>414.0</ele><time>2026-05-01T10:33:51.867Z</time></trkpt><trkpt lat="44.7252883" lon="9.5776517"><ele>414.0</ele><time>2026-05-01T10:33:52.867Z</time></trkpt><trkpt lat="44.7253867" lon="9.5777133"><ele>412.8333333333333</ele><time>2026-05-01T10:33:53.867Z</time></trkpt><trkpt lat="44.7254667" lon="9.57777"><ele>411.66666666666663</ele><time>2026-05-01T10:33:54.867Z</time></trkpt><trkpt lat="44.72553" lon="9.57782"><ele>410.5</ele><time>2026-05-01T10:33:55.867Z</time></trkpt><trkpt lat="44.7255967" lon="9.5778683"><ele>409.3333333333333</ele><time>2026-05-01T10:33:56.867Z</time></trkpt><trkpt lat="44.7256633" lon="9.5779033"><ele>408.16666666666663</ele><time>2026-05-01T10:33:57.867Z</time></trkpt><trkpt lat="44.7257317" lon="9.577915"><ele>407.0</ele><time>2026-05-01T10:33:58.867Z</time></trkpt><trkpt lat="44.7258083" lon="9.577915"><ele>406.99999999999994</ele><time>2026-05-01T10:33:59.867Z</time></trkpt><trkpt lat="44.7258917" lon="9.5779133"><ele>407.0</ele><time>2026-05-01T10:34:00.867Z</time></trkpt><trkpt lat="44.72597" lon="9.5779267"><ele>407.0</ele><time>2026-05-01T10:34:01.868Z</time></trkpt><trkpt lat="44.726045" lon="9.5779517"><ele>407.0</ele><time>2026-05-01T10:34:02.867Z</time></trkpt><trkpt lat="44.72611" lon="9.5779833"><ele>406.99999999999994</ele><time>2026-05-01T10:34:03.867Z</time></trkpt><trkpt lat="44.7262133" lon="9.5780017"><ele>407.0</ele><time>2026-05-01T10:34:05.867Z</time></trkpt><trkpt lat="44.7261333" lon="9.5779683"><ele>409.16666666666663</ele><time>2026-05-01T10:34:09.867Z</time></trkpt><trkpt lat="44.7260867" lon="9.5779017"><ele>411.3333333333333</ele><time>2026-05-01T10:34:13.867Z</time></trkpt><trkpt lat="44.72618" lon="9.577845"><ele>413.5</ele><time>2026-05-01T10:34:16.867Z</time></trkpt><trkpt lat="44.7262683" lon="9.5778117"><ele>415.66666666666663</ele><time>2026-05-01T10:34:18.867Z</time></trkpt><trkpt lat="44.72632" lon="9.5777583"><ele>417.8333333333333</ele><time>2026-05-01T10:34:21.867Z</time></trkpt><trkpt lat="44.7262417" lon="9.5777467"><ele>420.0</ele><time>2026-05-01T10:34:25.867Z</time></trkpt><trkpt lat="44.726145" lon="9.5777283"><ele>421.6</ele><time>2026-05-01T10:34:27.867Z</time></trkpt><trkpt lat="44.726035" lon="9.5776833"><ele>423.2</ele><time>2026-05-01T10:34:29.867Z</time></trkpt><trkpt lat="44.7259467" lon="9.57754"><ele>424.79999999999995</ele><time>2026-05-01T10:34:31.867Z</time></trkpt><trkpt lat="44.7259067" lon="9.5774533"><ele>426.4</ele><time>2026-05-01T10:34:32.867Z</time></trkpt><trkpt lat="44.7258633" lon="9.5773483"><ele>428.0</ele><time>2026-05-01T10:34:33.867Z</time></trkpt><trkpt lat="44.72582" lon="9.5772467"><ele>427.99999999999994</ele><time>2026-05-01T10:34:34.868Z</time></trkpt><trkpt lat="44.7257767" lon="9.5771517"><ele>428.0</ele><time>2026-05-01T10:34:35.867Z</time></trkpt><trkpt lat="44.7257367" lon="9.5770517"><ele>428.0</ele><time>2026-05-01T10:34:36.867Z</time></trkpt><trkpt lat="44.7257017" lon="9.5769633"><ele>428.0</ele><time>2026-05-01T10:34:37.867Z</time></trkpt><trkpt lat="44.7256817" lon="9.5768483"><ele>427.99999999999994</ele><time>2026-05-01T10:34:39.867Z</time></trkpt><trkpt lat="44.7256817" lon="9.57673"><ele>428.0</ele><time>2026-05-01T10:34:43.867Z</time></trkpt><trkpt lat="44.7255983" lon="9.57662"><ele>430.4</ele><time>2026-05-01T10:34:45.867Z</time></trkpt><trkpt lat="44.7255117" lon="9.5765517"><ele>432.79999999999995</ele><time>2026-05-01T10:34:46.867Z</time></trkpt><trkpt lat="44.725415" lon="9.576495"><ele>435.2</ele><time>2026-05-01T10:34:47.868Z</time></trkpt><trkpt lat="44.72531" lon="9.5764467"><ele>437.6</ele><time>2026-05-01T10:34:48.867Z</time></trkpt><trkpt lat="44.7252017" lon="9.57641"><ele>440.0</ele><time>2026-05-01T10:34:49.867Z</time></trkpt><trkpt lat="44.7250867" lon="9.5763933"><ele>440.0</ele><time>2026-05-01T10:34:50.868Z</time></trkpt><trkpt lat="44.7249717" lon="9.5763783"><ele>440.0</ele><time>2026-05-01T10:34:51.867Z</time></trkpt><trkpt lat="44.72485" lon="9.57637"><ele>440.0</ele><time>2026-05-01T10:34:52.867Z</time></trkpt><trkpt lat="44.724725" lon="9.5763717"><ele>440.0</ele><time>2026-05-01T10:34:53.868Z</time></trkpt><trkpt lat="44.7245933" lon="9.5763517"><ele>440.0</ele><time>2026-05-01T10:34:54.867Z</time></trkpt><trkpt lat="44.7244733" lon="9.576335"><ele>440.0</ele><time>2026-05-01T10:34:55.867Z</time></trkpt><trkpt lat="44.7243483" lon="9.5763167"><ele>440.0</ele><time>2026-05-01T10:34:56.867Z</time></trkpt><trkpt lat="44.7242267" lon="9.576245"><ele>440.0</ele><time>2026-05-01T10:34:57.868Z</time></trkpt><trkpt lat="44.7241133" lon="9.576185"><ele>446.0</ele><time>2026-05-01T10:34:58.868Z</time></trkpt><trkpt lat="44.7240167" lon="9.5761283"><ele>452.0</ele><time>2026-05-01T10:34:59.867Z</time></trkpt><trkpt lat="44.7239333" lon="9.5760533"><ele>458.0</ele><time>2026-05-01T10:35:00.867Z</time></trkpt><trkpt lat="44.7238517" lon="9.575995"><ele>464.0</ele><time>2026-05-01T10:35:01.867Z</time></trkpt><trkpt lat="44.7237833" lon="9.5759667"><ele>470.0</ele><time>2026-05-01T10:35:02.867Z</time></trkpt><trkpt lat="44.7236717" lon="9.5759183"><ele>470.0</ele><time>2026-05-01T10:35:04.867Z</time></trkpt><trkpt lat="44.7235833" lon="9.5758567"><ele>470.0</ele><time>2026-05-01T10:35:06.867Z</time></trkpt><trkpt lat="44.7234917" lon="9.5758133"><ele>470.0</ele><time>2026-05-01T10:35:09.867Z</time></trkpt><trkpt lat="44.7234283" lon="9.575735"><ele>470.0</ele><time>2026-05-01T10:35:11.868Z</time></trkpt><trkpt lat="44.7233517" lon="9.5756633"><ele>470.0</ele><time>2026-05-01T10:35:13.867Z</time></trkpt><trkpt lat="44.7232333" lon="9.5755583"><ele>467.57142857142856</ele><time>2026-05-01T10:35:15.867Z</time></trkpt><trkpt lat="44.7231617" lon="9.5754883"><ele>465.1428571428571</ele><time>2026-05-01T10:35:16.867Z</time></trkpt><trkpt lat="44.72309" lon="9.5754467"><ele>462.71428571428567</ele><time>2026-05-01T10:35:17.867Z</time></trkpt><trkpt lat="44.7230283" lon="9.5754083"><ele>460.2857142857142</ele><time>2026-05-01T10:35:18.867Z</time></trkpt><trkpt lat="44.7229683" lon="9.5753683"><ele>457.85714285714283</ele><time>2026-05-01T10:35:19.867Z</time></trkpt><trkpt lat="44.72291" lon="9.5753167"><ele>455.42857142857133</ele><time>2026-05-01T10:35:20.867Z</time></trkpt><trkpt lat="44.7228583" lon="9.5752433"><ele>452.99999999999994</ele><time>2026-05-01T10:35:21.867Z</time></trkpt><trkpt lat="44.7228067" lon="9.5751667"><ele>458.0</ele><time>2026-05-01T10:35:22.867Z</time></trkpt><trkpt lat="44.7227517" lon="9.5751033"><ele>462.99999999999994</ele><time>2026-05-01T10:35:23.867Z</time></trkpt><trkpt lat="44.7226367" lon="9.575045"><ele>467.99999999999994</ele><time>2026-05-01T10:35:25.867Z</time></trkpt><trkpt lat="44.7225317" lon="9.5749967"><ele>473.0</ele><time>2026-05-01T10:35:27.867Z</time></trkpt><trkpt lat="44.7224733" lon="9.57496"><ele>478.0</ele><time>2026-05-01T10:35:28.867Z</time></trkpt><trkpt lat="44.7223817" lon="9.5748767"><ele>478.0</ele><time>2026-05-01T10:35:30.868Z</time></trkpt><trkpt lat="44.7222983" lon="9.5747783"><ele>477.99999999999994</ele><time>2026-05-01T10:35:32.868Z</time></trkpt><trkpt lat="44.7222217" lon="9.5746467"><ele>477.99999999999994</ele><time>2026-05-01T10:35:34.867Z</time></trkpt><trkpt lat="44.7221767" lon="9.5745783"><ele>478.0</ele><time>2026-05-01T10:35:35.867Z</time></trkpt><trkpt lat="44.7221367" lon="9.5745067"><ele>478.0</ele><time>2026-05-01T10:35:36.867Z</time></trkpt><trkpt lat="44.72208" lon="9.5743683"><ele>485.79999999999995</ele><time>2026-05-01T10:35:38.867Z</time></trkpt><trkpt lat="44.7220517" lon="9.5741883"><ele>493.59999999999997</ele><time>2026-05-01T10:35:40.867Z</time></trkpt><trkpt lat="44.7220517" lon="9.5740917"><ele>501.40000000000003</ele><time>2026-05-01T10:35:41.867Z</time></trkpt><trkpt lat="44.7220333" lon="9.573935"><ele>509.20000000000005</ele><time>2026-05-01T10:35:43.867Z</time></trkpt><trkpt lat="44.7220067" lon="9.5738467"><ele>517.0</ele><time>2026-05-01T10:35:44.867Z</time></trkpt><trkpt lat="44.7219467" lon="9.5736767"><ele>516.0</ele><time>2026-05-01T10:35:46.867Z</time></trkpt><trkpt lat="44.7219183" lon="9.57359"><ele>515.0</ele><time>2026-05-01T10:35:47.867Z</time></trkpt><trkpt lat="44.7218817" lon="9.5735133"><ele>514.0</ele><time>2026-05-01T10:35:48.867Z</time></trkpt><trkpt lat="44.7218317" lon="9.5734517"><ele>513.0</ele><time>2026-05-01T10:35:49.867Z</time></trkpt><trkpt lat="44.7217483" lon="9.5733683"><ele>512.0</ele><time>2026-05-01T10:35:51.868Z</time></trkpt><trkpt lat="44.7217083" lon="9.5732833"><ele>511.0</ele><time>2026-05-01T10:35:56.867Z</time></trkpt><trkpt lat="44.7217633" lon="9.5732183"><ele>510.0</ele><time>2026-05-01T10:35:59.868Z</time></trkpt><trkpt lat="44.721845" lon="9.573185"><ele>517.2</ele><time>2026-05-01T10:36:01.867Z</time></trkpt><trkpt lat="44.72191" lon="9.5731567"><ele>524.4</ele><time>2026-05-01T10:36:03.867Z</time></trkpt><trkpt lat="44.7219917" lon="9.5731817"><ele>531.6</ele><time>2026-05-01T10:36:06.867Z</time></trkpt><trkpt lat="44.7220783" lon="9.57319"><ele>538.8</ele><time>2026-05-01T10:36:09.867Z</time></trkpt><trkpt lat="44.7221683" lon="9.5732267"><ele>546.0</ele><time>2026-05-01T10:36:11.867Z</time></trkpt><trkpt lat="44.7222833" lon="9.5732867"><ele>546.0</ele><time>2026-05-01T10:36:13.867Z</time></trkpt><trkpt lat="44.7223567" lon="9.5733133"><ele>546.0</ele><time>2026-05-01T10:36:14.867Z</time></trkpt><trkpt lat="44.7224333" lon="9.5733467"><ele>546.0</ele><time>2026-05-01T10:36:15.867Z</time></trkpt><trkpt lat="44.7225133" lon="9.5733867"><ele>546.0</ele><time>2026-05-01T10:36:16.868Z</time></trkpt><trkpt lat="44.7226083" lon="9.5734133"><ele>546.0</ele><time>2026-05-01T10:36:17.867Z</time></trkpt><trkpt lat="44.7226933" lon="9.5734467"><ele>546.0</ele><time>2026-05-01T10:36:18.867Z</time></trkpt><trkpt lat="44.722765" lon="9.5734767"><ele>552.4</ele><time>2026-05-01T10:36:19.867Z</time></trkpt><trkpt lat="44.7228433" lon="9.5735067"><ele>558.8</ele><time>2026-05-01T10:36:20.867Z</time></trkpt><trkpt lat="44.7229217" lon="9.57353"><ele>565.1999999999999</ele><time>2026-05-01T10:36:21.867Z</time></trkpt><trkpt lat="44.7230333" lon="9.5735767"><ele>571.6</ele><time>2026-05-01T10:36:23.867Z</time></trkpt><trkpt lat="44.72315" lon="9.573625"><ele>578.0</ele><time>2026-05-01T10:36:25.867Z</time></trkpt><trkpt lat="44.7232733" lon="9.5736383"><ele>578.0</ele><time>2026-05-01T10:36:27.867Z</time></trkpt><trkpt lat="44.7233583" lon="9.5736333"><ele>578.0</ele><time>2026-05-01T10:36:29.867Z</time></trkpt><trkpt lat="44.7234533" lon="9.5736033"><ele>578.0</ele><time>2026-05-01T10:36:31.867Z</time></trkpt><trkpt lat="44.7235183" lon="9.5736083"><ele>578.0</ele><time>2026-05-01T10:36:33.867Z</time></trkpt><trkpt lat="44.7235833" lon="9.5736567"><ele>578.0</ele><time>2026-05-01T10:36:36.868Z</time></trkpt><trkpt lat="44.7237033" lon="9.5737283"><ele>575.6666666666666</ele><time>2026-05-01T10:36:41.867Z</time></trkpt><trkpt lat="44.7238033" lon="9.5737317"><ele>573.3333333333333</ele><time>2026-05-01T10:36:43.867Z</time></trkpt><trkpt lat="44.7238733" lon="9.573725"><ele>571.0</ele><time>2026-05-01T10:36:44.867Z</time></trkpt><trkpt lat="44.723985" lon="9.573755"><ele>568.6666666666666</ele><time>2026-05-01T10:36:46.867Z</time></trkpt><trkpt lat="44.72405" lon="9.5737733"><ele>566.3333333333334</ele><time>2026-05-01T10:36:47.867Z</time></trkpt><trkpt lat="44.724115" lon="9.5737917"><ele>564.0</ele><time>2026-05-01T10:36:48.868Z</time></trkpt><trkpt lat="44.7242267" lon="9.5738117"><ele>564.0</ele><time>2026-05-01T10:36:50.867Z</time></trkpt><trkpt lat="44.7243483" lon="9.5737683"><ele>564.0</ele><time>2026-05-01T10:36:52.867Z</time></trkpt><trkpt lat="44.7244867" lon="9.5737717"><ele>564.0</ele><time>2026-05-01T10:36:53.867Z</time></trkpt><trkpt lat="44.7246183" lon="9.5737717"><ele>564.0</ele><time>2026-05-01T10:36:54.867Z</time></trkpt><trkpt lat="44.724735" lon="9.5737467"><ele>564.5</ele><time>2026-05-01T10:36:55.867Z</time></trkpt><trkpt lat="44.7248317" lon="9.5737067"><ele>565.0</ele><time>2026-05-01T10:36:56.867Z</time></trkpt><trkpt lat="44.724915" lon="9.573665"><ele>565.5</ele><time>2026-05-01T10:36:57.867Z</time></trkpt><trkpt lat="44.7249933" lon="9.573635"><ele>566.0</ele><time>2026-05-01T10:36:58.868Z</time></trkpt><trkpt lat="44.7250617" lon="9.5736117"><ele>566.5</ele><time>2026-05-01T10:36:59.867Z</time></trkpt><trkpt lat="44.7251567" lon="9.5735817"><ele>567.0</ele><time>2026-05-01T10:37:01.867Z</time></trkpt><trkpt lat="44.7252433" lon="9.5735"><ele>574.8000000000001</ele><time>2026-05-01T10:37:03.867Z</time></trkpt><trkpt lat="44.7253417" lon="9.5734417"><ele>582.6</ele><time>2026-05-01T10:37:06.867Z</time></trkpt><trkpt lat="44.72526" lon="9.5733983"><ele>590.4000000000001</ele><time>2026-05-01T10:37:42.867Z</time></trkpt><trkpt lat="44.7251433" lon="9.5734017"><ele>598.2</ele><time>2026-05-01T10:37:44.867Z</time></trkpt><trkpt lat="44.7250767" lon="9.57341"><ele>606.0</ele><time>2026-05-01T10:37:45.867Z</time></trkpt><trkpt lat="44.72499" lon="9.57343"><ele>606.4</ele><time>2026-05-01T10:37:46.867Z</time></trkpt><trkpt lat="44.724915" lon="9.5734717"><ele>606.8</ele><time>2026-05-01T10:37:47.867Z</time></trkpt><trkpt lat="44.7248367" lon="9.5735083"><ele>607.1999999999999</ele><time>2026-05-01T10:37:48.867Z</time></trkpt><trkpt lat="44.724685" lon="9.5735133"><ele>607.6</ele><time>2026-05-01T10:37:49.867Z</time></trkpt><trkpt lat="44.7245817" lon="9.5734917"><ele>608.0</ele><time>2026-05-01T10:37:50.868Z</time></trkpt><trkpt lat="44.7244867" lon="9.5734567"><ele>607.0</ele><time>2026-05-01T10:37:51.867Z</time></trkpt><trkpt lat="44.72439" lon="9.5734083"><ele>606.0</ele><time>2026-05-01T10:37:52.867Z</time></trkpt><trkpt lat="44.7242967" lon="9.5733483"><ele>605.0</ele><time>2026-05-01T10:37:53.867Z</time></trkpt><trkpt lat="44.7242033" lon="9.5733"><ele>604.0</ele><time>2026-05-01T10:37:54.868Z</time></trkpt><trkpt lat="44.7241217" lon="9.5732533"><ele>603.0</ele><time>2026-05-01T10:37:55.867Z</time></trkpt><trkpt lat="44.7240367" lon="9.5732033"><ele>603.0</ele><time>2026-05-01T10:37:56.867Z</time></trkpt><trkpt lat="44.7239433" lon="9.5731567"><ele>603.0</ele><time>2026-05-01T10:37:57.867Z</time></trkpt><trkpt lat="44.723855" lon="9.57312"><ele>603.0</ele><time>2026-05-01T10:37:58.868Z</time></trkpt><trkpt lat="44.7237683" lon="9.5730867"><ele>603.0</ele><time>2026-05-01T10:37:59.868Z</time></trkpt><trkpt lat="44.7236883" lon="9.57304"><ele>603.0</ele><time>2026-05-01T10:38:00.867Z</time></trkpt><trkpt lat="44.7236217" lon="9.5729817"><ele>603.0</ele><time>2026-05-01T10:38:01.867Z</time></trkpt><trkpt lat="44.7235783" lon="9.572915"><ele>600.8571428571429</ele><time>2026-05-01T10:38:02.867Z</time></trkpt><trkpt lat="44.7235333" lon="9.5728517"><ele>598.7142857142857</ele><time>2026-05-01T10:38:04.867Z</time></trkpt><trkpt lat="44.723595" lon="9.5728167"><ele>596.5714285714286</ele><time>2026-05-01T10:38:08.867Z</time></trkpt><trkpt lat="44.7236617" lon="9.5727817"><ele>594.4285714285714</ele><time>2026-05-01T10:38:10.867Z</time></trkpt><trkpt lat="44.7237283" lon="9.5727633"><ele>592.2857142857142</ele><time>2026-05-01T10:38:12.868Z</time></trkpt><trkpt lat="44.723825" lon="9.572745"><ele>590.1428571428571</ele><time>2026-05-01T10:38:23.867Z</time></trkpt><trkpt lat="44.7238467" lon="9.5726467"><ele>588.0</ele><time>2026-05-01T10:38:26.867Z</time></trkpt><trkpt lat="44.7239067" lon="9.5725683"><ele>594.3333333333334</ele><time>2026-05-01T10:38:28.867Z</time></trkpt><trkpt lat="44.72398" lon="9.5725017"><ele>600.6666666666666</ele><time>2026-05-01T10:38:30.867Z</time></trkpt><trkpt lat="44.7240717" lon="9.57244"><ele>607.0</ele><time>2026-05-01T10:38:32.867Z</time></trkpt><trkpt lat="44.724155" lon="9.5723983"><ele>613.3333333333333</ele><time>2026-05-01T10:38:34.867Z</time></trkpt><trkpt lat="44.724225" lon="9.57239"><ele>619.6666666666666</ele><time>2026-05-01T10:38:36.867Z</time></trkpt><trkpt lat="44.7243217" lon="9.5723867"><ele>626.0</ele><time>2026-05-01T10:38:38.867Z</time></trkpt><trkpt lat="44.7243917" lon="9.57238"><ele>630.0</ele><time>2026-05-01T10:38:40.867Z</time></trkpt><trkpt lat="44.7244817" lon="9.5723467"><ele>634.0</ele><time>2026-05-01T10:38:42.867Z</time></trkpt><trkpt lat="44.724565" lon="9.5723133"><ele>638.0</ele><time>2026-05-01T10:38:44.867Z</time></trkpt><trkpt lat="44.72465" lon="9.5722733"><ele>642.0</ele><time>2026-05-01T10:38:46.867Z</time></trkpt><trkpt lat="44.7247367" lon="9.572225"><ele>646.0</ele><time>2026-05-01T10:38:48.867Z</time></trkpt><trkpt lat="44.7248783" lon="9.5721167"><ele>646.0</ele><time>2026-05-01T10:38:50.867Z</time></trkpt><trkpt lat="44.7249433" lon="9.5720633"><ele>646.0</ele><time>2026-05-01T10:38:51.867Z</time></trkpt><trkpt lat="44.725005" lon="9.5720117"><ele>646.0</ele><time>2026-05-01T10:38:52.867Z</time></trkpt><trkpt lat="44.725065" lon="9.5719583"><ele>646.0</ele><time>2026-05-01T10:38:53.867Z</time></trkpt><trkpt lat="44.72512" lon="9.5719083"><ele>646.0</ele><time>2026-05-01T10:38:54.867Z</time></trkpt><trkpt lat="44.725205" lon="9.5718417"><ele>646.0</ele><time>2026-05-01T10:38:55.867Z</time></trkpt><trkpt lat="44.7252883" lon="9.571785"><ele>652.4</ele><time>2026-05-01T10:38:57.867Z</time></trkpt><trkpt lat="44.7253683" lon="9.5717217"><ele>658.8</ele><time>2026-05-01T10:38:59.867Z</time></trkpt><trkpt lat="44.72539" lon="9.5715967"><ele>665.1999999999999</ele><time>2026-05-01T10:39:01.867Z</time></trkpt><trkpt lat="44.72537" lon="9.5714167"><ele>671.5999999999999</ele><time>2026-05-01T10:39:03.867Z</time></trkpt><trkpt lat="44.725355" lon="9.5713283"><ele>678.0</ele><time>2026-05-01T10:39:04.867Z</time></trkpt><trkpt lat="44.7253267" lon="9.5711667"><ele>679.8</ele><time>2026-05-01T10:39:06.867Z</time></trkpt><trkpt lat="44.72532" lon="9.57101"><ele>681.5999999999999</ele><time>2026-05-01T10:39:08.867Z</time></trkpt><trkpt lat="44.72532" lon="9.5708433"><ele>683.4000000000001</ele><time>2026-05-01T10:39:10.868Z</time></trkpt><trkpt lat="44.7253067" lon="9.5707417"><ele>685.2</ele><time>2026-05-01T10:39:11.867Z</time></trkpt><trkpt lat="44.7252933" lon="9.570615"><ele>687.0</ele><time>2026-05-01T10:39:12.867Z</time></trkpt><trkpt lat="44.7252783" lon="9.5704933"><ele>687.0</ele><time>2026-05-01T10:39:13.867Z</time></trkpt><trkpt lat="44.725275" lon="9.570385"><ele>687.0</ele><time>2026-05-01T10:39:14.867Z</time></trkpt><trkpt lat="44.725275" lon="9.570295"><ele>687.0</ele><time>2026-05-01T10:39:15.867Z</time></trkpt><trkpt lat="44.72533" lon="9.5701467"><ele>687.0</ele><time>2026-05-01T10:39:17.867Z</time></trkpt><trkpt lat="44.7254233" lon="9.5700983"><ele>687.0</ele><time>2026-05-01T10:39:19.867Z</time></trkpt><trkpt lat="44.7255233" lon="9.5701383"><ele>687.0</ele><time>2026-05-01T10:39:21.867Z</time></trkpt><trkpt lat="44.72563" lon="9.570205"><ele>687.0</ele><time>2026-05-01T10:39:23.867Z</time></trkpt><trkpt lat="44.7256833" lon="9.5702533"><ele>687.0</ele><time>2026-05-01T10:39:24.867Z</time></trkpt><trkpt lat="44.72573" lon="9.570315"><ele>687.0</ele><time>2026-05-01T10:39:25.867Z</time></trkpt><trkpt lat="44.72577" lon="9.570385"><ele>687.0</ele><time>2026-05-01T10:39:26.867Z</time></trkpt><trkpt lat="44.7258117" lon="9.5704533"><ele>687.0</ele><time>2026-05-01T10:39:27.867Z</time></trkpt><trkpt lat="44.72587" lon="9.5705817"><ele>687.0</ele><time>2026-05-01T10:39:29.867Z</time></trkpt><trkpt lat="44.72592" lon="9.570725"><ele>687.0</ele><time>2026-05-01T10:39:31.867Z</time></trkpt><trkpt lat="44.726" lon="9.5708267"><ele>687.0</ele><time>2026-05-01T10:39:33.867Z</time></trkpt><trkpt lat="44.72609" lon="9.5708883"><ele>687.0</ele><time>2026-05-01T10:39:35.867Z</time></trkpt><trkpt lat="44.7261633" lon="9.5709517"><ele>687.0</ele><time>2026-05-01T10:39:37.867Z</time></trkpt><trkpt lat="44.7262417" lon="9.5709883"><ele>689.8</ele><time>2026-05-01T10:39:39.867Z</time></trkpt><trkpt lat="44.7262883" lon="9.57087"><ele>692.6</ele><time>2026-05-01T10:39:43.867Z</time></trkpt><trkpt lat="44.7263067" lon="9.5707483"><ele>695.4</ele><time>2026-05-01T10:39:45.867Z</time></trkpt><trkpt lat="44.7263267" lon="9.5706"><ele>698.1999999999999</ele><time>2026-05-01T10:39:47.867Z</time></trkpt><trkpt lat="44.7263567" lon="9.57051"><ele>701.0</ele><time>2026-05-01T10:39:48.867Z</time></trkpt><trkpt lat="44.7264117" lon="9.5703917"><ele>703.8333333333333</ele><time>2026-05-01T10:39:50.867Z</time></trkpt><trkpt lat="44.7264383" lon="9.5703067"><ele>706.6666666666666</ele><time>2026-05-01T10:39:52.867Z</time></trkpt><trkpt lat="44.726525" lon="9.57023"><ele>709.5</ele><time>2026-05-01T10:39:55.867Z</time></trkpt><trkpt lat="44.7266417" lon="9.57019"><ele>712.3333333333334</ele><time>2026-05-01T10:39:57.868Z</time></trkpt><trkpt lat="44.7267067" lon="9.570165"><ele>715.1666666666667</ele><time>2026-05-01T10:39:58.867Z</time></trkpt><trkpt lat="44.7267767" lon="9.570145"><ele>718.0</ele><time>2026-05-01T10:39:59.867Z</time></trkpt><trkpt lat="44.726845" lon="9.570125"><ele>716.4</ele><time>2026-05-01T10:40:00.867Z</time></trkpt><trkpt lat="44.7269717" lon="9.570105"><ele>714.8</ele><time>2026-05-01T10:40:02.867Z</time></trkpt><trkpt lat="44.7270817" lon="9.5701117"><ele>713.2</ele><time>2026-05-01T10:40:04.867Z</time></trkpt><trkpt lat="44.727185" lon="9.5701433"><ele>711.6</ele><time>2026-05-01T10:40:06.867Z</time></trkpt><trkpt lat="44.72728" lon="9.5701783"><ele>710.0</ele><time>2026-05-01T10:40:08.867Z</time></trkpt><trkpt lat="44.7273817" lon="9.5701967"><ele>710.0</ele><time>2026-05-01T10:40:10.867Z</time></trkpt><trkpt lat="44.7274983" lon="9.5702017"><ele>710.0</ele><time>2026-05-01T10:40:12.867Z</time></trkpt><trkpt lat="44.727595" lon="9.5701967"><ele>710.0</ele><time>2026-05-01T10:40:14.867Z</time></trkpt><trkpt lat="44.7276867" lon="9.5701983"><ele>710.0</ele><time>2026-05-01T10:40:16.867Z</time></trkpt><trkpt lat="44.7277667" lon="9.5702217"><ele>710.0</ele><time>2026-05-01T10:40:18.867Z</time></trkpt><trkpt lat="44.72785" lon="9.5702383"><ele>709.2</ele><time>2026-05-01T10:40:20.867Z</time></trkpt><trkpt lat="44.72795" lon="9.570235"><ele>708.4</ele><time>2026-05-01T10:40:22.867Z</time></trkpt><trkpt lat="44.7280667" lon="9.5702117"><ele>707.5999999999999</ele><time>2026-05-01T10:40:24.867Z</time></trkpt><trkpt lat="44.7281417" lon="9.5701933"><ele>706.8</ele><time>2026-05-01T10:40:25.867Z</time></trkpt><trkpt lat="44.7282533" lon="9.5701817"><ele>706.0</ele><time>2026-05-01T10:40:27.867Z</time></trkpt><trkpt lat="44.7283517" lon="9.57018"><ele>706.0</ele><time>2026-05-01T10:40:29.867Z</time></trkpt><trkpt lat="44.7284167" lon="9.5702117"><ele>706.0</ele><time>2026-05-01T10:40:31.867Z</time></trkpt><trkpt lat="44.7285017" lon="9.5702583"><ele>706.0</ele><time>2026-05-01T10:40:33.867Z</time></trkpt><trkpt lat="44.7285667" lon="9.5702667"><ele>706.0</ele><time>2026-05-01T10:40:35.867Z</time></trkpt><trkpt lat="44.7286333" lon="9.5702817"><ele>706.0</ele><time>2026-05-01T10:40:37.868Z</time></trkpt><trkpt lat="44.72873" lon="9.5702983"><ele>706.0</ele><time>2026-05-01T10:40:39.867Z</time></trkpt><trkpt lat="44.728815" lon="9.5703133"><ele>706.0</ele><time>2026-05-01T10:40:41.867Z</time></trkpt><trkpt lat="44.72888" lon="9.57035"><ele>706.0</ele><time>2026-05-01T10:40:43.867Z</time></trkpt><trkpt lat="44.7289883" lon="9.5704333"><ele>706.0</ele><time>2026-05-01T10:40:45.867Z</time></trkpt><trkpt lat="44.729055" lon="9.5705217"><ele>706.0</ele><time>2026-05-01T10:40:48.867Z</time></trkpt><trkpt lat="44.72914" lon="9.5705617"><ele>706.0</ele><time>2026-05-01T10:40:50.867Z</time></trkpt><trkpt lat="44.729225" lon="9.57061"><ele>702.6666666666667</ele><time>2026-05-01T10:40:52.867Z</time></trkpt><trkpt lat="44.729285" lon="9.5706433"><ele>699.3333333333334</ele><time>2026-05-01T10:40:53.867Z</time></trkpt><trkpt lat="44.72935" lon="9.5706683"><ele>696.0</ele><time>2026-05-01T10:40:54.867Z</time></trkpt><trkpt lat="44.7294633" lon="9.570685"><ele>692.6666666666666</ele><time>2026-05-01T10:40:56.868Z</time></trkpt><trkpt lat="44.7295433" lon="9.5707083"><ele>689.3333333333333</ele><time>2026-05-01T10:40:58.867Z</time></trkpt><trkpt lat="44.729605" lon="9.57076"><ele>686.0</ele><time>2026-05-01T10:40:59.867Z</time></trkpt><trkpt lat="44.7296883" lon="9.5708217"><ele>686.0</ele><time>2026-05-01T10:41:01.867Z</time></trkpt><trkpt lat="44.729765" lon="9.5708967"><ele>686.0</ele><time>2026-05-01T10:41:03.867Z</time></trkpt><trkpt lat="44.729815" lon="9.5709533"><ele>686.0</ele><time>2026-05-01T10:41:05.867Z</time></trkpt><trkpt lat="44.72988" lon="9.571"><ele>686.0</ele><time>2026-05-01T10:41:07.867Z</time></trkpt><trkpt lat="44.7299417" lon="9.571025"><ele>686.0</ele><time>2026-05-01T10:41:09.867Z</time></trkpt><trkpt lat="44.7300367" lon="9.57106"><ele>686.0</ele><time>2026-05-01T10:41:12.867Z</time></trkpt><trkpt lat="44.730125" lon="9.5710917"><ele>686.0</ele><time>2026-05-01T10:41:14.867Z</time></trkpt><trkpt lat="44.7301883" lon="9.57113"><ele>686.0</ele><time>2026-05-01T10:41:16.867Z</time></trkpt><trkpt lat="44.7302583" lon="9.57119"><ele>686.0</ele><time>2026-05-01T10:41:18.867Z</time></trkpt><trkpt lat="44.73029" lon="9.5712817"><ele>686.0</ele><time>2026-05-01T10:41:20.867Z</time></trkpt><trkpt lat="44.73031" lon="9.5713933"><ele>686.0</ele><time>2026-05-01T10:41:23.867Z</time></trkpt><trkpt lat="44.7303367" lon="9.571505"><ele>686.0</ele><time>2026-05-01T10:41:26.867Z</time></trkpt><trkpt lat="44.7303633" lon="9.5716033"><ele>686.4</ele><time>2026-05-01T10:41:29.868Z</time></trkpt><trkpt lat="44.7304167" lon="9.5716733"><ele>686.8</ele><time>2026-05-01T10:41:33.867Z</time></trkpt><trkpt lat="44.730455" lon="9.5717917"><ele>687.1999999999999</ele><time>2026-05-01T10:41:36.867Z</time></trkpt><trkpt lat="44.7305" lon="9.5719333"><ele>687.5999999999999</ele><time>2026-05-01T10:41:38.867Z</time></trkpt><trkpt lat="44.73055" lon="9.5720483"><ele>688.0</ele><time>2026-05-01T10:41:40.867Z</time></trkpt><trkpt lat="44.7306033" lon="9.57214"><ele>688.0</ele><time>2026-05-01T10:41:42.867Z</time></trkpt><trkpt lat="44.7306717" lon="9.5721867"><ele>688.0</ele><time>2026-05-01T10:41:44.867Z</time></trkpt><trkpt lat="44.7307017" lon="9.5722767"><ele>688.0</ele><time>2026-05-01T10:41:47.867Z</time></trkpt><trkpt lat="44.73073" lon="9.572385"><ele>688.0</ele><time>2026-05-01T10:41:50.867Z</time></trkpt><trkpt lat="44.7308867" lon="9.5725067"><ele>688.0</ele><time>2026-05-01T10:41:57.867Z</time></trkpt><trkpt lat="44.7309633" lon="9.5725067"><ele>688.0</ele><time>2026-05-01T10:42:01.867Z</time></trkpt><trkpt lat="44.7310467" lon="9.572475"><ele>688.0</ele><time>2026-05-01T10:42:04.867Z</time></trkpt><trkpt lat="44.7311517" lon="9.57244"><ele>688.0</ele><time>2026-05-01T10:42:06.867Z</time></trkpt><trkpt lat="44.7312167" lon="9.5724283"><ele>688.0</ele><time>2026-05-01T10:42:08.867Z</time></trkpt><trkpt lat="44.7313283" lon="9.572425"><ele>688.0</ele><time>2026-05-01T10:42:10.867Z</time></trkpt><trkpt lat="44.7314083" lon="9.5724483"><ele>692.3333333333334</ele><time>2026-05-01T10:42:12.867Z</time></trkpt><trkpt lat="44.7315067" lon="9.5724883"><ele>696.6666666666667</ele><time>2026-05-01T10:42:14.867Z</time></trkpt><trkpt lat="44.7315767" lon="9.5725383"><ele>701.0</ele><time>2026-05-01T10:42:16.867Z</time></trkpt><trkpt lat="44.73163" lon="9.5725917"><ele>705.3333333333334</ele><time>2026-05-01T10:42:17.868Z</time></trkpt><trkpt lat="44.731715" lon="9.57261"><ele>709.6666666666666</ele><time>2026-05-01T10:42:20.867Z</time></trkpt><trkpt lat="44.73178" lon="9.5726117"><ele>714.0</ele><time>2026-05-01T10:42:23.867Z</time></trkpt><trkpt lat="44.7318583" lon="9.5725717"><ele>719.2</ele><time>2026-05-01T10:42:25.867Z</time></trkpt><trkpt lat="44.7319767" lon="9.5725"><ele>724.4000000000001</ele><time>2026-05-01T10:42:27.867Z</time></trkpt><trkpt lat="44.7320417" lon="9.5724783"><ele>729.6</ele><time>2026-05-01T10:42:30.867Z</time></trkpt><trkpt lat="44.7321383" lon="9.57254"><ele>734.8</ele><time>2026-05-01T10:42:40.867Z</time></trkpt><trkpt lat="44.7322183" lon="9.5726017"><ele>740.0</ele><time>2026-05-01T10:42:45.867Z</time></trkpt><trkpt lat="44.7323" lon="9.5726933"><ele>740.0</ele><time>2026-05-01T10:42:47.867Z</time></trkpt><trkpt lat="44.7323467" lon="9.57276"><ele>740.0</ele><time>2026-05-01T10:42:48.867Z</time></trkpt><trkpt lat="44.7324217" lon="9.5728633"><ele>740.0</ele><time>2026-05-01T10:42:50.867Z</time></trkpt><trkpt lat="44.7325217" lon="9.572925"><ele>740.0</ele><time>2026-05-01T10:42:52.867Z</time></trkpt><trkpt lat="44.732625" lon="9.5728983"><ele>740.0</ele><time>2026-05-01T10:42:54.867Z</time></trkpt><trkpt lat="44.73273" lon="9.5728217"><ele>741.1666666666666</ele><time>2026-05-01T10:42:56.867Z</time></trkpt><trkpt lat="44.7327867" lon="9.57278"><ele>742.3333333333333</ele><time>2026-05-01T10:42:57.867Z</time></trkpt><trkpt lat="44.732865" lon="9.57272"><ele>743.5</ele><time>2026-05-01T10:42:59.867Z</time></trkpt><trkpt lat="44.7329383" lon="9.5727033"><ele>744.6666666666666</ele><time>2026-05-01T10:43:01.867Z</time></trkpt><trkpt lat="44.73304" lon="9.5727767"><ele>745.8333333333334</ele><time>2026-05-01T10:43:03.867Z</time></trkpt><trkpt lat="44.7330967" lon="9.5728317"><ele>747.0</ele><time>2026-05-01T10:43:04.867Z</time></trkpt><trkpt lat="44.7331967" lon="9.572895"><ele>747.0</ele><time>2026-05-01T10:43:06.867Z</time></trkpt><trkpt lat="44.7332867" lon="9.572925"><ele>747.0</ele><time>2026-05-01T10:43:08.867Z</time></trkpt><trkpt lat="44.73333" lon="9.57302"><ele>747.0</ele><time>2026-05-01T10:43:12.867Z</time></trkpt><trkpt lat="44.7334067" lon="9.57311"><ele>747.0</ele><time>2026-05-01T10:43:15.867Z</time></trkpt><trkpt lat="44.7334767" lon="9.5731433"><ele>747.0</ele><time>2026-05-01T10:43:16.867Z</time></trkpt><trkpt lat="44.7335533" lon="9.5731883"><ele>747.0</ele><time>2026-05-01T10:43:17.867Z</time></trkpt><trkpt lat="44.7336317" lon="9.573235"><ele>749.1666666666666</ele><time>2026-05-01T10:43:18.867Z</time></trkpt><trkpt lat="44.7337033" lon="9.573285"><ele>751.3333333333334</ele><time>2026-05-01T10:43:19.867Z</time></trkpt><trkpt lat="44.7337717" lon="9.5733517"><ele>753.5</ele><time>2026-05-01T10:43:20.867Z</time></trkpt><trkpt lat="44.7338317" lon="9.5734133"><ele>755.6666666666667</ele><time>2026-05-01T10:43:21.867Z</time></trkpt><trkpt lat="44.7338983" lon="9.5735467"><ele>757.8333333333334</ele><time>2026-05-01T10:43:23.867Z</time></trkpt><trkpt lat="44.7338967" lon="9.573675"><ele>760.0</ele><time>2026-05-01T10:43:25.867Z</time></trkpt><trkpt lat="44.7338733" lon="9.5737583"><ele>760.0</ele><time>2026-05-01T10:43:26.867Z</time></trkpt><trkpt lat="44.7338283" lon="9.573855"><ele>760.0</ele><time>2026-05-01T10:43:27.867Z</time></trkpt><trkpt lat="44.7337833" lon="9.573955"><ele>760.0</ele><time>2026-05-01T10:43:28.867Z</time></trkpt><trkpt lat="44.7337517" lon="9.5740517"><ele>760.0</ele><time>2026-05-01T10:43:29.867Z</time></trkpt><trkpt lat="44.7337233" lon="9.5741433"><ele>760.0</ele><time>2026-05-01T10:43:30.867Z</time></trkpt><trkpt lat="44.73369" lon="9.5742283"><ele>760.0</ele><time>2026-05-01T10:43:31.867Z</time></trkpt><trkpt lat="44.7336467" lon="9.5743167"><ele>760.0</ele><time>2026-05-01T10:43:32.867Z</time></trkpt><trkpt lat="44.733595" lon="9.574435"><ele>760.0</ele><time>2026-05-01T10:43:33.867Z</time></trkpt><trkpt lat="44.7335483" lon="9.57455"><ele>760.0</ele><time>2026-05-01T10:43:34.867Z</time></trkpt><trkpt lat="44.7335" lon="9.5746517"><ele>760.0</ele><time>2026-05-01T10:43:35.867Z</time></trkpt><trkpt lat="44.7334533" lon="9.5747383"><ele>760.0</ele><time>2026-05-01T10:43:36.867Z</time></trkpt><trkpt lat="44.7334133" lon="9.57481"><ele>760.0</ele><time>2026-05-01T10:43:37.867Z</time></trkpt><trkpt lat="44.7333583" lon="9.5748733"><ele>760.3333333333334</ele><time>2026-05-01T10:43:41.867Z</time></trkpt><trkpt lat="44.7332933" lon="9.5749533"><ele>760.6666666666667</ele><time>2026-05-01T10:43:44.867Z</time></trkpt><trkpt lat="44.7332483" lon="9.5750433"><ele>761.0</ele><time>2026-05-01T10:43:46.867Z</time></trkpt><trkpt lat="44.7331967" lon="9.5751567"><ele>761.3333333333334</ele><time>2026-05-01T10:43:48.867Z</time></trkpt><trkpt lat="44.7331583" lon="9.5752317"><ele>761.6666666666666</ele><time>2026-05-01T10:43:49.867Z</time></trkpt><trkpt lat="44.73311" lon="9.5753267"><ele>762.0</ele><time>2026-05-01T10:43:50.867Z</time></trkpt><trkpt lat="44.7330583" lon="9.5754067"><ele>765.6</ele><time>2026-05-01T10:43:51.867Z</time></trkpt><trkpt lat="44.7330033" lon="9.5754883"><ele>769.2</ele><time>2026-05-01T10:43:52.867Z</time></trkpt><trkpt lat="44.732965" lon="9.575575"><ele>772.8</ele><time>2026-05-01T10:43:53.867Z</time></trkpt><trkpt lat="44.7329167" lon="9.5756933"><ele>776.4</ele><time>2026-05-01T10:43:54.867Z</time></trkpt><trkpt lat="44.7328767" lon="9.5758217"><ele>780.0</ele><time>2026-05-01T10:43:55.867Z</time></trkpt><trkpt lat="44.7328417" lon="9.575955"><ele>780.0</ele><time>2026-05-01T10:43:56.867Z</time></trkpt><trkpt lat="44.7328117" lon="9.576075"><ele>780.0</ele><time>2026-05-01T10:43:57.867Z</time></trkpt><trkpt lat="44.73279" lon="9.5761917"><ele>780.0</ele><time>2026-05-01T10:43:58.867Z</time></trkpt><trkpt lat="44.7327783" lon="9.576305"><ele>780.0</ele><time>2026-05-01T10:43:59.867Z</time></trkpt><trkpt lat="44.7327833" lon="9.5764217"><ele>780.0</ele><time>2026-05-01T10:44:00.867Z</time></trkpt><trkpt lat="44.7328183" lon="9.5765333"><ele>780.0</ele><time>2026-05-01T10:44:01.867Z</time></trkpt><trkpt lat="44.73286" lon="9.5766333"><ele>779.8</ele><time>2026-05-01T10:44:02.867Z</time></trkpt><trkpt lat="44.732895" lon="9.5767517"><ele>779.6</ele><time>2026-05-01T10:44:03.867Z</time></trkpt><trkpt lat="44.7329467" lon="9.576875"><ele>779.4000000000001</ele><time>2026-05-01T10:44:04.867Z</time></trkpt><trkpt lat="44.733" lon="9.57701"><ele>779.2</ele><time>2026-05-01T10:44:05.867Z</time></trkpt><trkpt lat="44.7330633" lon="9.577095"><ele>779.0</ele><time>2026-05-01T10:44:06.867Z</time></trkpt><trkpt lat="44.7331317" lon="9.5771833"><ele>779.0</ele><time>2026-05-01T10:44:07.867Z</time></trkpt><trkpt lat="44.733235" lon="9.5772983"><ele>779.0</ele><time>2026-05-01T10:44:08.867Z</time></trkpt><trkpt lat="44.733305" lon="9.57738"><ele>779.0</ele><time>2026-05-01T10:44:09.868Z</time></trkpt><trkpt lat="44.733385" lon="9.577465"><ele>779.0</ele><time>2026-05-01T10:44:10.867Z</time></trkpt><trkpt lat="44.7334733" lon="9.5775567"><ele>779.0</ele><time>2026-05-01T10:44:11.867Z</time></trkpt><trkpt lat="44.7335517" lon="9.57763"><ele>781.0000000000001</ele><time>2026-05-01T10:44:12.867Z</time></trkpt><trkpt lat="44.73362" lon="9.5776933"><ele>783.0</ele><time>2026-05-01T10:44:13.867Z</time></trkpt><trkpt lat="44.73369" lon="9.57775"><ele>785.0</ele><time>2026-05-01T10:44:14.867Z</time></trkpt><trkpt lat="44.7337583" lon="9.5777967"><ele>787.0</ele><time>2026-05-01T10:44:15.867Z</time></trkpt><trkpt lat="44.7338333" lon="9.5778183"><ele>789.0000000000001</ele><time>2026-05-01T10:44:16.868Z</time></trkpt><trkpt lat="44.7339117" lon="9.57783"><ele>791.0</ele><time>2026-05-01T10:44:17.867Z</time></trkpt><trkpt lat="44.7339883" lon="9.5778367"><ele>791.0000000000001</ele><time>2026-05-01T10:44:18.867Z</time></trkpt><trkpt lat="44.73406" lon="9.5778383"><ele>791.0</ele><time>2026-05-01T10:44:19.867Z</time></trkpt><trkpt lat="44.734125" lon="9.5778417"><ele>791.0</ele><time>2026-05-01T10:44:20.867Z</time></trkpt><trkpt lat="44.7341967" lon="9.577845"><ele>791.0</ele><time>2026-05-01T10:44:21.867Z</time></trkpt><trkpt lat="44.7342767" lon="9.5778467"><ele>791.0000000000001</ele><time>2026-05-01T10:44:22.867Z</time></trkpt><trkpt lat="44.7343517" lon="9.5778383"><ele>791.0</ele><time>2026-05-01T10:44:23.867Z</time></trkpt><trkpt lat="44.734475" lon="9.5778467"><ele>788.6666666666667</ele><time>2026-05-01T10:44:25.867Z</time></trkpt><trkpt lat="44.73454" lon="9.577855"><ele>786.3333333333334</ele><time>2026-05-01T10:44:26.867Z</time></trkpt><trkpt lat="44.7346083" lon="9.5778433"><ele>784.0</ele><time>2026-05-01T10:44:27.867Z</time></trkpt><trkpt lat="44.734675" lon="9.5778367"><ele>781.6666666666667</ele><time>2026-05-01T10:44:28.867Z</time></trkpt><trkpt lat="44.7347617" lon="9.577835"><ele>779.3333333333334</ele><time>2026-05-01T10:44:29.867Z</time></trkpt><trkpt lat="44.7348367" lon="9.5778117"><ele>777.0</ele><time>2026-05-01T10:44:30.867Z</time></trkpt><trkpt lat="44.73492" lon="9.5777817"><ele>777.0</ele><time>2026-05-01T10:44:31.867Z</time></trkpt><trkpt lat="44.73501" lon="9.57774"><ele>777.0</ele><time>2026-05-01T10:44:32.867Z</time></trkpt><trkpt lat="44.7350917" lon="9.577685"><ele>777.0</ele><time>2026-05-01T10:44:33.867Z</time></trkpt><trkpt lat="44.7351667" lon="9.577635"><ele>777.0</ele><time>2026-05-01T10:44:34.867Z</time></trkpt><trkpt lat="44.7352333" lon="9.5775733"><ele>777.0</ele><time>2026-05-01T10:44:35.867Z</time></trkpt><trkpt lat="44.735285" lon="9.5775217"><ele>777.0</ele><time>2026-05-01T10:44:36.867Z</time></trkpt><trkpt lat="44.7353617" lon="9.5774067"><ele>772.8333333333334</ele><time>2026-05-01T10:44:38.867Z</time></trkpt><trkpt lat="44.735445" lon="9.577315"><ele>768.6666666666666</ele><time>2026-05-01T10:44:40.867Z</time></trkpt><trkpt lat="44.7355067" lon="9.577275"><ele>764.5</ele><time>2026-05-01T10:44:41.867Z</time></trkpt><trkpt lat="44.7355767" lon="9.5772383"><ele>760.3333333333333</ele><time>2026-05-01T10:44:42.867Z</time></trkpt><trkpt lat="44.7356483" lon="9.5772017"><ele>756.1666666666666</ele><time>2026-05-01T10:44:43.867Z</time></trkpt><trkpt lat="44.7357267" lon="9.5771767"><ele>752.0</ele><time>2026-05-01T10:44:44.867Z</time></trkpt><trkpt lat="44.7358117" lon="9.5771667"><ele>752.0</ele><time>2026-05-01T10:44:45.867Z</time></trkpt><trkpt lat="44.7358967" lon="9.5771567"><ele>752.0</ele><time>2026-05-01T10:44:46.867Z</time></trkpt><trkpt lat="44.7359767" lon="9.577145"><ele>752.0</ele><time>2026-05-01T10:44:47.867Z</time></trkpt><trkpt lat="44.73605" lon="9.5771233"><ele>752.0</ele><time>2026-05-01T10:44:48.867Z</time></trkpt><trkpt lat="44.7361217" lon="9.5770917"><ele>752.0</ele><time>2026-05-01T10:44:49.867Z</time></trkpt><trkpt lat="44.7361867" lon="9.5770617"><ele>752.0</ele><time>2026-05-01T10:44:50.867Z</time></trkpt><trkpt lat="44.7363" lon="9.57703"><ele>751.6</ele><time>2026-05-01T10:44:52.867Z</time></trkpt><trkpt lat="44.736385" lon="9.57706"><ele>751.2</ele><time>2026-05-01T10:44:54.868Z</time></trkpt><trkpt lat="44.7364767" lon="9.5771183"><ele>750.8</ele><time>2026-05-01T10:44:56.867Z</time></trkpt><trkpt lat="44.736585" lon="9.5771633"><ele>750.4</ele><time>2026-05-01T10:44:58.867Z</time></trkpt><trkpt lat="44.7366483" lon="9.5771783"><ele>750.0</ele><time>2026-05-01T10:44:59.867Z</time></trkpt><trkpt lat="44.7367367" lon="9.5772233"><ele>750.0</ele><time>2026-05-01T10:45:01.867Z</time></trkpt><trkpt lat="44.736805" lon="9.5772567"><ele>750.0</ele><time>2026-05-01T10:45:03.867Z</time></trkpt><trkpt lat="44.73686" lon="9.577315"><ele>750.0</ele><time>2026-05-01T10:45:05.867Z</time></trkpt><trkpt lat="44.73695" lon="9.577385"><ele>750.0</ele><time>2026-05-01T10:45:07.867Z</time></trkpt><trkpt lat="44.737015" lon="9.5774333"><ele>750.0</ele><time>2026-05-01T10:45:08.867Z</time></trkpt><trkpt lat="44.7371167" lon="9.57753"><ele>750.0</ele><time>2026-05-01T10:45:10.867Z</time></trkpt><trkpt lat="44.7371717" lon="9.5775867"><ele>751.3333333333334</ele><time>2026-05-01T10:45:11.867Z</time></trkpt><trkpt lat="44.737245" lon="9.5776633"><ele>752.6666666666666</ele><time>2026-05-01T10:45:12.867Z</time></trkpt><trkpt lat="44.7373067" lon="9.5777267"><ele>754.0</ele><time>2026-05-01T10:45:13.867Z</time></trkpt><trkpt lat="44.7373717" lon="9.5777933"><ele>755.3333333333333</ele><time>2026-05-01T10:45:14.867Z</time></trkpt><trkpt lat="44.7374267" lon="9.57784"><ele>756.6666666666666</ele><time>2026-05-01T10:45:15.867Z</time></trkpt><trkpt lat="44.7375133" lon="9.5778767"><ele>758.0</ele><time>2026-05-01T10:45:16.867Z</time></trkpt><trkpt lat="44.73758" lon="9.5779267"><ele>754.8333333333333</ele><time>2026-05-01T10:45:17.867Z</time></trkpt><trkpt lat="44.737655" lon="9.57797"><ele>751.6666666666666</ele><time>2026-05-01T10:45:18.867Z</time></trkpt><trkpt lat="44.73773" lon="9.5780067"><ele>748.5</ele><time>2026-05-01T10:45:19.867Z</time></trkpt><trkpt lat="44.7378117" lon="9.5780317"><ele>745.3333333333334</ele><time>2026-05-01T10:45:20.867Z</time></trkpt><trkpt lat="44.7378967" lon="9.578055"><ele>742.1666666666667</ele><time>2026-05-01T10:45:21.867Z</time></trkpt><trkpt lat="44.7379783" lon="9.5780717"><ele>739.0</ele><time>2026-05-01T10:45:22.867Z</time></trkpt><trkpt lat="44.7380567" lon="9.5781033"><ele>739.0</ele><time>2026-05-01T10:45:23.867Z</time></trkpt><trkpt lat="44.73812" lon="9.5781367"><ele>739.0</ele><time>2026-05-01T10:45:24.867Z</time></trkpt><trkpt lat="44.7381917" lon="9.57818"><ele>739.0</ele><time>2026-05-01T10:45:26.867Z</time></trkpt><trkpt lat="44.7382717" lon="9.578205"><ele>739.0</ele><time>2026-05-01T10:45:29.867Z</time></trkpt><trkpt lat="44.73835" lon="9.5781967"><ele>739.0</ele><time>2026-05-01T10:45:32.867Z</time></trkpt><trkpt lat="44.738415" lon="9.5781783"><ele>739.0</ele><time>2026-05-01T10:45:35.867Z</time></trkpt><trkpt lat="44.7385" lon="9.5781633"><ele>736.8000000000001</ele><time>2026-05-01T10:45:37.867Z</time></trkpt><trkpt lat="44.7386233" lon="9.5781383"><ele>734.6</ele><time>2026-05-01T10:45:39.867Z</time></trkpt><trkpt lat="44.73869" lon="9.5781317"><ele>732.4</ele><time>2026-05-01T10:45:40.867Z</time></trkpt><trkpt lat="44.7387533" lon="9.578115"><ele>730.2</ele><time>2026-05-01T10:45:41.867Z</time></trkpt><trkpt lat="44.73887" lon="9.578085"><ele>728.0</ele><time>2026-05-01T10:45:43.867Z</time></trkpt><trkpt lat="44.738975" lon="9.578075"><ele>728.0</ele><time>2026-05-01T10:45:45.867Z</time></trkpt><trkpt lat="44.7390683" lon="9.5780683"><ele>728.0</ele><time>2026-05-01T10:45:47.867Z</time></trkpt><trkpt lat="44.7391467" lon="9.5780467"><ele>728.0</ele><time>2026-05-01T10:45:49.867Z</time></trkpt><trkpt lat="44.739225" lon="9.5780167"><ele>728.0</ele><time>2026-05-01T10:45:51.867Z</time></trkpt><trkpt lat="44.7393067" lon="9.5779633"><ele>728.0</ele><time>2026-05-01T10:45:53.867Z</time></trkpt><trkpt lat="44.7393917" lon="9.5778867"><ele>728.0</ele><time>2026-05-01T10:45:55.867Z</time></trkpt><trkpt lat="44.73947" lon="9.5778283"><ele>725.5999999999999</ele><time>2026-05-01T10:45:57.867Z</time></trkpt><trkpt lat="44.7395417" lon="9.5777967"><ele>723.1999999999999</ele><time>2026-05-01T10:45:59.867Z</time></trkpt><trkpt lat="44.7396317" lon="9.5777783"><ele>720.8</ele><time>2026-05-01T10:46:01.867Z</time></trkpt><trkpt lat="44.7397217" lon="9.5777617"><ele>718.4</ele><time>2026-05-01T10:46:03.867Z</time></trkpt><trkpt lat="44.73981" lon="9.577695"><ele>716.0</ele><time>2026-05-01T10:46:05.867Z</time></trkpt><trkpt lat="44.7398917" lon="9.5775967"><ele>716.0</ele><time>2026-05-01T10:46:07.867Z</time></trkpt><trkpt lat="44.7399917" lon="9.5775067"><ele>716.0</ele><time>2026-05-01T10:46:09.867Z</time></trkpt><trkpt lat="44.7401067" lon="9.577465"><ele>716.0</ele><time>2026-05-01T10:46:11.867Z</time></trkpt><trkpt lat="44.7401717" lon="9.57747"><ele>716.0</ele><time>2026-05-01T10:46:13.867Z</time></trkpt><trkpt lat="44.7402783" lon="9.5775283"><ele>716.0</ele><time>2026-05-01T10:46:16.867Z</time></trkpt><trkpt lat="44.7403367" lon="9.577585"><ele>715.1999999999999</ele><time>2026-05-01T10:46:19.867Z</time></trkpt><trkpt lat="44.7403983" lon="9.5776467"><ele>714.4</ele><time>2026-05-01T10:46:21.867Z</time></trkpt><trkpt lat="44.74045" lon="9.5777133"><ele>713.6</ele><time>2026-05-01T10:46:23.867Z</time></trkpt><trkpt lat="44.74053" lon="9.5778267"><ele>712.8</ele><time>2026-05-01T10:46:25.867Z</time></trkpt><trkpt lat="44.7406233" lon="9.5779467"><ele>712.0</ele><time>2026-05-01T10:46:27.867Z</time></trkpt><trkpt lat="44.7406717" lon="9.5780067"><ele>708.6</ele><time>2026-05-01T10:46:28.867Z</time></trkpt><trkpt lat="44.740745" lon="9.57809"><ele>705.2</ele><time>2026-05-01T10:46:29.868Z</time></trkpt><trkpt lat="44.740835" lon="9.578185"><ele>701.8</ele><time>2026-05-01T10:46:30.867Z</time></trkpt><trkpt lat="44.7408983" lon="9.5782533"><ele>698.4</ele><time>2026-05-01T10:46:31.867Z</time></trkpt><trkpt lat="44.7409733" lon="9.578325"><ele>695.0</ele><time>2026-05-01T10:46:32.868Z</time></trkpt><trkpt lat="44.7410267" lon="9.5784017"><ele>695.6666666666666</ele><time>2026-05-01T10:46:33.867Z</time></trkpt><trkpt lat="44.741085" lon="9.57845"><ele>696.3333333333333</ele><time>2026-05-01T10:46:34.867Z</time></trkpt><trkpt lat="44.7411433" lon="9.5784867"><ele>697.0</ele><time>2026-05-01T10:46:35.867Z</time></trkpt><trkpt lat="44.7412267" lon="9.57856"><ele>697.6666666666666</ele><time>2026-05-01T10:46:37.868Z</time></trkpt><trkpt lat="44.74132" lon="9.5786267"><ele>698.3333333333334</ele><time>2026-05-01T10:46:39.867Z</time></trkpt><trkpt lat="44.74139" lon="9.5786533"><ele>699.0</ele><time>2026-05-01T10:46:40.867Z</time></trkpt><trkpt lat="44.7415017" lon="9.5787117"><ele>696.5</ele><time>2026-05-01T10:46:42.867Z</time></trkpt><trkpt lat="44.74156" lon="9.5787467"><ele>694.0</ele><time>2026-05-01T10:46:43.867Z</time></trkpt><trkpt lat="44.7416517" lon="9.578815"><ele>691.5</ele><time>2026-05-01T10:46:45.867Z</time></trkpt><trkpt lat="44.7417267" lon="9.5788467"><ele>689.0</ele><time>2026-05-01T10:46:47.867Z</time></trkpt><trkpt lat="44.7418117" lon="9.5788567"><ele>686.5</ele><time>2026-05-01T10:46:49.867Z</time></trkpt><trkpt lat="44.74192" lon="9.57887"><ele>684.0</ele><time>2026-05-01T10:46:51.867Z</time></trkpt><trkpt lat="44.741985" lon="9.5788667"><ele>684.0</ele><time>2026-05-01T10:46:52.867Z</time></trkpt><trkpt lat="44.742085" lon="9.5788383"><ele>684.0</ele><time>2026-05-01T10:46:54.867Z</time></trkpt><trkpt lat="44.7421583" lon="9.578825"><ele>684.0</ele><time>2026-05-01T10:46:56.867Z</time></trkpt><trkpt lat="44.7422367" lon="9.5788667"><ele>684.0</ele><time>2026-05-01T10:46:59.867Z</time></trkpt><trkpt lat="44.7422917" lon="9.5789433"><ele>684.0</ele><time>2026-05-01T10:47:01.867Z</time></trkpt><trkpt lat="44.7423517" lon="9.579055"><ele>684.0</ele><time>2026-05-01T10:47:03.867Z</time></trkpt><trkpt lat="44.7424217" lon="9.5791767"><ele>684.0</ele><time>2026-05-01T10:47:05.867Z</time></trkpt><trkpt lat="44.7424667" lon="9.57925"><ele>684.0</ele><time>2026-05-01T10:47:06.867Z</time></trkpt><trkpt lat="44.74251" lon="9.5793317"><ele>684.0</ele><time>2026-05-01T10:47:07.868Z</time></trkpt><trkpt lat="44.7425683" lon="9.5794217"><ele>684.0</ele><time>2026-05-01T10:47:08.867Z</time></trkpt><trkpt lat="44.74263" lon="9.57953"><ele>684.0</ele><time>2026-05-01T10:47:09.867Z</time></trkpt><trkpt lat="44.7426933" lon="9.5796333"><ele>684.0</ele><time>2026-05-01T10:47:10.868Z</time></trkpt><trkpt lat="44.742755" lon="9.5797733"><ele>685.4000000000001</ele><time>2026-05-01T10:47:11.867Z</time></trkpt><trkpt lat="44.7428117" lon="9.5798833"><ele>686.8</ele><time>2026-05-01T10:47:12.867Z</time></trkpt><trkpt lat="44.7428667" lon="9.5799817"><ele>688.2</ele><time>2026-05-01T10:47:13.867Z</time></trkpt><trkpt lat="44.7429333" lon="9.5801183"><ele>689.5999999999999</ele><time>2026-05-01T10:47:14.867Z</time></trkpt><trkpt lat="44.7429867" lon="9.5802167"><ele>691.0</ele><time>2026-05-01T10:47:15.867Z</time></trkpt><trkpt lat="44.7430383" lon="9.5803017"><ele>686.25</ele><time>2026-05-01T10:47:16.867Z</time></trkpt><trkpt lat="44.7431033" lon="9.580395"><ele>681.5</ele><time>2026-05-01T10:47:17.867Z</time></trkpt><trkpt lat="44.743185" lon="9.5805067"><ele>676.75</ele><time>2026-05-01T10:47:18.867Z</time></trkpt><trkpt lat="44.7432733" lon="9.580635"><ele>672.0</ele><time>2026-05-01T10:47:19.867Z</time></trkpt><trkpt lat="44.74337" lon="9.5807567"><ele>672.0</ele><time>2026-05-01T10:47:20.867Z</time></trkpt><trkpt lat="44.7434367" lon="9.5808683"><ele>672.0</ele><time>2026-05-01T10:47:21.867Z</time></trkpt><trkpt lat="44.7434967" lon="9.581"><ele>672.0</ele><time>2026-05-01T10:47:22.867Z</time></trkpt><trkpt lat="44.743555" lon="9.58115"><ele>672.0</ele><time>2026-05-01T10:47:23.867Z</time></trkpt><trkpt lat="44.74359" lon="9.58131"><ele>673.1666666666666</ele><time>2026-05-01T10:47:24.867Z</time></trkpt><trkpt lat="44.7436233" lon="9.5814717"><ele>674.3333333333334</ele><time>2026-05-01T10:47:25.867Z</time></trkpt><trkpt lat="44.7436483" lon="9.5815967"><ele>675.5</ele><time>2026-05-01T10:47:26.867Z</time></trkpt><trkpt lat="44.7436617" lon="9.58169"><ele>676.6666666666667</ele><time>2026-05-01T10:47:27.867Z</time></trkpt><trkpt lat="44.7436967" lon="9.5817683"><ele>677.8333333333334</ele><time>2026-05-01T10:47:28.867Z</time></trkpt><trkpt lat="44.7437433" lon="9.5818333"><ele>679.0</ele><time>2026-05-01T10:47:29.867Z</time></trkpt><trkpt lat="44.7438317" lon="9.5819"><ele>679.0</ele><time>2026-05-01T10:47:31.867Z</time></trkpt><trkpt lat="44.743945" lon="9.581945"><ele>679.0</ele><time>2026-05-01T10:47:33.867Z</time></trkpt><trkpt lat="44.7440367" lon="9.5819967"><ele>679.0</ele><time>2026-05-01T10:47:35.867Z</time></trkpt><trkpt lat="44.74414" lon="9.5820617"><ele>679.0</ele><time>2026-05-01T10:47:37.867Z</time></trkpt><trkpt lat="44.7442183" lon="9.5821133"><ele>679.0</ele><time>2026-05-01T10:47:39.867Z</time></trkpt><trkpt lat="44.7443417" lon="9.5821967"><ele>679.0</ele><time>2026-05-01T10:48:22.867Z</time></trkpt><trkpt lat="44.74433" lon="9.58207"><ele>679.0</ele><time>2026-05-01T10:48:29.867Z</time></trkpt><trkpt lat="44.7442883" lon="9.58196"><ele>679.0</ele><time>2026-05-01T10:48:31.867Z</time></trkpt><trkpt lat="44.74423" lon="9.581835"><ele>679.0</ele><time>2026-05-01T10:48:33.867Z</time></trkpt><trkpt lat="44.744165" lon="9.5816767"><ele>679.0</ele><time>2026-05-01T10:48:35.867Z</time></trkpt><trkpt lat="44.74414" lon="9.58159"><ele>679.0</ele><time>2026-05-01T10:48:36.867Z</time></trkpt><trkpt lat="44.7441017" lon="9.58143"><ele>679.0</ele><time>2026-05-01T10:48:38.867Z</time></trkpt><trkpt lat="44.74409" lon="9.5813"><ele>679.0</ele><time>2026-05-01T10:48:40.867Z</time></trkpt><trkpt lat="44.7441067" lon="9.5811633"><ele>679.0</ele><time>2026-05-01T10:48:42.867Z</time></trkpt><trkpt lat="44.7440817" lon="9.5810133"><ele>679.0</ele><time>2026-05-01T10:48:44.867Z</time></trkpt><trkpt lat="44.7440533" lon="9.5809333"><ele>681.6</ele><time>2026-05-01T10:48:45.867Z</time></trkpt><trkpt lat="44.743995" lon="9.5807967"><ele>684.2</ele><time>2026-05-01T10:48:47.867Z</time></trkpt><trkpt lat="44.74397" lon="9.5806567"><ele>686.8000000000001</ele><time>2026-05-01T10:48:49.867Z</time></trkpt><trkpt lat="44.7439533" lon="9.5805433"><ele>689.4000000000001</ele><time>2026-05-01T10:48:50.867Z</time></trkpt><trkpt lat="44.7439383" lon="9.5804233"><ele>692.0</ele><time>2026-05-01T10:48:51.867Z</time></trkpt><trkpt lat="44.7439117" lon="9.580305"><ele>693.6666666666666</ele><time>2026-05-01T10:48:52.867Z</time></trkpt><trkpt lat="44.743885" lon="9.5801983"><ele>695.3333333333333</ele><time>2026-05-01T10:48:53.867Z</time></trkpt><trkpt lat="44.7438483" lon="9.5800833"><ele>697.0</ele><time>2026-05-01T10:48:54.867Z</time></trkpt><trkpt lat="44.7438083" lon="9.5799717"><ele>698.6666666666666</ele><time>2026-05-01T10:48:55.868Z</time></trkpt><trkpt lat="44.743775" lon="9.5798717"><ele>700.3333333333334</ele><time>2026-05-01T10:48:56.867Z</time></trkpt><trkpt lat="44.7437567" lon="9.5797633"><ele>702.0</ele><time>2026-05-01T10:48:57.867Z</time></trkpt><trkpt lat="44.7437467" lon="9.5796367"><ele>702.0</ele><time>2026-05-01T10:48:58.867Z</time></trkpt><trkpt lat="44.743765" lon="9.579525"><ele>702.0</ele><time>2026-05-01T10:48:59.867Z</time></trkpt><trkpt lat="44.7437883" lon="9.579425"><ele>702.0</ele><time>2026-05-01T10:49:00.867Z</time></trkpt><trkpt lat="44.743805" lon="9.57933"><ele>702.0</ele><time>2026-05-01T10:49:01.867Z</time></trkpt><trkpt lat="44.743805" lon="9.579155"><ele>702.0</ele><time>2026-05-01T10:49:03.867Z</time></trkpt><trkpt lat="44.743775" lon="9.5789617"><ele>704.4000000000001</ele><time>2026-05-01T10:49:05.867Z</time></trkpt><trkpt lat="44.7437733" lon="9.5788667"><ele>706.8000000000001</ele><time>2026-05-01T10:49:06.867Z</time></trkpt><trkpt lat="44.7437733" lon="9.5787733"><ele>709.2</ele><time>2026-05-01T10:49:07.867Z</time></trkpt><trkpt lat="44.7437817" lon="9.5785933"><ele>711.6</ele><time>2026-05-01T10:49:09.867Z</time></trkpt><trkpt lat="44.7437733" lon="9.5784133"><ele>714.0</ele><time>2026-05-01T10:49:11.867Z</time></trkpt><trkpt lat="44.7437617" lon="9.578325"><ele>716.0</ele><time>2026-05-01T10:49:12.867Z</time></trkpt><trkpt lat="44.7437317" lon="9.578185"><ele>718.0</ele><time>2026-05-01T10:49:14.867Z</time></trkpt><trkpt lat="44.7436783" lon="9.5780517"><ele>720.0</ele><time>2026-05-01T10:49:16.867Z</time></trkpt><trkpt lat="44.74363" lon="9.5779133"><ele>722.0</ele><time>2026-05-01T10:49:18.867Z</time></trkpt><trkpt lat="44.7435917" lon="9.5777683"><ele>724.0</ele><time>2026-05-01T10:49:20.867Z</time></trkpt><trkpt lat="44.74359" lon="9.577675"><ele>728.6</ele><time>2026-05-01T10:49:21.867Z</time></trkpt><trkpt lat="44.743605" lon="9.577505"><ele>733.2</ele><time>2026-05-01T10:49:23.867Z</time></trkpt><trkpt lat="44.7436267" lon="9.5773717"><ele>737.8000000000001</ele><time>2026-05-01T10:49:25.867Z</time></trkpt><trkpt lat="44.7436483" lon="9.5772367"><ele>742.4000000000001</ele><time>2026-05-01T10:49:27.867Z</time></trkpt><trkpt lat="44.743685" lon="9.57712"><ele>747.0</ele><time>2026-05-01T10:49:29.867Z</time></trkpt><trkpt lat="44.7437217" lon="9.5770333"><ele>751.3333333333334</ele><time>2026-05-01T10:49:31.867Z</time></trkpt><trkpt lat="44.743785" lon="9.5769933"><ele>755.6666666666667</ele><time>2026-05-01T10:49:33.867Z</time></trkpt><trkpt lat="44.7438683" lon="9.5769417"><ele>760.0</ele><time>2026-05-01T10:49:35.867Z</time></trkpt><trkpt lat="44.7439633" lon="9.5769033"><ele>764.3333333333334</ele><time>2026-05-01T10:49:37.867Z</time></trkpt><trkpt lat="44.7440583" lon="9.57686"><ele>768.6666666666667</ele><time>2026-05-01T10:49:39.867Z</time></trkpt><trkpt lat="44.744135" lon="9.576835"><ele>773.0</ele><time>2026-05-01T10:49:41.867Z</time></trkpt><trkpt lat="44.7442" lon="9.5768033"><ele>773.0</ele><time>2026-05-01T10:49:44.867Z</time></trkpt><trkpt lat="44.7442433" lon="9.5767367"><ele>773.0</ele><time>2026-05-01T10:49:48.867Z</time></trkpt><trkpt lat="44.7443133" lon="9.5767033"><ele>773.0</ele><time>2026-05-01T10:49:50.867Z</time></trkpt><trkpt lat="44.744425" lon="9.5766467"><ele>773.0</ele><time>2026-05-01T10:49:52.867Z</time></trkpt><trkpt lat="44.7445217" lon="9.576575"><ele>773.0</ele><time>2026-05-01T10:49:54.867Z</time></trkpt><trkpt lat="44.74462" lon="9.57645"><ele>773.0000000000001</ele><time>2026-05-01T10:49:56.867Z</time></trkpt><trkpt lat="44.7446567" lon="9.576355"><ele>773.0</ele><time>2026-05-01T10:49:57.867Z</time></trkpt><trkpt lat="44.74463" lon="9.5762183"><ele>773.0</ele><time>2026-05-01T10:50:00.867Z</time></trkpt><trkpt lat="44.7445783" lon="9.5760683"><ele>773.0</ele><time>2026-05-01T10:50:02.868Z</time></trkpt><trkpt lat="44.7445567" lon="9.5759667"><ele>773.0000000000001</ele><time>2026-05-01T10:50:03.867Z</time></trkpt><trkpt lat="44.744535" lon="9.57587"><ele>773.0</ele><time>2026-05-01T10:50:04.867Z</time></trkpt><trkpt lat="44.7445033" lon="9.5757117"><ele>776.4</ele><time>2026-05-01T10:50:06.867Z</time></trkpt><trkpt lat="44.744515" lon="9.5755467"><ele>779.8</ele><time>2026-05-01T10:50:08.867Z</time></trkpt><trkpt lat="44.7445317" lon="9.5753917"><ele>783.2</ele><time>2026-05-01T10:50:10.867Z</time></trkpt><trkpt lat="44.7445367" lon="9.57524"><ele>786.6</ele><time>2026-05-01T10:50:12.868Z</time></trkpt><trkpt lat="44.7445617" lon="9.5751083"><ele>790.0</ele><time>2026-05-01T10:50:14.867Z</time></trkpt><trkpt lat="44.7445883" lon="9.5749517"><ele>792.3333333333333</ele><time>2026-05-01T10:50:16.867Z</time></trkpt><trkpt lat="44.7446117" lon="9.5748533"><ele>794.6666666666666</ele><time>2026-05-01T10:50:17.867Z</time></trkpt><trkpt lat="44.74465" lon="9.5747517"><ele>797.0</ele><time>2026-05-01T10:50:18.868Z</time></trkpt><trkpt lat="44.7446983" lon="9.5746517"><ele>799.3333333333333</ele><time>2026-05-01T10:50:19.867Z</time></trkpt><trkpt lat="44.7447567" lon="9.5745567"><ele>801.6666666666666</ele><time>2026-05-01T10:50:20.867Z</time></trkpt><trkpt lat="44.7448117" lon="9.5744733"><ele>804.0</ele><time>2026-05-01T10:50:21.867Z</time></trkpt><trkpt lat="44.7448567" lon="9.5743967"><ele>806.8333333333334</ele><time>2026-05-01T10:50:22.867Z</time></trkpt><trkpt lat="44.744895" lon="9.5743133"><ele>809.6666666666667</ele><time>2026-05-01T10:50:23.867Z</time></trkpt><trkpt lat="44.74493" lon="9.57423"><ele>812.5</ele><time>2026-05-01T10:50:24.867Z</time></trkpt><trkpt lat="44.74497" lon="9.5740783"><ele>815.3333333333334</ele><time>2026-05-01T10:50:26.867Z</time></trkpt><trkpt lat="44.7449817" lon="9.5739883"><ele>818.1666666666667</ele><time>2026-05-01T10:50:28.867Z</time></trkpt><trkpt lat="44.744885" lon="9.573885"><ele>821.0</ele><time>2026-05-01T10:50:37.867Z</time></trkpt><trkpt lat="44.7448017" lon="9.5738433"><ele>821.0</ele><time>2026-05-01T10:50:40.867Z</time></trkpt><trkpt lat="44.7447383" lon="9.5738083"><ele>821.0</ele><time>2026-05-01T10:50:42.867Z</time></trkpt><trkpt lat="44.74464" lon="9.5737717"><ele>821.0</ele><time>2026-05-01T10:50:44.867Z</time></trkpt><trkpt lat="44.7445283" lon="9.5737633"><ele>821.0</ele><time>2026-05-01T10:50:45.867Z</time></trkpt><trkpt lat="44.7443867" lon="9.5737533"><ele>821.0</ele><time>2026-05-01T10:50:46.867Z</time></trkpt><trkpt lat="44.7442867" lon="9.5737367"><ele>823.5999999999999</ele><time>2026-05-01T10:50:47.867Z</time></trkpt><trkpt lat="44.7441067" lon="9.57374"><ele>826.2</ele><time>2026-05-01T10:50:48.867Z</time></trkpt><trkpt lat="44.7440183" lon="9.5737167"><ele>828.8</ele><time>2026-05-01T10:50:49.867Z</time></trkpt><trkpt lat="44.7439433" lon="9.5737"><ele>831.4000000000001</ele><time>2026-05-01T10:50:50.867Z</time></trkpt><trkpt lat="44.743875" lon="9.5736883"><ele>834.0</ele><time>2026-05-01T10:50:51.867Z</time></trkpt><trkpt lat="44.7438117" lon="9.57368"><ele>834.3333333333334</ele><time>2026-05-01T10:50:52.867Z</time></trkpt><trkpt lat="44.7437467" lon="9.57367"><ele>834.6666666666667</ele><time>2026-05-01T10:50:53.867Z</time></trkpt><trkpt lat="44.7436767" lon="9.5736517"><ele>835.0</ele><time>2026-05-01T10:50:54.867Z</time></trkpt><trkpt lat="44.7435933" lon="9.5736317"><ele>835.3333333333334</ele><time>2026-05-01T10:50:55.867Z</time></trkpt><trkpt lat="44.743515" lon="9.5736117"><ele>835.6666666666667</ele><time>2026-05-01T10:50:56.867Z</time></trkpt><trkpt lat="44.7434383" lon="9.57359"><ele>836.0</ele><time>2026-05-01T10:50:57.867Z</time></trkpt><trkpt lat="44.743365" lon="9.5735567"><ele>839.3333333333334</ele><time>2026-05-01T10:50:58.867Z</time></trkpt><trkpt lat="44.7432867" lon="9.57351"><ele>842.6666666666667</ele><time>2026-05-01T10:50:59.867Z</time></trkpt><trkpt lat="44.743205" lon="9.5734567"><ele>846.0</ele><time>2026-05-01T10:51:00.867Z</time></trkpt><trkpt lat="44.74312" lon="9.5734133"><ele>849.3333333333333</ele><time>2026-05-01T10:51:01.867Z</time></trkpt><trkpt lat="44.7430483" lon="9.5733683"><ele>852.6666666666666</ele><time>2026-05-01T10:51:02.867Z</time></trkpt><trkpt lat="44.7429717" lon="9.5733283"><ele>856.0</ele><time>2026-05-01T10:51:03.867Z</time></trkpt><trkpt lat="44.7428567" lon="9.5732867"><ele>855.9999999999999</ele><time>2026-05-01T10:51:05.867Z</time></trkpt><trkpt lat="44.7427933" lon="9.5732733"><ele>856.0</ele><time>2026-05-01T10:51:06.867Z</time></trkpt><trkpt lat="44.7427183" lon="9.5732717"><ele>856.0</ele><time>2026-05-01T10:51:07.867Z</time></trkpt><trkpt lat="44.7426467" lon="9.5732733"><ele>856.0</ele><time>2026-05-01T10:51:08.867Z</time></trkpt><trkpt lat="44.74258" lon="9.57327"><ele>855.9999999999999</ele><time>2026-05-01T10:51:09.867Z</time></trkpt><trkpt lat="44.7424717" lon="9.573225"><ele>856.0</ele><time>2026-05-01T10:51:11.867Z</time></trkpt><trkpt lat="44.7424" lon="9.57317"><ele>858.4999999999999</ele><time>2026-05-01T10:51:13.867Z</time></trkpt><trkpt lat="44.7423233" lon="9.5730917"><ele>861.0</ele><time>2026-05-01T10:51:16.867Z</time></trkpt><trkpt lat="44.742305" lon="9.5729783"><ele>863.5</ele><time>2026-05-01T10:51:19.867Z</time></trkpt><trkpt lat="44.7422917" lon="9.5728767"><ele>866.0</ele><time>2026-05-01T10:51:21.867Z</time></trkpt><trkpt lat="44.7422717" lon="9.5727883"><ele>868.4999999999999</ele><time>2026-05-01T10:51:22.868Z</time></trkpt><trkpt lat="44.7422533" lon="9.57261"><ele>871.0</ele><time>2026-05-01T10:51:24.869Z</time></trkpt><trkpt lat="44.7422233" lon="9.5725233"><ele>873.5999999999999</ele><time>2026-05-01T10:51:25.868Z</time></trkpt><trkpt lat="44.7421983" lon="9.5724217"><ele>876.1999999999999</ele><time>2026-05-01T10:51:26.868Z</time></trkpt><trkpt lat="44.7421733" lon="9.57232"><ele>878.8000000000001</ele><time>2026-05-01T10:51:27.869Z</time></trkpt><trkpt lat="44.7421433" lon="9.5722333"><ele>881.4000000000001</ele><time>2026-05-01T10:51:28.869Z</time></trkpt><trkpt lat="44.742095" lon="9.5720733"><ele>884.0</ele><time>2026-05-01T10:51:30.868Z</time></trkpt><trkpt lat="44.7420433" lon="9.5719317"><ele>884.7142857142858</ele><time>2026-05-01T10:51:32.869Z</time></trkpt><trkpt lat="44.742" lon="9.5718617"><ele>885.4285714285714</ele><time>2026-05-01T10:51:33.868Z</time></trkpt><trkpt lat="44.7419567" lon="9.5717967"><ele>886.1428571428571</ele><time>2026-05-01T10:51:34.868Z</time></trkpt><trkpt lat="44.7419167" lon="9.57172"><ele>886.8571428571429</ele><time>2026-05-01T10:51:35.868Z</time></trkpt><trkpt lat="44.7418733" lon="9.5716317"><ele>887.5714285714286</ele><time>2026-05-01T10:51:36.868Z</time></trkpt><trkpt lat="44.7418317" lon="9.5715383"><ele>888.2857142857143</ele><time>2026-05-01T10:51:37.868Z</time></trkpt><trkpt lat="44.7417933" lon="9.5714583"><ele>889.0</ele><time>2026-05-01T10:51:38.868Z</time></trkpt><trkpt lat="44.7417267" lon="9.5713283"><ele>890.9999999999999</ele><time>2026-05-01T10:51:40.869Z</time></trkpt><trkpt lat="44.741695" lon="9.57125"><ele>893.0</ele><time>2026-05-01T10:51:41.868Z</time></trkpt><trkpt lat="44.7416533" lon="9.5711783"><ele>895.0</ele><time>2026-05-01T10:51:42.868Z</time></trkpt><trkpt lat="44.7416067" lon="9.5711"><ele>897.0</ele><time>2026-05-01T10:51:43.868Z</time></trkpt><trkpt lat="44.74155" lon="9.5710033"><ele>898.9999999999999</ele><time>2026-05-01T10:51:44.868Z</time></trkpt><trkpt lat="44.7414917" lon="9.5709083"><ele>901.0</ele><time>2026-05-01T10:51:45.868Z</time></trkpt><trkpt lat="44.7414233" lon="9.5708083"><ele>901.1999999999999</ele><time>2026-05-01T10:51:46.868Z</time></trkpt><trkpt lat="44.741355" lon="9.57071"><ele>901.3999999999999</ele><time>2026-05-01T10:51:47.868Z</time></trkpt><trkpt lat="44.741285" lon="9.5706067"><ele>901.6</ele><time>2026-05-01T10:51:48.868Z</time></trkpt><trkpt lat="44.7412283" lon="9.5705033"><ele>901.8</ele><time>2026-05-01T10:51:49.868Z</time></trkpt><trkpt lat="44.7411833" lon="9.5703883"><ele>902.0</ele><time>2026-05-01T10:51:50.868Z</time></trkpt><trkpt lat="44.7411483" lon="9.5702717"><ele>903.6666666666667</ele><time>2026-05-01T10:51:51.868Z</time></trkpt><trkpt lat="44.74112" lon="9.570165"><ele>905.3333333333334</ele><time>2026-05-01T10:51:52.868Z</time></trkpt><trkpt lat="44.7411083" lon="9.5700717"><ele>907.0</ele><time>2026-05-01T10:51:53.868Z</time></trkpt><trkpt lat="44.7411017" lon="9.56998"><ele>908.6666666666667</ele><time>2026-05-01T10:51:54.868Z</time></trkpt><trkpt lat="44.7411083" lon="9.5698383"><ele>910.3333333333334</ele><time>2026-05-01T10:51:56.868Z</time></trkpt><trkpt lat="44.741125" lon="9.5697417"><ele>912.0</ele><time>2026-05-01T10:51:58.869Z</time></trkpt><trkpt lat="44.7411667" lon="9.56966"><ele>912.0</ele><time>2026-05-01T10:52:00.868Z</time></trkpt><trkpt lat="44.7412833" lon="9.5695783"><ele>912.0</ele><time>2026-05-01T10:52:02.868Z</time></trkpt><trkpt lat="44.7413583" lon="9.569535"><ele>912.0</ele><time>2026-05-01T10:52:03.868Z</time></trkpt><trkpt lat="44.74142" lon="9.5695"><ele>912.0</ele><time>2026-05-01T10:52:04.868Z</time></trkpt><trkpt lat="44.7414783" lon="9.5694417"><ele>912.0</ele><time>2026-05-01T10:52:05.868Z</time></trkpt><trkpt lat="44.7415617" lon="9.569315"><ele>915.2</ele><time>2026-05-01T10:52:07.868Z</time></trkpt><trkpt lat="44.74159" lon="9.569205"><ele>918.4000000000001</ele><time>2026-05-01T10:52:08.868Z</time></trkpt><trkpt lat="44.7415617" lon="9.569035"><ele>921.5999999999999</ele><time>2026-05-01T10:52:10.868Z</time></trkpt><trkpt lat="44.74154" lon="9.568945"><ele>924.8</ele><time>2026-05-01T10:52:11.869Z</time></trkpt><trkpt lat="44.7414367" lon="9.56877"><ele>928.0</ele><time>2026-05-01T10:52:13.868Z</time></trkpt><trkpt lat="44.7413667" lon="9.5687017"><ele>927.9999999999999</ele><time>2026-05-01T10:52:14.868Z</time></trkpt><trkpt lat="44.7413067" lon="9.56864"><ele>928.0</ele><time>2026-05-01T10:52:15.868Z</time></trkpt><trkpt lat="44.7412333" lon="9.56857"><ele>928.0</ele><time>2026-05-01T10:52:16.868Z</time></trkpt><trkpt lat="44.7411633" lon="9.5685067"><ele>928.0</ele><time>2026-05-01T10:52:17.868Z</time></trkpt><trkpt lat="44.741095" lon="9.5684517"><ele>927.9999999999999</ele><time>2026-05-01T10:52:18.868Z</time></trkpt><trkpt lat="44.74104" lon="9.5684067"><ele>928.0</ele><time>2026-05-01T10:52:19.868Z</time></trkpt><trkpt lat="44.74098" lon="9.5683717"><ele>930.5999999999999</ele><time>2026-05-01T10:52:21.868Z</time></trkpt><trkpt lat="44.74091" lon="9.568355"><ele>933.1999999999999</ele><time>2026-05-01T10:52:24.868Z</time></trkpt><trkpt lat="44.7407667" lon="9.5683417"><ele>935.8</ele><time>2026-05-01T10:52:55.868Z</time></trkpt><trkpt lat="44.7406833" lon="9.568325"><ele>938.4</ele><time>2026-05-01T10:52:57.868Z</time></trkpt><trkpt lat="44.7406183" lon="9.5683033"><ele>941.0</ele><time>2026-05-01T10:52:59.868Z</time></trkpt><trkpt lat="44.740535" lon="9.5682833"><ele>940.9999999999999</ele><time>2026-05-01T10:53:02.868Z</time></trkpt><trkpt lat="44.7404667" lon="9.56826"><ele>941.0</ele><time>2026-05-01T10:53:04.868Z</time></trkpt><trkpt lat="44.7403917" lon="9.5682433"><ele>940.9999999999999</ele><time>2026-05-01T10:53:06.868Z</time></trkpt><trkpt lat="44.740325" lon="9.5682433"><ele>940.9999999999999</ele><time>2026-05-01T10:53:07.868Z</time></trkpt><trkpt lat="44.740245" lon="9.5682283"><ele>941.0</ele><time>2026-05-01T10:53:08.868Z</time></trkpt><trkpt lat="44.74018" lon="9.5682033"><ele>940.9999999999999</ele><time>2026-05-01T10:53:09.868Z</time></trkpt><trkpt lat="44.740105" lon="9.5681817"><ele>940.9999999999999</ele><time>2026-05-01T10:53:10.868Z</time></trkpt><trkpt lat="44.7400217" lon="9.5681667"><ele>943.1666666666667</ele><time>2026-05-01T10:53:11.868Z</time></trkpt><trkpt lat="44.73993" lon="9.5681567"><ele>945.3333333333334</ele><time>2026-05-01T10:53:12.868Z</time></trkpt><trkpt lat="44.739845" lon="9.5681567"><ele>947.5</ele><time>2026-05-01T10:53:13.868Z</time></trkpt><trkpt lat="44.7397733" lon="9.5681483"><ele>949.6666666666667</ele><time>2026-05-01T10:53:14.868Z</time></trkpt><trkpt lat="44.7397067" lon="9.5681467"><ele>951.8333333333334</ele><time>2026-05-01T10:53:15.868Z</time></trkpt><trkpt lat="44.7395767" lon="9.568135"><ele>954.0</ele><time>2026-05-01T10:53:16.868Z</time></trkpt><trkpt lat="44.7394567" lon="9.568115"><ele>955.2</ele><time>2026-05-01T10:53:17.868Z</time></trkpt><trkpt lat="44.7393817" lon="9.5680833"><ele>956.4000000000001</ele><time>2026-05-01T10:53:18.868Z</time></trkpt><trkpt lat="44.7393167" lon="9.5680567"><ele>957.6</ele><time>2026-05-01T10:53:20.868Z</time></trkpt><trkpt lat="44.7391967" lon="9.5680467"><ele>958.8</ele><time>2026-05-01T10:53:21.868Z</time></trkpt><trkpt lat="44.739085" lon="9.5680117"><ele>960.0</ele><time>2026-05-01T10:53:23.868Z</time></trkpt><trkpt lat="44.7390117" lon="9.5679867"><ele>960.0</ele><time>2026-05-01T10:53:24.868Z</time></trkpt><trkpt lat="44.7389367" lon="9.567965"><ele>960.0</ele><time>2026-05-01T10:53:25.868Z</time></trkpt><trkpt lat="44.7388717" lon="9.5679433"><ele>960.0</ele><time>2026-05-01T10:53:26.868Z</time></trkpt><trkpt lat="44.7387483" lon="9.5679067"><ele>960.0</ele><time>2026-05-01T10:53:28.868Z</time></trkpt><trkpt lat="44.7386667" lon="9.5678733"><ele>960.0</ele><time>2026-05-01T10:53:29.868Z</time></trkpt><trkpt lat="44.7385683" lon="9.5678283"><ele>963.5</ele><time>2026-05-01T10:53:30.868Z</time></trkpt><trkpt lat="44.7384817" lon="9.5677717"><ele>967.0</ele><time>2026-05-01T10:53:31.868Z</time></trkpt><trkpt lat="44.7383617" lon="9.5676683"><ele>970.5</ele><time>2026-05-01T10:53:32.868Z</time></trkpt><trkpt lat="44.7382667" lon="9.56755"><ele>974.0</ele><time>2026-05-01T10:53:33.868Z</time></trkpt><trkpt lat="44.73817" lon="9.56743"><ele>974.0</ele><time>2026-05-01T10:53:34.868Z</time></trkpt><trkpt lat="44.7380617" lon="9.5673"><ele>974.0</ele><time>2026-05-01T10:53:35.868Z</time></trkpt><trkpt lat="44.7379533" lon="9.56719"><ele>974.0</ele><time>2026-05-01T10:53:36.868Z</time></trkpt><trkpt lat="44.737855" lon="9.5670883"><ele>974.0</ele><time>2026-05-01T10:53:37.869Z</time></trkpt><trkpt lat="44.73773" lon="9.5669867"><ele>977.5</ele><time>2026-05-01T10:53:38.868Z</time></trkpt><trkpt lat="44.73762" lon="9.566895"><ele>981.0</ele><time>2026-05-01T10:53:39.868Z</time></trkpt><trkpt lat="44.7375133" lon="9.5667933"><ele>984.5</ele><time>2026-05-01T10:53:40.868Z</time></trkpt><trkpt lat="44.73739" lon="9.5666617"><ele>988.0</ele><time>2026-05-01T10:53:41.868Z</time></trkpt><trkpt lat="44.737275" lon="9.56655"><ele>988.0</ele><time>2026-05-01T10:53:42.868Z</time></trkpt><trkpt lat="44.737175" lon="9.566455"><ele>988.0</ele><time>2026-05-01T10:53:43.868Z</time></trkpt><trkpt lat="44.737085" lon="9.5663717"><ele>988.0</ele><time>2026-05-01T10:53:44.868Z</time></trkpt><trkpt lat="44.7370083" lon="9.5662817"><ele>988.0</ele><time>2026-05-01T10:53:45.868Z</time></trkpt><trkpt lat="44.7369417" lon="9.5661717"><ele>988.0</ele><time>2026-05-01T10:53:46.868Z</time></trkpt><trkpt lat="44.7368683" lon="9.56607"><ele>988.2</ele><time>2026-05-01T10:53:47.868Z</time></trkpt><trkpt lat="44.7367833" lon="9.5659567"><ele>988.4</ele><time>2026-05-01T10:53:48.868Z</time></trkpt><trkpt lat="44.7367067" lon="9.5658483"><ele>988.6000000000001</ele><time>2026-05-01T10:53:49.868Z</time></trkpt><trkpt lat="44.7366317" lon="9.56576"><ele>988.8000000000001</ele><time>2026-05-01T10:53:50.868Z</time></trkpt><trkpt lat="44.7365583" lon="9.5656817"><ele>989.0</ele><time>2026-05-01T10:53:51.868Z</time></trkpt><trkpt lat="44.7364833" lon="9.5656433"><ele>989.0000000000001</ele><time>2026-05-01T10:53:52.868Z</time></trkpt><trkpt lat="44.7364" lon="9.5655833"><ele>989.0</ele><time>2026-05-01T10:53:53.868Z</time></trkpt><trkpt lat="44.736325" lon="9.5655367"><ele>989.0</ele><time>2026-05-01T10:53:54.869Z</time></trkpt><trkpt lat="44.736265" lon="9.5655017"><ele>989.0</ele><time>2026-05-01T10:53:55.868Z</time></trkpt><trkpt lat="44.736175" lon="9.565445"><ele>989.0000000000001</ele><time>2026-05-01T10:53:57.868Z</time></trkpt><trkpt lat="44.736105" lon="9.565355"><ele>989.0</ele><time>2026-05-01T10:53:59.868Z</time></trkpt><trkpt lat="44.73606" lon="9.565215"><ele>990.2</ele><time>2026-05-01T10:54:01.868Z</time></trkpt><trkpt lat="44.7360433" lon="9.565115"><ele>991.4000000000001</ele><time>2026-05-01T10:54:02.868Z</time></trkpt><trkpt lat="44.7360317" lon="9.5650017"><ele>992.6</ele><time>2026-05-01T10:54:03.868Z</time></trkpt><trkpt lat="44.7360233" lon="9.5648617"><ele>993.8</ele><time>2026-05-01T10:54:04.868Z</time></trkpt><trkpt lat="44.7360083" lon="9.5647183"><ele>995.0</ele><time>2026-05-01T10:54:05.868Z</time></trkpt><trkpt lat="44.73599" lon="9.564575"><ele>996.8333333333334</ele><time>2026-05-01T10:54:06.868Z</time></trkpt><trkpt lat="44.735975" lon="9.5644467"><ele>998.6666666666667</ele><time>2026-05-01T10:54:07.868Z</time></trkpt><trkpt lat="44.735965" lon="9.5643367"><ele>1000.5</ele><time>2026-05-01T10:54:08.868Z</time></trkpt><trkpt lat="44.7359417" lon="9.5642467"><ele>1002.3333333333333</ele><time>2026-05-01T10:54:09.869Z</time></trkpt><trkpt lat="44.73589" lon="9.56415"><ele>1004.1666666666666</ele><time>2026-05-01T10:54:10.868Z</time></trkpt><trkpt lat="44.7358133" lon="9.564055"><ele>1006.0</ele><time>2026-05-01T10:54:11.868Z</time></trkpt><trkpt lat="44.73572" lon="9.563945"><ele>1006.0</ele><time>2026-05-01T10:54:12.868Z</time></trkpt><trkpt lat="44.7356483" lon="9.5638267"><ele>1006.0</ele><time>2026-05-01T10:54:13.868Z</time></trkpt><trkpt lat="44.73559" lon="9.5636933"><ele>1006.0</ele><time>2026-05-01T10:54:14.868Z</time></trkpt><trkpt lat="44.7355433" lon="9.5635467"><ele>1006.0</ele><time>2026-05-01T10:54:15.869Z</time></trkpt><trkpt lat="44.7355067" lon="9.5633883"><ele>1009.0</ele><time>2026-05-01T10:54:16.868Z</time></trkpt><trkpt lat="44.735475" lon="9.563235"><ele>1011.9999999999999</ele><time>2026-05-01T10:54:17.868Z</time></trkpt><trkpt lat="44.7354417" lon="9.5630883"><ele>1014.9999999999999</ele><time>2026-05-01T10:54:18.868Z</time></trkpt><trkpt lat="44.7353917" lon="9.562955"><ele>1018.0</ele><time>2026-05-01T10:54:19.868Z</time></trkpt><trkpt lat="44.7353417" lon="9.56282"><ele>1021.0</ele><time>2026-05-01T10:54:20.869Z</time></trkpt><trkpt lat="44.7352917" lon="9.562685"><ele>1021.4999999999999</ele><time>2026-05-01T10:54:21.868Z</time></trkpt><trkpt lat="44.735245" lon="9.56257"><ele>1022.0</ele><time>2026-05-01T10:54:22.868Z</time></trkpt><trkpt lat="44.7352233" lon="9.5624717"><ele>1022.5</ele><time>2026-05-01T10:54:23.868Z</time></trkpt><trkpt lat="44.7352183" lon="9.562365"><ele>1023.0</ele><time>2026-05-01T10:54:24.869Z</time></trkpt><trkpt lat="44.7352317" lon="9.56224"><ele>1023.4999999999999</ele><time>2026-05-01T10:54:25.868Z</time></trkpt><trkpt lat="44.735245" lon="9.5620933"><ele>1024.0</ele><time>2026-05-01T10:54:26.869Z</time></trkpt><trkpt lat="44.7352517" lon="9.5619483"><ele>1023.9999999999999</ele><time>2026-05-01T10:54:27.868Z</time></trkpt><trkpt lat="44.7352533" lon="9.5618017"><ele>1024.0</ele><time>2026-05-01T10:54:28.868Z</time></trkpt><trkpt lat="44.7352583" lon="9.56168"><ele>1024.0</ele><time>2026-05-01T10:54:29.868Z</time></trkpt><trkpt lat="44.7352617" lon="9.5615817"><ele>1024.0</ele><time>2026-05-01T10:54:30.868Z</time></trkpt><trkpt lat="44.7352467" lon="9.56149"><ele>1023.9999999999999</ele><time>2026-05-01T10:54:31.868Z</time></trkpt><trkpt lat="44.7352117" lon="9.5613967"><ele>1024.0</ele><time>2026-05-01T10:54:32.868Z</time></trkpt><trkpt lat="44.73516" lon="9.561285"><ele>1020.5</ele><time>2026-05-01T10:54:33.868Z</time></trkpt><trkpt lat="44.7350617" lon="9.561175"><ele>1017.0</ele><time>2026-05-01T10:54:34.868Z</time></trkpt><trkpt lat="44.734955" lon="9.561075"><ele>1013.5</ele><time>2026-05-01T10:54:35.868Z</time></trkpt><trkpt lat="44.7348633" lon="9.5609917"><ele>1010.0</ele><time>2026-05-01T10:54:36.868Z</time></trkpt><trkpt lat="44.734785" lon="9.5609217"><ele>1010.0</ele><time>2026-05-01T10:54:37.868Z</time></trkpt><trkpt lat="44.7347133" lon="9.56086"><ele>1010.0</ele><time>2026-05-01T10:54:38.868Z</time></trkpt><trkpt lat="44.734645" lon="9.5608083"><ele>1010.0</ele><time>2026-05-01T10:54:39.868Z</time></trkpt><trkpt lat="44.73453" lon="9.5607567"><ele>1010.0</ele><time>2026-05-01T10:54:54.868Z</time></trkpt><trkpt lat="44.73451" lon="9.5606317"><ele>1010.0</ele><time>2026-05-01T10:54:56.869Z</time></trkpt><trkpt lat="44.7345233" lon="9.5604717"><ele>1009.6</ele><time>2026-05-01T10:54:58.868Z</time></trkpt><trkpt lat="44.7345067" lon="9.5603533"><ele>1009.2</ele><time>2026-05-01T10:54:59.868Z</time></trkpt><trkpt lat="44.7344717" lon="9.5602333"><ele>1008.8</ele><time>2026-05-01T10:55:00.868Z</time></trkpt><trkpt lat="44.73442" lon="9.5601"><ele>1008.4</ele><time>2026-05-01T10:55:01.868Z</time></trkpt><trkpt lat="44.7343567" lon="9.5599717"><ele>1008.0</ele><time>2026-05-01T10:55:02.868Z</time></trkpt><trkpt lat="44.7342983" lon="9.5598467"><ele>1008.0</ele><time>2026-05-01T10:55:03.868Z</time></trkpt><trkpt lat="44.7342183" lon="9.55975"><ele>1008.0</ele><time>2026-05-01T10:55:04.868Z</time></trkpt><trkpt lat="44.7341117" lon="9.5596433"><ele>1008.0</ele><time>2026-05-01T10:55:05.868Z</time></trkpt><trkpt lat="44.7340017" lon="9.5595433"><ele>1008.0</ele><time>2026-05-01T10:55:06.868Z</time></trkpt><trkpt lat="44.733905" lon="9.559465"><ele>1009.5</ele><time>2026-05-01T10:55:07.868Z</time></trkpt><trkpt lat="44.7338783" lon="9.5593683"><ele>1011.0</ele><time>2026-05-01T10:55:09.868Z</time></trkpt><trkpt lat="44.7339517" lon="9.5593133"><ele>1012.5</ele><time>2026-05-01T10:55:12.868Z</time></trkpt><trkpt lat="44.734065" lon="9.5592933"><ele>1014.0</ele><time>2026-05-01T10:55:14.868Z</time></trkpt><trkpt lat="44.7341283" lon="9.5593"><ele>1015.5</ele><time>2026-05-01T10:55:15.868Z</time></trkpt><trkpt lat="44.734235" lon="9.5593283"><ele>1017.0</ele><time>2026-05-01T10:55:17.868Z</time></trkpt><trkpt lat="44.7343283" lon="9.559355"><ele>1021.2</ele><time>2026-05-01T10:55:19.868Z</time></trkpt><trkpt lat="44.7344367" lon="9.5593683"><ele>1025.4</ele><time>2026-05-01T10:55:21.868Z</time></trkpt><trkpt lat="44.7345567" lon="9.559355"><ele>1029.6</ele><time>2026-05-01T10:55:23.868Z</time></trkpt><trkpt lat="44.7346717" lon="9.5593617"><ele>1033.8</ele><time>2026-05-01T10:55:25.868Z</time></trkpt><trkpt lat="44.73475" lon="9.559425"><ele>1038.0</ele><time>2026-05-01T10:55:27.868Z</time></trkpt><trkpt lat="44.73482" lon="9.5594667"><ele>1038.0</ele><time>2026-05-01T10:55:30.868Z</time></trkpt><trkpt lat="44.7348983" lon="9.5594867"><ele>1038.0</ele><time>2026-05-01T10:55:34.868Z</time></trkpt><trkpt lat="44.7349767" lon="9.5595033"><ele>1038.0</ele><time>2026-05-01T10:55:37.868Z</time></trkpt><trkpt lat="44.7350483" lon="9.559495"><ele>1038.0</ele><time>2026-05-01T10:55:39.868Z</time></trkpt><trkpt lat="44.7351333" lon="9.5594867"><ele>1038.0</ele><time>2026-05-01T10:55:41.868Z</time></trkpt><trkpt lat="44.7352133" lon="9.5594983"><ele>1038.0</ele><time>2026-05-01T10:55:43.868Z</time></trkpt><trkpt lat="44.7353083" lon="9.5594967"><ele>1042.4</ele><time>2026-05-01T10:55:45.868Z</time></trkpt><trkpt lat="44.7354" lon="9.5595167"><ele>1046.8</ele><time>2026-05-01T10:55:47.868Z</time></trkpt><trkpt lat="44.735465" lon="9.5595117"><ele>1051.2</ele><time>2026-05-01T10:55:49.868Z</time></trkpt><trkpt lat="44.735565" lon="9.5595033"><ele>1055.6</ele><time>2026-05-01T10:55:51.868Z</time></trkpt><trkpt lat="44.73563" lon="9.5594933"><ele>1060.0</ele><time>2026-05-01T10:55:52.868Z</time></trkpt><trkpt lat="44.735755" lon="9.5594683"><ele>1060.0</ele><time>2026-05-01T10:55:54.868Z</time></trkpt><trkpt lat="44.7358467" lon="9.559445"><ele>1060.0</ele><time>2026-05-01T10:55:56.868Z</time></trkpt><trkpt lat="44.7359133" lon="9.5594183"><ele>1060.0</ele><time>2026-05-01T10:55:58.869Z</time></trkpt><trkpt lat="44.7359883" lon="9.5594033"><ele>1060.0</ele><time>2026-05-01T10:56:00.868Z</time></trkpt><trkpt lat="44.7360583" lon="9.5593967"><ele>1060.0</ele><time>2026-05-01T10:56:02.868Z</time></trkpt><trkpt lat="44.7361267" lon="9.55939"><ele>1060.0</ele><time>2026-05-01T10:56:04.868Z</time></trkpt><trkpt lat="44.7362733" lon="9.5593467"><ele>1062.2</ele><time>2026-05-01T10:56:10.868Z</time></trkpt><trkpt lat="44.7363367" lon="9.5594233"><ele>1064.4</ele><time>2026-05-01T10:56:13.868Z</time></trkpt><trkpt lat="44.7363917" lon="9.5595"><ele>1066.6</ele><time>2026-05-01T10:56:15.868Z</time></trkpt><trkpt lat="44.7364667" lon="9.5595883"><ele>1068.8</ele><time>2026-05-01T10:56:17.868Z</time></trkpt><trkpt lat="44.7365383" lon="9.559685"><ele>1071.0</ele><time>2026-05-01T10:56:19.868Z</time></trkpt><trkpt lat="44.736645" lon="9.5598067"><ele>1071.0</ele><time>2026-05-01T10:56:20.868Z</time></trkpt><trkpt lat="44.7367067" lon="9.559855"><ele>1071.0</ele><time>2026-05-01T10:56:21.868Z</time></trkpt><trkpt lat="44.7367817" lon="9.55991"><ele>1071.0</ele><time>2026-05-01T10:56:22.868Z</time></trkpt><trkpt lat="44.7368583" lon="9.5599533"><ele>1071.0</ele><time>2026-05-01T10:56:23.868Z</time></trkpt><trkpt lat="44.73697" lon="9.5600483"><ele>1071.0</ele><time>2026-05-01T10:56:24.868Z</time></trkpt><trkpt lat="44.7370333" lon="9.5600917"><ele>1071.0</ele><time>2026-05-01T10:56:25.868Z</time></trkpt><trkpt lat="44.73711" lon="9.5601367"><ele>1073.5</ele><time>2026-05-01T10:56:26.868Z</time></trkpt><trkpt lat="44.737185" lon="9.5601683"><ele>1076.0</ele><time>2026-05-01T10:56:27.868Z</time></trkpt><trkpt lat="44.7372767" lon="9.5602067"><ele>1078.5</ele><time>2026-05-01T10:56:28.868Z</time></trkpt><trkpt lat="44.7373583" lon="9.5602383"><ele>1081.0</ele><time>2026-05-01T10:56:29.868Z</time></trkpt><trkpt lat="44.7374267" lon="9.560265"><ele>1083.5</ele><time>2026-05-01T10:56:30.868Z</time></trkpt><trkpt lat="44.7374933" lon="9.5602683"><ele>1086.0</ele><time>2026-05-01T10:56:31.869Z</time></trkpt><trkpt lat="44.7375733" lon="9.5602667"><ele>1086.0</ele><time>2026-05-01T10:56:32.868Z</time></trkpt><trkpt lat="44.7376533" lon="9.5602033"><ele>1086.0</ele><time>2026-05-01T10:56:34.868Z</time></trkpt><trkpt lat="44.7376517" lon="9.56009"><ele>1086.0</ele><time>2026-05-01T10:56:36.868Z</time></trkpt><trkpt lat="44.7376333" lon="9.5599867"><ele>1086.0</ele><time>2026-05-01T10:56:37.868Z</time></trkpt><trkpt lat="44.7376683" lon="9.5597933"><ele>1086.0</ele><time>2026-05-01T10:56:39.868Z</time></trkpt><trkpt lat="44.7376933" lon="9.5596733"><ele>1086.0</ele><time>2026-05-01T10:56:40.868Z</time></trkpt><trkpt lat="44.7377183" lon="9.559555"><ele>1086.0</ele><time>2026-05-01T10:56:41.868Z</time></trkpt><trkpt lat="44.7377367" lon="9.5594517"><ele>1086.0</ele><time>2026-05-01T10:56:42.868Z</time></trkpt><trkpt lat="44.7377517" lon="9.55932"><ele>1086.0</ele><time>2026-05-01T10:56:43.868Z</time></trkpt><trkpt lat="44.7377583" lon="9.5592083"><ele>1086.0</ele><time>2026-05-01T10:56:44.868Z</time></trkpt><trkpt lat="44.7377633" lon="9.5590883"><ele>1086.0</ele><time>2026-05-01T10:56:45.868Z</time></trkpt><trkpt lat="44.7377817" lon="9.5588783"><ele>1084.6666666666667</ele><time>2026-05-01T10:56:47.868Z</time></trkpt><trkpt lat="44.7377917" lon="9.5587633"><ele>1083.3333333333333</ele><time>2026-05-01T10:56:48.868Z</time></trkpt><trkpt lat="44.7378033" lon="9.5586533"><ele>1082.0</ele><time>2026-05-01T10:56:49.868Z</time></trkpt><trkpt lat="44.7378133" lon="9.55854"><ele>1080.6666666666665</ele><time>2026-05-01T10:56:50.868Z</time></trkpt><trkpt lat="44.7378367" lon="9.558405"><ele>1079.3333333333333</ele><time>2026-05-01T10:56:51.868Z</time></trkpt><trkpt lat="44.737865" lon="9.5582717"><ele>1078.0</ele><time>2026-05-01T10:56:52.868Z</time></trkpt><trkpt lat="44.7378933" lon="9.5581483"><ele>1078.0</ele><time>2026-05-01T10:56:53.868Z</time></trkpt><trkpt lat="44.7379167" lon="9.5580417"><ele>1078.0</ele><time>2026-05-01T10:56:54.868Z</time></trkpt><trkpt lat="44.7379433" lon="9.5579417"><ele>1078.0</ele><time>2026-05-01T10:56:55.868Z</time></trkpt><trkpt lat="44.737965" lon="9.5578317"><ele>1078.0</ele><time>2026-05-01T10:56:56.869Z</time></trkpt><trkpt lat="44.7379833" lon="9.557725"><ele>1078.0</ele><time>2026-05-01T10:56:57.868Z</time></trkpt><trkpt lat="44.7380133" lon="9.557605"><ele>1078.0</ele><time>2026-05-01T10:56:59.868Z</time></trkpt><trkpt lat="44.7380583" lon="9.5574917"><ele>1079.2</ele><time>2026-05-01T10:57:01.868Z</time></trkpt><trkpt lat="44.7381033" lon="9.5573983"><ele>1080.4</ele><time>2026-05-01T10:57:04.868Z</time></trkpt><trkpt lat="44.73815" lon="9.5573017"><ele>1081.6000000000001</ele><time>2026-05-01T10:57:08.868Z</time></trkpt><trkpt lat="44.7381683" lon="9.5571683"><ele>1082.8</ele><time>2026-05-01T10:57:11.868Z</time></trkpt><trkpt lat="44.7381633" lon="9.5570117"><ele>1084.0</ele><time>2026-05-01T10:57:13.868Z</time></trkpt><trkpt lat="44.7381717" lon="9.556865"><ele>1084.6000000000001</ele><time>2026-05-01T10:57:15.868Z</time></trkpt><trkpt lat="44.7382017" lon="9.556705"><ele>1085.2</ele><time>2026-05-01T10:57:17.868Z</time></trkpt><trkpt lat="44.7382167" lon="9.556565"><ele>1085.8000000000002</ele><time>2026-05-01T10:57:19.868Z</time></trkpt><trkpt lat="44.738225" lon="9.5564467"><ele>1086.4</ele><time>2026-05-01T10:57:21.868Z</time></trkpt><trkpt lat="44.7382533" lon="9.5563283"><ele>1087.0</ele><time>2026-05-01T10:57:23.868Z</time></trkpt><trkpt lat="44.7382683" lon="9.55624"><ele>1087.1666666666665</ele><time>2026-05-01T10:57:24.868Z</time></trkpt><trkpt lat="44.7382983" lon="9.5560883"><ele>1087.3333333333333</ele><time>2026-05-01T10:57:26.868Z</time></trkpt><trkpt lat="44.7383417" lon="9.5559617"><ele>1087.5</ele><time>2026-05-01T10:57:28.868Z</time></trkpt><trkpt lat="44.73836" lon="9.5558683"><ele>1087.6666666666667</ele><time>2026-05-01T10:57:30.868Z</time></trkpt><trkpt lat="44.7383683" lon="9.5557517"><ele>1087.8333333333335</ele><time>2026-05-01T10:57:32.868Z</time></trkpt><trkpt lat="44.7383767" lon="9.5556433"><ele>1088.0</ele><time>2026-05-01T10:57:34.868Z</time></trkpt><trkpt lat="44.7383917" lon="9.5555033"><ele>1087.3333333333335</ele><time>2026-05-01T10:57:36.868Z</time></trkpt><trkpt lat="44.7384067" lon="9.5553517"><ele>1086.6666666666667</ele><time>2026-05-01T10:57:38.869Z</time></trkpt><trkpt lat="44.73842" lon="9.5551917"><ele>1086.0</ele><time>2026-05-01T10:57:40.868Z</time></trkpt><trkpt lat="44.7384283" lon="9.5550983"><ele>1085.3333333333333</ele><time>2026-05-01T10:57:41.868Z</time></trkpt><trkpt lat="44.7384333" lon="9.5549933"><ele>1084.6666666666665</ele><time>2026-05-01T10:57:42.868Z</time></trkpt><trkpt lat="44.7384333" lon="9.5548967"><ele>1084.0</ele><time>2026-05-01T10:57:43.868Z</time></trkpt><trkpt lat="44.7384417" lon="9.55473"><ele>1084.0</ele><time>2026-05-01T10:57:45.868Z</time></trkpt><trkpt lat="44.738435" lon="9.5546033"><ele>1084.0</ele><time>2026-05-01T10:57:47.868Z</time></trkpt><trkpt lat="44.73842" lon="9.55449"><ele>1084.0</ele><time>2026-05-01T10:57:49.868Z</time></trkpt><trkpt lat="44.7383767" lon="9.55437"><ele>1084.0</ele><time>2026-05-01T10:57:51.868Z</time></trkpt><trkpt lat="44.73831" lon="9.5542583"><ele>1084.0</ele><time>2026-05-01T10:57:53.868Z</time></trkpt><trkpt lat="44.7382633" lon="9.5541617"><ele>1082.6666666666665</ele><time>2026-05-01T10:57:55.868Z</time></trkpt><trkpt lat="44.7382317" lon="9.5540633"><ele>1081.3333333333333</ele><time>2026-05-01T10:57:57.868Z</time></trkpt><trkpt lat="44.7382183" lon="9.5539617"><ele>1080.0</ele><time>2026-05-01T10:57:59.868Z</time></trkpt><trkpt lat="44.7382167" lon="9.55387"><ele>1078.6666666666667</ele><time>2026-05-01T10:58:01.868Z</time></trkpt><trkpt lat="44.7381983" lon="9.5537717"><ele>1077.3333333333335</ele><time>2026-05-01T10:58:03.868Z</time></trkpt><trkpt lat="44.738155" lon="9.5536083"><ele>1076.0</ele><time>2026-05-01T10:58:05.868Z</time></trkpt><trkpt lat="44.73813" lon="9.5535167"><ele>1074.1666666666667</ele><time>2026-05-01T10:58:06.868Z</time></trkpt><trkpt lat="44.738085" lon="9.55337"><ele>1072.3333333333335</ele><time>2026-05-01T10:58:08.868Z</time></trkpt><trkpt lat="44.7380617" lon="9.55326"><ele>1070.5</ele><time>2026-05-01T10:58:10.868Z</time></trkpt><trkpt lat="44.7380417" lon="9.5531483"><ele>1068.6666666666667</ele><time>2026-05-01T10:58:12.868Z</time></trkpt><trkpt lat="44.7380283" lon="9.55304"><ele>1066.8333333333333</ele><time>2026-05-01T10:58:15.868Z</time></trkpt><trkpt lat="44.73802" lon="9.5529517"><ele>1065.0</ele><time>2026-05-01T10:58:17.868Z</time></trkpt><trkpt lat="44.7379567" lon="9.55277"><ele>1065.0</ele><time>2026-05-01T10:58:28.868Z</time></trkpt><trkpt lat="44.7379167" lon="9.55267"><ele>1065.0</ele><time>2026-05-01T10:58:31.868Z</time></trkpt><trkpt lat="44.7379217" lon="9.5525467"><ele>1065.0</ele><time>2026-05-01T11:00:01.868Z</time></trkpt><trkpt lat="44.7379267" lon="9.5524233"><ele>1065.0</ele><time>2026-05-01T11:00:04.868Z</time></trkpt><trkpt lat="44.7379517" lon="9.5522817"><ele>1065.0</ele><time>2026-05-01T11:00:07.868Z</time></trkpt><trkpt lat="44.737955" lon="9.552165"><ele>1065.0</ele><time>2026-05-01T11:00:09.868Z</time></trkpt><trkpt lat="44.737935" lon="9.5520167"><ele>1065.0</ele><time>2026-05-01T11:00:11.868Z</time></trkpt><trkpt lat="44.7379217" lon="9.5518667"><ele>1065.0</ele><time>2026-05-01T11:00:13.868Z</time></trkpt><trkpt lat="44.7379517" lon="9.55174"><ele>1065.0</ele><time>2026-05-01T11:00:15.868Z</time></trkpt><trkpt lat="44.737995" lon="9.5516267"><ele>1065.0</ele><time>2026-05-01T11:00:17.868Z</time></trkpt><trkpt lat="44.73805" lon="9.551515"><ele>1065.0</ele><time>2026-05-01T11:00:19.868Z</time></trkpt><trkpt lat="44.73813" lon="9.5514"><ele>1065.0</ele><time>2026-05-01T11:00:21.868Z</time></trkpt><trkpt lat="44.7381867" lon="9.5513083"><ele>1065.0</ele><time>2026-05-01T11:00:23.868Z</time></trkpt><trkpt lat="44.7382183" lon="9.5512017"><ele>1065.0</ele><time>2026-05-01T11:00:25.869Z</time></trkpt><trkpt lat="44.7382633" lon="9.5510983"><ele>1065.0</ele><time>2026-05-01T11:00:27.868Z</time></trkpt><trkpt lat="44.7383083" lon="9.5510033"><ele>1065.0</ele><time>2026-05-01T11:00:29.868Z</time></trkpt><trkpt lat="44.738345" lon="9.5509267"><ele>1065.0</ele><time>2026-05-01T11:00:31.868Z</time></trkpt><trkpt lat="44.7383667" lon="9.5508417"><ele>1066.3333333333333</ele><time>2026-05-01T11:00:33.868Z</time></trkpt><trkpt lat="44.73839" lon="9.5507483"><ele>1067.6666666666667</ele><time>2026-05-01T11:00:35.868Z</time></trkpt><trkpt lat="44.738405" lon="9.5506317"><ele>1069.0</ele><time>2026-05-01T11:00:37.868Z</time></trkpt><trkpt lat="44.73842" lon="9.550495"><ele>1070.3333333333335</ele><time>2026-05-01T11:00:39.868Z</time></trkpt><trkpt lat="44.7384283" lon="9.5503783"><ele>1071.6666666666667</ele><time>2026-05-01T11:00:41.868Z</time></trkpt><trkpt lat="44.7384117" lon="9.5502517"><ele>1073.0</ele><time>2026-05-01T11:00:43.869Z</time></trkpt><trkpt lat="44.73842" lon="9.5501017"><ele>1073.1666666666667</ele><time>2026-05-01T11:00:45.868Z</time></trkpt><trkpt lat="44.7384367" lon="9.55001"><ele>1073.3333333333335</ele><time>2026-05-01T11:00:46.868Z</time></trkpt><trkpt lat="44.73846" lon="9.549905"><ele>1073.5</ele><time>2026-05-01T11:00:47.868Z</time></trkpt><trkpt lat="44.7384683" lon="9.5498017"><ele>1073.6666666666667</ele><time>2026-05-01T11:00:48.868Z</time></trkpt><trkpt lat="44.7384867" lon="9.5496433"><ele>1073.8333333333333</ele><time>2026-05-01T11:00:50.868Z</time></trkpt><trkpt lat="44.7385133" lon="9.5495033"><ele>1074.0</ele><time>2026-05-01T11:00:52.868Z</time></trkpt><trkpt lat="44.7385417" lon="9.5493767"><ele>1075.0</ele><time>2026-05-01T11:00:54.868Z</time></trkpt><trkpt lat="44.7385483" lon="9.5492717"><ele>1076.0</ele><time>2026-05-01T11:00:56.868Z</time></trkpt><trkpt lat="44.7385533" lon="9.5491667"><ele>1077.0</ele><time>2026-05-01T11:00:59.868Z</time></trkpt><trkpt lat="44.73855" lon="9.5490317"><ele>1078.0</ele><time>2026-05-01T11:01:02.868Z</time></trkpt><trkpt lat="44.7385283" lon="9.5489217"><ele>1079.0</ele><time>2026-05-01T11:01:05.868Z</time></trkpt><trkpt lat="44.7385517" lon="9.54882"><ele>1080.0</ele><time>2026-05-01T11:01:08.868Z</time></trkpt><trkpt lat="44.7385433" lon="9.5487283"><ele>1084.1666666666667</ele><time>2026-05-01T11:01:13.868Z</time></trkpt><trkpt lat="44.7385567" lon="9.5486283"><ele>1088.3333333333333</ele><time>2026-05-01T11:01:18.868Z</time></trkpt><trkpt lat="44.7385833" lon="9.548515"><ele>1092.5</ele><time>2026-05-01T11:01:21.868Z</time></trkpt><trkpt lat="44.7386117" lon="9.548435"><ele>1096.6666666666665</ele><time>2026-05-01T11:01:23.868Z</time></trkpt><trkpt lat="44.7386533" lon="9.5483233"><ele>1100.8333333333333</ele><time>2026-05-01T11:01:25.868Z</time></trkpt><trkpt lat="44.7386883" lon="9.5482183"><ele>1105.0</ele><time>2026-05-01T11:01:27.868Z</time></trkpt><trkpt lat="44.7387233" lon="9.54814"><ele>1105.0</ele><time>2026-05-01T11:01:29.868Z</time></trkpt><trkpt lat="44.7387833" lon="9.5480433"><ele>1105.0</ele><time>2026-05-01T11:01:32.868Z</time></trkpt><trkpt lat="44.7388067" lon="9.5479583"><ele>1105.0</ele><time>2026-05-01T11:01:35.868Z</time></trkpt><trkpt lat="44.7388283" lon="9.5478583"><ele>1105.0</ele><time>2026-05-01T11:01:39.868Z</time></trkpt><trkpt lat="44.738855" lon="9.5477733"><ele>1105.0</ele><time>2026-05-01T11:01:48.868Z</time></trkpt><trkpt lat="44.7388733" lon="9.5476867"><ele>1105.0</ele><time>2026-05-01T11:01:56.868Z</time></trkpt><trkpt lat="44.7389" lon="9.5475967"><ele>1105.0</ele><time>2026-05-01T11:02:06.868Z</time></trkpt><trkpt lat="44.738915" lon="9.5474933"><ele>1107.1666666666665</ele><time>2026-05-01T11:02:10.868Z</time></trkpt><trkpt lat="44.7389517" lon="9.5474"><ele>1109.3333333333333</ele><time>2026-05-01T11:02:13.868Z</time></trkpt><trkpt lat="44.738985" lon="9.547295"><ele>1111.5</ele><time>2026-05-01T11:02:16.868Z</time></trkpt><trkpt lat="44.739025" lon="9.5472167"><ele>1113.6666666666667</ele><time>2026-05-01T11:02:19.868Z</time></trkpt><trkpt lat="44.7390833" lon="9.547145"><ele>1115.8333333333335</ele><time>2026-05-01T11:02:23.868Z</time></trkpt><trkpt lat="44.73914" lon="9.5470767"><ele>1118.0</ele><time>2026-05-01T11:02:26.869Z</time></trkpt><trkpt lat="44.739195" lon="9.547"><ele>1120.142857142857</ele><time>2026-05-01T11:02:29.868Z</time></trkpt><trkpt lat="44.73923" lon="9.5469167"><ele>1122.2857142857144</ele><time>2026-05-01T11:02:32.868Z</time></trkpt><trkpt lat="44.7392467" lon="9.5468167"><ele>1124.4285714285716</ele><time>2026-05-01T11:02:36.868Z</time></trkpt><trkpt lat="44.7392883" lon="9.5467233"><ele>1126.5714285714287</ele><time>2026-05-01T11:02:39.868Z</time></trkpt><trkpt lat="44.7392967" lon="9.5466317"><ele>1128.7142857142858</ele><time>2026-05-01T11:02:41.868Z</time></trkpt><trkpt lat="44.7393083" lon="9.546535"><ele>1130.857142857143</ele><time>2026-05-01T11:02:43.868Z</time></trkpt><trkpt lat="44.7393533" lon="9.5464683"><ele>1133.0</ele><time>2026-05-01T11:02:45.868Z</time></trkpt><trkpt lat="44.7393983" lon="9.5464033"><ele>1134.142857142857</ele><time>2026-05-01T11:02:47.869Z</time></trkpt><trkpt lat="44.7394383" lon="9.5462883"><ele>1135.2857142857142</ele><time>2026-05-01T11:02:49.868Z</time></trkpt><trkpt lat="44.739475" lon="9.54619"><ele>1136.4285714285716</ele><time>2026-05-01T11:02:51.868Z</time></trkpt><trkpt lat="44.739495" lon="9.5460983"><ele>1137.5714285714284</ele><time>2026-05-01T11:02:53.868Z</time></trkpt><trkpt lat="44.7395367" lon="9.5460117"><ele>1138.7142857142858</ele><time>2026-05-01T11:02:55.868Z</time></trkpt><trkpt lat="44.7395883" lon="9.54596"><ele>1139.857142857143</ele><time>2026-05-01T11:02:57.868Z</time></trkpt><trkpt lat="44.7396467" lon="9.545905"><ele>1141.0</ele><time>2026-05-01T11:02:59.868Z</time></trkpt><trkpt lat="44.7397167" lon="9.5458133"><ele>1145.3999999999999</ele><time>2026-05-01T11:03:01.868Z</time></trkpt><trkpt lat="44.7397733" lon="9.5456867"><ele>1149.8</ele><time>2026-05-01T11:03:03.868Z</time></trkpt><trkpt lat="44.73983" lon="9.5455833"><ele>1154.1999999999998</ele><time>2026-05-01T11:03:05.868Z</time></trkpt><trkpt lat="44.7399183" lon="9.5454783"><ele>1158.6</ele><time>2026-05-01T11:03:07.868Z</time></trkpt><trkpt lat="44.7400033" lon="9.5453783"><ele>1163.0</ele><time>2026-05-01T11:03:09.868Z</time></trkpt><trkpt lat="44.7400667" lon="9.545235"><ele>1164.0</ele><time>2026-05-01T11:03:11.868Z</time></trkpt><trkpt lat="44.7401" lon="9.5451433"><ele>1165.0</ele><time>2026-05-01T11:03:12.868Z</time></trkpt><trkpt lat="44.7401633" lon="9.5450083"><ele>1166.0</ele><time>2026-05-01T11:03:14.868Z</time></trkpt><trkpt lat="44.74024" lon="9.5448683"><ele>1167.0</ele><time>2026-05-01T11:03:16.868Z</time></trkpt><trkpt lat="44.7403033" lon="9.5447533"><ele>1168.0</ele><time>2026-05-01T11:03:18.868Z</time></trkpt><trkpt lat="44.7403367" lon="9.5446"><ele>1167.0</ele><time>2026-05-01T11:03:20.868Z</time></trkpt><trkpt lat="44.740365" lon="9.5444367"><ele>1166.0</ele><time>2026-05-01T11:03:22.868Z</time></trkpt><trkpt lat="44.7403883" lon="9.544275"><ele>1165.0</ele><time>2026-05-01T11:03:24.868Z</time></trkpt><trkpt lat="44.7404183" lon="9.5441033"><ele>1164.0</ele><time>2026-05-01T11:03:26.868Z</time></trkpt><trkpt lat="44.740435" lon="9.54401"><ele>1163.0</ele><time>2026-05-01T11:03:27.868Z</time></trkpt><trkpt lat="44.74045" lon="9.5439233"><ele>1163.0</ele><time>2026-05-01T11:03:28.868Z</time></trkpt><trkpt lat="44.7404917" lon="9.543775"><ele>1163.0</ele><time>2026-05-01T11:03:30.868Z</time></trkpt><trkpt lat="44.7405283" lon="9.5437017"><ele>1163.0</ele><time>2026-05-01T11:03:31.868Z</time></trkpt><trkpt lat="44.7406167" lon="9.543595"><ele>1163.0</ele><time>2026-05-01T11:03:33.868Z</time></trkpt><trkpt lat="44.74071" lon="9.5434917"><ele>1163.0</ele><time>2026-05-01T11:03:35.868Z</time></trkpt><trkpt lat="44.7407917" lon="9.5433833"><ele>1162.2</ele><time>2026-05-01T11:03:37.868Z</time></trkpt><trkpt lat="44.7408833" lon="9.5432883"><ele>1161.4</ele><time>2026-05-01T11:03:39.869Z</time></trkpt><trkpt lat="44.7409833" lon="9.54319"><ele>1160.6000000000001</ele><time>2026-05-01T11:03:41.868Z</time></trkpt><trkpt lat="44.7410617" lon="9.543055"><ele>1159.8</ele><time>2026-05-01T11:03:43.868Z</time></trkpt><trkpt lat="44.741095" lon="9.54297"><ele>1159.0</ele><time>2026-05-01T11:03:44.868Z</time></trkpt><trkpt lat="44.7411233" lon="9.54289"><ele>1162.0</ele><time>2026-05-01T11:03:45.868Z</time></trkpt><trkpt lat="44.7411617" lon="9.5427617"><ele>1165.0</ele><time>2026-05-01T11:03:47.868Z</time></trkpt><trkpt lat="44.7412" lon="9.5426217"><ele>1168.0</ele><time>2026-05-01T11:03:49.868Z</time></trkpt><trkpt lat="44.7412367" lon="9.54248"><ele>1171.0</ele><time>2026-05-01T11:03:51.868Z</time></trkpt><trkpt lat="44.7412533" lon="9.5423283"><ele>1174.0</ele><time>2026-05-01T11:03:53.868Z</time></trkpt><trkpt lat="44.7412417" lon="9.5421683"><ele>1176.5</ele><time>2026-05-01T11:03:55.868Z</time></trkpt><trkpt lat="44.7412517" lon="9.5420333"><ele>1179.0</ele><time>2026-05-01T11:03:57.868Z</time></trkpt><trkpt lat="44.7412917" lon="9.5418667"><ele>1181.5</ele><time>2026-05-01T11:03:59.868Z</time></trkpt><trkpt lat="44.74132" lon="9.5417733"><ele>1184.0</ele><time>2026-05-01T11:04:00.868Z</time></trkpt><trkpt lat="44.7413483" lon="9.5416817"><ele>1186.5</ele><time>2026-05-01T11:04:01.868Z</time></trkpt><trkpt lat="44.7413783" lon="9.5415933"><ele>1189.0</ele><time>2026-05-01T11:04:02.868Z</time></trkpt><trkpt lat="44.741405" lon="9.54151"><ele>1189.0</ele><time>2026-05-01T11:04:03.869Z</time></trkpt><trkpt lat="44.7414667" lon="9.54134"><ele>1189.0</ele><time>2026-05-01T11:05:22.868Z</time></trkpt><trkpt lat="44.7415467" lon="9.541235"><ele>1189.0</ele><time>2026-05-01T11:05:24.868Z</time></trkpt><trkpt lat="44.741595" lon="9.541155"><ele>1189.0</ele><time>2026-05-01T11:05:25.868Z</time></trkpt><trkpt lat="44.7416267" lon="9.5410717"><ele>1189.0</ele><time>2026-05-01T11:05:26.868Z</time></trkpt><trkpt lat="44.7416517" lon="9.5409083"><ele>1190.3333333333333</ele><time>2026-05-01T11:05:28.868Z</time></trkpt><trkpt lat="44.7416683" lon="9.5408033"><ele>1191.6666666666665</ele><time>2026-05-01T11:05:29.868Z</time></trkpt><trkpt lat="44.7416967" lon="9.5407067"><ele>1193.0</ele><time>2026-05-01T11:05:30.868Z</time></trkpt><trkpt lat="44.7417383" lon="9.5406167"><ele>1194.3333333333333</ele><time>2026-05-01T11:05:31.868Z</time></trkpt><trkpt lat="44.7417883" lon="9.5405233"><ele>1195.6666666666667</ele><time>2026-05-01T11:05:32.868Z</time></trkpt><trkpt lat="44.74184" lon="9.5404483"><ele>1197.0</ele><time>2026-05-01T11:05:33.868Z</time></trkpt><trkpt lat="44.7419" lon="9.5403967"><ele>1200.4</ele><time>2026-05-01T11:05:34.868Z</time></trkpt><trkpt lat="44.7419683" lon="9.5403383"><ele>1203.8000000000002</ele><time>2026-05-01T11:05:35.868Z</time></trkpt><trkpt lat="44.7420367" lon="9.5402717"><ele>1207.2</ele><time>2026-05-01T11:05:36.868Z</time></trkpt><trkpt lat="44.7420983" lon="9.5402033"><ele>1210.6000000000001</ele><time>2026-05-01T11:05:37.868Z</time></trkpt><trkpt lat="44.7421767" lon="9.5400917"><ele>1214.0</ele><time>2026-05-01T11:05:39.868Z</time></trkpt><trkpt lat="44.7422733" lon="9.53996"><ele>1214.0</ele><time>2026-05-01T11:05:41.868Z</time></trkpt><trkpt lat="44.74234" lon="9.539895"><ele>1214.0</ele><time>2026-05-01T11:05:42.868Z</time></trkpt><trkpt lat="44.7424117" lon="9.5398517"><ele>1214.0</ele><time>2026-05-01T11:05:43.868Z</time></trkpt><trkpt lat="44.7424933" lon="9.5398267"><ele>1214.0</ele><time>2026-05-01T11:05:44.868Z</time></trkpt><trkpt lat="44.7425667" lon="9.5397983"><ele>1214.0</ele><time>2026-05-01T11:05:45.868Z</time></trkpt><trkpt lat="44.7426417" lon="9.5397567"><ele>1214.0</ele><time>2026-05-01T11:05:46.868Z</time></trkpt><trkpt lat="44.7427233" lon="9.5396933"><ele>1213.6000000000001</ele><time>2026-05-01T11:05:47.868Z</time></trkpt><trkpt lat="44.7428083" lon="9.5396183"><ele>1213.2</ele><time>2026-05-01T11:05:48.868Z</time></trkpt><trkpt lat="44.7428883" lon="9.53954"><ele>1212.8000000000002</ele><time>2026-05-01T11:05:49.868Z</time></trkpt><trkpt lat="44.742965" lon="9.5394633"><ele>1212.4</ele><time>2026-05-01T11:05:50.868Z</time></trkpt><trkpt lat="44.74304" lon="9.539375"><ele>1212.0</ele><time>2026-05-01T11:05:51.868Z</time></trkpt><trkpt lat="44.7431167" lon="9.5393"><ele>1216.0</ele><time>2026-05-01T11:05:52.868Z</time></trkpt><trkpt lat="44.743195" lon="9.5392417"><ele>1220.0</ele><time>2026-05-01T11:05:53.868Z</time></trkpt><trkpt lat="44.7432817" lon="9.5391867"><ele>1224.0</ele><time>2026-05-01T11:05:54.868Z</time></trkpt><trkpt lat="44.7433683" lon="9.5391267"><ele>1228.0</ele><time>2026-05-01T11:05:55.868Z</time></trkpt><trkpt lat="44.74345" lon="9.5390717"><ele>1232.0</ele><time>2026-05-01T11:05:56.868Z</time></trkpt><trkpt lat="44.7435333" lon="9.539025"><ele>1234.6</ele><time>2026-05-01T11:05:57.868Z</time></trkpt><trkpt lat="44.7436233" lon="9.5389933"><ele>1237.2</ele><time>2026-05-01T11:05:58.868Z</time></trkpt><trkpt lat="44.7437167" lon="9.538975"><ele>1239.8</ele><time>2026-05-01T11:05:59.868Z</time></trkpt><trkpt lat="44.7438033" lon="9.5389767"><ele>1242.4</ele><time>2026-05-01T11:06:00.869Z</time></trkpt><trkpt lat="44.743895" lon="9.538985"><ele>1245.0</ele><time>2026-05-01T11:06:01.869Z</time></trkpt><trkpt lat="44.7439867" lon="9.5389983"><ele>1245.0</ele><time>2026-05-01T11:06:02.868Z</time></trkpt><trkpt lat="44.74407" lon="9.5390183"><ele>1245.0</ele><time>2026-05-01T11:06:03.868Z</time></trkpt><trkpt lat="44.744155" lon="9.5390367"><ele>1245.0</ele><time>2026-05-01T11:06:04.868Z</time></trkpt><trkpt lat="44.744225" lon="9.5390517"><ele>1245.0</ele><time>2026-05-01T11:06:05.868Z</time></trkpt><trkpt lat="44.7443433" lon="9.5390317"><ele>1245.0</ele><time>2026-05-01T11:06:07.868Z</time></trkpt><trkpt lat="44.7444083" lon="9.53899"><ele>1245.0</ele><time>2026-05-01T11:06:08.868Z</time></trkpt><trkpt lat="44.74448" lon="9.5389267"><ele>1245.0</ele><time>2026-05-01T11:06:09.868Z</time></trkpt><trkpt lat="44.7445567" lon="9.53884"><ele>1245.0</ele><time>2026-05-01T11:06:10.868Z</time></trkpt><trkpt lat="44.74464" lon="9.5387517"><ele>1245.0</ele><time>2026-05-01T11:06:11.868Z</time></trkpt><trkpt lat="44.74473" lon="9.538645"><ele>1245.0</ele><time>2026-05-01T11:06:12.868Z</time></trkpt><trkpt lat="44.744825" lon="9.5385217"><ele>1245.0</ele><time>2026-05-01T11:06:13.869Z</time></trkpt><trkpt lat="44.74492" lon="9.5383983"><ele>1245.0</ele><time>2026-05-01T11:06:14.868Z</time></trkpt><trkpt lat="44.745015" lon="9.5382883"><ele>1245.0</ele><time>2026-05-01T11:06:15.869Z</time></trkpt><trkpt lat="44.7451133" lon="9.5381683"><ele>1245.0</ele><time>2026-05-01T11:06:16.868Z</time></trkpt><trkpt lat="44.74521" lon="9.5380483"><ele>1245.0</ele><time>2026-05-01T11:06:17.869Z</time></trkpt><trkpt lat="44.7453133" lon="9.53791"><ele>1242.5</ele><time>2026-05-01T11:06:18.868Z</time></trkpt><trkpt lat="44.745415" lon="9.5377667"><ele>1240.0</ele><time>2026-05-01T11:06:19.868Z</time></trkpt><trkpt lat="44.7455233" lon="9.5376233"><ele>1237.5</ele><time>2026-05-01T11:06:20.868Z</time></trkpt><trkpt lat="44.7456367" lon="9.5374967"><ele>1235.0</ele><time>2026-05-01T11:06:21.868Z</time></trkpt><trkpt lat="44.74575" lon="9.5373833"><ele>1235.0</ele><time>2026-05-01T11:06:22.868Z</time></trkpt><trkpt lat="44.7458733" lon="9.5372667"><ele>1235.0</ele><time>2026-05-01T11:06:23.868Z</time></trkpt><trkpt lat="44.7460017" lon="9.5371517"><ele>1235.0</ele><time>2026-05-01T11:06:24.868Z</time></trkpt><trkpt lat="44.746135" lon="9.537035"><ele>1236.3333333333335</ele><time>2026-05-01T11:06:25.868Z</time></trkpt><trkpt lat="44.7462667" lon="9.5369383"><ele>1237.6666666666667</ele><time>2026-05-01T11:06:26.868Z</time></trkpt><trkpt lat="44.7464017" lon="9.5368333"><ele>1239.0</ele><time>2026-05-01T11:06:27.868Z</time></trkpt><trkpt lat="44.746535" lon="9.5367333"><ele>1239.0</ele><time>2026-05-01T11:06:28.868Z</time></trkpt><trkpt lat="44.746665" lon="9.536635"><ele>1239.0</ele><time>2026-05-01T11:06:29.868Z</time></trkpt><trkpt lat="44.74679" lon="9.5365367"><ele>1239.0</ele><time>2026-05-01T11:06:30.868Z</time></trkpt><trkpt lat="44.7469067" lon="9.5364567"><ele>1239.0</ele><time>2026-05-01T11:06:31.868Z</time></trkpt><trkpt lat="44.7470217" lon="9.5364"><ele>1238.8</ele><time>2026-05-01T11:06:32.868Z</time></trkpt><trkpt lat="44.7471233" lon="9.5363467"><ele>1238.6000000000001</ele><time>2026-05-01T11:06:33.868Z</time></trkpt><trkpt lat="44.7472083" lon="9.536305"><ele>1238.4</ele><time>2026-05-01T11:06:34.868Z</time></trkpt><trkpt lat="44.747285" lon="9.536265"><ele>1238.2</ele><time>2026-05-01T11:06:35.868Z</time></trkpt><trkpt lat="44.7473467" lon="9.536235"><ele>1238.0</ele><time>2026-05-01T11:06:36.868Z</time></trkpt><trkpt lat="44.7474667" lon="9.5361683"><ele>1239.0</ele><time>2026-05-01T11:06:38.868Z</time></trkpt><trkpt lat="44.7475383" lon="9.5361417"><ele>1240.0</ele><time>2026-05-01T11:06:39.868Z</time></trkpt><trkpt lat="44.7476217" lon="9.536125"><ele>1241.0</ele><time>2026-05-01T11:06:40.868Z</time></trkpt><trkpt lat="44.7477" lon="9.5360917"><ele>1242.0</ele><time>2026-05-01T11:06:41.868Z</time></trkpt><trkpt lat="44.747775" lon="9.5360467"><ele>1243.0</ele><time>2026-05-01T11:06:42.868Z</time></trkpt><trkpt lat="44.7478483" lon="9.535985"><ele>1244.0</ele><time>2026-05-01T11:06:43.868Z</time></trkpt><trkpt lat="44.74792" lon="9.5359283"><ele>1244.7142857142856</ele><time>2026-05-01T11:06:44.868Z</time></trkpt><trkpt lat="44.7479867" lon="9.5358783"><ele>1245.4285714285716</ele><time>2026-05-01T11:06:45.868Z</time></trkpt><trkpt lat="44.7480533" lon="9.5358483"><ele>1246.142857142857</ele><time>2026-05-01T11:06:46.868Z</time></trkpt><trkpt lat="44.7481317" lon="9.5358167"><ele>1246.8571428571427</ele><time>2026-05-01T11:06:47.868Z</time></trkpt><trkpt lat="44.7481967" lon="9.5357717"><ele>1247.5714285714284</ele><time>2026-05-01T11:06:48.868Z</time></trkpt><trkpt lat="44.7482483" lon="9.5357067"><ele>1248.2857142857142</ele><time>2026-05-01T11:06:49.868Z</time></trkpt><trkpt lat="44.7482983" lon="9.5356383"><ele>1249.0</ele><time>2026-05-01T11:06:50.868Z</time></trkpt><trkpt lat="44.7483583" lon="9.5355633"><ele>1249.0</ele><time>2026-05-01T11:06:51.868Z</time></trkpt><trkpt lat="44.7484183" lon="9.535495"><ele>1249.0</ele><time>2026-05-01T11:06:52.868Z</time></trkpt><trkpt lat="44.748475" lon="9.53543"><ele>1249.0</ele><time>2026-05-01T11:06:53.868Z</time></trkpt><trkpt lat="44.7485283" lon="9.5353583"><ele>1249.0</ele><time>2026-05-01T11:06:54.868Z</time></trkpt><trkpt lat="44.748585" lon="9.5352917"><ele>1249.0</ele><time>2026-05-01T11:06:55.868Z</time></trkpt><trkpt lat="44.7486983" lon="9.535215"><ele>1249.0</ele><time>2026-05-01T11:06:57.868Z</time></trkpt><trkpt lat="44.74882" lon="9.535185"><ele>1252.6666666666665</ele><time>2026-05-01T11:06:59.868Z</time></trkpt><trkpt lat="44.7488833" lon="9.5351667"><ele>1256.3333333333333</ele><time>2026-05-01T11:07:00.868Z</time></trkpt><trkpt lat="44.7489583" lon="9.5351417"><ele>1260.0</ele><time>2026-05-01T11:07:01.868Z</time></trkpt><trkpt lat="44.74904" lon="9.5351133"><ele>1263.6666666666667</ele><time>2026-05-01T11:07:02.868Z</time></trkpt><trkpt lat="44.7491233" lon="9.5350867"><ele>1267.3333333333335</ele><time>2026-05-01T11:07:03.868Z</time></trkpt><trkpt lat="44.7492017" lon="9.5350583"><ele>1271.0</ele><time>2026-05-01T11:07:04.868Z</time></trkpt><trkpt lat="44.749275" lon="9.53503"><ele>1271.0</ele><time>2026-05-01T11:07:05.868Z</time></trkpt><trkpt lat="44.7493417" lon="9.5350017"><ele>1271.0</ele><time>2026-05-01T11:07:06.868Z</time></trkpt><trkpt lat="44.74941" lon="9.5349617"><ele>1271.0</ele><time>2026-05-01T11:07:07.868Z</time></trkpt><trkpt lat="44.7494783" lon="9.53493"><ele>1271.0</ele><time>2026-05-01T11:07:08.869Z</time></trkpt><trkpt lat="44.7495433" lon="9.5348883"><ele>1271.0</ele><time>2026-05-01T11:07:09.868Z</time></trkpt><trkpt lat="44.7496183" lon="9.534835"><ele>1271.0</ele><time>2026-05-01T11:07:10.869Z</time></trkpt><trkpt lat="44.7496933" lon="9.5347867"><ele>1271.6666666666667</ele><time>2026-05-01T11:07:11.868Z</time></trkpt><trkpt lat="44.749765" lon="9.5347233"><ele>1272.3333333333335</ele><time>2026-05-01T11:07:12.868Z</time></trkpt><trkpt lat="44.7498417" lon="9.534655"><ele>1273.0</ele><time>2026-05-01T11:07:13.869Z</time></trkpt><trkpt lat="44.7499167" lon="9.534595"><ele>1273.6666666666667</ele><time>2026-05-01T11:07:14.869Z</time></trkpt><trkpt lat="44.7499867" lon="9.5345517"><ele>1274.3333333333333</ele><time>2026-05-01T11:07:15.868Z</time></trkpt><trkpt lat="44.75006" lon="9.5345317"><ele>1275.0</ele><time>2026-05-01T11:07:16.868Z</time></trkpt><trkpt lat="44.750135" lon="9.5345333"><ele>1276.8333333333333</ele><time>2026-05-01T11:07:17.868Z</time></trkpt><trkpt lat="44.7502133" lon="9.5345533"><ele>1278.6666666666667</ele><time>2026-05-01T11:07:18.868Z</time></trkpt><trkpt lat="44.7502817" lon="9.5345933"><ele>1280.5</ele><time>2026-05-01T11:07:19.868Z</time></trkpt><trkpt lat="44.7503567" lon="9.534675"><ele>1282.3333333333335</ele><time>2026-05-01T11:07:21.868Z</time></trkpt><trkpt lat="44.75043" lon="9.5347883"><ele>1284.1666666666667</ele><time>2026-05-01T11:08:47.868Z</time></trkpt><trkpt lat="44.7504833" lon="9.5348567"><ele>1286.0</ele><time>2026-05-01T11:08:50.868Z</time></trkpt><trkpt lat="44.7505383" lon="9.53491"><ele>1286.0</ele><time>2026-05-01T11:08:54.868Z</time></trkpt><trkpt lat="44.7506083" lon="9.5349683"><ele>1286.0</ele><time>2026-05-01T11:08:57.868Z</time></trkpt><trkpt lat="44.750675" lon="9.5350117"><ele>1286.0</ele><time>2026-05-01T11:09:00.868Z</time></trkpt><trkpt lat="44.7507517" lon="9.5350567"><ele>1286.0</ele><time>2026-05-01T11:09:03.868Z</time></trkpt><trkpt lat="44.7508283" lon="9.5351017"><ele>1286.0</ele><time>2026-05-01T11:09:06.868Z</time></trkpt><trkpt lat="44.7509183" lon="9.5351817"><ele>1286.0</ele><time>2026-05-01T11:09:09.868Z</time></trkpt><trkpt lat="44.751" lon="9.5353133"><ele>1282.1666666666667</ele><time>2026-05-01T11:09:11.868Z</time></trkpt><trkpt lat="44.7510517" lon="9.5354167"><ele>1278.3333333333335</ele><time>2026-05-01T11:09:12.868Z</time></trkpt><trkpt lat="44.751105" lon="9.5355267"><ele>1274.5</ele><time>2026-05-01T11:09:13.868Z</time></trkpt><trkpt lat="44.7511533" lon="9.535625"><ele>1270.6666666666667</ele><time>2026-05-01T11:09:14.868Z</time></trkpt><trkpt lat="44.7511933" lon="9.53573"><ele>1266.8333333333333</ele><time>2026-05-01T11:09:15.868Z</time></trkpt><trkpt lat="44.7512267" lon="9.5358283"><ele>1263.0</ele><time>2026-05-01T11:09:16.868Z</time></trkpt><trkpt lat="44.751255" lon="9.5359217"><ele>1263.0</ele><time>2026-05-01T11:09:17.868Z</time></trkpt><trkpt lat="44.751285" lon="9.536005"><ele>1263.0</ele><time>2026-05-01T11:09:18.869Z</time></trkpt><trkpt lat="44.7513317" lon="9.5361533"><ele>1263.0</ele><time>2026-05-01T11:09:20.868Z</time></trkpt><trkpt lat="44.7513667" lon="9.5362733"><ele>1263.0</ele><time>2026-05-01T11:09:22.868Z</time></trkpt><trkpt lat="44.7514033" lon="9.5363867"><ele>1263.0</ele><time>2026-05-01T11:09:24.868Z</time></trkpt><trkpt lat="44.7514333" lon="9.5365083"><ele>1263.1666666666667</ele><time>2026-05-01T11:09:26.868Z</time></trkpt><trkpt lat="44.75145" lon="9.53664"><ele>1263.3333333333333</ele><time>2026-05-01T11:09:28.868Z</time></trkpt><trkpt lat="44.75147" lon="9.5367567"><ele>1263.5</ele><time>2026-05-01T11:09:30.868Z</time></trkpt><trkpt lat="44.75151" lon="9.5368833"><ele>1263.6666666666665</ele><time>2026-05-01T11:09:32.868Z</time></trkpt><trkpt lat="44.75153" lon="9.537005"><ele>1263.8333333333333</ele><time>2026-05-01T11:09:34.868Z</time></trkpt><trkpt lat="44.7515433" lon="9.5371167"><ele>1264.0</ele><time>2026-05-01T11:09:36.868Z</time></trkpt><trkpt lat="44.75156" lon="9.5372483"><ele>1262.1666666666665</ele><time>2026-05-01T11:09:38.868Z</time></trkpt><trkpt lat="44.7515717" lon="9.5373733"><ele>1260.3333333333333</ele><time>2026-05-01T11:09:40.868Z</time></trkpt><trkpt lat="44.751575" lon="9.5375017"><ele>1258.5</ele><time>2026-05-01T11:09:42.868Z</time></trkpt><trkpt lat="44.7515583" lon="9.5376167"><ele>1256.6666666666667</ele><time>2026-05-01T11:09:44.868Z</time></trkpt><trkpt lat="44.75156" lon="9.5377167"><ele>1254.8333333333335</ele><time>2026-05-01T11:09:46.868Z</time></trkpt><trkpt lat="44.75159" lon="9.5378117"><ele>1253.0</ele><time>2026-05-01T11:09:49.868Z</time></trkpt><trkpt lat="44.7516733" lon="9.5378167"><ele>1253.0</ele><time>2026-05-01T11:09:52.868Z</time></trkpt><trkpt lat="44.7517483" lon="9.53785"><ele>1253.0</ele><time>2026-05-01T11:09:54.868Z</time></trkpt><trkpt lat="44.7518383" lon="9.5378733"><ele>1253.0</ele><time>2026-05-01T11:09:56.868Z</time></trkpt><trkpt lat="44.7519217" lon="9.5378717"><ele>1253.0</ele><time>2026-05-01T11:09:58.868Z</time></trkpt><trkpt lat="44.75199" lon="9.5378683"><ele>1253.0</ele><time>2026-05-01T11:10:00.868Z</time></trkpt><trkpt lat="44.752065" lon="9.5378617"><ele>1253.0</ele><time>2026-05-01T11:10:02.868Z</time></trkpt><trkpt lat="44.7521467" lon="9.537885"><ele>1248.0</ele><time>2026-05-01T11:10:04.868Z</time></trkpt><trkpt lat="44.7522383" lon="9.53788"><ele>1243.0</ele><time>2026-05-01T11:10:06.869Z</time></trkpt><trkpt lat="44.7523217" lon="9.537905"><ele>1238.0</ele><time>2026-05-01T11:10:08.868Z</time></trkpt><trkpt lat="44.7523817" lon="9.5379717"><ele>1233.0</ele><time>2026-05-01T11:10:10.869Z</time></trkpt><trkpt lat="44.7524383" lon="9.5380517"><ele>1228.0</ele><time>2026-05-01T11:10:12.868Z</time></trkpt><trkpt lat="44.7524833" lon="9.538135"><ele>1223.0</ele><time>2026-05-01T11:10:15.868Z</time></trkpt><trkpt lat="44.7525717" lon="9.5381583"><ele>1222.2</ele><time>2026-05-01T11:10:18.868Z</time></trkpt><trkpt lat="44.7526783" lon="9.5381767"><ele>1221.4</ele><time>2026-05-01T11:10:20.868Z</time></trkpt><trkpt lat="44.7527883" lon="9.5382217"><ele>1220.6000000000001</ele><time>2026-05-01T11:10:22.868Z</time></trkpt><trkpt lat="44.7528933" lon="9.5382817"><ele>1219.8</ele><time>2026-05-01T11:10:24.868Z</time></trkpt><trkpt lat="44.75298" lon="9.53835"><ele>1219.0</ele><time>2026-05-01T11:10:26.868Z</time></trkpt><trkpt lat="44.7530367" lon="9.53843"><ele>1213.1666666666665</ele><time>2026-05-01T11:10:28.868Z</time></trkpt><trkpt lat="44.7530867" lon="9.538505"><ele>1207.3333333333333</ele><time>2026-05-01T11:10:30.868Z</time></trkpt><trkpt lat="44.7531783" lon="9.5385233"><ele>1201.5</ele><time>2026-05-01T11:10:33.868Z</time></trkpt><trkpt lat="44.7532433" lon="9.5385167"><ele>1195.6666666666667</ele><time>2026-05-01T11:10:35.868Z</time></trkpt><trkpt lat="44.7533233" lon="9.5385133"><ele>1189.8333333333335</ele><time>2026-05-01T11:10:38.868Z</time></trkpt><trkpt lat="44.7534" lon="9.5385617"><ele>1184.0</ele><time>2026-05-01T11:10:41.868Z</time></trkpt><trkpt lat="44.7534733" lon="9.53857"><ele>1179.5714285714287</ele><time>2026-05-01T11:10:44.868Z</time></trkpt><trkpt lat="44.75354" lon="9.5385767"><ele>1175.142857142857</ele><time>2026-05-01T11:10:46.868Z</time></trkpt><trkpt lat="44.7536033" lon="9.5385783"><ele>1170.7142857142858</ele><time>2026-05-01T11:10:48.868Z</time></trkpt><trkpt lat="44.7536633" lon="9.5386083"><ele>1166.2857142857142</ele><time>2026-05-01T11:10:50.868Z</time></trkpt><trkpt lat="44.75373" lon="9.53866"><ele>1161.857142857143</ele><time>2026-05-01T11:10:52.868Z</time></trkpt><trkpt lat="44.7537917" lon="9.5386817"><ele>1157.4285714285716</ele><time>2026-05-01T11:10:54.868Z</time></trkpt><trkpt lat="44.7538567" lon="9.5386965"><ele>1153.0</ele><time>2026-05-01T11:10:56.942Z</time></trkpt><trkpt lat="44.7539132" lon="9.538738"><ele>1153.0</ele><time>2026-05-01T11:10:58.913Z</time></trkpt><trkpt lat="44.7539818" lon="9.5387149"><ele>1153.0</ele><time>2026-05-01T11:11:00.885Z</time></trkpt><trkpt lat="44.754046" lon="9.5387415"><ele>1153.0</ele><time>2026-05-01T11:11:02.868Z</time></trkpt><trkpt lat="44.7540971" lon="9.5388091"><ele>1153.0</ele><time>2026-05-01T11:11:05.923Z</time></trkpt><trkpt lat="44.7541033" lon="9.5389267"><ele>1153.0</ele><time>2026-05-01T11:11:09.868Z</time></trkpt><trkpt lat="44.7540933" lon="9.5390583"><ele>1153.0</ele><time>2026-05-01T11:11:11.868Z</time></trkpt><trkpt lat="44.7541083" lon="9.5391983"><ele>1153.0</ele><time>2026-05-01T11:11:13.868Z</time></trkpt><trkpt lat="44.7541633" lon="9.539315"><ele>1153.0</ele><time>2026-05-01T11:11:15.868Z</time></trkpt><trkpt lat="44.7542083" lon="9.5393983"><ele>1153.0</ele><time>2026-05-01T11:11:17.868Z</time></trkpt><trkpt lat="44.7542383" lon="9.5395583"><ele>1153.0</ele><time>2026-05-01T11:11:19.868Z</time></trkpt><trkpt lat="44.754245" lon="9.5396467"><ele>1153.0</ele><time>2026-05-01T11:11:20.868Z</time></trkpt><trkpt lat="44.754285" lon="9.53977"><ele>1150.5</ele><time>2026-05-01T11:11:22.868Z</time></trkpt><trkpt lat="44.7543433" lon="9.5398717"><ele>1148.0</ele><time>2026-05-01T11:11:24.868Z</time></trkpt><trkpt lat="44.7544" lon="9.53993"><ele>1145.5</ele><time>2026-05-01T11:11:26.868Z</time></trkpt><trkpt lat="44.7544833" lon="9.5399317"><ele>1143.0</ele><time>2026-05-01T11:11:28.868Z</time></trkpt><trkpt lat="44.754575" lon="9.539895"><ele>1140.5</ele><time>2026-05-01T11:11:30.868Z</time></trkpt><trkpt lat="44.7546667" lon="9.5398667"><ele>1138.0</ele><time>2026-05-01T11:11:32.868Z</time></trkpt><trkpt lat="44.75477" lon="9.53982"><ele>1133.8</ele><time>2026-05-01T11:11:34.868Z</time></trkpt><trkpt lat="44.7548783" lon="9.5397683"><ele>1129.6</ele><time>2026-05-01T11:11:36.868Z</time></trkpt><trkpt lat="44.7549383" lon="9.5397267"><ele>1125.4</ele><time>2026-05-01T11:11:37.868Z</time></trkpt><trkpt lat="44.7550367" lon="9.5396783"><ele>1121.2</ele><time>2026-05-01T11:11:39.868Z</time></trkpt><trkpt lat="44.7551417" lon="9.5396467"><ele>1117.0</ele><time>2026-05-01T11:11:41.868Z</time></trkpt><trkpt lat="44.755205" lon="9.539605"><ele>1112.8</ele><time>2026-05-01T11:11:42.868Z</time></trkpt><trkpt lat="44.755265" lon="9.539575"><ele>1108.6</ele><time>2026-05-01T11:11:43.868Z</time></trkpt><trkpt lat="44.7553867" lon="9.5395317"><ele>1104.3999999999999</ele><time>2026-05-01T11:11:45.868Z</time></trkpt><trkpt lat="44.7554967" lon="9.5395017"><ele>1100.2</ele><time>2026-05-01T11:11:47.868Z</time></trkpt><trkpt lat="44.755575" lon="9.53946"><ele>1096.0</ele><time>2026-05-01T11:11:48.868Z</time></trkpt><trkpt lat="44.7556817" lon="9.53941"><ele>1096.0</ele><time>2026-05-01T11:11:50.868Z</time></trkpt><trkpt lat="44.755785" lon="9.5393767"><ele>1096.0</ele><time>2026-05-01T11:11:52.868Z</time></trkpt><trkpt lat="44.7558717" lon="9.5393667"><ele>1096.0</ele><time>2026-05-01T11:11:53.868Z</time></trkpt><trkpt lat="44.7559933" lon="9.5393583"><ele>1096.0</ele><time>2026-05-01T11:11:55.868Z</time></trkpt><trkpt lat="44.7560633" lon="9.5393567"><ele>1096.0</ele><time>2026-05-01T11:11:56.868Z</time></trkpt><trkpt lat="44.7561733" lon="9.5393617"><ele>1090.8</ele><time>2026-05-01T11:11:58.868Z</time></trkpt><trkpt lat="44.7562933" lon="9.5393967"><ele>1085.6</ele><time>2026-05-01T11:12:00.868Z</time></trkpt><trkpt lat="44.7563767" lon="9.53944"><ele>1080.4</ele><time>2026-05-01T11:12:02.868Z</time></trkpt><trkpt lat="44.7564283" lon="9.5395117"><ele>1075.2</ele><time>2026-05-01T11:12:04.868Z</time></trkpt><trkpt lat="44.7564633" lon="9.5396217"><ele>1070.0</ele><time>2026-05-01T11:12:07.868Z</time></trkpt><trkpt lat="44.75654" lon="9.5397417"><ele>1069.6</ele><time>2026-05-01T11:12:10.869Z</time></trkpt><trkpt lat="44.75662" lon="9.5398517"><ele>1069.2</ele><time>2026-05-01T11:12:12.868Z</time></trkpt><trkpt lat="44.756715" lon="9.5399433"><ele>1068.8</ele><time>2026-05-01T11:12:14.868Z</time></trkpt><trkpt lat="44.7568183" lon="9.5400483"><ele>1068.4</ele><time>2026-05-01T11:12:16.868Z</time></trkpt><trkpt lat="44.756885" lon="9.5401067"><ele>1068.0</ele><time>2026-05-01T11:12:17.868Z</time></trkpt><trkpt lat="44.7569433" lon="9.540175"><ele>1064.8333333333333</ele><time>2026-05-01T11:12:18.868Z</time></trkpt><trkpt lat="44.7569967" lon="9.5402317"><ele>1061.6666666666667</ele><time>2026-05-01T11:12:19.868Z</time></trkpt><trkpt lat="44.7570517" lon="9.5402833"><ele>1058.5</ele><time>2026-05-01T11:12:20.868Z</time></trkpt><trkpt lat="44.757115" lon="9.540335"><ele>1055.3333333333335</ele><time>2026-05-01T11:12:21.868Z</time></trkpt><trkpt lat="44.75721" lon="9.5404183"><ele>1052.1666666666667</ele><time>2026-05-01T11:12:23.868Z</time></trkpt><trkpt lat="44.7573033" lon="9.5404633"><ele>1049.0</ele><time>2026-05-01T11:12:25.869Z</time></trkpt><trkpt lat="44.7573917" lon="9.5404917"><ele>1048.6666666666667</ele><time>2026-05-01T11:12:27.868Z</time></trkpt><trkpt lat="44.7574817" lon="9.5405317"><ele>1048.3333333333335</ele><time>2026-05-01T11:12:29.868Z</time></trkpt><trkpt lat="44.7575717" lon="9.5405917"><ele>1048.0</ele><time>2026-05-01T11:12:31.868Z</time></trkpt><trkpt lat="44.75765" lon="9.5406467"><ele>1047.6666666666667</ele><time>2026-05-01T11:12:33.869Z</time></trkpt><trkpt lat="44.7577117" lon="9.540685"><ele>1047.3333333333333</ele><time>2026-05-01T11:12:35.868Z</time></trkpt><trkpt lat="44.7577983" lon="9.5407133"><ele>1047.0</ele><time>2026-05-01T11:12:37.868Z</time></trkpt><trkpt lat="44.757905" lon="9.5407167"><ele>1044.5714285714287</ele><time>2026-05-01T11:12:39.869Z</time></trkpt><trkpt lat="44.7579667" lon="9.5407383"><ele>1042.142857142857</ele><time>2026-05-01T11:12:40.868Z</time></trkpt><trkpt lat="44.7580367" lon="9.54077"><ele>1039.7142857142858</ele><time>2026-05-01T11:12:41.868Z</time></trkpt><trkpt lat="44.7581067" lon="9.5408167"><ele>1037.2857142857142</ele><time>2026-05-01T11:12:42.868Z</time></trkpt><trkpt lat="44.758165" lon="9.5408667"><ele>1034.857142857143</ele><time>2026-05-01T11:12:43.868Z</time></trkpt><trkpt lat="44.75822" lon="9.540925"><ele>1032.4285714285716</ele><time>2026-05-01T11:12:44.868Z</time></trkpt><trkpt lat="44.7582917" lon="9.5409983"><ele>1030.0</ele><time>2026-05-01T11:12:46.868Z</time></trkpt><trkpt lat="44.7583417" lon="9.5410733"><ele>1030.0</ele><time>2026-05-01T11:12:48.869Z</time></trkpt><trkpt lat="44.7583817" lon="9.5411883"><ele>1030.0</ele><time>2026-05-01T11:12:50.868Z</time></trkpt><trkpt lat="44.7584167" lon="9.5412733"><ele>1030.0</ele><time>2026-05-01T11:12:51.868Z</time></trkpt><trkpt lat="44.7584583" lon="9.54138"><ele>1030.0</ele><time>2026-05-01T11:12:52.868Z</time></trkpt><trkpt lat="44.758505" lon="9.541495"><ele>1030.0</ele><time>2026-05-01T11:12:53.868Z</time></trkpt><trkpt lat="44.75855" lon="9.541615"><ele>1030.0</ele><time>2026-05-01T11:12:54.868Z</time></trkpt><trkpt lat="44.7585917" lon="9.5417283"><ele>1027.8</ele><time>2026-05-01T11:12:55.868Z</time></trkpt><trkpt lat="44.7586367" lon="9.5418333"><ele>1025.6</ele><time>2026-05-01T11:12:56.868Z</time></trkpt><trkpt lat="44.7586833" lon="9.54192"><ele>1023.4000000000001</ele><time>2026-05-01T11:12:57.868Z</time></trkpt><trkpt lat="44.7587267" lon="9.5419883"><ele>1021.2</ele><time>2026-05-01T11:12:58.868Z</time></trkpt><trkpt lat="44.7588033" lon="9.5420733"><ele>1019.0</ele><time>2026-05-01T11:13:00.868Z</time></trkpt><trkpt lat="44.758915" lon="9.5421583"><ele>1018.6666666666667</ele><time>2026-05-01T11:13:02.868Z</time></trkpt><trkpt lat="44.75898" lon="9.5422167"><ele>1018.3333333333334</ele><time>2026-05-01T11:13:03.868Z</time></trkpt><trkpt lat="44.7590483" lon="9.5422833"><ele>1018.0</ele><time>2026-05-01T11:13:04.868Z</time></trkpt><trkpt lat="44.7591083" lon="9.5423517"><ele>1017.6666666666667</ele><time>2026-05-01T11:13:05.869Z</time></trkpt><trkpt lat="44.759165" lon="9.542425"><ele>1017.3333333333334</ele><time>2026-05-01T11:13:06.868Z</time></trkpt><trkpt lat="44.7592117" lon="9.5424917"><ele>1017.0</ele><time>2026-05-01T11:13:07.869Z</time></trkpt><trkpt lat="44.7592833" lon="9.5425983"><ele>1017.0</ele><time>2026-05-01T11:13:09.869Z</time></trkpt><trkpt lat="44.7593483" lon="9.5426933"><ele>1017.0</ele><time>2026-05-01T11:13:11.868Z</time></trkpt><trkpt lat="44.7594017" lon="9.5427733"><ele>1017.0</ele><time>2026-05-01T11:13:13.868Z</time></trkpt><trkpt lat="44.759475" lon="9.542875"><ele>1017.0</ele><time>2026-05-01T11:13:15.868Z</time></trkpt><trkpt lat="44.7595367" lon="9.5429583"><ele>1017.0</ele><time>2026-05-01T11:13:17.868Z</time></trkpt><trkpt lat="44.7595983" lon="9.5430367"><ele>1017.0</ele><time>2026-05-01T11:13:20.868Z</time></trkpt><trkpt lat="44.759655" lon="9.5430933"><ele>1013.4000000000001</ele><time>2026-05-01T11:13:25.868Z</time></trkpt><trkpt lat="44.7597467" lon="9.5431883"><ele>1009.8000000000001</ele><time>2026-05-01T11:13:31.868Z</time></trkpt><trkpt lat="44.7598133" lon="9.5432433"><ele>1006.2</ele><time>2026-05-01T11:13:33.868Z</time></trkpt><trkpt lat="44.7598933" lon="9.5433083"><ele>1002.6</ele><time>2026-05-01T11:13:35.868Z</time></trkpt><trkpt lat="44.75997" lon="9.5433933"><ele>999.0</ele><time>2026-05-01T11:13:37.868Z</time></trkpt><trkpt lat="44.7600683" lon="9.5435233"><ele>999.0</ele><time>2026-05-01T11:13:39.868Z</time></trkpt><trkpt lat="44.76012" lon="9.543605"><ele>999.0</ele><time>2026-05-01T11:13:40.868Z</time></trkpt><trkpt lat="44.7601817" lon="9.5437033"><ele>999.0</ele><time>2026-05-01T11:13:41.868Z</time></trkpt><trkpt lat="44.7602533" lon="9.5437683"><ele>999.0</ele><time>2026-05-01T11:13:42.868Z</time></trkpt><trkpt lat="44.760315" lon="9.5438217"><ele>999.0</ele><time>2026-05-01T11:13:43.868Z</time></trkpt><trkpt lat="44.760375" lon="9.5438633"><ele>999.0</ele><time>2026-05-01T11:13:44.868Z</time></trkpt><trkpt lat="44.7604817" lon="9.5439333"><ele>996.2</ele><time>2026-05-01T11:13:46.868Z</time></trkpt><trkpt lat="44.7605817" lon="9.54404"><ele>993.4000000000001</ele><time>2026-05-01T11:13:55.868Z</time></trkpt><trkpt lat="44.7606683" lon="9.544095"><ele>990.6</ele><time>2026-05-01T11:14:03.868Z</time></trkpt><trkpt lat="44.76073" lon="9.54412"><ele>987.8</ele><time>2026-05-01T11:14:05.868Z</time></trkpt><trkpt lat="44.7608167" lon="9.5441683"><ele>985.0</ele><time>2026-05-01T11:14:07.868Z</time></trkpt><trkpt lat="44.7609" lon="9.544275"><ele>985.0</ele><time>2026-05-01T11:14:09.868Z</time></trkpt><trkpt lat="44.7609933" lon="9.5443983"><ele>985.0</ele><time>2026-05-01T11:14:11.868Z</time></trkpt><trkpt lat="44.76106" lon="9.54448"><ele>985.0</ele><time>2026-05-01T11:14:12.868Z</time></trkpt><trkpt lat="44.7611283" lon="9.54456"><ele>985.0</ele><time>2026-05-01T11:14:13.868Z</time></trkpt><trkpt lat="44.76119" lon="9.54462"><ele>985.0</ele><time>2026-05-01T11:14:14.868Z</time></trkpt><trkpt lat="44.7612533" lon="9.5446933"><ele>986.3333333333333</ele><time>2026-05-01T11:14:15.869Z</time></trkpt><trkpt lat="44.76131" lon="9.5447617"><ele>987.6666666666666</ele><time>2026-05-01T11:14:16.868Z</time></trkpt><trkpt lat="44.76138" lon="9.5448483"><ele>989.0</ele><time>2026-05-01T11:14:17.868Z</time></trkpt><trkpt lat="44.7614367" lon="9.5449317"><ele>990.3333333333333</ele><time>2026-05-01T11:14:18.868Z</time></trkpt><trkpt lat="44.76149" lon="9.5450233"><ele>991.6666666666666</ele><time>2026-05-01T11:14:19.868Z</time></trkpt><trkpt lat="44.7615283" lon="9.5451067"><ele>993.0</ele><time>2026-05-01T11:14:20.869Z</time></trkpt><trkpt lat="44.7615633" lon="9.5451867"><ele>993.5</ele><time>2026-05-01T11:14:21.868Z</time></trkpt><trkpt lat="44.76161" lon="9.54538"><ele>994.0</ele><time>2026-05-01T11:14:23.868Z</time></trkpt><trkpt lat="44.76163" lon="9.545465"><ele>994.5</ele><time>2026-05-01T11:14:24.868Z</time></trkpt><trkpt lat="44.7616467" lon="9.54556"><ele>995.0</ele><time>2026-05-01T11:14:25.868Z</time></trkpt><trkpt lat="44.7616783" lon="9.5456833"><ele>995.5</ele><time>2026-05-01T11:14:26.868Z</time></trkpt><trkpt lat="44.7616933" lon="9.5457883"><ele>996.0</ele><time>2026-05-01T11:14:27.868Z</time></trkpt><trkpt lat="44.7617083" lon="9.545885"><ele>996.0</ele><time>2026-05-01T11:14:28.868Z</time></trkpt><trkpt lat="44.7617283" lon="9.5459833"><ele>995.9999999999999</ele><time>2026-05-01T11:14:29.868Z</time></trkpt><trkpt lat="44.7617683" lon="9.546145"><ele>995.9999999999999</ele><time>2026-05-01T11:14:31.868Z</time></trkpt><trkpt lat="44.7618267" lon="9.546265"><ele>996.0</ele><time>2026-05-01T11:14:33.868Z</time></trkpt><trkpt lat="44.7618983" lon="9.5463583"><ele>996.0</ele><time>2026-05-01T11:14:35.869Z</time></trkpt><trkpt lat="44.7619767" lon="9.5464683"><ele>996.1666666666666</ele><time>2026-05-01T11:14:37.868Z</time></trkpt><trkpt lat="44.762065" lon="9.5466133"><ele>996.3333333333333</ele><time>2026-05-01T11:14:39.868Z</time></trkpt><trkpt lat="44.7620983" lon="9.5467033"><ele>996.5</ele><time>2026-05-01T11:14:40.868Z</time></trkpt><trkpt lat="44.7621417" lon="9.5467883"><ele>996.6666666666666</ele><time>2026-05-01T11:14:41.868Z</time></trkpt><trkpt lat="44.7621967" lon="9.5468767"><ele>996.8333333333333</ele><time>2026-05-01T11:14:42.868Z</time></trkpt><trkpt lat="44.7622533" lon="9.5469633"><ele>997.0</ele><time>2026-05-01T11:14:43.868Z</time></trkpt><trkpt lat="44.762325" lon="9.5470533"><ele>996.5714285714284</ele><time>2026-05-01T11:14:44.868Z</time></trkpt><trkpt lat="44.76239" lon="9.5471183"><ele>996.1428571428571</ele><time>2026-05-01T11:14:45.868Z</time></trkpt><trkpt lat="44.7624483" lon="9.54718"><ele>995.7142857142857</ele><time>2026-05-01T11:14:46.868Z</time></trkpt><trkpt lat="44.7625" lon="9.54725"><ele>995.2857142857142</ele><time>2026-05-01T11:14:47.868Z</time></trkpt><trkpt lat="44.762545" lon="9.5473267"><ele>994.8571428571429</ele><time>2026-05-01T11:14:48.868Z</time></trkpt><trkpt lat="44.76259" lon="9.5473967"><ele>994.4285714285714</ele><time>2026-05-01T11:14:49.868Z</time></trkpt><trkpt lat="44.7626467" lon="9.5474867"><ele>994.0</ele><time>2026-05-01T11:14:50.868Z</time></trkpt><trkpt lat="44.7627133" lon="9.5475667"><ele>993.9999999999999</ele><time>2026-05-01T11:14:51.868Z</time></trkpt><trkpt lat="44.7627733" lon="9.5476333"><ele>994.0</ele><time>2026-05-01T11:14:52.868Z</time></trkpt><trkpt lat="44.7628283" lon="9.5477067"><ele>994.0</ele><time>2026-05-01T11:14:53.868Z</time></trkpt><trkpt lat="44.7628833" lon="9.54779"><ele>994.0</ele><time>2026-05-01T11:14:54.868Z</time></trkpt><trkpt lat="44.7629333" lon="9.547875"><ele>993.9999999999999</ele><time>2026-05-01T11:14:55.868Z</time></trkpt><trkpt lat="44.7629767" lon="9.5479517"><ele>994.0</ele><time>2026-05-01T11:14:56.868Z</time></trkpt><trkpt lat="44.7630867" lon="9.5480633"><ele>993.3333333333333</ele><time>2026-05-01T11:14:58.868Z</time></trkpt><trkpt lat="44.76315" lon="9.5481117"><ele>992.6666666666666</ele><time>2026-05-01T11:14:59.868Z</time></trkpt><trkpt lat="44.7632133" lon="9.5481617"><ele>992.0</ele><time>2026-05-01T11:15:00.868Z</time></trkpt><trkpt lat="44.7632833" lon="9.548195"><ele>991.3333333333333</ele><time>2026-05-01T11:15:01.868Z</time></trkpt><trkpt lat="44.7633633" lon="9.5482217"><ele>990.6666666666666</ele><time>2026-05-01T11:15:02.868Z</time></trkpt><trkpt lat="44.76343" lon="9.548235"><ele>990.0</ele><time>2026-05-01T11:15:03.868Z</time></trkpt><trkpt lat="44.76353" lon="9.5482517"><ele>990.6666666666666</ele><time>2026-05-01T11:15:04.868Z</time></trkpt><trkpt lat="44.7636033" lon="9.54826"><ele>991.3333333333333</ele><time>2026-05-01T11:15:05.868Z</time></trkpt><trkpt lat="44.7637317" lon="9.548295"><ele>992.0</ele><time>2026-05-01T11:15:07.868Z</time></trkpt><trkpt lat="44.7638067" lon="9.548325"><ele>992.6666666666666</ele><time>2026-05-01T11:15:08.868Z</time></trkpt><trkpt lat="44.76389" lon="9.548345"><ele>993.3333333333333</ele><time>2026-05-01T11:15:09.868Z</time></trkpt><trkpt lat="44.7639717" lon="9.5483533"><ele>994.0</ele><time>2026-05-01T11:15:10.868Z</time></trkpt><trkpt lat="44.7640433" lon="9.5483433"><ele>993.9999999999999</ele><time>2026-05-01T11:15:11.868Z</time></trkpt><trkpt lat="44.764115" lon="9.5483317"><ele>994.0</ele><time>2026-05-01T11:15:12.868Z</time></trkpt><trkpt lat="44.764185" lon="9.548335"><ele>994.0</ele><time>2026-05-01T11:15:13.868Z</time></trkpt><trkpt lat="44.7642483" lon="9.5483517"><ele>994.0</ele><time>2026-05-01T11:15:14.868Z</time></trkpt><trkpt lat="44.7643117" lon="9.548365"><ele>993.9999999999999</ele><time>2026-05-01T11:15:15.868Z</time></trkpt><trkpt lat="44.76442" lon="9.54839"><ele>994.0</ele><time>2026-05-01T11:15:17.868Z</time></trkpt><trkpt lat="44.76451" lon="9.5484533"><ele>991.9999999999999</ele><time>2026-05-01T11:15:19.868Z</time></trkpt><trkpt lat="44.764625" lon="9.548525"><ele>990.0</ele><time>2026-05-01T11:15:21.868Z</time></trkpt><trkpt lat="44.7646817" lon="9.5485717"><ele>988.0</ele><time>2026-05-01T11:15:22.869Z</time></trkpt><trkpt lat="44.7647917" lon="9.548655"><ele>986.0</ele><time>2026-05-01T11:15:24.868Z</time></trkpt><trkpt lat="44.7648433" lon="9.54871"><ele>983.9999999999999</ele><time>2026-05-01T11:15:25.868Z</time></trkpt><trkpt lat="44.7648933" lon="9.548775"><ele>982.0</ele><time>2026-05-01T11:15:26.868Z</time></trkpt><trkpt lat="44.7649467" lon="9.5488417"><ele>982.0</ele><time>2026-05-01T11:15:27.868Z</time></trkpt><trkpt lat="44.7649967" lon="9.5489033"><ele>982.0</ele><time>2026-05-01T11:15:28.869Z</time></trkpt><trkpt lat="44.7651" lon="9.5489933"><ele>982.0</ele><time>2026-05-01T11:15:30.868Z</time></trkpt><trkpt lat="44.7652017" lon="9.5490617"><ele>982.0</ele><time>2026-05-01T11:15:32.868Z</time></trkpt><trkpt lat="44.765285" lon="9.54914"><ele>982.0</ele><time>2026-05-01T11:15:34.868Z</time></trkpt><trkpt lat="44.765355" lon="9.549255"><ele>980.0</ele><time>2026-05-01T11:15:36.868Z</time></trkpt><trkpt lat="44.7654333" lon="9.54935"><ele>978.0</ele><time>2026-05-01T11:15:38.868Z</time></trkpt><trkpt lat="44.7655283" lon="9.549435"><ele>976.0</ele><time>2026-05-01T11:15:40.868Z</time></trkpt><trkpt lat="44.7656167" lon="9.5494917"><ele>974.0</ele><time>2026-05-01T11:15:42.868Z</time></trkpt><trkpt lat="44.7656833" lon="9.5495267"><ele>972.0</ele><time>2026-05-01T11:15:44.868Z</time></trkpt><trkpt lat="44.76579" lon="9.5496167"><ele>971.4000000000001</ele><time>2026-05-01T11:15:46.868Z</time></trkpt><trkpt lat="44.7658933" lon="9.5497117"><ele>970.8000000000001</ele><time>2026-05-01T11:15:48.868Z</time></trkpt><trkpt lat="44.7659467" lon="9.5497617"><ele>970.2</ele><time>2026-05-01T11:15:49.868Z</time></trkpt><trkpt lat="44.7660267" lon="9.549875"><ele>969.6</ele><time>2026-05-01T11:15:51.868Z</time></trkpt><trkpt lat="44.7661033" lon="9.5500017"><ele>969.0</ele><time>2026-05-01T11:15:53.868Z</time></trkpt><trkpt lat="44.7661467" lon="9.5500683"><ele>968.142857142857</ele><time>2026-05-01T11:15:54.868Z</time></trkpt><trkpt lat="44.7661933" lon="9.55013"><ele>967.2857142857142</ele><time>2026-05-01T11:15:55.868Z</time></trkpt><trkpt lat="44.76624" lon="9.55019"><ele>966.4285714285714</ele><time>2026-05-01T11:15:56.868Z</time></trkpt><trkpt lat="44.7663117" lon="9.5503117"><ele>965.5714285714286</ele><time>2026-05-01T11:15:58.868Z</time></trkpt><trkpt lat="44.7663467" lon="9.5503933"><ele>964.7142857142858</ele><time>2026-05-01T11:15:59.868Z</time></trkpt><trkpt lat="44.7663883" lon="9.5504733"><ele>963.857142857143</ele><time>2026-05-01T11:16:00.868Z</time></trkpt><trkpt lat="44.76643" lon="9.55055"><ele>963.0000000000001</ele><time>2026-05-01T11:16:01.868Z</time></trkpt><trkpt lat="44.7665183" lon="9.5506767"><ele>962.1666666666666</ele><time>2026-05-01T11:16:03.868Z</time></trkpt><trkpt lat="44.7666117" lon="9.5507833"><ele>961.3333333333333</ele><time>2026-05-01T11:16:05.868Z</time></trkpt><trkpt lat="44.766665" lon="9.5508317"><ele>960.5</ele><time>2026-05-01T11:16:06.868Z</time></trkpt><trkpt lat="44.7667583" lon="9.5509167"><ele>959.6666666666666</ele><time>2026-05-01T11:16:08.868Z</time></trkpt><trkpt lat="44.7668083" lon="9.5509833"><ele>958.8333333333333</ele><time>2026-05-01T11:16:10.868Z</time></trkpt><trkpt lat="44.76688" lon="9.5510267"><ele>958.0</ele><time>2026-05-01T11:16:14.868Z</time></trkpt><trkpt lat="44.7669517" lon="9.5510117"><ele>957.2</ele><time>2026-05-01T11:16:16.868Z</time></trkpt><trkpt lat="44.767045" lon="9.55095"><ele>956.4</ele><time>2026-05-01T11:16:18.868Z</time></trkpt><trkpt lat="44.7671" lon="9.550905"><ele>955.6000000000001</ele><time>2026-05-01T11:16:19.868Z</time></trkpt><trkpt lat="44.767205" lon="9.55081"><ele>954.8000000000001</ele><time>2026-05-01T11:16:21.869Z</time></trkpt><trkpt lat="44.7673067" lon="9.5507267"><ele>954.0</ele><time>2026-05-01T11:16:23.868Z</time></trkpt><trkpt lat="44.7673983" lon="9.5506717"><ele>954.0</ele><time>2026-05-01T11:16:25.868Z</time></trkpt><trkpt lat="44.7674783" lon="9.550625"><ele>954.0</ele><time>2026-05-01T11:16:27.868Z</time></trkpt><trkpt lat="44.7675467" lon="9.550575"><ele>954.0</ele><time>2026-05-01T11:16:29.868Z</time></trkpt><trkpt lat="44.7676283" lon="9.5505633"><ele>954.0</ele><time>2026-05-01T11:16:32.868Z</time></trkpt><trkpt lat="44.76769" lon="9.5505883"><ele>954.0</ele><time>2026-05-01T11:16:34.868Z</time></trkpt><trkpt lat="44.7677717" lon="9.550595"><ele>954.0</ele><time>2026-05-01T11:16:36.868Z</time></trkpt><trkpt lat="44.767875" lon="9.5505633"><ele>953.2</ele><time>2026-05-01T11:16:38.868Z</time></trkpt><trkpt lat="44.76799" lon="9.550535"><ele>952.4000000000001</ele><time>2026-05-01T11:16:40.868Z</time></trkpt><trkpt lat="44.7680533" lon="9.5505117"><ele>951.6</ele><time>2026-05-01T11:16:41.868Z</time></trkpt><trkpt lat="44.7681133" lon="9.5504767"><ele>950.8</ele><time>2026-05-01T11:16:42.868Z</time></trkpt><trkpt lat="44.7682083" lon="9.550415"><ele>950.0</ele><time>2026-05-01T11:16:44.868Z</time></trkpt><trkpt lat="44.7682967" lon="9.5503017"><ele>949.4</ele><time>2026-05-01T11:16:46.868Z</time></trkpt><trkpt lat="44.76835" lon="9.5501567"><ele>948.8</ele><time>2026-05-01T11:16:48.868Z</time></trkpt><trkpt lat="44.7683883" lon="9.5500383"><ele>948.2</ele><time>2026-05-01T11:16:50.868Z</time></trkpt><trkpt lat="44.7684283" lon="9.549925"><ele>947.6</ele><time>2026-05-01T11:16:53.868Z</time></trkpt><trkpt lat="44.7684817" lon="9.5498467"><ele>947.0</ele><time>2026-05-01T11:16:55.868Z</time></trkpt><trkpt lat="44.7685383" lon="9.5497683"><ele>945.5000000000001</ele><time>2026-05-01T11:16:58.868Z</time></trkpt><trkpt lat="44.7686083" lon="9.54963"><ele>944.0</ele><time>2026-05-01T11:17:03.868Z</time></trkpt><trkpt lat="44.7686717" lon="9.5495833"><ele>942.5</ele><time>2026-05-01T11:17:06.869Z</time></trkpt><trkpt lat="44.768745" lon="9.54952"><ele>941.0</ele><time>2026-05-01T11:17:09.868Z</time></trkpt><trkpt lat="44.7688083" lon="9.54946"><ele>939.5000000000001</ele><time>2026-05-01T11:17:10.868Z</time></trkpt><trkpt lat="44.7688733" lon="9.549395"><ele>938.0</ele><time>2026-05-01T11:17:12.868Z</time></trkpt><trkpt lat="44.7689317" lon="9.5493517"><ele>937.5</ele><time>2026-05-01T11:17:13.868Z</time></trkpt><trkpt lat="44.7690133" lon="9.5493083"><ele>937.0</ele><time>2026-05-01T11:17:16.868Z</time></trkpt><trkpt lat="44.7691133" lon="9.5492933"><ele>936.5</ele><time>2026-05-01T11:17:17.868Z</time></trkpt><trkpt lat="44.7692733" lon="9.5492567"><ele>936.0</ele><time>2026-05-01T11:17:19.868Z</time></trkpt><trkpt lat="44.7693933" lon="9.54927"><ele>934.5999999999999</ele><time>2026-05-01T11:17:21.868Z</time></trkpt><trkpt lat="44.769465" lon="9.5493017"><ele>933.1999999999999</ele><time>2026-05-01T11:17:22.868Z</time></trkpt><trkpt lat="44.7695683" lon="9.54933"><ele>931.8000000000001</ele><time>2026-05-01T11:17:23.868Z</time></trkpt><trkpt lat="44.76967" lon="9.5493817"><ele>930.4000000000001</ele><time>2026-05-01T11:17:24.869Z</time></trkpt><trkpt lat="44.76976" lon="9.5494433"><ele>929.0</ele><time>2026-05-01T11:17:25.868Z</time></trkpt><trkpt lat="44.769835" lon="9.5495083"><ele>928.8000000000001</ele><time>2026-05-01T11:17:26.868Z</time></trkpt><trkpt lat="44.7698783" lon="9.5495767"><ele>928.6000000000001</ele><time>2026-05-01T11:17:27.868Z</time></trkpt><trkpt lat="44.7699317" lon="9.5496667"><ele>928.4</ele><time>2026-05-01T11:17:29.868Z</time></trkpt><trkpt lat="44.7700167" lon="9.5498267"><ele>928.2</ele><time>2026-05-01T11:17:44.868Z</time></trkpt><trkpt lat="44.77007" lon="9.5500067"><ele>928.0</ele><time>2026-05-01T11:17:54.868Z</time></trkpt><trkpt lat="44.77013" lon="9.5501033"><ele>926.4</ele><time>2026-05-01T11:17:57.868Z</time></trkpt><trkpt lat="44.7701933" lon="9.5501867"><ele>924.8</ele><time>2026-05-01T11:17:59.868Z</time></trkpt><trkpt lat="44.7702517" lon="9.55028"><ele>923.2</ele><time>2026-05-01T11:18:01.868Z</time></trkpt><trkpt lat="44.770285" lon="9.550395"><ele>921.6</ele><time>2026-05-01T11:18:02.868Z</time></trkpt><trkpt lat="44.7703533" lon="9.5505617"><ele>920.0</ele><time>2026-05-01T11:18:04.868Z</time></trkpt><trkpt lat="44.7703917" lon="9.5506483"><ele>919.6666666666667</ele><time>2026-05-01T11:18:05.868Z</time></trkpt><trkpt lat="44.77043" lon="9.5507333"><ele>919.3333333333334</ele><time>2026-05-01T11:18:06.868Z</time></trkpt><trkpt lat="44.7704833" lon="9.550845"><ele>919.0</ele><time>2026-05-01T11:18:08.868Z</time></trkpt><trkpt lat="44.770555" lon="9.5509167"><ele>918.6666666666667</ele><time>2026-05-01T11:18:10.868Z</time></trkpt><trkpt lat="44.7706367" lon="9.5509417"><ele>918.3333333333334</ele><time>2026-05-01T11:18:12.868Z</time></trkpt><trkpt lat="44.7707167" lon="9.5509183"><ele>918.0</ele><time>2026-05-01T11:18:14.868Z</time></trkpt><trkpt lat="44.770795" lon="9.550875"><ele>918.0</ele><time>2026-05-01T11:18:16.868Z</time></trkpt><trkpt lat="44.7708433" lon="9.5508167"><ele>918.0</ele><time>2026-05-01T11:18:18.869Z</time></trkpt><trkpt lat="44.7708957" lon="9.5507416"><ele>918.0</ele><time>2026-05-01T11:18:23.829Z</time></trkpt><trkpt lat="44.7709308" lon="9.5506639"><ele>918.0</ele><time>2026-05-01T11:18:25.869Z</time></trkpt><trkpt lat="44.7709744" lon="9.5505792"><ele>918.0</ele><time>2026-05-01T11:18:27.949Z</time></trkpt><trkpt lat="44.7710149" lon="9.5505035"><ele>918.0</ele><time>2026-05-01T11:18:29.921Z</time></trkpt><trkpt lat="44.771115" lon="9.5502683"><ele>914.4</ele><time>2026-05-01T11:18:32.868Z</time></trkpt><trkpt lat="44.7711933" lon="9.55019"><ele>910.8</ele><time>2026-05-01T11:18:34.868Z</time></trkpt><trkpt lat="44.77125" lon="9.5501433"><ele>907.2</ele><time>2026-05-01T11:18:35.868Z</time></trkpt><trkpt lat="44.7713567" lon="9.5501"><ele>903.6</ele><time>2026-05-01T11:18:37.869Z</time></trkpt><trkpt lat="44.7714617" lon="9.5500833"><ele>900.0</ele><time>2026-05-01T11:18:39.868Z</time></trkpt><trkpt lat="44.7715333" lon="9.55006"><ele>900.0</ele><time>2026-05-01T11:18:40.868Z</time></trkpt><trkpt lat="44.7716267" lon="9.5500333"><ele>900.0</ele><time>2026-05-01T11:18:42.868Z</time></trkpt><trkpt lat="44.7717" lon="9.5500217"><ele>900.0</ele><time>2026-05-01T11:18:45.868Z</time></trkpt><trkpt lat="44.7717833" lon="9.5500133"><ele>900.0</ele><time>2026-05-01T11:18:48.868Z</time></trkpt><trkpt lat="44.7718667" lon="9.5500367"><ele>900.0</ele><time>2026-05-01T11:18:51.868Z</time></trkpt><trkpt lat="44.7719583" lon="9.5500583"><ele>900.0</ele><time>2026-05-01T11:18:53.868Z</time></trkpt><trkpt lat="44.7720417" lon="9.5500733"><ele>899.0</ele><time>2026-05-01T11:18:55.868Z</time></trkpt><trkpt lat="44.77212" lon="9.5501"><ele>898.0</ele><time>2026-05-01T11:18:57.868Z</time></trkpt><trkpt lat="44.7721833" lon="9.550155"><ele>897.0</ele><time>2026-05-01T11:18:59.868Z</time></trkpt><trkpt lat="44.7722717" lon="9.5502533"><ele>896.0</ele><time>2026-05-01T11:19:01.868Z</time></trkpt><trkpt lat="44.7723683" lon="9.5503883"><ele>895.0</ele><time>2026-05-01T11:19:03.868Z</time></trkpt><trkpt lat="44.7724167" lon="9.5504717"><ele>894.9999999999999</ele><time>2026-05-01T11:19:04.868Z</time></trkpt><trkpt lat="44.7724633" lon="9.55055"><ele>895.0</ele><time>2026-05-01T11:19:05.868Z</time></trkpt><trkpt lat="44.77251" lon="9.55063"><ele>895.0</ele><time>2026-05-01T11:19:06.868Z</time></trkpt><trkpt lat="44.77256" lon="9.5507117"><ele>895.0</ele><time>2026-05-01T11:19:07.868Z</time></trkpt><trkpt lat="44.7726217" lon="9.5507983"><ele>894.9999999999999</ele><time>2026-05-01T11:19:08.868Z</time></trkpt><trkpt lat="44.772695" lon="9.550895"><ele>895.0</ele><time>2026-05-01T11:19:09.868Z</time></trkpt><trkpt lat="44.7727617" lon="9.5510167"><ele>893.9999999999999</ele><time>2026-05-01T11:19:10.868Z</time></trkpt><trkpt lat="44.7728133" lon="9.5511083"><ele>893.0</ele><time>2026-05-01T11:19:11.869Z</time></trkpt><trkpt lat="44.7728617" lon="9.5512033"><ele>892.0</ele><time>2026-05-01T11:19:12.868Z</time></trkpt><trkpt lat="44.7729017" lon="9.55129"><ele>891.0</ele><time>2026-05-01T11:19:13.868Z</time></trkpt><trkpt lat="44.7729433" lon="9.551425"><ele>889.9999999999999</ele><time>2026-05-01T11:19:15.868Z</time></trkpt><trkpt lat="44.7729867" lon="9.5515083"><ele>889.0</ele><time>2026-05-01T11:19:18.868Z</time></trkpt><trkpt lat="44.77307" lon="9.5515383"><ele>889.0</ele><time>2026-05-01T11:19:21.868Z</time></trkpt><trkpt lat="44.773165" lon="9.5515533"><ele>889.0000000000001</ele><time>2026-05-01T11:19:23.868Z</time></trkpt><trkpt lat="44.77326" lon="9.5515483"><ele>889.0000000000001</ele><time>2026-05-01T11:19:25.868Z</time></trkpt><trkpt lat="44.773345" lon="9.5515583"><ele>889.0</ele><time>2026-05-01T11:19:27.868Z</time></trkpt><trkpt lat="44.7734133" lon="9.5515217"><ele>889.0</ele><time>2026-05-01T11:19:28.868Z</time></trkpt><trkpt lat="44.773525" lon="9.5514533"><ele>889.8333333333333</ele><time>2026-05-01T11:19:30.868Z</time></trkpt><trkpt lat="44.7735883" lon="9.55142"><ele>890.6666666666666</ele><time>2026-05-01T11:19:31.868Z</time></trkpt><trkpt lat="44.773665" lon="9.5513617"><ele>891.5</ele><time>2026-05-01T11:19:32.868Z</time></trkpt><trkpt lat="44.77374" lon="9.55127"><ele>892.3333333333333</ele><time>2026-05-01T11:19:33.868Z</time></trkpt><trkpt lat="44.7738167" lon="9.55121"><ele>893.1666666666666</ele><time>2026-05-01T11:19:34.868Z</time></trkpt><trkpt lat="44.7738867" lon="9.5511733"><ele>894.0</ele><time>2026-05-01T11:19:35.869Z</time></trkpt><trkpt lat="44.7739817" lon="9.5511317"><ele>892.0</ele><time>2026-05-01T11:19:36.869Z</time></trkpt><trkpt lat="44.7740717" lon="9.5511067"><ele>890.0</ele><time>2026-05-01T11:19:37.868Z</time></trkpt><trkpt lat="44.7741467" lon="9.5510783"><ele>888.0</ele><time>2026-05-01T11:19:38.868Z</time></trkpt><trkpt lat="44.7742183" lon="9.55105"><ele>886.0</ele><time>2026-05-01T11:19:39.868Z</time></trkpt><trkpt lat="44.7742933" lon="9.551035"><ele>884.0</ele><time>2026-05-01T11:19:40.868Z</time></trkpt><trkpt lat="44.7743817" lon="9.551025"><ele>882.0</ele><time>2026-05-01T11:19:41.868Z</time></trkpt><trkpt lat="44.77447" lon="9.551025"><ele>880.5</ele><time>2026-05-01T11:19:42.868Z</time></trkpt><trkpt lat="44.7745333" lon="9.5510483"><ele>879.0</ele><time>2026-05-01T11:19:43.868Z</time></trkpt><trkpt lat="44.7746317" lon="9.5510817"><ele>877.5</ele><time>2026-05-01T11:19:44.868Z</time></trkpt><trkpt lat="44.7747133" lon="9.5511233"><ele>876.0</ele><time>2026-05-01T11:19:45.868Z</time></trkpt><trkpt lat="44.7748167" lon="9.5511567"><ele>874.5</ele><time>2026-05-01T11:19:46.868Z</time></trkpt><trkpt lat="44.774905" lon="9.5511783"><ele>873.0</ele><time>2026-05-01T11:19:47.868Z</time></trkpt><trkpt lat="44.775" lon="9.551195"><ele>870.4</ele><time>2026-05-01T11:19:48.868Z</time></trkpt><trkpt lat="44.7751283" lon="9.5512183"><ele>867.8</ele><time>2026-05-01T11:19:49.868Z</time></trkpt><trkpt lat="44.7751933" lon="9.5512617"><ele>865.2</ele><time>2026-05-01T11:19:50.868Z</time></trkpt><trkpt lat="44.7752467" lon="9.5513433"><ele>862.6</ele><time>2026-05-01T11:19:51.868Z</time></trkpt><trkpt lat="44.7753133" lon="9.5514917"><ele>860.0</ele><time>2026-05-01T11:19:53.868Z</time></trkpt><trkpt lat="44.7753483" lon="9.5516167"><ele>860.0000000000001</ele><time>2026-05-01T11:19:54.868Z</time></trkpt><trkpt lat="44.7753783" lon="9.55173"><ele>860.0</ele><time>2026-05-01T11:19:55.868Z</time></trkpt><trkpt lat="44.77542" lon="9.5518467"><ele>860.0</ele><time>2026-05-01T11:19:56.868Z</time></trkpt><trkpt lat="44.7754483" lon="9.5519383"><ele>860.0</ele><time>2026-05-01T11:19:57.868Z</time></trkpt><trkpt lat="44.7754917" lon="9.552025"><ele>860.0000000000001</ele><time>2026-05-01T11:19:58.868Z</time></trkpt><trkpt lat="44.7755383" lon="9.5520967"><ele>860.0</ele><time>2026-05-01T11:19:59.868Z</time></trkpt><trkpt lat="44.7756033" lon="9.5521733"><ele>862.8</ele><time>2026-05-01T11:20:01.868Z</time></trkpt><trkpt lat="44.7756917" lon="9.5522833"><ele>865.6</ele><time>2026-05-01T11:20:03.868Z</time></trkpt><trkpt lat="44.7757417" lon="9.5523617"><ele>868.4000000000001</ele><time>2026-05-01T11:20:04.868Z</time></trkpt><trkpt lat="44.775795" lon="9.5524383"><ele>871.2</ele><time>2026-05-01T11:20:05.868Z</time></trkpt><trkpt lat="44.7758717" lon="9.552515"><ele>874.0</ele><time>2026-05-01T11:20:06.868Z</time></trkpt><trkpt lat="44.7759483" lon="9.5525767"><ele>871.8000000000001</ele><time>2026-05-01T11:20:07.868Z</time></trkpt><trkpt lat="44.776035" lon="9.55264"><ele>869.6000000000001</ele><time>2026-05-01T11:20:08.868Z</time></trkpt><trkpt lat="44.7761233" lon="9.552695"><ele>867.4</ele><time>2026-05-01T11:20:09.868Z</time></trkpt><trkpt lat="44.7762083" lon="9.552745"><ele>865.2</ele><time>2026-05-01T11:20:10.868Z</time></trkpt><trkpt lat="44.7762917" lon="9.552795"><ele>863.0</ele><time>2026-05-01T11:20:11.868Z</time></trkpt><trkpt lat="44.7763767" lon="9.552845"><ele>865.8333333333334</ele><time>2026-05-01T11:20:12.868Z</time></trkpt><trkpt lat="44.7764667" lon="9.552905"><ele>868.6666666666667</ele><time>2026-05-01T11:20:13.868Z</time></trkpt><trkpt lat="44.776555" lon="9.5529617"><ele>871.5</ele><time>2026-05-01T11:20:14.868Z</time></trkpt><trkpt lat="44.77664" lon="9.55302"><ele>874.3333333333333</ele><time>2026-05-01T11:20:15.868Z</time></trkpt><trkpt lat="44.776715" lon="9.553065"><ele>877.1666666666666</ele><time>2026-05-01T11:20:16.868Z</time></trkpt><trkpt lat="44.77678" lon="9.5530767"><ele>880.0</ele><time>2026-05-01T11:20:17.868Z</time></trkpt><trkpt lat="44.7768467" lon="9.55308"><ele>879.4285714285713</ele><time>2026-05-01T11:20:18.868Z</time></trkpt><trkpt lat="44.7769167" lon="9.5530817"><ele>878.8571428571429</ele><time>2026-05-01T11:20:19.868Z</time></trkpt><trkpt lat="44.77699" lon="9.5530867"><ele>878.2857142857142</ele><time>2026-05-01T11:20:20.868Z</time></trkpt><trkpt lat="44.7770617" lon="9.5530817"><ele>877.7142857142857</ele><time>2026-05-01T11:20:21.868Z</time></trkpt><trkpt lat="44.77714" lon="9.5530733"><ele>877.1428571428571</ele><time>2026-05-01T11:20:22.868Z</time></trkpt><trkpt lat="44.777215" lon="9.55307"><ele>876.5714285714286</ele><time>2026-05-01T11:20:23.868Z</time></trkpt><trkpt lat="44.77729" lon="9.5530617"><ele>876.0</ele><time>2026-05-01T11:20:24.868Z</time></trkpt><trkpt lat="44.7773533" lon="9.5530467"><ele>876.0</ele><time>2026-05-01T11:20:25.868Z</time></trkpt><trkpt lat="44.777425" lon="9.5530233"><ele>876.0</ele><time>2026-05-01T11:20:26.868Z</time></trkpt><trkpt lat="44.7774967" lon="9.552975"><ele>876.0</ele><time>2026-05-01T11:20:27.869Z</time></trkpt><trkpt lat="44.7775833" lon="9.55293"><ele>876.0</ele><time>2026-05-01T11:20:28.868Z</time></trkpt><trkpt lat="44.777655" lon="9.5528717"><ele>876.0</ele><time>2026-05-01T11:20:29.868Z</time></trkpt><trkpt lat="44.7777183" lon="9.5528083"><ele>876.0</ele><time>2026-05-01T11:20:30.868Z</time></trkpt><trkpt lat="44.7777633" lon="9.5527183"><ele>875.1666666666666</ele><time>2026-05-01T11:20:31.868Z</time></trkpt><trkpt lat="44.777815" lon="9.5526367"><ele>874.3333333333333</ele><time>2026-05-01T11:20:32.868Z</time></trkpt><trkpt lat="44.7778633" lon="9.5525667"><ele>873.5</ele><time>2026-05-01T11:20:33.868Z</time></trkpt><trkpt lat="44.7779117" lon="9.5524917"><ele>872.6666666666666</ele><time>2026-05-01T11:20:34.868Z</time></trkpt><trkpt lat="44.7779633" lon="9.552405"><ele>871.8333333333333</ele><time>2026-05-01T11:20:35.868Z</time></trkpt><trkpt lat="44.7780133" lon="9.5523183"><ele>871.0</ele><time>2026-05-01T11:20:36.868Z</time></trkpt><trkpt lat="44.778155" lon="9.5520817"><ele>871.0</ele><time>2026-05-01T11:20:38.868Z</time></trkpt><trkpt lat="44.7782517" lon="9.5519833"><ele>870.9999999999999</ele><time>2026-05-01T11:20:40.868Z</time></trkpt><trkpt lat="44.7783417" lon="9.552015"><ele>870.9999999999999</ele><time>2026-05-01T11:20:43.869Z</time></trkpt><trkpt lat="44.778425" lon="9.5521267"><ele>871.0</ele><time>2026-05-01T11:20:45.868Z</time></trkpt><trkpt lat="44.7784733" lon="9.5521867"><ele>871.0</ele><time>2026-05-01T11:20:46.868Z</time></trkpt><trkpt lat="44.7785333" lon="9.5522667"><ele>869.2857142857142</ele><time>2026-05-01T11:20:47.868Z</time></trkpt><trkpt lat="44.7785967" lon="9.5523317"><ele>867.5714285714286</ele><time>2026-05-01T11:20:48.868Z</time></trkpt><trkpt lat="44.7786533" lon="9.55238"><ele>865.8571428571429</ele><time>2026-05-01T11:20:49.868Z</time></trkpt><trkpt lat="44.7787167" lon="9.552425"><ele>864.1428571428571</ele><time>2026-05-01T11:20:50.868Z</time></trkpt><trkpt lat="44.778785" lon="9.552475"><ele>862.4285714285714</ele><time>2026-05-01T11:20:51.868Z</time></trkpt><trkpt lat="44.7788467" lon="9.55251"><ele>860.7142857142857</ele><time>2026-05-01T11:20:52.868Z</time></trkpt><trkpt lat="44.7789217" lon="9.5525583"><ele>859.0</ele><time>2026-05-01T11:20:53.868Z</time></trkpt><trkpt lat="44.7789817" lon="9.5525867"><ele>858.9999999999999</ele><time>2026-05-01T11:20:54.868Z</time></trkpt><trkpt lat="44.7790467" lon="9.5526267"><ele>859.0</ele><time>2026-05-01T11:20:55.868Z</time></trkpt><trkpt lat="44.7791367" lon="9.5526333"><ele>859.0</ele><time>2026-05-01T11:20:58.868Z</time></trkpt><trkpt lat="44.7792167" lon="9.5526417"><ele>859.0</ele><time>2026-05-01T11:21:00.868Z</time></trkpt><trkpt lat="44.7792917" lon="9.552625"><ele>858.9999999999999</ele><time>2026-05-01T11:21:02.868Z</time></trkpt><trkpt lat="44.7793817" lon="9.5526267"><ele>859.0</ele><time>2026-05-01T11:21:03.868Z</time></trkpt><trkpt lat="44.7794483" lon="9.5526383"><ele>856.5714285714286</ele><time>2026-05-01T11:21:04.868Z</time></trkpt><trkpt lat="44.7795233" lon="9.5526533"><ele>854.1428571428571</ele><time>2026-05-01T11:21:05.868Z</time></trkpt><trkpt lat="44.7796067" lon="9.5526583"><ele>851.7142857142858</ele><time>2026-05-01T11:21:06.868Z</time></trkpt><trkpt lat="44.7796817" lon="9.55267"><ele>849.2857142857142</ele><time>2026-05-01T11:21:07.868Z</time></trkpt><trkpt lat="44.7797483" lon="9.552685"><ele>846.8571428571429</ele><time>2026-05-01T11:21:08.868Z</time></trkpt><trkpt lat="44.77982" lon="9.5527167"><ele>844.4285714285714</ele><time>2026-05-01T11:21:09.868Z</time></trkpt><trkpt lat="44.7798867" lon="9.55275"><ele>842.0</ele><time>2026-05-01T11:21:10.868Z</time></trkpt><trkpt lat="44.7799467" lon="9.5527883"><ele>842.6</ele><time>2026-05-01T11:21:11.868Z</time></trkpt><trkpt lat="44.7800433" lon="9.552885"><ele>843.2</ele><time>2026-05-01T11:21:13.868Z</time></trkpt><trkpt lat="44.7801183" lon="9.5529517"><ele>843.8</ele><time>2026-05-01T11:21:15.868Z</time></trkpt><trkpt lat="44.7802133" lon="9.552995"><ele>844.4</ele><time>2026-05-01T11:21:17.868Z</time></trkpt><trkpt lat="44.7803083" lon="9.5530033"><ele>845.0</ele><time>2026-05-01T11:21:19.868Z</time></trkpt><trkpt lat="44.7803883" lon="9.553005"><ele>841.9999999999999</ele><time>2026-05-01T11:21:21.869Z</time></trkpt><trkpt lat="44.78046" lon="9.5530317"><ele>839.0</ele><time>2026-05-01T11:21:24.868Z</time></trkpt><trkpt lat="44.7805283" lon="9.5530667"><ele>836.0</ele><time>2026-05-01T11:21:27.869Z</time></trkpt><trkpt lat="44.7806117" lon="9.553075"><ele>833.0</ele><time>2026-05-01T11:21:31.868Z</time></trkpt><trkpt lat="44.7806817" lon="9.5530617"><ele>830.0</ele><time>2026-05-01T11:21:33.868Z</time></trkpt><trkpt lat="44.7807517" lon="9.55307"><ele>826.9999999999999</ele><time>2026-05-01T11:21:35.868Z</time></trkpt><trkpt lat="44.7808167" lon="9.5530583"><ele>824.0</ele><time>2026-05-01T11:21:37.868Z</time></trkpt><trkpt lat="44.78088" lon="9.5530533"><ele>824.0</ele><time>2026-05-01T11:21:39.868Z</time></trkpt><trkpt lat="44.7809317" lon="9.55315"><ele>824.0</ele><time>2026-05-01T11:21:43.868Z</time></trkpt><trkpt lat="44.78096" lon="9.5532533"><ele>824.0</ele><time>2026-05-01T11:21:47.868Z</time></trkpt><trkpt lat="44.781025" lon="9.5533217"><ele>824.0</ele><time>2026-05-01T11:21:49.868Z</time></trkpt><trkpt lat="44.7811167" lon="9.5533533"><ele>824.0</ele><time>2026-05-01T11:21:51.868Z</time></trkpt><trkpt lat="44.781265" lon="9.5533383"><ele>820.4000000000001</ele><time>2026-05-01T11:21:53.868Z</time></trkpt><trkpt lat="44.7813483" lon="9.55332"><ele>816.8</ele><time>2026-05-01T11:21:54.868Z</time></trkpt><trkpt lat="44.7814417" lon="9.5532883"><ele>813.2</ele><time>2026-05-01T11:21:55.868Z</time></trkpt><trkpt lat="44.7815367" lon="9.5532533"><ele>809.5999999999999</ele><time>2026-05-01T11:21:56.868Z</time></trkpt><trkpt lat="44.7816667" lon="9.553225"><ele>806.0</ele><time>2026-05-01T11:21:57.868Z</time></trkpt><trkpt lat="44.781795" lon="9.5532267"><ele>802.5999999999999</ele><time>2026-05-01T11:21:58.869Z</time></trkpt><trkpt lat="44.7818867" lon="9.5532017"><ele>799.2</ele><time>2026-05-01T11:21:59.868Z</time></trkpt><trkpt lat="44.7819833" lon="9.5531717"><ele>795.8</ele><time>2026-05-01T11:22:00.868Z</time></trkpt><trkpt lat="44.7820833" lon="9.5531383"><ele>792.4000000000001</ele><time>2026-05-01T11:22:01.868Z</time></trkpt><trkpt lat="44.7821967" lon="9.553105"><ele>789.0</ele><time>2026-05-01T11:22:02.868Z</time></trkpt><trkpt lat="44.782315" lon="9.5530417"><ele>789.0</ele><time>2026-05-01T11:22:03.868Z</time></trkpt><trkpt lat="44.7824417" lon="9.55299"><ele>789.0</ele><time>2026-05-01T11:22:04.868Z</time></trkpt><trkpt lat="44.782565" lon="9.55295"><ele>789.0</ele><time>2026-05-01T11:22:05.868Z</time></trkpt><trkpt lat="44.78268" lon="9.5529117"><ele>789.0</ele><time>2026-05-01T11:22:06.868Z</time></trkpt><trkpt lat="44.78279" lon="9.5528817"><ele>787.75</ele><time>2026-05-01T11:22:07.868Z</time></trkpt><trkpt lat="44.7829083" lon="9.5528483"><ele>786.5</ele><time>2026-05-01T11:22:08.868Z</time></trkpt><trkpt lat="44.783035" lon="9.55281"><ele>785.25</ele><time>2026-05-01T11:22:09.868Z</time></trkpt><trkpt lat="44.7831433" lon="9.5527867"><ele>784.0</ele><time>2026-05-01T11:22:10.868Z</time></trkpt><trkpt lat="44.783245" lon="9.5527567"><ele>784.0</ele><time>2026-05-01T11:22:11.869Z</time></trkpt><trkpt lat="44.7833533" lon="9.5527383"><ele>784.0</ele><time>2026-05-01T11:22:12.869Z</time></trkpt><trkpt lat="44.7834633" lon="9.5527217"><ele>784.0</ele><time>2026-05-01T11:22:13.868Z</time></trkpt><trkpt lat="44.7835883" lon="9.55271"><ele>784.0</ele><time>2026-05-01T11:22:14.868Z</time></trkpt><trkpt lat="44.7836933" lon="9.5526867"><ele>783.3333333333333</ele><time>2026-05-01T11:22:15.868Z</time></trkpt><trkpt lat="44.783795" lon="9.5526667"><ele>782.6666666666666</ele><time>2026-05-01T11:22:16.868Z</time></trkpt><trkpt lat="44.783885" lon="9.5526583"><ele>782.0</ele><time>2026-05-01T11:22:17.868Z</time></trkpt><trkpt lat="44.7839633" lon="9.55265"><ele>781.3333333333333</ele><time>2026-05-01T11:22:18.869Z</time></trkpt><trkpt lat="44.78404" lon="9.5526433"><ele>780.6666666666666</ele><time>2026-05-01T11:22:19.868Z</time></trkpt><trkpt lat="44.784115" lon="9.5526417"><ele>780.0</ele><time>2026-05-01T11:22:20.868Z</time></trkpt><trkpt lat="44.78419" lon="9.5526317"><ele>780.0</ele><time>2026-05-01T11:22:21.868Z</time></trkpt><trkpt lat="44.7842567" lon="9.5526133"><ele>780.0</ele><time>2026-05-01T11:22:22.868Z</time></trkpt><trkpt lat="44.784345" lon="9.5525667"><ele>780.0</ele><time>2026-05-01T11:22:24.868Z</time></trkpt><trkpt lat="44.7843767" lon="9.5524833"><ele>780.0</ele><time>2026-05-01T11:22:27.868Z</time></trkpt><trkpt lat="44.7843333" lon="9.5523967"><ele>780.0</ele><time>2026-05-01T11:22:29.868Z</time></trkpt><trkpt lat="44.78431" lon="9.552285"><ele>780.0</ele><time>2026-05-01T11:22:32.868Z</time></trkpt><trkpt lat="44.784335" lon="9.552175"><ele>780.0</ele><time>2026-05-01T11:22:35.868Z</time></trkpt><trkpt lat="44.7844117" lon="9.5521283"><ele>780.0</ele><time>2026-05-01T11:22:40.869Z</time></trkpt><trkpt lat="44.7845" lon="9.5520883"><ele>780.0</ele><time>2026-05-01T11:22:42.868Z</time></trkpt><trkpt lat="44.7845617" lon="9.5520417"><ele>780.0</ele><time>2026-05-01T11:22:44.868Z</time></trkpt><trkpt lat="44.7846417" lon="9.5519833"><ele>780.0</ele><time>2026-05-01T11:22:47.868Z</time></trkpt><trkpt lat="44.7847183" lon="9.5518733"><ele>780.0</ele><time>2026-05-01T11:22:48.868Z</time></trkpt><trkpt lat="44.7848217" lon="9.5518"><ele>779.4285714285714</ele><time>2026-05-01T11:22:50.868Z</time></trkpt><trkpt lat="44.7848817" lon="9.551755"><ele>778.8571428571429</ele><time>2026-05-01T11:22:51.868Z</time></trkpt><trkpt lat="44.784945" lon="9.5517233"><ele>778.2857142857142</ele><time>2026-05-01T11:22:52.868Z</time></trkpt><trkpt lat="44.7850167" lon="9.5516933"><ele>777.7142857142858</ele><time>2026-05-01T11:22:53.868Z</time></trkpt><trkpt lat="44.78508" lon="9.5516667"><ele>777.1428571428572</ele><time>2026-05-01T11:22:54.868Z</time></trkpt><trkpt lat="44.785145" lon="9.5516433"><ele>776.5714285714286</ele><time>2026-05-01T11:22:55.868Z</time></trkpt><trkpt lat="44.7852067" lon="9.5516183"><ele>776.0</ele><time>2026-05-01T11:22:56.868Z</time></trkpt><trkpt lat="44.7852817" lon="9.551595"><ele>774.1999999999999</ele><time>2026-05-01T11:22:57.868Z</time></trkpt><trkpt lat="44.7853483" lon="9.5515783"><ele>772.4</ele><time>2026-05-01T11:22:58.868Z</time></trkpt><trkpt lat="44.7854533" lon="9.5515617"><ele>770.6</ele><time>2026-05-01T11:23:00.868Z</time></trkpt><trkpt lat="44.7855317" lon="9.5515783"><ele>768.8</ele><time>2026-05-01T11:23:02.868Z</time></trkpt><trkpt lat="44.7856267" lon="9.55159"><ele>767.0</ele><time>2026-05-01T11:23:04.868Z</time></trkpt><trkpt lat="44.785745" lon="9.5515933"><ele>767.0</ele><time>2026-05-01T11:23:06.868Z</time></trkpt><trkpt lat="44.785835" lon="9.5516133"><ele>767.0</ele><time>2026-05-01T11:23:08.868Z</time></trkpt><trkpt lat="44.7858967" lon="9.5516417"><ele>767.0</ele><time>2026-05-01T11:23:11.868Z</time></trkpt><trkpt lat="44.78596" lon="9.551665"><ele>767.0</ele><time>2026-05-01T11:23:14.868Z</time></trkpt><trkpt lat="44.786055" lon="9.551695"><ele>767.0</ele><time>2026-05-01T11:23:17.868Z</time></trkpt><trkpt lat="44.7861383" lon="9.5517167"><ele>767.0</ele><time>2026-05-01T11:23:19.868Z</time></trkpt><trkpt lat="44.7862117" lon="9.551735"><ele>765.8</ele><time>2026-05-01T11:23:21.868Z</time></trkpt><trkpt lat="44.78628" lon="9.5517183"><ele>764.6</ele><time>2026-05-01T11:23:24.868Z</time></trkpt><trkpt lat="44.7863667" lon="9.55169"><ele>763.4</ele><time>2026-05-01T11:23:28.868Z</time></trkpt><trkpt lat="44.7864517" lon="9.5516633"><ele>762.1999999999999</ele><time>2026-05-01T11:23:30.868Z</time></trkpt><trkpt lat="44.7865767" lon="9.5516617"><ele>761.0</ele><time>2026-05-01T11:23:32.868Z</time></trkpt><trkpt lat="44.7866917" lon="9.5516617"><ele>761.0</ele><time>2026-05-01T11:23:34.868Z</time></trkpt><trkpt lat="44.7868117" lon="9.55167"><ele>761.0</ele><time>2026-05-01T11:23:36.868Z</time></trkpt><trkpt lat="44.7869383" lon="9.551675"><ele>761.0</ele><time>2026-05-01T11:23:38.868Z</time></trkpt><trkpt lat="44.7870017" lon="9.551665"><ele>761.0</ele><time>2026-05-01T11:23:39.868Z</time></trkpt><trkpt lat="44.7871317" lon="9.551635"><ele>761.0</ele><time>2026-05-01T11:23:41.868Z</time></trkpt><trkpt lat="44.7872183" lon="9.5516217"><ele>760.8</ele><time>2026-05-01T11:23:42.868Z</time></trkpt><trkpt lat="44.7873217" lon="9.5515767"><ele>760.5999999999999</ele><time>2026-05-01T11:23:43.869Z</time></trkpt><trkpt lat="44.7874217" lon="9.5515133"><ele>760.4</ele><time>2026-05-01T11:23:44.868Z</time></trkpt><trkpt lat="44.787515" lon="9.5514517"><ele>760.2</ele><time>2026-05-01T11:23:45.868Z</time></trkpt><trkpt lat="44.787605" lon="9.5513833"><ele>760.0</ele><time>2026-05-01T11:23:46.868Z</time></trkpt><trkpt lat="44.78769" lon="9.5513067"><ele>761.3333333333334</ele><time>2026-05-01T11:23:47.868Z</time></trkpt><trkpt lat="44.7877583" lon="9.55124"><ele>762.6666666666667</ele><time>2026-05-01T11:23:48.868Z</time></trkpt><trkpt lat="44.7878233" lon="9.5511717"><ele>764.0</ele><time>2026-05-01T11:23:49.868Z</time></trkpt><trkpt lat="44.787885" lon="9.551105"><ele>765.3333333333334</ele><time>2026-05-01T11:23:50.868Z</time></trkpt><trkpt lat="44.7879517" lon="9.5510367"><ele>766.6666666666666</ele><time>2026-05-01T11:23:51.868Z</time></trkpt><trkpt lat="44.78801" lon="9.55098"><ele>768.0</ele><time>2026-05-01T11:23:52.868Z</time></trkpt><trkpt lat="44.788065" lon="9.5509317"><ele>768.4</ele><time>2026-05-01T11:23:53.869Z</time></trkpt><trkpt lat="44.7881517" lon="9.55085"><ele>768.8</ele><time>2026-05-01T11:23:55.868Z</time></trkpt><trkpt lat="44.7882183" lon="9.5507683"><ele>769.2</ele><time>2026-05-01T11:23:57.868Z</time></trkpt><trkpt lat="44.7882883" lon="9.5507083"><ele>769.6</ele><time>2026-05-01T11:23:59.869Z</time></trkpt><trkpt lat="44.7883633" lon="9.5506633"><ele>770.0</ele><time>2026-05-01T11:24:01.868Z</time></trkpt><trkpt lat="44.7884483" lon="9.5505967"><ele>770.4</ele><time>2026-05-01T11:24:03.868Z</time></trkpt><trkpt lat="44.78854" lon="9.5505333"><ele>770.8</ele><time>2026-05-01T11:24:05.868Z</time></trkpt><trkpt lat="44.78864" lon="9.5504467"><ele>771.2</ele><time>2026-05-01T11:24:07.868Z</time></trkpt><trkpt lat="44.7887367" lon="9.5503567"><ele>771.6</ele><time>2026-05-01T11:24:09.868Z</time></trkpt><trkpt lat="44.7887967" lon="9.55031"><ele>772.0</ele><time>2026-05-01T11:24:10.868Z</time></trkpt><trkpt lat="44.788855" lon="9.5502683"><ele>771.9999999999999</ele><time>2026-05-01T11:24:11.869Z</time></trkpt><trkpt lat="44.78892" lon="9.55022"><ele>772.0</ele><time>2026-05-01T11:24:12.868Z</time></trkpt><trkpt lat="44.7889883" lon="9.5501667"><ele>772.0</ele><time>2026-05-01T11:24:13.868Z</time></trkpt><trkpt lat="44.78906" lon="9.5501233"><ele>772.0</ele><time>2026-05-01T11:24:14.868Z</time></trkpt><trkpt lat="44.7891233" lon="9.550095"><ele>771.9999999999999</ele><time>2026-05-01T11:24:15.868Z</time></trkpt><trkpt lat="44.78919" lon="9.55007"><ele>772.0</ele><time>2026-05-01T11:24:16.868Z</time></trkpt><trkpt lat="44.7892933" lon="9.5500283"><ele>771.6</ele><time>2026-05-01T11:24:18.868Z</time></trkpt><trkpt lat="44.789395" lon="9.5499867"><ele>771.2</ele><time>2026-05-01T11:24:20.868Z</time></trkpt><trkpt lat="44.7895167" lon="9.5499333"><ele>770.8</ele><time>2026-05-01T11:24:22.868Z</time></trkpt><trkpt lat="44.7896183" lon="9.5499"><ele>770.4</ele><time>2026-05-01T11:24:24.868Z</time></trkpt><trkpt lat="44.78972" lon="9.5499"><ele>770.0</ele><time>2026-05-01T11:24:26.868Z</time></trkpt><trkpt lat="44.789835" lon="9.5499067"><ele>770.0000000000001</ele><time>2026-05-01T11:24:28.868Z</time></trkpt><trkpt lat="44.7899467" lon="9.5498633"><ele>770.0</ele><time>2026-05-01T11:24:30.869Z</time></trkpt><trkpt lat="44.7899983" lon="9.5497933"><ele>770.0</ele><time>2026-05-01T11:24:31.868Z</time></trkpt><trkpt lat="44.7900533" lon="9.5497283"><ele>770.0</ele><time>2026-05-01T11:24:32.868Z</time></trkpt><trkpt lat="44.7901283" lon="9.54967"><ele>770.0000000000001</ele><time>2026-05-01T11:24:33.868Z</time></trkpt><trkpt lat="44.7902167" lon="9.549625"><ele>770.0</ele><time>2026-05-01T11:24:34.868Z</time></trkpt><trkpt lat="44.7902933" lon="9.549575"><ele>768.8</ele><time>2026-05-01T11:24:35.868Z</time></trkpt><trkpt lat="44.7903667" lon="9.5495467"><ele>767.6</ele><time>2026-05-01T11:24:36.868Z</time></trkpt><trkpt lat="44.7904333" lon="9.5495233"><ele>766.4000000000001</ele><time>2026-05-01T11:24:37.868Z</time></trkpt><trkpt lat="44.7905217" lon="9.54947"><ele>765.2</ele><time>2026-05-01T11:24:39.868Z</time></trkpt><trkpt lat="44.7906433" lon="9.5493817"><ele>764.0</ele><time>2026-05-01T11:24:41.868Z</time></trkpt><trkpt lat="44.7907117" lon="9.5493367"><ele>764.0</ele><time>2026-05-01T11:24:42.868Z</time></trkpt><trkpt lat="44.7907883" lon="9.5492867"><ele>764.0</ele><time>2026-05-01T11:24:43.868Z</time></trkpt><trkpt lat="44.7908683" lon="9.5492483"><ele>764.0</ele><time>2026-05-01T11:24:44.868Z</time></trkpt><trkpt lat="44.790945" lon="9.549215"><ele>764.0</ele><time>2026-05-01T11:24:45.868Z</time></trkpt><trkpt lat="44.7910283" lon="9.549175"><ele>764.0</ele><time>2026-05-01T11:24:46.868Z</time></trkpt><trkpt lat="44.7911083" lon="9.5491333"><ele>764.0</ele><time>2026-05-01T11:24:47.868Z</time></trkpt><trkpt lat="44.7911783" lon="9.5490883"><ele>766.1666666666666</ele><time>2026-05-01T11:24:48.868Z</time></trkpt><trkpt lat="44.7912483" lon="9.5490483"><ele>768.3333333333333</ele><time>2026-05-01T11:24:49.868Z</time></trkpt><trkpt lat="44.7913117" lon="9.5490083"><ele>770.5</ele><time>2026-05-01T11:24:50.868Z</time></trkpt><trkpt lat="44.7913817" lon="9.5489817"><ele>772.6666666666666</ele><time>2026-05-01T11:24:51.868Z</time></trkpt><trkpt lat="44.7914517" lon="9.54896"><ele>774.8333333333334</ele><time>2026-05-01T11:24:52.868Z</time></trkpt><trkpt lat="44.7915617" lon="9.548905"><ele>777.0</ele><time>2026-05-01T11:24:54.868Z</time></trkpt><trkpt lat="44.7916733" lon="9.5488733"><ele>777.0</ele><time>2026-05-01T11:24:56.868Z</time></trkpt><trkpt lat="44.791805" lon="9.5488967"><ele>777.0</ele><time>2026-05-01T11:24:58.868Z</time></trkpt><trkpt lat="44.79188" lon="9.5489033"><ele>777.0</ele><time>2026-05-01T11:24:59.868Z</time></trkpt><trkpt lat="44.7919567" lon="9.5489117"><ele>777.0</ele><time>2026-05-01T11:25:00.868Z</time></trkpt><trkpt lat="44.7920333" lon="9.5489383"><ele>777.0</ele><time>2026-05-01T11:25:01.868Z</time></trkpt><trkpt lat="44.792115" lon="9.54898"><ele>778.8333333333334</ele><time>2026-05-01T11:25:02.868Z</time></trkpt><trkpt lat="44.7922083" lon="9.5489917"><ele>780.6666666666667</ele><time>2026-05-01T11:25:03.868Z</time></trkpt><trkpt lat="44.792285" lon="9.5490033"><ele>782.5</ele><time>2026-05-01T11:25:04.868Z</time></trkpt><trkpt lat="44.7923517" lon="9.5489933"><ele>784.3333333333334</ele><time>2026-05-01T11:25:05.868Z</time></trkpt><trkpt lat="44.7924717" lon="9.5489667"><ele>786.1666666666667</ele><time>2026-05-01T11:25:07.868Z</time></trkpt><trkpt lat="44.7925417" lon="9.548965"><ele>788.0</ele><time>2026-05-01T11:25:08.868Z</time></trkpt><trkpt lat="44.7926117" lon="9.5489733"><ele>790.1666666666667</ele><time>2026-05-01T11:25:09.868Z</time></trkpt><trkpt lat="44.7927267" lon="9.5490133"><ele>792.3333333333334</ele><time>2026-05-01T11:25:11.868Z</time></trkpt><trkpt lat="44.79281" lon="9.5490533"><ele>794.5</ele><time>2026-05-01T11:25:13.869Z</time></trkpt><trkpt lat="44.7928983" lon="9.5490717"><ele>796.6666666666667</ele><time>2026-05-01T11:25:15.868Z</time></trkpt><trkpt lat="44.7929667" lon="9.549075"><ele>798.8333333333334</ele><time>2026-05-01T11:25:17.868Z</time></trkpt><trkpt lat="44.7930383" lon="9.54909"><ele>801.0</ele><time>2026-05-01T11:25:19.868Z</time></trkpt><trkpt lat="44.7931033" lon="9.549135"><ele>801.0</ele><time>2026-05-01T11:25:21.868Z</time></trkpt><trkpt lat="44.7931717" lon="9.5492533"><ele>801.0</ele><time>2026-05-01T11:25:23.868Z</time></trkpt><trkpt lat="44.793245" lon="9.5493683"><ele>801.0</ele><time>2026-05-01T11:25:25.868Z</time></trkpt><trkpt lat="44.7933483" lon="9.5494383"><ele>801.0</ele><time>2026-05-01T11:25:27.869Z</time></trkpt><trkpt lat="44.7934167" lon="9.5494517"><ele>801.0</ele><time>2026-05-01T11:25:28.868Z</time></trkpt><trkpt lat="44.7934917" lon="9.5494533"><ele>803.5999999999999</ele><time>2026-05-01T11:25:29.868Z</time></trkpt><trkpt lat="44.7935967" lon="9.5494683"><ele>806.2</ele><time>2026-05-01T11:25:31.868Z</time></trkpt><trkpt lat="44.79367" lon="9.5495317"><ele>808.8</ele><time>2026-05-01T11:25:33.868Z</time></trkpt><trkpt lat="44.7937317" lon="9.549615"><ele>811.4000000000001</ele><time>2026-05-01T11:25:35.868Z</time></trkpt><trkpt lat="44.7938417" lon="9.54969"><ele>814.0</ele><time>2026-05-01T11:25:37.868Z</time></trkpt><trkpt lat="44.7939033" lon="9.549725"><ele>815.6</ele><time>2026-05-01T11:25:38.868Z</time></trkpt><trkpt lat="44.7940117" lon="9.549785"><ele>817.2</ele><time>2026-05-01T11:25:40.868Z</time></trkpt><trkpt lat="44.7940933" lon="9.549855"><ele>818.8000000000001</ele><time>2026-05-01T11:25:42.868Z</time></trkpt><trkpt lat="44.7941567" lon="9.5499217"><ele>820.4000000000001</ele><time>2026-05-01T11:25:44.868Z</time></trkpt><trkpt lat="44.7942317" lon="9.549975"><ele>822.0</ele><time>2026-05-01T11:25:46.868Z</time></trkpt><trkpt lat="44.7943283" lon="9.5499717"><ele>825.0</ele><time>2026-05-01T11:25:48.868Z</time></trkpt><trkpt lat="44.79444" lon="9.5499517"><ele>828.0</ele><time>2026-05-01T11:25:50.868Z</time></trkpt><trkpt lat="44.7945367" lon="9.5499683"><ele>831.0</ele><time>2026-05-01T11:25:52.868Z</time></trkpt><trkpt lat="44.79461" lon="9.5499733"><ele>834.0</ele><time>2026-05-01T11:25:54.868Z</time></trkpt><trkpt lat="44.7947017" lon="9.5499733"><ele>837.0</ele><time>2026-05-01T11:25:56.868Z</time></trkpt><trkpt lat="44.7947933" lon="9.5500067"><ele>837.0</ele><time>2026-05-01T11:25:58.868Z</time></trkpt><trkpt lat="44.7948767" lon="9.5500383"><ele>837.0</ele><time>2026-05-01T11:26:00.868Z</time></trkpt><trkpt lat="44.7949817" lon="9.5500633"><ele>837.0</ele><time>2026-05-01T11:26:02.868Z</time></trkpt><trkpt lat="44.795095" lon="9.5500983"><ele>837.0</ele><time>2026-05-01T11:26:04.868Z</time></trkpt><trkpt lat="44.79521" lon="9.5501167"><ele>837.0</ele><time>2026-05-01T11:26:06.868Z</time></trkpt><trkpt lat="44.7952917" lon="9.55015"><ele>838.4000000000001</ele><time>2026-05-01T11:26:08.868Z</time></trkpt><trkpt lat="44.7953583" lon="9.5501517"><ele>839.8000000000001</ele><time>2026-05-01T11:26:10.868Z</time></trkpt><trkpt lat="44.7954417" lon="9.55016"><ele>841.2</ele><time>2026-05-01T11:26:13.868Z</time></trkpt><trkpt lat="44.795505" lon="9.5501683"><ele>842.6</ele><time>2026-05-01T11:26:15.868Z</time></trkpt><trkpt lat="44.795645" lon="9.55023"><ele>844.0</ele><time>2026-05-01T11:26:25.868Z</time></trkpt><trkpt lat="44.7958233" lon="9.5502367"><ele>843.9999999999999</ele><time>2026-05-01T11:26:43.868Z</time></trkpt><trkpt lat="44.79585" lon="9.550325"><ele>844.0</ele><time>2026-05-01T11:26:49.868Z</time></trkpt><trkpt lat="44.795855" lon="9.5504233"><ele>844.0</ele><time>2026-05-01T11:26:52.868Z</time></trkpt><trkpt lat="44.795875" lon="9.55054"><ele>844.0</ele><time>2026-05-01T11:26:55.868Z</time></trkpt><trkpt lat="44.7959033" lon="9.5506217"><ele>843.9999999999999</ele><time>2026-05-01T11:26:58.869Z</time></trkpt><trkpt lat="44.7959467" lon="9.5507617"><ele>844.0</ele><time>2026-05-01T11:27:01.869Z</time></trkpt><trkpt lat="44.7959717" lon="9.5508583"><ele>843.8000000000001</ele><time>2026-05-01T11:27:02.869Z</time></trkpt><trkpt lat="44.796005" lon="9.55107"><ele>843.6</ele><time>2026-05-01T11:27:04.869Z</time></trkpt><trkpt lat="44.796025" lon="9.5511883"><ele>843.4</ele><time>2026-05-01T11:27:05.869Z</time></trkpt><trkpt lat="44.79604" lon="9.5512883"><ele>843.2</ele><time>2026-05-01T11:27:06.869Z</time></trkpt><trkpt lat="44.7960533" lon="9.55145"><ele>843.0</ele><time>2026-05-01T11:27:08.869Z</time></trkpt><trkpt lat="44.796075" lon="9.5516017"><ele>843.0</ele><time>2026-05-01T11:27:10.869Z</time></trkpt><trkpt lat="44.796105" lon="9.5517783"><ele>843.0</ele><time>2026-05-01T11:27:12.869Z</time></trkpt><trkpt lat="44.7961333" lon="9.5518817"><ele>843.0</ele><time>2026-05-01T11:27:13.869Z</time></trkpt><trkpt lat="44.7961617" lon="9.55198"><ele>843.0</ele><time>2026-05-01T11:27:14.869Z</time></trkpt><trkpt lat="44.7961967" lon="9.5520683"><ele>843.0</ele><time>2026-05-01T11:27:15.869Z</time></trkpt><trkpt lat="44.7962283" lon="9.55215"><ele>843.0</ele><time>2026-05-01T11:27:16.869Z</time></trkpt><trkpt lat="44.796265" lon="9.55231"><ele>843.5</ele><time>2026-05-01T11:27:18.869Z</time></trkpt><trkpt lat="44.79631" lon="9.5524883"><ele>844.0</ele><time>2026-05-01T11:27:20.869Z</time></trkpt><trkpt lat="44.7963367" lon="9.5526017"><ele>844.5</ele><time>2026-05-01T11:27:21.869Z</time></trkpt><trkpt lat="44.796365" lon="9.5527167"><ele>845.0</ele><time>2026-05-01T11:27:22.869Z</time></trkpt><trkpt lat="44.7963933" lon="9.5528083"><ele>845.5</ele><time>2026-05-01T11:27:23.869Z</time></trkpt><trkpt lat="44.7964167" lon="9.5528983"><ele>846.0</ele><time>2026-05-01T11:27:24.869Z</time></trkpt><trkpt lat="44.796435" lon="9.553"><ele>846.0</ele><time>2026-05-01T11:27:25.869Z</time></trkpt><trkpt lat="44.796455" lon="9.5530967"><ele>846.0</ele><time>2026-05-01T11:27:26.869Z</time></trkpt><trkpt lat="44.7964783" lon="9.5532817"><ele>846.0</ele><time>2026-05-01T11:27:28.869Z</time></trkpt><trkpt lat="44.7965017" lon="9.553385"><ele>846.0</ele><time>2026-05-01T11:27:29.869Z</time></trkpt><trkpt lat="44.7965367" lon="9.5535083"><ele>846.0</ele><time>2026-05-01T11:27:30.869Z</time></trkpt><trkpt lat="44.796565" lon="9.55362"><ele>845.3333333333334</ele><time>2026-05-01T11:27:31.869Z</time></trkpt><trkpt lat="44.796595" lon="9.553715"><ele>844.6666666666667</ele><time>2026-05-01T11:27:32.869Z</time></trkpt><trkpt lat="44.7966217" lon="9.5538067"><ele>844.0</ele><time>2026-05-01T11:27:33.869Z</time></trkpt><trkpt lat="44.7966417" lon="9.553905"><ele>843.3333333333334</ele><time>2026-05-01T11:27:34.869Z</time></trkpt><trkpt lat="44.79666" lon="9.5540133"><ele>842.6666666666667</ele><time>2026-05-01T11:27:35.869Z</time></trkpt><trkpt lat="44.79669" lon="9.5541267"><ele>842.0</ele><time>2026-05-01T11:27:36.87Z</time></trkpt><trkpt lat="44.7967267" lon="9.5542233"><ele>842.0000000000001</ele><time>2026-05-01T11:27:37.869Z</time></trkpt><trkpt lat="44.7967783" lon="9.5543183"><ele>842.0</ele><time>2026-05-01T11:27:38.869Z</time></trkpt><trkpt lat="44.79684" lon="9.554405"><ele>842.0</ele><time>2026-05-01T11:27:39.869Z</time></trkpt><trkpt lat="44.7969117" lon="9.554485"><ele>842.0</ele><time>2026-05-01T11:27:40.869Z</time></trkpt><trkpt lat="44.7969817" lon="9.5545583"><ele>842.0000000000001</ele><time>2026-05-01T11:27:41.869Z</time></trkpt><trkpt lat="44.7970533" lon="9.5546133"><ele>842.0</ele><time>2026-05-01T11:27:42.869Z</time></trkpt><trkpt lat="44.7971167" lon="9.554695"><ele>842.4000000000001</ele><time>2026-05-01T11:27:44.869Z</time></trkpt><trkpt lat="44.7972" lon="9.5548017"><ele>842.8000000000001</ele><time>2026-05-01T11:27:47.869Z</time></trkpt><trkpt lat="44.7972817" lon="9.5548867"><ele>843.2</ele><time>2026-05-01T11:27:49.869Z</time></trkpt><trkpt lat="44.7973833" lon="9.5549967"><ele>843.6</ele><time>2026-05-01T11:27:51.869Z</time></trkpt><trkpt lat="44.79745" lon="9.5550483"><ele>844.0</ele><time>2026-05-01T11:27:52.869Z</time></trkpt><trkpt lat="44.7975217" lon="9.5550933"><ele>843.9999999999999</ele><time>2026-05-01T11:27:53.869Z</time></trkpt><trkpt lat="44.7975983" lon="9.5551483"><ele>844.0</ele><time>2026-05-01T11:27:54.869Z</time></trkpt><trkpt lat="44.7976633" lon="9.5551983"><ele>844.0</ele><time>2026-05-01T11:27:55.869Z</time></trkpt><trkpt lat="44.797725" lon="9.555245"><ele>844.0</ele><time>2026-05-01T11:27:56.869Z</time></trkpt><trkpt lat="44.79778" lon="9.55529"><ele>843.9999999999999</ele><time>2026-05-01T11:27:57.869Z</time></trkpt><trkpt lat="44.7978517" lon="9.5553683"><ele>844.0</ele><time>2026-05-01T11:27:59.869Z</time></trkpt><trkpt lat="44.7979283" lon="9.5554183"><ele>845.4000000000001</ele><time>2026-05-01T11:28:04.869Z</time></trkpt><trkpt lat="44.7979933" lon="9.5554467"><ele>846.8</ele><time>2026-05-01T11:28:06.869Z</time></trkpt><trkpt lat="44.7980767" lon="9.555485"><ele>848.2</ele><time>2026-05-01T11:28:08.87Z</time></trkpt><trkpt lat="44.7981683" lon="9.555535"><ele>849.5999999999999</ele><time>2026-05-01T11:28:10.869Z</time></trkpt><trkpt lat="44.798275" lon="9.5555817"><ele>851.0</ele><time>2026-05-01T11:28:12.869Z</time></trkpt><trkpt lat="44.798365" lon="9.5555817"><ele>851.0</ele><time>2026-05-01T11:28:14.869Z</time></trkpt><trkpt lat="44.798445" lon="9.55554"><ele>851.0</ele><time>2026-05-01T11:28:16.869Z</time></trkpt><trkpt lat="44.7985233" lon="9.555505"><ele>851.0</ele><time>2026-05-01T11:28:18.869Z</time></trkpt><trkpt lat="44.7986133" lon="9.5554633"><ele>851.0</ele><time>2026-05-01T11:28:20.869Z</time></trkpt><trkpt lat="44.79872" lon="9.5554317"><ele>851.0</ele><time>2026-05-01T11:28:22.869Z</time></trkpt><trkpt lat="44.7988267" lon="9.5554033"><ele>848.0</ele><time>2026-05-01T11:28:24.869Z</time></trkpt><trkpt lat="44.7989367" lon="9.5553683"><ele>845.0</ele><time>2026-05-01T11:28:26.869Z</time></trkpt><trkpt lat="44.79906" lon="9.555305"><ele>842.0</ele><time>2026-05-01T11:28:28.869Z</time></trkpt><trkpt lat="44.7991267" lon="9.5552767"><ele>839.0</ele><time>2026-05-01T11:28:29.869Z</time></trkpt><trkpt lat="44.7991933" lon="9.5552533"><ele>836.0</ele><time>2026-05-01T11:28:30.869Z</time></trkpt><trkpt lat="44.79926" lon="9.5552367"><ele>836.0</ele><time>2026-05-01T11:28:31.869Z</time></trkpt><trkpt lat="44.7993333" lon="9.55523"><ele>836.0</ele><time>2026-05-01T11:28:32.87Z</time></trkpt><trkpt lat="44.7994" lon="9.555225"><ele>836.0</ele><time>2026-05-01T11:28:33.869Z</time></trkpt><trkpt lat="44.7994767" lon="9.5552267"><ele>836.0</ele><time>2026-05-01T11:28:34.869Z</time></trkpt><trkpt lat="44.7995517" lon="9.55523"><ele>836.0</ele><time>2026-05-01T11:28:35.869Z</time></trkpt><trkpt lat="44.7996233" lon="9.55524"><ele>836.0</ele><time>2026-05-01T11:28:36.869Z</time></trkpt><trkpt lat="44.7996933" lon="9.5552567"><ele>836.0</ele><time>2026-05-01T11:28:37.869Z</time></trkpt><trkpt lat="44.7998167" lon="9.5553067"><ele>834.0</ele><time>2026-05-01T11:28:39.869Z</time></trkpt><trkpt lat="44.7999283" lon="9.5553717"><ele>832.0</ele><time>2026-05-01T11:28:41.869Z</time></trkpt><trkpt lat="44.799985" lon="9.5554117"><ele>830.0</ele><time>2026-05-01T11:28:42.869Z</time></trkpt><trkpt lat="44.8000867" lon="9.555485"><ele>828.0</ele><time>2026-05-01T11:28:44.869Z</time></trkpt><trkpt lat="44.8001783" lon="9.5555633"><ele>826.0</ele><time>2026-05-01T11:28:46.869Z</time></trkpt><trkpt lat="44.8002433" lon="9.555635"><ele>822.5999999999999</ele><time>2026-05-01T11:28:48.87Z</time></trkpt><trkpt lat="44.8003167" lon="9.5556983"><ele>819.2</ele><time>2026-05-01T11:28:50.869Z</time></trkpt><trkpt lat="44.8004083" lon="9.5557633"><ele>815.8</ele><time>2026-05-01T11:28:52.869Z</time></trkpt><trkpt lat="44.80051" lon="9.5557967"><ele>812.4000000000001</ele><time>2026-05-01T11:28:54.87Z</time></trkpt><trkpt lat="44.80061" lon="9.5558183"><ele>809.0</ele><time>2026-05-01T11:28:56.869Z</time></trkpt><trkpt lat="44.8007083" lon="9.5558717"><ele>809.0</ele><time>2026-05-01T11:28:58.869Z</time></trkpt><trkpt lat="44.8007717" lon="9.5559983"><ele>809.0</ele><time>2026-05-01T11:29:00.869Z</time></trkpt><trkpt lat="44.8008267" lon="9.5560967"><ele>809.0</ele><time>2026-05-01T11:29:02.869Z</time></trkpt><trkpt lat="44.800905" lon="9.556145"><ele>809.0</ele><time>2026-05-01T11:29:04.869Z</time></trkpt><trkpt lat="44.8009783" lon="9.55618"><ele>809.0</ele><time>2026-05-01T11:29:06.869Z</time></trkpt><trkpt lat="44.8010617" lon="9.556225"><ele>803.2</ele><time>2026-05-01T11:29:08.869Z</time></trkpt><trkpt lat="44.8011683" lon="9.5562783"><ele>797.4000000000001</ele><time>2026-05-01T11:29:10.869Z</time></trkpt><trkpt lat="44.80123" lon="9.5562983"><ele>791.6</ele><time>2026-05-01T11:29:11.869Z</time></trkpt><trkpt lat="44.8013283" lon="9.5563267"><ele>785.8</ele><time>2026-05-01T11:29:13.869Z</time></trkpt><trkpt lat="44.8014617" lon="9.5563417"><ele>780.0</ele><time>2026-05-01T11:29:26.869Z</time></trkpt><trkpt lat="44.801525" lon="9.556345"><ele>780.0</ele><time>2026-05-01T11:29:29.869Z</time></trkpt><trkpt lat="44.8016" lon="9.5563433"><ele>780.0</ele><time>2026-05-01T11:29:34.869Z</time></trkpt><trkpt lat="44.8016683" lon="9.5563367"><ele>780.0</ele><time>2026-05-01T11:29:42.869Z</time></trkpt><trkpt lat="44.8017367" lon="9.556355"><ele>780.0</ele><time>2026-05-01T11:29:51.869Z</time></trkpt><trkpt lat="44.8018118" lon="9.5563669"><ele>780.0</ele><time>2026-05-01T11:30:05.869Z</time></trkpt><trkpt lat="44.8018683" lon="9.5564099"><ele>780.0</ele><time>2026-05-01T11:30:14.949Z</time></trkpt><trkpt lat="44.8019059" lon="9.5564936"><ele>780.0</ele><time>2026-05-01T11:30:23.93Z</time></trkpt><trkpt lat="44.8018676" lon="9.5565874"><ele>775.1666666666666</ele><time>2026-05-01T11:30:24.916Z</time></trkpt><trkpt lat="44.8019061" lon="9.5566779"><ele>770.3333333333334</ele><time>2026-05-01T11:30:28.977Z</time></trkpt><trkpt lat="44.8019778" lon="9.5567486"><ele>765.5</ele><time>2026-05-01T11:30:31.925Z</time></trkpt><trkpt lat="44.8020475" lon="9.5568257"><ele>760.6666666666667</ele><time>2026-05-01T11:30:34.914Z</time></trkpt><trkpt lat="44.8021122" lon="9.5568507"><ele>755.8333333333334</ele><time>2026-05-01T11:30:37.949Z</time></trkpt><trkpt lat="44.8021872" lon="9.5568861"><ele>751.0</ele><time>2026-05-01T11:30:41.834Z</time></trkpt><trkpt lat="44.8022435" lon="9.5569279"><ele>751.0</ele><time>2026-05-01T11:30:44.959Z</time></trkpt><trkpt lat="44.8022851" lon="9.5570127"><ele>751.0</ele><time>2026-05-01T11:30:47.874Z</time></trkpt><trkpt lat="44.8023504" lon="9.5570939"><ele>751.0</ele><time>2026-05-01T11:30:50.873Z</time></trkpt><trkpt lat="44.8023921" lon="9.5572017"><ele>751.0</ele><time>2026-05-01T11:30:53.94Z</time></trkpt><trkpt lat="44.8023972" lon="9.5573078"><ele>751.0</ele><time>2026-05-01T11:30:56.897Z</time></trkpt><trkpt lat="44.802455" lon="9.55737"><ele>751.0</ele><time>2026-05-01T11:31:03.869Z</time></trkpt><trkpt lat="44.802455" lon="9.5575183"><ele>750.1666666666667</ele><time>2026-05-01T11:31:22.869Z</time></trkpt><trkpt lat="44.802395" lon="9.5575467"><ele>749.3333333333334</ele><time>2026-05-01T11:31:25.869Z</time></trkpt><trkpt lat="44.8022983" lon="9.557535"><ele>748.5</ele><time>2026-05-01T11:31:28.869Z</time></trkpt><trkpt lat="44.80222" lon="9.5575483"><ele>747.6666666666666</ele><time>2026-05-01T11:31:30.869Z</time></trkpt><trkpt lat="44.8021417" lon="9.5575617"><ele>746.8333333333333</ele><time>2026-05-01T11:31:32.869Z</time></trkpt><trkpt lat="44.8020767" lon="9.557605"><ele>746.0</ele><time>2026-05-01T11:31:35.869Z</time></trkpt><trkpt lat="44.80199" lon="9.5576767"><ele>746.0</ele><time>2026-05-01T11:31:38.869Z</time></trkpt><trkpt lat="44.8019383" lon="9.5577433"><ele>746.0</ele><time>2026-05-01T11:31:40.869Z</time></trkpt><trkpt lat="44.80196" lon="9.557835"><ele>746.0</ele><time>2026-05-01T11:32:06.869Z</time></trkpt><trkpt lat="44.802015" lon="9.557935"><ele>746.0</ele><time>2026-05-01T11:32:10.869Z</time></trkpt><trkpt lat="44.8020717" lon="9.5579933"><ele>746.0</ele><time>2026-05-01T11:32:12.869Z</time></trkpt><trkpt lat="44.8021267" lon="9.5580633"><ele>746.0</ele><time>2026-05-01T11:32:14.869Z</time></trkpt><trkpt lat="44.802185" lon="9.55812"><ele>746.0</ele><time>2026-05-01T11:32:16.87Z</time></trkpt><trkpt lat="44.8022483" lon="9.5581517"><ele>743.3333333333333</ele><time>2026-05-01T11:32:18.869Z</time></trkpt><trkpt lat="44.8023417" lon="9.5581483"><ele>740.6666666666666</ele><time>2026-05-01T11:32:21.869Z</time></trkpt><trkpt lat="44.8024117" lon="9.5581467"><ele>738.0</ele><time>2026-05-01T11:32:23.869Z</time></trkpt><trkpt lat="44.80248" lon="9.5581417"><ele>735.3333333333334</ele><time>2026-05-01T11:32:25.869Z</time></trkpt><trkpt lat="44.802565" lon="9.558165"><ele>732.6666666666667</ele><time>2026-05-01T11:32:28.869Z</time></trkpt><trkpt lat="44.8026467" lon="9.5581967"><ele>730.0</ele><time>2026-05-01T11:32:31.869Z</time></trkpt><trkpt lat="44.802705" lon="9.5582417"><ele>729.6666666666667</ele><time>2026-05-01T11:32:35.869Z</time></trkpt><trkpt lat="44.8027667" lon="9.5581967"><ele>729.3333333333334</ele><time>2026-05-01T11:32:41.869Z</time></trkpt><trkpt lat="44.8028033" lon="9.5582983"><ele>729.0</ele><time>2026-05-01T11:32:48.869Z</time></trkpt><trkpt lat="44.8028317" lon="9.558385"><ele>728.6666666666666</ele><time>2026-05-01T11:32:50.869Z</time></trkpt><trkpt lat="44.80285" lon="9.55849"><ele>728.3333333333333</ele><time>2026-05-01T11:32:52.869Z</time></trkpt><trkpt lat="44.80288" lon="9.5586083"><ele>728.0</ele><time>2026-05-01T11:32:54.869Z</time></trkpt><trkpt lat="44.8029367" lon="9.55871"><ele>726.2</ele><time>2026-05-01T11:32:56.869Z</time></trkpt><trkpt lat="44.8030267" lon="9.5587483"><ele>724.4</ele><time>2026-05-01T11:32:58.869Z</time></trkpt><trkpt lat="44.80313" lon="9.5587617"><ele>722.6</ele><time>2026-05-01T11:33:00.87Z</time></trkpt><trkpt lat="44.8032367" lon="9.5587633"><ele>720.8000000000001</ele><time>2026-05-01T11:33:02.869Z</time></trkpt><trkpt lat="44.80334" lon="9.5587633"><ele>719.0</ele><time>2026-05-01T11:33:04.869Z</time></trkpt><trkpt lat="44.8034417" lon="9.55877"><ele>718.8333333333333</ele><time>2026-05-01T11:33:06.869Z</time></trkpt><trkpt lat="44.8035433" lon="9.5587767"><ele>718.6666666666666</ele><time>2026-05-01T11:33:08.869Z</time></trkpt><trkpt lat="44.80362" lon="9.5588133"><ele>718.5</ele><time>2026-05-01T11:33:10.869Z</time></trkpt><trkpt lat="44.803685" lon="9.5588683"><ele>718.3333333333334</ele><time>2026-05-01T11:33:12.869Z</time></trkpt><trkpt lat="44.803745" lon="9.558965"><ele>718.1666666666667</ele><time>2026-05-01T11:33:15.869Z</time></trkpt><trkpt lat="44.8038033" lon="9.5590333"><ele>718.0</ele><time>2026-05-01T11:33:17.869Z</time></trkpt><trkpt lat="44.8038733" lon="9.5591183"><ele>718.0</ele><time>2026-05-01T11:33:19.869Z</time></trkpt><trkpt lat="44.8039533" lon="9.5592017"><ele>718.0</ele><time>2026-05-01T11:33:21.869Z</time></trkpt><trkpt lat="44.80404" lon="9.5592683"><ele>718.0</ele><time>2026-05-01T11:33:23.869Z</time></trkpt><trkpt lat="44.8041433" lon="9.5593283"><ele>718.0</ele><time>2026-05-01T11:33:25.869Z</time></trkpt><trkpt lat="44.80427" lon="9.5593683"><ele>718.0</ele><time>2026-05-01T11:33:27.869Z</time></trkpt><trkpt lat="44.8043317" lon="9.5593867"><ele>718.6666666666667</ele><time>2026-05-01T11:33:28.869Z</time></trkpt><trkpt lat="44.8043933" lon="9.5594067"><ele>719.3333333333334</ele><time>2026-05-01T11:33:29.869Z</time></trkpt><trkpt lat="44.804455" lon="9.5594267"><ele>720.0</ele><time>2026-05-01T11:33:30.869Z</time></trkpt><trkpt lat="44.8045183" lon="9.55944"><ele>720.6666666666666</ele><time>2026-05-01T11:33:31.869Z</time></trkpt><trkpt lat="44.8046367" lon="9.55947"><ele>721.3333333333333</ele><time>2026-05-01T11:33:33.869Z</time></trkpt><trkpt lat="44.80475" lon="9.55953"><ele>722.0</ele><time>2026-05-01T11:33:35.869Z</time></trkpt><trkpt lat="44.8048083" lon="9.5595683"><ele>720.6666666666666</ele><time>2026-05-01T11:33:36.869Z</time></trkpt><trkpt lat="44.8048683" lon="9.5596083"><ele>719.3333333333333</ele><time>2026-05-01T11:33:37.869Z</time></trkpt><trkpt lat="44.8049283" lon="9.5596383"><ele>718.0</ele><time>2026-05-01T11:33:38.869Z</time></trkpt><trkpt lat="44.80499" lon="9.5596633"><ele>716.6666666666666</ele><time>2026-05-01T11:33:39.869Z</time></trkpt><trkpt lat="44.8051183" lon="9.559695"><ele>715.3333333333334</ele><time>2026-05-01T11:33:41.869Z</time></trkpt><trkpt lat="44.8051967" lon="9.5597167"><ele>714.0</ele><time>2026-05-01T11:33:42.869Z</time></trkpt><trkpt lat="44.80527" lon="9.559735"><ele>713.4285714285714</ele><time>2026-05-01T11:33:43.869Z</time></trkpt><trkpt lat="44.8053417" lon="9.55976"><ele>712.8571428571429</ele><time>2026-05-01T11:33:44.869Z</time></trkpt><trkpt lat="44.8054067" lon="9.559785"><ele>712.2857142857142</ele><time>2026-05-01T11:33:45.869Z</time></trkpt><trkpt lat="44.8054683" lon="9.5598117"><ele>711.7142857142858</ele><time>2026-05-01T11:33:46.869Z</time></trkpt><trkpt lat="44.805535" lon="9.5598367"><ele>711.1428571428571</ele><time>2026-05-01T11:33:47.869Z</time></trkpt><trkpt lat="44.8056" lon="9.5598617"><ele>710.5714285714286</ele><time>2026-05-01T11:33:48.869Z</time></trkpt><trkpt lat="44.8056617" lon="9.5598917"><ele>710.0</ele><time>2026-05-01T11:33:49.87Z</time></trkpt><trkpt lat="44.8057233" lon="9.55993"><ele>710.0</ele><time>2026-05-01T11:33:50.869Z</time></trkpt><trkpt lat="44.805785" lon="9.5599767"><ele>710.0</ele><time>2026-05-01T11:33:51.869Z</time></trkpt><trkpt lat="44.805845" lon="9.5600283"><ele>710.0</ele><time>2026-05-01T11:33:52.869Z</time></trkpt><trkpt lat="44.805905" lon="9.5600883"><ele>710.0</ele><time>2026-05-01T11:33:53.869Z</time></trkpt><trkpt lat="44.8059617" lon="9.5601517"><ele>710.0</ele><time>2026-05-01T11:33:54.869Z</time></trkpt><trkpt lat="44.8060233" lon="9.5602183"><ele>710.0</ele><time>2026-05-01T11:33:55.869Z</time></trkpt><trkpt lat="44.8060883" lon="9.5602833"><ele>710.0</ele><time>2026-05-01T11:33:56.869Z</time></trkpt><trkpt lat="44.8061533" lon="9.5603433"><ele>710.5</ele><time>2026-05-01T11:33:57.869Z</time></trkpt><trkpt lat="44.806215" lon="9.5603967"><ele>711.0</ele><time>2026-05-01T11:33:58.869Z</time></trkpt><trkpt lat="44.8062883" lon="9.5604483"><ele>711.5</ele><time>2026-05-01T11:33:59.869Z</time></trkpt><trkpt lat="44.8063617" lon="9.560495"><ele>712.0</ele><time>2026-05-01T11:34:00.87Z</time></trkpt><trkpt lat="44.8064367" lon="9.5605233"><ele>712.5</ele><time>2026-05-01T11:34:01.869Z</time></trkpt><trkpt lat="44.8065133" lon="9.560555"><ele>713.0</ele><time>2026-05-01T11:34:02.869Z</time></trkpt><trkpt lat="44.806585" lon="9.560585"><ele>713.0</ele><time>2026-05-01T11:34:03.869Z</time></trkpt><trkpt lat="44.8066583" lon="9.5606167"><ele>713.0</ele><time>2026-05-01T11:34:04.869Z</time></trkpt><trkpt lat="44.80673" lon="9.56065"><ele>713.0</ele><time>2026-05-01T11:34:05.869Z</time></trkpt><trkpt lat="44.8068067" lon="9.56069"><ele>713.0</ele><time>2026-05-01T11:34:06.869Z</time></trkpt><trkpt lat="44.8068767" lon="9.5607417"><ele>713.0</ele><time>2026-05-01T11:34:07.869Z</time></trkpt><trkpt lat="44.8069533" lon="9.5608117"><ele>713.0</ele><time>2026-05-01T11:34:08.869Z</time></trkpt><trkpt lat="44.8070283" lon="9.56088"><ele>713.2</ele><time>2026-05-01T11:34:09.869Z</time></trkpt><trkpt lat="44.807095" lon="9.5609483"><ele>713.4</ele><time>2026-05-01T11:34:10.869Z</time></trkpt><trkpt lat="44.80716" lon="9.5610117"><ele>713.6</ele><time>2026-05-01T11:34:11.869Z</time></trkpt><trkpt lat="44.8072417" lon="9.5611083"><ele>713.8000000000001</ele><time>2026-05-01T11:34:13.87Z</time></trkpt><trkpt lat="44.80734" lon="9.5611733"><ele>714.0</ele><time>2026-05-01T11:34:30.869Z</time></trkpt><trkpt lat="44.8074133" lon="9.5612467"><ele>714.5</ele><time>2026-05-01T11:34:32.869Z</time></trkpt><trkpt lat="44.8075067" lon="9.5613483"><ele>715.0</ele><time>2026-05-01T11:34:34.869Z</time></trkpt><trkpt lat="44.8075783" lon="9.5614717"><ele>715.5</ele><time>2026-05-01T11:34:36.869Z</time></trkpt><trkpt lat="44.8076367" lon="9.56161"><ele>716.0</ele><time>2026-05-01T11:34:38.869Z</time></trkpt><trkpt lat="44.80769" lon="9.5617583"><ele>716.0</ele><time>2026-05-01T11:34:40.869Z</time></trkpt><trkpt lat="44.807745" lon="9.5619067"><ele>716.0</ele><time>2026-05-01T11:34:42.869Z</time></trkpt><trkpt lat="44.8078267" lon="9.5620567"><ele>716.0</ele><time>2026-05-01T11:34:44.869Z</time></trkpt><trkpt lat="44.8078783" lon="9.562155"><ele>716.0</ele><time>2026-05-01T11:34:45.869Z</time></trkpt><trkpt lat="44.80793" lon="9.5622617"><ele>716.0</ele><time>2026-05-01T11:34:46.869Z</time></trkpt><trkpt lat="44.807975" lon="9.5623583"><ele>717.3333333333333</ele><time>2026-05-01T11:34:47.869Z</time></trkpt><trkpt lat="44.8080183" lon="9.56244"><ele>718.6666666666666</ele><time>2026-05-01T11:34:48.869Z</time></trkpt><trkpt lat="44.8080717" lon="9.5625133"><ele>720.0</ele><time>2026-05-01T11:34:49.869Z</time></trkpt><trkpt lat="44.8081283" lon="9.5625617"><ele>721.3333333333334</ele><time>2026-05-01T11:34:50.869Z</time></trkpt><trkpt lat="44.8082483" lon="9.56264"><ele>722.6666666666667</ele><time>2026-05-01T11:34:52.869Z</time></trkpt><trkpt lat="44.8083167" lon="9.5626767"><ele>724.0</ele><time>2026-05-01T11:34:53.869Z</time></trkpt><trkpt lat="44.80839" lon="9.56271"><ele>724.0</ele><time>2026-05-01T11:34:54.869Z</time></trkpt><trkpt lat="44.808465" lon="9.5627267"><ele>724.0</ele><time>2026-05-01T11:34:55.869Z</time></trkpt><trkpt lat="44.80853" lon="9.5627483"><ele>724.0</ele><time>2026-05-01T11:34:56.869Z</time></trkpt><trkpt lat="44.808625" lon="9.5627933"><ele>724.0</ele><time>2026-05-01T11:34:58.869Z</time></trkpt><trkpt lat="44.80872" lon="9.5628167"><ele>724.0</ele><time>2026-05-01T11:35:00.869Z</time></trkpt><trkpt lat="44.8088283" lon="9.5628233"><ele>724.0</ele><time>2026-05-01T11:35:02.869Z</time></trkpt><trkpt lat="44.8089367" lon="9.56287"><ele>728.4000000000001</ele><time>2026-05-01T11:35:04.869Z</time></trkpt><trkpt lat="44.8090333" lon="9.5629467"><ele>732.8</ele><time>2026-05-01T11:35:06.869Z</time></trkpt><trkpt lat="44.8090917" lon="9.5630267"><ele>737.2</ele><time>2026-05-01T11:35:08.869Z</time></trkpt><trkpt lat="44.8091917" lon="9.5630667"><ele>741.5999999999999</ele><time>2026-05-01T11:35:10.869Z</time></trkpt><trkpt lat="44.8092867" lon="9.5630733"><ele>746.0</ele><time>2026-05-01T11:35:12.869Z</time></trkpt><trkpt lat="44.8093517" lon="9.5630583"><ele>749.3333333333333</ele><time>2026-05-01T11:35:15.869Z</time></trkpt><trkpt lat="44.809425" lon="9.5629867"><ele>752.6666666666666</ele><time>2026-05-01T11:35:18.869Z</time></trkpt><trkpt lat="44.809525" lon="9.5629117"><ele>756.0</ele><time>2026-05-01T11:35:20.869Z</time></trkpt><trkpt lat="44.8095883" lon="9.5628517"><ele>759.3333333333334</ele><time>2026-05-01T11:35:21.869Z</time></trkpt><trkpt lat="44.8096483" lon="9.5627933"><ele>762.6666666666667</ele><time>2026-05-01T11:35:22.869Z</time></trkpt><trkpt lat="44.8097217" lon="9.5627067"><ele>766.0</ele><time>2026-05-01T11:35:23.869Z</time></trkpt><trkpt lat="44.8097933" lon="9.5626517"><ele>766.0</ele><time>2026-05-01T11:35:24.869Z</time></trkpt><trkpt lat="44.8099033" lon="9.5625433"><ele>766.0</ele><time>2026-05-01T11:35:25.869Z</time></trkpt><trkpt lat="44.8099883" lon="9.5624817"><ele>766.0</ele><time>2026-05-01T11:35:26.869Z</time></trkpt><trkpt lat="44.81008" lon="9.5624467"><ele>766.0</ele><time>2026-05-01T11:35:27.87Z</time></trkpt><trkpt lat="44.8101783" lon="9.5623467"><ele>766.0</ele><time>2026-05-01T11:35:28.869Z</time></trkpt><trkpt lat="44.8102667" lon="9.5622883"><ele>767.8</ele><time>2026-05-01T11:35:29.869Z</time></trkpt><trkpt lat="44.81036" lon="9.5622433"><ele>769.5999999999999</ele><time>2026-05-01T11:35:30.869Z</time></trkpt><trkpt lat="44.8104433" lon="9.5622267"><ele>771.4</ele><time>2026-05-01T11:35:32.869Z</time></trkpt><trkpt lat="44.8105333" lon="9.5622067"><ele>773.2</ele><time>2026-05-01T11:35:34.869Z</time></trkpt><trkpt lat="44.8106083" lon="9.5621783"><ele>775.0</ele><time>2026-05-01T11:35:36.869Z</time></trkpt><trkpt lat="44.8107067" lon="9.5621517"><ele>775.0</ele><time>2026-05-01T11:35:38.869Z</time></trkpt><trkpt lat="44.81083" lon="9.5621217"><ele>775.0</ele><time>2026-05-01T11:35:40.87Z</time></trkpt><trkpt lat="44.8109367" lon="9.5621133"><ele>775.0</ele><time>2026-05-01T11:35:42.869Z</time></trkpt><trkpt lat="44.811035" lon="9.56211"><ele>775.0</ele><time>2026-05-01T11:35:44.869Z</time></trkpt><trkpt lat="44.811115" lon="9.5620833"><ele>775.0</ele><time>2026-05-01T11:35:46.87Z</time></trkpt><trkpt lat="44.8112133" lon="9.562065"><ele>772.0</ele><time>2026-05-01T11:35:48.869Z</time></trkpt><trkpt lat="44.8113883" lon="9.562025"><ele>769.0</ele><time>2026-05-01T11:35:50.87Z</time></trkpt><trkpt lat="44.8114867" lon="9.5620233"><ele>766.0</ele><time>2026-05-01T11:35:52.869Z</time></trkpt><trkpt lat="44.8116033" lon="9.5619817"><ele>763.0</ele><time>2026-05-01T11:35:54.869Z</time></trkpt><trkpt lat="44.81167" lon="9.56196"><ele>763.0</ele><time>2026-05-01T11:35:55.87Z</time></trkpt><trkpt lat="44.8117417" lon="9.5619417"><ele>763.0</ele><time>2026-05-01T11:35:56.869Z</time></trkpt><trkpt lat="44.811865" lon="9.5619167"><ele>763.0</ele><time>2026-05-01T11:35:57.869Z</time></trkpt><trkpt lat="44.8119467" lon="9.5619217"><ele>763.0</ele><time>2026-05-01T11:35:58.869Z</time></trkpt><trkpt lat="44.81204" lon="9.561905"><ele>763.0</ele><time>2026-05-01T11:35:59.869Z</time></trkpt><trkpt lat="44.8121133" lon="9.5618983"><ele>763.0</ele><time>2026-05-01T11:36:00.869Z</time></trkpt><trkpt lat="44.812185" lon="9.561895"><ele>762.3333333333334</ele><time>2026-05-01T11:36:01.869Z</time></trkpt><trkpt lat="44.812275" lon="9.5618867"><ele>761.6666666666667</ele><time>2026-05-01T11:36:02.869Z</time></trkpt><trkpt lat="44.8123683" lon="9.56187"><ele>761.0</ele><time>2026-05-01T11:36:03.869Z</time></trkpt><trkpt lat="44.8124383" lon="9.5618717"><ele>760.3333333333334</ele><time>2026-05-01T11:36:04.869Z</time></trkpt><trkpt lat="44.8125067" lon="9.561875"><ele>759.6666666666666</ele><time>2026-05-01T11:36:05.869Z</time></trkpt><trkpt lat="44.8125717" lon="9.561885"><ele>759.0</ele><time>2026-05-01T11:36:06.869Z</time></trkpt><trkpt lat="44.8126633" lon="9.5619167"><ele>760.8333333333334</ele><time>2026-05-01T11:36:07.869Z</time></trkpt><trkpt lat="44.81274" lon="9.5619617"><ele>762.6666666666667</ele><time>2026-05-01T11:36:08.869Z</time></trkpt><trkpt lat="44.8128383" lon="9.5620533"><ele>764.5</ele><time>2026-05-01T11:36:10.869Z</time></trkpt><trkpt lat="44.8128883" lon="9.5621183"><ele>766.3333333333334</ele><time>2026-05-01T11:36:11.869Z</time></trkpt><trkpt lat="44.8129433" lon="9.5622233"><ele>768.1666666666667</ele><time>2026-05-01T11:36:13.869Z</time></trkpt><trkpt lat="44.81297" lon="9.5623217"><ele>770.0</ele><time>2026-05-01T11:36:15.869Z</time></trkpt><trkpt lat="44.8130867" lon="9.5624383"><ele>770.0000000000001</ele><time>2026-05-01T11:36:25.869Z</time></trkpt><trkpt lat="44.81315" lon="9.5624467"><ele>770.0</ele><time>2026-05-01T11:36:27.869Z</time></trkpt><trkpt lat="44.8132283" lon="9.5624267"><ele>770.0</ele><time>2026-05-01T11:36:29.869Z</time></trkpt><trkpt lat="44.8133117" lon="9.5624117"><ele>770.0</ele><time>2026-05-01T11:36:31.869Z</time></trkpt><trkpt lat="44.8134117" lon="9.562395"><ele>770.0000000000001</ele><time>2026-05-01T11:36:33.869Z</time></trkpt><trkpt lat="44.8135117" lon="9.56239"><ele>770.0</ele><time>2026-05-01T11:36:35.869Z</time></trkpt><trkpt lat="44.8136117" lon="9.56239"><ele>770.25</ele><time>2026-05-01T11:36:37.869Z</time></trkpt><trkpt lat="44.8137383" lon="9.5623833"><ele>770.5</ele><time>2026-05-01T11:36:38.869Z</time></trkpt><trkpt lat="44.81385" lon="9.562375"><ele>770.75</ele><time>2026-05-01T11:36:40.869Z</time></trkpt><trkpt lat="44.813965" lon="9.56243"><ele>771.0</ele><time>2026-05-01T11:36:41.869Z</time></trkpt><trkpt lat="44.8140883" lon="9.56247"><ele>771.0</ele><time>2026-05-01T11:36:43.869Z</time></trkpt><trkpt lat="44.8142017" lon="9.5625383"><ele>771.0</ele><time>2026-05-01T11:36:44.869Z</time></trkpt><trkpt lat="44.8142767" lon="9.56257"><ele>771.0</ele><time>2026-05-01T11:36:45.869Z</time></trkpt><trkpt lat="44.81435" lon="9.5626"><ele>771.0</ele><time>2026-05-01T11:36:46.869Z</time></trkpt><trkpt lat="44.8144217" lon="9.5626417"><ele>771.0</ele><time>2026-05-01T11:36:47.869Z</time></trkpt><trkpt lat="44.814505" lon="9.5628267"><ele>768.3333333333334</ele><time>2026-05-01T11:36:49.869Z</time></trkpt><trkpt lat="44.814525" lon="9.5629367"><ele>765.6666666666666</ele><time>2026-05-01T11:36:50.869Z</time></trkpt><trkpt lat="44.8145383" lon="9.563045"><ele>763.0</ele><time>2026-05-01T11:36:51.869Z</time></trkpt><trkpt lat="44.8145383" lon="9.5631517"><ele>760.3333333333333</ele><time>2026-05-01T11:36:52.869Z</time></trkpt><trkpt lat="44.8145433" lon="9.5632817"><ele>757.6666666666666</ele><time>2026-05-01T11:36:53.869Z</time></trkpt><trkpt lat="44.814535" lon="9.56343"><ele>755.0</ele><time>2026-05-01T11:36:55.869Z</time></trkpt><trkpt lat="44.8145133" lon="9.5635717"><ele>755.0</ele><time>2026-05-01T11:36:57.869Z</time></trkpt><trkpt lat="44.8144867" lon="9.56366"><ele>755.0</ele><time>2026-05-01T11:36:58.869Z</time></trkpt><trkpt lat="44.8144733" lon="9.5637583"><ele>755.0</ele><time>2026-05-01T11:36:59.869Z</time></trkpt><trkpt lat="44.8144783" lon="9.5639283"><ele>755.0</ele><time>2026-05-01T11:37:01.869Z</time></trkpt><trkpt lat="44.8145183" lon="9.5641317"><ele>755.0</ele><time>2026-05-01T11:37:03.869Z</time></trkpt><trkpt lat="44.81455" lon="9.5642467"><ele>757.5</ele><time>2026-05-01T11:37:04.869Z</time></trkpt><trkpt lat="44.81458" lon="9.56434"><ele>760.0</ele><time>2026-05-01T11:37:05.869Z</time></trkpt><trkpt lat="44.8146133" lon="9.5644533"><ele>762.5</ele><time>2026-05-01T11:37:06.869Z</time></trkpt><trkpt lat="44.814655" lon="9.56462"><ele>765.0</ele><time>2026-05-01T11:37:08.869Z</time></trkpt><trkpt lat="44.814655" lon="9.564855"><ele>766.0</ele><time>2026-05-01T11:37:10.869Z</time></trkpt><trkpt lat="44.8146367" lon="9.56499"><ele>767.0</ele><time>2026-05-01T11:37:11.869Z</time></trkpt><trkpt lat="44.8146417" lon="9.5651383"><ele>768.0</ele><time>2026-05-01T11:37:13.869Z</time></trkpt><trkpt lat="44.8147333" lon="9.5651067"><ele>769.0</ele><time>2026-05-01T11:37:18.869Z</time></trkpt><trkpt lat="44.8148083" lon="9.565065"><ele>770.0</ele><time>2026-05-01T11:37:20.869Z</time></trkpt><trkpt lat="44.81493" lon="9.565025"><ele>770.0000000000001</ele><time>2026-05-01T11:37:22.869Z</time></trkpt><trkpt lat="44.8150383" lon="9.5650517"><ele>770.0</ele><time>2026-05-01T11:37:24.87Z</time></trkpt><trkpt lat="44.8151033" lon="9.56507"><ele>770.0</ele><time>2026-05-01T11:37:25.869Z</time></trkpt><trkpt lat="44.8151817" lon="9.565085"><ele>770.0</ele><time>2026-05-01T11:37:26.869Z</time></trkpt><trkpt lat="44.8152583" lon="9.5651017"><ele>770.0000000000001</ele><time>2026-05-01T11:37:27.869Z</time></trkpt><trkpt lat="44.815335" lon="9.5651133"><ele>770.0</ele><time>2026-05-01T11:37:28.869Z</time></trkpt><trkpt lat="44.8154033" lon="9.5651217"><ele>765.2</ele><time>2026-05-01T11:37:29.869Z</time></trkpt><trkpt lat="44.8154733" lon="9.565135"><ele>760.4</ele><time>2026-05-01T11:37:30.869Z</time></trkpt><trkpt lat="44.8155767" lon="9.5651267"><ele>755.5999999999999</ele><time>2026-05-01T11:37:32.869Z</time></trkpt><trkpt lat="44.8156833" lon="9.5650617"><ele>750.8</ele><time>2026-05-01T11:37:34.869Z</time></trkpt><trkpt lat="44.8157883" lon="9.5650017"><ele>746.0</ele><time>2026-05-01T11:37:36.869Z</time></trkpt><trkpt lat="44.8158517" lon="9.564955"><ele>746.0</ele><time>2026-05-01T11:37:37.869Z</time></trkpt><trkpt lat="44.8159383" lon="9.5649167"><ele>746.0</ele><time>2026-05-01T11:37:39.869Z</time></trkpt><trkpt lat="44.816015" lon="9.5648433"><ele>746.0</ele><time>2026-05-01T11:37:41.869Z</time></trkpt><trkpt lat="44.8160633" lon="9.5647183"><ele>746.0</ele><time>2026-05-01T11:37:43.869Z</time></trkpt><trkpt lat="44.81609" lon="9.56456"><ele>746.0</ele><time>2026-05-01T11:37:45.869Z</time></trkpt><trkpt lat="44.8161317" lon="9.5644433"><ele>744.4</ele><time>2026-05-01T11:37:47.869Z</time></trkpt><trkpt lat="44.816215" lon="9.5643733"><ele>742.8</ele><time>2026-05-01T11:37:49.869Z</time></trkpt><trkpt lat="44.816315" lon="9.56435"><ele>741.1999999999999</ele><time>2026-05-01T11:37:51.869Z</time></trkpt><trkpt lat="44.816425" lon="9.564415"><ele>739.5999999999999</ele><time>2026-05-01T11:37:53.869Z</time></trkpt><trkpt lat="44.8164917" lon="9.5644667"><ele>738.0</ele><time>2026-05-01T11:37:54.869Z</time></trkpt><trkpt lat="44.8165683" lon="9.5645033"><ele>737.0</ele><time>2026-05-01T11:37:55.869Z</time></trkpt><trkpt lat="44.8166433" lon="9.5645317"><ele>736.0</ele><time>2026-05-01T11:37:56.869Z</time></trkpt><trkpt lat="44.8167117" lon="9.5645767"><ele>735.0</ele><time>2026-05-01T11:37:57.869Z</time></trkpt><trkpt lat="44.8167717" lon="9.56462"><ele>734.0</ele><time>2026-05-01T11:37:58.869Z</time></trkpt><trkpt lat="44.8168267" lon="9.564665"><ele>733.0</ele><time>2026-05-01T11:37:59.869Z</time></trkpt><trkpt lat="44.8169367" lon="9.5647467"><ele>732.0</ele><time>2026-05-01T11:38:01.869Z</time></trkpt><trkpt lat="44.817005" lon="9.5647733"><ele>730.8333333333334</ele><time>2026-05-01T11:38:02.869Z</time></trkpt><trkpt lat="44.817085" lon="9.5647833"><ele>729.6666666666666</ele><time>2026-05-01T11:38:03.869Z</time></trkpt><trkpt lat="44.8171583" lon="9.5647917"><ele>728.5</ele><time>2026-05-01T11:38:04.869Z</time></trkpt><trkpt lat="44.817225" lon="9.5648017"><ele>727.3333333333333</ele><time>2026-05-01T11:38:05.869Z</time></trkpt><trkpt lat="44.8173083" lon="9.56481"><ele>726.1666666666666</ele><time>2026-05-01T11:38:07.87Z</time></trkpt><trkpt lat="44.8173967" lon="9.5648183"><ele>725.0</ele><time>2026-05-01T11:38:10.869Z</time></trkpt><trkpt lat="44.8174767" lon="9.5648033"><ele>725.0</ele><time>2026-05-01T11:38:12.869Z</time></trkpt><trkpt lat="44.817545" lon="9.5647633"><ele>725.0</ele><time>2026-05-01T11:38:14.869Z</time></trkpt><trkpt lat="44.8176017" lon="9.5646933"><ele>725.0</ele><time>2026-05-01T11:38:16.869Z</time></trkpt><trkpt lat="44.8176867" lon="9.5645483"><ele>725.0</ele><time>2026-05-01T11:38:18.869Z</time></trkpt><trkpt lat="44.817745" lon="9.56442"><ele>725.0</ele><time>2026-05-01T11:38:20.869Z</time></trkpt><trkpt lat="44.8177817" lon="9.5643433"><ele>722.6666666666666</ele><time>2026-05-01T11:38:21.869Z</time></trkpt><trkpt lat="44.8178167" lon="9.5642517"><ele>720.3333333333333</ele><time>2026-05-01T11:38:22.869Z</time></trkpt><trkpt lat="44.8178483" lon="9.5641567"><ele>718.0</ele><time>2026-05-01T11:38:23.869Z</time></trkpt><trkpt lat="44.8178833" lon="9.5640617"><ele>715.6666666666666</ele><time>2026-05-01T11:38:24.869Z</time></trkpt><trkpt lat="44.81792" lon="9.5639217"><ele>713.3333333333334</ele><time>2026-05-01T11:38:25.869Z</time></trkpt><trkpt lat="44.8179517" lon="9.5637817"><ele>711.0</ele><time>2026-05-01T11:38:26.869Z</time></trkpt><trkpt lat="44.8179783" lon="9.563625"><ele>711.0</ele><time>2026-05-01T11:38:28.869Z</time></trkpt><trkpt lat="44.818" lon="9.5635333"><ele>711.0</ele><time>2026-05-01T11:38:29.869Z</time></trkpt><trkpt lat="44.8180117" lon="9.56342"><ele>711.0</ele><time>2026-05-01T11:38:31.869Z</time></trkpt><trkpt lat="44.8180217" lon="9.56329"><ele>711.0</ele><time>2026-05-01T11:38:34.869Z</time></trkpt><trkpt lat="44.818065" lon="9.5631783"><ele>711.0</ele><time>2026-05-01T11:38:36.869Z</time></trkpt><trkpt lat="44.8181267" lon="9.5631183"><ele>711.0</ele><time>2026-05-01T11:38:38.869Z</time></trkpt><trkpt lat="44.8182317" lon="9.56301"><ele>711.0</ele><time>2026-05-01T11:38:40.869Z</time></trkpt><trkpt lat="44.8182967" lon="9.5629383"><ele>711.0</ele><time>2026-05-01T11:38:41.869Z</time></trkpt><trkpt lat="44.81836" lon="9.562885"><ele>711.0</ele><time>2026-05-01T11:38:42.869Z</time></trkpt><trkpt lat="44.8184183" lon="9.5628383"><ele>711.0</ele><time>2026-05-01T11:38:43.869Z</time></trkpt><trkpt lat="44.818525" lon="9.5627433"><ele>711.0</ele><time>2026-05-01T11:38:45.869Z</time></trkpt><trkpt lat="44.8185883" lon="9.5626983"><ele>711.0</ele><time>2026-05-01T11:38:46.869Z</time></trkpt><trkpt lat="44.8186567" lon="9.56265"><ele>709.3333333333334</ele><time>2026-05-01T11:38:47.869Z</time></trkpt><trkpt lat="44.8187183" lon="9.562615"><ele>707.6666666666666</ele><time>2026-05-01T11:38:48.869Z</time></trkpt><trkpt lat="44.818785" lon="9.5625917"><ele>706.0</ele><time>2026-05-01T11:38:49.869Z</time></trkpt><trkpt lat="44.8188533" lon="9.5625767"><ele>704.3333333333333</ele><time>2026-05-01T11:38:50.869Z</time></trkpt><trkpt lat="44.81892" lon="9.5625617"><ele>702.6666666666666</ele><time>2026-05-01T11:38:51.869Z</time></trkpt><trkpt lat="44.8190483" lon="9.5625367"><ele>701.0</ele><time>2026-05-01T11:38:53.869Z</time></trkpt><trkpt lat="44.8191617" lon="9.562475"><ele>701.0</ele><time>2026-05-01T11:38:55.869Z</time></trkpt><trkpt lat="44.8192383" lon="9.562425"><ele>701.0</ele><time>2026-05-01T11:38:56.869Z</time></trkpt><trkpt lat="44.8193117" lon="9.5623617"><ele>701.0</ele><time>2026-05-01T11:38:57.869Z</time></trkpt><trkpt lat="44.81937" lon="9.562305"><ele>701.0</ele><time>2026-05-01T11:38:58.869Z</time></trkpt><trkpt lat="44.819425" lon="9.5622417"><ele>701.0</ele><time>2026-05-01T11:38:59.869Z</time></trkpt><trkpt lat="44.8194917" lon="9.5621383"><ele>701.0</ele><time>2026-05-01T11:39:01.869Z</time></trkpt><trkpt lat="44.8195283" lon="9.561995"><ele>700.8</ele><time>2026-05-01T11:39:03.869Z</time></trkpt><trkpt lat="44.819555" lon="9.5619083"><ele>700.5999999999999</ele><time>2026-05-01T11:39:04.869Z</time></trkpt><trkpt lat="44.8196083" lon="9.56177"><ele>700.4</ele><time>2026-05-01T11:39:06.869Z</time></trkpt><trkpt lat="44.8197133" lon="9.5615267"><ele>700.2</ele><time>2026-05-01T11:39:20.869Z</time></trkpt><trkpt lat="44.819695" lon="9.56144"><ele>700.0</ele><time>2026-05-01T11:39:24.87Z</time></trkpt><trkpt lat="44.819675" lon="9.5613433"><ele>700.0</ele><time>2026-05-01T11:39:27.869Z</time></trkpt><trkpt lat="44.8196417" lon="9.561235"><ele>700.0</ele><time>2026-05-01T11:39:31.869Z</time></trkpt><trkpt lat="44.8196433" lon="9.5611083"><ele>700.0</ele><time>2026-05-01T11:39:33.869Z</time></trkpt><trkpt lat="44.8196617" lon="9.5610133"><ele>700.0</ele><time>2026-05-01T11:39:34.869Z</time></trkpt><trkpt lat="44.819705" lon="9.56087"><ele>700.0</ele><time>2026-05-01T11:39:36.869Z</time></trkpt><trkpt lat="44.8197433" lon="9.56079"><ele>700.0</ele><time>2026-05-01T11:39:37.869Z</time></trkpt><trkpt lat="44.8197783" lon="9.5606917"><ele>700.0</ele><time>2026-05-01T11:39:38.869Z</time></trkpt><trkpt lat="44.8198133" lon="9.5605683"><ele>700.0</ele><time>2026-05-01T11:39:39.869Z</time></trkpt><trkpt lat="44.819855" lon="9.56036"><ele>700.0</ele><time>2026-05-01T11:39:40.869Z</time></trkpt><trkpt lat="44.8198867" lon="9.560225"><ele>700.0</ele><time>2026-05-01T11:39:41.869Z</time></trkpt><trkpt lat="44.8199183" lon="9.56007"><ele>700.0</ele><time>2026-05-01T11:39:42.869Z</time></trkpt><trkpt lat="44.819945" lon="9.5599167"><ele>700.0</ele><time>2026-05-01T11:39:43.869Z</time></trkpt><trkpt lat="44.8199683" lon="9.55978"><ele>700.0</ele><time>2026-05-01T11:39:44.869Z</time></trkpt><trkpt lat="44.8199983" lon="9.5596733"><ele>700.0</ele><time>2026-05-01T11:39:45.869Z</time></trkpt><trkpt lat="44.8200617" lon="9.5594517"><ele>701.2</ele><time>2026-05-01T11:39:46.869Z</time></trkpt><trkpt lat="44.8201217" lon="9.55936"><ele>702.4</ele><time>2026-05-01T11:39:47.869Z</time></trkpt><trkpt lat="44.82019" lon="9.5592533"><ele>703.5999999999999</ele><time>2026-05-01T11:39:48.869Z</time></trkpt><trkpt lat="44.8202467" lon="9.55917"><ele>704.8</ele><time>2026-05-01T11:39:49.869Z</time></trkpt><trkpt lat="44.8203067" lon="9.559055"><ele>706.0</ele><time>2026-05-01T11:39:50.869Z</time></trkpt><trkpt lat="44.8203533" lon="9.5589067"><ele>706.0</ele><time>2026-05-01T11:39:51.869Z</time></trkpt><trkpt lat="44.8203967" lon="9.55875"><ele>706.0</ele><time>2026-05-01T11:39:52.869Z</time></trkpt><trkpt lat="44.8204467" lon="9.5585483"><ele>706.0</ele><time>2026-05-01T11:39:53.869Z</time></trkpt><trkpt lat="44.82048" lon="9.5583667"><ele>706.0</ele><time>2026-05-01T11:39:54.869Z</time></trkpt><trkpt lat="44.82052" lon="9.5581533"><ele>701.5</ele><time>2026-05-01T11:39:55.869Z</time></trkpt><trkpt lat="44.8205383" lon="9.5579567"><ele>697.0</ele><time>2026-05-01T11:39:56.869Z</time></trkpt><trkpt lat="44.8205367" lon="9.5577967"><ele>692.5</ele><time>2026-05-01T11:39:57.869Z</time></trkpt><trkpt lat="44.820535" lon="9.5576433"><ele>688.0</ele><time>2026-05-01T11:39:58.869Z</time></trkpt><trkpt lat="44.82054" lon="9.5574817"><ele>685.5</ele><time>2026-05-01T11:39:59.869Z</time></trkpt><trkpt lat="44.8205417" lon="9.5573333"><ele>683.0</ele><time>2026-05-01T11:40:00.869Z</time></trkpt><trkpt lat="44.820535" lon="9.5572117"><ele>680.5</ele><time>2026-05-01T11:40:01.869Z</time></trkpt><trkpt lat="44.8205417" lon="9.5571083"><ele>678.0</ele><time>2026-05-01T11:40:02.869Z</time></trkpt><trkpt lat="44.8205533" lon="9.557015"><ele>675.5</ele><time>2026-05-01T11:40:03.869Z</time></trkpt><trkpt lat="44.8205617" lon="9.556925"><ele>673.0</ele><time>2026-05-01T11:40:04.869Z</time></trkpt><trkpt lat="44.82058" lon="9.5568317"><ele>671.5999999999999</ele><time>2026-05-01T11:40:05.869Z</time></trkpt><trkpt lat="44.82058" lon="9.556685"><ele>670.1999999999999</ele><time>2026-05-01T11:40:07.869Z</time></trkpt><trkpt lat="44.8205517" lon="9.5565383"><ele>668.8</ele><time>2026-05-01T11:40:09.869Z</time></trkpt><trkpt lat="44.820565" lon="9.5563767"><ele>667.4</ele><time>2026-05-01T11:40:11.869Z</time></trkpt><trkpt lat="44.8205917" lon="9.5562333"><ele>666.0</ele><time>2026-05-01T11:40:13.869Z</time></trkpt><trkpt lat="44.820605" lon="9.5560733"><ele>663.8</ele><time>2026-05-01T11:40:15.87Z</time></trkpt><trkpt lat="44.8206167" lon="9.5559033"><ele>661.5999999999999</ele><time>2026-05-01T11:40:17.869Z</time></trkpt><trkpt lat="44.8206167" lon="9.5557967"><ele>659.4</ele><time>2026-05-01T11:40:18.869Z</time></trkpt><trkpt lat="44.820635" lon="9.5556383"><ele>657.2</ele><time>2026-05-01T11:40:20.87Z</time></trkpt><trkpt lat="44.820665" lon="9.5554883"><ele>655.0</ele><time>2026-05-01T11:40:22.869Z</time></trkpt><trkpt lat="44.820705" lon="9.55541"><ele>655.0</ele><time>2026-05-01T11:40:24.869Z</time></trkpt><trkpt lat="44.8207783" lon="9.5553933"><ele>655.0</ele><time>2026-05-01T11:40:26.869Z</time></trkpt><trkpt lat="44.8208417" lon="9.555345"><ele>655.0</ele><time>2026-05-01T11:40:29.87Z</time></trkpt><trkpt lat="44.8208867" lon="9.5554483"><ele>655.0</ele><time>2026-05-01T11:40:33.869Z</time></trkpt><trkpt lat="44.8209217" lon="9.55556"><ele>655.0</ele><time>2026-05-01T11:40:35.869Z</time></trkpt><trkpt lat="44.82097" lon="9.5556617"><ele>655.0</ele><time>2026-05-01T11:40:37.869Z</time></trkpt><trkpt lat="44.8210117" lon="9.55573"><ele>653.2</ele><time>2026-05-01T11:40:39.869Z</time></trkpt><trkpt lat="44.8210783" lon="9.5558133"><ele>651.4</ele><time>2026-05-01T11:40:42.869Z</time></trkpt><trkpt lat="44.82115" lon="9.5558733"><ele>649.5999999999999</ele><time>2026-05-01T11:40:44.869Z</time></trkpt><trkpt lat="44.8212117" lon="9.5559133"><ele>647.8</ele><time>2026-05-01T11:40:46.869Z</time></trkpt><trkpt lat="44.8213017" lon="9.55597"><ele>646.0</ele><time>2026-05-01T11:40:49.869Z</time></trkpt><trkpt lat="44.8214" lon="9.55605"><ele>646.0</ele><time>2026-05-01T11:40:51.869Z</time></trkpt><trkpt lat="44.8214633" lon="9.5560883"><ele>646.0</ele><time>2026-05-01T11:40:52.869Z</time></trkpt><trkpt lat="44.821525" lon="9.556135"><ele>646.0</ele><time>2026-05-01T11:40:53.869Z</time></trkpt><trkpt lat="44.8215817" lon="9.5562067"><ele>646.0</ele><time>2026-05-01T11:40:54.87Z</time></trkpt><trkpt lat="44.8216333" lon="9.55628"><ele>646.0</ele><time>2026-05-01T11:40:55.869Z</time></trkpt><trkpt lat="44.8216817" lon="9.5563467"><ele>646.0</ele><time>2026-05-01T11:40:56.869Z</time></trkpt><trkpt lat="44.8217733" lon="9.556395"><ele>650.4</ele><time>2026-05-01T11:40:58.869Z</time></trkpt><trkpt lat="44.821875" lon="9.55638"><ele>654.8</ele><time>2026-05-01T11:41:00.869Z</time></trkpt><trkpt lat="44.8219783" lon="9.5564233"><ele>659.1999999999999</ele><time>2026-05-01T11:41:31.869Z</time></trkpt><trkpt lat="44.8220617" lon="9.5564"><ele>663.5999999999999</ele><time>2026-05-01T11:41:33.869Z</time></trkpt><trkpt lat="44.82217" lon="9.5563767"><ele>668.0</ele><time>2026-05-01T11:41:35.869Z</time></trkpt><trkpt lat="44.8222333" lon="9.5563617"><ele>668.0</ele><time>2026-05-01T11:41:36.87Z</time></trkpt><trkpt lat="44.82236" lon="9.5563383"><ele>668.0</ele><time>2026-05-01T11:41:38.869Z</time></trkpt><trkpt lat="44.8224317" lon="9.5563383"><ele>668.0</ele><time>2026-05-01T11:41:39.869Z</time></trkpt><trkpt lat="44.8225183" lon="9.556345"><ele>668.0</ele><time>2026-05-01T11:41:40.869Z</time></trkpt><trkpt lat="44.8225867" lon="9.5563467"><ele>668.0</ele><time>2026-05-01T11:41:41.869Z</time></trkpt><trkpt lat="44.8226533" lon="9.5563917"><ele>668.0</ele><time>2026-05-01T11:41:42.869Z</time></trkpt><trkpt lat="44.8227183" lon="9.556445"><ele>666.0</ele><time>2026-05-01T11:41:43.869Z</time></trkpt><trkpt lat="44.8227817" lon="9.5565183"><ele>664.0</ele><time>2026-05-01T11:41:44.869Z</time></trkpt><trkpt lat="44.822835" lon="9.5566017"><ele>662.0</ele><time>2026-05-01T11:41:45.869Z</time></trkpt><trkpt lat="44.8228983" lon="9.5566717"><ele>660.0</ele><time>2026-05-01T11:41:46.869Z</time></trkpt><trkpt lat="44.8229783" lon="9.5567333"><ele>658.0</ele><time>2026-05-01T11:41:47.869Z</time></trkpt><trkpt lat="44.8230567" lon="9.5567883"><ele>656.0</ele><time>2026-05-01T11:41:48.869Z</time></trkpt><trkpt lat="44.8231133" lon="9.5568383"><ele>656.0</ele><time>2026-05-01T11:41:49.869Z</time></trkpt><trkpt lat="44.8231783" lon="9.5569017"><ele>656.0</ele><time>2026-05-01T11:41:51.869Z</time></trkpt><trkpt lat="44.82325" lon="9.55698"><ele>656.0</ele><time>2026-05-01T11:41:54.869Z</time></trkpt><trkpt lat="44.8232817" lon="9.5570733"><ele>656.0</ele><time>2026-05-01T11:41:56.869Z</time></trkpt><trkpt lat="44.8233167" lon="9.55716"><ele>656.0</ele><time>2026-05-01T11:41:59.869Z</time></trkpt><trkpt lat="44.8233733" lon="9.55724"><ele>656.0</ele><time>2026-05-01T11:42:02.87Z</time></trkpt><trkpt lat="44.8234183" lon="9.5573417"><ele>658.8333333333333</ele><time>2026-05-01T11:42:05.87Z</time></trkpt><trkpt lat="44.8234683" lon="9.55742"><ele>661.6666666666666</ele><time>2026-05-01T11:42:08.869Z</time></trkpt><trkpt lat="44.823495" lon="9.5575133"><ele>664.5</ele><time>2026-05-01T11:42:10.869Z</time></trkpt><trkpt lat="44.8235283" lon="9.5576167"><ele>667.3333333333334</ele><time>2026-05-01T11:42:13.869Z</time></trkpt><trkpt lat="44.8235683" lon="9.5576883"><ele>670.1666666666667</ele><time>2026-05-01T11:42:16.869Z</time></trkpt><trkpt lat="44.82364" lon="9.5577817"><ele>673.0</ele><time>2026-05-01T11:42:19.869Z</time></trkpt><trkpt lat="44.823695" lon="9.557875"><ele>675.8</ele><time>2026-05-01T11:42:21.869Z</time></trkpt><trkpt lat="44.823765" lon="9.5580567"><ele>678.5999999999999</ele><time>2026-05-01T11:42:23.869Z</time></trkpt><trkpt lat="44.8238483" lon="9.5581667"><ele>681.4000000000001</ele><time>2026-05-01T11:42:25.869Z</time></trkpt><trkpt lat="44.8238933" lon="9.5582333"><ele>684.2</ele><time>2026-05-01T11:42:26.869Z</time></trkpt><trkpt lat="44.8239667" lon="9.5583367"><ele>687.0</ele><time>2026-05-01T11:42:28.869Z</time></trkpt><trkpt lat="44.8240183" lon="9.5584533"><ele>687.0</ele><time>2026-05-01T11:42:29.869Z</time></trkpt><trkpt lat="44.8240883" lon="9.5585183"><ele>687.0</ele><time>2026-05-01T11:42:32.869Z</time></trkpt><trkpt lat="44.82416" lon="9.5585917"><ele>687.0</ele><time>2026-05-01T11:42:34.869Z</time></trkpt><trkpt lat="44.8242417" lon="9.5586867"><ele>687.0</ele><time>2026-05-01T11:42:36.869Z</time></trkpt><trkpt lat="44.8242883" lon="9.5587533"><ele>687.0</ele><time>2026-05-01T11:42:37.869Z</time></trkpt><trkpt lat="44.8244217" lon="9.5589733"><ele>689.4000000000001</ele><time>2026-05-01T11:42:38.869Z</time></trkpt><trkpt lat="44.824495" lon="9.5590833"><ele>691.8000000000001</ele><time>2026-05-01T11:42:39.869Z</time></trkpt><trkpt lat="44.82457" lon="9.5591883"><ele>694.2</ele><time>2026-05-01T11:42:41.869Z</time></trkpt><trkpt lat="44.824615" lon="9.559255"><ele>696.6</ele><time>2026-05-01T11:42:42.869Z</time></trkpt><trkpt lat="44.824675" lon="9.5593667"><ele>699.0</ele><time>2026-05-01T11:42:44.869Z</time></trkpt><trkpt lat="44.8247483" lon="9.5595067"><ele>695.0</ele><time>2026-05-01T11:42:46.869Z</time></trkpt><trkpt lat="44.8248217" lon="9.5595783"><ele>691.0</ele><time>2026-05-01T11:42:48.869Z</time></trkpt><trkpt lat="44.8248867" lon="9.5595733"><ele>687.0</ele><time>2026-05-01T11:42:50.869Z</time></trkpt><trkpt lat="44.8249567" lon="9.5595733"><ele>683.0</ele><time>2026-05-01T11:42:52.87Z</time></trkpt><trkpt lat="44.8250517" lon="9.5595867"><ele>679.0</ele><time>2026-05-01T11:42:54.869Z</time></trkpt><trkpt lat="44.825135" lon="9.5596033"><ele>675.0</ele><time>2026-05-01T11:42:56.869Z</time></trkpt><trkpt lat="44.8252117" lon="9.55962"><ele>673.6</ele><time>2026-05-01T11:42:59.869Z</time></trkpt><trkpt lat="44.8252833" lon="9.5596317"><ele>672.2</ele><time>2026-05-01T11:43:01.869Z</time></trkpt><trkpt lat="44.82537" lon="9.5596417"><ele>670.8</ele><time>2026-05-01T11:43:03.869Z</time></trkpt><trkpt lat="44.8254667" lon="9.5596517"><ele>669.4</ele><time>2026-05-01T11:43:05.869Z</time></trkpt><trkpt lat="44.8255967" lon="9.5596733"><ele>668.0</ele><time>2026-05-01T11:43:07.869Z</time></trkpt><trkpt lat="44.8257183" lon="9.5596817"><ele>668.0</ele><time>2026-05-01T11:43:09.869Z</time></trkpt><trkpt lat="44.8258367" lon="9.5597233"><ele>668.0</ele><time>2026-05-01T11:43:11.869Z</time></trkpt><trkpt lat="44.8259017" lon="9.559735"><ele>668.0</ele><time>2026-05-01T11:43:12.869Z</time></trkpt><trkpt lat="44.82597" lon="9.5597417"><ele>668.0</ele><time>2026-05-01T11:43:13.869Z</time></trkpt><trkpt lat="44.8260383" lon="9.559755"><ele>668.0</ele><time>2026-05-01T11:43:14.869Z</time></trkpt><trkpt lat="44.8261033" lon="9.5597583"><ele>668.0</ele><time>2026-05-01T11:43:15.869Z</time></trkpt><trkpt lat="44.8261983" lon="9.55978"><ele>666.1666666666666</ele><time>2026-05-01T11:43:17.87Z</time></trkpt><trkpt lat="44.8262617" lon="9.5597733"><ele>664.3333333333333</ele><time>2026-05-01T11:43:18.869Z</time></trkpt><trkpt lat="44.82635" lon="9.559765"><ele>662.5</ele><time>2026-05-01T11:43:20.869Z</time></trkpt><trkpt lat="44.8264467" lon="9.5597133"><ele>660.6666666666666</ele><time>2026-05-01T11:43:22.869Z</time></trkpt><trkpt lat="44.8265383" lon="9.5596867"><ele>658.8333333333334</ele><time>2026-05-01T11:43:24.869Z</time></trkpt><trkpt lat="44.8266217" lon="9.5596667"><ele>657.0</ele><time>2026-05-01T11:43:26.869Z</time></trkpt><trkpt lat="44.826715" lon="9.5596183"><ele>658.6</ele><time>2026-05-01T11:43:28.869Z</time></trkpt><trkpt lat="44.8268283" lon="9.5595433"><ele>660.2</ele><time>2026-05-01T11:43:30.869Z</time></trkpt><trkpt lat="44.8269317" lon="9.55946"><ele>661.8</ele><time>2026-05-01T11:43:31.869Z</time></trkpt><trkpt lat="44.8270117" lon="9.5594017"><ele>663.4</ele><time>2026-05-01T11:43:32.869Z</time></trkpt><trkpt lat="44.8270883" lon="9.55937"><ele>665.0</ele><time>2026-05-01T11:43:33.869Z</time></trkpt><trkpt lat="44.8272083" lon="9.55932"><ele>665.0</ele><time>2026-05-01T11:43:35.869Z</time></trkpt><trkpt lat="44.827265" lon="9.55925"><ele>665.0</ele><time>2026-05-01T11:43:36.869Z</time></trkpt><trkpt lat="44.8273433" lon="9.559215"><ele>665.0</ele><time>2026-05-01T11:43:38.869Z</time></trkpt><trkpt lat="44.8274333" lon="9.5591867"><ele>665.0</ele><time>2026-05-01T11:43:41.869Z</time></trkpt><trkpt lat="44.8275017" lon="9.5592117"><ele>665.0</ele><time>2026-05-01T11:43:44.869Z</time></trkpt><trkpt lat="44.8275633" lon="9.5592367"><ele>665.0</ele><time>2026-05-01T11:43:47.869Z</time></trkpt><trkpt lat="44.8276517" lon="9.5592483"><ele>664.4</ele><time>2026-05-01T11:43:49.87Z</time></trkpt><trkpt lat="44.8277883" lon="9.5593033"><ele>663.8</ele><time>2026-05-01T11:43:51.869Z</time></trkpt><trkpt lat="44.82791" lon="9.5593167"><ele>663.2</ele><time>2026-05-01T11:43:53.869Z</time></trkpt><trkpt lat="44.8279817" lon="9.55931"><ele>662.6</ele><time>2026-05-01T11:43:54.869Z</time></trkpt><trkpt lat="44.8280567" lon="9.5593333"><ele>662.0</ele><time>2026-05-01T11:43:56.869Z</time></trkpt><trkpt lat="44.8281217" lon="9.5593417"><ele>662.0</ele><time>2026-05-01T11:43:58.869Z</time></trkpt><trkpt lat="44.8282133" lon="9.55934"><ele>662.0</ele><time>2026-05-01T11:44:01.869Z</time></trkpt><trkpt lat="44.828285" lon="9.5593217"><ele>662.0</ele><time>2026-05-01T11:44:03.869Z</time></trkpt><trkpt lat="44.82838" lon="9.5593067"><ele>662.0</ele><time>2026-05-01T11:44:06.869Z</time></trkpt><trkpt lat="44.828465" lon="9.5592617"><ele>662.0</ele><time>2026-05-01T11:44:09.869Z</time></trkpt><trkpt lat="44.82854" lon="9.5592217"><ele>662.0</ele><time>2026-05-01T11:44:12.869Z</time></trkpt><trkpt lat="44.8286083" lon="9.5591733"><ele>661.5</ele><time>2026-05-01T11:44:16.869Z</time></trkpt><trkpt lat="44.82867" lon="9.5591383"><ele>661.0</ele><time>2026-05-01T11:44:23.869Z</time></trkpt><trkpt lat="44.8287633" lon="9.5591311"><ele>660.5</ele><time>2026-05-01T11:45:52.914Z</time></trkpt><trkpt lat="44.8288117" lon="9.5592068"><ele>660.0</ele><time>2026-05-01T11:45:56.895Z</time></trkpt><trkpt lat="44.8288683" lon="9.5592854"><ele>659.5</ele><time>2026-05-01T11:45:59.869Z</time></trkpt><trkpt lat="44.8289266" lon="9.5593237"><ele>659.0</ele><time>2026-05-01T11:46:03.932Z</time></trkpt><trkpt lat="44.829006" lon="9.5594442"><ele>659.0</ele><time>2026-05-01T11:46:04.891Z</time></trkpt><trkpt lat="44.8290736" lon="9.5595264"><ele>659.0</ele><time>2026-05-01T11:46:06.914Z</time></trkpt><trkpt lat="44.829128" lon="9.5595964"><ele>659.0</ele><time>2026-05-01T11:46:08.943Z</time></trkpt><trkpt lat="44.8292817" lon="9.559705"><ele>659.0</ele><time>2026-05-01T11:46:10.869Z</time></trkpt><trkpt lat="44.829355" lon="9.5597733"><ele>659.0</ele><time>2026-05-01T11:46:12.869Z</time></trkpt><trkpt lat="44.8294017" lon="9.55984"><ele>655.2</ele><time>2026-05-01T11:46:14.869Z</time></trkpt><trkpt lat="44.8294467" lon="9.559935"><ele>651.4000000000001</ele><time>2026-05-01T11:46:16.869Z</time></trkpt><trkpt lat="44.8294767" lon="9.5600167"><ele>647.6</ele><time>2026-05-01T11:46:18.869Z</time></trkpt><trkpt lat="44.8295617" lon="9.560275"><ele>643.8</ele><time>2026-05-01T11:46:19.869Z</time></trkpt><trkpt lat="44.8295883" lon="9.5603617"><ele>640.0</ele><time>2026-05-01T11:46:21.869Z</time></trkpt><trkpt lat="44.8295967" lon="9.560475"><ele>638.8</ele><time>2026-05-01T11:46:23.869Z</time></trkpt><trkpt lat="44.8295867" lon="9.5606017"><ele>637.6</ele><time>2026-05-01T11:46:25.869Z</time></trkpt><trkpt lat="44.82956" lon="9.56076"><ele>636.4</ele><time>2026-05-01T11:46:27.869Z</time></trkpt><trkpt lat="44.8295183" lon="9.5609033"><ele>635.2</ele><time>2026-05-01T11:46:29.869Z</time></trkpt><trkpt lat="44.82948" lon="9.561045"><ele>634.0</ele><time>2026-05-01T11:46:31.869Z</time></trkpt><trkpt lat="44.8294733" lon="9.5612817"><ele>633.6</ele><time>2026-05-01T11:46:33.869Z</time></trkpt><trkpt lat="44.8294983" lon="9.5614667"><ele>633.2</ele><time>2026-05-01T11:46:35.869Z</time></trkpt><trkpt lat="44.8295133" lon="9.5615633"><ele>632.8000000000001</ele><time>2026-05-01T11:46:36.869Z</time></trkpt><trkpt lat="44.8295283" lon="9.5616517"><ele>632.4</ele><time>2026-05-01T11:46:37.869Z</time></trkpt><trkpt lat="44.8295417" lon="9.5617433"><ele>632.0</ele><time>2026-05-01T11:46:38.869Z</time></trkpt><trkpt lat="44.8295767" lon="9.5619133"><ele>632.0</ele><time>2026-05-01T11:46:40.869Z</time></trkpt><trkpt lat="44.8295433" lon="9.5620183"><ele>632.0</ele><time>2026-05-01T11:46:42.869Z</time></trkpt><trkpt lat="44.8295117" lon="9.5621633"><ele>632.0</ele><time>2026-05-01T11:46:44.869Z</time></trkpt><trkpt lat="44.8295167" lon="9.5622867"><ele>632.0</ele><time>2026-05-01T11:46:46.869Z</time></trkpt><trkpt lat="44.8295833" lon="9.562445"><ele>632.0</ele><time>2026-05-01T11:46:48.869Z</time></trkpt><trkpt lat="44.8296283" lon="9.562535"><ele>632.6666666666666</ele><time>2026-05-01T11:46:49.869Z</time></trkpt><trkpt lat="44.8296683" lon="9.5626117"><ele>633.3333333333333</ele><time>2026-05-01T11:46:50.869Z</time></trkpt><trkpt lat="44.8297183" lon="9.5627583"><ele>634.0</ele><time>2026-05-01T11:46:52.869Z</time></trkpt><trkpt lat="44.82975" lon="9.5628433"><ele>634.6666666666666</ele><time>2026-05-01T11:46:53.869Z</time></trkpt><trkpt lat="44.829775" lon="9.5629267"><ele>635.3333333333334</ele><time>2026-05-01T11:46:54.869Z</time></trkpt><trkpt lat="44.8298183" lon="9.5630467"><ele>636.0</ele><time>2026-05-01T11:46:55.869Z</time></trkpt><trkpt lat="44.829885" lon="9.56317"><ele>636.0</ele><time>2026-05-01T11:46:57.869Z</time></trkpt><trkpt lat="44.8299467" lon="9.5632967"><ele>636.0</ele><time>2026-05-01T11:46:58.869Z</time></trkpt><trkpt lat="44.83" lon="9.5633567"><ele>636.0</ele><time>2026-05-01T11:46:59.869Z</time></trkpt><trkpt lat="44.830095" lon="9.56347"><ele>636.0</ele><time>2026-05-01T11:47:01.869Z</time></trkpt><trkpt lat="44.8301583" lon="9.56358"><ele>636.0</ele><time>2026-05-01T11:47:03.869Z</time></trkpt><trkpt lat="44.830235" lon="9.5637017"><ele>637.2</ele><time>2026-05-01T11:47:05.869Z</time></trkpt><trkpt lat="44.8303067" lon="9.5638167"><ele>638.4000000000001</ele><time>2026-05-01T11:47:07.869Z</time></trkpt><trkpt lat="44.830405" lon="9.5639167"><ele>639.6</ele><time>2026-05-01T11:47:09.869Z</time></trkpt><trkpt lat="44.8304683" lon="9.56397"><ele>640.8000000000001</ele><time>2026-05-01T11:47:10.869Z</time></trkpt><trkpt lat="44.8305417" lon="9.564025"><ele>642.0</ele><time>2026-05-01T11:47:11.869Z</time></trkpt><trkpt lat="44.83061" lon="9.5640767"><ele>642.0</ele><time>2026-05-01T11:47:12.869Z</time></trkpt><trkpt lat="44.8306883" lon="9.56413"><ele>642.0</ele><time>2026-05-01T11:47:13.869Z</time></trkpt><trkpt lat="44.8307383" lon="9.5641983"><ele>642.0</ele><time>2026-05-01T11:47:14.869Z</time></trkpt><trkpt lat="44.8308117" lon="9.5643133"><ele>642.0</ele><time>2026-05-01T11:47:16.869Z</time></trkpt><trkpt lat="44.830865" lon="9.56445"><ele>642.0</ele><time>2026-05-01T11:47:18.869Z</time></trkpt><trkpt lat="44.8309367" lon="9.5645983"><ele>642.0</ele><time>2026-05-01T11:47:20.869Z</time></trkpt><trkpt lat="44.8309817" lon="9.5646783"><ele>642.0</ele><time>2026-05-01T11:47:21.869Z</time></trkpt><trkpt lat="44.8310383" lon="9.5647617"><ele>642.0</ele><time>2026-05-01T11:47:22.869Z</time></trkpt><trkpt lat="44.8310983" lon="9.5648333"><ele>642.0</ele><time>2026-05-01T11:47:23.869Z</time></trkpt><trkpt lat="44.8311717" lon="9.5649"><ele>642.0</ele><time>2026-05-01T11:47:24.869Z</time></trkpt><trkpt lat="44.831235" lon="9.5649617"><ele>642.0</ele><time>2026-05-01T11:47:25.869Z</time></trkpt><trkpt lat="44.8312933" lon="9.5650233"><ele>641.9999999999999</ele><time>2026-05-01T11:47:26.869Z</time></trkpt><trkpt lat="44.83135" lon="9.5650817"><ele>642.0</ele><time>2026-05-01T11:47:27.869Z</time></trkpt><trkpt lat="44.83141" lon="9.5651433"><ele>642.0</ele><time>2026-05-01T11:47:28.869Z</time></trkpt><trkpt lat="44.8314667" lon="9.5652017"><ele>642.0</ele><time>2026-05-01T11:47:29.869Z</time></trkpt><trkpt lat="44.8315283" lon="9.5652617"><ele>642.0</ele><time>2026-05-01T11:47:30.869Z</time></trkpt><trkpt lat="44.8315833" lon="9.5653183"><ele>641.9999999999999</ele><time>2026-05-01T11:47:31.869Z</time></trkpt><trkpt lat="44.8316317" lon="9.5653783"><ele>642.0</ele><time>2026-05-01T11:47:32.869Z</time></trkpt><trkpt lat="44.8316933" lon="9.5654433"><ele>641.7142857142857</ele><time>2026-05-01T11:47:33.869Z</time></trkpt><trkpt lat="44.8317533" lon="9.5654917"><ele>641.4285714285714</ele><time>2026-05-01T11:47:34.869Z</time></trkpt><trkpt lat="44.8318183" lon="9.5655317"><ele>641.1428571428571</ele><time>2026-05-01T11:47:35.869Z</time></trkpt><trkpt lat="44.8318883" lon="9.5655617"><ele>640.8571428571429</ele><time>2026-05-01T11:47:36.869Z</time></trkpt><trkpt lat="44.8319583" lon="9.565565"><ele>640.5714285714286</ele><time>2026-05-01T11:47:37.869Z</time></trkpt><trkpt lat="44.8320283" lon="9.5655667"><ele>640.2857142857142</ele><time>2026-05-01T11:47:38.869Z</time></trkpt><trkpt lat="44.8320983" lon="9.5655533"><ele>640.0</ele><time>2026-05-01T11:47:39.869Z</time></trkpt><trkpt lat="44.8321633" lon="9.5655367"><ele>634.5</ele><time>2026-05-01T11:47:40.869Z</time></trkpt><trkpt lat="44.8322267" lon="9.5655183"><ele>629.0</ele><time>2026-05-01T11:47:41.869Z</time></trkpt><trkpt lat="44.832585" lon="9.5650017"><ele>624.8</ele><time>2026-05-01T11:47:46.364Z</time></trkpt><trkpt lat="44.83265" lon="9.5648433"><ele>620.5999999999999</ele><time>2026-05-01T11:47:48.864Z</time></trkpt><trkpt lat="44.832725" lon="9.56475"><ele>616.4</ele><time>2026-05-01T11:47:50.864Z</time></trkpt><trkpt lat="44.8327883" lon="9.5646433"><ele>612.1999999999999</ele><time>2026-05-01T11:47:52.864Z</time></trkpt><trkpt lat="44.83287" lon="9.5645767"><ele>608.0</ele><time>2026-05-01T11:47:54.864Z</time></trkpt><trkpt lat="44.8329433" lon="9.5645817"><ele>608.0</ele><time>2026-05-01T11:47:56.864Z</time></trkpt><trkpt lat="44.8330333" lon="9.5645917"><ele>608.0</ele><time>2026-05-01T11:47:58.864Z</time></trkpt><trkpt lat="44.8331233" lon="9.5645917"><ele>608.0</ele><time>2026-05-01T11:48:00.864Z</time></trkpt><trkpt lat="44.83321" lon="9.5645683"><ele>608.0</ele><time>2026-05-01T11:48:03.865Z</time></trkpt><trkpt lat="44.8333" lon="9.564525"><ele>608.0</ele><time>2026-05-01T11:48:06.864Z</time></trkpt><trkpt lat="44.8333633" lon="9.5644867"><ele>608.0</ele><time>2026-05-01T11:48:08.864Z</time></trkpt><trkpt lat="44.8334067" lon="9.56442"><ele>607.0</ele><time>2026-05-01T11:48:10.864Z</time></trkpt><trkpt lat="44.8334483" lon="9.5643417"><ele>606.0</ele><time>2026-05-01T11:48:12.864Z</time></trkpt><trkpt lat="44.8334733" lon="9.56425"><ele>605.0</ele><time>2026-05-01T11:48:14.864Z</time></trkpt><trkpt lat="44.83348" lon="9.5641367"><ele>604.0</ele><time>2026-05-01T11:48:17.864Z</time></trkpt><trkpt lat="44.83347" lon="9.5640317"><ele>603.0</ele><time>2026-05-01T11:48:20.864Z</time></trkpt><trkpt lat="44.8334817" lon="9.56391"><ele>602.0</ele><time>2026-05-01T11:48:23.864Z</time></trkpt><trkpt lat="44.8335317" lon="9.5638167"><ele>599.5</ele><time>2026-05-01T11:48:25.864Z</time></trkpt><trkpt lat="44.8335983" lon="9.563775"><ele>597.0</ele><time>2026-05-01T11:48:27.864Z</time></trkpt><trkpt lat="44.8336667" lon="9.5637833"><ele>594.5</ele><time>2026-05-01T11:48:29.864Z</time></trkpt><trkpt lat="44.8337383" lon="9.5638033"><ele>592.0</ele><time>2026-05-01T11:48:31.864Z</time></trkpt><trkpt lat="44.833825" lon="9.5638233"><ele>589.5</ele><time>2026-05-01T11:48:33.864Z</time></trkpt><trkpt lat="44.833915" lon="9.5638467"><ele>587.0</ele><time>2026-05-01T11:48:35.864Z</time></trkpt><trkpt lat="44.8340133" lon="9.5638533"><ele>587.0</ele><time>2026-05-01T11:48:37.864Z</time></trkpt><trkpt lat="44.8341067" lon="9.5638583"><ele>587.0</ele><time>2026-05-01T11:48:39.864Z</time></trkpt><trkpt lat="44.83418" lon="9.5638783"><ele>587.0</ele><time>2026-05-01T11:48:41.864Z</time></trkpt><trkpt lat="44.8342533" lon="9.563925"><ele>587.0</ele><time>2026-05-01T11:48:43.864Z</time></trkpt><trkpt lat="44.8343267" lon="9.5639933"><ele>587.0</ele><time>2026-05-01T11:48:45.864Z</time></trkpt><trkpt lat="44.8343733" lon="9.5640533"><ele>587.0</ele><time>2026-05-01T11:48:47.864Z</time></trkpt><trkpt lat="44.8344483" lon="9.564175"><ele>582.6666666666666</ele><time>2026-05-01T11:48:49.864Z</time></trkpt><trkpt lat="44.8345233" lon="9.564285"><ele>578.3333333333333</ele><time>2026-05-01T11:48:51.864Z</time></trkpt><trkpt lat="44.834575" lon="9.5643567"><ele>574.0</ele><time>2026-05-01T11:48:52.864Z</time></trkpt><trkpt lat="44.83462" lon="9.5644233"><ele>569.6666666666666</ele><time>2026-05-01T11:48:53.864Z</time></trkpt><trkpt lat="44.8346883" lon="9.5645233"><ele>565.3333333333334</ele><time>2026-05-01T11:48:55.864Z</time></trkpt><trkpt lat="44.8347667" lon="9.564605"><ele>561.0</ele><time>2026-05-01T11:48:57.864Z</time></trkpt><trkpt lat="44.8348633" lon="9.564655"><ele>560.3333333333334</ele><time>2026-05-01T11:48:59.864Z</time></trkpt><trkpt lat="44.834935" lon="9.5646767"><ele>559.6666666666666</ele><time>2026-05-01T11:49:00.864Z</time></trkpt><trkpt lat="44.8350133" lon="9.5647017"><ele>559.0</ele><time>2026-05-01T11:49:01.864Z</time></trkpt><trkpt lat="44.8350883" lon="9.5647333"><ele>558.3333333333333</ele><time>2026-05-01T11:49:02.864Z</time></trkpt><trkpt lat="44.835165" lon="9.564765"><ele>557.6666666666666</ele><time>2026-05-01T11:49:03.864Z</time></trkpt><trkpt lat="44.8352383" lon="9.5647867"><ele>557.0</ele><time>2026-05-01T11:49:04.865Z</time></trkpt><trkpt lat="44.8353167" lon="9.564805"><ele>555.1666666666666</ele><time>2026-05-01T11:49:05.864Z</time></trkpt><trkpt lat="44.8354383" lon="9.5648133"><ele>553.3333333333333</ele><time>2026-05-01T11:49:07.864Z</time></trkpt><trkpt lat="44.8355583" lon="9.564795"><ele>551.5</ele><time>2026-05-01T11:49:09.864Z</time></trkpt><trkpt lat="44.835625" lon="9.56478"><ele>549.6666666666666</ele><time>2026-05-01T11:49:10.864Z</time></trkpt><trkpt lat="44.8356967" lon="9.5647667"><ele>547.8333333333334</ele><time>2026-05-01T11:49:11.864Z</time></trkpt><trkpt lat="44.8357617" lon="9.56475"><ele>546.0</ele><time>2026-05-01T11:49:12.864Z</time></trkpt><trkpt lat="44.8358683" lon="9.56474"><ele>545.6</ele><time>2026-05-01T11:49:14.864Z</time></trkpt><trkpt lat="44.8359733" lon="9.5647367"><ele>545.2</ele><time>2026-05-01T11:49:16.864Z</time></trkpt><trkpt lat="44.8360833" lon="9.5647417"><ele>544.8</ele><time>2026-05-01T11:49:18.864Z</time></trkpt><trkpt lat="44.8361967" lon="9.564755"><ele>544.4</ele><time>2026-05-01T11:49:20.864Z</time></trkpt><trkpt lat="44.8362633" lon="9.5647583"><ele>544.0</ele><time>2026-05-01T11:49:21.864Z</time></trkpt><trkpt lat="44.8363367" lon="9.5647783"><ele>544.0</ele><time>2026-05-01T11:49:22.864Z</time></trkpt><trkpt lat="44.8364233" lon="9.5648"><ele>544.0</ele><time>2026-05-01T11:49:23.864Z</time></trkpt><trkpt lat="44.8365317" lon="9.56481"><ele>544.0</ele><time>2026-05-01T11:49:24.864Z</time></trkpt><trkpt lat="44.8366583" lon="9.5648283"><ele>544.0</ele><time>2026-05-01T11:49:25.864Z</time></trkpt><trkpt lat="44.8367917" lon="9.5648383"><ele>545.25</ele><time>2026-05-01T11:49:26.865Z</time></trkpt><trkpt lat="44.8369217" lon="9.56486"><ele>546.5</ele><time>2026-05-01T11:49:27.864Z</time></trkpt><trkpt lat="44.8370417" lon="9.5649083"><ele>547.75</ele><time>2026-05-01T11:49:28.864Z</time></trkpt><trkpt lat="44.83716" lon="9.56495"><ele>549.0</ele><time>2026-05-01T11:49:29.864Z</time></trkpt><trkpt lat="44.8372733" lon="9.5649883"><ele>549.0</ele><time>2026-05-01T11:49:30.864Z</time></trkpt><trkpt lat="44.8373683" lon="9.5649983"><ele>549.0</ele><time>2026-05-01T11:49:31.864Z</time></trkpt><trkpt lat="44.8374767" lon="9.5649967"><ele>549.0</ele><time>2026-05-01T11:49:32.864Z</time></trkpt><trkpt lat="44.83757" lon="9.564975"><ele>549.0</ele><time>2026-05-01T11:49:33.864Z</time></trkpt><trkpt lat="44.83765" lon="9.5649417"><ele>549.0</ele><time>2026-05-01T11:49:34.864Z</time></trkpt><trkpt lat="44.83773" lon="9.5649017"><ele>547.6666666666666</ele><time>2026-05-01T11:49:35.864Z</time></trkpt><trkpt lat="44.83781" lon="9.5648567"><ele>546.3333333333334</ele><time>2026-05-01T11:49:36.864Z</time></trkpt><trkpt lat="44.8378867" lon="9.5648117"><ele>545.0</ele><time>2026-05-01T11:49:37.864Z</time></trkpt><trkpt lat="44.8379683" lon="9.564775"><ele>543.6666666666667</ele><time>2026-05-01T11:49:38.864Z</time></trkpt><trkpt lat="44.8380433" lon="9.5647467"><ele>542.3333333333334</ele><time>2026-05-01T11:49:39.864Z</time></trkpt><trkpt lat="44.838125" lon="9.56474"><ele>541.0</ele><time>2026-05-01T11:49:40.864Z</time></trkpt><trkpt lat="44.8381933" lon="9.56474"><ele>541.0000000000001</ele><time>2026-05-01T11:49:41.864Z</time></trkpt><trkpt lat="44.8382717" lon="9.5647283"><ele>541.0</ele><time>2026-05-01T11:49:42.864Z</time></trkpt><trkpt lat="44.8383417" lon="9.5647033"><ele>541.0</ele><time>2026-05-01T11:49:43.864Z</time></trkpt><trkpt lat="44.83841" lon="9.5646667"><ele>541.0</ele><time>2026-05-01T11:49:44.864Z</time></trkpt><trkpt lat="44.8384733" lon="9.56463"><ele>541.0</ele><time>2026-05-01T11:49:45.864Z</time></trkpt><trkpt lat="44.8385333" lon="9.564585"><ele>541.0000000000001</ele><time>2026-05-01T11:49:46.864Z</time></trkpt><trkpt lat="44.8385933" lon="9.5645467"><ele>541.0</ele><time>2026-05-01T11:49:47.865Z</time></trkpt><trkpt lat="44.838655" lon="9.5645117"><ele>538.7142857142858</ele><time>2026-05-01T11:49:48.864Z</time></trkpt><trkpt lat="44.8387233" lon="9.5644783"><ele>536.4285714285714</ele><time>2026-05-01T11:49:49.864Z</time></trkpt><trkpt lat="44.8387883" lon="9.5644217"><ele>534.1428571428571</ele><time>2026-05-01T11:49:50.864Z</time></trkpt><trkpt lat="44.83884" lon="9.5643567"><ele>531.8571428571429</ele><time>2026-05-01T11:49:51.864Z</time></trkpt><trkpt lat="44.83889" lon="9.56429"><ele>529.5714285714286</ele><time>2026-05-01T11:49:52.864Z</time></trkpt><trkpt lat="44.8389317" lon="9.56421"><ele>527.2857142857143</ele><time>2026-05-01T11:49:53.864Z</time></trkpt><trkpt lat="44.8389717" lon="9.5641267"><ele>525.0</ele><time>2026-05-01T11:49:54.864Z</time></trkpt><trkpt lat="44.8390217" lon="9.5639867"><ele>525.0</ele><time>2026-05-01T11:49:56.864Z</time></trkpt><trkpt lat="44.8390967" lon="9.563915"><ele>525.0</ele><time>2026-05-01T11:49:58.864Z</time></trkpt><trkpt lat="44.8391617" lon="9.5639267"><ele>525.0</ele><time>2026-05-01T11:50:00.864Z</time></trkpt><trkpt lat="44.8392417" lon="9.5639283"><ele>525.0</ele><time>2026-05-01T11:50:03.864Z</time></trkpt><trkpt lat="44.8393467" lon="9.5639317"><ele>525.0</ele><time>2026-05-01T11:50:06.864Z</time></trkpt><trkpt lat="44.8394567" lon="9.563925"><ele>519.75</ele><time>2026-05-01T11:50:08.864Z</time></trkpt><trkpt lat="44.8395667" lon="9.5639117"><ele>514.5</ele><time>2026-05-01T11:50:10.864Z</time></trkpt><trkpt lat="44.83967" lon="9.5638667"><ele>509.25</ele><time>2026-05-01T11:50:12.864Z</time></trkpt><trkpt lat="44.83978" lon="9.5638"><ele>504.0</ele><time>2026-05-01T11:50:14.864Z</time></trkpt><trkpt lat="44.8398867" lon="9.5637117"><ele>504.6666666666667</ele><time>2026-05-01T11:50:16.865Z</time></trkpt><trkpt lat="44.839985" lon="9.5635917"><ele>505.33333333333337</ele><time>2026-05-01T11:50:18.864Z</time></trkpt><trkpt lat="44.840035" lon="9.5635183"><ele>506.0</ele><time>2026-05-01T11:50:19.864Z</time></trkpt><trkpt lat="44.840085" lon="9.56345"><ele>506.6666666666667</ele><time>2026-05-01T11:50:20.864Z</time></trkpt><trkpt lat="44.8401567" lon="9.5633633"><ele>507.33333333333337</ele><time>2026-05-01T11:50:22.865Z</time></trkpt><trkpt lat="44.84022" lon="9.5632983"><ele>508.0</ele><time>2026-05-01T11:50:25.864Z</time></trkpt><trkpt lat="44.840245" lon="9.5634033"><ele>507.2</ele><time>2026-05-01T11:50:29.864Z</time></trkpt><trkpt lat="44.8402117" lon="9.56355"><ele>506.4</ele><time>2026-05-01T11:50:31.864Z</time></trkpt><trkpt lat="44.8401867" lon="9.5636467"><ele>505.59999999999997</ele><time>2026-05-01T11:50:32.864Z</time></trkpt><trkpt lat="44.84016" lon="9.5637633"><ele>504.79999999999995</ele><time>2026-05-01T11:50:33.864Z</time></trkpt><trkpt lat="44.8401317" lon="9.5638867"><ele>504.0</ele><time>2026-05-01T11:50:34.864Z</time></trkpt><trkpt lat="44.8401017" lon="9.5640133"><ele>504.0</ele><time>2026-05-01T11:50:35.864Z</time></trkpt><trkpt lat="44.8400733" lon="9.5641433"><ele>504.0</ele><time>2026-05-01T11:50:36.864Z</time></trkpt><trkpt lat="44.8400383" lon="9.564275"><ele>504.0</ele><time>2026-05-01T11:50:37.864Z</time></trkpt><trkpt lat="44.8400033" lon="9.5644083"><ele>504.0</ele><time>2026-05-01T11:50:38.864Z</time></trkpt><trkpt lat="44.839965" lon="9.564545"><ele>504.0</ele><time>2026-05-01T11:50:39.864Z</time></trkpt><trkpt lat="44.8399133" lon="9.564665"><ele>503.0</ele><time>2026-05-01T11:50:40.865Z</time></trkpt><trkpt lat="44.8398433" lon="9.5647633"><ele>502.0</ele><time>2026-05-01T11:50:41.864Z</time></trkpt><trkpt lat="44.8397717" lon="9.5648467"><ele>501.0</ele><time>2026-05-01T11:50:42.864Z</time></trkpt><trkpt lat="44.8397017" lon="9.5649117"><ele>500.0</ele><time>2026-05-01T11:50:43.864Z</time></trkpt><trkpt lat="44.8396417" lon="9.56498"><ele>499.0</ele><time>2026-05-01T11:50:44.864Z</time></trkpt><trkpt lat="44.8396" lon="9.565055"><ele>498.0</ele><time>2026-05-01T11:50:45.864Z</time></trkpt><trkpt lat="44.83959" lon="9.56521"><ele>498.0</ele><time>2026-05-01T11:50:47.864Z</time></trkpt><trkpt lat="44.839625" lon="9.5652917"><ele>498.0</ele><time>2026-05-01T11:50:48.864Z</time></trkpt><trkpt lat="44.839645" lon="9.56538"><ele>498.0</ele><time>2026-05-01T11:50:49.864Z</time></trkpt><trkpt lat="44.8396533" lon="9.5655133"><ele>498.0</ele><time>2026-05-01T11:50:51.864Z</time></trkpt><trkpt lat="44.8397317" lon="9.5655633"><ele>498.0</ele><time>2026-05-01T11:51:34.864Z</time></trkpt><trkpt lat="44.8397967" lon="9.5656117"><ele>498.0</ele><time>2026-05-01T11:51:36.864Z</time></trkpt><trkpt lat="44.8398717" lon="9.5656683"><ele>497.0</ele><time>2026-05-01T11:51:38.864Z</time></trkpt><trkpt lat="44.8399417" lon="9.5657533"><ele>496.0</ele><time>2026-05-01T11:51:40.864Z</time></trkpt><trkpt lat="44.8399533" lon="9.5658867"><ele>495.0</ele><time>2026-05-01T11:51:43.864Z</time></trkpt><trkpt lat="44.8399417" lon="9.5659967"><ele>494.0</ele><time>2026-05-01T11:51:45.864Z</time></trkpt><trkpt lat="44.839915" lon="9.56608"><ele>493.0</ele><time>2026-05-01T11:51:47.864Z</time></trkpt><trkpt lat="44.8398767" lon="9.566195"><ele>492.0</ele><time>2026-05-01T11:51:50.864Z</time></trkpt><trkpt lat="44.8398417" lon="9.566285"><ele>490.7142857142858</ele><time>2026-05-01T11:51:53.864Z</time></trkpt><trkpt lat="44.839785" lon="9.5663583"><ele>489.42857142857144</ele><time>2026-05-01T11:52:00.864Z</time></trkpt><trkpt lat="44.839725" lon="9.566425"><ele>488.14285714285717</ele><time>2026-05-01T11:52:04.864Z</time></trkpt><trkpt lat="44.8396933" lon="9.5665083"><ele>486.8571428571429</ele><time>2026-05-01T11:52:07.864Z</time></trkpt><trkpt lat="44.8396583" lon="9.5665917"><ele>485.57142857142856</ele><time>2026-05-01T11:52:12.864Z</time></trkpt><trkpt lat="44.83963" lon="9.5666733"><ele>484.2857142857143</ele><time>2026-05-01T11:52:15.864Z</time></trkpt><trkpt lat="44.8396317" lon="9.566765"><ele>483.0</ele><time>2026-05-01T11:52:18.864Z</time></trkpt><trkpt lat="44.8396667" lon="9.56685"><ele>483.0</ele><time>2026-05-01T11:52:22.864Z</time></trkpt><trkpt lat="44.8397083" lon="9.5669167"><ele>483.0</ele><time>2026-05-01T11:52:28.864Z</time></trkpt><trkpt lat="44.8397967" lon="9.5669317"><ele>483.0</ele><time>2026-05-01T11:52:33.864Z</time></trkpt><trkpt lat="44.8398683" lon="9.56696"><ele>483.0</ele><time>2026-05-01T11:52:36.864Z</time></trkpt><trkpt lat="44.8399317" lon="9.5669617"><ele>483.0</ele><time>2026-05-01T11:52:41.864Z</time></trkpt><trkpt lat="44.8400017" lon="9.5668917"><ele>483.0</ele><time>2026-05-01T11:52:45.864Z</time></trkpt><trkpt lat="44.8400683" lon="9.5668683"><ele>483.0</ele><time>2026-05-01T11:52:49.864Z</time></trkpt><trkpt lat="44.8401383" lon="9.5668717"><ele>484.1428571428571</ele><time>2026-05-01T11:52:54.864Z</time></trkpt><trkpt lat="44.8401883" lon="9.5669517"><ele>485.2857142857143</ele><time>2026-05-01T11:52:57.864Z</time></trkpt><trkpt lat="44.840215" lon="9.5670367"><ele>486.42857142857144</ele><time>2026-05-01T11:52:59.864Z</time></trkpt><trkpt lat="44.8402417" lon="9.56712"><ele>487.57142857142856</ele><time>2026-05-01T11:53:01.865Z</time></trkpt><trkpt lat="44.8402583" lon="9.5672133"><ele>488.71428571428567</ele><time>2026-05-01T11:53:03.864Z</time></trkpt><trkpt lat="44.8402867" lon="9.5673317"><ele>489.85714285714283</ele><time>2026-05-01T11:53:05.864Z</time></trkpt><trkpt lat="44.8403117" lon="9.5674217"><ele>491.0</ele><time>2026-05-01T11:53:06.864Z</time></trkpt><trkpt lat="44.8403717" lon="9.5675617"><ele>490.99999999999994</ele><time>2026-05-01T11:53:08.864Z</time></trkpt><trkpt lat="44.8403983" lon="9.567645"><ele>491.0</ele><time>2026-05-01T11:53:09.864Z</time></trkpt><trkpt lat="44.8404383" lon="9.5677183"><ele>491.0</ele><time>2026-05-01T11:53:10.864Z</time></trkpt><trkpt lat="44.8405" lon="9.56778"><ele>491.0</ele><time>2026-05-01T11:53:12.864Z</time></trkpt><trkpt lat="44.8405683" lon="9.56785"><ele>490.99999999999994</ele><time>2026-05-01T11:53:14.864Z</time></trkpt><trkpt lat="44.840635" lon="9.5679267"><ele>491.0</ele><time>2026-05-01T11:53:16.864Z</time></trkpt><trkpt lat="44.8407083" lon="9.5679617"><ele>491.16666666666663</ele><time>2026-05-01T11:53:18.865Z</time></trkpt><trkpt lat="44.8407817" lon="9.5679633"><ele>491.3333333333333</ele><time>2026-05-01T11:53:21.864Z</time></trkpt><trkpt lat="44.8408633" lon="9.5679367"><ele>491.5</ele><time>2026-05-01T11:53:23.864Z</time></trkpt><trkpt lat="44.8409817" lon="9.5678883"><ele>491.66666666666663</ele><time>2026-05-01T11:53:25.864Z</time></trkpt><trkpt lat="44.8410433" lon="9.5678483"><ele>491.8333333333333</ele><time>2026-05-01T11:53:26.865Z</time></trkpt><trkpt lat="44.8411033" lon="9.5678117"><ele>492.0</ele><time>2026-05-01T11:53:27.864Z</time></trkpt><trkpt lat="44.841205" lon="9.567785"><ele>492.0</ele><time>2026-05-01T11:53:29.864Z</time></trkpt><trkpt lat="44.8413233" lon="9.5677933"><ele>492.00000000000006</ele><time>2026-05-01T11:53:31.864Z</time></trkpt><trkpt lat="44.8413967" lon="9.5677983"><ele>492.00000000000006</ele><time>2026-05-01T11:53:32.864Z</time></trkpt><trkpt lat="44.841515" lon="9.5678133"><ele>492.0</ele><time>2026-05-01T11:53:34.864Z</time></trkpt><trkpt lat="44.8416483" lon="9.5677933"><ele>492.0</ele><time>2026-05-01T11:53:36.864Z</time></trkpt><trkpt lat="44.8417183" lon="9.5677883"><ele>492.0</ele><time>2026-05-01T11:53:38.864Z</time></trkpt><trkpt lat="44.8417867" lon="9.5678167"><ele>492.0</ele><time>2026-05-01T11:53:39.864Z</time></trkpt><trkpt lat="44.8418467" lon="9.5678533"><ele>492.0</ele><time>2026-05-01T11:53:41.864Z</time></trkpt><trkpt lat="44.8419233" lon="9.5678867"><ele>492.0</ele><time>2026-05-01T11:53:43.864Z</time></trkpt><trkpt lat="44.84205" lon="9.56796"><ele>492.0</ele><time>2026-05-01T11:53:45.864Z</time></trkpt><trkpt lat="44.8421067" lon="9.568025"><ele>492.0</ele><time>2026-05-01T11:53:46.864Z</time></trkpt><trkpt lat="44.84217" lon="9.5680967"><ele>492.6666666666667</ele><time>2026-05-01T11:53:48.864Z</time></trkpt><trkpt lat="44.8422217" lon="9.568155"><ele>493.33333333333337</ele><time>2026-05-01T11:53:50.864Z</time></trkpt><trkpt lat="44.8422833" lon="9.5682267"><ele>494.0</ele><time>2026-05-01T11:53:52.864Z</time></trkpt><trkpt lat="44.8423333" lon="9.5683033"><ele>494.6666666666667</ele><time>2026-05-01T11:53:54.864Z</time></trkpt><trkpt lat="44.842395" lon="9.5683917"><ele>495.33333333333337</ele><time>2026-05-01T11:53:56.864Z</time></trkpt><trkpt lat="44.842445" lon="9.5685083"><ele>496.0</ele><time>2026-05-01T11:53:58.864Z</time></trkpt><trkpt lat="44.8425" lon="9.5686267"><ele>495.8</ele><time>2026-05-01T11:54:00.864Z</time></trkpt><trkpt lat="44.8425117" lon="9.5688083"><ele>495.6</ele><time>2026-05-01T11:54:02.864Z</time></trkpt><trkpt lat="44.8425717" lon="9.56889"><ele>495.4</ele><time>2026-05-01T11:54:04.864Z</time></trkpt><trkpt lat="44.8426167" lon="9.568975"><ele>495.2</ele><time>2026-05-01T11:54:05.864Z</time></trkpt><trkpt lat="44.8426283" lon="9.569085"><ele>495.0</ele><time>2026-05-01T11:54:06.865Z</time></trkpt><trkpt lat="44.8426833" lon="9.5691917"><ele>494.99999999999994</ele><time>2026-05-01T11:54:07.864Z</time></trkpt><trkpt lat="44.8426667" lon="9.5693"><ele>495.0</ele><time>2026-05-01T11:54:10.864Z</time></trkpt><trkpt lat="44.8426717" lon="9.5694083"><ele>494.99999999999994</ele><time>2026-05-01T11:54:14.864Z</time></trkpt><trkpt lat="44.84271" lon="9.56948"><ele>494.99999999999994</ele><time>2026-05-01T11:54:17.864Z</time></trkpt><trkpt lat="44.8427267" lon="9.5695667"><ele>495.0</ele><time>2026-05-01T11:54:25.864Z</time></trkpt><trkpt lat="44.842655" lon="9.5695767"><ele>494.99999999999994</ele><time>2026-05-01T11:54:27.864Z</time></trkpt><trkpt lat="44.84258" lon="9.5695567"><ele>494.99999999999994</ele><time>2026-05-01T11:54:30.865Z</time></trkpt><trkpt lat="44.8425617" lon="9.5696817"><ele>496.6</ele><time>2026-05-01T11:54:38.864Z</time></trkpt><trkpt lat="44.8426283" lon="9.5697283"><ele>498.2</ele><time>2026-05-01T11:54:42.864Z</time></trkpt><trkpt lat="44.8426667" lon="9.5696517"><ele>499.79999999999995</ele><time>2026-05-01T11:54:46.864Z</time></trkpt><trkpt lat="44.84277" lon="9.5696517"><ele>501.4</ele><time>2026-05-01T11:55:15.864Z</time></trkpt><trkpt lat="44.8429033" lon="9.56969"><ele>503.0</ele><time>2026-05-01T11:55:17.864Z</time></trkpt><trkpt lat="44.842985" lon="9.56974"><ele>503.0</ele><time>2026-05-01T11:55:18.864Z</time></trkpt><trkpt lat="44.84308" lon="9.5698217"><ele>502.99999999999994</ele><time>2026-05-01T11:55:19.864Z</time></trkpt><trkpt lat="44.8431583" lon="9.569935"><ele>502.99999999999994</ele><time>2026-05-01T11:55:20.864Z</time></trkpt><trkpt lat="44.8432033" lon="9.5700633"><ele>503.0</ele><time>2026-05-01T11:55:21.864Z</time></trkpt><trkpt lat="44.8432217" lon="9.5702067"><ele>503.0</ele><time>2026-05-01T11:55:22.864Z</time></trkpt><trkpt lat="44.8432317" lon="9.5703367"><ele>503.3333333333333</ele><time>2026-05-01T11:55:23.864Z</time></trkpt><trkpt lat="44.8432367" lon="9.5704683"><ele>503.66666666666663</ele><time>2026-05-01T11:55:24.864Z</time></trkpt><trkpt lat="44.84324" lon="9.570595"><ele>504.0</ele><time>2026-05-01T11:55:25.864Z</time></trkpt><trkpt lat="44.8432483" lon="9.5707217"><ele>504.33333333333337</ele><time>2026-05-01T11:55:26.864Z</time></trkpt><trkpt lat="44.843245" lon="9.5708433"><ele>504.6666666666667</ele><time>2026-05-01T11:55:27.864Z</time></trkpt><trkpt lat="44.8432383" lon="9.5709633"><ele>505.0</ele><time>2026-05-01T11:55:28.864Z</time></trkpt><trkpt lat="44.8432333" lon="9.5710817"><ele>505.2</ele><time>2026-05-01T11:55:29.864Z</time></trkpt><trkpt lat="44.8432283" lon="9.5712033"><ele>505.4</ele><time>2026-05-01T11:55:30.865Z</time></trkpt><trkpt lat="44.8432333" lon="9.5713367"><ele>505.6</ele><time>2026-05-01T11:55:31.864Z</time></trkpt><trkpt lat="44.843245" lon="9.5714633"><ele>505.8</ele><time>2026-05-01T11:55:32.864Z</time></trkpt><trkpt lat="44.843255" lon="9.571595"><ele>506.0</ele><time>2026-05-01T11:55:33.864Z</time></trkpt><trkpt lat="44.8432683" lon="9.5717383"><ele>506.0</ele><time>2026-05-01T11:55:34.864Z</time></trkpt><trkpt lat="44.8432883" lon="9.5718783"><ele>506.0</ele><time>2026-05-01T11:55:35.864Z</time></trkpt><trkpt lat="44.843305" lon="9.572005"><ele>506.0</ele><time>2026-05-01T11:55:36.864Z</time></trkpt><trkpt lat="44.8433067" lon="9.5721567"><ele>506.0</ele><time>2026-05-01T11:55:37.864Z</time></trkpt><trkpt lat="44.8432933" lon="9.5723167"><ele>506.0</ele><time>2026-05-01T11:55:38.864Z</time></trkpt><trkpt lat="44.8432733" lon="9.5724617"><ele>506.0</ele><time>2026-05-01T11:55:39.864Z</time></trkpt><trkpt lat="44.8432533" lon="9.57261"><ele>506.0</ele><time>2026-05-01T11:55:40.864Z</time></trkpt><trkpt lat="44.8432417" lon="9.5727617"><ele>506.0</ele><time>2026-05-01T11:55:41.864Z</time></trkpt><trkpt lat="44.8432383" lon="9.5729217"><ele>506.0</ele><time>2026-05-01T11:55:42.865Z</time></trkpt><trkpt lat="44.8432383" lon="9.573095"><ele>506.5</ele><time>2026-05-01T11:55:43.864Z</time></trkpt><trkpt lat="44.843235" lon="9.5732717"><ele>507.0</ele><time>2026-05-01T11:55:44.864Z</time></trkpt><trkpt lat="44.8432333" lon="9.5734517"><ele>507.5</ele><time>2026-05-01T11:55:45.864Z</time></trkpt><trkpt lat="44.84323" lon="9.573635"><ele>508.0</ele><time>2026-05-01T11:55:46.864Z</time></trkpt><trkpt lat="44.8432267" lon="9.5738367"><ele>508.0</ele><time>2026-05-01T11:55:47.864Z</time></trkpt><trkpt lat="44.8432233" lon="9.5740333"><ele>508.0</ele><time>2026-05-01T11:55:48.865Z</time></trkpt><trkpt lat="44.843215" lon="9.5742367"><ele>508.0</ele><time>2026-05-01T11:55:49.864Z</time></trkpt><trkpt lat="44.8431967" lon="9.5744183"><ele>508.0</ele><time>2026-05-01T11:55:50.864Z</time></trkpt><trkpt lat="44.8431733" lon="9.574615"><ele>508.5</ele><time>2026-05-01T11:55:51.864Z</time></trkpt><trkpt lat="44.8431617" lon="9.5748017"><ele>509.0</ele><time>2026-05-01T11:55:52.864Z</time></trkpt><trkpt lat="44.8431567" lon="9.5749767"><ele>509.5</ele><time>2026-05-01T11:55:53.864Z</time></trkpt><trkpt lat="44.843165" lon="9.5751283"><ele>510.0</ele><time>2026-05-01T11:55:54.864Z</time></trkpt><trkpt lat="44.8431933" lon="9.5752567"><ele>510.0</ele><time>2026-05-01T11:55:55.864Z</time></trkpt><trkpt lat="44.8432467" lon="9.5754"><ele>510.0</ele><time>2026-05-01T11:55:56.864Z</time></trkpt><trkpt lat="44.8433083" lon="9.57553"><ele>510.0</ele><time>2026-05-01T11:55:57.864Z</time></trkpt><trkpt lat="44.84336" lon="9.5756617"><ele>510.0</ele><time>2026-05-01T11:55:58.864Z</time></trkpt><trkpt lat="44.8434167" lon="9.575775"><ele>510.0</ele><time>2026-05-01T11:55:59.864Z</time></trkpt><trkpt lat="44.8434767" lon="9.5758817"><ele>510.0</ele><time>2026-05-01T11:56:00.864Z</time></trkpt><trkpt lat="44.8435333" lon="9.57596"><ele>510.0</ele><time>2026-05-01T11:56:01.864Z</time></trkpt><trkpt lat="44.8436067" lon="9.5760467"><ele>510.0</ele><time>2026-05-01T11:56:02.864Z</time></trkpt><trkpt lat="44.8436783" lon="9.5761083"><ele>510.0</ele><time>2026-05-01T11:56:03.864Z</time></trkpt><trkpt lat="44.8437717" lon="9.5761717"><ele>510.0</ele><time>2026-05-01T11:56:04.864Z</time></trkpt><trkpt lat="44.8438817" lon="9.576235"><ele>508.6</ele><time>2026-05-01T11:56:05.864Z</time></trkpt><trkpt lat="44.8439933" lon="9.5762833"><ele>507.2</ele><time>2026-05-01T11:56:06.865Z</time></trkpt><trkpt lat="44.8441083" lon="9.5763233"><ele>505.79999999999995</ele><time>2026-05-01T11:56:07.864Z</time></trkpt><trkpt lat="44.8442033" lon="9.5763433"><ele>504.4</ele><time>2026-05-01T11:56:08.864Z</time></trkpt><trkpt lat="44.84428" lon="9.5763867"><ele>503.0</ele><time>2026-05-01T11:56:09.864Z</time></trkpt><trkpt lat="44.8443567" lon="9.5764417"><ele>504.8333333333333</ele><time>2026-05-01T11:56:10.864Z</time></trkpt><trkpt lat="44.8444183" lon="9.5765117"><ele>506.66666666666663</ele><time>2026-05-01T11:56:11.864Z</time></trkpt><trkpt lat="44.8444483" lon="9.5766"><ele>508.5</ele><time>2026-05-01T11:56:12.864Z</time></trkpt><trkpt lat="44.8444583" lon="9.5766917"><ele>510.33333333333337</ele><time>2026-05-01T11:56:13.864Z</time></trkpt><trkpt lat="44.8444383" lon="9.5767967"><ele>512.1666666666667</ele><time>2026-05-01T11:56:14.864Z</time></trkpt><trkpt lat="44.84439" lon="9.5769217"><ele>514.0</ele><time>2026-05-01T11:56:15.864Z</time></trkpt><trkpt lat="44.8443433" lon="9.5770533"><ele>514.0</ele><time>2026-05-01T11:56:16.864Z</time></trkpt><trkpt lat="44.84433" lon="9.5771917"><ele>514.0</ele><time>2026-05-01T11:56:17.864Z</time></trkpt><trkpt lat="44.8443467" lon="9.5773417"><ele>514.0</ele><time>2026-05-01T11:56:18.864Z</time></trkpt><trkpt lat="44.84439" lon="9.5774883"><ele>514.0</ele><time>2026-05-01T11:56:19.864Z</time></trkpt><trkpt lat="44.8444467" lon="9.5776417"><ele>514.0</ele><time>2026-05-01T11:56:20.864Z</time></trkpt><trkpt lat="44.84453" lon="9.577775"><ele>512.8</ele><time>2026-05-01T11:56:21.864Z</time></trkpt><trkpt lat="44.8446033" lon="9.5778867"><ele>511.59999999999997</ele><time>2026-05-01T11:56:22.864Z</time></trkpt><trkpt lat="44.84466" lon="9.5779967"><ele>510.4</ele><time>2026-05-01T11:56:23.864Z</time></trkpt><trkpt lat="44.8446983" lon="9.5781017"><ele>509.2</ele><time>2026-05-01T11:56:24.864Z</time></trkpt><trkpt lat="44.8447117" lon="9.578215"><ele>508.0</ele><time>2026-05-01T11:56:25.864Z</time></trkpt><trkpt lat="44.8447133" lon="9.578345"><ele>508.0</ele><time>2026-05-01T11:56:26.864Z</time></trkpt><trkpt lat="44.8447033" lon="9.5785033"><ele>508.0</ele><time>2026-05-01T11:56:27.864Z</time></trkpt><trkpt lat="44.84467" lon="9.5786783"><ele>508.0</ele><time>2026-05-01T11:56:28.864Z</time></trkpt><trkpt lat="44.8446367" lon="9.5788433"><ele>508.0</ele><time>2026-05-01T11:56:29.864Z</time></trkpt><trkpt lat="44.8446133" lon="9.578995"><ele>508.2</ele><time>2026-05-01T11:56:30.864Z</time></trkpt><trkpt lat="44.844605" lon="9.5791417"><ele>508.4</ele><time>2026-05-01T11:56:31.864Z</time></trkpt><trkpt lat="44.8446283" lon="9.5792833"><ele>508.59999999999997</ele><time>2026-05-01T11:56:32.864Z</time></trkpt><trkpt lat="44.8446817" lon="9.57941"><ele>508.79999999999995</ele><time>2026-05-01T11:56:33.864Z</time></trkpt><trkpt lat="44.8447417" lon="9.5795517"><ele>509.0</ele><time>2026-05-01T11:56:34.864Z</time></trkpt><trkpt lat="44.8448067" lon="9.5796883"><ele>508.25</ele><time>2026-05-01T11:56:35.864Z</time></trkpt><trkpt lat="44.844875" lon="9.5798317"><ele>507.5</ele><time>2026-05-01T11:56:36.864Z</time></trkpt><trkpt lat="44.8449467" lon="9.5799833"><ele>506.75</ele><time>2026-05-01T11:56:37.864Z</time></trkpt><trkpt lat="44.8450233" lon="9.58013"><ele>506.0</ele><time>2026-05-01T11:56:38.864Z</time></trkpt><trkpt lat="44.8451067" lon="9.580275"><ele>506.5</ele><time>2026-05-01T11:56:39.865Z</time></trkpt><trkpt lat="44.8451983" lon="9.580425"><ele>507.0</ele><time>2026-05-01T11:56:40.864Z</time></trkpt><trkpt lat="44.84528" lon="9.5805817"><ele>507.5</ele><time>2026-05-01T11:56:41.864Z</time></trkpt><trkpt lat="44.8453517" lon="9.5807483"><ele>508.0</ele><time>2026-05-01T11:56:42.864Z</time></trkpt><trkpt lat="44.84541" lon="9.5809033"><ele>508.0</ele><time>2026-05-01T11:56:43.864Z</time></trkpt><trkpt lat="44.84547" lon="9.581055"><ele>507.99999999999994</ele><time>2026-05-01T11:56:44.864Z</time></trkpt><trkpt lat="44.84553" lon="9.581195"><ele>507.99999999999994</ele><time>2026-05-01T11:56:45.864Z</time></trkpt><trkpt lat="44.8455967" lon="9.58132"><ele>508.0</ele><time>2026-05-01T11:56:46.864Z</time></trkpt><trkpt lat="44.845645" lon="9.5814217"><ele>508.0</ele><time>2026-05-01T11:56:47.864Z</time></trkpt><trkpt lat="44.84569" lon="9.581525"><ele>507.79999999999995</ele><time>2026-05-01T11:56:48.864Z</time></trkpt><trkpt lat="44.8457467" lon="9.5816367"><ele>507.59999999999997</ele><time>2026-05-01T11:56:49.865Z</time></trkpt><trkpt lat="44.845825" lon="9.5817233"><ele>507.40000000000003</ele><time>2026-05-01T11:56:50.864Z</time></trkpt><trkpt lat="44.845915" lon="9.5817867"><ele>507.20000000000005</ele><time>2026-05-01T11:56:51.864Z</time></trkpt><trkpt lat="44.846" lon="9.5818333"><ele>507.0</ele><time>2026-05-01T11:56:52.864Z</time></trkpt><trkpt lat="44.84607" lon="9.5818817"><ele>510.20000000000005</ele><time>2026-05-01T11:56:53.864Z</time></trkpt><trkpt lat="44.8461217" lon="9.581955"><ele>513.4000000000001</ele><time>2026-05-01T11:56:54.864Z</time></trkpt><trkpt lat="44.84614" lon="9.5820467"><ele>516.5999999999999</ele><time>2026-05-01T11:56:55.865Z</time></trkpt><trkpt lat="44.8461183" lon="9.5822083"><ele>519.8</ele><time>2026-05-01T11:56:57.864Z</time></trkpt><trkpt lat="44.8460767" lon="9.5823483"><ele>523.0</ele><time>2026-05-01T11:56:59.864Z</time></trkpt><trkpt lat="44.846085" lon="9.5824917"><ele>523.1999999999999</ele><time>2026-05-01T11:57:01.864Z</time></trkpt><trkpt lat="44.8461317" lon="9.5826233"><ele>523.4</ele><time>2026-05-01T11:57:03.864Z</time></trkpt><trkpt lat="44.8461933" lon="9.5827733"><ele>523.5999999999999</ele><time>2026-05-01T11:57:05.865Z</time></trkpt><trkpt lat="44.8462533" lon="9.582885"><ele>523.8</ele><time>2026-05-01T11:57:07.864Z</time></trkpt><trkpt lat="44.846285" lon="9.5829883"><ele>524.0</ele><time>2026-05-01T11:57:09.864Z</time></trkpt><trkpt lat="44.84631" lon="9.5830833"><ele>524.0</ele><time>2026-05-01T11:57:12.864Z</time></trkpt><trkpt lat="44.8463783" lon="9.5830183"><ele>524.0</ele><time>2026-05-01T11:57:16.864Z</time></trkpt><trkpt lat="44.846415" lon="9.582945"><ele>524.0</ele><time>2026-05-01T11:57:18.864Z</time></trkpt><trkpt lat="44.846465" lon="9.5828883"><ele>524.0</ele><time>2026-05-01T11:57:20.865Z</time></trkpt><trkpt lat="44.8465117" lon="9.58277"><ele>524.0</ele><time>2026-05-01T11:57:22.864Z</time></trkpt><trkpt lat="44.8465483" lon="9.5826433"><ele>524.0</ele><time>2026-05-01T11:57:24.864Z</time></trkpt><trkpt lat="44.8465933" lon="9.5824983"><ele>524.1666666666666</ele><time>2026-05-01T11:57:26.864Z</time></trkpt><trkpt lat="44.8466267" lon="9.5824033"><ele>524.3333333333333</ele><time>2026-05-01T11:57:27.864Z</time></trkpt><trkpt lat="44.846665" lon="9.5823133"><ele>524.5</ele><time>2026-05-01T11:57:28.864Z</time></trkpt><trkpt lat="44.8467117" lon="9.5822233"><ele>524.6666666666666</ele><time>2026-05-01T11:57:29.864Z</time></trkpt><trkpt lat="44.8467717" lon="9.582145"><ele>524.8333333333334</ele><time>2026-05-01T11:57:30.864Z</time></trkpt><trkpt lat="44.846845" lon="9.582105"><ele>525.0</ele><time>2026-05-01T11:57:31.864Z</time></trkpt><trkpt lat="44.84692" lon="9.5820667"><ele>526.5</ele><time>2026-05-01T11:57:32.864Z</time></trkpt><trkpt lat="44.8469967" lon="9.5820183"><ele>528.0</ele><time>2026-05-01T11:57:33.864Z</time></trkpt><trkpt lat="44.8470667" lon="9.5819917"><ele>529.5</ele><time>2026-05-01T11:57:34.864Z</time></trkpt><trkpt lat="44.8471267" lon="9.5819583"><ele>531.0</ele><time>2026-05-01T11:57:35.864Z</time></trkpt><trkpt lat="44.8472167" lon="9.5819233"><ele>532.5</ele><time>2026-05-01T11:57:37.864Z</time></trkpt><trkpt lat="44.847305" lon="9.5819167"><ele>534.0</ele><time>2026-05-01T11:57:39.864Z</time></trkpt><trkpt lat="44.84736" lon="9.58198"><ele>534.0</ele><time>2026-05-01T11:57:42.864Z</time></trkpt><trkpt lat="44.8474117" lon="9.58208"><ele>534.0</ele><time>2026-05-01T11:57:44.864Z</time></trkpt><trkpt lat="44.84746" lon="9.582165"><ele>534.0</ele><time>2026-05-01T11:57:46.864Z</time></trkpt><trkpt lat="44.8475767" lon="9.5821783"><ele>534.0</ele><time>2026-05-01T11:57:48.864Z</time></trkpt><trkpt lat="44.8476833" lon="9.5822067"><ele>534.0</ele><time>2026-05-01T11:57:49.864Z</time></trkpt><trkpt lat="44.847805" lon="9.5822283"><ele>538.75</ele><time>2026-05-01T11:57:50.864Z</time></trkpt><trkpt lat="44.8479167" lon="9.582205"><ele>543.5</ele><time>2026-05-01T11:57:51.864Z</time></trkpt><trkpt lat="44.84804" lon="9.5822017"><ele>548.25</ele><time>2026-05-01T11:57:52.864Z</time></trkpt><trkpt lat="44.8481833" lon="9.5822067"><ele>553.0</ele><time>2026-05-01T11:57:53.864Z</time></trkpt><trkpt lat="44.8483217" lon="9.58222"><ele>553.0</ele><time>2026-05-01T11:57:54.864Z</time></trkpt><trkpt lat="44.8484467" lon="9.582235"><ele>553.0</ele><time>2026-05-01T11:57:55.864Z</time></trkpt><trkpt lat="44.8485717" lon="9.5822717"><ele>553.0</ele><time>2026-05-01T11:57:56.864Z</time></trkpt><trkpt lat="44.8486833" lon="9.5823"><ele>553.0</ele><time>2026-05-01T11:57:57.864Z</time></trkpt><trkpt lat="44.8487983" lon="9.58233"><ele>555.1999999999999</ele><time>2026-05-01T11:57:58.864Z</time></trkpt><trkpt lat="44.848895" lon="9.58235"><ele>557.4</ele><time>2026-05-01T11:57:59.864Z</time></trkpt><trkpt lat="44.8489917" lon="9.5823733"><ele>559.5999999999999</ele><time>2026-05-01T11:58:00.864Z</time></trkpt><trkpt lat="44.8490883" lon="9.5823983"><ele>561.8</ele><time>2026-05-01T11:58:01.864Z</time></trkpt><trkpt lat="44.8491817" lon="9.5824283"><ele>564.0</ele><time>2026-05-01T11:58:02.864Z</time></trkpt><trkpt lat="44.84927" lon="9.5824683"><ele>568.6</ele><time>2026-05-01T11:58:03.864Z</time></trkpt><trkpt lat="44.84937" lon="9.582515"><ele>573.2</ele><time>2026-05-01T11:58:04.864Z</time></trkpt><trkpt lat="44.8494783" lon="9.58257"><ele>577.8000000000001</ele><time>2026-05-01T11:58:05.864Z</time></trkpt><trkpt lat="44.8495767" lon="9.5826067"><ele>582.4</ele><time>2026-05-01T11:58:06.864Z</time></trkpt><trkpt lat="44.8496767" lon="9.5826433"><ele>587.0</ele><time>2026-05-01T11:58:07.864Z</time></trkpt><trkpt lat="44.8497583" lon="9.5826717"><ele>587.0</ele><time>2026-05-01T11:58:08.864Z</time></trkpt><trkpt lat="44.8498567" lon="9.5827233"><ele>587.0</ele><time>2026-05-01T11:58:10.865Z</time></trkpt><trkpt lat="44.84994" lon="9.582755"><ele>587.0</ele><time>2026-05-01T11:58:12.864Z</time></trkpt><trkpt lat="44.850025" lon="9.582805"><ele>587.0</ele><time>2026-05-01T11:58:14.864Z</time></trkpt><trkpt lat="44.8500817" lon="9.58289"><ele>587.0</ele><time>2026-05-01T11:58:16.865Z</time></trkpt><trkpt lat="44.8501533" lon="9.5829983"><ele>586.0</ele><time>2026-05-01T11:58:18.864Z</time></trkpt><trkpt lat="44.8502017" lon="9.5830617"><ele>585.0</ele><time>2026-05-01T11:58:19.864Z</time></trkpt><trkpt lat="44.8502633" lon="9.5831367"><ele>584.0</ele><time>2026-05-01T11:58:20.864Z</time></trkpt><trkpt lat="44.85033" lon="9.5832083"><ele>583.0</ele><time>2026-05-01T11:58:21.864Z</time></trkpt><trkpt lat="44.8503983" lon="9.58328"><ele>582.0</ele><time>2026-05-01T11:58:22.864Z</time></trkpt><trkpt lat="44.850455" lon="9.5833433"><ele>581.0</ele><time>2026-05-01T11:58:23.864Z</time></trkpt><trkpt lat="44.8505467" lon="9.583435"><ele>581.0</ele><time>2026-05-01T11:58:25.864Z</time></trkpt><trkpt lat="44.8506633" lon="9.58348"><ele>581.0</ele><time>2026-05-01T11:58:27.864Z</time></trkpt><trkpt lat="44.8507867" lon="9.5835283"><ele>581.0</ele><time>2026-05-01T11:58:29.864Z</time></trkpt><trkpt lat="44.8509117" lon="9.5836033"><ele>581.0</ele><time>2026-05-01T11:58:31.864Z</time></trkpt><trkpt lat="44.8510133" lon="9.583585"><ele>581.0</ele><time>2026-05-01T11:58:32.864Z</time></trkpt><trkpt lat="44.8511033" lon="9.5836"><ele>581.0</ele><time>2026-05-01T11:58:33.864Z</time></trkpt><trkpt lat="44.8511933" lon="9.5836117"><ele>581.0</ele><time>2026-05-01T11:58:34.864Z</time></trkpt><trkpt lat="44.85128" lon="9.583615"><ele>581.0</ele><time>2026-05-01T11:58:35.864Z</time></trkpt><trkpt lat="44.8513633" lon="9.583615"><ele>581.0</ele><time>2026-05-01T11:58:36.864Z</time></trkpt><trkpt lat="44.8514467" lon="9.583615"><ele>581.0</ele><time>2026-05-01T11:58:37.864Z</time></trkpt><trkpt lat="44.851515" lon="9.58363"><ele>579.5</ele><time>2026-05-01T11:58:38.864Z</time></trkpt><trkpt lat="44.8515867" lon="9.583685"><ele>578.0</ele><time>2026-05-01T11:58:39.864Z</time></trkpt><trkpt lat="44.85165" lon="9.5837417"><ele>576.5</ele><time>2026-05-01T11:58:40.864Z</time></trkpt><trkpt lat="44.8517183" lon="9.583775"><ele>575.0</ele><time>2026-05-01T11:58:41.864Z</time></trkpt><trkpt lat="44.8518283" lon="9.583875"><ele>573.5</ele><time>2026-05-01T11:58:43.864Z</time></trkpt><trkpt lat="44.8518867" lon="9.5839183"><ele>572.0</ele><time>2026-05-01T11:58:44.864Z</time></trkpt><trkpt lat="44.851955" lon="9.58395"><ele>572.0</ele><time>2026-05-01T11:58:45.864Z</time></trkpt><trkpt lat="44.8520283" lon="9.5839883"><ele>572.0</ele><time>2026-05-01T11:58:46.864Z</time></trkpt><trkpt lat="44.8521033" lon="9.5840283"><ele>572.0</ele><time>2026-05-01T11:58:47.864Z</time></trkpt><trkpt lat="44.8521783" lon="9.5840733"><ele>572.0</ele><time>2026-05-01T11:58:48.864Z</time></trkpt><trkpt lat="44.8522533" lon="9.584115"><ele>572.0</ele><time>2026-05-01T11:58:49.864Z</time></trkpt><trkpt lat="44.8523167" lon="9.5841583"><ele>572.0</ele><time>2026-05-01T11:58:50.864Z</time></trkpt><trkpt lat="44.8524333" lon="9.5842167"><ele>572.0</ele><time>2026-05-01T11:58:52.864Z</time></trkpt><trkpt lat="44.852495" lon="9.584235"><ele>572.0</ele><time>2026-05-01T11:58:53.864Z</time></trkpt><trkpt lat="44.8526017" lon="9.5842633"><ele>572.0</ele><time>2026-05-01T11:58:55.864Z</time></trkpt><trkpt lat="44.8526683" lon="9.5842817"><ele>572.0</ele><time>2026-05-01T11:58:56.864Z</time></trkpt><trkpt lat="44.8527317" lon="9.5843"><ele>572.0</ele><time>2026-05-01T11:58:57.864Z</time></trkpt><trkpt lat="44.8527983" lon="9.58431"><ele>572.0</ele><time>2026-05-01T11:58:58.865Z</time></trkpt><trkpt lat="44.8529317" lon="9.5843317"><ele>572.5</ele><time>2026-05-01T11:59:00.864Z</time></trkpt><trkpt lat="44.8530167" lon="9.584345"><ele>573.0</ele><time>2026-05-01T11:59:01.864Z</time></trkpt><trkpt lat="44.8531" lon="9.5843583"><ele>573.5</ele><time>2026-05-01T11:59:02.864Z</time></trkpt><trkpt lat="44.8531717" lon="9.5843717"><ele>574.0</ele><time>2026-05-01T11:59:03.864Z</time></trkpt><trkpt lat="44.8532967" lon="9.584415"><ele>574.5</ele><time>2026-05-01T11:59:05.864Z</time></trkpt><trkpt lat="44.8533583" lon="9.5844467"><ele>575.0</ele><time>2026-05-01T11:59:06.864Z</time></trkpt><trkpt lat="44.8534217" lon="9.5844833"><ele>577.0</ele><time>2026-05-01T11:59:07.864Z</time></trkpt><trkpt lat="44.8535183" lon="9.5845467"><ele>579.0</ele><time>2026-05-01T11:59:09.865Z</time></trkpt><trkpt lat="44.8535533" lon="9.584625"><ele>581.0</ele><time>2026-05-01T11:59:11.864Z</time></trkpt><trkpt lat="44.8535833" lon="9.5847317"><ele>583.0</ele><time>2026-05-01T11:59:13.864Z</time></trkpt><trkpt lat="44.8536167" lon="9.5848583"><ele>585.0</ele><time>2026-05-01T11:59:15.864Z</time></trkpt><trkpt lat="44.8536883" lon="9.58499"><ele>585.0</ele><time>2026-05-01T11:59:17.864Z</time></trkpt><trkpt lat="44.8537433" lon="9.5850633"><ele>585.0</ele><time>2026-05-01T11:59:18.864Z</time></trkpt><trkpt lat="44.8538083" lon="9.5851383"><ele>585.0</ele><time>2026-05-01T11:59:19.864Z</time></trkpt><trkpt lat="44.8538883" lon="9.5852183"><ele>585.0</ele><time>2026-05-01T11:59:20.864Z</time></trkpt><trkpt lat="44.8539567" lon="9.5852767"><ele>585.0</ele><time>2026-05-01T11:59:21.864Z</time></trkpt><trkpt lat="44.85402" lon="9.5853267"><ele>585.0</ele><time>2026-05-01T11:59:22.864Z</time></trkpt><trkpt lat="44.8541283" lon="9.5854133"><ele>583.2857142857143</ele><time>2026-05-01T11:59:24.864Z</time></trkpt><trkpt lat="44.8541833" lon="9.5854767"><ele>581.5714285714286</ele><time>2026-05-01T11:59:25.864Z</time></trkpt><trkpt lat="44.8542417" lon="9.5855467"><ele>579.8571428571429</ele><time>2026-05-01T11:59:26.864Z</time></trkpt><trkpt lat="44.8542867" lon="9.5856167"><ele>578.1428571428571</ele><time>2026-05-01T11:59:27.864Z</time></trkpt><trkpt lat="44.8543367" lon="9.5856833"><ele>576.4285714285714</ele><time>2026-05-01T11:59:28.864Z</time></trkpt><trkpt lat="44.8544" lon="9.5857467"><ele>574.7142857142858</ele><time>2026-05-01T11:59:29.864Z</time></trkpt><trkpt lat="44.854455" lon="9.5858167"><ele>573.0</ele><time>2026-05-01T11:59:30.864Z</time></trkpt><trkpt lat="44.8545067" lon="9.5858883"><ele>575.1428571428571</ele><time>2026-05-01T11:59:31.864Z</time></trkpt><trkpt lat="44.854555" lon="9.585965"><ele>577.2857142857143</ele><time>2026-05-01T11:59:32.864Z</time></trkpt><trkpt lat="44.8545983" lon="9.5860433"><ele>579.4285714285714</ele><time>2026-05-01T11:59:33.864Z</time></trkpt><trkpt lat="44.85465" lon="9.5861367"><ele>581.5714285714286</ele><time>2026-05-01T11:59:34.864Z</time></trkpt><trkpt lat="44.85469" lon="9.5862233"><ele>583.7142857142858</ele><time>2026-05-01T11:59:35.864Z</time></trkpt><trkpt lat="44.8547267" lon="9.5863083"><ele>585.8571428571429</ele><time>2026-05-01T11:59:36.864Z</time></trkpt><trkpt lat="44.8547667" lon="9.5863883"><ele>588.0</ele><time>2026-05-01T11:59:37.864Z</time></trkpt><trkpt lat="44.85485" lon="9.5865117"><ele>588.0</ele><time>2026-05-01T11:59:39.864Z</time></trkpt><trkpt lat="44.8549033" lon="9.5865733"><ele>588.0</ele><time>2026-05-01T11:59:40.864Z</time></trkpt><trkpt lat="44.8549583" lon="9.5866333"><ele>588.0</ele><time>2026-05-01T11:59:41.864Z</time></trkpt><trkpt lat="44.8550217" lon="9.58669"><ele>588.0</ele><time>2026-05-01T11:59:42.864Z</time></trkpt><trkpt lat="44.8550817" lon="9.5867483"><ele>588.0</ele><time>2026-05-01T11:59:43.864Z</time></trkpt><trkpt lat="44.8551267" lon="9.5868133"><ele>588.0</ele><time>2026-05-01T11:59:44.864Z</time></trkpt><trkpt lat="44.8552067" lon="9.5869333"><ele>589.8333333333334</ele><time>2026-05-01T11:59:46.864Z</time></trkpt><trkpt lat="44.8552567" lon="9.587"><ele>591.6666666666666</ele><time>2026-05-01T11:59:47.865Z</time></trkpt><trkpt lat="44.8553133" lon="9.5870567"><ele>593.5</ele><time>2026-05-01T11:59:48.864Z</time></trkpt><trkpt lat="44.85537" lon="9.5871017"><ele>595.3333333333333</ele><time>2026-05-01T11:59:49.864Z</time></trkpt><trkpt lat="44.8554317" lon="9.5871467"><ele>597.1666666666666</ele><time>2026-05-01T11:59:50.864Z</time></trkpt><trkpt lat="44.8555267" lon="9.587235"><ele>599.0</ele><time>2026-05-01T11:59:52.864Z</time></trkpt><trkpt lat="44.8556267" lon="9.587325"><ele>599.0</ele><time>2026-05-01T11:59:54.864Z</time></trkpt><trkpt lat="44.8556817" lon="9.5873683"><ele>599.0</ele><time>2026-05-01T11:59:55.864Z</time></trkpt><trkpt lat="44.8557967" lon="9.587415"><ele>599.0</ele><time>2026-05-01T11:59:57.864Z</time></trkpt><trkpt lat="44.8558883" lon="9.5874367"><ele>599.0</ele><time>2026-05-01T11:59:59.864Z</time></trkpt><trkpt lat="44.8559767" lon="9.5874717"><ele>599.0</ele><time>2026-05-01T12:00:01.864Z</time></trkpt><trkpt lat="44.85605" lon="9.587515"><ele>599.0</ele><time>2026-05-01T12:00:03.864Z</time></trkpt><trkpt lat="44.856115" lon="9.587555"><ele>602.4</ele><time>2026-05-01T12:00:04.864Z</time></trkpt><trkpt lat="44.8561933" lon="9.5876167"><ele>605.8</ele><time>2026-05-01T12:00:05.864Z</time></trkpt><trkpt lat="44.85632" lon="9.5876867"><ele>609.2</ele><time>2026-05-01T12:00:07.864Z</time></trkpt><trkpt lat="44.8564017" lon="9.5877017"><ele>612.6</ele><time>2026-05-01T12:00:08.864Z</time></trkpt><trkpt lat="44.8564783" lon="9.587735"><ele>616.0</ele><time>2026-05-01T12:00:09.864Z</time></trkpt><trkpt lat="44.856565" lon="9.5877683"><ele>616.0</ele><time>2026-05-01T12:00:10.864Z</time></trkpt><trkpt lat="44.856655" lon="9.5877967"><ele>616.0</ele><time>2026-05-01T12:00:11.864Z</time></trkpt><trkpt lat="44.8567417" lon="9.5878167"><ele>616.0</ele><time>2026-05-01T12:00:12.864Z</time></trkpt><trkpt lat="44.856835" lon="9.5878333"><ele>616.0</ele><time>2026-05-01T12:00:13.865Z</time></trkpt><trkpt lat="44.856925" lon="9.5878567"><ele>616.0</ele><time>2026-05-01T12:00:14.864Z</time></trkpt><trkpt lat="44.8570217" lon="9.5878933"><ele>613.0</ele><time>2026-05-01T12:00:15.864Z</time></trkpt><trkpt lat="44.8571067" lon="9.5879167"><ele>610.0</ele><time>2026-05-01T12:00:16.864Z</time></trkpt><trkpt lat="44.8572" lon="9.5879367"><ele>607.0</ele><time>2026-05-01T12:00:17.864Z</time></trkpt><trkpt lat="44.8573133" lon="9.58798"><ele>604.0</ele><time>2026-05-01T12:00:18.864Z</time></trkpt><trkpt lat="44.857425" lon="9.5880217"><ele>601.0</ele><time>2026-05-01T12:00:19.864Z</time></trkpt><trkpt lat="44.8575317" lon="9.5880767"><ele>601.1666666666667</ele><time>2026-05-01T12:00:20.864Z</time></trkpt><trkpt lat="44.8576233" lon="9.5880983"><ele>601.3333333333334</ele><time>2026-05-01T12:00:21.864Z</time></trkpt><trkpt lat="44.85771" lon="9.5881133"><ele>601.5</ele><time>2026-05-01T12:00:22.864Z</time></trkpt><trkpt lat="44.857795" lon="9.5881233"><ele>601.6666666666666</ele><time>2026-05-01T12:00:23.864Z</time></trkpt><trkpt lat="44.8578733" lon="9.5881333"><ele>601.8333333333333</ele><time>2026-05-01T12:00:24.864Z</time></trkpt><trkpt lat="44.8579517" lon="9.5881417"><ele>602.0</ele><time>2026-05-01T12:00:25.864Z</time></trkpt><trkpt lat="44.8580233" lon="9.5881267"><ele>602.0</ele><time>2026-05-01T12:00:26.864Z</time></trkpt><trkpt lat="44.8581033" lon="9.58811"><ele>602.0</ele><time>2026-05-01T12:00:27.864Z</time></trkpt><trkpt lat="44.8581933" lon="9.5881033"><ele>602.0</ele><time>2026-05-01T12:00:28.864Z</time></trkpt><trkpt lat="44.8582667" lon="9.588115"><ele>602.0</ele><time>2026-05-01T12:00:29.864Z</time></trkpt><trkpt lat="44.8583367" lon="9.5881317"><ele>602.0</ele><time>2026-05-01T12:00:30.864Z</time></trkpt><trkpt lat="44.8584083" lon="9.5881783"><ele>602.0</ele><time>2026-05-01T12:00:31.864Z</time></trkpt><trkpt lat="44.8584767" lon="9.5882033"><ele>600.8000000000001</ele><time>2026-05-01T12:00:32.864Z</time></trkpt><trkpt lat="44.8585917" lon="9.5882317"><ele>599.6</ele><time>2026-05-01T12:00:34.864Z</time></trkpt><trkpt lat="44.858695" lon="9.5881933"><ele>598.4000000000001</ele><time>2026-05-01T12:00:36.864Z</time></trkpt><trkpt lat="44.8588033" lon="9.5881767"><ele>597.2</ele><time>2026-05-01T12:00:38.864Z</time></trkpt><trkpt lat="44.8589" lon="9.5881417"><ele>596.0</ele><time>2026-05-01T12:00:40.864Z</time></trkpt><trkpt lat="44.858975" lon="9.5880467"><ele>596.0</ele><time>2026-05-01T12:00:42.864Z</time></trkpt><trkpt lat="44.8590533" lon="9.5879"><ele>596.0</ele><time>2026-05-01T12:00:44.864Z</time></trkpt><trkpt lat="44.85909" lon="9.5878183"><ele>596.0</ele><time>2026-05-01T12:00:45.864Z</time></trkpt><trkpt lat="44.8591217" lon="9.5877333"><ele>596.0</ele><time>2026-05-01T12:00:46.864Z</time></trkpt><trkpt lat="44.8591567" lon="9.587655"><ele>596.0</ele><time>2026-05-01T12:00:47.864Z</time></trkpt><trkpt lat="44.8592067" lon="9.5875133"><ele>596.0</ele><time>2026-05-01T12:00:49.864Z</time></trkpt><trkpt lat="44.8592833" lon="9.5874167"><ele>591.8</ele><time>2026-05-01T12:00:51.864Z</time></trkpt><trkpt lat="44.8594" lon="9.5873417"><ele>587.6</ele><time>2026-05-01T12:00:53.864Z</time></trkpt><trkpt lat="44.8594817" lon="9.5873217"><ele>583.4</ele><time>2026-05-01T12:00:54.865Z</time></trkpt><trkpt lat="44.8595567" lon="9.5873083"><ele>579.2</ele><time>2026-05-01T12:00:55.864Z</time></trkpt><trkpt lat="44.8596367" lon="9.5872733"><ele>575.0</ele><time>2026-05-01T12:00:56.864Z</time></trkpt><trkpt lat="44.85971" lon="9.587225"><ele>575.0</ele><time>2026-05-01T12:00:57.864Z</time></trkpt><trkpt lat="44.8597783" lon="9.587175"><ele>575.0</ele><time>2026-05-01T12:00:58.864Z</time></trkpt><trkpt lat="44.8598433" lon="9.587125"><ele>575.0</ele><time>2026-05-01T12:00:59.864Z</time></trkpt><trkpt lat="44.8599167" lon="9.587025"><ele>575.0</ele><time>2026-05-01T12:01:01.864Z</time></trkpt><trkpt lat="44.8599517" lon="9.5868783"><ele>575.0</ele><time>2026-05-01T12:01:03.864Z</time></trkpt><trkpt lat="44.8600083" lon="9.5867483"><ele>574.3333333333333</ele><time>2026-05-01T12:01:05.864Z</time></trkpt><trkpt lat="44.8600817" lon="9.5866267"><ele>573.6666666666666</ele><time>2026-05-01T12:01:07.864Z</time></trkpt><trkpt lat="44.8601483" lon="9.5864983"><ele>573.0</ele><time>2026-05-01T12:01:09.864Z</time></trkpt><trkpt lat="44.8601683" lon="9.5863883"><ele>572.3333333333334</ele><time>2026-05-01T12:01:11.864Z</time></trkpt><trkpt lat="44.8601633" lon="9.5862867"><ele>571.6666666666667</ele><time>2026-05-01T12:01:13.864Z</time></trkpt><trkpt lat="44.86019" lon="9.5862017"><ele>571.0</ele><time>2026-05-01T12:01:15.864Z</time></trkpt><trkpt lat="44.86025" lon="9.5861067"><ele>571.0</ele><time>2026-05-01T12:01:18.864Z</time></trkpt><trkpt lat="44.860295" lon="9.5860333"><ele>571.0</ele><time>2026-05-01T12:01:20.864Z</time></trkpt><trkpt lat="44.8603367" lon="9.5859583"><ele>571.0</ele><time>2026-05-01T12:01:22.864Z</time></trkpt><trkpt lat="44.8603733" lon="9.5858783"><ele>571.0</ele><time>2026-05-01T12:01:24.864Z</time></trkpt><trkpt lat="44.8604233" lon="9.5858133"><ele>571.0</ele><time>2026-05-01T12:01:26.864Z</time></trkpt><trkpt lat="44.8604883" lon="9.585775"><ele>571.0</ele><time>2026-05-01T12:01:28.864Z</time></trkpt><trkpt lat="44.8605567" lon="9.5857433"><ele>571.0</ele><time>2026-05-01T12:01:31.864Z</time></trkpt><trkpt lat="44.860645" lon="9.5856867"><ele>571.0</ele><time>2026-05-01T12:01:34.864Z</time></trkpt><trkpt lat="44.8607067" lon="9.5856483"><ele>571.0</ele><time>2026-05-01T12:01:36.864Z</time></trkpt><trkpt lat="44.860785" lon="9.5856267"><ele>571.0</ele><time>2026-05-01T12:01:38.865Z</time></trkpt><trkpt lat="44.8608733" lon="9.5856583"><ele>571.0</ele><time>2026-05-01T12:01:40.864Z</time></trkpt><trkpt lat="44.8609833" lon="9.585715"><ele>571.0</ele><time>2026-05-01T12:01:42.864Z</time></trkpt><trkpt lat="44.8610983" lon="9.5857767"><ele>571.3333333333334</ele><time>2026-05-01T12:01:44.864Z</time></trkpt><trkpt lat="44.8612" lon="9.5858733"><ele>571.6666666666667</ele><time>2026-05-01T12:01:46.864Z</time></trkpt><trkpt lat="44.86126" lon="9.5859467"><ele>572.0</ele><time>2026-05-01T12:01:47.864Z</time></trkpt><trkpt lat="44.8613117" lon="9.5860083"><ele>572.3333333333334</ele><time>2026-05-01T12:01:48.864Z</time></trkpt><trkpt lat="44.8614117" lon="9.5860783"><ele>572.6666666666666</ele><time>2026-05-01T12:01:50.864Z</time></trkpt><trkpt lat="44.8614667" lon="9.5861217"><ele>573.0</ele><time>2026-05-01T12:01:51.864Z</time></trkpt><trkpt lat="44.8615267" lon="9.5861583"><ele>572.3333333333334</ele><time>2026-05-01T12:01:52.864Z</time></trkpt><trkpt lat="44.8615883" lon="9.5861917"><ele>571.6666666666666</ele><time>2026-05-01T12:01:53.864Z</time></trkpt><trkpt lat="44.8616583" lon="9.586235"><ele>571.0</ele><time>2026-05-01T12:01:54.864Z</time></trkpt><trkpt lat="44.8617167" lon="9.5862867"><ele>570.3333333333333</ele><time>2026-05-01T12:01:55.864Z</time></trkpt><trkpt lat="44.8617783" lon="9.5863467"><ele>569.6666666666666</ele><time>2026-05-01T12:01:56.864Z</time></trkpt><trkpt lat="44.8618483" lon="9.586405"><ele>569.0</ele><time>2026-05-01T12:01:57.864Z</time></trkpt><trkpt lat="44.86193" lon="9.5864517"><ele>569.0</ele><time>2026-05-01T12:01:58.864Z</time></trkpt><trkpt lat="44.8620117" lon="9.5865033"><ele>569.0</ele><time>2026-05-01T12:01:59.864Z</time></trkpt><trkpt lat="44.86209" lon="9.5865483"><ele>569.0</ele><time>2026-05-01T12:02:00.864Z</time></trkpt><trkpt lat="44.86217" lon="9.5866083"><ele>569.0</ele><time>2026-05-01T12:02:01.864Z</time></trkpt><trkpt lat="44.8622533" lon="9.5866767"><ele>569.0</ele><time>2026-05-01T12:02:02.864Z</time></trkpt><trkpt lat="44.862345" lon="9.586745"><ele>569.0</ele><time>2026-05-01T12:02:03.864Z</time></trkpt><trkpt lat="44.8624367" lon="9.5868183"><ele>569.0</ele><time>2026-05-01T12:02:04.865Z</time></trkpt><trkpt lat="44.8625283" lon="9.586875"><ele>569.0</ele><time>2026-05-01T12:02:05.864Z</time></trkpt><trkpt lat="44.8626233" lon="9.5869317"><ele>569.0</ele><time>2026-05-01T12:02:06.864Z</time></trkpt><trkpt lat="44.8627217" lon="9.5869883"><ele>569.0</ele><time>2026-05-01T12:02:07.864Z</time></trkpt><trkpt lat="44.8628167" lon="9.5870433"><ele>569.0</ele><time>2026-05-01T12:02:08.864Z</time></trkpt><trkpt lat="44.8629133" lon="9.5871117"><ele>569.0</ele><time>2026-05-01T12:02:09.864Z</time></trkpt><trkpt lat="44.8629967" lon="9.58719"><ele>569.0</ele><time>2026-05-01T12:02:10.864Z</time></trkpt><trkpt lat="44.863085" lon="9.5872917"><ele>569.0</ele><time>2026-05-01T12:02:11.864Z</time></trkpt><trkpt lat="44.86317" lon="9.58742"><ele>569.0</ele><time>2026-05-01T12:02:12.864Z</time></trkpt><trkpt lat="44.8632567" lon="9.58757"><ele>569.0</ele><time>2026-05-01T12:02:13.865Z</time></trkpt><trkpt lat="44.86334" lon="9.5877233"><ele>569.0</ele><time>2026-05-01T12:02:14.864Z</time></trkpt><trkpt lat="44.8634217" lon="9.5878683"><ele>569.0</ele><time>2026-05-01T12:02:15.864Z</time></trkpt><trkpt lat="44.863495" lon="9.5880017"><ele>569.0</ele><time>2026-05-01T12:02:16.864Z</time></trkpt><trkpt lat="44.8635533" lon="9.5881067"><ele>568.0</ele><time>2026-05-01T12:02:17.864Z</time></trkpt><trkpt lat="44.8636" lon="9.5882"><ele>567.0</ele><time>2026-05-01T12:02:18.865Z</time></trkpt><trkpt lat="44.86364" lon="9.5882967"><ele>566.0</ele><time>2026-05-01T12:02:19.864Z</time></trkpt><trkpt lat="44.8636817" lon="9.5883917"><ele>565.0</ele><time>2026-05-01T12:02:20.864Z</time></trkpt><trkpt lat="44.8637283" lon="9.5885017"><ele>564.0</ele><time>2026-05-01T12:02:21.864Z</time></trkpt><trkpt lat="44.8637717" lon="9.5886183"><ele>563.0</ele><time>2026-05-01T12:02:22.864Z</time></trkpt><trkpt lat="44.863815" lon="9.5887167"><ele>563.0</ele><time>2026-05-01T12:02:23.864Z</time></trkpt><trkpt lat="44.86385" lon="9.5888183"><ele>563.0</ele><time>2026-05-01T12:02:24.864Z</time></trkpt><trkpt lat="44.86389" lon="9.5889217"><ele>563.0</ele><time>2026-05-01T12:02:25.864Z</time></trkpt><trkpt lat="44.8639333" lon="9.589025"><ele>563.0</ele><time>2026-05-01T12:02:26.864Z</time></trkpt><trkpt lat="44.8639917" lon="9.589125"><ele>563.0</ele><time>2026-05-01T12:02:27.864Z</time></trkpt><trkpt lat="44.8640567" lon="9.5892183"><ele>563.0</ele><time>2026-05-01T12:02:28.864Z</time></trkpt><trkpt lat="44.8641333" lon="9.5893083"><ele>563.0</ele><time>2026-05-01T12:02:29.864Z</time></trkpt><trkpt lat="44.8642083" lon="9.5894017"><ele>563.0</ele><time>2026-05-01T12:02:30.864Z</time></trkpt><trkpt lat="44.8642783" lon="9.5894917"><ele>563.0</ele><time>2026-05-01T12:02:31.864Z</time></trkpt><trkpt lat="44.864335" lon="9.5895833"><ele>563.0</ele><time>2026-05-01T12:02:32.864Z</time></trkpt><trkpt lat="44.86439" lon="9.589675"><ele>563.0</ele><time>2026-05-01T12:02:33.864Z</time></trkpt><trkpt lat="44.8644433" lon="9.58976"><ele>563.0</ele><time>2026-05-01T12:02:34.864Z</time></trkpt><trkpt lat="44.86449" lon="9.5898417"><ele>560.8333333333333</ele><time>2026-05-01T12:02:35.864Z</time></trkpt><trkpt lat="44.86454" lon="9.58993"><ele>558.6666666666666</ele><time>2026-05-01T12:02:36.864Z</time></trkpt><trkpt lat="44.8645867" lon="9.590015"><ele>556.5</ele><time>2026-05-01T12:02:37.864Z</time></trkpt><trkpt lat="44.864625" lon="9.5900967"><ele>554.3333333333334</ele><time>2026-05-01T12:02:38.864Z</time></trkpt><trkpt lat="44.8646933" lon="9.5902217"><ele>552.1666666666667</ele><time>2026-05-01T12:02:40.864Z</time></trkpt><trkpt lat="44.8647417" lon="9.5902833"><ele>550.0</ele><time>2026-05-01T12:02:42.864Z</time></trkpt><trkpt lat="44.8648317" lon="9.5902683"><ele>550.0</ele><time>2026-05-01T12:02:45.864Z</time></trkpt><trkpt lat="44.864905" lon="9.5902183"><ele>550.0</ele><time>2026-05-01T12:02:48.864Z</time></trkpt><trkpt lat="44.86495" lon="9.590135"><ele>550.0</ele><time>2026-05-01T12:02:51.864Z</time></trkpt><trkpt lat="44.86503" lon="9.5901283"><ele>550.0</ele><time>2026-05-01T12:02:54.863Z</time></trkpt><trkpt lat="44.86509" lon="9.590185"><ele>550.0</ele><time>2026-05-01T12:02:56.864Z</time></trkpt><trkpt lat="44.8651683" lon="9.5902717"><ele>550.0</ele><time>2026-05-01T12:02:58.864Z</time></trkpt><trkpt lat="44.8652383" lon="9.5903717"><ele>546.0</ele><time>2026-05-01T12:03:00.865Z</time></trkpt><trkpt lat="44.8653067" lon="9.5904733"><ele>542.0</ele><time>2026-05-01T12:03:02.864Z</time></trkpt><trkpt lat="44.8653633" lon="9.5905267"><ele>538.0</ele><time>2026-05-01T12:03:04.864Z</time></trkpt><trkpt lat="44.8654217" lon="9.5905717"><ele>534.0</ele><time>2026-05-01T12:03:06.864Z</time></trkpt><trkpt lat="44.8654967" lon="9.5906317"><ele>530.0</ele><time>2026-05-01T12:03:09.864Z</time></trkpt><trkpt lat="44.865565" lon="9.5906717"><ele>526.0</ele><time>2026-05-01T12:03:12.864Z</time></trkpt><trkpt lat="44.8656283" lon="9.5907083"><ele>526.0</ele><time>2026-05-01T12:03:15.864Z</time></trkpt><trkpt lat="44.8657083" lon="9.5907183"><ele>526.0</ele><time>2026-05-01T12:03:17.865Z</time></trkpt><trkpt lat="44.8658083" lon="9.590715"><ele>526.0</ele><time>2026-05-01T12:03:19.864Z</time></trkpt><trkpt lat="44.865925" lon="9.590745"><ele>526.0</ele><time>2026-05-01T12:03:21.864Z</time></trkpt><trkpt lat="44.8660033" lon="9.590755"><ele>526.0</ele><time>2026-05-01T12:03:22.864Z</time></trkpt><trkpt lat="44.866075" lon="9.59079"><ele>522.25</ele><time>2026-05-01T12:03:23.864Z</time></trkpt><trkpt lat="44.8661633" lon="9.5909067"><ele>518.5</ele><time>2026-05-01T12:03:24.864Z</time></trkpt><trkpt lat="44.8662567" lon="9.591035"><ele>514.75</ele><time>2026-05-01T12:03:25.864Z</time></trkpt><trkpt lat="44.866345" lon="9.5911733"><ele>511.0</ele><time>2026-05-01T12:03:26.864Z</time></trkpt><trkpt lat="44.8664267" lon="9.591315"><ele>511.0</ele><time>2026-05-01T12:03:27.864Z</time></trkpt><trkpt lat="44.8665133" lon="9.5914583"><ele>511.0</ele><time>2026-05-01T12:03:28.864Z</time></trkpt><trkpt lat="44.8665767" lon="9.5915817"><ele>511.0</ele><time>2026-05-01T12:03:29.864Z</time></trkpt><trkpt lat="44.866635" lon="9.591695"><ele>511.0</ele><time>2026-05-01T12:03:30.864Z</time></trkpt><trkpt lat="44.8666933" lon="9.5917983"><ele>511.0</ele><time>2026-05-01T12:03:31.864Z</time></trkpt><trkpt lat="44.8667567" lon="9.59191"><ele>510.8</ele><time>2026-05-01T12:03:32.864Z</time></trkpt><trkpt lat="44.8668167" lon="9.5920267"><ele>510.6</ele><time>2026-05-01T12:03:33.864Z</time></trkpt><trkpt lat="44.866875" lon="9.59215"><ele>510.4</ele><time>2026-05-01T12:03:34.864Z</time></trkpt><trkpt lat="44.8669117" lon="9.5922883"><ele>510.2</ele><time>2026-05-01T12:03:35.864Z</time></trkpt><trkpt lat="44.8669283" lon="9.5924433"><ele>510.0</ele><time>2026-05-01T12:03:36.864Z</time></trkpt><trkpt lat="44.8669583" lon="9.59261"><ele>510.0</ele><time>2026-05-01T12:03:37.864Z</time></trkpt><trkpt lat="44.8670017" lon="9.5927617"><ele>510.0</ele><time>2026-05-01T12:03:38.864Z</time></trkpt><trkpt lat="44.86704" lon="9.592885"><ele>510.0</ele><time>2026-05-01T12:03:39.864Z</time></trkpt><trkpt lat="44.8670817" lon="9.593005"><ele>510.0</ele><time>2026-05-01T12:03:40.864Z</time></trkpt><trkpt lat="44.8671333" lon="9.5931167"><ele>510.0</ele><time>2026-05-01T12:03:41.864Z</time></trkpt><trkpt lat="44.8671883" lon="9.5932033"><ele>510.6</ele><time>2026-05-01T12:03:42.864Z</time></trkpt><trkpt lat="44.8672617" lon="9.5932883"><ele>511.2</ele><time>2026-05-01T12:03:43.864Z</time></trkpt><trkpt lat="44.867335" lon="9.5933683"><ele>511.79999999999995</ele><time>2026-05-01T12:03:44.864Z</time></trkpt><trkpt lat="44.8674183" lon="9.59344"><ele>512.4</ele><time>2026-05-01T12:03:45.864Z</time></trkpt><trkpt lat="44.8675183" lon="9.5934883"><ele>513.0</ele><time>2026-05-01T12:03:46.864Z</time></trkpt><trkpt lat="44.867625" lon="9.593515"><ele>511.5</ele><time>2026-05-01T12:03:47.864Z</time></trkpt><trkpt lat="44.867735" lon="9.593535"><ele>510.0</ele><time>2026-05-01T12:03:48.864Z</time></trkpt><trkpt lat="44.8678517" lon="9.5935533"><ele>508.5</ele><time>2026-05-01T12:03:49.864Z</time></trkpt><trkpt lat="44.86798" lon="9.5935633"><ele>507.0</ele><time>2026-05-01T12:03:50.864Z</time></trkpt><trkpt lat="44.8681117" lon="9.5935667"><ele>507.0</ele><time>2026-05-01T12:03:51.864Z</time></trkpt><trkpt lat="44.8682317" lon="9.593585"><ele>507.00000000000006</ele><time>2026-05-01T12:03:52.864Z</time></trkpt><trkpt lat="44.868335" lon="9.593615"><ele>507.00000000000006</ele><time>2026-05-01T12:03:53.864Z</time></trkpt><trkpt lat="44.8684367" lon="9.5936467"><ele>507.0</ele><time>2026-05-01T12:03:54.864Z</time></trkpt><trkpt lat="44.8685233" lon="9.593705"><ele>507.0</ele><time>2026-05-01T12:03:55.864Z</time></trkpt><trkpt lat="44.868605" lon="9.5937933"><ele>506.8</ele><time>2026-05-01T12:03:56.864Z</time></trkpt><trkpt lat="44.8686783" lon="9.5939017"><ele>506.6</ele><time>2026-05-01T12:03:57.864Z</time></trkpt><trkpt lat="44.8687417" lon="9.594015"><ele>506.40000000000003</ele><time>2026-05-01T12:03:58.864Z</time></trkpt><trkpt lat="44.8688067" lon="9.5941383"><ele>506.20000000000005</ele><time>2026-05-01T12:03:59.864Z</time></trkpt><trkpt lat="44.868875" lon="9.594265"><ele>506.0</ele><time>2026-05-01T12:04:00.864Z</time></trkpt><trkpt lat="44.86892" lon="9.5943967"><ele>510.0</ele><time>2026-05-01T12:04:01.864Z</time></trkpt><trkpt lat="44.8689767" lon="9.594525"><ele>514.0</ele><time>2026-05-01T12:04:02.864Z</time></trkpt><trkpt lat="44.8691567" lon="9.5948033"><ele>518.0</ele><time>2026-05-01T12:04:05.249Z</time></trkpt><trkpt lat="44.8692417" lon="9.5948667"><ele>515.0</ele><time>2026-05-01T12:04:06.793Z</time></trkpt><trkpt lat="44.8694083" lon="9.5950083"><ele>512.0</ele><time>2026-05-01T12:04:07.865Z</time></trkpt><trkpt lat="44.869435" lon="9.5951683"><ele>509.0</ele><time>2026-05-01T12:04:09.865Z</time></trkpt><trkpt lat="44.86953" lon="9.5952667"><ele>506.0</ele><time>2026-05-01T12:04:11.865Z</time></trkpt><trkpt lat="44.8696" lon="9.5953017"><ele>508.75</ele><time>2026-05-01T12:04:12.865Z</time></trkpt><trkpt lat="44.8696883" lon="9.5953417"><ele>511.5</ele><time>2026-05-01T12:04:13.866Z</time></trkpt><trkpt lat="44.8697683" lon="9.59537"><ele>514.25</ele><time>2026-05-01T12:04:14.865Z</time></trkpt><trkpt lat="44.8698583" lon="9.5954167"><ele>517.0</ele><time>2026-05-01T12:04:15.865Z</time></trkpt><trkpt lat="44.869995" lon="9.5955867"><ele>515.25</ele><time>2026-05-01T12:04:16.865Z</time></trkpt><trkpt lat="44.87011" lon="9.59564"><ele>513.5</ele><time>2026-05-01T12:04:17.865Z</time></trkpt><trkpt lat="44.870245" lon="9.5956933"><ele>511.75</ele><time>2026-05-01T12:04:18.865Z</time></trkpt><trkpt lat="44.8704117" lon="9.59578"><ele>510.0</ele><time>2026-05-01T12:04:19.865Z</time></trkpt><trkpt lat="44.8705667" lon="9.5958483"><ele>510.0</ele><time>2026-05-01T12:04:20.865Z</time></trkpt><trkpt lat="44.8706967" lon="9.5959133"><ele>510.0</ele><time>2026-05-01T12:04:21.865Z</time></trkpt><trkpt lat="44.8708517" lon="9.595995"><ele>510.0</ele><time>2026-05-01T12:04:22.865Z</time></trkpt><trkpt lat="44.871" lon="9.5960717"><ele>510.33333333333337</ele><time>2026-05-01T12:04:23.865Z</time></trkpt><trkpt lat="44.87114" lon="9.5961783"><ele>510.6666666666667</ele><time>2026-05-01T12:04:24.865Z</time></trkpt><trkpt lat="44.8712983" lon="9.5963217"><ele>511.0</ele><time>2026-05-01T12:04:25.865Z</time></trkpt><trkpt lat="44.87144" lon="9.59646"><ele>511.0</ele><time>2026-05-01T12:04:26.865Z</time></trkpt><trkpt lat="44.87162" lon="9.5966167"><ele>511.0</ele><time>2026-05-01T12:04:27.865Z</time></trkpt><trkpt lat="44.8717717" lon="9.5967817"><ele>511.0</ele><time>2026-05-01T12:04:28.865Z</time></trkpt><trkpt lat="44.8719183" lon="9.5969283"><ele>507.6666666666667</ele><time>2026-05-01T12:04:29.865Z</time></trkpt><trkpt lat="44.8720733" lon="9.5970867"><ele>504.33333333333337</ele><time>2026-05-01T12:04:30.865Z</time></trkpt><trkpt lat="44.8722333" lon="9.5972583"><ele>501.0</ele><time>2026-05-01T12:04:31.865Z</time></trkpt><trkpt lat="44.872395" lon="9.5974333"><ele>501.0</ele><time>2026-05-01T12:04:32.865Z</time></trkpt><trkpt lat="44.8725583" lon="9.5976083"><ele>501.0</ele><time>2026-05-01T12:04:33.865Z</time></trkpt><trkpt lat="44.8727" lon="9.5977633"><ele>501.0</ele><time>2026-05-01T12:04:34.865Z</time></trkpt><trkpt lat="44.8728417" lon="9.5978967"><ele>501.25</ele><time>2026-05-01T12:04:35.865Z</time></trkpt><trkpt lat="44.872965" lon="9.5980083"><ele>501.5</ele><time>2026-05-01T12:04:36.865Z</time></trkpt><trkpt lat="44.8730733" lon="9.5981217"><ele>501.75</ele><time>2026-05-01T12:04:37.865Z</time></trkpt><trkpt lat="44.8731633" lon="9.5982317"><ele>502.0</ele><time>2026-05-01T12:04:38.865Z</time></trkpt><trkpt lat="44.8732583" lon="9.5983383"><ele>502.0</ele><time>2026-05-01T12:04:39.865Z</time></trkpt><trkpt lat="44.8733367" lon="9.5984467"><ele>502.00000000000006</ele><time>2026-05-01T12:04:40.866Z</time></trkpt><trkpt lat="44.8734217" lon="9.59856"><ele>502.00000000000006</ele><time>2026-05-01T12:04:41.865Z</time></trkpt><trkpt lat="44.8735" lon="9.5986617"><ele>502.0</ele><time>2026-05-01T12:04:42.865Z</time></trkpt><trkpt lat="44.87357" lon="9.5987433"><ele>502.0</ele><time>2026-05-01T12:04:43.865Z</time></trkpt><trkpt lat="44.873635" lon="9.5988133"><ele>501.8571428571428</ele><time>2026-05-01T12:04:44.865Z</time></trkpt><trkpt lat="44.873695" lon="9.59888"><ele>501.71428571428567</ele><time>2026-05-01T12:04:45.865Z</time></trkpt><trkpt lat="44.8737467" lon="9.5989533"><ele>501.57142857142856</ele><time>2026-05-01T12:04:46.865Z</time></trkpt><trkpt lat="44.8737933" lon="9.5990183"><ele>501.4285714285714</ele><time>2026-05-01T12:04:47.865Z</time></trkpt><trkpt lat="44.8738367" lon="9.599085"><ele>501.2857142857142</ele><time>2026-05-01T12:04:48.865Z</time></trkpt><trkpt lat="44.8738933" lon="9.5991617"><ele>501.14285714285717</ele><time>2026-05-01T12:04:49.865Z</time></trkpt><trkpt lat="44.8739533" lon="9.59923"><ele>501.0</ele><time>2026-05-01T12:04:50.865Z</time></trkpt><trkpt lat="44.8740067" lon="9.5992833"><ele>501.0</ele><time>2026-05-01T12:04:51.865Z</time></trkpt><trkpt lat="44.8740867" lon="9.5993383"><ele>501.0</ele><time>2026-05-01T12:04:53.865Z</time></trkpt><trkpt lat="44.8741583" lon="9.59935"><ele>501.0</ele><time>2026-05-01T12:04:55.865Z</time></trkpt><trkpt lat="44.8742367" lon="9.599345"><ele>501.0</ele><time>2026-05-01T12:04:58.865Z</time></trkpt><trkpt lat="44.8743283" lon="9.5993367"><ele>501.0</ele><time>2026-05-01T12:05:01.865Z</time></trkpt><trkpt lat="44.8744433" lon="9.5993517"><ele>501.0</ele><time>2026-05-01T12:05:03.865Z</time></trkpt><trkpt lat="44.8745117" lon="9.5993533"><ele>500.5</ele><time>2026-05-01T12:05:04.865Z</time></trkpt><trkpt lat="44.8745867" lon="9.5993433"><ele>500.0</ele><time>2026-05-01T12:05:05.865Z</time></trkpt><trkpt lat="44.874675" lon="9.5993517"><ele>499.5</ele><time>2026-05-01T12:05:06.865Z</time></trkpt><trkpt lat="44.8747517" lon="9.5993633"><ele>499.0</ele><time>2026-05-01T12:05:07.865Z</time></trkpt><trkpt lat="44.8748283" lon="9.59937"><ele>498.5</ele><time>2026-05-01T12:05:08.866Z</time></trkpt><trkpt lat="44.8748983" lon="9.5993683"><ele>498.0</ele><time>2026-05-01T12:05:09.865Z</time></trkpt><trkpt lat="44.8749767" lon="9.5993617"><ele>498.0</ele><time>2026-05-01T12:05:10.865Z</time></trkpt><trkpt lat="44.8750583" lon="9.599345"><ele>497.99999999999994</ele><time>2026-05-01T12:05:11.865Z</time></trkpt><trkpt lat="44.8751467" lon="9.59933"><ele>497.99999999999994</ele><time>2026-05-01T12:05:12.865Z</time></trkpt><trkpt lat="44.87524" lon="9.59931"><ele>498.0</ele><time>2026-05-01T12:05:13.865Z</time></trkpt><trkpt lat="44.8753417" lon="9.5992933"><ele>498.0</ele><time>2026-05-01T12:05:14.865Z</time></trkpt><trkpt lat="44.875445" lon="9.5992933"><ele>498.0</ele><time>2026-05-01T12:05:15.865Z</time></trkpt><trkpt lat="44.875535" lon="9.5992967"><ele>497.99999999999994</ele><time>2026-05-01T12:05:16.865Z</time></trkpt><trkpt lat="44.8756217" lon="9.599295"><ele>498.0</ele><time>2026-05-01T12:05:17.865Z</time></trkpt><trkpt lat="44.87569" lon="9.5992867"><ele>498.0</ele><time>2026-05-01T12:05:18.865Z</time></trkpt><trkpt lat="44.8757567" lon="9.5992767"><ele>497.99999999999994</ele><time>2026-05-01T12:05:19.866Z</time></trkpt><trkpt lat="44.8758233" lon="9.5992717"><ele>498.0</ele><time>2026-05-01T12:05:20.865Z</time></trkpt><trkpt lat="44.8758933" lon="9.5992667"><ele>498.0</ele><time>2026-05-01T12:05:21.865Z</time></trkpt><trkpt lat="44.8759667" lon="9.5992467"><ele>497.1666666666667</ele><time>2026-05-01T12:05:22.865Z</time></trkpt><trkpt lat="44.8760417" lon="9.5992333"><ele>496.33333333333337</ele><time>2026-05-01T12:05:23.865Z</time></trkpt><trkpt lat="44.8761133" lon="9.5992333"><ele>495.5</ele><time>2026-05-01T12:05:24.865Z</time></trkpt><trkpt lat="44.8762383" lon="9.5992067"><ele>494.6666666666667</ele><time>2026-05-01T12:05:26.865Z</time></trkpt><trkpt lat="44.8763067" lon="9.599195"><ele>493.83333333333337</ele><time>2026-05-01T12:05:27.865Z</time></trkpt><trkpt lat="44.87637" lon="9.5991817"><ele>493.0</ele><time>2026-05-01T12:05:28.865Z</time></trkpt><trkpt lat="44.8764733" lon="9.5991317"><ele>493.0</ele><time>2026-05-01T12:05:30.865Z</time></trkpt><trkpt lat="44.8765583" lon="9.5990467"><ele>492.99999999999994</ele><time>2026-05-01T12:05:32.865Z</time></trkpt><trkpt lat="44.8766367" lon="9.5989617"><ele>492.99999999999994</ele><time>2026-05-01T12:05:34.865Z</time></trkpt><trkpt lat="44.87672" lon="9.59891"><ele>493.0</ele><time>2026-05-01T12:05:36.865Z</time></trkpt><trkpt lat="44.8768017" lon="9.5988633"><ele>493.0</ele><time>2026-05-01T12:05:38.865Z</time></trkpt><trkpt lat="44.87689" lon="9.5988617"><ele>489.4</ele><time>2026-05-01T12:05:40.865Z</time></trkpt><trkpt lat="44.8769733" lon="9.5988717"><ele>485.79999999999995</ele><time>2026-05-01T12:05:42.866Z</time></trkpt><trkpt lat="44.87707" lon="9.5988533"><ele>482.2</ele><time>2026-05-01T12:05:44.865Z</time></trkpt><trkpt lat="44.8771483" lon="9.5988233"><ele>478.6</ele><time>2026-05-01T12:05:46.865Z</time></trkpt><trkpt lat="44.8772517" lon="9.598775"><ele>475.0</ele><time>2026-05-01T12:05:48.865Z</time></trkpt><trkpt lat="44.87732" lon="9.5986933"><ele>473.2</ele><time>2026-05-01T12:05:50.865Z</time></trkpt><trkpt lat="44.8774117" lon="9.59863"><ele>471.4</ele><time>2026-05-01T12:05:52.865Z</time></trkpt><trkpt lat="44.8774783" lon="9.598595"><ele>469.6</ele><time>2026-05-01T12:05:54.865Z</time></trkpt><trkpt lat="44.8775767" lon="9.5985483"><ele>467.8</ele><time>2026-05-01T12:05:56.865Z</time></trkpt><trkpt lat="44.8776683" lon="9.5985267"><ele>466.0</ele><time>2026-05-01T12:05:58.865Z</time></trkpt><trkpt lat="44.877745" lon="9.5984883"><ele>463.1666666666667</ele><time>2026-05-01T12:06:00.865Z</time></trkpt><trkpt lat="44.8778217" lon="9.5984233"><ele>460.33333333333337</ele><time>2026-05-01T12:06:02.865Z</time></trkpt><trkpt lat="44.8778783" lon="9.5983517"><ele>457.5</ele><time>2026-05-01T12:06:04.865Z</time></trkpt><trkpt lat="44.87798" lon="9.59835"><ele>454.66666666666663</ele><time>2026-05-01T12:06:07.865Z</time></trkpt><trkpt lat="44.878065" lon="9.5983733"><ele>451.8333333333333</ele><time>2026-05-01T12:06:09.865Z</time></trkpt><trkpt lat="44.87815" lon="9.59837"><ele>449.0</ele><time>2026-05-01T12:06:11.865Z</time></trkpt><trkpt lat="44.8782533" lon="9.5983467"><ele>449.0</ele><time>2026-05-01T12:06:13.865Z</time></trkpt><trkpt lat="44.8783417" lon="9.5983317"><ele>449.0</ele><time>2026-05-01T12:06:15.865Z</time></trkpt><trkpt lat="44.8784267" lon="9.5983417"><ele>449.0</ele><time>2026-05-01T12:06:17.865Z</time></trkpt><trkpt lat="44.8785267" lon="9.5983733"><ele>449.0</ele><time>2026-05-01T12:06:19.865Z</time></trkpt><trkpt lat="44.87861" lon="9.5983883"><ele>449.0</ele><time>2026-05-01T12:06:20.865Z</time></trkpt><trkpt lat="44.8787067" lon="9.5983917"><ele>445.5</ele><time>2026-05-01T12:06:21.865Z</time></trkpt><trkpt lat="44.8788233" lon="9.5983883"><ele>442.0</ele><time>2026-05-01T12:06:22.865Z</time></trkpt><trkpt lat="44.87897" lon="9.59837"><ele>438.5</ele><time>2026-05-01T12:06:23.865Z</time></trkpt><trkpt lat="44.8791317" lon="9.5983867"><ele>435.0</ele><time>2026-05-01T12:06:24.865Z</time></trkpt><trkpt lat="44.8792517" lon="9.5983567"><ele>434.0</ele><time>2026-05-01T12:06:25.865Z</time></trkpt><trkpt lat="44.87935" lon="9.59834"><ele>433.0</ele><time>2026-05-01T12:06:26.865Z</time></trkpt><trkpt lat="44.8794483" lon="9.59832"><ele>432.0</ele><time>2026-05-01T12:06:27.865Z</time></trkpt><trkpt lat="44.879555" lon="9.5982767"><ele>431.0</ele><time>2026-05-01T12:06:28.865Z</time></trkpt><trkpt lat="44.8796533" lon="9.5982117"><ele>430.0</ele><time>2026-05-01T12:06:29.865Z</time></trkpt><trkpt lat="44.8797433" lon="9.59815"><ele>430.00000000000006</ele><time>2026-05-01T12:06:30.865Z</time></trkpt><trkpt lat="44.8798267" lon="9.5981033"><ele>430.0</ele><time>2026-05-01T12:06:31.865Z</time></trkpt><trkpt lat="44.8799033" lon="9.5980583"><ele>430.0</ele><time>2026-05-01T12:06:32.865Z</time></trkpt><trkpt lat="44.8799683" lon="9.5980283"><ele>430.0</ele><time>2026-05-01T12:06:33.865Z</time></trkpt><trkpt lat="44.8800283" lon="9.5979983"><ele>430.00000000000006</ele><time>2026-05-01T12:06:34.865Z</time></trkpt><trkpt lat="44.8801433" lon="9.59795"><ele>430.0</ele><time>2026-05-01T12:06:36.866Z</time></trkpt><trkpt lat="44.88026" lon="9.5979083"><ele>427.33333333333337</ele><time>2026-05-01T12:06:38.865Z</time></trkpt><trkpt lat="44.8803283" lon="9.5978783"><ele>424.6666666666667</ele><time>2026-05-01T12:06:39.865Z</time></trkpt><trkpt lat="44.880405" lon="9.597845"><ele>422.0</ele><time>2026-05-01T12:06:40.865Z</time></trkpt><trkpt lat="44.8804783" lon="9.59781"><ele>419.33333333333337</ele><time>2026-05-01T12:06:41.865Z</time></trkpt><trkpt lat="44.8805517" lon="9.5977817"><ele>416.6666666666667</ele><time>2026-05-01T12:06:42.866Z</time></trkpt><trkpt lat="44.8806317" lon="9.5977567"><ele>414.0</ele><time>2026-05-01T12:06:43.865Z</time></trkpt><trkpt lat="44.8807117" lon="9.5977283"><ele>413.0</ele><time>2026-05-01T12:06:44.866Z</time></trkpt><trkpt lat="44.8807967" lon="9.597695"><ele>412.0</ele><time>2026-05-01T12:06:45.865Z</time></trkpt><trkpt lat="44.88089" lon="9.59766"><ele>411.0</ele><time>2026-05-01T12:06:46.865Z</time></trkpt><trkpt lat="44.8809783" lon="9.5976233"><ele>410.0</ele><time>2026-05-01T12:06:47.866Z</time></trkpt><trkpt lat="44.88106" lon="9.59759"><ele>409.0</ele><time>2026-05-01T12:06:48.865Z</time></trkpt><trkpt lat="44.8811317" lon="9.597545"><ele>408.0</ele><time>2026-05-01T12:06:49.865Z</time></trkpt><trkpt lat="44.8811917" lon="9.5974933"><ele>405.8333333333333</ele><time>2026-05-01T12:06:50.865Z</time></trkpt><trkpt lat="44.8812367" lon="9.5974267"><ele>403.66666666666663</ele><time>2026-05-01T12:06:51.865Z</time></trkpt><trkpt lat="44.8812883" lon="9.59735"><ele>401.5</ele><time>2026-05-01T12:06:52.865Z</time></trkpt><trkpt lat="44.8813517" lon="9.5972817"><ele>399.3333333333333</ele><time>2026-05-01T12:06:53.865Z</time></trkpt><trkpt lat="44.88142" lon="9.59723"><ele>397.16666666666663</ele><time>2026-05-01T12:06:54.865Z</time></trkpt><trkpt lat="44.88149" lon="9.597205"><ele>395.0</ele><time>2026-05-01T12:06:55.865Z</time></trkpt><trkpt lat="44.8815717" lon="9.5971933"><ele>395.0</ele><time>2026-05-01T12:06:56.865Z</time></trkpt><trkpt lat="44.881675" lon="9.5971767"><ele>395.0</ele><time>2026-05-01T12:06:57.865Z</time></trkpt><trkpt lat="44.8818067" lon="9.5971617"><ele>395.0</ele><time>2026-05-01T12:06:58.865Z</time></trkpt><trkpt lat="44.881935" lon="9.5971467"><ele>395.0</ele><time>2026-05-01T12:06:59.865Z</time></trkpt><trkpt lat="44.8820467" lon="9.5971333"><ele>393.8333333333333</ele><time>2026-05-01T12:07:00.865Z</time></trkpt><trkpt lat="44.8821417" lon="9.5971333"><ele>392.66666666666663</ele><time>2026-05-01T12:07:01.865Z</time></trkpt><trkpt lat="44.88223" lon="9.5971133"><ele>391.5</ele><time>2026-05-01T12:07:02.865Z</time></trkpt><trkpt lat="44.8823083" lon="9.5971083"><ele>390.33333333333337</ele><time>2026-05-01T12:07:03.865Z</time></trkpt><trkpt lat="44.882375" lon="9.5971017"><ele>389.1666666666667</ele><time>2026-05-01T12:07:04.865Z</time></trkpt><trkpt lat="44.88246" lon="9.5971283"><ele>388.0</ele><time>2026-05-01T12:07:06.865Z</time></trkpt><trkpt lat="44.88251" lon="9.5972317"><ele>388.00000000000006</ele><time>2026-05-01T12:07:09.865Z</time></trkpt><trkpt lat="44.8825567" lon="9.5973733"><ele>388.0</ele><time>2026-05-01T12:07:11.865Z</time></trkpt><trkpt lat="44.882595" lon="9.5974617"><ele>388.0</ele><time>2026-05-01T12:07:12.865Z</time></trkpt><trkpt lat="44.8826367" lon="9.597555"><ele>388.0</ele><time>2026-05-01T12:07:13.865Z</time></trkpt><trkpt lat="44.88268" lon="9.59765"><ele>388.00000000000006</ele><time>2026-05-01T12:07:14.865Z</time></trkpt><trkpt lat="44.8827267" lon="9.5977383"><ele>388.0</ele><time>2026-05-01T12:07:15.865Z</time></trkpt><trkpt lat="44.8827783" lon="9.5978233"><ele>385.6666666666667</ele><time>2026-05-01T12:07:16.865Z</time></trkpt><trkpt lat="44.8828333" lon="9.5979067"><ele>383.33333333333337</ele><time>2026-05-01T12:07:17.865Z</time></trkpt><trkpt lat="44.88289" lon="9.597995"><ele>381.0</ele><time>2026-05-01T12:07:18.865Z</time></trkpt><trkpt lat="44.8829383" lon="9.59808"><ele>378.6666666666667</ele><time>2026-05-01T12:07:19.865Z</time></trkpt><trkpt lat="44.8829817" lon="9.5981633"><ele>376.33333333333337</ele><time>2026-05-01T12:07:20.865Z</time></trkpt><trkpt lat="44.8830233" lon="9.5982383"><ele>374.0</ele><time>2026-05-01T12:07:21.865Z</time></trkpt><trkpt lat="44.8830683" lon="9.59831"><ele>374.0</ele><time>2026-05-01T12:07:22.865Z</time></trkpt><trkpt lat="44.88312" lon="9.5983883"><ele>374.0</ele><time>2026-05-01T12:07:23.865Z</time></trkpt><trkpt lat="44.883175" lon="9.5984617"><ele>374.0</ele><time>2026-05-01T12:07:24.866Z</time></trkpt><trkpt lat="44.8832283" lon="9.598535"><ele>374.0</ele><time>2026-05-01T12:07:25.865Z</time></trkpt><trkpt lat="44.88328" lon="9.5986083"><ele>374.0</ele><time>2026-05-01T12:07:26.865Z</time></trkpt><trkpt lat="44.8833433" lon="9.5986717"><ele>374.0</ele><time>2026-05-01T12:07:27.865Z</time></trkpt><trkpt lat="44.8834067" lon="9.5987283"><ele>371.6666666666667</ele><time>2026-05-01T12:07:28.865Z</time></trkpt><trkpt lat="44.8834683" lon="9.598785"><ele>369.33333333333337</ele><time>2026-05-01T12:07:29.865Z</time></trkpt><trkpt lat="44.8835317" lon="9.5988283"><ele>367.0</ele><time>2026-05-01T12:07:30.865Z</time></trkpt><trkpt lat="44.8835917" lon="9.5988817"><ele>364.6666666666667</ele><time>2026-05-01T12:07:31.865Z</time></trkpt><trkpt lat="44.88366" lon="9.5989383"><ele>362.3333333333333</ele><time>2026-05-01T12:07:32.864Z</time></trkpt><trkpt lat="44.883725" lon="9.5990017"><ele>360.0</ele><time>2026-05-01T12:07:33.864Z</time></trkpt><trkpt lat="44.8837917" lon="9.59906"><ele>360.0</ele><time>2026-05-01T12:07:34.864Z</time></trkpt><trkpt lat="44.88386" lon="9.599125"><ele>360.0</ele><time>2026-05-01T12:07:35.864Z</time></trkpt><trkpt lat="44.8839333" lon="9.5991933"><ele>360.0</ele><time>2026-05-01T12:07:36.865Z</time></trkpt><trkpt lat="44.8840033" lon="9.5992633"><ele>360.0</ele><time>2026-05-01T12:07:37.864Z</time></trkpt><trkpt lat="44.8840733" lon="9.5993317"><ele>360.0</ele><time>2026-05-01T12:07:38.864Z</time></trkpt><trkpt lat="44.8841433" lon="9.5993967"><ele>360.0</ele><time>2026-05-01T12:07:39.864Z</time></trkpt><trkpt lat="44.88422" lon="9.599465"><ele>358.4</ele><time>2026-05-01T12:07:40.864Z</time></trkpt><trkpt lat="44.8843" lon="9.5995333"><ele>356.8</ele><time>2026-05-01T12:07:41.864Z</time></trkpt><trkpt lat="44.8843817" lon="9.599605"><ele>355.20000000000005</ele><time>2026-05-01T12:07:42.864Z</time></trkpt><trkpt lat="44.8844583" lon="9.59968"><ele>353.6</ele><time>2026-05-01T12:07:43.864Z</time></trkpt><trkpt lat="44.88453" lon="9.5997483"><ele>352.0</ele><time>2026-05-01T12:07:44.864Z</time></trkpt><trkpt lat="44.8846033" lon="9.599815"><ele>352.0</ele><time>2026-05-01T12:07:45.865Z</time></trkpt><trkpt lat="44.8846733" lon="9.5998883"><ele>352.0</ele><time>2026-05-01T12:07:46.864Z</time></trkpt><trkpt lat="44.88474" lon="9.5999533"><ele>352.0</ele><time>2026-05-01T12:07:47.864Z</time></trkpt><trkpt lat="44.8848017" lon="9.60001"><ele>352.0</ele><time>2026-05-01T12:07:48.864Z</time></trkpt><trkpt lat="44.884865" lon="9.6000817"><ele>352.0</ele><time>2026-05-01T12:07:49.864Z</time></trkpt><trkpt lat="44.8849267" lon="9.6001617"><ele>352.0</ele><time>2026-05-01T12:07:50.864Z</time></trkpt><trkpt lat="44.8849833" lon="9.6002483"><ele>352.0</ele><time>2026-05-01T12:07:51.864Z</time></trkpt><trkpt lat="44.88504" lon="9.6003283"><ele>352.0</ele><time>2026-05-01T12:07:52.864Z</time></trkpt><trkpt lat="44.8850933" lon="9.6004083"><ele>352.0</ele><time>2026-05-01T12:07:53.865Z</time></trkpt><trkpt lat="44.8851433" lon="9.6004833"><ele>352.0</ele><time>2026-05-01T12:07:54.864Z</time></trkpt><trkpt lat="44.8851933" lon="9.6005517"><ele>352.0</ele><time>2026-05-01T12:07:55.864Z</time></trkpt><trkpt lat="44.8852483" lon="9.60062"><ele>352.0</ele><time>2026-05-01T12:07:56.864Z</time></trkpt><trkpt lat="44.8853" lon="9.6006933"><ele>352.0</ele><time>2026-05-01T12:07:57.864Z</time></trkpt><trkpt lat="44.8853483" lon="9.6007667"><ele>349.66666666666663</ele><time>2026-05-01T12:07:58.865Z</time></trkpt><trkpt lat="44.88541" lon="9.6008633"><ele>347.3333333333333</ele><time>2026-05-01T12:08:00.864Z</time></trkpt><trkpt lat="44.8854767" lon="9.6009"><ele>345.0</ele><time>2026-05-01T12:08:04.864Z</time></trkpt><trkpt lat="44.885565" lon="9.6008483"><ele>342.6666666666667</ele><time>2026-05-01T12:08:06.865Z</time></trkpt><trkpt lat="44.88562" lon="9.6007717"><ele>340.33333333333337</ele><time>2026-05-01T12:08:07.864Z</time></trkpt><trkpt lat="44.8856667" lon="9.600675"><ele>338.0</ele><time>2026-05-01T12:08:08.864Z</time></trkpt><trkpt lat="44.8856983" lon="9.6005633"><ele>338.0</ele><time>2026-05-01T12:08:09.864Z</time></trkpt><trkpt lat="44.8857217" lon="9.60044"><ele>338.0</ele><time>2026-05-01T12:08:10.864Z</time></trkpt><trkpt lat="44.8857383" lon="9.6003117"><ele>338.0</ele><time>2026-05-01T12:08:11.864Z</time></trkpt><trkpt lat="44.885755" lon="9.600185"><ele>338.0</ele><time>2026-05-01T12:08:12.864Z</time></trkpt><trkpt lat="44.8857917" lon="9.6000767"><ele>338.0</ele><time>2026-05-01T12:08:13.864Z</time></trkpt><trkpt lat="44.8858533" lon="9.599965"><ele>336.2</ele><time>2026-05-01T12:08:14.864Z</time></trkpt><trkpt lat="44.8859367" lon="9.5998783"><ele>334.4</ele><time>2026-05-01T12:08:15.864Z</time></trkpt><trkpt lat="44.88602" lon="9.599805"><ele>332.59999999999997</ele><time>2026-05-01T12:08:16.864Z</time></trkpt><trkpt lat="44.8861083" lon="9.5997367"><ele>330.79999999999995</ele><time>2026-05-01T12:08:17.864Z</time></trkpt><trkpt lat="44.8861917" lon="9.5996717"><ele>329.0</ele><time>2026-05-01T12:08:18.864Z</time></trkpt><trkpt lat="44.8862783" lon="9.5995933"><ele>329.0</ele><time>2026-05-01T12:08:19.864Z</time></trkpt><trkpt lat="44.8863583" lon="9.5995083"><ele>329.0</ele><time>2026-05-01T12:08:20.864Z</time></trkpt><trkpt lat="44.886445" lon="9.599415"><ele>329.0</ele><time>2026-05-01T12:08:21.864Z</time></trkpt><trkpt lat="44.8865233" lon="9.59932"><ele>329.0</ele><time>2026-05-01T12:08:22.864Z</time></trkpt><trkpt lat="44.8866017" lon="9.5992267"><ele>329.0</ele><time>2026-05-01T12:08:23.864Z</time></trkpt><trkpt lat="44.8866783" lon="9.5991483"><ele>329.0</ele><time>2026-05-01T12:08:24.865Z</time></trkpt><trkpt lat="44.8867517" lon="9.599045"><ele>329.0</ele><time>2026-05-01T12:08:25.864Z</time></trkpt><trkpt lat="44.88682" lon="9.5989667"><ele>329.0</ele><time>2026-05-01T12:08:26.864Z</time></trkpt><trkpt lat="44.8868833" lon="9.5988617"><ele>329.0</ele><time>2026-05-01T12:08:27.864Z</time></trkpt><trkpt lat="44.8869233" lon="9.5987617"><ele>329.0</ele><time>2026-05-01T12:08:28.864Z</time></trkpt><trkpt lat="44.8869433" lon="9.598655"><ele>329.0</ele><time>2026-05-01T12:08:29.864Z</time></trkpt><trkpt lat="44.8869633" lon="9.5985217"><ele>329.6</ele><time>2026-05-01T12:08:30.864Z</time></trkpt><trkpt lat="44.8869667" lon="9.5983867"><ele>330.2</ele><time>2026-05-01T12:08:31.864Z</time></trkpt><trkpt lat="44.8869683" lon="9.5982383"><ele>330.8</ele><time>2026-05-01T12:08:32.865Z</time></trkpt><trkpt lat="44.8869817" lon="9.598085"><ele>331.40000000000003</ele><time>2026-05-01T12:08:33.864Z</time></trkpt><trkpt lat="44.88698" lon="9.5979333"><ele>332.0</ele><time>2026-05-01T12:08:34.864Z</time></trkpt><trkpt lat="44.88698" lon="9.5977583"><ele>332.5</ele><time>2026-05-01T12:08:35.864Z</time></trkpt><trkpt lat="44.8869917" lon="9.5975867"><ele>333.0</ele><time>2026-05-01T12:08:36.864Z</time></trkpt><trkpt lat="44.8870117" lon="9.597405"><ele>333.5</ele><time>2026-05-01T12:08:37.864Z</time></trkpt><trkpt lat="44.8870267" lon="9.5972133"><ele>334.0</ele><time>2026-05-01T12:08:38.864Z</time></trkpt><trkpt lat="44.8870433" lon="9.5970467"><ele>334.25</ele><time>2026-05-01T12:08:39.864Z</time></trkpt><trkpt lat="44.8870583" lon="9.5968783"><ele>334.5</ele><time>2026-05-01T12:08:40.864Z</time></trkpt><trkpt lat="44.88707" lon="9.5966917"><ele>334.75</ele><time>2026-05-01T12:08:41.864Z</time></trkpt><trkpt lat="44.8870733" lon="9.59651"><ele>335.0</ele><time>2026-05-01T12:08:42.864Z</time></trkpt><trkpt lat="44.887085" lon="9.5963267"><ele>336.0</ele><time>2026-05-01T12:08:43.864Z</time></trkpt><trkpt lat="44.8871" lon="9.59614"><ele>337.0</ele><time>2026-05-01T12:08:44.864Z</time></trkpt><trkpt lat="44.887115" lon="9.5959533"><ele>338.0</ele><time>2026-05-01T12:08:45.864Z</time></trkpt><trkpt lat="44.8871333" lon="9.5957783"><ele>339.0</ele><time>2026-05-01T12:08:46.864Z</time></trkpt><trkpt lat="44.8871517" lon="9.5956367"><ele>339.0</ele><time>2026-05-01T12:08:47.864Z</time></trkpt><trkpt lat="44.8871867" lon="9.5954733"><ele>339.0</ele><time>2026-05-01T12:08:48.864Z</time></trkpt><trkpt lat="44.8872467" lon="9.59532"><ele>339.0</ele><time>2026-05-01T12:08:49.864Z</time></trkpt><trkpt lat="44.8873283" lon="9.5951967"><ele>339.0</ele><time>2026-05-01T12:08:50.864Z</time></trkpt><trkpt lat="44.8874283" lon="9.5950833"><ele>338.75</ele><time>2026-05-01T12:08:51.864Z</time></trkpt><trkpt lat="44.88754" lon="9.5949817"><ele>338.5</ele><time>2026-05-01T12:08:52.864Z</time></trkpt><trkpt lat="44.88767" lon="9.594895"><ele>338.25</ele><time>2026-05-01T12:08:53.864Z</time></trkpt><trkpt lat="44.8877917" lon="9.5947983"><ele>338.0</ele><time>2026-05-01T12:08:54.864Z</time></trkpt><trkpt lat="44.8879233" lon="9.594695"><ele>338.0</ele><time>2026-05-01T12:08:55.864Z</time></trkpt><trkpt lat="44.888045" lon="9.59458"><ele>338.0</ele><time>2026-05-01T12:08:56.864Z</time></trkpt><trkpt lat="44.888175" lon="9.5944783"><ele>338.0</ele><time>2026-05-01T12:08:57.864Z</time></trkpt><trkpt lat="44.8883083" lon="9.5943883"><ele>338.0</ele><time>2026-05-01T12:08:58.865Z</time></trkpt><trkpt lat="44.8884467" lon="9.5943117"><ele>341.25</ele><time>2026-05-01T12:08:59.864Z</time></trkpt><trkpt lat="44.888575" lon="9.594245"><ele>344.5</ele><time>2026-05-01T12:09:00.864Z</time></trkpt><trkpt lat="44.8886917" lon="9.5942283"><ele>347.75</ele><time>2026-05-01T12:09:01.864Z</time></trkpt><trkpt lat="44.8888067" lon="9.5942667"><ele>351.0</ele><time>2026-05-01T12:09:02.864Z</time></trkpt><trkpt lat="44.88891" lon="9.5943383"><ele>351.0</ele><time>2026-05-01T12:09:03.864Z</time></trkpt><trkpt lat="44.8890117" lon="9.5944333"><ele>351.0</ele><time>2026-05-01T12:09:04.864Z</time></trkpt><trkpt lat="44.8891217" lon="9.5945217"><ele>351.0</ele><time>2026-05-01T12:09:05.864Z</time></trkpt><trkpt lat="44.88922" lon="9.594615"><ele>351.0</ele><time>2026-05-01T12:09:06.864Z</time></trkpt><trkpt lat="44.8893267" lon="9.5947117"><ele>351.75</ele><time>2026-05-01T12:09:07.864Z</time></trkpt><trkpt lat="44.8894317" lon="9.5948083"><ele>352.5</ele><time>2026-05-01T12:09:08.865Z</time></trkpt><trkpt lat="44.8895367" lon="9.5949033"><ele>353.25</ele><time>2026-05-01T12:09:09.864Z</time></trkpt><trkpt lat="44.8896517" lon="9.594985"><ele>354.0</ele><time>2026-05-01T12:09:10.864Z</time></trkpt><trkpt lat="44.8897733" lon="9.595075"><ele>354.0</ele><time>2026-05-01T12:09:11.864Z</time></trkpt><trkpt lat="44.8898983" lon="9.595175"><ele>354.0</ele><time>2026-05-01T12:09:12.864Z</time></trkpt><trkpt lat="44.8900167" lon="9.5952767"><ele>354.0</ele><time>2026-05-01T12:09:13.864Z</time></trkpt><trkpt lat="44.89013" lon="9.595405"><ele>354.0</ele><time>2026-05-01T12:09:14.865Z</time></trkpt><trkpt lat="44.890235" lon="9.5955333"><ele>353.75</ele><time>2026-05-01T12:09:15.864Z</time></trkpt><trkpt lat="44.8903367" lon="9.59566"><ele>353.5</ele><time>2026-05-01T12:09:16.864Z</time></trkpt><trkpt lat="44.8904333" lon="9.595785"><ele>353.25</ele><time>2026-05-01T12:09:17.864Z</time></trkpt><trkpt lat="44.8905183" lon="9.5958917"><ele>353.0</ele><time>2026-05-01T12:09:18.864Z</time></trkpt><trkpt lat="44.8905983" lon="9.59599"><ele>353.0</ele><time>2026-05-01T12:09:19.864Z</time></trkpt><trkpt lat="44.89066" lon="9.5960917"><ele>353.0</ele><time>2026-05-01T12:09:20.864Z</time></trkpt><trkpt lat="44.8907167" lon="9.5962"><ele>353.0</ele><time>2026-05-01T12:09:21.865Z</time></trkpt><trkpt lat="44.8907767" lon="9.5962967"><ele>353.0</ele><time>2026-05-01T12:09:22.864Z</time></trkpt><trkpt lat="44.8908417" lon="9.5963833"><ele>353.0</ele><time>2026-05-01T12:09:23.864Z</time></trkpt><trkpt lat="44.8909083" lon="9.596475"><ele>352.83333333333337</ele><time>2026-05-01T12:09:24.864Z</time></trkpt><trkpt lat="44.8909683" lon="9.596565"><ele>352.6666666666667</ele><time>2026-05-01T12:09:25.864Z</time></trkpt><trkpt lat="44.89102" lon="9.5966533"><ele>352.5</ele><time>2026-05-01T12:09:26.864Z</time></trkpt><trkpt lat="44.891075" lon="9.5967367"><ele>352.3333333333333</ele><time>2026-05-01T12:09:27.864Z</time></trkpt><trkpt lat="44.8911267" lon="9.59682"><ele>352.16666666666663</ele><time>2026-05-01T12:09:28.864Z</time></trkpt><trkpt lat="44.891175" lon="9.5969017"><ele>352.0</ele><time>2026-05-01T12:09:29.864Z</time></trkpt><trkpt lat="44.8912133" lon="9.5969917"><ele>350.5</ele><time>2026-05-01T12:09:30.864Z</time></trkpt><trkpt lat="44.8912533" lon="9.59708"><ele>349.0</ele><time>2026-05-01T12:09:31.864Z</time></trkpt><trkpt lat="44.89129" lon="9.597165"><ele>347.5</ele><time>2026-05-01T12:09:32.864Z</time></trkpt><trkpt lat="44.8913167" lon="9.597255"><ele>346.0</ele><time>2026-05-01T12:09:33.864Z</time></trkpt><trkpt lat="44.891335" lon="9.59736"><ele>344.5</ele><time>2026-05-01T12:09:34.864Z</time></trkpt><trkpt lat="44.8913517" lon="9.5974783"><ele>343.0</ele><time>2026-05-01T12:09:35.864Z</time></trkpt><trkpt lat="44.8913717" lon="9.59761"><ele>343.0</ele><time>2026-05-01T12:09:36.864Z</time></trkpt><trkpt lat="44.8913917" lon="9.5977483"><ele>343.0</ele><time>2026-05-01T12:09:37.864Z</time></trkpt><trkpt lat="44.8914133" lon="9.5978833"><ele>343.0</ele><time>2026-05-01T12:09:38.864Z</time></trkpt><trkpt lat="44.8914333" lon="9.598015"><ele>343.0</ele><time>2026-05-01T12:09:39.864Z</time></trkpt><trkpt lat="44.8914583" lon="9.5981433"><ele>343.0</ele><time>2026-05-01T12:09:40.864Z</time></trkpt><trkpt lat="44.8914883" lon="9.5982667"><ele>341.66666666666663</ele><time>2026-05-01T12:09:41.864Z</time></trkpt><trkpt lat="44.8915233" lon="9.5983867"><ele>340.3333333333333</ele><time>2026-05-01T12:09:42.864Z</time></trkpt><trkpt lat="44.8915567" lon="9.5985"><ele>339.0</ele><time>2026-05-01T12:09:43.864Z</time></trkpt><trkpt lat="44.8915933" lon="9.5986117"><ele>337.6666666666667</ele><time>2026-05-01T12:09:44.864Z</time></trkpt><trkpt lat="44.8916333" lon="9.598715"><ele>336.33333333333337</ele><time>2026-05-01T12:09:45.864Z</time></trkpt><trkpt lat="44.8916733" lon="9.5988117"><ele>335.0</ele><time>2026-05-01T12:09:46.864Z</time></trkpt><trkpt lat="44.8917183" lon="9.598905"><ele>333.83333333333337</ele><time>2026-05-01T12:09:47.864Z</time></trkpt><trkpt lat="44.8917633" lon="9.5989883"><ele>332.6666666666667</ele><time>2026-05-01T12:09:48.864Z</time></trkpt><trkpt lat="44.8917983" lon="9.5990717"><ele>331.5</ele><time>2026-05-01T12:09:49.864Z</time></trkpt><trkpt lat="44.8918367" lon="9.5991633"><ele>330.3333333333333</ele><time>2026-05-01T12:09:50.865Z</time></trkpt><trkpt lat="44.89189" lon="9.59926"><ele>329.16666666666663</ele><time>2026-05-01T12:09:51.864Z</time></trkpt><trkpt lat="44.8919433" lon="9.599375"><ele>328.0</ele><time>2026-05-01T12:09:52.864Z</time></trkpt><trkpt lat="44.8919967" lon="9.5995017"><ele>326.4</ele><time>2026-05-01T12:09:53.864Z</time></trkpt><trkpt lat="44.892055" lon="9.5996017"><ele>324.79999999999995</ele><time>2026-05-01T12:09:54.864Z</time></trkpt><trkpt lat="44.8921167" lon="9.599715"><ele>323.2</ele><time>2026-05-01T12:09:55.864Z</time></trkpt><trkpt lat="44.8921833" lon="9.5998267"><ele>321.6</ele><time>2026-05-01T12:09:56.864Z</time></trkpt><trkpt lat="44.8922583" lon="9.5999383"><ele>320.0</ele><time>2026-05-01T12:09:57.864Z</time></trkpt><trkpt lat="44.8923517" lon="9.6000367"><ele>320.0</ele><time>2026-05-01T12:09:58.864Z</time></trkpt><trkpt lat="44.892445" lon="9.6001217"><ele>320.0</ele><time>2026-05-01T12:09:59.864Z</time></trkpt><trkpt lat="44.8925367" lon="9.6002"><ele>320.0</ele><time>2026-05-01T12:10:00.865Z</time></trkpt><trkpt lat="44.8926317" lon="9.600265"><ele>320.0</ele><time>2026-05-01T12:10:01.864Z</time></trkpt><trkpt lat="44.89273" lon="9.6003333"><ele>320.0</ele><time>2026-05-01T12:10:02.864Z</time></trkpt><trkpt lat="44.89282" lon="9.6003933"><ele>318.5</ele><time>2026-05-01T12:10:03.864Z</time></trkpt><trkpt lat="44.8929" lon="9.60044"><ele>317.0</ele><time>2026-05-01T12:10:04.864Z</time></trkpt><trkpt lat="44.8929717" lon="9.6004833"><ele>315.5</ele><time>2026-05-01T12:10:05.864Z</time></trkpt><trkpt lat="44.8930367" lon="9.60053"><ele>314.0</ele><time>2026-05-01T12:10:06.864Z</time></trkpt><trkpt lat="44.893095" lon="9.6005683"><ele>312.5</ele><time>2026-05-01T12:10:07.864Z</time></trkpt><trkpt lat="44.893175" lon="9.6005967"><ele>311.0</ele><time>2026-05-01T12:10:09.864Z</time></trkpt><trkpt lat="44.8931733" lon="9.6004933"><ele>311.0</ele><time>2026-05-01T12:10:12.864Z</time></trkpt><trkpt lat="44.8931183" lon="9.6003583"><ele>311.0</ele><time>2026-05-01T12:10:14.864Z</time></trkpt><trkpt lat="44.8930917" lon="9.6002767"><ele>311.0</ele><time>2026-05-01T12:10:15.864Z</time></trkpt><trkpt lat="44.8930817" lon="9.60014"><ele>311.0</ele><time>2026-05-01T12:10:17.864Z</time></trkpt><trkpt lat="44.8931583" lon="9.6000367"><ele>311.0</ele><time>2026-05-01T12:10:19.864Z</time></trkpt><trkpt lat="44.8932233" lon="9.5999733"><ele>311.2</ele><time>2026-05-01T12:10:20.864Z</time></trkpt><trkpt lat="44.8933" lon="9.5998967"><ele>311.40000000000003</ele><time>2026-05-01T12:10:21.864Z</time></trkpt><trkpt lat="44.89338" lon="9.59981"><ele>311.6</ele><time>2026-05-01T12:10:22.864Z</time></trkpt><trkpt lat="44.893455" lon="9.5997233"><ele>311.8</ele><time>2026-05-01T12:10:23.864Z</time></trkpt><trkpt lat="44.8935317" lon="9.59964"><ele>312.0</ele><time>2026-05-01T12:10:24.864Z</time></trkpt><trkpt lat="44.8936067" lon="9.5995533"><ele>311.2</ele><time>2026-05-01T12:10:25.864Z</time></trkpt><trkpt lat="44.8936817" lon="9.59946"><ele>310.4</ele><time>2026-05-01T12:10:26.864Z</time></trkpt><trkpt lat="44.8937583" lon="9.5993517"><ele>309.6</ele><time>2026-05-01T12:10:27.864Z</time></trkpt><trkpt lat="44.8938283" lon="9.59924"><ele>308.8</ele><time>2026-05-01T12:10:28.864Z</time></trkpt><trkpt lat="44.8938983" lon="9.5991267"><ele>308.0</ele><time>2026-05-01T12:10:29.864Z</time></trkpt><trkpt lat="44.8939683" lon="9.59902"><ele>308.0</ele><time>2026-05-01T12:10:30.864Z</time></trkpt><trkpt lat="44.8940367" lon="9.5989217"><ele>308.0</ele><time>2026-05-01T12:10:31.864Z</time></trkpt><trkpt lat="44.8940967" lon="9.5988283"><ele>308.0</ele><time>2026-05-01T12:10:32.864Z</time></trkpt><trkpt lat="44.89415" lon="9.59874"><ele>308.0</ele><time>2026-05-01T12:10:33.864Z</time></trkpt><trkpt lat="44.8942" lon="9.59865"><ele>308.0</ele><time>2026-05-01T12:10:34.865Z</time></trkpt><trkpt lat="44.8942483" lon="9.5985583"><ele>308.0</ele><time>2026-05-01T12:10:35.864Z</time></trkpt><trkpt lat="44.8942917" lon="9.5984633"><ele>307.1666666666667</ele><time>2026-05-01T12:10:36.864Z</time></trkpt><trkpt lat="44.894325" lon="9.5983717"><ele>306.33333333333337</ele><time>2026-05-01T12:10:37.864Z</time></trkpt><trkpt lat="44.8943483" lon="9.598275"><ele>305.5</ele><time>2026-05-01T12:10:38.865Z</time></trkpt><trkpt lat="44.8943717" lon="9.5981733"><ele>304.6666666666667</ele><time>2026-05-01T12:10:39.864Z</time></trkpt><trkpt lat="44.89439" lon="9.5980633"><ele>303.8333333333333</ele><time>2026-05-01T12:10:40.864Z</time></trkpt><trkpt lat="44.894405" lon="9.5979417"><ele>303.0</ele><time>2026-05-01T12:10:41.864Z</time></trkpt><trkpt lat="44.894415" lon="9.5978167"><ele>302.8333333333333</ele><time>2026-05-01T12:10:42.864Z</time></trkpt><trkpt lat="44.8944317" lon="9.5976933"><ele>302.6666666666667</ele><time>2026-05-01T12:10:43.864Z</time></trkpt><trkpt lat="44.8944433" lon="9.5975733"><ele>302.5</ele><time>2026-05-01T12:10:44.864Z</time></trkpt><trkpt lat="44.89445" lon="9.597445"><ele>302.33333333333337</ele><time>2026-05-01T12:10:45.864Z</time></trkpt><trkpt lat="44.894445" lon="9.5973417"><ele>302.1666666666667</ele><time>2026-05-01T12:10:46.864Z</time></trkpt><trkpt lat="44.8944417" lon="9.597225"><ele>302.0</ele><time>2026-05-01T12:10:47.864Z</time></trkpt><trkpt lat="44.89444" lon="9.5971017"><ele>301.8</ele><time>2026-05-01T12:10:48.864Z</time></trkpt><trkpt lat="44.8944367" lon="9.5969683"><ele>301.6</ele><time>2026-05-01T12:10:49.864Z</time></trkpt><trkpt lat="44.8944333" lon="9.59684"><ele>301.40000000000003</ele><time>2026-05-01T12:10:50.864Z</time></trkpt><trkpt lat="44.894425" lon="9.5967033"><ele>301.2</ele><time>2026-05-01T12:10:51.864Z</time></trkpt><trkpt lat="44.894425" lon="9.5965783"><ele>301.0</ele><time>2026-05-01T12:10:52.864Z</time></trkpt><trkpt lat="44.89443" lon="9.5964583"><ele>301.0</ele><time>2026-05-01T12:10:53.865Z</time></trkpt><trkpt lat="44.894435" lon="9.5963467"><ele>301.0</ele><time>2026-05-01T12:10:54.864Z</time></trkpt><trkpt lat="44.894435" lon="9.5962317"><ele>301.0</ele><time>2026-05-01T12:10:55.864Z</time></trkpt><trkpt lat="44.8944317" lon="9.5961183"><ele>301.0</ele><time>2026-05-01T12:10:56.864Z</time></trkpt><trkpt lat="44.8944083" lon="9.5959917"><ele>301.0</ele><time>2026-05-01T12:10:57.864Z</time></trkpt><trkpt lat="44.8943733" lon="9.5958633"><ele>301.0</ele><time>2026-05-01T12:10:58.864Z</time></trkpt><trkpt lat="44.8943367" lon="9.5957467"><ele>301.0</ele><time>2026-05-01T12:10:59.864Z</time></trkpt><trkpt lat="44.894295" lon="9.5956317"><ele>301.0</ele><time>2026-05-01T12:11:00.864Z</time></trkpt><trkpt lat="44.894255" lon="9.59552"><ele>301.0</ele><time>2026-05-01T12:11:01.864Z</time></trkpt><trkpt lat="44.8942383" lon="9.5954267"><ele>301.0</ele><time>2026-05-01T12:11:02.864Z</time></trkpt><trkpt lat="44.89426" lon="9.5952667"><ele>301.0</ele><time>2026-05-01T12:11:04.864Z</time></trkpt><trkpt lat="44.8942967" lon="9.5951933"><ele>301.0</ele><time>2026-05-01T12:11:05.864Z</time></trkpt><trkpt lat="44.8943317" lon="9.5951117"><ele>301.5</ele><time>2026-05-01T12:11:06.864Z</time></trkpt><trkpt lat="44.8943683" lon="9.5950317"><ele>302.0</ele><time>2026-05-01T12:11:07.864Z</time></trkpt><trkpt lat="44.8944117" lon="9.5949433"><ele>302.5</ele><time>2026-05-01T12:11:08.864Z</time></trkpt><trkpt lat="44.89445" lon="9.5948433"><ele>303.0</ele><time>2026-05-01T12:11:09.864Z</time></trkpt><trkpt lat="44.8944767" lon="9.59475"><ele>303.5</ele><time>2026-05-01T12:11:10.864Z</time></trkpt><trkpt lat="44.894505" lon="9.5946633"><ele>304.0</ele><time>2026-05-01T12:11:11.865Z</time></trkpt><trkpt lat="44.8945717" lon="9.594555"><ele>304.0</ele><time>2026-05-01T12:11:13.864Z</time></trkpt><trkpt lat="44.8946683" lon="9.5945"><ele>304.0</ele><time>2026-05-01T12:11:15.864Z</time></trkpt><trkpt lat="44.8947883" lon="9.59453"><ele>304.0</ele><time>2026-05-01T12:11:17.864Z</time></trkpt><trkpt lat="44.8948583" lon="9.594555"><ele>304.0</ele><time>2026-05-01T12:11:18.864Z</time></trkpt><trkpt lat="44.894925" lon="9.5945833"><ele>304.0</ele><time>2026-05-01T12:11:19.864Z</time></trkpt><trkpt lat="44.8949867" lon="9.59461"><ele>304.0</ele><time>2026-05-01T12:11:20.865Z</time></trkpt><trkpt lat="44.8950617" lon="9.5946467"><ele>303.5</ele><time>2026-05-01T12:11:21.864Z</time></trkpt><trkpt lat="44.8951417" lon="9.5946817"><ele>303.0</ele><time>2026-05-01T12:11:22.864Z</time></trkpt><trkpt lat="44.8952217" lon="9.5947133"><ele>302.5</ele><time>2026-05-01T12:11:23.864Z</time></trkpt><trkpt lat="44.8953067" lon="9.594745"><ele>302.0</ele><time>2026-05-01T12:11:24.864Z</time></trkpt><trkpt lat="44.895385" lon="9.5947667"><ele>301.5</ele><time>2026-05-01T12:11:25.865Z</time></trkpt><trkpt lat="44.8954683" lon="9.5947733"><ele>301.0</ele><time>2026-05-01T12:11:26.864Z</time></trkpt><trkpt lat="44.8955483" lon="9.59477"><ele>301.0</ele><time>2026-05-01T12:11:27.864Z</time></trkpt><trkpt lat="44.8956217" lon="9.5947617"><ele>301.0</ele><time>2026-05-01T12:11:28.864Z</time></trkpt><trkpt lat="44.8956967" lon="9.594765"><ele>301.0</ele><time>2026-05-01T12:11:29.864Z</time></trkpt><trkpt lat="44.89576" lon="9.5948017"><ele>301.0</ele><time>2026-05-01T12:11:30.864Z</time></trkpt><trkpt lat="44.89581" lon="9.594875"><ele>301.0</ele><time>2026-05-01T12:11:31.864Z</time></trkpt><trkpt lat="44.8958483" lon="9.594975"><ele>301.0</ele><time>2026-05-01T12:11:32.864Z</time></trkpt><trkpt lat="44.89588" lon="9.5950733"><ele>301.0</ele><time>2026-05-01T12:11:33.864Z</time></trkpt><trkpt lat="44.8959067" lon="9.59516"><ele>300.3333333333333</ele><time>2026-05-01T12:11:34.864Z</time></trkpt><trkpt lat="44.8959817" lon="9.5952867"><ele>299.66666666666663</ele><time>2026-05-01T12:11:36.865Z</time></trkpt><trkpt lat="44.8960383" lon="9.595345"><ele>299.0</ele><time>2026-05-01T12:11:37.864Z</time></trkpt><trkpt lat="44.8961017" lon="9.5954017"><ele>298.3333333333333</ele><time>2026-05-01T12:11:38.864Z</time></trkpt><trkpt lat="44.8961667" lon="9.5954417"><ele>297.6666666666667</ele><time>2026-05-01T12:11:39.864Z</time></trkpt><trkpt lat="44.8962283" lon="9.595495"><ele>297.0</ele><time>2026-05-01T12:11:40.864Z</time></trkpt><trkpt lat="44.8962883" lon="9.5955583"><ele>297.0</ele><time>2026-05-01T12:11:41.864Z</time></trkpt><trkpt lat="44.896345" lon="9.5956233"><ele>297.0</ele><time>2026-05-01T12:11:42.864Z</time></trkpt><trkpt lat="44.896455" lon="9.5957067"><ele>297.0</ele><time>2026-05-01T12:11:44.864Z</time></trkpt><trkpt lat="44.8965183" lon="9.5957283"><ele>297.0</ele><time>2026-05-01T12:11:45.864Z</time></trkpt><trkpt lat="44.8965833" lon="9.5957517"><ele>297.0</ele><time>2026-05-01T12:11:46.864Z</time></trkpt><trkpt lat="44.8966767" lon="9.5957967"><ele>297.0</ele><time>2026-05-01T12:11:48.864Z</time></trkpt><trkpt lat="44.8967167" lon="9.5958867"><ele>295.4</ele><time>2026-05-01T12:11:50.864Z</time></trkpt><trkpt lat="44.8967917" lon="9.5959967"><ele>293.79999999999995</ele><time>2026-05-01T12:11:52.864Z</time></trkpt><trkpt lat="44.8968833" lon="9.5960717"><ele>292.2</ele><time>2026-05-01T12:11:54.864Z</time></trkpt><trkpt lat="44.896985" lon="9.59611"><ele>290.59999999999997</ele><time>2026-05-01T12:11:56.864Z</time></trkpt><trkpt lat="44.8970733" lon="9.5961617"><ele>289.0</ele><time>2026-05-01T12:11:58.864Z</time></trkpt><trkpt lat="44.8971067" lon="9.596245"><ele>288.66666666666663</ele><time>2026-05-01T12:12:00.864Z</time></trkpt><trkpt lat="44.8971667" lon="9.5963667"><ele>288.3333333333333</ele><time>2026-05-01T12:12:03.864Z</time></trkpt><trkpt lat="44.8972333" lon="9.5964267"><ele>288.0</ele><time>2026-05-01T12:12:04.864Z</time></trkpt><trkpt lat="44.8973067" lon="9.596475"><ele>287.6666666666667</ele><time>2026-05-01T12:12:05.864Z</time></trkpt><trkpt lat="44.8973767" lon="9.5965217"><ele>287.33333333333337</ele><time>2026-05-01T12:12:06.864Z</time></trkpt><trkpt lat="44.8974467" lon="9.596565"><ele>287.0</ele><time>2026-05-01T12:12:07.864Z</time></trkpt><trkpt lat="44.8975067" lon="9.5966017"><ele>285.6</ele><time>2026-05-01T12:12:08.864Z</time></trkpt><trkpt lat="44.8976117" lon="9.596655"><ele>284.2</ele><time>2026-05-01T12:12:10.864Z</time></trkpt><trkpt lat="44.8977117" lon="9.5966967"><ele>282.8</ele><time>2026-05-01T12:12:12.864Z</time></trkpt><trkpt lat="44.8978217" lon="9.5966867"><ele>281.4</ele><time>2026-05-01T12:12:14.864Z</time></trkpt><trkpt lat="44.897885" lon="9.596675"><ele>280.0</ele><time>2026-05-01T12:12:15.864Z</time></trkpt><trkpt lat="44.8979567" lon="9.5966483"><ele>280.0</ele><time>2026-05-01T12:12:16.864Z</time></trkpt><trkpt lat="44.8980467" lon="9.5966317"><ele>280.0</ele><time>2026-05-01T12:12:17.864Z</time></trkpt><trkpt lat="44.8981317" lon="9.5966167"><ele>280.0</ele><time>2026-05-01T12:12:18.864Z</time></trkpt><trkpt lat="44.8982183" lon="9.5966"><ele>280.0</ele><time>2026-05-01T12:12:19.864Z</time></trkpt><trkpt lat="44.8983067" lon="9.5965817"><ele>280.0</ele><time>2026-05-01T12:12:20.864Z</time></trkpt><trkpt lat="44.898395" lon="9.5965733"><ele>280.0</ele><time>2026-05-01T12:12:21.864Z</time></trkpt><trkpt lat="44.8984783" lon="9.5965533"><ele>279.5</ele><time>2026-05-01T12:12:22.864Z</time></trkpt><trkpt lat="44.8985683" lon="9.596545"><ele>279.0</ele><time>2026-05-01T12:12:23.864Z</time></trkpt><trkpt lat="44.89865" lon="9.59654"><ele>278.5</ele><time>2026-05-01T12:12:24.864Z</time></trkpt><trkpt lat="44.8987333" lon="9.5965417"><ele>278.0</ele><time>2026-05-01T12:12:25.864Z</time></trkpt><trkpt lat="44.8988167" lon="9.5965567"><ele>277.5</ele><time>2026-05-01T12:12:26.864Z</time></trkpt><trkpt lat="44.8989033" lon="9.5965633"><ele>277.0</ele><time>2026-05-01T12:12:27.864Z</time></trkpt><trkpt lat="44.8989883" lon="9.596555"><ele>277.0</ele><time>2026-05-01T12:12:28.864Z</time></trkpt><trkpt lat="44.89906" lon="9.596545"><ele>277.0</ele><time>2026-05-01T12:12:29.864Z</time></trkpt><trkpt lat="44.8991567" lon="9.5965267"><ele>277.0</ele><time>2026-05-01T12:12:31.864Z</time></trkpt><trkpt lat="44.89923" lon="9.5965367"><ele>277.0</ele><time>2026-05-01T12:12:33.865Z</time></trkpt><trkpt lat="44.89934" lon="9.5965217"><ele>277.0</ele><time>2026-05-01T12:12:35.864Z</time></trkpt><trkpt lat="44.899405" lon="9.5965033"><ele>277.0</ele><time>2026-05-01T12:12:36.864Z</time></trkpt><trkpt lat="44.89947" lon="9.59649"><ele>276.0</ele><time>2026-05-01T12:12:37.864Z</time></trkpt><trkpt lat="44.89957" lon="9.596485"><ele>275.0</ele><time>2026-05-01T12:12:39.864Z</time></trkpt><trkpt lat="44.89964" lon="9.5965283"><ele>274.0</ele><time>2026-05-01T12:12:41.864Z</time></trkpt><trkpt lat="44.899705" lon="9.5966383"><ele>273.0</ele><time>2026-05-01T12:12:43.864Z</time></trkpt><trkpt lat="44.8997333" lon="9.59672"><ele>272.0</ele><time>2026-05-01T12:12:44.864Z</time></trkpt><trkpt lat="44.899785" lon="9.5968633"><ele>272.0</ele><time>2026-05-01T12:12:46.864Z</time></trkpt><trkpt lat="44.8998483" lon="9.596955"><ele>272.0</ele><time>2026-05-01T12:12:48.864Z</time></trkpt><trkpt lat="44.8999367" lon="9.5970167"><ele>272.0</ele><time>2026-05-01T12:12:50.865Z</time></trkpt><trkpt lat="44.9000317" lon="9.5970783"><ele>272.0</ele><time>2026-05-01T12:12:52.864Z</time></trkpt><trkpt lat="44.9001417" lon="9.5971333"><ele>272.0</ele><time>2026-05-01T12:12:54.864Z</time></trkpt><trkpt lat="44.9002533" lon="9.597175"><ele>270.0</ele><time>2026-05-01T12:12:56.864Z</time></trkpt><trkpt lat="44.90035" lon="9.5972117"><ele>268.0</ele><time>2026-05-01T12:12:58.864Z</time></trkpt><trkpt lat="44.9004667" lon="9.59722"><ele>266.0</ele><time>2026-05-01T12:13:00.864Z</time></trkpt><trkpt lat="44.9005617" lon="9.59724"><ele>264.0</ele><time>2026-05-01T12:13:02.865Z</time></trkpt><trkpt lat="44.9006783" lon="9.5973033"><ele>262.0</ele><time>2026-05-01T12:13:04.865Z</time></trkpt><trkpt lat="44.9007417" lon="9.5973467"><ele>262.0</ele><time>2026-05-01T12:13:05.864Z</time></trkpt><trkpt lat="44.9008017" lon="9.59739"><ele>262.0</ele><time>2026-05-01T12:13:06.864Z</time></trkpt><trkpt lat="44.9008617" lon="9.5974317"><ele>262.0</ele><time>2026-05-01T12:13:07.864Z</time></trkpt><trkpt lat="44.9009717" lon="9.597505"><ele>262.0</ele><time>2026-05-01T12:13:09.864Z</time></trkpt><trkpt lat="44.9010867" lon="9.597585"><ele>262.0</ele><time>2026-05-01T12:13:11.864Z</time></trkpt><trkpt lat="44.9011417" lon="9.597655"><ele>261.5</ele><time>2026-05-01T12:13:12.864Z</time></trkpt><trkpt lat="44.90119" lon="9.59773"><ele>261.0</ele><time>2026-05-01T12:13:13.864Z</time></trkpt><trkpt lat="44.9012433" lon="9.5978233"><ele>260.5</ele><time>2026-05-01T12:13:14.864Z</time></trkpt><trkpt lat="44.90129" lon="9.5979117"><ele>260.0</ele><time>2026-05-01T12:13:15.864Z</time></trkpt><trkpt lat="44.90132" lon="9.5979917"><ele>259.5</ele><time>2026-05-01T12:13:16.864Z</time></trkpt><trkpt lat="44.9013883" lon="9.59814"><ele>259.0</ele><time>2026-05-01T12:13:18.864Z</time></trkpt><trkpt lat="44.9014833" lon="9.5983033"><ele>258.0</ele><time>2026-05-01T12:13:20.864Z</time></trkpt><trkpt lat="44.90152" lon="9.598385"><ele>257.0</ele><time>2026-05-01T12:13:21.864Z</time></trkpt><trkpt lat="44.9015583" lon="9.5984617"><ele>256.0</ele><time>2026-05-01T12:13:22.864Z</time></trkpt><trkpt lat="44.90162" lon="9.5985817"><ele>255.0</ele><time>2026-05-01T12:13:24.864Z</time></trkpt><trkpt lat="44.901665" lon="9.5986833"><ele>253.99999999999997</ele><time>2026-05-01T12:13:26.864Z</time></trkpt><trkpt lat="44.9017317" lon="9.5987883"><ele>253.0</ele><time>2026-05-01T12:13:28.864Z</time></trkpt><trkpt lat="44.90179" lon="9.5988833"><ele>252.16666666666666</ele><time>2026-05-01T12:13:30.864Z</time></trkpt><trkpt lat="44.90185" lon="9.598975"><ele>251.33333333333331</ele><time>2026-05-01T12:13:32.864Z</time></trkpt><trkpt lat="44.9019067" lon="9.599075"><ele>250.5</ele><time>2026-05-01T12:13:35.864Z</time></trkpt><trkpt lat="44.90194" lon="9.599165"><ele>249.66666666666669</ele><time>2026-05-01T12:13:37.864Z</time></trkpt><trkpt lat="44.9019367" lon="9.5992717"><ele>248.83333333333334</ele><time>2026-05-01T12:13:40.864Z</time></trkpt><trkpt lat="44.9018983" lon="9.59938"><ele>248.0</ele><time>2026-05-01T12:13:43.864Z</time></trkpt><trkpt lat="44.9018633" lon="9.5994583"><ele>246.60000000000002</ele><time>2026-05-01T12:13:46.864Z</time></trkpt><trkpt lat="44.9018767" lon="9.599675"><ele>245.20000000000002</ele><time>2026-05-01T12:14:01.864Z</time></trkpt><trkpt lat="44.9019183" lon="9.599765"><ele>243.8</ele><time>2026-05-01T12:14:03.864Z</time></trkpt><trkpt lat="44.9019517" lon="9.5998417"><ele>242.4</ele><time>2026-05-01T12:14:05.864Z</time></trkpt><trkpt lat="44.902005" lon="9.5999267"><ele>241.0</ele><time>2026-05-01T12:14:08.864Z</time></trkpt><trkpt lat="44.902035" lon="9.6000567"><ele>241.0</ele><time>2026-05-01T12:14:11.864Z</time></trkpt><trkpt lat="44.9020217" lon="9.6001917"><ele>241.00000000000003</ele><time>2026-05-01T12:14:15.864Z</time></trkpt><trkpt lat="44.9020033" lon="9.60035"><ele>241.00000000000003</ele><time>2026-05-01T12:14:18.864Z</time></trkpt><trkpt lat="44.90199" lon="9.6004383"><ele>241.0</ele><time>2026-05-01T12:14:20.864Z</time></trkpt><trkpt lat="44.9020533" lon="9.6005733"><ele>241.0</ele><time>2026-05-01T12:14:24.864Z</time></trkpt><trkpt lat="44.9021017" lon="9.60064"><ele>240.49999999999997</ele><time>2026-05-01T12:14:26.864Z</time></trkpt><trkpt lat="44.902175" lon="9.6007617"><ele>240.0</ele><time>2026-05-01T12:14:34.865Z</time></trkpt><trkpt lat="44.9022133" lon="9.6008383"><ele>239.5</ele><time>2026-05-01T12:14:37.864Z</time></trkpt><trkpt lat="44.902255" lon="9.6009367"><ele>239.0</ele><time>2026-05-01T12:14:40.864Z</time></trkpt><trkpt lat="44.9023133" lon="9.6010367"><ele>238.49999999999997</ele><time>2026-05-01T12:14:43.864Z</time></trkpt><trkpt lat="44.902335" lon="9.6011317"><ele>238.0</ele><time>2026-05-01T12:14:46.864Z</time></trkpt><trkpt lat="44.9024" lon="9.60122"><ele>236.99999999999997</ele><time>2026-05-01T12:14:49.864Z</time></trkpt><trkpt lat="44.9024683" lon="9.6012983"><ele>236.0</ele><time>2026-05-01T12:14:51.864Z</time></trkpt><trkpt lat="44.9025217" lon="9.6013567"><ele>235.0</ele><time>2026-05-01T12:14:53.864Z</time></trkpt><trkpt lat="44.9026067" lon="9.6014367"><ele>234.0</ele><time>2026-05-01T12:14:56.864Z</time></trkpt><trkpt lat="44.9026683" lon="9.6014983"><ele>232.99999999999997</ele><time>2026-05-01T12:14:58.865Z</time></trkpt><trkpt lat="44.9027417" lon="9.6015567"><ele>232.0</ele><time>2026-05-01T12:15:00.864Z</time></trkpt><trkpt lat="44.9027967" lon="9.6016283"><ele>232.0</ele><time>2026-05-01T12:15:03.864Z</time></trkpt><trkpt lat="44.90283" lon="9.60173"><ele>232.0</ele><time>2026-05-01T12:15:05.864Z</time></trkpt><trkpt lat="44.90278" lon="9.6019067"><ele>232.0</ele><time>2026-05-01T12:15:06.864Z</time></trkpt><trkpt lat="44.9028367" lon="9.6019933"><ele>232.0</ele><time>2026-05-01T12:15:08.865Z</time></trkpt><trkpt lat="44.9029383" lon="9.6020883"><ele>232.0</ele><time>2026-05-01T12:15:10.864Z</time></trkpt><trkpt lat="44.9030183" lon="9.6021583"><ele>231.33333333333331</ele><time>2026-05-01T12:15:12.864Z</time></trkpt><trkpt lat="44.9030917" lon="9.6022367"><ele>230.66666666666666</ele><time>2026-05-01T12:15:13.864Z</time></trkpt><trkpt lat="44.9031467" lon="9.6023033"><ele>230.0</ele><time>2026-05-01T12:15:14.864Z</time></trkpt><trkpt lat="44.9032217" lon="9.602395"><ele>229.33333333333331</ele><time>2026-05-01T12:15:16.864Z</time></trkpt><trkpt lat="44.9032867" lon="9.602425"><ele>228.66666666666666</ele><time>2026-05-01T12:15:18.864Z</time></trkpt><trkpt lat="44.9033717" lon="9.6024683"><ele>228.0</ele><time>2026-05-01T12:15:20.865Z</time></trkpt><trkpt lat="44.9034383" lon="9.6025283"><ele>228.0</ele><time>2026-05-01T12:15:22.864Z</time></trkpt><trkpt lat="44.9035083" lon="9.6025567"><ele>228.0</ele><time>2026-05-01T12:15:24.864Z</time></trkpt><trkpt lat="44.9036133" lon="9.6026383"><ele>228.0</ele><time>2026-05-01T12:15:27.864Z</time></trkpt><trkpt lat="44.9036667" lon="9.60273"><ele>228.0</ele><time>2026-05-01T12:15:29.865Z</time></trkpt><trkpt lat="44.9036983" lon="9.6028383"><ele>228.0</ele><time>2026-05-01T12:15:32.864Z</time></trkpt><trkpt lat="44.9037433" lon="9.6029183"><ele>228.0</ele><time>2026-05-01T12:15:35.864Z</time></trkpt><trkpt lat="44.9037533" lon="9.6030083"><ele>230.4</ele><time>2026-05-01T12:15:40.864Z</time></trkpt><trkpt lat="44.903765" lon="9.60312"><ele>232.8</ele><time>2026-05-01T12:15:43.864Z</time></trkpt><trkpt lat="44.903845" lon="9.6033083"><ele>235.2</ele><time>2026-05-01T12:15:50.864Z</time></trkpt><trkpt lat="44.9038883" lon="9.603385"><ele>237.6</ele><time>2026-05-01T12:15:54.864Z</time></trkpt><trkpt lat="44.9039533" lon="9.6034933"><ele>240.0</ele><time>2026-05-01T12:15:57.864Z</time></trkpt><trkpt lat="44.9040017" lon="9.6035733"><ele>240.0</ele><time>2026-05-01T12:16:01.864Z</time></trkpt><trkpt lat="44.9040317" lon="9.6036567"><ele>240.0</ele><time>2026-05-01T12:16:04.864Z</time></trkpt><trkpt lat="44.904065" lon="9.603735"><ele>240.0</ele><time>2026-05-01T12:16:07.864Z</time></trkpt><trkpt lat="44.9040933" lon="9.6038283"><ele>240.0</ele><time>2026-05-01T12:16:11.864Z</time></trkpt><trkpt lat="44.9041333" lon="9.6039017"><ele>240.0</ele><time>2026-05-01T12:16:14.864Z</time></trkpt><trkpt lat="44.9042233" lon="9.6039667"><ele>240.0</ele><time>2026-05-01T12:16:21.864Z</time></trkpt><trkpt lat="44.9044116" lon="9.6040254"><ele>239.25</ele><time>2026-05-01T12:21:06.864Z</time></trkpt><trkpt lat="44.9045236" lon="9.6040022"><ele>238.5</ele><time>2026-05-01T12:21:07.864Z</time></trkpt><trkpt lat="44.9046395" lon="9.6039958"><ele>237.75</ele><time>2026-05-01T12:21:08.864Z</time></trkpt><trkpt lat="44.9047609" lon="9.6040263"><ele>237.0</ele><time>2026-05-01T12:21:09.864Z</time></trkpt><trkpt lat="44.9048852" lon="9.6040833"><ele>237.0</ele><time>2026-05-01T12:21:10.864Z</time></trkpt><trkpt lat="44.9050114" lon="9.6041544"><ele>237.0</ele><time>2026-05-01T12:21:11.864Z</time></trkpt><trkpt lat="44.9051327" lon="9.6042167"><ele>237.0</ele><time>2026-05-01T12:21:12.864Z</time></trkpt><trkpt lat="44.9052543" lon="9.6042529"><ele>237.0</ele><time>2026-05-01T12:21:13.864Z</time></trkpt><trkpt lat="44.9053802" lon="9.6042629"><ele>234.75</ele><time>2026-05-01T12:21:14.864Z</time></trkpt><trkpt lat="44.9054981" lon="9.6042461"><ele>232.5</ele><time>2026-05-01T12:21:15.864Z</time></trkpt><trkpt lat="44.9056064" lon="9.6042046"><ele>230.25</ele><time>2026-05-01T12:21:16.864Z</time></trkpt><trkpt lat="44.9057081" lon="9.6041429"><ele>228.0</ele><time>2026-05-01T12:21:17.864Z</time></trkpt><trkpt lat="44.9058075" lon="9.6040765"><ele>228.0</ele><time>2026-05-01T12:21:18.864Z</time></trkpt><trkpt lat="44.9059014" lon="9.60402"><ele>228.0</ele><time>2026-05-01T12:21:19.864Z</time></trkpt><trkpt lat="44.9059993" lon="9.6039762"><ele>228.0</ele><time>2026-05-01T12:21:20.864Z</time></trkpt><trkpt lat="44.9060949" lon="9.6039511"><ele>228.0</ele><time>2026-05-01T12:21:21.864Z</time></trkpt><trkpt lat="44.9061911" lon="9.6039491"><ele>228.0</ele><time>2026-05-01T12:21:22.864Z</time></trkpt><trkpt lat="44.906291" lon="9.6039614"><ele>226.66666666666666</ele><time>2026-05-01T12:21:23.864Z</time></trkpt><trkpt lat="44.9063828" lon="9.6039876"><ele>225.33333333333331</ele><time>2026-05-01T12:21:24.864Z</time></trkpt><trkpt lat="44.9064555" lon="9.6040276"><ele>224.0</ele><time>2026-05-01T12:21:25.864Z</time></trkpt><trkpt lat="44.9065716" lon="9.6041037"><ele>222.66666666666666</ele><time>2026-05-01T12:21:27.864Z</time></trkpt><trkpt lat="44.9065509" lon="9.6040174"><ele>221.33333333333331</ele><time>2026-05-01T12:21:32.864Z</time></trkpt><trkpt lat="44.9064939" lon="9.6039684"><ele>220.0</ele><time>2026-05-01T12:21:33.865Z</time></trkpt><trkpt lat="44.9064046" lon="9.6038877"><ele>219.99999999999997</ele><time>2026-05-01T12:21:35.864Z</time></trkpt><trkpt lat="44.9063515" lon="9.6038192"><ele>220.0</ele><time>2026-05-01T12:21:37.864Z</time></trkpt><trkpt lat="44.9064343" lon="9.6037754"><ele>220.0</ele><time>2026-05-01T12:21:40.864Z</time></trkpt><trkpt lat="44.9064996" lon="9.6037494"><ele>220.0</ele><time>2026-05-01T12:21:41.864Z</time></trkpt><trkpt lat="44.906585" lon="9.6036993"><ele>219.99999999999997</ele><time>2026-05-01T12:21:42.864Z</time></trkpt><trkpt lat="44.9066898" lon="9.6036231"><ele>220.0</ele><time>2026-05-01T12:21:43.864Z</time></trkpt><trkpt lat="44.9067991" lon="9.6035365"><ele>218.0</ele><time>2026-05-01T12:21:44.864Z</time></trkpt><trkpt lat="44.9069186" lon="9.6034379"><ele>216.0</ele><time>2026-05-01T12:21:45.864Z</time></trkpt><trkpt lat="44.9070315" lon="9.6033474"><ele>214.0</ele><time>2026-05-01T12:21:46.864Z</time></trkpt><trkpt lat="44.9071367" lon="9.6032631"><ele>212.0</ele><time>2026-05-01T12:21:47.864Z</time></trkpt><trkpt lat="44.9072434" lon="9.603184"><ele>212.0</ele><time>2026-05-01T12:21:48.864Z</time></trkpt><trkpt lat="44.9073526" lon="9.6031145"><ele>212.0</ele><time>2026-05-01T12:21:49.864Z</time></trkpt><trkpt lat="44.9074557" lon="9.6030526"><ele>212.0</ele><time>2026-05-01T12:21:50.864Z</time></trkpt><trkpt lat="44.9075528" lon="9.6029853"><ele>212.0</ele><time>2026-05-01T12:21:51.864Z</time></trkpt><trkpt lat="44.9076455" lon="9.6029332"><ele>212.0</ele><time>2026-05-01T12:21:52.864Z</time></trkpt><trkpt lat="44.9077331" lon="9.6029013"><ele>211.6</ele><time>2026-05-01T12:21:53.864Z</time></trkpt><trkpt lat="44.9078204" lon="9.6028677"><ele>211.2</ele><time>2026-05-01T12:21:54.864Z</time></trkpt><trkpt lat="44.907903" lon="9.6028246"><ele>210.8</ele><time>2026-05-01T12:21:55.864Z</time></trkpt><trkpt lat="44.9079794" lon="9.6027557"><ele>210.4</ele><time>2026-05-01T12:21:56.864Z</time></trkpt><trkpt lat="44.9080505" lon="9.6026552"><ele>210.0</ele><time>2026-05-01T12:21:57.864Z</time></trkpt><trkpt lat="44.9081307" lon="9.602553"><ele>207.2</ele><time>2026-05-01T12:21:58.864Z</time></trkpt><trkpt lat="44.9082164" lon="9.6024572"><ele>204.4</ele><time>2026-05-01T12:21:59.864Z</time></trkpt><trkpt lat="44.9083045" lon="9.6023718"><ele>201.60000000000002</ele><time>2026-05-01T12:22:00.864Z</time></trkpt><trkpt lat="44.9083912" lon="9.6023078"><ele>198.8</ele><time>2026-05-01T12:22:01.864Z</time></trkpt><trkpt lat="44.9084724" lon="9.6022638"><ele>196.0</ele><time>2026-05-01T12:22:02.864Z</time></trkpt><trkpt lat="44.9085459" lon="9.6022451"><ele>194.83333333333331</ele><time>2026-05-01T12:22:03.865Z</time></trkpt><trkpt lat="44.9086136" lon="9.602238"><ele>193.66666666666666</ele><time>2026-05-01T12:22:04.864Z</time></trkpt><trkpt lat="44.9087143" lon="9.6022604"><ele>192.5</ele><time>2026-05-01T12:22:06.864Z</time></trkpt><trkpt lat="44.9087828" lon="9.6022787"><ele>191.33333333333331</ele><time>2026-05-01T12:22:08.864Z</time></trkpt><trkpt lat="44.9087833" lon="9.6021775"><ele>190.16666666666666</ele><time>2026-05-01T12:22:12.864Z</time></trkpt><trkpt lat="44.9087116" lon="9.6020905"><ele>189.0</ele><time>2026-05-01T12:22:14.864Z</time></trkpt><trkpt lat="44.90863" lon="9.602005"><ele>187.5</ele><time>2026-05-01T12:22:16.864Z</time></trkpt><trkpt lat="44.9086917" lon="9.60192"><ele>186.0</ele><time>2026-05-01T12:22:21.864Z</time></trkpt><trkpt lat="44.90874" lon="9.60185"><ele>184.5</ele><time>2026-05-01T12:22:23.864Z</time></trkpt><trkpt lat="44.9087183" lon="9.6017483"><ele>183.0</ele><time>2026-05-01T12:22:26.864Z</time></trkpt><trkpt lat="44.90866" lon="9.601675"><ele>181.5</ele><time>2026-05-01T12:22:28.864Z</time></trkpt><trkpt lat="44.9087233" lon="9.601525"><ele>180.0</ele><time>2026-05-01T12:22:31.864Z</time></trkpt><trkpt lat="44.9088017" lon="9.6014417"><ele>180.0</ele><time>2026-05-01T12:22:32.864Z</time></trkpt><trkpt lat="44.9089083" lon="9.6013483"><ele>180.0</ele><time>2026-05-01T12:22:33.865Z</time></trkpt><trkpt lat="44.9090217" lon="9.6012433"><ele>180.0</ele><time>2026-05-01T12:22:34.864Z</time></trkpt><trkpt lat="44.9091217" lon="9.6011317"><ele>180.0</ele><time>2026-05-01T12:22:35.864Z</time></trkpt><trkpt lat="44.9092117" lon="9.6010283"><ele>179.0</ele><time>2026-05-01T12:22:36.864Z</time></trkpt><trkpt lat="44.909295" lon="9.600925"><ele>178.0</ele><time>2026-05-01T12:22:37.864Z</time></trkpt><trkpt lat="44.9093633" lon="9.6008617"><ele>177.0</ele><time>2026-05-01T12:22:38.864Z</time></trkpt><trkpt lat="44.9094317" lon="9.6008067"><ele>176.0</ele><time>2026-05-01T12:22:39.864Z</time></trkpt><trkpt lat="44.909495" lon="9.6007717"><ele>175.0</ele><time>2026-05-01T12:22:40.864Z</time></trkpt><trkpt lat="44.909585" lon="9.6006833"><ele>174.0</ele><time>2026-05-01T12:22:42.864Z</time></trkpt><trkpt lat="44.9096217" lon="9.6005717"><ele>174.0</ele><time>2026-05-01T12:22:44.864Z</time></trkpt><trkpt lat="44.9096017" lon="9.600415"><ele>174.0</ele><time>2026-05-01T12:22:46.864Z</time></trkpt><trkpt lat="44.9096017" lon="9.6002933"><ele>174.0</ele><time>2026-05-01T12:22:47.865Z</time></trkpt><trkpt lat="44.9095967" lon="9.6001633"><ele>174.0</ele><time>2026-05-01T12:22:48.864Z</time></trkpt><trkpt lat="44.9096033" lon="9.60002"><ele>174.0</ele><time>2026-05-01T12:22:49.864Z</time></trkpt><trkpt lat="44.9096267" lon="9.5998733"><ele>173.6</ele><time>2026-05-01T12:22:50.864Z</time></trkpt><trkpt lat="44.90968" lon="9.59975"><ele>173.2</ele><time>2026-05-01T12:22:51.864Z</time></trkpt><trkpt lat="44.909745" lon="9.5996283"><ele>172.79999999999998</ele><time>2026-05-01T12:22:52.864Z</time></trkpt><trkpt lat="44.9098117" lon="9.599505"><ele>172.39999999999998</ele><time>2026-05-01T12:22:53.864Z</time></trkpt><trkpt lat="44.90987" lon="9.5993767"><ele>172.0</ele><time>2026-05-01T12:22:54.864Z</time></trkpt><trkpt lat="44.9099333" lon="9.5992667"><ele>170.0</ele><time>2026-05-01T12:22:55.864Z</time></trkpt><trkpt lat="44.9099933" lon="9.59915"><ele>168.0</ele><time>2026-05-01T12:22:56.864Z</time></trkpt><trkpt lat="44.9100567" lon="9.5990433"><ele>166.0</ele><time>2026-05-01T12:22:57.864Z</time></trkpt><trkpt lat="44.9101217" lon="9.5989433"><ele>164.0</ele><time>2026-05-01T12:22:58.864Z</time></trkpt><trkpt lat="44.9101867" lon="9.59887"><ele>162.0</ele><time>2026-05-01T12:22:59.864Z</time></trkpt><trkpt lat="44.910255" lon="9.5988067"><ele>161.66666666666666</ele><time>2026-05-01T12:23:00.864Z</time></trkpt><trkpt lat="44.9103333" lon="9.5987483"><ele>161.33333333333334</ele><time>2026-05-01T12:23:01.864Z</time></trkpt><trkpt lat="44.9104183" lon="9.5986983"><ele>161.0</ele><time>2026-05-01T12:23:02.864Z</time></trkpt><trkpt lat="44.910505" lon="9.5986567"><ele>160.66666666666669</ele><time>2026-05-01T12:23:03.864Z</time></trkpt><trkpt lat="44.9105917" lon="9.5986217"><ele>160.33333333333334</ele><time>2026-05-01T12:23:04.864Z</time></trkpt><trkpt lat="44.91067" lon="9.5986"><ele>160.0</ele><time>2026-05-01T12:23:05.864Z</time></trkpt><trkpt lat="44.91074" lon="9.598605"><ele>160.0</ele><time>2026-05-01T12:23:06.864Z</time></trkpt><trkpt lat="44.910805" lon="9.5986333"><ele>160.0</ele><time>2026-05-01T12:23:07.864Z</time></trkpt><trkpt lat="44.91086" lon="9.598705"><ele>160.0</ele><time>2026-05-01T12:23:08.864Z</time></trkpt><trkpt lat="44.9109067" lon="9.598795"><ele>160.0</ele><time>2026-05-01T12:23:09.864Z</time></trkpt><trkpt lat="44.9109533" lon="9.5988867"><ele>160.0</ele><time>2026-05-01T12:23:10.864Z</time></trkpt><trkpt lat="44.91099" lon="9.5989617"><ele>160.0</ele><time>2026-05-01T12:23:11.864Z</time></trkpt><trkpt lat="44.91106" lon="9.5990367"><ele>158.33333333333334</ele><time>2026-05-01T12:23:13.864Z</time></trkpt><trkpt lat="44.911025" lon="9.5988933"><ele>156.66666666666669</ele><time>2026-05-01T12:23:17.864Z</time></trkpt><trkpt lat="44.9109817" lon="9.5987733"><ele>155.0</ele><time>2026-05-01T12:23:18.865Z</time></trkpt><trkpt lat="44.9109467" lon="9.5986667"><ele>153.33333333333334</ele><time>2026-05-01T12:23:19.864Z</time></trkpt><trkpt lat="44.91092" lon="9.5985833"><ele>151.66666666666666</ele><time>2026-05-01T12:23:20.864Z</time></trkpt><trkpt lat="44.91088" lon="9.5984717"><ele>150.0</ele><time>2026-05-01T12:23:21.864Z</time></trkpt><trkpt lat="44.910825" lon="9.598395"><ele>150.0</ele><time>2026-05-01T12:23:23.864Z</time></trkpt><trkpt lat="44.91073" lon="9.598385"><ele>150.0</ele><time>2026-05-01T12:23:25.865Z</time></trkpt><trkpt lat="44.9106867" lon="9.5982983"><ele>150.0</ele><time>2026-05-01T12:23:29.864Z</time></trkpt><trkpt lat="44.91079" lon="9.598165"><ele>150.0</ele><time>2026-05-01T12:23:31.864Z</time></trkpt><trkpt lat="44.91086" lon="9.5981133"><ele>150.0</ele><time>2026-05-01T12:23:32.864Z</time></trkpt><trkpt lat="44.9109317" lon="9.598075"><ele>149.5</ele><time>2026-05-01T12:23:33.864Z</time></trkpt><trkpt lat="44.9110017" lon="9.5980483"><ele>149.0</ele><time>2026-05-01T12:23:34.864Z</time></trkpt><trkpt lat="44.9111417" lon="9.5980283"><ele>148.5</ele><time>2026-05-01T12:23:36.864Z</time></trkpt><trkpt lat="44.911215" lon="9.5980283"><ele>148.0</ele><time>2026-05-01T12:23:37.864Z</time></trkpt><trkpt lat="44.91128" lon="9.5980067"><ele>147.5</ele><time>2026-05-01T12:23:39.864Z</time></trkpt><trkpt lat="44.9112933" lon="9.5979017"><ele>147.0</ele><time>2026-05-01T12:23:44.864Z</time></trkpt><trkpt lat="44.911255" lon="9.5978283"><ele>146.6</ele><time>2026-05-01T12:23:46.864Z</time></trkpt><trkpt lat="44.911115" lon="9.5977567"><ele>146.2</ele><time>2026-05-01T12:23:48.865Z</time></trkpt><trkpt lat="44.911045" lon="9.5977167"><ele>145.8</ele><time>2026-05-01T12:23:49.865Z</time></trkpt><trkpt lat="44.91096" lon="9.597675"><ele>145.4</ele><time>2026-05-01T12:23:50.864Z</time></trkpt><trkpt lat="44.9108817" lon="9.597545"><ele>145.0</ele><time>2026-05-01T12:23:52.865Z</time></trkpt><trkpt lat="44.91087" lon="9.597455"><ele>144.83333333333334</ele><time>2026-05-01T12:23:53.864Z</time></trkpt><trkpt lat="44.9108567" lon="9.597365"><ele>144.66666666666669</ele><time>2026-05-01T12:23:54.864Z</time></trkpt><trkpt lat="44.9108583" lon="9.5972533"><ele>144.5</ele><time>2026-05-01T12:23:55.864Z</time></trkpt><trkpt lat="44.91087" lon="9.5971617"><ele>144.33333333333334</ele><time>2026-05-01T12:23:56.865Z</time></trkpt><trkpt lat="44.9108833" lon="9.5969967"><ele>144.16666666666666</ele><time>2026-05-01T12:23:58.864Z</time></trkpt><trkpt lat="44.9108933" lon="9.5968767"><ele>144.0</ele><time>2026-05-01T12:24:00.864Z</time></trkpt><trkpt lat="44.9109417" lon="9.596785"><ele>143.0</ele><time>2026-05-01T12:24:02.864Z</time></trkpt><trkpt lat="44.9109967" lon="9.5967117"><ele>142.0</ele><time>2026-05-01T12:24:04.864Z</time></trkpt><trkpt lat="44.9110683" lon="9.5966583"><ele>141.0</ele><time>2026-05-01T12:24:06.865Z</time></trkpt><trkpt lat="44.911195" lon="9.5965883"><ele>140.0</ele><time>2026-05-01T12:24:08.864Z</time></trkpt><trkpt lat="44.9112817" lon="9.5965383"><ele>139.0</ele><time>2026-05-01T12:24:09.864Z</time></trkpt><trkpt lat="44.9113667" lon="9.596465"><ele>139.0</ele><time>2026-05-01T12:24:10.865Z</time></trkpt><trkpt lat="44.9114417" lon="9.59639"><ele>139.0</ele><time>2026-05-01T12:24:11.864Z</time></trkpt><trkpt lat="44.911495" lon="9.5963283"><ele>139.0</ele><time>2026-05-01T12:24:12.864Z</time></trkpt><trkpt lat="44.9115583" lon="9.5962483"><ele>139.0</ele><time>2026-05-01T12:24:14.864Z</time></trkpt><trkpt lat="44.911525" lon="9.59617"><ele>139.0</ele><time>2026-05-01T12:24:18.864Z</time></trkpt><trkpt lat="44.91142" lon="9.596065"><ele>139.0</ele><time>2026-05-01T12:24:20.864Z</time></trkpt><trkpt lat="44.9113367" lon="9.5960017"><ele>138.0</ele><time>2026-05-01T12:24:21.864Z</time></trkpt><trkpt lat="44.9112333" lon="9.5959367"><ele>137.0</ele><time>2026-05-01T12:24:22.864Z</time></trkpt><trkpt lat="44.91111" lon="9.5958617"><ele>136.0</ele><time>2026-05-01T12:24:23.864Z</time></trkpt><trkpt lat="44.9109717" lon="9.5957867"><ele>135.0</ele><time>2026-05-01T12:24:24.864Z</time></trkpt><trkpt lat="44.9108317" lon="9.5957117"><ele>135.0</ele><time>2026-05-01T12:24:25.864Z</time></trkpt><trkpt lat="44.9106833" lon="9.5956333"><ele>135.0</ele><time>2026-05-01T12:24:26.864Z</time></trkpt><trkpt lat="44.91054" lon="9.595545"><ele>135.0</ele><time>2026-05-01T12:24:27.864Z</time></trkpt><trkpt lat="44.910385" lon="9.59544"><ele>134.0</ele><time>2026-05-01T12:24:28.864Z</time></trkpt><trkpt lat="44.91023" lon="9.595315"><ele>133.0</ele><time>2026-05-01T12:24:29.864Z</time></trkpt><trkpt lat="44.9100783" lon="9.5951483"><ele>132.0</ele><time>2026-05-01T12:24:30.864Z</time></trkpt><trkpt lat="44.9099417" lon="9.5949717"><ele>132.0</ele><time>2026-05-01T12:24:31.864Z</time></trkpt><trkpt lat="44.9098317" lon="9.5948017"><ele>132.0</ele><time>2026-05-01T12:24:32.864Z</time></trkpt><trkpt lat="44.9097283" lon="9.5946383"><ele>132.0</ele><time>2026-05-01T12:24:33.864Z</time></trkpt><trkpt lat="44.9096233" lon="9.594475"><ele>131.66666666666666</ele><time>2026-05-01T12:24:34.864Z</time></trkpt><trkpt lat="44.9095183" lon="9.5943167"><ele>131.33333333333331</ele><time>2026-05-01T12:24:35.864Z</time></trkpt><trkpt lat="44.9094083" lon="9.5941567"><ele>131.0</ele><time>2026-05-01T12:24:36.864Z</time></trkpt><trkpt lat="44.9093083" lon="9.5940183"><ele>131.75</ele><time>2026-05-01T12:24:37.864Z</time></trkpt><trkpt lat="44.9092083" lon="9.5938733"><ele>132.5</ele><time>2026-05-01T12:24:38.865Z</time></trkpt><trkpt lat="44.9091133" lon="9.5937317"><ele>133.25</ele><time>2026-05-01T12:24:39.864Z</time></trkpt><trkpt lat="44.9090267" lon="9.5935967"><ele>134.0</ele><time>2026-05-01T12:24:40.864Z</time></trkpt><trkpt lat="44.9089467" lon="9.5934617"><ele>134.0</ele><time>2026-05-01T12:24:41.864Z</time></trkpt><trkpt lat="44.90886" lon="9.59331"><ele>134.0</ele><time>2026-05-01T12:24:42.864Z</time></trkpt><trkpt lat="44.9087767" lon="9.5931517"><ele>134.0</ele><time>2026-05-01T12:24:43.864Z</time></trkpt><trkpt lat="44.9086783" lon="9.5930067"><ele>134.0</ele><time>2026-05-01T12:24:44.864Z</time></trkpt><trkpt lat="44.9085817" lon="9.5928533"><ele>134.0</ele><time>2026-05-01T12:24:45.864Z</time></trkpt><trkpt lat="44.90849" lon="9.59272"><ele>134.0</ele><time>2026-05-01T12:24:46.864Z</time></trkpt><trkpt lat="44.9084" lon="9.5926083"><ele>134.0</ele><time>2026-05-01T12:24:47.864Z</time></trkpt><trkpt lat="44.9083183" lon="9.5925167"><ele>134.0</ele><time>2026-05-01T12:24:48.864Z</time></trkpt><trkpt lat="44.908245" lon="9.592435"><ele>134.0</ele><time>2026-05-01T12:24:49.864Z</time></trkpt><trkpt lat="44.9081883" lon="9.5923783"><ele>134.0</ele><time>2026-05-01T12:24:50.864Z</time></trkpt><trkpt lat="44.90815" lon="9.592305"><ele>134.0</ele><time>2026-05-01T12:24:52.864Z</time></trkpt><trkpt lat="44.9081417" lon="9.5922167"><ele>134.0</ele><time>2026-05-01T12:24:56.865Z</time></trkpt><trkpt lat="44.9081033" lon="9.59208"><ele>134.0</ele><time>2026-05-01T12:25:21.864Z</time></trkpt><trkpt lat="44.9080517" lon="9.5919683"><ele>134.0</ele><time>2026-05-01T12:26:05.864Z</time></trkpt><trkpt lat="44.9079967" lon="9.5918717"><ele>134.0</ele><time>2026-05-01T12:26:08.864Z</time></trkpt><trkpt lat="44.90797" lon="9.5917883"><ele>134.2</ele><time>2026-05-01T12:26:10.864Z</time></trkpt><trkpt lat="44.9079483" lon="9.5916783"><ele>134.4</ele><time>2026-05-01T12:26:13.865Z</time></trkpt><trkpt lat="44.907925" lon="9.5915817"><ele>134.6</ele><time>2026-05-01T12:26:16.864Z</time></trkpt><trkpt lat="44.9078917" lon="9.5914867"><ele>134.8</ele><time>2026-05-01T12:26:19.864Z</time></trkpt><trkpt lat="44.9078617" lon="9.5913767"><ele>135.0</ele><time>2026-05-01T12:26:22.864Z</time></trkpt><trkpt lat="44.9077633" lon="9.5911883"><ele>135.0</ele><time>2026-05-01T12:26:39.864Z</time></trkpt><trkpt lat="44.9077333" lon="9.5910783"><ele>135.0</ele><time>2026-05-01T12:26:41.864Z</time></trkpt><trkpt lat="44.9076933" lon="9.5909667"><ele>135.0</ele><time>2026-05-01T12:26:43.865Z</time></trkpt><trkpt lat="44.90766" lon="9.5908717"><ele>135.0</ele><time>2026-05-01T12:26:45.864Z</time></trkpt><trkpt lat="44.9075933" lon="9.5908933"><ele>135.0</ele><time>2026-05-01T12:26:50.864Z</time></trkpt><trkpt lat="44.9075167" lon="9.59092"><ele>135.0</ele><time>2026-05-01T12:26:53.864Z</time></trkpt><trkpt lat="44.9074283" lon="9.5909783"><ele>135.0</ele><time>2026-05-01T12:26:56.864Z</time></trkpt><trkpt lat="44.9073583" lon="9.5910333"><ele>135.0</ele><time>2026-05-01T12:26:58.864Z</time></trkpt><trkpt lat="44.90723" lon="9.5910717"><ele>135.0</ele><time>2026-05-01T12:27:11.864Z</time></trkpt><trkpt lat="44.9073167" lon="9.590975"><ele>135.0</ele><time>2026-05-01T12:27:49.864Z</time></trkpt><trkpt lat="44.9073917" lon="9.5909317"><ele>135.0</ele><time>2026-05-01T12:27:52.864Z</time></trkpt><trkpt lat="44.907445" lon="9.59088"><ele>135.0</ele><time>2026-05-01T12:27:55.864Z</time></trkpt><trkpt lat="44.90751" lon="9.5908617"><ele>135.0</ele><time>2026-05-01T12:27:58.864Z</time></trkpt><trkpt lat="44.90758" lon="9.5909217"><ele>135.0</ele><time>2026-05-01T12:28:02.864Z</time></trkpt><trkpt lat="44.907615" lon="9.591005"><ele>135.0</ele><time>2026-05-01T12:28:05.864Z</time></trkpt><trkpt lat="44.9076267" lon="9.5911117"><ele>135.0</ele><time>2026-05-01T12:28:09.864Z</time></trkpt><trkpt lat="44.907665" lon="9.591195"><ele>135.0</ele><time>2026-05-01T12:28:54.864Z</time></trkpt><trkpt lat="44.9077183" lon="9.591245"><ele>135.0</ele><time>2026-05-01T12:29:04.864Z</time></trkpt><trkpt lat="44.9077667" lon="9.591305"><ele>135.0</ele><time>2026-05-01T12:29:18.864Z</time></trkpt><trkpt lat="44.9078048" lon="9.5913765"><ele>135.0</ele><time>2026-05-01T12:29:27.948Z</time></trkpt><trkpt lat="44.9078284" lon="9.5914666"><ele>135.0</ele><time>2026-05-01T12:29:34.958Z</time></trkpt><trkpt lat="44.9078655" lon="9.5915498"><ele>135.0</ele><time>2026-05-01T12:29:45.911Z</time></trkpt><trkpt lat="44.9079108" lon="9.5916146"><ele>135.0</ele><time>2026-05-01T12:29:52.921Z</time></trkpt><trkpt lat="44.9079786" lon="9.5916348"><ele>135.0</ele><time>2026-05-01T12:30:03.874Z</time></trkpt><trkpt lat="44.9080389" lon="9.59168"><ele>135.0</ele><time>2026-05-01T12:30:13.95Z</time></trkpt><trkpt lat="44.908086" lon="9.5917448"><ele>135.0</ele><time>2026-05-01T12:30:21.919Z</time></trkpt><trkpt lat="44.9081369" lon="9.5918011"><ele>135.0</ele><time>2026-05-01T12:30:32.898Z</time></trkpt></trkseg></trk></gpx>